<?xml version="1.0" encoding="UTF-8" standalone="yes"?>
<gpx
 xmlns="http://www.topografix.com/GPX/1/1"
 creator="OziExplorer Version 3955k - http://www.oziexplorer.com"
 version="1.1"
 xmlns:xsi="http://www.w3.org/2001/XMLSchema-instance"
 xsi:schemaLocation="http://www.topografix.com/GPX/1/1 http://www.topografix.com/GPX/1/1/gpx.xsd">
<metadata>
 <time>2012-05-07T17:48:05Z</time>
 <bounds minlat="42.702809" minlon="-2.616520" maxlat="42.808698" maxlon="-2.533900"/>
</metadata>
<wpt lat="42.7028130" lon="-2.5678300">
 <time>2012-04-19T21:01:37.563Z</time>
 <name>MARQUINEZ-Salida</name>
 <sym>Airport</sym>
</wpt>
<wpt lat="42.7028090" lon="-2.5678480">
 <time>2012-04-19T21:03:19.705Z</time>
 <name>MARQUINEZ-Llegada</name>
 <sym>Airport</sym>
</wpt>
<wpt lat="42.7661710" lon="-2.5376240">
 <time>2012-04-19T21:05:46.015Z</time>
 <name>KAPILDUY-Control-Avituallamiento</name>
 <sym>Airport</sym>
</wpt>
<wpt lat="42.7682320" lon="-2.6145470">
 <time>2012-04-19T21:12:45.564Z</time>
 <name>PALOGAN-Control</name>
 <sym>Airport</sym>
</wpt>
<wpt lat="42.7531140" lon="-2.5886810">
 <time>2012-04-19T21:13:37.949Z</time>
 <name>DESFILADERO-Control-Avituallamiento</name>
 <sym>Airport</sym>
</wpt>
<wpt lat="42.7687440" lon="-2.6029810">
 <time>2012-04-19T21:15:29.405Z</time>
 <name>SAN CRISTOBAL</name>
 <sym>Airport</sym>
</wpt>
<wpt lat="42.7795370" lon="-2.5893920">
 <time>2012-04-19T21:16:04.535Z</time>
 <name>PUERTO OKINA</name>
 <sym>Airport</sym>
</wpt>
<wpt lat="42.7991520" lon="-2.5625450">
 <time>2012-04-19T21:18:21.764Z</time>
 <name>ALMURRAIN-control</name>
 <sym>Airport</sym>
</wpt>
<wpt lat="42.8067100" lon="-2.5577800">
 <ele>682.142395</ele>
 <time>2012-05-07T19:48:05.599Z</time>
 <name>HIJONA-Avituallamiento</name>
</wpt>
<wpt lat="42.8086980" lon="-2.5568820">
 <time>2012-04-22T19:29:45.684Z</time>
 <name>GR 25</name>
 <sym>Airport</sym>
</wpt>
<wpt lat="42.8075340" lon="-2.5705280">
 <time>2012-04-22T19:30:19.457Z</time>
 <name>GR 38</name>
 <sym>Airport</sym>
</wpt>
<wpt lat="42.7313630" lon="-2.5502260">
 <time>2012-04-22T19:31:30.988Z</time>
 <name>BARRANCO MOLINOS</name>
 <sym>Airport</sym>
</wpt>
<wpt lat="42.7028130" lon="-2.5678300">
 <time>2012-04-19T21:01:37.563Z</time>
 <name>MARQUINEZ-Salida</name>
 <sym>Airport</sym>
</wpt>
<wpt lat="42.7028090" lon="-2.5678480">
 <time>2012-04-19T21:03:19.705Z</time>
 <name>MARQUINEZ-Llegada</name>
 <sym>Airport</sym>
</wpt>
<wpt lat="42.7661710" lon="-2.5376240">
 <time>2012-04-19T21:05:46.015Z</time>
 <name>KAPILDUY-Control-Avituallamiento</name>
 <sym>Airport</sym>
</wpt>
<wpt lat="42.7531140" lon="-2.5886810">
 <time>2012-04-19T21:13:37.949Z</time>
 <name>DESFILADERO-Control-Avituallamiento</name>
 <sym>Airport</sym>
</wpt>
<wpt lat="42.7608780" lon="-2.5620200">
 <time>2012-04-20T19:52:26.345Z</time>
 <name>BUTXISOLO</name>
 <sym>Airport</sym>
</wpt>
<trk>
 <desc>Marcha corta Gazteiz 2012</desc>
<trkseg>
<trkpt lat="42.7028100" lon="-2.5678300">
<ele>695.675476</ele>
<time>2012-03-29T07:31:41.002Z</time>
</trkpt>
<trkpt lat="42.7028500" lon="-2.5678700">
<ele>696.102234</ele>
<time>2012-03-29T07:31:54.998Z</time>
</trkpt>
<trkpt lat="42.7028700" lon="-2.5678700">
<ele>696.254639</ele>
<time>2012-03-29T07:32:01.003Z</time>
</trkpt>
<trkpt lat="42.7029500" lon="-2.5677500">
<ele>697.626282</ele>
<time>2012-03-29T07:32:16.002Z</time>
</trkpt>
<trkpt lat="42.7030000" lon="-2.5676600">
<ele>698.266296</ele>
<time>2012-03-29T07:32:28.997Z</time>
</trkpt>
<trkpt lat="42.7030500" lon="-2.5675700">
<ele>698.662537</ele>
<time>2012-03-29T07:32:35.002Z</time>
</trkpt>
<trkpt lat="42.7030900" lon="-2.5675100">
<ele>698.967346</ele>
<time>2012-03-29T07:32:39.002Z</time>
</trkpt>
<trkpt lat="42.7031000" lon="-2.5674800">
<ele>698.936890</ele>
<time>2012-03-29T07:32:40.998Z</time>
</trkpt>
<trkpt lat="42.7032200" lon="-2.5672600">
<ele>700.247498</ele>
<time>2012-03-29T07:32:56.999Z</time>
</trkpt>
<trkpt lat="42.7032200" lon="-2.5672500">
<ele>700.217041</ele>
<time>2012-03-29T07:32:58.001Z</time>
</trkpt>
<trkpt lat="42.7032200" lon="-2.5671500">
<ele>700.430420</ele>
<time>2012-03-29T07:33:13.000Z</time>
</trkpt>
<trkpt lat="42.7032800" lon="-2.5669800">
<ele>700.979065</ele>
<time>2012-03-29T07:33:34.998Z</time>
</trkpt>
<trkpt lat="42.7033100" lon="-2.5669400">
<ele>701.192383</ele>
<time>2012-03-29T07:33:49.997Z</time>
</trkpt>
<trkpt lat="42.7033300" lon="-2.5669300">
<ele>701.527710</ele>
<time>2012-03-29T07:33:52.001Z</time>
</trkpt>
<trkpt lat="42.7033800" lon="-2.5668300">
<ele>701.923889</ele>
<time>2012-03-29T07:33:57.997Z</time>
</trkpt>
<trkpt lat="42.7034300" lon="-2.5667400">
<ele>702.320129</ele>
<time>2012-03-29T07:34:04.996Z</time>
</trkpt>
<trkpt lat="42.7035500" lon="-2.5665300">
<ele>703.996521</ele>
<time>2012-03-29T07:34:19.001Z</time>
</trkpt>
<trkpt lat="42.7036500" lon="-2.5663400">
<ele>705.154785</ele>
<time>2012-03-29T07:34:31.996Z</time>
</trkpt>
<trkpt lat="42.7037400" lon="-2.5662100">
<ele>706.160645</ele>
<time>2012-03-29T07:34:44.999Z</time>
</trkpt>
<trkpt lat="42.7038500" lon="-2.5660600">
<ele>706.953064</ele>
<time>2012-03-29T07:35:02.996Z</time>
</trkpt>
<trkpt lat="42.7039100" lon="-2.5659700">
<ele>707.989441</ele>
<time>2012-03-29T07:35:14.997Z</time>
</trkpt>
<trkpt lat="42.7039600" lon="-2.5658900">
<ele>709.940125</ele>
<time>2012-03-29T07:35:25.996Z</time>
</trkpt>
<trkpt lat="42.7039800" lon="-2.5658400">
<ele>710.184021</ele>
<time>2012-03-29T07:35:37.003Z</time>
</trkpt>
<trkpt lat="42.7040700" lon="-2.5656900">
<ele>711.951843</ele>
<time>2012-03-29T07:35:51.000Z</time>
</trkpt>
<trkpt lat="42.7041400" lon="-2.5655100">
<ele>712.866272</ele>
<time>2012-03-29T07:36:04.003Z</time>
</trkpt>
<trkpt lat="42.7042000" lon="-2.5654300">
<ele>714.237854</ele>
<time>2012-03-29T07:36:12.004Z</time>
</trkpt>
<trkpt lat="42.7042600" lon="-2.5652700">
<ele>714.938904</ele>
<time>2012-03-29T07:36:23.003Z</time>
</trkpt>
<trkpt lat="42.7043200" lon="-2.5651200">
<ele>714.786499</ele>
<time>2012-03-29T07:36:31.997Z</time>
</trkpt>
<trkpt lat="42.7043600" lon="-2.5649700">
<ele>714.664551</ele>
<time>2012-03-29T07:36:42.002Z</time>
</trkpt>
<trkpt lat="42.7044400" lon="-2.5647200">
<ele>715.792297</ele>
<time>2012-03-29T07:36:57.001Z</time>
</trkpt>
<trkpt lat="42.7045200" lon="-2.5646200">
<ele>716.767700</ele>
<time>2012-03-29T07:37:06.997Z</time>
</trkpt>
<trkpt lat="42.7045400" lon="-2.5645900">
<ele>716.950562</ele>
<time>2012-03-29T07:37:10.998Z</time>
</trkpt>
<trkpt lat="42.7045700" lon="-2.5645700">
<ele>717.316284</ele>
<time>2012-03-29T07:37:13.996Z</time>
</trkpt>
<trkpt lat="42.7046100" lon="-2.5645200">
<ele>717.834534</ele>
<time>2012-03-29T07:37:18.998Z</time>
</trkpt>
<trkpt lat="42.7047800" lon="-2.5644200">
<ele>719.724243</ele>
<time>2012-03-29T07:37:35.000Z</time>
</trkpt>
<trkpt lat="42.7049400" lon="-2.5643400">
<ele>721.827332</ele>
<time>2012-03-29T07:37:51.001Z</time>
</trkpt>
<trkpt lat="42.7050800" lon="-2.5642800">
<ele>724.052429</ele>
<time>2012-03-29T07:38:04.004Z</time>
</trkpt>
<trkpt lat="42.7051000" lon="-2.5642700">
<ele>724.113342</ele>
<time>2012-03-29T07:38:06.000Z</time>
</trkpt>
<trkpt lat="42.7052600" lon="-2.5641600">
<ele>726.216492</ele>
<time>2012-03-29T07:38:20.999Z</time>
</trkpt>
<trkpt lat="42.7053700" lon="-2.5640100">
<ele>728.563477</ele>
<time>2012-03-29T07:38:34.996Z</time>
</trkpt>
<trkpt lat="42.7054700" lon="-2.5637900">
<ele>729.630249</ele>
<time>2012-03-29T07:38:50.004Z</time>
</trkpt>
<trkpt lat="42.7055900" lon="-2.5635600">
<ele>731.398132</ele>
<time>2012-03-29T07:39:05.003Z</time>
</trkpt>
<trkpt lat="42.7056400" lon="-2.5634800">
<ele>732.007690</ele>
<time>2012-03-29T07:39:17.997Z</time>
</trkpt>
<trkpt lat="42.7056500" lon="-2.5634900">
<ele>732.251465</ele>
<time>2012-03-29T07:39:36.003Z</time>
</trkpt>
<trkpt lat="42.7057600" lon="-2.5633400">
<ele>732.830627</ele>
<time>2012-03-29T07:39:50.000Z</time>
</trkpt>
<trkpt lat="42.7059300" lon="-2.5631300">
<ele>734.750916</ele>
<time>2012-03-29T07:40:06.001Z</time>
</trkpt>
<trkpt lat="42.7060600" lon="-2.5629600">
<ele>736.091980</ele>
<time>2012-03-29T07:40:19.998Z</time>
</trkpt>
<trkpt lat="42.7062100" lon="-2.5627600">
<ele>737.768372</ele>
<time>2012-03-29T07:40:34.003Z</time>
</trkpt>
<trkpt lat="42.7063500" lon="-2.5625700">
<ele>739.170532</ele>
<time>2012-03-29T07:40:49.996Z</time>
</trkpt>
<trkpt lat="42.7065100" lon="-2.5623700">
<ele>740.298279</ele>
<time>2012-03-29T07:41:06.999Z</time>
</trkpt>
<trkpt lat="42.7065500" lon="-2.5623100">
<ele>740.816406</ele>
<time>2012-03-29T07:41:12.002Z</time>
</trkpt>
<trkpt lat="42.7066100" lon="-2.5622600">
<ele>741.669861</ele>
<time>2012-03-29T07:41:17.998Z</time>
</trkpt>
<trkpt lat="42.7066100" lon="-2.5622400">
<ele>741.486938</ele>
<time>2012-03-29T07:41:20.003Z</time>
</trkpt>
<trkpt lat="42.7067900" lon="-2.5620600">
<ele>742.980530</ele>
<time>2012-03-29T07:41:36.004Z</time>
</trkpt>
<trkpt lat="42.7068800" lon="-2.5619800">
<ele>742.523315</ele>
<time>2012-03-29T07:41:43.996Z</time>
</trkpt>
<trkpt lat="42.7069300" lon="-2.5619200">
<ele>742.157471</ele>
<time>2012-03-29T07:41:56.999Z</time>
</trkpt>
<trkpt lat="42.7070200" lon="-2.5618400">
<ele>739.993469</ele>
<time>2012-03-29T07:42:14.996Z</time>
</trkpt>
<trkpt lat="42.7072100" lon="-2.5616700">
<ele>739.749573</ele>
<time>2012-03-29T07:42:30.997Z</time>
</trkpt>
<trkpt lat="42.7073400" lon="-2.5615300">
<ele>739.627686</ele>
<time>2012-03-29T07:42:44.001Z</time>
</trkpt>
<trkpt lat="42.7074600" lon="-2.5613700">
<ele>740.420166</ele>
<time>2012-03-29T07:42:57.997Z</time>
</trkpt>
<trkpt lat="42.7075400" lon="-2.5612600">
<ele>741.486938</ele>
<time>2012-03-29T07:43:09.998Z</time>
</trkpt>
<trkpt lat="42.7076300" lon="-2.5611600">
<ele>742.736633</ele>
<time>2012-03-29T07:43:20.004Z</time>
</trkpt>
<trkpt lat="42.7076500" lon="-2.5610600">
<ele>743.468140</ele>
<time>2012-03-29T07:43:35.003Z</time>
</trkpt>
<trkpt lat="42.7076700" lon="-2.5610100">
<ele>743.986267</ele>
<time>2012-03-29T07:43:39.996Z</time>
</trkpt>
<trkpt lat="42.7076900" lon="-2.5609800">
<ele>744.230164</ele>
<time>2012-03-29T07:43:43.997Z</time>
</trkpt>
<trkpt lat="42.7078500" lon="-2.5608200">
<ele>747.003845</ele>
<time>2012-03-29T07:43:59.998Z</time>
</trkpt>
<trkpt lat="42.7079000" lon="-2.5607300">
<ele>747.308655</ele>
<time>2012-03-29T07:44:06.996Z</time>
</trkpt>
<trkpt lat="42.7079300" lon="-2.5607000">
<ele>747.552490</ele>
<time>2012-03-29T07:44:10.997Z</time>
</trkpt>
<trkpt lat="42.7079600" lon="-2.5606600">
<ele>747.643860</ele>
<time>2012-03-29T07:44:14.997Z</time>
</trkpt>
<trkpt lat="42.7080400" lon="-2.5606000">
<ele>749.350830</ele>
<time>2012-03-29T07:44:21.002Z</time>
</trkpt>
<trkpt lat="42.7081000" lon="-2.5605500">
<ele>751.453918</ele>
<time>2012-03-29T07:44:28.000Z</time>
</trkpt>
<trkpt lat="42.7081800" lon="-2.5604700">
<ele>754.501892</ele>
<time>2012-03-29T07:44:36.001Z</time>
</trkpt>
<trkpt lat="42.7082200" lon="-2.5604600">
<ele>756.117371</ele>
<time>2012-03-29T07:44:38.999Z</time>
</trkpt>
<trkpt lat="42.7082500" lon="-2.5604400">
<ele>756.848938</ele>
<time>2012-03-29T07:44:41.997Z</time>
</trkpt>
<trkpt lat="42.7082900" lon="-2.5603800">
<ele>757.915710</ele>
<time>2012-03-29T07:44:55.000Z</time>
</trkpt>
<trkpt lat="42.7083200" lon="-2.5603700">
<ele>758.891052</ele>
<time>2012-03-29T07:45:07.001Z</time>
</trkpt>
<trkpt lat="42.7083900" lon="-2.5603000">
<ele>760.171204</ele>
<time>2012-03-29T07:45:14.000Z</time>
</trkpt>
<trkpt lat="42.7084500" lon="-2.5602600">
<ele>761.420898</ele>
<time>2012-03-29T07:45:19.002Z</time>
</trkpt>
<trkpt lat="42.7085200" lon="-2.5601700">
<ele>762.853455</ele>
<time>2012-03-29T07:45:31.003Z</time>
</trkpt>
<trkpt lat="42.7085200" lon="-2.5601600">
<ele>762.731506</ele>
<time>2012-03-29T07:45:39.004Z</time>
</trkpt>
<trkpt lat="42.7085800" lon="-2.5601300">
<ele>764.834656</ele>
<time>2012-03-29T07:45:43.998Z</time>
</trkpt>
<trkpt lat="42.7086100" lon="-2.5600800">
<ele>764.194519</ele>
<time>2012-03-29T07:45:47.998Z</time>
</trkpt>
<trkpt lat="42.7087000" lon="-2.5600100">
<ele>765.291870</ele>
<time>2012-03-29T07:45:54.996Z</time>
</trkpt>
<trkpt lat="42.7087300" lon="-2.5599800">
<ele>766.053833</ele>
<time>2012-03-29T07:45:58.997Z</time>
</trkpt>
<trkpt lat="42.7088500" lon="-2.5598300">
<ele>766.998718</ele>
<time>2012-03-29T07:46:13.996Z</time>
</trkpt>
<trkpt lat="42.7090000" lon="-2.5597000">
<ele>768.766541</ele>
<time>2012-03-29T07:46:29.004Z</time>
</trkpt>
<trkpt lat="42.7091700" lon="-2.5595600">
<ele>768.797058</ele>
<time>2012-03-29T07:46:44.003Z</time>
</trkpt>
<trkpt lat="42.7093400" lon="-2.5595500">
<ele>770.900146</ele>
<time>2012-03-29T07:46:59.002Z</time>
</trkpt>
<trkpt lat="42.7094800" lon="-2.5595900">
<ele>772.698486</ele>
<time>2012-03-29T07:47:12.998Z</time>
</trkpt>
<trkpt lat="42.7095500" lon="-2.5595700">
<ele>772.911865</ele>
<time>2012-03-29T07:47:20.999Z</time>
</trkpt>
<trkpt lat="42.7097300" lon="-2.5596000">
<ele>774.588257</ele>
<time>2012-03-29T07:47:37.000Z</time>
</trkpt>
<trkpt lat="42.7098300" lon="-2.5595800">
<ele>775.594116</ele>
<time>2012-03-29T07:47:45.001Z</time>
</trkpt>
<trkpt lat="42.7099900" lon="-2.5595100">
<ele>777.087585</ele>
<time>2012-03-29T07:47:58.998Z</time>
</trkpt>
<trkpt lat="42.7100800" lon="-2.5594900">
<ele>777.910522</ele>
<time>2012-03-29T07:48:13.003Z</time>
</trkpt>
<trkpt lat="42.7102300" lon="-2.5594600">
<ele>779.129761</ele>
<time>2012-03-29T07:48:24.002Z</time>
</trkpt>
<trkpt lat="42.7102900" lon="-2.5594500">
<ele>780.409912</ele>
<time>2012-03-29T07:48:28.002Z</time>
</trkpt>
<trkpt lat="42.7103600" lon="-2.5594800">
<ele>782.695862</ele>
<time>2012-03-29T07:48:36.003Z</time>
</trkpt>
<trkpt lat="42.7105300" lon="-2.5594300">
<ele>784.250427</ele>
<time>2012-03-29T07:48:50.000Z</time>
</trkpt>
<trkpt lat="42.7106600" lon="-2.5593700">
<ele>785.835327</ele>
<time>2012-03-29T07:49:03.003Z</time>
</trkpt>
<trkpt lat="42.7107800" lon="-2.5593300">
<ele>787.420288</ele>
<time>2012-03-29T07:49:15.004Z</time>
</trkpt>
<trkpt lat="42.7108400" lon="-2.5593200">
<ele>788.487061</ele>
<time>2012-03-29T07:49:19.998Z</time>
</trkpt>
<trkpt lat="42.7110300" lon="-2.5593200">
<ele>792.327576</ele>
<time>2012-03-29T07:49:34.997Z</time>
</trkpt>
<trkpt lat="42.7111700" lon="-2.5593200">
<ele>794.430664</ele>
<time>2012-03-29T07:49:49.002Z</time>
</trkpt>
<trkpt lat="42.7112700" lon="-2.5593300">
<ele>796.960571</ele>
<time>2012-03-29T07:49:58.999Z</time>
</trkpt>
<trkpt lat="42.7113900" lon="-2.5593200">
<ele>798.057861</ele>
<time>2012-03-29T07:50:13.004Z</time>
</trkpt>
<trkpt lat="42.7115300" lon="-2.5593100">
<ele>799.978088</ele>
<time>2012-03-29T07:50:29.999Z</time>
</trkpt>
<trkpt lat="42.7116300" lon="-2.5593400">
<ele>802.446960</ele>
<time>2012-03-29T07:50:43.002Z</time>
</trkpt>
<trkpt lat="42.7117400" lon="-2.5593700">
<ele>806.104553</ele>
<time>2012-03-29T07:50:56.999Z</time>
</trkpt>
<trkpt lat="42.7118400" lon="-2.5593700">
<ele>807.780945</ele>
<time>2012-03-29T07:51:10.002Z</time>
</trkpt>
<trkpt lat="42.7119700" lon="-2.5592800">
<ele>808.421082</ele>
<time>2012-03-29T07:51:25.001Z</time>
</trkpt>
<trkpt lat="42.7121000" lon="-2.5592600">
<ele>813.389282</ele>
<time>2012-03-29T07:51:36.000Z</time>
</trkpt>
<trkpt lat="42.7121800" lon="-2.5592500">
<ele>815.583862</ele>
<time>2012-03-29T07:51:44.001Z</time>
</trkpt>
<trkpt lat="42.7123100" lon="-2.5591700">
<ele>816.772522</ele>
<time>2012-03-29T07:51:57.997Z</time>
</trkpt>
<trkpt lat="42.7124400" lon="-2.5591000">
<ele>818.083191</ele>
<time>2012-03-29T07:52:13.999Z</time>
</trkpt>
<trkpt lat="42.7125700" lon="-2.5590700">
<ele>821.039734</ele>
<time>2012-03-29T07:52:30.000Z</time>
</trkpt>
<trkpt lat="42.7126700" lon="-2.5590100">
<ele>822.777100</ele>
<time>2012-03-29T07:52:43.997Z</time>
</trkpt>
<trkpt lat="42.7127000" lon="-2.5590000">
<ele>823.386719</ele>
<time>2012-03-29T07:52:47.004Z</time>
</trkpt>
<trkpt lat="42.7128200" lon="-2.5589700">
<ele>826.556641</ele>
<time>2012-03-29T07:53:01.000Z</time>
</trkpt>
<trkpt lat="42.7128800" lon="-2.5589500">
<ele>827.531982</ele>
<time>2012-03-29T07:53:09.001Z</time>
</trkpt>
<trkpt lat="42.7130100" lon="-2.5589400">
<ele>829.208374</ele>
<time>2012-03-29T07:53:24.000Z</time>
</trkpt>
<trkpt lat="42.7130400" lon="-2.5589400">
<ele>829.604675</ele>
<time>2012-03-29T07:53:26.998Z</time>
</trkpt>
<trkpt lat="42.7130900" lon="-2.5589500">
<ele>830.336121</ele>
<time>2012-03-29T07:53:44.002Z</time>
</trkpt>
<trkpt lat="42.7132100" lon="-2.5589400">
<ele>830.976257</ele>
<time>2012-03-29T07:53:56.996Z</time>
</trkpt>
<trkpt lat="42.7133300" lon="-2.5589000">
<ele>831.860168</ele>
<time>2012-03-29T07:54:12.997Z</time>
</trkpt>
<trkpt lat="42.7134800" lon="-2.5588300">
<ele>833.567078</ele>
<time>2012-03-29T07:54:27.003Z</time>
</trkpt>
<trkpt lat="42.7136000" lon="-2.5587300">
<ele>834.877686</ele>
<time>2012-03-29T07:54:39.997Z</time>
</trkpt>
<trkpt lat="42.7137300" lon="-2.5586000">
<ele>835.334900</ele>
<time>2012-03-29T07:54:54.996Z</time>
</trkpt>
<trkpt lat="42.7138700" lon="-2.5584900">
<ele>836.919861</ele>
<time>2012-03-29T07:55:08.000Z</time>
</trkpt>
<trkpt lat="42.7140100" lon="-2.5583600">
<ele>837.956116</ele>
<time>2012-03-29T07:55:24.001Z</time>
</trkpt>
<trkpt lat="42.7140500" lon="-2.5583600">
<ele>837.956116</ele>
<time>2012-03-29T07:55:37.998Z</time>
</trkpt>
<trkpt lat="42.7141300" lon="-2.5582100">
<ele>839.083862</ele>
<time>2012-03-29T07:55:52.003Z</time>
</trkpt>
<trkpt lat="42.7142400" lon="-2.5580700">
<ele>840.150696</ele>
<time>2012-03-29T07:56:04.998Z</time>
</trkpt>
<trkpt lat="42.7142600" lon="-2.5580300">
<ele>840.455505</ele>
<time>2012-03-29T07:56:08.998Z</time>
</trkpt>
<trkpt lat="42.7143600" lon="-2.5579000">
<ele>841.369873</ele>
<time>2012-03-29T07:56:22.001Z</time>
</trkpt>
<trkpt lat="42.7144200" lon="-2.5577900">
<ele>843.107300</ele>
<time>2012-03-29T07:56:30.002Z</time>
</trkpt>
<trkpt lat="42.7144600" lon="-2.5577600">
<ele>843.899719</ele>
<time>2012-03-29T07:56:34.002Z</time>
</trkpt>
<trkpt lat="42.7146000" lon="-2.5576300">
<ele>844.844666</ele>
<time>2012-03-29T07:56:50.997Z</time>
</trkpt>
<trkpt lat="42.7146100" lon="-2.5576200">
<ele>845.088501</ele>
<time>2012-03-29T07:57:47.002Z</time>
</trkpt>
<trkpt lat="42.7147600" lon="-2.5575000">
<ele>845.941895</ele>
<time>2012-03-29T07:58:00.998Z</time>
</trkpt>
<trkpt lat="42.7147600" lon="-2.5574800">
<ele>846.338135</ele>
<time>2012-03-29T07:58:02.001Z</time>
</trkpt>
<trkpt lat="42.7148300" lon="-2.5574600">
<ele>846.581970</ele>
<time>2012-03-29T07:58:07.003Z</time>
</trkpt>
<trkpt lat="42.7149800" lon="-2.5573700">
<ele>846.764893</ele>
<time>2012-03-29T07:58:21.000Z</time>
</trkpt>
<trkpt lat="42.7151300" lon="-2.5572300">
<ele>847.343994</ele>
<time>2012-03-29T07:58:35.999Z</time>
</trkpt>
<trkpt lat="42.7151900" lon="-2.5571400">
<ele>848.319336</ele>
<time>2012-03-29T07:58:48.000Z</time>
</trkpt>
<trkpt lat="42.7153300" lon="-2.5569300">
<ele>847.953613</ele>
<time>2012-03-29T07:59:04.001Z</time>
</trkpt>
<trkpt lat="42.7153500" lon="-2.5569000">
<ele>847.984131</ele>
<time>2012-03-29T07:59:06.999Z</time>
</trkpt>
<trkpt lat="42.7154500" lon="-2.5567100">
<ele>847.343994</ele>
<time>2012-03-29T07:59:21.998Z</time>
</trkpt>
<trkpt lat="42.7155400" lon="-2.5565000">
<ele>846.917297</ele>
<time>2012-03-29T07:59:36.004Z</time>
</trkpt>
<trkpt lat="42.7156900" lon="-2.5563100">
<ele>845.880920</ele>
<time>2012-03-29T07:59:51.996Z</time>
</trkpt>
<trkpt lat="42.7159000" lon="-2.5562300">
<ele>846.368652</ele>
<time>2012-03-29T08:00:09.000Z</time>
</trkpt>
<trkpt lat="42.7160900" lon="-2.5561800">
<ele>845.789490</ele>
<time>2012-03-29T08:00:23.999Z</time>
</trkpt>
<trkpt lat="42.7162800" lon="-2.5561300">
<ele>844.905579</ele>
<time>2012-03-29T08:00:38.998Z</time>
</trkpt>
<trkpt lat="42.7164700" lon="-2.5561400">
<ele>845.911438</ele>
<time>2012-03-29T08:00:53.004Z</time>
</trkpt>
<trkpt lat="42.7166500" lon="-2.5561500">
<ele>846.917297</ele>
<time>2012-03-29T08:01:07.000Z</time>
</trkpt>
<trkpt lat="42.7168700" lon="-2.5561000">
<ele>849.904297</ele>
<time>2012-03-29T08:01:23.002Z</time>
</trkpt>
<trkpt lat="42.7170300" lon="-2.5560300">
<ele>850.270081</ele>
<time>2012-03-29T08:01:36.998Z</time>
</trkpt>
<trkpt lat="42.7171300" lon="-2.5559600">
<ele>851.153992</ele>
<time>2012-03-29T08:01:46.001Z</time>
</trkpt>
<trkpt lat="42.7173000" lon="-2.5558000">
<ele>853.531433</ele>
<time>2012-03-29T08:02:03.998Z</time>
</trkpt>
<trkpt lat="42.7174900" lon="-2.5556800">
<ele>855.665039</ele>
<time>2012-03-29T08:02:18.997Z</time>
</trkpt>
<trkpt lat="42.7176600" lon="-2.5556100">
<ele>855.390686</ele>
<time>2012-03-29T08:02:33.003Z</time>
</trkpt>
<trkpt lat="42.7178200" lon="-2.5555000">
<ele>856.335571</ele>
<time>2012-03-29T08:02:48.002Z</time>
</trkpt>
<trkpt lat="42.7179800" lon="-2.5553600">
<ele>856.457520</ele>
<time>2012-03-29T08:03:01.999Z</time>
</trkpt>
<trkpt lat="42.7180500" lon="-2.5553000">
<ele>857.402405</ele>
<time>2012-03-29T08:03:08.004Z</time>
</trkpt>
<trkpt lat="42.7182500" lon="-2.5551700">
<ele>859.962708</ele>
<time>2012-03-29T08:03:23.996Z</time>
</trkpt>
<trkpt lat="42.7184300" lon="-2.5550900">
<ele>860.541870</ele>
<time>2012-03-29T08:03:39.004Z</time>
</trkpt>
<trkpt lat="42.7186400" lon="-2.5550300">
<ele>860.999084</ele>
<time>2012-03-29T08:03:54.996Z</time>
</trkpt>
<trkpt lat="42.7188600" lon="-2.5550200">
<ele>861.669617</ele>
<time>2012-03-29T08:04:10.998Z</time>
</trkpt>
<trkpt lat="42.7190500" lon="-2.5550400">
<ele>861.822021</ele>
<time>2012-03-29T08:04:25.997Z</time>
</trkpt>
<trkpt lat="42.7192100" lon="-2.5550100">
<ele>862.187744</ele>
<time>2012-03-29T08:04:39.000Z</time>
</trkpt>
<trkpt lat="42.7193800" lon="-2.5548900">
<ele>863.102173</ele>
<time>2012-03-29T08:04:53.999Z</time>
</trkpt>
<trkpt lat="42.7195200" lon="-2.5547500">
<ele>864.229919</ele>
<time>2012-03-29T08:05:07.996Z</time>
</trkpt>
<trkpt lat="42.7196700" lon="-2.5546600">
<ele>864.961426</ele>
<time>2012-03-29T08:05:22.001Z</time>
</trkpt>
<trkpt lat="42.7199100" lon="-2.5546100">
<ele>865.418640</ele>
<time>2012-03-29T08:05:39.998Z</time>
</trkpt>
<trkpt lat="42.7201000" lon="-2.5545400">
<ele>866.211121</ele>
<time>2012-03-29T08:05:54.997Z</time>
</trkpt>
<trkpt lat="42.7203000" lon="-2.5545700">
<ele>868.527588</ele>
<time>2012-03-29T08:06:12.001Z</time>
</trkpt>
<trkpt lat="42.7204300" lon="-2.5546900">
<ele>869.899170</ele>
<time>2012-03-29T08:06:25.998Z</time>
</trkpt>
<trkpt lat="42.7205300" lon="-2.5548700">
<ele>872.154663</ele>
<time>2012-03-29T08:06:40.997Z</time>
</trkpt>
<trkpt lat="42.7206900" lon="-2.5549100">
<ele>873.678711</ele>
<time>2012-03-29T08:06:55.002Z</time>
</trkpt>
<trkpt lat="42.7208100" lon="-2.5548900">
<ele>875.019836</ele>
<time>2012-03-29T08:07:08.999Z</time>
</trkpt>
<trkpt lat="42.7208700" lon="-2.5548700">
<ele>875.080811</ele>
<time>2012-03-29T08:07:18.002Z</time>
</trkpt>
<trkpt lat="42.7210500" lon="-2.5548000">
<ele>876.635315</ele>
<time>2012-03-29T08:07:34.003Z</time>
</trkpt>
<trkpt lat="42.7211700" lon="-2.5547000">
<ele>877.610657</ele>
<time>2012-03-29T08:07:45.002Z</time>
</trkpt>
<trkpt lat="42.7213300" lon="-2.5546200">
<ele>878.890808</ele>
<time>2012-03-29T08:07:57.996Z</time>
</trkpt>
<trkpt lat="42.7215000" lon="-2.5544900">
<ele>881.024414</ele>
<time>2012-03-29T08:08:13.998Z</time>
</trkpt>
<trkpt lat="42.7216400" lon="-2.5543600">
<ele>881.573059</ele>
<time>2012-03-29T08:08:27.001Z</time>
</trkpt>
<trkpt lat="42.7217100" lon="-2.5542700">
<ele>882.121704</ele>
<time>2012-03-29T08:08:33.999Z</time>
</trkpt>
<trkpt lat="42.7217600" lon="-2.5542100">
<ele>882.853210</ele>
<time>2012-03-29T08:08:40.004Z</time>
</trkpt>
<trkpt lat="42.7217900" lon="-2.5541500">
<ele>883.005615</ele>
<time>2012-03-29T08:08:43.996Z</time>
</trkpt>
<trkpt lat="42.7219300" lon="-2.5540000">
<ele>884.133362</ele>
<time>2012-03-29T08:08:59.997Z</time>
</trkpt>
<trkpt lat="42.7220500" lon="-2.5538600">
<ele>884.864929</ele>
<time>2012-03-29T08:09:13.000Z</time>
</trkpt>
<trkpt lat="42.7221700" lon="-2.5537100">
<ele>886.023071</ele>
<time>2012-03-29T08:09:26.997Z</time>
</trkpt>
<trkpt lat="42.7222100" lon="-2.5536600">
<ele>885.992676</ele>
<time>2012-03-29T08:09:32.000Z</time>
</trkpt>
<trkpt lat="42.7222400" lon="-2.5536300">
<ele>885.992676</ele>
<time>2012-03-29T08:09:36.000Z</time>
</trkpt>
<trkpt lat="42.7224200" lon="-2.5534900">
<ele>886.114563</ele>
<time>2012-03-29T08:09:53.004Z</time>
</trkpt>
<trkpt lat="42.7225600" lon="-2.5534200">
<ele>886.053589</ele>
<time>2012-03-29T08:10:05.998Z</time>
</trkpt>
<trkpt lat="42.7226100" lon="-2.5533800">
<ele>885.962158</ele>
<time>2012-03-29T08:10:11.001Z</time>
</trkpt>
<trkpt lat="42.7227500" lon="-2.5533700">
<ele>886.023071</ele>
<time>2012-03-29T08:10:26.000Z</time>
</trkpt>
<trkpt lat="42.7229100" lon="-2.5533600">
<ele>887.638550</ele>
<time>2012-03-29T08:10:39.996Z</time>
</trkpt>
<trkpt lat="42.7231400" lon="-2.5533400">
<ele>889.436890</ele>
<time>2012-03-29T08:10:57.000Z</time>
</trkpt>
<trkpt lat="42.7233100" lon="-2.5533300">
<ele>890.991333</ele>
<time>2012-03-29T08:11:10.997Z</time>
</trkpt>
<trkpt lat="42.7234000" lon="-2.5533300">
<ele>890.991333</ele>
<time>2012-03-29T08:11:24.000Z</time>
</trkpt>
<trkpt lat="42.7235000" lon="-2.5533400">
<ele>890.991333</ele>
<time>2012-03-29T08:11:42.999Z</time>
</trkpt>
<trkpt lat="42.7237100" lon="-2.5533700">
<ele>890.991333</ele>
<time>2012-03-29T08:11:59.001Z</time>
</trkpt>
<trkpt lat="42.7238600" lon="-2.5533900">
<ele>890.991333</ele>
<time>2012-03-29T08:12:12.004Z</time>
</trkpt>
<trkpt lat="42.7240100" lon="-2.5534000">
<ele>890.991333</ele>
<time>2012-03-29T08:12:23.996Z</time>
</trkpt>
<trkpt lat="42.7242200" lon="-2.5534100">
<ele>890.991333</ele>
<time>2012-03-29T08:12:39.004Z</time>
</trkpt>
<trkpt lat="42.7244300" lon="-2.5534500">
<ele>891.021851</ele>
<time>2012-03-29T08:12:54.003Z</time>
</trkpt>
<trkpt lat="42.7246000" lon="-2.5535000">
<ele>891.082825</ele>
<time>2012-03-29T08:13:09.002Z</time>
</trkpt>
<trkpt lat="42.7247100" lon="-2.5535100">
<ele>891.021851</ele>
<time>2012-03-29T08:13:17.996Z</time>
</trkpt>
<trkpt lat="42.7249400" lon="-2.5535600">
<ele>891.722900</ele>
<time>2012-03-29T08:13:36.002Z</time>
</trkpt>
<trkpt lat="42.7251100" lon="-2.5536000">
<ele>891.296143</ele>
<time>2012-03-29T08:13:52.003Z</time>
</trkpt>
<trkpt lat="42.7253100" lon="-2.5536300">
<ele>891.021851</ele>
<time>2012-03-29T08:14:07.002Z</time>
</trkpt>
<trkpt lat="42.7255100" lon="-2.5536800">
<ele>890.717041</ele>
<time>2012-03-29T08:14:22.001Z</time>
</trkpt>
<trkpt lat="42.7257000" lon="-2.5537800">
<ele>891.814270</ele>
<time>2012-03-29T08:14:37.000Z</time>
</trkpt>
<trkpt lat="42.7258900" lon="-2.5538700">
<ele>892.759216</ele>
<time>2012-03-29T08:14:51.999Z</time>
</trkpt>
<trkpt lat="42.7261400" lon="-2.5539400">
<ele>893.216370</ele>
<time>2012-03-29T08:15:10.999Z</time>
</trkpt>
<trkpt lat="42.7263300" lon="-2.5539800">
<ele>893.704102</ele>
<time>2012-03-29T08:15:25.998Z</time>
</trkpt>
<trkpt lat="42.7265400" lon="-2.5540300">
<ele>894.435608</ele>
<time>2012-03-29T08:15:43.001Z</time>
</trkpt>
<trkpt lat="42.7268000" lon="-2.5540900">
<ele>894.191772</ele>
<time>2012-03-29T08:16:00.998Z</time>
</trkpt>
<trkpt lat="42.7270000" lon="-2.5541000">
<ele>894.161316</ele>
<time>2012-03-29T08:16:15.004Z</time>
</trkpt>
<trkpt lat="42.7271900" lon="-2.5540600">
<ele>894.191772</ele>
<time>2012-03-29T08:16:30.003Z</time>
</trkpt>
<trkpt lat="42.7273500" lon="-2.5540500">
<ele>893.429749</ele>
<time>2012-03-29T08:16:42.004Z</time>
</trkpt>
<trkpt lat="42.7274100" lon="-2.5540600">
<ele>893.277344</ele>
<time>2012-03-29T08:16:46.998Z</time>
</trkpt>
<trkpt lat="42.7276200" lon="-2.5541100">
<ele>891.844788</ele>
<time>2012-03-29T08:17:02.999Z</time>
</trkpt>
<trkpt lat="42.7277400" lon="-2.5541400">
<ele>893.551697</ele>
<time>2012-03-29T08:17:13.004Z</time>
</trkpt>
<trkpt lat="42.7278000" lon="-2.5541500">
<ele>894.069885</ele>
<time>2012-03-29T08:17:17.998Z</time>
</trkpt>
<trkpt lat="42.7279700" lon="-2.5541900">
<ele>895.868164</ele>
<time>2012-03-29T08:17:32.997Z</time>
</trkpt>
<trkpt lat="42.7281700" lon="-2.5542000">
<ele>897.239746</ele>
<time>2012-03-29T08:17:47.996Z</time>
</trkpt>
<trkpt lat="42.7282300" lon="-2.5541700">
<ele>897.757874</ele>
<time>2012-03-29T08:18:05.000Z</time>
</trkpt>
<trkpt lat="42.7282800" lon="-2.5541500">
<ele>898.093201</ele>
<time>2012-03-29T08:18:18.003Z</time>
</trkpt>
<trkpt lat="42.7282900" lon="-2.5541500">
<ele>898.184631</ele>
<time>2012-03-29T08:18:22.003Z</time>
</trkpt>
<trkpt lat="42.7284700" lon="-2.5540200">
<ele>900.379211</ele>
<time>2012-03-29T08:18:40.000Z</time>
</trkpt>
<trkpt lat="42.7286200" lon="-2.5539900">
<ele>900.958313</ele>
<time>2012-03-29T08:18:53.997Z</time>
</trkpt>
<trkpt lat="42.7287000" lon="-2.5539500">
<ele>901.750793</ele>
<time>2012-03-29T08:19:00.002Z</time>
</trkpt>
<trkpt lat="42.7287500" lon="-2.5539100">
<ele>901.476501</ele>
<time>2012-03-29T08:19:04.996Z</time>
</trkpt>
<trkpt lat="42.7289700" lon="-2.5538100">
<ele>901.628906</ele>
<time>2012-03-29T08:19:21.999Z</time>
</trkpt>
<trkpt lat="42.7291700" lon="-2.5537800">
<ele>901.994629</ele>
<time>2012-03-29T08:19:38.001Z</time>
</trkpt>
<trkpt lat="42.7293400" lon="-2.5537600">
<ele>901.659363</ele>
<time>2012-03-29T08:19:51.997Z</time>
</trkpt>
<trkpt lat="42.7295200" lon="-2.5537600">
<ele>901.750793</ele>
<time>2012-03-29T08:20:06.996Z</time>
</trkpt>
<trkpt lat="42.7297000" lon="-2.5538000">
<ele>900.836426</ele>
<time>2012-03-29T08:20:22.004Z</time>
</trkpt>
<trkpt lat="42.7298800" lon="-2.5538700">
<ele>900.592529</ele>
<time>2012-03-29T08:20:37.997Z</time>
</trkpt>
<trkpt lat="42.7300600" lon="-2.5539000">
<ele>900.013428</ele>
<time>2012-03-29T08:20:52.996Z</time>
</trkpt>
<trkpt lat="42.7302300" lon="-2.5539000">
<ele>898.154175</ele>
<time>2012-03-29T08:21:08.004Z</time>
</trkpt>
<trkpt lat="42.7302400" lon="-2.5538900">
<ele>897.879883</ele>
<time>2012-03-29T08:21:22.000Z</time>
</trkpt>
<trkpt lat="42.7303200" lon="-2.5539400">
<ele>897.757874</ele>
<time>2012-03-29T08:21:28.999Z</time>
</trkpt>
<trkpt lat="42.7304900" lon="-2.5540700">
<ele>898.215088</ele>
<time>2012-03-29T08:21:43.998Z</time>
</trkpt>
<trkpt lat="42.7306400" lon="-2.5542300">
<ele>898.032227</ele>
<time>2012-03-29T08:21:59.999Z</time>
</trkpt>
<trkpt lat="42.7306600" lon="-2.5542500">
<ele>898.154175</ele>
<time>2012-03-29T08:22:02.004Z</time>
</trkpt>
<trkpt lat="42.7307100" lon="-2.5542700">
<ele>897.544556</ele>
<time>2012-03-29T08:22:06.004Z</time>
</trkpt>
<trkpt lat="42.7308800" lon="-2.5543400">
<ele>895.197571</ele>
<time>2012-03-29T08:22:21.003Z</time>
</trkpt>
<trkpt lat="42.7310900" lon="-2.5543700">
<ele>896.081482</ele>
<time>2012-03-29T08:22:37.004Z</time>
</trkpt>
<trkpt lat="42.7312100" lon="-2.5543700">
<ele>896.874023</ele>
<time>2012-03-29T08:22:49.999Z</time>
</trkpt>
<trkpt lat="42.7312100" lon="-2.5543800">
<ele>897.087341</ele>
<time>2012-03-29T08:22:53.999Z</time>
</trkpt>
<trkpt lat="42.7311500" lon="-2.5543500">
<ele>895.624268</ele>
<time>2012-03-29T08:23:00.997Z</time>
</trkpt>
<trkpt lat="42.7311400" lon="-2.5542700">
<ele>893.521179</ele>
<time>2012-03-29T08:23:14.001Z</time>
</trkpt>
<trkpt lat="42.7311300" lon="-2.5543000">
<ele>894.130798</ele>
<time>2012-03-29T08:23:22.001Z</time>
</trkpt>
<trkpt lat="42.7311500" lon="-2.5543600">
<ele>895.868164</ele>
<time>2012-03-29T08:23:26.002Z</time>
</trkpt>
<trkpt lat="42.7313500" lon="-2.5543900">
<ele>897.849365</ele>
<time>2012-03-29T08:23:41.001Z</time>
</trkpt>
<trkpt lat="42.7315400" lon="-2.5543200">
<ele>898.580933</ele>
<time>2012-03-29T08:23:56.000Z</time>
</trkpt>
<trkpt lat="42.7317600" lon="-2.5542100">
<ele>900.714539</ele>
<time>2012-03-29T08:24:13.997Z</time>
</trkpt>
<trkpt lat="42.7318100" lon="-2.5541800">
<ele>901.354553</ele>
<time>2012-03-29T08:24:18.999Z</time>
</trkpt>
<trkpt lat="42.7318600" lon="-2.5541500">
<ele>901.628906</ele>
<time>2012-03-29T08:24:23.000Z</time>
</trkpt>
<trkpt lat="42.7318500" lon="-2.5540380">
<ele>900.104919</ele>
<time>2012-03-29T08:24:35.001Z</time>
</trkpt>
<trkpt lat="42.7319110" lon="-2.5538760">
<ele>898.702820</ele>
<time>2012-03-29T08:24:44.004Z</time>
</trkpt>
<trkpt lat="42.7320290" lon="-2.5537440">
<ele>899.342896</ele>
<time>2012-03-29T08:24:55.996Z</time>
</trkpt>
<trkpt lat="42.7321930" lon="-2.5535490">
<ele>899.952515</ele>
<time>2012-03-29T08:25:11.997Z</time>
</trkpt>
<trkpt lat="42.7322160" lon="-2.5535290">
<ele>900.135315</ele>
<time>2012-03-29T08:25:14.002Z</time>
</trkpt>
<trkpt lat="42.7323150" lon="-2.5534140">
<ele>899.891479</ele>
<time>2012-03-29T08:25:23.998Z</time>
</trkpt>
<trkpt lat="42.7324370" lon="-2.5532600">
<ele>899.647705</ele>
<time>2012-03-29T08:25:37.001Z</time>
</trkpt>
<trkpt lat="42.7324980" lon="-2.5532080">
<ele>899.830566</ele>
<time>2012-03-29T08:25:42.004Z</time>
</trkpt>
<trkpt lat="42.7326700" lon="-2.5530490">
<ele>901.506958</ele>
<time>2012-03-29T08:25:57.003Z</time>
</trkpt>
<trkpt lat="42.7328070" lon="-2.5528800">
<ele>902.390930</ele>
<time>2012-03-29T08:26:11.000Z</time>
</trkpt>
<trkpt lat="42.7328190" lon="-2.5528660">
<ele>902.482300</ele>
<time>2012-03-29T08:26:12.002Z</time>
</trkpt>
<trkpt lat="42.7328640" lon="-2.5526970">
<ele>902.055603</ele>
<time>2012-03-29T08:26:23.001Z</time>
</trkpt>
<trkpt lat="42.7328000" lon="-2.5526400">
<ele>900.409729</ele>
<time>2012-03-29T08:29:07.999Z</time>
</trkpt>
<trkpt lat="42.7327300" lon="-2.5525200">
<ele>897.148315</ele>
<time>2012-03-29T08:29:20.000Z</time>
</trkpt>
<trkpt lat="42.7327400" lon="-2.5525100">
<ele>897.178772</ele>
<time>2012-03-29T08:29:38.999Z</time>
</trkpt>
<trkpt lat="42.7327100" lon="-2.5524900">
<ele>896.477722</ele>
<time>2012-03-29T08:29:55.000Z</time>
</trkpt>
<trkpt lat="42.7326200" lon="-2.5525000">
<ele>895.624268</ele>
<time>2012-03-29T08:30:20.998Z</time>
</trkpt>
<trkpt lat="42.7326000" lon="-2.5525200">
<ele>895.349976</ele>
<time>2012-03-29T08:30:39.997Z</time>
</trkpt>
<trkpt lat="42.7325100" lon="-2.5526300">
<ele>893.399292</ele>
<time>2012-03-29T08:31:22.999Z</time>
</trkpt>
<trkpt lat="42.7324900" lon="-2.5526600">
<ele>892.850647</ele>
<time>2012-03-29T08:31:26.999Z</time>
</trkpt>
<trkpt lat="42.7324400" lon="-2.5527600">
<ele>891.052307</ele>
<time>2012-03-29T08:31:33.997Z</time>
</trkpt>
<trkpt lat="42.7323700" lon="-2.5528300">
<ele>888.613892</ele>
<time>2012-03-29T08:31:43.000Z</time>
</trkpt>
<trkpt lat="42.7323000" lon="-2.5529300">
<ele>887.425171</ele>
<time>2012-03-29T08:31:55.001Z</time>
</trkpt>
<trkpt lat="42.7322800" lon="-2.5529600">
<ele>887.333740</ele>
<time>2012-03-29T08:31:57.999Z</time>
</trkpt>
<trkpt lat="42.7322600" lon="-2.5529500">
<ele>886.602234</ele>
<time>2012-03-29T08:32:00.004Z</time>
</trkpt>
<trkpt lat="42.7322100" lon="-2.5529600">
<ele>885.017334</ele>
<time>2012-03-29T08:32:04.998Z</time>
</trkpt>
<trkpt lat="42.7321900" lon="-2.5529800">
<ele>884.986816</ele>
<time>2012-03-29T08:32:08.998Z</time>
</trkpt>
<trkpt lat="42.7321000" lon="-2.5530500">
<ele>883.127502</ele>
<time>2012-03-29T08:32:18.001Z</time>
</trkpt>
<trkpt lat="42.7320500" lon="-2.5531000">
<ele>882.274109</ele>
<time>2012-03-29T08:32:23.004Z</time>
</trkpt>
<trkpt lat="42.7319900" lon="-2.5532100">
<ele>881.542542</ele>
<time>2012-03-29T08:32:38.996Z</time>
</trkpt>
<trkpt lat="42.7319400" lon="-2.5532800">
<ele>880.597717</ele>
<time>2012-03-29T08:32:46.003Z</time>
</trkpt>
<trkpt lat="42.7318300" lon="-2.5534100">
<ele>879.652771</ele>
<time>2012-03-29T08:33:00.000Z</time>
</trkpt>
<trkpt lat="42.7317600" lon="-2.5534600">
<ele>877.549683</ele>
<time>2012-03-29T08:33:06.998Z</time>
</trkpt>
<trkpt lat="42.7316800" lon="-2.5534700">
<ele>874.654114</ele>
<time>2012-03-29T08:33:14.999Z</time>
</trkpt>
<trkpt lat="42.7316000" lon="-2.5534300">
<ele>871.118408</ele>
<time>2012-03-29T08:33:24.002Z</time>
</trkpt>
<trkpt lat="42.7315300" lon="-2.5534300">
<ele>869.716309</ele>
<time>2012-03-29T08:33:28.996Z</time>
</trkpt>
<trkpt lat="42.7314300" lon="-2.5534000">
<ele>867.034119</ele>
<time>2012-03-29T08:33:43.001Z</time>
</trkpt>
<trkpt lat="42.7313100" lon="-2.5532900">
<ele>862.614502</ele>
<time>2012-03-29T08:33:56.998Z</time>
</trkpt>
<trkpt lat="42.7312800" lon="-2.5531800">
<ele>859.292175</ele>
<time>2012-03-29T08:34:06.001Z</time>
</trkpt>
<trkpt lat="42.7311900" lon="-2.5531400">
<ele>857.768127</ele>
<time>2012-03-29T08:34:19.004Z</time>
</trkpt>
<trkpt lat="42.7311600" lon="-2.5532100">
<ele>859.353088</ele>
<time>2012-03-29T08:34:26.003Z</time>
</trkpt>
<trkpt lat="42.7311100" lon="-2.5531900">
<ele>858.591064</ele>
<time>2012-03-29T08:34:35.999Z</time>
</trkpt>
<trkpt lat="42.7311300" lon="-2.5531200">
<ele>856.396545</ele>
<time>2012-03-29T08:34:42.997Z</time>
</trkpt>
<trkpt lat="42.7310900" lon="-2.5530400">
<ele>853.714294</ele>
<time>2012-03-29T08:34:57.996Z</time>
</trkpt>
<trkpt lat="42.7310700" lon="-2.5529400">
<ele>850.331055</ele>
<time>2012-03-29T08:35:13.004Z</time>
</trkpt>
<trkpt lat="42.7311400" lon="-2.5528700">
<ele>847.374512</ele>
<time>2012-03-29T08:35:29.999Z</time>
</trkpt>
<trkpt lat="42.7312000" lon="-2.5528300">
<ele>845.545715</ele>
<time>2012-03-29T08:35:36.997Z</time>
</trkpt>
<trkpt lat="42.7312700" lon="-2.5528100">
<ele>844.875061</ele>
<time>2012-03-29T08:35:48.998Z</time>
</trkpt>
<trkpt lat="42.7313700" lon="-2.5528100">
<ele>845.179871</ele>
<time>2012-03-29T08:35:59.997Z</time>
</trkpt>
<trkpt lat="42.7313900" lon="-2.5526700">
<ele>840.181213</ele>
<time>2012-03-29T08:36:10.002Z</time>
</trkpt>
<trkpt lat="42.7314000" lon="-2.5526000">
<ele>837.011292</ele>
<time>2012-03-29T08:36:27.999Z</time>
</trkpt>
<trkpt lat="42.7314100" lon="-2.5525800">
<ele>836.249329</ele>
<time>2012-03-29T08:37:08.996Z</time>
</trkpt>
<trkpt lat="42.7315000" lon="-2.5524700">
<ele>832.805054</ele>
<time>2012-03-29T08:37:23.002Z</time>
</trkpt>
<trkpt lat="42.7315500" lon="-2.5524000">
<ele>831.951599</ele>
<time>2012-03-29T08:37:28.004Z</time>
</trkpt>
<trkpt lat="42.7315800" lon="-2.5523500">
<ele>831.159119</ele>
<time>2012-03-29T08:37:31.996Z</time>
</trkpt>
<trkpt lat="42.7316300" lon="-2.5521900">
<ele>828.050171</ele>
<time>2012-03-29T08:37:44.999Z</time>
</trkpt>
<trkpt lat="42.7316400" lon="-2.5521300">
<ele>827.166260</ele>
<time>2012-03-29T08:37:48.999Z</time>
</trkpt>
<trkpt lat="42.7316100" lon="-2.5519900">
<ele>821.801758</ele>
<time>2012-03-29T08:37:59.998Z</time>
</trkpt>
<trkpt lat="42.7316200" lon="-2.5518400">
<ele>818.601318</ele>
<time>2012-03-29T08:38:11.999Z</time>
</trkpt>
<trkpt lat="42.7316100" lon="-2.5518300">
<ele>817.778381</ele>
<time>2012-03-29T08:38:13.001Z</time>
</trkpt>
<trkpt lat="42.7316500" lon="-2.5516600">
<ele>815.096130</ele>
<time>2012-03-29T08:38:25.996Z</time>
</trkpt>
<trkpt lat="42.7316500" lon="-2.5516500">
<ele>814.791321</ele>
<time>2012-03-29T08:38:26.998Z</time>
</trkpt>
<trkpt lat="42.7316900" lon="-2.5516200">
<ele>815.949585</ele>
<time>2012-03-29T08:38:32.001Z</time>
</trkpt>
<trkpt lat="42.7317100" lon="-2.5515700">
<ele>815.583862</ele>
<time>2012-03-29T08:38:44.002Z</time>
</trkpt>
<trkpt lat="42.7317900" lon="-2.5514600">
<ele>814.273193</ele>
<time>2012-03-29T08:38:53.998Z</time>
</trkpt>
<trkpt lat="42.7318500" lon="-2.5513100">
<ele>809.914551</ele>
<time>2012-03-29T08:39:05.999Z</time>
</trkpt>
<trkpt lat="42.7319500" lon="-2.5512500">
<ele>808.969727</ele>
<time>2012-03-29T08:39:18.000Z</time>
</trkpt>
<trkpt lat="42.7320000" lon="-2.5511800">
<ele>806.958008</ele>
<time>2012-03-29T08:39:28.999Z</time>
</trkpt>
<trkpt lat="42.7320200" lon="-2.5511300">
<ele>804.885315</ele>
<time>2012-03-29T08:39:47.998Z</time>
</trkpt>
<trkpt lat="42.7320500" lon="-2.5511100">
<ele>804.428162</ele>
<time>2012-03-29T08:39:59.999Z</time>
</trkpt>
<trkpt lat="42.7319900" lon="-2.5510900">
<ele>802.355469</ele>
<time>2012-03-29T08:43:30.003Z</time>
</trkpt>
<trkpt lat="42.7319300" lon="-2.5511200">
<ele>802.264099</ele>
<time>2012-03-29T08:43:35.999Z</time>
</trkpt>
<trkpt lat="42.7317900" lon="-2.5511100">
<ele>798.118774</ele>
<time>2012-03-29T08:43:46.998Z</time>
</trkpt>
<trkpt lat="42.7317300" lon="-2.5511000">
<ele>796.168091</ele>
<time>2012-03-29T08:43:50.998Z</time>
</trkpt>
<trkpt lat="42.7316500" lon="-2.5511100">
<ele>794.613586</ele>
<time>2012-03-29T08:43:57.003Z</time>
</trkpt>
<trkpt lat="42.7316300" lon="-2.5510900">
<ele>793.272522</ele>
<time>2012-03-29T08:43:58.999Z</time>
</trkpt>
<trkpt lat="42.7314600" lon="-2.5510900">
<ele>789.249084</ele>
<time>2012-03-29T08:44:13.004Z</time>
</trkpt>
<trkpt lat="42.7314000" lon="-2.5511100">
<ele>788.273743</ele>
<time>2012-03-29T08:44:19.000Z</time>
</trkpt>
<trkpt lat="42.7313300" lon="-2.5511300">
<ele>786.810669</ele>
<time>2012-03-29T08:44:31.001Z</time>
</trkpt>
<trkpt lat="42.7313100" lon="-2.5511300">
<ele>786.079224</ele>
<time>2012-03-29T08:44:39.002Z</time>
</trkpt>
<trkpt lat="42.7312900" lon="-2.5510500">
<ele>783.823730</ele>
<time>2012-03-29T08:44:46.000Z</time>
</trkpt>
<trkpt lat="42.7313500" lon="-2.5508500">
<ele>780.440430</ele>
<time>2012-03-29T08:44:59.004Z</time>
</trkpt>
<trkpt lat="42.7314900" lon="-2.5507200">
<ele>777.910522</ele>
<time>2012-03-29T08:45:11.998Z</time>
</trkpt>
<trkpt lat="42.7315000" lon="-2.5507100">
<ele>777.727722</ele>
<time>2012-03-29T08:45:13.000Z</time>
</trkpt>
<trkpt lat="42.7315400" lon="-2.5506400">
<ele>775.807434</ele>
<time>2012-03-29T08:45:18.996Z</time>
</trkpt>
<trkpt lat="42.7316100" lon="-2.5505700">
<ele>774.405334</ele>
<time>2012-03-29T08:45:27.999Z</time>
</trkpt>
<trkpt lat="42.7316300" lon="-2.5504900">
<ele>771.906006</ele>
<time>2012-03-29T08:45:33.002Z</time>
</trkpt>
<trkpt lat="42.7315000" lon="-2.5504000">
<ele>767.516907</ele>
<time>2012-03-29T08:45:45.996Z</time>
</trkpt>
<trkpt lat="42.7314600" lon="-2.5503500">
<ele>766.297729</ele>
<time>2012-03-29T08:46:01.998Z</time>
</trkpt>
<trkpt lat="42.7314500" lon="-2.5503500">
<ele>766.328125</ele>
<time>2012-03-29T08:46:11.001Z</time>
</trkpt>
<trkpt lat="42.7313800" lon="-2.5501700">
<ele>761.939026</ele>
<time>2012-03-29T08:46:24.004Z</time>
</trkpt>
<trkpt lat="42.7314600" lon="-2.5501900">
<ele>762.182922</ele>
<time>2012-03-29T08:46:39.996Z</time>
</trkpt>
<trkpt lat="42.7316200" lon="-2.5502100">
<ele>763.859314</ele>
<time>2012-03-29T08:46:51.997Z</time>
</trkpt>
<trkpt lat="42.7318000" lon="-2.5502600">
<ele>766.389099</ele>
<time>2012-03-29T08:47:06.996Z</time>
</trkpt>
<trkpt lat="42.7318400" lon="-2.5502500">
<ele>766.602539</ele>
<time>2012-03-29T08:47:10.003Z</time>
</trkpt>
<trkpt lat="42.7319200" lon="-2.5502200">
<ele>767.364502</ele>
<time>2012-03-29T08:47:18.004Z</time>
</trkpt>
<trkpt lat="42.7320900" lon="-2.5501900">
<ele>768.400818</ele>
<time>2012-03-29T08:47:33.003Z</time>
</trkpt>
<trkpt lat="42.7322300" lon="-2.5501400">
<ele>768.187439</ele>
<time>2012-03-29T08:47:47.000Z</time>
</trkpt>
<trkpt lat="42.7324300" lon="-2.5501600">
<ele>771.204956</ele>
<time>2012-03-29T08:48:01.999Z</time>
</trkpt>
<trkpt lat="42.7325400" lon="-2.5501900">
<ele>773.521484</ele>
<time>2012-03-29T08:48:14.000Z</time>
</trkpt>
<trkpt lat="42.7327200" lon="-2.5501500">
<ele>774.100525</ele>
<time>2012-03-29T08:48:27.996Z</time>
</trkpt>
<trkpt lat="42.7327300" lon="-2.5501300">
<ele>773.521484</ele>
<time>2012-03-29T08:48:30.001Z</time>
</trkpt>
<trkpt lat="42.7328900" lon="-2.5500900">
<ele>774.557739</ele>
<time>2012-03-29T08:48:45.000Z</time>
</trkpt>
<trkpt lat="42.7331000" lon="-2.5499900">
<ele>775.685486</ele>
<time>2012-03-29T08:48:58.997Z</time>
</trkpt>
<trkpt lat="42.7331800" lon="-2.5499700">
<ele>776.295105</ele>
<time>2012-03-29T08:49:12.000Z</time>
</trkpt>
<trkpt lat="42.7332800" lon="-2.5499500">
<ele>777.910522</ele>
<time>2012-03-29T08:49:21.003Z</time>
</trkpt>
<trkpt lat="42.7334500" lon="-2.5499000">
<ele>779.282166</ele>
<time>2012-03-29T08:49:35.000Z</time>
</trkpt>
<trkpt lat="42.7335200" lon="-2.5498600">
<ele>778.763977</ele>
<time>2012-03-29T08:49:40.996Z</time>
</trkpt>
<trkpt lat="42.7337000" lon="-2.5498100">
<ele>779.373596</ele>
<time>2012-03-29T08:49:53.999Z</time>
</trkpt>
<trkpt lat="42.7338100" lon="-2.5498000">
<ele>780.135620</ele>
<time>2012-03-29T08:50:02.000Z</time>
</trkpt>
<trkpt lat="42.7340300" lon="-2.5497900">
<ele>782.208252</ele>
<time>2012-03-29T08:50:19.003Z</time>
</trkpt>
<trkpt lat="42.7341900" lon="-2.5497400">
<ele>783.000671</ele>
<time>2012-03-29T08:50:31.998Z</time>
</trkpt>
<trkpt lat="42.7343400" lon="-2.5496900">
<ele>783.427429</ele>
<time>2012-03-29T08:50:46.003Z</time>
</trkpt>
<trkpt lat="42.7344800" lon="-2.5496200">
<ele>782.482544</ele>
<time>2012-03-29T08:51:01.996Z</time>
</trkpt>
<trkpt lat="42.7346600" lon="-2.5496300">
<ele>785.896301</ele>
<time>2012-03-29T08:51:16.001Z</time>
</trkpt>
<trkpt lat="42.7348500" lon="-2.5496200">
<ele>788.426147</ele>
<time>2012-03-29T08:51:32.996Z</time>
</trkpt>
<trkpt lat="42.7350100" lon="-2.5495300">
<ele>787.908020</ele>
<time>2012-03-29T08:51:48.004Z</time>
</trkpt>
<trkpt lat="42.7352300" lon="-2.5493800">
<ele>788.578552</ele>
<time>2012-03-29T08:52:06.001Z</time>
</trkpt>
<trkpt lat="42.7353600" lon="-2.5493200">
<ele>790.011108</ele>
<time>2012-03-29T08:52:19.004Z</time>
</trkpt>
<trkpt lat="42.7354600" lon="-2.5492200">
<ele>789.188171</ele>
<time>2012-03-29T08:52:31.999Z</time>
</trkpt>
<trkpt lat="42.7356500" lon="-2.5491400">
<ele>790.285461</ele>
<time>2012-03-29T08:52:49.996Z</time>
</trkpt>
<trkpt lat="42.7356800" lon="-2.5491200">
<ele>790.072083</ele>
<time>2012-03-29T08:53:05.004Z</time>
</trkpt>
<trkpt lat="42.7356500" lon="-2.5491200">
<ele>789.645325</ele>
<time>2012-03-29T08:54:06.002Z</time>
</trkpt>
<trkpt lat="42.7357800" lon="-2.5490700">
<ele>790.742676</ele>
<time>2012-03-29T08:54:26.997Z</time>
</trkpt>
<trkpt lat="42.7357900" lon="-2.5490700">
<ele>790.834106</ele>
<time>2012-03-29T08:54:27.999Z</time>
</trkpt>
<trkpt lat="42.7359600" lon="-2.5491500">
<ele>794.186890</ele>
<time>2012-03-29T08:54:45.003Z</time>
</trkpt>
<trkpt lat="42.7361200" lon="-2.5490900">
<ele>794.522156</ele>
<time>2012-03-29T08:55:09.998Z</time>
</trkpt>
<trkpt lat="42.7360800" lon="-2.5490900">
<ele>794.034485</ele>
<time>2012-03-29T08:55:24.004Z</time>
</trkpt>
<trkpt lat="42.7361000" lon="-2.5491400">
<ele>795.467041</ele>
<time>2012-03-29T08:55:32.998Z</time>
</trkpt>
<trkpt lat="42.7362100" lon="-2.5492000">
<ele>800.374268</ele>
<time>2012-03-29T08:55:44.999Z</time>
</trkpt>
<trkpt lat="42.7363100" lon="-2.5491800">
<ele>801.806885</ele>
<time>2012-03-29T08:55:57.000Z</time>
</trkpt>
<trkpt lat="42.7364700" lon="-2.5491100">
<ele>801.715454</ele>
<time>2012-03-29T08:56:15.999Z</time>
</trkpt>
<trkpt lat="42.7365200" lon="-2.5490300">
<ele>802.568909</ele>
<time>2012-03-29T08:56:32.001Z</time>
</trkpt>
<trkpt lat="42.7365700" lon="-2.5490900">
<ele>803.544250</ele>
<time>2012-03-29T08:57:12.004Z</time>
</trkpt>
<trkpt lat="42.7366500" lon="-2.5491300">
<ele>806.195984</ele>
<time>2012-03-29T08:57:23.003Z</time>
</trkpt>
<trkpt lat="42.7367400" lon="-2.5491900">
<ele>808.847717</ele>
<time>2012-03-29T08:57:31.997Z</time>
</trkpt>
<trkpt lat="42.7368700" lon="-2.5492200">
<ele>809.365906</ele>
<time>2012-03-29T08:57:45.000Z</time>
</trkpt>
<trkpt lat="42.7369700" lon="-2.5492100">
<ele>809.701172</ele>
<time>2012-03-29T08:57:59.999Z</time>
</trkpt>
<trkpt lat="42.7371600" lon="-2.5492600">
<ele>814.059875</ele>
<time>2012-03-29T08:58:18.998Z</time>
</trkpt>
<trkpt lat="42.7372900" lon="-2.5492900">
<ele>817.168823</ele>
<time>2012-03-29T08:58:37.004Z</time>
</trkpt>
<trkpt lat="42.7374400" lon="-2.5493300">
<ele>820.552124</ele>
<time>2012-03-29T08:58:51.001Z</time>
</trkpt>
<trkpt lat="42.7375800" lon="-2.5493000">
<ele>820.216797</ele>
<time>2012-03-29T08:59:07.002Z</time>
</trkpt>
<trkpt lat="42.7377600" lon="-2.5493200">
<ele>821.954163</ele>
<time>2012-03-29T08:59:24.999Z</time>
</trkpt>
<trkpt lat="42.7380200" lon="-2.5492700">
<ele>820.399719</ele>
<time>2012-03-29T08:59:46.997Z</time>
</trkpt>
<trkpt lat="42.7382600" lon="-2.5493400">
<ele>825.825073</ele>
<time>2012-03-29T09:00:05.996Z</time>
</trkpt>
<trkpt lat="42.7382700" lon="-2.5493300">
<ele>825.459351</ele>
<time>2012-03-29T09:00:06.998Z</time>
</trkpt>
<trkpt lat="42.7384900" lon="-2.5492900">
<ele>827.775879</ele>
<time>2012-03-29T09:00:21.997Z</time>
</trkpt>
<trkpt lat="42.7385500" lon="-2.5492800">
<ele>828.537842</ele>
<time>2012-03-29T09:00:25.998Z</time>
</trkpt>
<trkpt lat="42.7385900" lon="-2.5492800">
<ele>829.543701</ele>
<time>2012-03-29T09:00:32.003Z</time>
</trkpt>
<trkpt lat="42.7387300" lon="-2.5491900">
<ele>827.440552</ele>
<time>2012-03-29T09:00:48.004Z</time>
</trkpt>
<trkpt lat="42.7389200" lon="-2.5491400">
<ele>827.531982</ele>
<time>2012-03-29T09:01:06.001Z</time>
</trkpt>
<trkpt lat="42.7392000" lon="-2.5491200">
<ele>826.129883</ele>
<time>2012-03-29T09:01:29.001Z</time>
</trkpt>
<trkpt lat="42.7394400" lon="-2.5491400">
<ele>828.294006</ele>
<time>2012-03-29T09:01:53.996Z</time>
</trkpt>
<trkpt lat="42.7395300" lon="-2.5491600">
<ele>830.214233</ele>
<time>2012-03-29T09:01:58.999Z</time>
</trkpt>
<trkpt lat="42.7397500" lon="-2.5491100">
<ele>831.951599</ele>
<time>2012-03-29T09:02:20.003Z</time>
</trkpt>
<trkpt lat="42.7399500" lon="-2.5490800">
<ele>834.877686</ele>
<time>2012-03-29T09:02:38.000Z</time>
</trkpt>
<trkpt lat="42.7401200" lon="-2.5490900">
<ele>838.626709</ele>
<time>2012-03-29T09:02:55.997Z</time>
</trkpt>
<trkpt lat="42.7402400" lon="-2.5490600">
<ele>838.901062</ele>
<time>2012-03-29T09:03:10.002Z</time>
</trkpt>
<trkpt lat="42.7404500" lon="-2.5489000">
<ele>837.102661</ele>
<time>2012-03-29T09:03:30.004Z</time>
</trkpt>
<trkpt lat="42.7404500" lon="-2.5488500">
<ele>835.578674</ele>
<time>2012-03-29T09:03:32.000Z</time>
</trkpt>
<trkpt lat="42.7405300" lon="-2.5487700">
<ele>836.767456</ele>
<time>2012-03-29T09:03:45.996Z</time>
</trkpt>
<trkpt lat="42.7406900" lon="-2.5487600">
<ele>841.461365</ele>
<time>2012-03-29T09:04:00.002Z</time>
</trkpt>
<trkpt lat="42.7408600" lon="-2.5487200">
<ele>842.284302</ele>
<time>2012-03-29T09:04:13.999Z</time>
</trkpt>
<trkpt lat="42.7409700" lon="-2.5486900">
<ele>841.369873</ele>
<time>2012-03-29T09:04:27.002Z</time>
</trkpt>
<trkpt lat="42.7410400" lon="-2.5487200">
<ele>842.436707</ele>
<time>2012-03-29T09:04:32.998Z</time>
</trkpt>
<trkpt lat="42.7411700" lon="-2.5486600">
<ele>840.607910</ele>
<time>2012-03-29T09:04:53.000Z</time>
</trkpt>
<trkpt lat="42.7411200" lon="-2.5486600">
<ele>840.607910</ele>
<time>2012-03-29T09:05:20.000Z</time>
</trkpt>
<trkpt lat="42.7413200" lon="-2.5487500">
<ele>843.716919</ele>
<time>2012-03-29T09:05:41.997Z</time>
</trkpt>
<trkpt lat="42.7414000" lon="-2.5487800">
<ele>844.875061</ele>
<time>2012-03-29T09:05:48.002Z</time>
</trkpt>
<trkpt lat="42.7415800" lon="-2.5487900">
<ele>845.332275</ele>
<time>2012-03-29T09:06:03.001Z</time>
</trkpt>
<trkpt lat="42.7417100" lon="-2.5487600">
<ele>846.094299</ele>
<time>2012-03-29T09:06:16.004Z</time>
</trkpt>
<trkpt lat="42.7418800" lon="-2.5487000">
<ele>847.222107</ele>
<time>2012-03-29T09:06:31.003Z</time>
</trkpt>
<trkpt lat="42.7420500" lon="-2.5486400">
<ele>847.831726</ele>
<time>2012-03-29T09:06:43.998Z</time>
</trkpt>
<trkpt lat="42.7420700" lon="-2.5486300">
<ele>847.740234</ele>
<time>2012-03-29T09:06:46.002Z</time>
</trkpt>
<trkpt lat="42.7423100" lon="-2.5486500">
<ele>856.366089</ele>
<time>2012-03-29T09:07:02.004Z</time>
</trkpt>
<trkpt lat="42.7424000" lon="-2.5486000">
<ele>858.652100</ele>
<time>2012-03-29T09:07:09.002Z</time>
</trkpt>
<trkpt lat="42.7424900" lon="-2.5484700">
<ele>857.493835</ele>
<time>2012-03-29T09:07:22.999Z</time>
</trkpt>
<trkpt lat="42.7425700" lon="-2.5484200">
<ele>857.341431</ele>
<time>2012-03-29T09:07:37.998Z</time>
</trkpt>
<trkpt lat="42.7426800" lon="-2.5483900">
<ele>857.158569</ele>
<time>2012-03-29T09:07:48.003Z</time>
</trkpt>
<trkpt lat="42.7427000" lon="-2.5484100">
<ele>857.585327</ele>
<time>2012-03-29T09:07:51.001Z</time>
</trkpt>
<trkpt lat="42.7428600" lon="-2.5483700">
<ele>858.987366</ele>
<time>2012-03-29T09:08:04.998Z</time>
</trkpt>
<trkpt lat="42.7429600" lon="-2.5482700">
<ele>857.798645</ele>
<time>2012-03-29T09:08:18.001Z</time>
</trkpt>
<trkpt lat="42.7429500" lon="-2.5482600">
<ele>857.402405</ele>
<time>2012-03-29T09:09:25.004Z</time>
</trkpt>
<trkpt lat="42.7431200" lon="-2.5481100">
<ele>856.427063</ele>
<time>2012-03-29T09:09:41.999Z</time>
</trkpt>
<trkpt lat="42.7432200" lon="-2.5480100">
<ele>855.238281</ele>
<time>2012-03-29T09:09:51.002Z</time>
</trkpt>
<trkpt lat="42.7433000" lon="-2.5478600">
<ele>856.183228</ele>
<time>2012-03-29T09:10:02.001Z</time>
</trkpt>
<trkpt lat="42.7434200" lon="-2.5477600">
<ele>857.402405</ele>
<time>2012-03-29T09:10:14.002Z</time>
</trkpt>
<trkpt lat="42.7435400" lon="-2.5476000">
<ele>856.579468</ele>
<time>2012-03-29T09:10:27.998Z</time>
</trkpt>
<trkpt lat="42.7435900" lon="-2.5475500">
<ele>856.701355</ele>
<time>2012-03-29T09:10:49.002Z</time>
</trkpt>
<trkpt lat="42.7437200" lon="-2.5473900">
<ele>856.975708</ele>
<time>2012-03-29T09:11:02.999Z</time>
</trkpt>
<trkpt lat="42.7437500" lon="-2.5473600">
<ele>856.792786</ele>
<time>2012-03-29T09:11:05.997Z</time>
</trkpt>
<trkpt lat="42.7437800" lon="-2.5473000">
<ele>856.670898</ele>
<time>2012-03-29T09:11:12.002Z</time>
</trkpt>
<trkpt lat="42.7438500" lon="-2.5473100">
<ele>856.762268</ele>
<time>2012-03-29T09:11:24.996Z</time>
</trkpt>
<trkpt lat="42.7439000" lon="-2.5472700">
<ele>857.768127</ele>
<time>2012-03-29T09:11:40.998Z</time>
</trkpt>
<trkpt lat="42.7439700" lon="-2.5472200">
<ele>858.591064</ele>
<time>2012-03-29T09:11:50.001Z</time>
</trkpt>
<trkpt lat="42.7440500" lon="-2.5471700">
<ele>859.261719</ele>
<time>2012-03-29T09:12:03.997Z</time>
</trkpt>
<trkpt lat="42.7440400" lon="-2.5471200">
<ele>859.170227</ele>
<time>2012-03-29T09:12:18.003Z</time>
</trkpt>
<trkpt lat="42.7440300" lon="-2.5471000">
<ele>859.261719</ele>
<time>2012-03-29T09:12:38.998Z</time>
</trkpt>
<trkpt lat="42.7439300" lon="-2.5472600">
<ele>858.255859</ele>
<time>2012-03-29T09:13:04.996Z</time>
</trkpt>
<trkpt lat="42.7439900" lon="-2.5471500">
<ele>858.926392</ele>
<time>2012-03-29T09:13:35.996Z</time>
</trkpt>
<trkpt lat="42.7440400" lon="-2.5471100">
<ele>859.200684</ele>
<time>2012-03-29T09:13:40.999Z</time>
</trkpt>
<trkpt lat="42.7441300" lon="-2.5470500">
<ele>859.505493</ele>
<time>2012-03-29T09:13:51.004Z</time>
</trkpt>
<trkpt lat="42.7442500" lon="-2.5468600">
<ele>861.029480</ele>
<time>2012-03-29T09:14:06.996Z</time>
</trkpt>
<trkpt lat="42.7443000" lon="-2.5467900">
<ele>861.303833</ele>
<time>2012-03-29T09:14:29.996Z</time>
</trkpt>
<trkpt lat="42.7443700" lon="-2.5466900">
<ele>860.999084</ele>
<time>2012-03-29T09:14:44.002Z</time>
</trkpt>
<trkpt lat="42.7444300" lon="-2.5465400">
<ele>863.041199</ele>
<time>2012-03-29T09:14:56.003Z</time>
</trkpt>
<trkpt lat="42.7444400" lon="-2.5464100">
<ele>866.211121</ele>
<time>2012-03-29T09:15:04.997Z</time>
</trkpt>
<trkpt lat="42.7445300" lon="-2.5462500">
<ele>866.637878</ele>
<time>2012-03-29T09:15:27.003Z</time>
</trkpt>
<trkpt lat="42.7446800" lon="-2.5460400">
<ele>867.338928</ele>
<time>2012-03-29T09:15:49.000Z</time>
</trkpt>
<trkpt lat="42.7447400" lon="-2.5459800">
<ele>867.125488</ele>
<time>2012-03-29T09:15:54.003Z</time>
</trkpt>
<trkpt lat="42.7447700" lon="-2.5459300">
<ele>867.857056</ele>
<time>2012-03-29T09:18:12.001Z</time>
</trkpt>
<trkpt lat="42.7448000" lon="-2.5460000">
<ele>866.272095</ele>
<time>2012-03-29T09:18:24.002Z</time>
</trkpt>
<trkpt lat="42.7448400" lon="-2.5460400">
<ele>866.393982</ele>
<time>2012-03-29T09:18:59.996Z</time>
</trkpt>
<trkpt lat="42.7449000" lon="-2.5460300">
<ele>867.918030</ele>
<time>2012-03-29T09:21:10.002Z</time>
</trkpt>
<trkpt lat="42.7449300" lon="-2.5460000">
<ele>868.070374</ele>
<time>2012-03-29T09:21:14.003Z</time>
</trkpt>
<trkpt lat="42.7451300" lon="-2.5459000">
<ele>869.594421</ele>
<time>2012-03-29T09:21:26.997Z</time>
</trkpt>
<trkpt lat="42.7453200" lon="-2.5458400">
<ele>871.118408</ele>
<time>2012-03-29T09:21:44.001Z</time>
</trkpt>
<trkpt lat="42.7454900" lon="-2.5457900">
<ele>872.947205</ele>
<time>2012-03-29T09:21:56.002Z</time>
</trkpt>
<trkpt lat="42.7455300" lon="-2.5457800">
<ele>873.587280</ele>
<time>2012-03-29T09:22:12.996Z</time>
</trkpt>
<trkpt lat="42.7456300" lon="-2.5457700">
<ele>875.446533</ele>
<time>2012-03-29T09:22:27.002Z</time>
</trkpt>
<trkpt lat="42.7457200" lon="-2.5457400">
<ele>876.421875</ele>
<time>2012-03-29T09:22:47.997Z</time>
</trkpt>
<trkpt lat="42.7458000" lon="-2.5457600">
<ele>877.884949</ele>
<time>2012-03-29T09:23:14.997Z</time>
</trkpt>
<trkpt lat="42.7459200" lon="-2.5457600">
<ele>880.475769</ele>
<time>2012-03-29T09:23:38.999Z</time>
</trkpt>
<trkpt lat="42.7459500" lon="-2.5457500">
<ele>880.445313</ele>
<time>2012-03-29T09:24:03.001Z</time>
</trkpt>
<trkpt lat="42.7459600" lon="-2.5457800">
<ele>881.298706</ele>
<time>2012-03-29T09:24:31.997Z</time>
</trkpt>
<trkpt lat="42.7459700" lon="-2.5457500">
<ele>880.689087</ele>
<time>2012-03-29T09:25:10.004Z</time>
</trkpt>
<trkpt lat="42.7461600" lon="-2.5457300">
<ele>882.914124</ele>
<time>2012-03-29T09:26:12.998Z</time>
</trkpt>
<trkpt lat="42.7463000" lon="-2.5457000">
<ele>883.432312</ele>
<time>2012-03-29T09:26:27.004Z</time>
</trkpt>
<trkpt lat="42.7463600" lon="-2.5456900">
<ele>883.950500</ele>
<time>2012-03-29T09:26:33.000Z</time>
</trkpt>
<trkpt lat="42.7463900" lon="-2.5457200">
<ele>885.230652</ele>
<time>2012-03-29T09:26:54.997Z</time>
</trkpt>
<trkpt lat="42.7464200" lon="-2.5456900">
<ele>884.712524</ele>
<time>2012-03-29T09:27:01.002Z</time>
</trkpt>
<trkpt lat="42.7465900" lon="-2.5456200">
<ele>883.584717</ele>
<time>2012-03-29T09:27:13.997Z</time>
</trkpt>
<trkpt lat="42.7467300" lon="-2.5455300">
<ele>884.011475</ele>
<time>2012-03-29T09:27:28.002Z</time>
</trkpt>
<trkpt lat="42.7469300" lon="-2.5454800">
<ele>886.297485</ele>
<time>2012-03-29T09:27:44.997Z</time>
</trkpt>
<trkpt lat="42.7470400" lon="-2.5454800">
<ele>887.486145</ele>
<time>2012-03-29T09:27:59.003Z</time>
</trkpt>
<trkpt lat="42.7470900" lon="-2.5454800">
<ele>887.790955</ele>
<time>2012-03-29T09:28:02.001Z</time>
</trkpt>
<trkpt lat="42.7472800" lon="-2.5455000">
<ele>890.137878</ele>
<time>2012-03-29T09:28:15.997Z</time>
</trkpt>
<trkpt lat="42.7473100" lon="-2.5455100">
<ele>890.838928</ele>
<time>2012-03-29T09:28:21.000Z</time>
</trkpt>
<trkpt lat="42.7474700" lon="-2.5454300">
<ele>892.119080</ele>
<time>2012-03-29T09:28:34.997Z</time>
</trkpt>
<trkpt lat="42.7476300" lon="-2.5453900">
<ele>891.570496</ele>
<time>2012-03-29T09:28:48.000Z</time>
</trkpt>
<trkpt lat="42.7477300" lon="-2.5454000">
<ele>893.551697</ele>
<time>2012-03-29T09:29:06.999Z</time>
</trkpt>
<trkpt lat="42.7478400" lon="-2.5453600">
<ele>894.130798</ele>
<time>2012-03-29T09:29:21.998Z</time>
</trkpt>
<trkpt lat="42.7480300" lon="-2.5452000">
<ele>895.776672</ele>
<time>2012-03-29T09:29:43.002Z</time>
</trkpt>
<trkpt lat="42.7480500" lon="-2.5451500">
<ele>895.959595</ele>
<time>2012-03-29T09:30:11.998Z</time>
</trkpt>
<trkpt lat="42.7481800" lon="-2.5450400">
<ele>897.270264</ele>
<time>2012-03-29T09:30:26.997Z</time>
</trkpt>
<trkpt lat="42.7482400" lon="-2.5450200">
<ele>898.276123</ele>
<time>2012-03-29T09:30:44.001Z</time>
</trkpt>
<trkpt lat="42.7484200" lon="-2.5448800">
<ele>902.086121</ele>
<time>2012-03-29T09:31:01.998Z</time>
</trkpt>
<trkpt lat="42.7484300" lon="-2.5448500">
<ele>901.964172</ele>
<time>2012-03-29T09:31:16.997Z</time>
</trkpt>
<trkpt lat="42.7484700" lon="-2.5448000">
<ele>902.390930</ele>
<time>2012-03-29T09:31:20.997Z</time>
</trkpt>
<trkpt lat="42.7485000" lon="-2.5447400">
<ele>902.543335</ele>
<time>2012-03-29T09:31:24.997Z</time>
</trkpt>
<trkpt lat="42.7485600" lon="-2.5446300">
<ele>903.122375</ele>
<time>2012-03-29T09:31:34.000Z</time>
</trkpt>
<trkpt lat="42.7486200" lon="-2.5445300">
<ele>904.554932</ele>
<time>2012-03-29T09:31:47.004Z</time>
</trkpt>
<trkpt lat="42.7487200" lon="-2.5444900">
<ele>907.359070</ele>
<time>2012-03-29T09:32:02.003Z</time>
</trkpt>
<trkpt lat="42.7488400" lon="-2.5444200">
<ele>909.492676</ele>
<time>2012-03-29T09:32:15.999Z</time>
</trkpt>
<trkpt lat="42.7489000" lon="-2.5442500">
<ele>908.761230</ele>
<time>2012-03-29T09:32:33.996Z</time>
</trkpt>
<trkpt lat="42.7489600" lon="-2.5441400">
<ele>909.248901</ele>
<time>2012-03-29T09:32:41.997Z</time>
</trkpt>
<trkpt lat="42.7490100" lon="-2.5440800">
<ele>911.108154</ele>
<time>2012-03-29T09:32:47.000Z</time>
</trkpt>
<trkpt lat="42.7490800" lon="-2.5440200">
<ele>913.089355</ele>
<time>2012-03-29T09:32:52.996Z</time>
</trkpt>
<trkpt lat="42.7491000" lon="-2.5439700">
<ele>913.302673</ele>
<time>2012-03-29T09:32:56.996Z</time>
</trkpt>
<trkpt lat="42.7490800" lon="-2.5438600">
<ele>912.144531</ele>
<time>2012-03-29T09:33:04.003Z</time>
</trkpt>
<trkpt lat="42.7491200" lon="-2.5437700">
<ele>912.906494</ele>
<time>2012-03-29T09:33:11.002Z</time>
</trkpt>
<trkpt lat="42.7491300" lon="-2.5437000">
<ele>913.119873</ele>
<time>2012-03-29T09:33:18.000Z</time>
</trkpt>
<trkpt lat="42.7492300" lon="-2.5434800">
<ele>915.405884</ele>
<time>2012-03-29T09:33:35.004Z</time>
</trkpt>
<trkpt lat="42.7492000" lon="-2.5432100">
<ele>914.674316</ele>
<time>2012-03-29T09:33:57.001Z</time>
</trkpt>
<trkpt lat="42.7491800" lon="-2.5431800">
<ele>914.704773</ele>
<time>2012-03-29T09:33:58.003Z</time>
</trkpt>
<trkpt lat="42.7492300" lon="-2.5430300">
<ele>917.143188</ele>
<time>2012-03-29T09:34:06.997Z</time>
</trkpt>
<trkpt lat="42.7493800" lon="-2.5427900">
<ele>919.612122</ele>
<time>2012-03-29T09:34:26.999Z</time>
</trkpt>
<trkpt lat="42.7494600" lon="-2.5426500">
<ele>920.983704</ele>
<time>2012-03-29T09:34:47.001Z</time>
</trkpt>
<trkpt lat="42.7494700" lon="-2.5426600">
<ele>921.288513</ele>
<time>2012-03-29T09:35:19.997Z</time>
</trkpt>
<trkpt lat="42.7495300" lon="-2.5426900">
<ele>923.391602</ele>
<time>2012-03-29T09:36:08.001Z</time>
</trkpt>
<trkpt lat="42.7497100" lon="-2.5425200">
<ele>926.409119</ele>
<time>2012-03-29T09:36:31.000Z</time>
</trkpt>
<trkpt lat="42.7497900" lon="-2.5424200">
<ele>927.110168</ele>
<time>2012-03-29T09:36:50.000Z</time>
</trkpt>
<trkpt lat="42.7498000" lon="-2.5424200">
<ele>927.201599</ele>
<time>2012-03-29T09:37:11.004Z</time>
</trkpt>
<trkpt lat="42.7497700" lon="-2.5423100">
<ele>927.994080</ele>
<time>2012-03-29T09:37:34.997Z</time>
</trkpt>
<trkpt lat="42.7498100" lon="-2.5421200">
<ele>929.152283</ele>
<time>2012-03-29T09:37:49.002Z</time>
</trkpt>
<trkpt lat="42.7498800" lon="-2.5418400">
<ele>932.139343</ele>
<time>2012-03-29T09:38:08.002Z</time>
</trkpt>
<trkpt lat="42.7500100" lon="-2.5416400">
<ele>933.084229</ele>
<time>2012-03-29T09:38:29.999Z</time>
</trkpt>
<trkpt lat="42.7501300" lon="-2.5415100">
<ele>935.736023</ele>
<time>2012-03-29T09:39:07.998Z</time>
</trkpt>
<trkpt lat="42.7501700" lon="-2.5414500">
<ele>937.900085</ele>
<time>2012-03-29T09:39:25.001Z</time>
</trkpt>
<trkpt lat="42.7502800" lon="-2.5414000">
<ele>940.948120</ele>
<time>2012-03-29T09:39:41.996Z</time>
</trkpt>
<trkpt lat="42.7503000" lon="-2.5414000">
<ele>940.887085</ele>
<time>2012-03-29T09:39:44.001Z</time>
</trkpt>
<trkpt lat="42.7503700" lon="-2.5413800">
<ele>941.100525</ele>
<time>2012-03-29T09:39:57.997Z</time>
</trkpt>
<trkpt lat="42.7504200" lon="-2.5413100">
<ele>943.599854</ele>
<time>2012-03-29T09:40:12.996Z</time>
</trkpt>
<trkpt lat="42.7504500" lon="-2.5413200">
<ele>943.264526</ele>
<time>2012-03-29T09:40:17.999Z</time>
</trkpt>
<trkpt lat="42.7504600" lon="-2.5413500">
<ele>942.258667</ele>
<time>2012-03-29T09:40:34.000Z</time>
</trkpt>
<trkpt lat="42.7505000" lon="-2.5412900">
<ele>943.904663</ele>
<time>2012-03-29T09:41:10.997Z</time>
</trkpt>
<trkpt lat="42.7505700" lon="-2.5412100">
<ele>946.983093</ele>
<time>2012-03-29T09:41:20.000Z</time>
</trkpt>
<trkpt lat="42.7507300" lon="-2.5411800">
<ele>947.379333</ele>
<time>2012-03-29T09:41:36.001Z</time>
</trkpt>
<trkpt lat="42.7508900" lon="-2.5411500">
<ele>950.457825</ele>
<time>2012-03-29T09:41:52.996Z</time>
</trkpt>
<trkpt lat="42.7510100" lon="-2.5411700">
<ele>951.707520</ele>
<time>2012-03-29T09:42:18.000Z</time>
</trkpt>
<trkpt lat="42.7511100" lon="-2.5411800">
<ele>952.652405</ele>
<time>2012-03-29T09:42:51.998Z</time>
</trkpt>
<trkpt lat="42.7511800" lon="-2.5412100">
<ele>952.835327</ele>
<time>2012-03-29T09:42:59.999Z</time>
</trkpt>
<trkpt lat="42.7512000" lon="-2.5412300">
<ele>952.408569</ele>
<time>2012-03-29T09:43:02.997Z</time>
</trkpt>
<trkpt lat="42.7512700" lon="-2.5412700">
<ele>952.225708</ele>
<time>2012-03-29T09:43:13.002Z</time>
</trkpt>
<trkpt lat="42.7513700" lon="-2.5413400">
<ele>952.621887</ele>
<time>2012-03-29T09:43:21.996Z</time>
</trkpt>
<trkpt lat="42.7515300" lon="-2.5414500">
<ele>951.555115</ele>
<time>2012-03-29T09:43:37.004Z</time>
</trkpt>
<trkpt lat="42.7516500" lon="-2.5415400">
<ele>950.488281</ele>
<time>2012-03-29T09:43:52.003Z</time>
</trkpt>
<trkpt lat="42.7517300" lon="-2.5415900">
<ele>950.061584</ele>
<time>2012-03-29T09:44:11.003Z</time>
</trkpt>
<trkpt lat="42.7517700" lon="-2.5415900">
<ele>950.092102</ele>
<time>2012-03-29T09:44:26.002Z</time>
</trkpt>
<trkpt lat="42.7517900" lon="-2.5416200">
<ele>949.817749</ele>
<time>2012-03-29T09:44:42.003Z</time>
</trkpt>
<trkpt lat="42.7519200" lon="-2.5417500">
<ele>954.542175</ele>
<time>2012-03-29T09:44:57.002Z</time>
</trkpt>
<trkpt lat="42.7520900" lon="-2.5419000">
<ele>960.302917</ele>
<time>2012-03-29T09:45:18.999Z</time>
</trkpt>
<trkpt lat="42.7521300" lon="-2.5419700">
<ele>959.815186</ele>
<time>2012-03-29T09:45:28.002Z</time>
</trkpt>
<trkpt lat="42.7521500" lon="-2.5420000">
<ele>959.754272</ele>
<time>2012-03-29T09:45:31.000Z</time>
</trkpt>
<trkpt lat="42.7522500" lon="-2.5420700">
<ele>962.497437</ele>
<time>2012-03-29T09:45:40.997Z</time>
</trkpt>
<trkpt lat="42.7523100" lon="-2.5421700">
<ele>961.461121</ele>
<time>2012-03-29T09:45:51.002Z</time>
</trkpt>
<trkpt lat="42.7524300" lon="-2.5422500">
<ele>963.076538</ele>
<time>2012-03-29T09:46:02.001Z</time>
</trkpt>
<trkpt lat="42.7525500" lon="-2.5423600">
<ele>963.259460</ele>
<time>2012-03-29T09:46:18.002Z</time>
</trkpt>
<trkpt lat="42.7526900" lon="-2.5424900">
<ele>964.204285</ele>
<time>2012-03-29T09:46:37.001Z</time>
</trkpt>
<trkpt lat="42.7528300" lon="-2.5427100">
<ele>963.350891</ele>
<time>2012-03-29T09:46:57.996Z</time>
</trkpt>
<trkpt lat="42.7528700" lon="-2.5428300">
<ele>963.137512</ele>
<time>2012-03-29T09:47:16.996Z</time>
</trkpt>
<trkpt lat="42.7529900" lon="-2.5429800">
<ele>966.124573</ele>
<time>2012-03-29T09:47:36.997Z</time>
</trkpt>
<trkpt lat="42.7529900" lon="-2.5431700">
<ele>964.996826</ele>
<time>2012-03-29T09:53:03.002Z</time>
</trkpt>
<trkpt lat="42.7529800" lon="-2.5432700">
<ele>963.990967</ele>
<time>2012-03-29T09:53:15.996Z</time>
</trkpt>
<trkpt lat="42.7529500" lon="-2.5433500">
<ele>963.472778</ele>
<time>2012-03-29T09:54:05.003Z</time>
</trkpt>
<trkpt lat="42.7529600" lon="-2.5434700">
<ele>964.905334</ele>
<time>2012-03-29T09:54:40.003Z</time>
</trkpt>
<trkpt lat="42.7530000" lon="-2.5436700">
<ele>967.739990</ele>
<time>2012-03-29T09:54:56.998Z</time>
</trkpt>
<trkpt lat="42.7530900" lon="-2.5437800">
<ele>966.642700</ele>
<time>2012-03-29T09:55:14.002Z</time>
</trkpt>
<trkpt lat="42.7532300" lon="-2.5439000">
<ele>967.831482</ele>
<time>2012-03-29T09:55:30.996Z</time>
</trkpt>
<trkpt lat="42.7532500" lon="-2.5439200">
<ele>968.288635</ele>
<time>2012-03-29T09:55:33.001Z</time>
</trkpt>
<trkpt lat="42.7533500" lon="-2.5440400">
<ele>969.721191</ele>
<time>2012-03-29T09:55:48.000Z</time>
</trkpt>
<trkpt lat="42.7534700" lon="-2.5441800">
<ele>971.306152</ele>
<time>2012-03-29T09:56:05.004Z</time>
</trkpt>
<trkpt lat="42.7536100" lon="-2.5442300">
<ele>973.714111</ele>
<time>2012-03-29T09:56:24.003Z</time>
</trkpt>
<trkpt lat="42.7536700" lon="-2.5442300">
<ele>975.055176</ele>
<time>2012-03-29T09:56:44.998Z</time>
</trkpt>
<trkpt lat="42.7537100" lon="-2.5442300">
<ele>976.426819</ele>
<time>2012-03-29T09:57:03.004Z</time>
</trkpt>
<trkpt lat="42.7538200" lon="-2.5442900">
<ele>979.962524</ele>
<time>2012-03-29T09:57:32.000Z</time>
</trkpt>
<trkpt lat="42.7537900" lon="-2.5443200">
<ele>977.737427</ele>
<time>2012-03-29T09:58:28.004Z</time>
</trkpt>
<trkpt lat="42.7539700" lon="-2.5443300">
<ele>985.357483</ele>
<time>2012-03-29T09:58:42.001Z</time>
</trkpt>
<trkpt lat="42.7540800" lon="-2.5443900">
<ele>989.167480</ele>
<time>2012-03-29T09:59:06.003Z</time>
</trkpt>
<trkpt lat="42.7542300" lon="-2.5445900">
<ele>990.630493</ele>
<time>2012-03-29T09:59:29.003Z</time>
</trkpt>
<trkpt lat="42.7543800" lon="-2.5447100">
<ele>993.922302</ele>
<time>2012-03-29T10:01:44.003Z</time>
</trkpt>
<trkpt lat="42.7544900" lon="-2.5448500">
<ele>996.848389</ele>
<time>2012-03-29T10:02:02.000Z</time>
</trkpt>
<trkpt lat="42.7546400" lon="-2.5449900">
<ele>999.835449</ele>
<time>2012-03-29T10:02:23.004Z</time>
</trkpt>
<trkpt lat="42.7547900" lon="-2.5450600">
<ele>1003.218689</ele>
<time>2012-03-29T10:02:42.003Z</time>
</trkpt>
<trkpt lat="42.7549500" lon="-2.5452300">
<ele>1002.426270</ele>
<time>2012-03-29T10:03:02.998Z</time>
</trkpt>
<trkpt lat="42.7550900" lon="-2.5452800">
<ele>1005.047485</ele>
<time>2012-03-29T10:03:24.002Z</time>
</trkpt>
<trkpt lat="42.7551900" lon="-2.5453700">
<ele>1005.840027</ele>
<time>2012-03-29T10:03:59.003Z</time>
</trkpt>
<trkpt lat="42.7554200" lon="-2.5455600">
<ele>1009.954773</ele>
<time>2012-03-29T10:04:22.002Z</time>
</trkpt>
<trkpt lat="42.7554900" lon="-2.5457600">
<ele>1006.327698</ele>
<time>2012-03-29T10:04:41.002Z</time>
</trkpt>
<trkpt lat="42.7555700" lon="-2.5458100">
<ele>1009.162292</ele>
<time>2012-03-29T10:05:02.999Z</time>
</trkpt>
<trkpt lat="42.7558000" lon="-2.5459800">
<ele>1012.911316</ele>
<time>2012-03-29T10:05:25.999Z</time>
</trkpt>
<trkpt lat="42.7559200" lon="-2.5460500">
<ele>1013.734314</ele>
<time>2012-03-29T10:05:47.996Z</time>
</trkpt>
<trkpt lat="42.7560200" lon="-2.5461600">
<ele>1013.917175</ele>
<time>2012-03-29T10:06:11.998Z</time>
</trkpt>
<trkpt lat="42.7561100" lon="-2.5461700">
<ele>1015.593628</ele>
<time>2012-03-29T10:06:30.004Z</time>
</trkpt>
<trkpt lat="42.7561800" lon="-2.5461500">
<ele>1017.574829</ele>
<time>2012-03-29T10:06:42.998Z</time>
</trkpt>
<trkpt lat="42.7562000" lon="-2.5461600">
<ele>1017.818665</ele>
<time>2012-03-29T10:07:01.004Z</time>
</trkpt>
<trkpt lat="42.7563700" lon="-2.5462000">
<ele>1020.958130</ele>
<time>2012-03-29T10:07:16.997Z</time>
</trkpt>
<trkpt lat="42.7565400" lon="-2.5462000">
<ele>1023.335510</ele>
<time>2012-03-29T10:07:35.996Z</time>
</trkpt>
<trkpt lat="42.7565700" lon="-2.5461600">
<ele>1023.853699</ele>
<time>2012-03-29T10:07:58.002Z</time>
</trkpt>
<trkpt lat="42.7566900" lon="-2.5462000">
<ele>1024.950928</ele>
<time>2012-03-29T10:08:11.999Z</time>
</trkpt>
<trkpt lat="42.7567500" lon="-2.5462300">
<ele>1025.408203</ele>
<time>2012-03-29T10:08:15.999Z</time>
</trkpt>
<trkpt lat="42.7568800" lon="-2.5463100">
<ele>1025.225342</ele>
<time>2012-03-29T10:08:30.998Z</time>
</trkpt>
<trkpt lat="42.7569800" lon="-2.5464000">
<ele>1025.408203</ele>
<time>2012-03-29T10:08:38.999Z</time>
</trkpt>
<trkpt lat="42.7570200" lon="-2.5464300">
<ele>1025.682495</ele>
<time>2012-03-29T10:08:44.002Z</time>
</trkpt>
<trkpt lat="42.7571400" lon="-2.5465500">
<ele>1026.078735</ele>
<time>2012-03-29T10:08:56.996Z</time>
</trkpt>
<trkpt lat="42.7572200" lon="-2.5466400">
<ele>1026.139771</ele>
<time>2012-03-29T10:09:04.997Z</time>
</trkpt>
<trkpt lat="42.7573700" lon="-2.5468100">
<ele>1026.474976</ele>
<time>2012-03-29T10:09:23.003Z</time>
</trkpt>
<trkpt lat="42.7573900" lon="-2.5468500">
<ele>1026.353027</ele>
<time>2012-03-29T10:09:28.999Z</time>
</trkpt>
<trkpt lat="42.7574200" lon="-2.5469100">
<ele>1026.200684</ele>
<time>2012-03-29T10:09:51.998Z</time>
</trkpt>
<trkpt lat="42.7574900" lon="-2.5469200">
<ele>1026.840698</ele>
<time>2012-03-29T10:10:30.999Z</time>
</trkpt>
<trkpt lat="42.7575700" lon="-2.5470400">
<ele>1026.109253</ele>
<time>2012-03-29T10:10:56.997Z</time>
</trkpt>
<trkpt lat="42.7576800" lon="-2.5471300">
<ele>1026.200684</ele>
<time>2012-03-29T10:11:07.996Z</time>
</trkpt>
<trkpt lat="42.7577400" lon="-2.5471800">
<ele>1026.444458</ele>
<time>2012-03-29T10:11:15.996Z</time>
</trkpt>
<trkpt lat="42.7578700" lon="-2.5472400">
<ele>1027.419800</ele>
<time>2012-03-29T10:11:29.000Z</time>
</trkpt>
<trkpt lat="42.7579300" lon="-2.5473200">
<ele>1027.328369</ele>
<time>2012-03-29T10:11:41.001Z</time>
</trkpt>
<trkpt lat="42.7580200" lon="-2.5473100">
<ele>1028.456177</ele>
<time>2012-03-29T10:11:54.997Z</time>
</trkpt>
<trkpt lat="42.7581600" lon="-2.5473700">
<ele>1029.401001</ele>
<time>2012-03-29T10:12:04.000Z</time>
</trkpt>
<trkpt lat="42.7581900" lon="-2.5474000">
<ele>1029.583862</ele>
<time>2012-03-29T10:12:06.998Z</time>
</trkpt>
<trkpt lat="42.7582300" lon="-2.5474600">
<ele>1029.858276</ele>
<time>2012-03-29T10:12:13.003Z</time>
</trkpt>
<trkpt lat="42.7582400" lon="-2.5474900">
<ele>1030.010620</ele>
<time>2012-03-29T10:12:14.999Z</time>
</trkpt>
<trkpt lat="42.7583000" lon="-2.5475100">
<ele>1030.711670</ele>
<time>2012-03-29T10:12:20.002Z</time>
</trkpt>
<trkpt lat="42.7583900" lon="-2.5475600">
<ele>1031.595581</ele>
<time>2012-03-29T10:12:28.996Z</time>
</trkpt>
<trkpt lat="42.7584100" lon="-2.5475800">
<ele>1031.656494</ele>
<time>2012-03-29T10:12:31.000Z</time>
</trkpt>
<trkpt lat="42.7584600" lon="-2.5476300">
<ele>1031.534668</ele>
<time>2012-03-29T10:12:36.996Z</time>
</trkpt>
<trkpt lat="42.7585900" lon="-2.5477200">
<ele>1033.485352</ele>
<time>2012-03-29T10:12:51.002Z</time>
</trkpt>
<trkpt lat="42.7586400" lon="-2.5477800">
<ele>1033.485352</ele>
<time>2012-03-29T10:13:03.003Z</time>
</trkpt>
<trkpt lat="42.7586600" lon="-2.5477800">
<ele>1033.698730</ele>
<time>2012-03-29T10:13:18.002Z</time>
</trkpt>
<trkpt lat="42.7587400" lon="-2.5477800">
<ele>1034.613037</ele>
<time>2012-03-29T10:13:22.996Z</time>
</trkpt>
<trkpt lat="42.7587600" lon="-2.5477800">
<ele>1034.796021</ele>
<time>2012-03-29T10:13:25.000Z</time>
</trkpt>
<trkpt lat="42.7587900" lon="-2.5478000">
<ele>1035.100830</ele>
<time>2012-03-29T10:13:27.998Z</time>
</trkpt>
<trkpt lat="42.7589500" lon="-2.5477400">
<ele>1037.082031</ele>
<time>2012-03-29T10:13:42.997Z</time>
</trkpt>
<trkpt lat="42.7589800" lon="-2.5477200">
<ele>1037.447754</ele>
<time>2012-03-29T10:13:45.002Z</time>
</trkpt>
<trkpt lat="42.7591200" lon="-2.5476800">
<ele>1039.886108</ele>
<time>2012-03-29T10:14:00.001Z</time>
</trkpt>
<trkpt lat="42.7592600" lon="-2.5476600">
<ele>1041.440674</ele>
<time>2012-03-29T10:14:13.998Z</time>
</trkpt>
<trkpt lat="42.7594100" lon="-2.5476600">
<ele>1043.025635</ele>
<time>2012-03-29T10:14:27.001Z</time>
</trkpt>
<trkpt lat="42.7595000" lon="-2.5476700">
<ele>1043.056152</ele>
<time>2012-03-29T10:14:40.004Z</time>
</trkpt>
<trkpt lat="42.7596200" lon="-2.5476400">
<ele>1044.336304</ele>
<time>2012-03-29T10:14:51.996Z</time>
</trkpt>
<trkpt lat="42.7597200" lon="-2.5476000">
<ele>1046.256470</ele>
<time>2012-03-29T10:15:02.002Z</time>
</trkpt>
<trkpt lat="42.7598500" lon="-2.5475400">
<ele>1048.908203</ele>
<time>2012-03-29T10:15:14.996Z</time>
</trkpt>
<trkpt lat="42.7599100" lon="-2.5475300">
<ele>1050.340820</ele>
<time>2012-03-29T10:15:29.002Z</time>
</trkpt>
<trkpt lat="42.7599200" lon="-2.5475300">
<ele>1050.523682</ele>
<time>2012-03-29T10:15:30.004Z</time>
</trkpt>
<trkpt lat="42.7599500" lon="-2.5475300">
<ele>1051.133301</ele>
<time>2012-03-29T10:15:33.002Z</time>
</trkpt>
<trkpt lat="42.7600800" lon="-2.5474500">
<ele>1052.535400</ele>
<time>2012-03-29T10:15:48.001Z</time>
</trkpt>
<trkpt lat="42.7601700" lon="-2.5473800">
<ele>1053.541260</ele>
<time>2012-03-29T10:16:00.002Z</time>
</trkpt>
<trkpt lat="42.7601900" lon="-2.5473700">
<ele>1053.724121</ele>
<time>2012-03-29T10:16:01.998Z</time>
</trkpt>
<trkpt lat="42.7603100" lon="-2.5473100">
<ele>1055.156616</ele>
<time>2012-03-29T10:16:15.001Z</time>
</trkpt>
<trkpt lat="42.7604000" lon="-2.5472700">
<ele>1057.198853</ele>
<time>2012-03-29T10:16:30.000Z</time>
</trkpt>
<trkpt lat="42.7604200" lon="-2.5472300">
<ele>1057.595093</ele>
<time>2012-03-29T10:16:36.998Z</time>
</trkpt>
<trkpt lat="42.7604900" lon="-2.5471600">
<ele>1058.113159</ele>
<time>2012-03-29T10:16:46.001Z</time>
</trkpt>
<trkpt lat="42.7606100" lon="-2.5471000">
<ele>1059.362915</ele>
<time>2012-03-29T10:16:58.002Z</time>
</trkpt>
<trkpt lat="42.7607100" lon="-2.5470400">
<ele>1061.130737</ele>
<time>2012-03-29T10:17:09.001Z</time>
</trkpt>
<trkpt lat="42.7607600" lon="-2.5469900">
<ele>1061.923218</ele>
<time>2012-03-29T10:17:14.004Z</time>
</trkpt>
<trkpt lat="42.7608600" lon="-2.5468900">
<ele>1063.569092</ele>
<time>2012-03-29T10:17:28.000Z</time>
</trkpt>
<trkpt lat="42.7608400" lon="-2.5469300">
<ele>1062.989990</ele>
<time>2012-03-29T10:17:48.002Z</time>
</trkpt>
<trkpt lat="42.7608700" lon="-2.5468700">
<ele>1063.812988</ele>
<time>2012-03-29T10:17:59.001Z</time>
</trkpt>
<trkpt lat="42.7609000" lon="-2.5466600">
<ele>1063.203369</ele>
<time>2012-03-29T10:18:12.997Z</time>
</trkpt>
<trkpt lat="42.7609500" lon="-2.5465400">
<ele>1064.392090</ele>
<time>2012-03-29T10:18:22.000Z</time>
</trkpt>
<trkpt lat="42.7609700" lon="-2.5464500">
<ele>1063.721436</ele>
<time>2012-03-29T10:18:27.003Z</time>
</trkpt>
<trkpt lat="42.7609900" lon="-2.5462400">
<ele>1063.965332</ele>
<time>2012-03-29T10:18:41.000Z</time>
</trkpt>
<trkpt lat="42.7610500" lon="-2.5460800">
<ele>1063.843506</ele>
<time>2012-03-29T10:18:51.998Z</time>
</trkpt>
<trkpt lat="42.7610600" lon="-2.5460500">
<ele>1063.843506</ele>
<time>2012-03-29T10:19:13.996Z</time>
</trkpt>
<trkpt lat="42.7610900" lon="-2.5459500">
<ele>1063.691040</ele>
<time>2012-03-29T10:19:21.996Z</time>
</trkpt>
<trkpt lat="42.7611100" lon="-2.5457700">
<ele>1065.336914</ele>
<time>2012-03-29T10:19:33.004Z</time>
</trkpt>
<trkpt lat="42.7611200" lon="-2.5455800">
<ele>1066.952393</ele>
<time>2012-03-29T10:19:43.000Z</time>
</trkpt>
<trkpt lat="42.7611000" lon="-2.5454400">
<ele>1067.897339</ele>
<time>2012-03-29T10:19:51.001Z</time>
</trkpt>
<trkpt lat="42.7609700" lon="-2.5453400">
<ele>1069.634644</ele>
<time>2012-03-29T10:20:03.002Z</time>
</trkpt>
<trkpt lat="42.7608400" lon="-2.5452900">
<ele>1069.695557</ele>
<time>2012-03-29T10:20:15.996Z</time>
</trkpt>
<trkpt lat="42.7607600" lon="-2.5452500">
<ele>1070.609985</ele>
<time>2012-03-29T10:20:23.997Z</time>
</trkpt>
<trkpt lat="42.7607100" lon="-2.5452100">
<ele>1071.615845</ele>
<time>2012-03-29T10:20:29.000Z</time>
</trkpt>
<trkpt lat="42.7605500" lon="-2.5451200">
<ele>1073.048340</ele>
<time>2012-03-29T10:20:43.999Z</time>
</trkpt>
<trkpt lat="42.7604000" lon="-2.5450300">
<ele>1074.816284</ele>
<time>2012-03-29T10:20:58.998Z</time>
</trkpt>
<trkpt lat="42.7603900" lon="-2.5450400">
<ele>1074.663818</ele>
<time>2012-03-29T10:21:00.000Z</time>
</trkpt>
<trkpt lat="42.7603500" lon="-2.5450300">
<ele>1074.724854</ele>
<time>2012-03-29T10:21:17.004Z</time>
</trkpt>
<trkpt lat="42.7602500" lon="-2.5451500">
<ele>1072.865479</ele>
<time>2012-03-29T10:21:25.998Z</time>
</trkpt>
<trkpt lat="42.7602000" lon="-2.5451700">
<ele>1072.530273</ele>
<time>2012-03-29T10:21:31.000Z</time>
</trkpt>
<trkpt lat="42.7600300" lon="-2.5452400">
<ele>1072.652100</ele>
<time>2012-03-29T10:21:44.997Z</time>
</trkpt>
<trkpt lat="42.7599600" lon="-2.5452800">
<ele>1072.316895</ele>
<time>2012-03-29T10:21:52.004Z</time>
</trkpt>
<trkpt lat="42.7599200" lon="-2.5452900">
<ele>1072.194946</ele>
<time>2012-03-29T10:22:07.997Z</time>
</trkpt>
<trkpt lat="42.7600000" lon="-2.5453900">
<ele>1071.676758</ele>
<time>2012-03-29T10:23:20.996Z</time>
</trkpt>
<trkpt lat="42.7600300" lon="-2.5454000">
<ele>1071.402466</ele>
<time>2012-03-29T10:23:43.002Z</time>
</trkpt>
<trkpt lat="42.7600200" lon="-2.5453900">
<ele>1071.585327</ele>
<time>2012-03-29T10:25:28.998Z</time>
</trkpt>
<trkpt lat="42.7598800" lon="-2.5452700">
<ele>1072.347290</ele>
<time>2012-03-29T10:25:43.003Z</time>
</trkpt>
<trkpt lat="42.7598700" lon="-2.5452600">
<ele>1072.438843</ele>
<time>2012-03-29T10:25:43.997Z</time>
</trkpt>
<trkpt lat="42.7597600" lon="-2.5450500">
<ele>1074.206665</ele>
<time>2012-03-29T10:25:59.998Z</time>
</trkpt>
<trkpt lat="42.7596900" lon="-2.5448800">
<ele>1075.212524</ele>
<time>2012-03-29T10:26:13.001Z</time>
</trkpt>
<trkpt lat="42.7596200" lon="-2.5446500">
<ele>1075.974487</ele>
<time>2012-03-29T10:26:28.000Z</time>
</trkpt>
<trkpt lat="42.7595700" lon="-2.5444300">
<ele>1077.102295</ele>
<time>2012-03-29T10:26:41.004Z</time>
</trkpt>
<trkpt lat="42.7595200" lon="-2.5441900">
<ele>1076.431763</ele>
<time>2012-03-29T10:26:55.000Z</time>
</trkpt>
<trkpt lat="42.7594200" lon="-2.5439900">
<ele>1076.309692</ele>
<time>2012-03-29T10:27:08.997Z</time>
</trkpt>
<trkpt lat="42.7593800" lon="-2.5439200">
<ele>1075.913452</ele>
<time>2012-03-29T10:27:12.997Z</time>
</trkpt>
<trkpt lat="42.7593000" lon="-2.5438100">
<ele>1075.486816</ele>
<time>2012-03-29T10:27:23.003Z</time>
</trkpt>
<trkpt lat="42.7592400" lon="-2.5437300">
<ele>1075.425903</ele>
<time>2012-03-29T10:27:30.001Z</time>
</trkpt>
<trkpt lat="42.7592000" lon="-2.5436900">
<ele>1075.029541</ele>
<time>2012-03-29T10:27:43.998Z</time>
</trkpt>
<trkpt lat="42.7592100" lon="-2.5437600">
<ele>1074.938110</ele>
<time>2012-03-29T10:28:09.002Z</time>
</trkpt>
<trkpt lat="42.7592200" lon="-2.5437500">
<ele>1075.090576</ele>
<time>2012-03-29T10:28:33.004Z</time>
</trkpt>
<trkpt lat="42.7591700" lon="-2.5435600">
<ele>1074.663818</ele>
<time>2012-03-29T10:30:02.998Z</time>
</trkpt>
<trkpt lat="42.7591400" lon="-2.5434600">
<ele>1075.182007</ele>
<time>2012-03-29T10:30:09.003Z</time>
</trkpt>
<trkpt lat="42.7591100" lon="-2.5432200">
<ele>1075.212524</ele>
<time>2012-03-29T10:30:24.002Z</time>
</trkpt>
<trkpt lat="42.7590900" lon="-2.5430100">
<ele>1075.852539</ele>
<time>2012-03-29T10:30:39.001Z</time>
</trkpt>
<trkpt lat="42.7590900" lon="-2.5428400">
<ele>1076.766968</ele>
<time>2012-03-29T10:30:52.004Z</time>
</trkpt>
<trkpt lat="42.7590900" lon="-2.5428000">
<ele>1076.736450</ele>
<time>2012-03-29T10:30:55.002Z</time>
</trkpt>
<trkpt lat="42.7591000" lon="-2.5427800">
<ele>1076.827881</ele>
<time>2012-03-29T10:30:56.998Z</time>
</trkpt>
<trkpt lat="42.7591300" lon="-2.5426600">
<ele>1077.376587</ele>
<time>2012-03-29T10:31:04.999Z</time>
</trkpt>
<trkpt lat="42.7591600" lon="-2.5424000">
<ele>1078.108154</ele>
<time>2012-03-29T10:31:21.000Z</time>
</trkpt>
<trkpt lat="42.7592000" lon="-2.5422500">
<ele>1078.991943</ele>
<time>2012-03-29T10:31:30.003Z</time>
</trkpt>
<trkpt lat="42.7592000" lon="-2.5422200">
<ele>1078.991943</ele>
<time>2012-03-29T10:31:31.999Z</time>
</trkpt>
<trkpt lat="42.7591900" lon="-2.5420600">
<ele>1078.870117</ele>
<time>2012-03-29T10:31:45.002Z</time>
</trkpt>
<trkpt lat="42.7592200" lon="-2.5420100">
<ele>1079.266235</ele>
<time>2012-03-29T10:32:04.001Z</time>
</trkpt>
<trkpt lat="42.7591900" lon="-2.5417800">
<ele>1078.870117</ele>
<time>2012-03-29T10:32:20.996Z</time>
</trkpt>
<trkpt lat="42.7592400" lon="-2.5416600">
<ele>1079.449219</ele>
<time>2012-03-29T10:32:36.004Z</time>
</trkpt>
<trkpt lat="42.7593800" lon="-2.5414700">
<ele>1082.131470</ele>
<time>2012-03-29T10:32:55.003Z</time>
</trkpt>
<trkpt lat="42.7595000" lon="-2.5413700">
<ele>1083.350708</ele>
<time>2012-03-29T10:33:09.000Z</time>
</trkpt>
<trkpt lat="42.7596400" lon="-2.5412400">
<ele>1084.935547</ele>
<time>2012-03-29T10:33:26.997Z</time>
</trkpt>
<trkpt lat="42.7597600" lon="-2.5410400">
<ele>1086.002441</ele>
<time>2012-03-29T10:33:45.003Z</time>
</trkpt>
<trkpt lat="42.7597900" lon="-2.5410300">
<ele>1085.880493</ele>
<time>2012-03-29T10:33:46.999Z</time>
</trkpt>
<trkpt lat="42.7598300" lon="-2.5410100">
<ele>1085.941406</ele>
<time>2012-03-29T10:33:49.997Z</time>
</trkpt>
<trkpt lat="42.7599200" lon="-2.5408700">
<ele>1087.008301</ele>
<time>2012-03-29T10:34:04.002Z</time>
</trkpt>
<trkpt lat="42.7599300" lon="-2.5408400">
<ele>1087.038696</ele>
<time>2012-03-29T10:34:07.000Z</time>
</trkpt>
<trkpt lat="42.7600000" lon="-2.5406900">
<ele>1086.916748</ele>
<time>2012-03-29T10:34:20.997Z</time>
</trkpt>
<trkpt lat="42.7601000" lon="-2.5405700">
<ele>1088.014160</ele>
<time>2012-03-29T10:34:35.003Z</time>
</trkpt>
<trkpt lat="42.7601500" lon="-2.5405200">
<ele>1088.532227</ele>
<time>2012-03-29T10:34:40.999Z</time>
</trkpt>
<trkpt lat="42.7601700" lon="-2.5404700">
<ele>1088.806519</ele>
<time>2012-03-29T10:34:43.997Z</time>
</trkpt>
<trkpt lat="42.7602100" lon="-2.5403700">
<ele>1089.294312</ele>
<time>2012-03-29T10:34:50.002Z</time>
</trkpt>
<trkpt lat="42.7603000" lon="-2.5401700">
<ele>1090.178101</ele>
<time>2012-03-29T10:35:05.001Z</time>
</trkpt>
<trkpt lat="42.7603000" lon="-2.5401500">
<ele>1089.964844</ele>
<time>2012-03-29T10:35:06.003Z</time>
</trkpt>
<trkpt lat="42.7603500" lon="-2.5400100">
<ele>1089.873291</ele>
<time>2012-03-29T10:35:17.002Z</time>
</trkpt>
<trkpt lat="42.7603500" lon="-2.5399700">
<ele>1089.995361</ele>
<time>2012-03-29T10:35:37.997Z</time>
</trkpt>
<trkpt lat="42.7604000" lon="-2.5399100">
<ele>1089.873291</ele>
<time>2012-03-29T10:36:03.001Z</time>
</trkpt>
<trkpt lat="42.7604500" lon="-2.5397200">
<ele>1089.141846</ele>
<time>2012-03-29T10:41:31.001Z</time>
</trkpt>
<trkpt lat="42.7605100" lon="-2.5396700">
<ele>1089.385742</ele>
<time>2012-03-29T10:41:36.997Z</time>
</trkpt>
<trkpt lat="42.7607000" lon="-2.5396300">
<ele>1092.799438</ele>
<time>2012-03-29T10:41:50.001Z</time>
</trkpt>
<trkpt lat="42.7607800" lon="-2.5395400">
<ele>1093.652954</ele>
<time>2012-03-29T10:42:05.000Z</time>
</trkpt>
<trkpt lat="42.7609000" lon="-2.5394400">
<ele>1094.994019</ele>
<time>2012-03-29T10:42:18.996Z</time>
</trkpt>
<trkpt lat="42.7610000" lon="-2.5393900">
<ele>1096.060791</ele>
<time>2012-03-29T10:42:30.997Z</time>
</trkpt>
<trkpt lat="42.7611500" lon="-2.5392400">
<ele>1095.877930</ele>
<time>2012-03-29T10:42:45.996Z</time>
</trkpt>
<trkpt lat="42.7611900" lon="-2.5391800">
<ele>1096.182739</ele>
<time>2012-03-29T10:42:50.999Z</time>
</trkpt>
<trkpt lat="42.7612900" lon="-2.5391400">
<ele>1096.853271</ele>
<time>2012-03-29T10:42:57.997Z</time>
</trkpt>
<trkpt lat="42.7613600" lon="-2.5390900">
<ele>1098.377319</ele>
<time>2012-03-29T10:43:04.996Z</time>
</trkpt>
<trkpt lat="42.7614600" lon="-2.5389700">
<ele>1099.870850</ele>
<time>2012-03-29T10:43:20.997Z</time>
</trkpt>
<trkpt lat="42.7615700" lon="-2.5387900">
<ele>1102.065308</ele>
<time>2012-03-29T10:43:35.003Z</time>
</trkpt>
<trkpt lat="42.7616000" lon="-2.5385500">
<ele>1101.181396</ele>
<time>2012-03-29T10:43:50.002Z</time>
</trkpt>
<trkpt lat="42.7616200" lon="-2.5382900">
<ele>1101.059448</ele>
<time>2012-03-29T10:44:03.998Z</time>
</trkpt>
<trkpt lat="42.7616000" lon="-2.5381600">
<ele>1100.785156</ele>
<time>2012-03-29T10:44:15.999Z</time>
</trkpt>
<trkpt lat="42.7615900" lon="-2.5381200">
<ele>1100.602295</ele>
<time>2012-03-29T10:44:18.997Z</time>
</trkpt>
<trkpt lat="42.7615400" lon="-2.5380000">
<ele>1100.907104</ele>
<time>2012-03-29T10:44:32.001Z</time>
</trkpt>
<trkpt lat="42.7614900" lon="-2.5379700">
<ele>1100.724243</ele>
<time>2012-03-29T10:44:37.003Z</time>
</trkpt>
<trkpt lat="42.7614400" lon="-2.5379300">
<ele>1099.962280</ele>
<time>2012-03-29T10:44:41.997Z</time>
</trkpt>
<trkpt lat="42.7613100" lon="-2.5377800">
<ele>1099.626953</ele>
<time>2012-03-29T10:44:56.003Z</time>
</trkpt>
<trkpt lat="42.7612400" lon="-2.5377200">
<ele>1098.925903</ele>
<time>2012-03-29T10:45:11.002Z</time>
</trkpt>
<trkpt lat="42.7611200" lon="-2.5375600">
<ele>1097.127563</ele>
<time>2012-03-29T10:45:23.003Z</time>
</trkpt>
<trkpt lat="42.7609700" lon="-2.5374000">
<ele>1096.548462</ele>
<time>2012-03-29T10:45:39.004Z</time>
</trkpt>
<trkpt lat="42.7609400" lon="-2.5373700">
<ele>1096.060791</ele>
<time>2012-03-29T10:45:42.002Z</time>
</trkpt>
<trkpt lat="42.7608900" lon="-2.5373000">
<ele>1094.933105</ele>
<time>2012-03-29T10:45:46.996Z</time>
</trkpt>
<trkpt lat="42.7607800" lon="-2.5372300">
<ele>1093.744263</ele>
<time>2012-03-29T10:45:57.001Z</time>
</trkpt>
<trkpt lat="42.7607300" lon="-2.5371700">
<ele>1093.226196</ele>
<time>2012-03-29T10:46:02.004Z</time>
</trkpt>
<trkpt lat="42.7606000" lon="-2.5370500">
<ele>1091.793579</ele>
<time>2012-03-29T10:46:17.003Z</time>
</trkpt>
<trkpt lat="42.7605700" lon="-2.5370100">
<ele>1091.458252</ele>
<time>2012-03-29T10:46:21.003Z</time>
</trkpt>
<trkpt lat="42.7605000" lon="-2.5369200">
<ele>1090.665894</ele>
<time>2012-03-29T10:46:29.004Z</time>
</trkpt>
<trkpt lat="42.7604700" lon="-2.5368600">
<ele>1090.239136</ele>
<time>2012-03-29T10:46:33.997Z</time>
</trkpt>
<trkpt lat="42.7604200" lon="-2.5367400">
<ele>1088.562744</ele>
<time>2012-03-29T10:46:41.998Z</time>
</trkpt>
<trkpt lat="42.7603100" lon="-2.5365400">
<ele>1087.678833</ele>
<time>2012-03-29T10:46:57.999Z</time>
</trkpt>
<trkpt lat="42.7602600" lon="-2.5364100">
<ele>1086.093872</ele>
<time>2012-03-29T10:47:10.000Z</time>
</trkpt>
<trkpt lat="42.7602500" lon="-2.5363700">
<ele>1085.849976</ele>
<time>2012-03-29T10:47:12.998Z</time>
</trkpt>
<trkpt lat="42.7602600" lon="-2.5361300">
<ele>1084.996582</ele>
<time>2012-03-29T10:47:27.997Z</time>
</trkpt>
<trkpt lat="42.7602700" lon="-2.5361000">
<ele>1085.148926</ele>
<time>2012-03-29T10:47:31.004Z</time>
</trkpt>
<trkpt lat="42.7603000" lon="-2.5359800">
<ele>1085.667114</ele>
<time>2012-03-29T10:47:38.003Z</time>
</trkpt>
<trkpt lat="42.7603300" lon="-2.5358400">
<ele>1085.849976</ele>
<time>2012-03-29T10:47:47.999Z</time>
</trkpt>
<trkpt lat="42.7603400" lon="-2.5356400">
<ele>1086.032959</ele>
<time>2012-03-29T10:48:02.998Z</time>
</trkpt>
<trkpt lat="42.7603100" lon="-2.5356300">
<ele>1085.849976</ele>
<time>2012-03-29T10:48:21.997Z</time>
</trkpt>
<trkpt lat="42.7603100" lon="-2.5355900">
<ele>1086.002441</ele>
<time>2012-03-29T10:48:28.002Z</time>
</trkpt>
<trkpt lat="42.7602800" lon="-2.5355400">
<ele>1086.368164</ele>
<time>2012-03-29T10:48:33.998Z</time>
</trkpt>
<trkpt lat="42.7602600" lon="-2.5354400">
<ele>1088.532227</ele>
<time>2012-03-29T10:48:51.002Z</time>
</trkpt>
<trkpt lat="42.7602500" lon="-2.5352300">
<ele>1092.494629</ele>
<time>2012-03-29T10:49:07.003Z</time>
</trkpt>
<trkpt lat="42.7602100" lon="-2.5350700">
<ele>1096.304688</ele>
<time>2012-03-29T10:49:22.996Z</time>
</trkpt>
<trkpt lat="42.7601600" lon="-2.5349600">
<ele>1097.554321</ele>
<time>2012-03-29T10:49:34.997Z</time>
</trkpt>
<trkpt lat="42.7601300" lon="-2.5348200">
<ele>1099.566040</ele>
<time>2012-03-29T10:49:50.998Z</time>
</trkpt>
<trkpt lat="42.7601000" lon="-2.5346700">
<ele>1102.674927</ele>
<time>2012-03-29T10:50:05.997Z</time>
</trkpt>
<trkpt lat="42.7601000" lon="-2.5346500">
<ele>1102.918823</ele>
<time>2012-03-29T10:50:08.002Z</time>
</trkpt>
<trkpt lat="42.7600900" lon="-2.5345900">
<ele>1103.284546</ele>
<time>2012-03-29T10:50:13.998Z</time>
</trkpt>
<trkpt lat="42.7600700" lon="-2.5344900">
<ele>1103.619873</ele>
<time>2012-03-29T10:50:24.003Z</time>
</trkpt>
<trkpt lat="42.7600300" lon="-2.5344100">
<ele>1103.741699</ele>
<time>2012-03-29T10:50:31.001Z</time>
</trkpt>
<trkpt lat="42.7600000" lon="-2.5343900">
<ele>1103.741699</ele>
<time>2012-03-29T10:50:33.999Z</time>
</trkpt>
<trkpt lat="42.7599700" lon="-2.5343700">
<ele>1103.650269</ele>
<time>2012-03-29T10:50:38.000Z</time>
</trkpt>
<trkpt lat="42.7599500" lon="-2.5343300">
<ele>1103.650269</ele>
<time>2012-03-29T10:50:40.998Z</time>
</trkpt>
<trkpt lat="42.7600500" lon="-2.5342000">
<ele>1104.778076</ele>
<time>2012-03-29T10:50:59.004Z</time>
</trkpt>
<trkpt lat="42.7601200" lon="-2.5341800">
<ele>1105.418091</ele>
<time>2012-03-29T10:51:10.996Z</time>
</trkpt>
<trkpt lat="42.7602500" lon="-2.5340900">
<ele>1108.069946</ele>
<time>2012-03-29T10:51:25.001Z</time>
</trkpt>
<trkpt lat="42.7603600" lon="-2.5339900">
<ele>1111.453247</ele>
<time>2012-03-29T10:51:37.996Z</time>
</trkpt>
<trkpt lat="42.7604900" lon="-2.5339500">
<ele>1113.281982</ele>
<time>2012-03-29T10:51:52.001Z</time>
</trkpt>
<trkpt lat="42.7606200" lon="-2.5339000">
<ele>1115.903320</ele>
<time>2012-03-29T10:52:07.000Z</time>
</trkpt>
<trkpt lat="42.7607100" lon="-2.5339000">
<ele>1116.817749</ele>
<time>2012-03-29T10:52:19.001Z</time>
</trkpt>
<trkpt lat="42.7608200" lon="-2.5339800">
<ele>1118.433105</ele>
<time>2012-03-29T10:52:32.998Z</time>
</trkpt>
<trkpt lat="42.7609400" lon="-2.5340600">
<ele>1119.652344</ele>
<time>2012-03-29T10:52:43.997Z</time>
</trkpt>
<trkpt lat="42.7610800" lon="-2.5341200">
<ele>1121.328735</ele>
<time>2012-03-29T10:52:58.002Z</time>
</trkpt>
<trkpt lat="42.7612900" lon="-2.5341100">
<ele>1124.925293</ele>
<time>2012-03-29T10:53:18.997Z</time>
</trkpt>
<trkpt lat="42.7614400" lon="-2.5341200">
<ele>1127.455200</ele>
<time>2012-03-29T10:53:30.998Z</time>
</trkpt>
<trkpt lat="42.7615800" lon="-2.5341200">
<ele>1128.643921</ele>
<time>2012-03-29T10:53:47.000Z</time>
</trkpt>
<trkpt lat="42.7617500" lon="-2.5341100">
<ele>1131.387085</ele>
<time>2012-03-29T10:54:01.999Z</time>
</trkpt>
<trkpt lat="42.7618500" lon="-2.5341100">
<ele>1132.850098</ele>
<time>2012-03-29T10:54:14.000Z</time>
</trkpt>
<trkpt lat="42.7619400" lon="-2.5341100">
<ele>1133.398804</ele>
<time>2012-03-29T10:54:26.001Z</time>
</trkpt>
<trkpt lat="42.7619800" lon="-2.5341000">
<ele>1133.825439</ele>
<time>2012-03-29T10:54:30.001Z</time>
</trkpt>
<trkpt lat="42.7620100" lon="-2.5341000">
<ele>1134.130249</ele>
<time>2012-03-29T10:54:31.997Z</time>
</trkpt>
<trkpt lat="42.7621300" lon="-2.5341500">
<ele>1135.319092</ele>
<time>2012-03-29T10:54:45.000Z</time>
</trkpt>
<trkpt lat="42.7621600" lon="-2.5341600">
<ele>1135.349487</ele>
<time>2012-03-29T10:54:47.998Z</time>
</trkpt>
<trkpt lat="42.7622900" lon="-2.5341800">
<ele>1135.806641</ele>
<time>2012-03-29T10:55:02.004Z</time>
</trkpt>
<trkpt lat="42.7623800" lon="-2.5342100">
<ele>1135.715332</ele>
<time>2012-03-29T10:55:16.000Z</time>
</trkpt>
<trkpt lat="42.7624200" lon="-2.5341800">
<ele>1136.020142</ele>
<time>2012-03-29T10:55:29.004Z</time>
</trkpt>
<trkpt lat="42.7625900" lon="-2.5341600">
<ele>1136.416260</ele>
<time>2012-03-29T10:55:44.003Z</time>
</trkpt>
<trkpt lat="42.7627400" lon="-2.5341100">
<ele>1137.239258</ele>
<time>2012-03-29T10:55:55.001Z</time>
</trkpt>
<trkpt lat="42.7628500" lon="-2.5340800">
<ele>1137.696533</ele>
<time>2012-03-29T10:56:04.004Z</time>
</trkpt>
<trkpt lat="42.7630400" lon="-2.5340100">
<ele>1138.488892</ele>
<time>2012-03-29T10:56:20.999Z</time>
</trkpt>
<trkpt lat="42.7631800" lon="-2.5339600">
<ele>1139.464233</ele>
<time>2012-03-29T10:56:34.996Z</time>
</trkpt>
<trkpt lat="42.7633200" lon="-2.5339600">
<ele>1140.835938</ele>
<time>2012-03-29T10:56:50.997Z</time>
</trkpt>
<trkpt lat="42.7634400" lon="-2.5340200">
<ele>1141.811279</ele>
<time>2012-03-29T10:57:05.003Z</time>
</trkpt>
<trkpt lat="42.7635400" lon="-2.5340600">
<ele>1143.640137</ele>
<time>2012-03-29T10:57:14.999Z</time>
</trkpt>
<trkpt lat="42.7636900" lon="-2.5340900">
<ele>1144.981201</ele>
<time>2012-03-29T10:57:31.000Z</time>
</trkpt>
<trkpt lat="42.7637300" lon="-2.5340800">
<ele>1145.072632</ele>
<time>2012-03-29T10:57:36.003Z</time>
</trkpt>
<trkpt lat="42.7637600" lon="-2.5340600">
<ele>1145.072632</ele>
<time>2012-03-29T10:57:39.001Z</time>
</trkpt>
<trkpt lat="42.7638200" lon="-2.5340500">
<ele>1145.011719</ele>
<time>2012-03-29T10:57:44.997Z</time>
</trkpt>
<trkpt lat="42.7638700" lon="-2.5339900">
<ele>1144.432495</ele>
<time>2012-03-29T10:57:59.996Z</time>
</trkpt>
<trkpt lat="42.7639600" lon="-2.5340000">
<ele>1144.036255</ele>
<time>2012-03-29T10:58:17.000Z</time>
</trkpt>
<trkpt lat="42.7640000" lon="-2.5340000">
<ele>1143.792480</ele>
<time>2012-03-29T10:58:35.999Z</time>
</trkpt>
<trkpt lat="42.7640200" lon="-2.5340100">
<ele>1143.883911</ele>
<time>2012-03-29T10:58:38.004Z</time>
</trkpt>
<trkpt lat="42.7640700" lon="-2.5340400">
<ele>1143.944946</ele>
<time>2012-03-29T10:58:42.004Z</time>
</trkpt>
<trkpt lat="42.7641400" lon="-2.5340800">
<ele>1144.097290</ele>
<time>2012-03-29T10:58:48.000Z</time>
</trkpt>
<trkpt lat="42.7642300" lon="-2.5341900">
<ele>1146.444214</ele>
<time>2012-03-29T10:59:01.003Z</time>
</trkpt>
<trkpt lat="42.7643100" lon="-2.5342900">
<ele>1147.876831</ele>
<time>2012-03-29T10:59:13.004Z</time>
</trkpt>
<trkpt lat="42.7643500" lon="-2.5343600">
<ele>1149.461792</ele>
<time>2012-03-29T10:59:25.999Z</time>
</trkpt>
<trkpt lat="42.7644100" lon="-2.5344600">
<ele>1151.625854</ele>
<time>2012-03-29T10:59:38.000Z</time>
</trkpt>
<trkpt lat="42.7644400" lon="-2.5345800">
<ele>1154.033691</ele>
<time>2012-03-29T10:59:56.999Z</time>
</trkpt>
<trkpt lat="42.7644800" lon="-2.5347600">
<ele>1154.917725</ele>
<time>2012-03-29T11:00:11.998Z</time>
</trkpt>
<trkpt lat="42.7645200" lon="-2.5349400">
<ele>1156.502686</ele>
<time>2012-03-29T11:00:26.997Z</time>
</trkpt>
<trkpt lat="42.7645300" lon="-2.5351200">
<ele>1159.154419</ele>
<time>2012-03-29T11:00:40.000Z</time>
</trkpt>
<trkpt lat="42.7645500" lon="-2.5352100">
<ele>1159.123901</ele>
<time>2012-03-29T11:00:48.001Z</time>
</trkpt>
<trkpt lat="42.7645800" lon="-2.5352800">
<ele>1157.996094</ele>
<time>2012-03-29T11:00:53.004Z</time>
</trkpt>
<trkpt lat="42.7646100" lon="-2.5354900">
<ele>1161.867065</ele>
<time>2012-03-29T11:01:08.996Z</time>
</trkpt>
<trkpt lat="42.7647000" lon="-2.5355900">
<ele>1160.465088</ele>
<time>2012-03-29T11:01:24.997Z</time>
</trkpt>
<trkpt lat="42.7647500" lon="-2.5356900">
<ele>1160.952637</ele>
<time>2012-03-29T11:01:34.000Z</time>
</trkpt>
<trkpt lat="42.7647700" lon="-2.5357000">
<ele>1160.129761</ele>
<time>2012-03-29T11:01:35.996Z</time>
</trkpt>
<trkpt lat="42.7647900" lon="-2.5357500">
<ele>1161.623291</ele>
<time>2012-03-29T11:01:39.996Z</time>
</trkpt>
<trkpt lat="42.7648100" lon="-2.5358000">
<ele>1163.238647</ele>
<time>2012-03-29T11:01:59.998Z</time>
</trkpt>
<trkpt lat="42.7648400" lon="-2.5358300">
<ele>1163.391113</ele>
<time>2012-03-29T11:02:02.996Z</time>
</trkpt>
<trkpt lat="42.7648700" lon="-2.5358800">
<ele>1164.671265</ele>
<time>2012-03-29T11:02:10.003Z</time>
</trkpt>
<trkpt lat="42.7649100" lon="-2.5359400">
<ele>1166.621948</ele>
<time>2012-03-29T11:02:20.000Z</time>
</trkpt>
<trkpt lat="42.7649400" lon="-2.5360500">
<ele>1170.035767</ele>
<time>2012-03-29T11:02:29.003Z</time>
</trkpt>
<trkpt lat="42.7650200" lon="-2.5361500">
<ele>1171.041626</ele>
<time>2012-03-29T11:02:40.001Z</time>
</trkpt>
<trkpt lat="42.7650600" lon="-2.5362000">
<ele>1170.828247</ele>
<time>2012-03-29T11:02:45.997Z</time>
</trkpt>
<trkpt lat="42.7651700" lon="-2.5363000">
<ele>1170.584351</ele>
<time>2012-03-29T11:02:59.001Z</time>
</trkpt>
<trkpt lat="42.7652600" lon="-2.5364000">
<ele>1170.218628</ele>
<time>2012-03-29T11:03:09.999Z</time>
</trkpt>
<trkpt lat="42.7653400" lon="-2.5365100">
<ele>1171.102539</ele>
<time>2012-03-29T11:03:23.003Z</time>
</trkpt>
<trkpt lat="42.7654100" lon="-2.5366300">
<ele>1171.011108</ele>
<time>2012-03-29T11:03:31.997Z</time>
</trkpt>
<trkpt lat="42.7654100" lon="-2.5366800">
<ele>1171.559692</ele>
<time>2012-03-29T11:03:35.997Z</time>
</trkpt>
<trkpt lat="42.7654900" lon="-2.5367800">
<ele>1169.944336</ele>
<time>2012-03-29T11:03:49.000Z</time>
</trkpt>
<trkpt lat="42.7655900" lon="-2.5369800">
<ele>1169.883301</ele>
<time>2012-03-29T11:04:03.999Z</time>
</trkpt>
<trkpt lat="42.7657400" lon="-2.5370900">
<ele>1168.145996</ele>
<time>2012-03-29T11:04:17.996Z</time>
</trkpt>
<trkpt lat="42.7658300" lon="-2.5371900">
<ele>1169.883301</ele>
<time>2012-03-29T11:04:28.001Z</time>
</trkpt>
<trkpt lat="42.7659100" lon="-2.5373400">
<ele>1170.462524</ele>
<time>2012-03-29T11:04:43.000Z</time>
</trkpt>
<trkpt lat="42.7659900" lon="-2.5374100">
<ele>1170.950195</ele>
<time>2012-03-29T11:04:59.002Z</time>
</trkpt>
<trkpt lat="42.7660300" lon="-2.5374400">
<ele>1170.919678</ele>
<time>2012-03-29T11:05:03.002Z</time>
</trkpt>
<trkpt lat="42.7660600" lon="-2.5374800">
<ele>1171.285400</ele>
<time>2012-03-29T11:05:07.002Z</time>
</trkpt>
<trkpt lat="42.7660800" lon="-2.5375200">
<ele>1171.407349</ele>
<time>2012-03-29T11:05:11.003Z</time>
</trkpt>
<trkpt lat="42.7661600" lon="-2.5376200">
<ele>1171.133057</ele>
<time>2012-03-29T11:05:22.001Z</time>
</trkpt>
<trkpt lat="42.7661900" lon="-2.5376400">
<ele>1171.011108</ele>
<time>2012-03-29T11:05:38.996Z</time>
</trkpt>
<trkpt lat="42.7662100" lon="-2.5377000">
<ele>1171.041626</ele>
<time>2012-03-29T11:05:47.999Z</time>
</trkpt>
<trkpt lat="42.7662300" lon="-2.5378200">
<ele>1170.828247</ele>
<time>2012-03-29T11:05:54.004Z</time>
</trkpt>
<trkpt lat="42.7662300" lon="-2.5379100">
<ele>1170.401489</ele>
<time>2012-03-29T11:06:01.996Z</time>
</trkpt>
<trkpt lat="42.7661200" lon="-2.5379200">
<ele>1170.462524</ele>
<time>2012-03-29T11:06:12.001Z</time>
</trkpt>
<trkpt lat="42.7660700" lon="-2.5379300">
<ele>1170.371094</ele>
<time>2012-03-29T11:06:17.997Z</time>
</trkpt>
<trkpt lat="42.7659700" lon="-2.5379100">
<ele>1169.944336</ele>
<time>2012-03-29T11:06:32.996Z</time>
</trkpt>
<trkpt lat="42.7659400" lon="-2.5378200">
<ele>1170.066284</ele>
<time>2012-03-29T11:07:03.996Z</time>
</trkpt>
<trkpt lat="42.7658900" lon="-2.5377200">
<ele>1170.614868</ele>
<time>2012-03-29T11:07:11.997Z</time>
</trkpt>
<trkpt lat="42.7658600" lon="-2.5376700">
<ele>1170.157715</ele>
<time>2012-03-29T11:07:15.997Z</time>
</trkpt>
<trkpt lat="42.7657300" lon="-2.5376100">
<ele>1168.633667</ele>
<time>2012-03-29T11:07:31.999Z</time>
</trkpt>
<trkpt lat="42.7657300" lon="-2.5376200">
<ele>1168.664185</ele>
<time>2012-03-29T11:07:34.997Z</time>
</trkpt>
<trkpt lat="42.7656000" lon="-2.5377100">
<ele>1166.439087</ele>
<time>2012-03-29T11:07:48.000Z</time>
</trkpt>
<trkpt lat="42.7654200" lon="-2.5377500">
<ele>1164.518921</ele>
<time>2012-03-29T11:08:02.999Z</time>
</trkpt>
<trkpt lat="42.7654100" lon="-2.5377700">
<ele>1164.396973</ele>
<time>2012-03-29T11:08:20.003Z</time>
</trkpt>
<trkpt lat="42.7652700" lon="-2.5377900">
<ele>1164.244507</ele>
<time>2012-03-29T11:09:44.001Z</time>
</trkpt>
<trkpt lat="42.7651700" lon="-2.5378300">
<ele>1164.366455</ele>
<time>2012-03-29T11:09:53.004Z</time>
</trkpt>
<trkpt lat="42.7650800" lon="-2.5378800">
<ele>1165.219849</ele>
<time>2012-03-29T11:10:01.998Z</time>
</trkpt>
<trkpt lat="42.7650800" lon="-2.5379200">
<ele>1164.823730</ele>
<time>2012-03-29T11:10:19.001Z</time>
</trkpt>
<trkpt lat="42.7650500" lon="-2.5378900">
<ele>1165.494263</ele>
<time>2012-03-29T11:10:23.002Z</time>
</trkpt>
<trkpt lat="42.7649900" lon="-2.5379700">
<ele>1165.494263</ele>
<time>2012-03-29T11:10:30.000Z</time>
</trkpt>
<trkpt lat="42.7649600" lon="-2.5381100">
<ele>1164.610229</ele>
<time>2012-03-29T11:10:44.999Z</time>
</trkpt>
<trkpt lat="42.7649100" lon="-2.5381100">
<ele>1164.823730</ele>
<time>2012-03-29T11:11:02.003Z</time>
</trkpt>
<trkpt lat="42.7648800" lon="-2.5382800">
<ele>1163.391113</ele>
<time>2012-03-29T11:11:22.004Z</time>
</trkpt>
<trkpt lat="42.7647600" lon="-2.5384600">
<ele>1161.836670</ele>
<time>2012-03-29T11:41:04.998Z</time>
</trkpt>
<trkpt lat="42.7646300" lon="-2.5386400">
<ele>1160.678345</ele>
<time>2012-03-29T11:41:23.004Z</time>
</trkpt>
<trkpt lat="42.7644700" lon="-2.5387900">
<ele>1160.251709</ele>
<time>2012-03-29T11:41:38.996Z</time>
</trkpt>
<trkpt lat="42.7644600" lon="-2.5388000">
<ele>1160.129761</ele>
<time>2012-03-29T11:41:39.998Z</time>
</trkpt>
<trkpt lat="42.7643500" lon="-2.5389500">
<ele>1158.849609</ele>
<time>2012-03-29T11:41:53.002Z</time>
</trkpt>
<trkpt lat="42.7642600" lon="-2.5391500">
<ele>1156.533081</ele>
<time>2012-03-29T11:42:06.998Z</time>
</trkpt>
<trkpt lat="42.7642500" lon="-2.5391700">
<ele>1156.197876</ele>
<time>2012-03-29T11:42:09.003Z</time>
</trkpt>
<trkpt lat="42.7641700" lon="-2.5393000">
<ele>1156.075928</ele>
<time>2012-03-29T11:42:17.004Z</time>
</trkpt>
<trkpt lat="42.7641100" lon="-2.5395000">
<ele>1156.075928</ele>
<time>2012-03-29T11:42:32.003Z</time>
</trkpt>
<trkpt lat="42.7639300" lon="-2.5396100">
<ele>1155.740601</ele>
<time>2012-03-29T11:42:48.997Z</time>
</trkpt>
<trkpt lat="42.7639000" lon="-2.5396000">
<ele>1155.527344</ele>
<time>2012-03-29T11:42:52.998Z</time>
</trkpt>
<trkpt lat="42.7637900" lon="-2.5396700">
<ele>1153.241333</ele>
<time>2012-03-29T11:43:06.001Z</time>
</trkpt>
<trkpt lat="42.7636900" lon="-2.5397800">
<ele>1151.016235</ele>
<time>2012-03-29T11:43:27.998Z</time>
</trkpt>
<trkpt lat="42.7635900" lon="-2.5398900">
<ele>1149.827515</ele>
<time>2012-03-29T11:43:38.997Z</time>
</trkpt>
<trkpt lat="42.7635100" lon="-2.5400300">
<ele>1148.943604</ele>
<time>2012-03-29T11:43:48.000Z</time>
</trkpt>
<trkpt lat="42.7634000" lon="-2.5401400">
<ele>1147.785400</ele>
<time>2012-03-29T11:44:00.001Z</time>
</trkpt>
<trkpt lat="42.7633000" lon="-2.5403000">
<ele>1145.194580</ele>
<time>2012-03-29T11:44:17.998Z</time>
</trkpt>
<trkpt lat="42.7632400" lon="-2.5404700">
<ele>1141.841797</ele>
<time>2012-03-29T11:44:32.004Z</time>
</trkpt>
<trkpt lat="42.7632000" lon="-2.5405700">
<ele>1139.037598</ele>
<time>2012-03-29T11:44:46.000Z</time>
</trkpt>
<trkpt lat="42.7630700" lon="-2.5408000">
<ele>1131.783325</ele>
<time>2012-03-29T11:45:02.002Z</time>
</trkpt>
<trkpt lat="42.7630200" lon="-2.5409000">
<ele>1129.832642</ele>
<time>2012-03-29T11:45:10.996Z</time>
</trkpt>
<trkpt lat="42.7629500" lon="-2.5410700">
<ele>1127.973389</ele>
<time>2012-03-29T11:45:22.003Z</time>
</trkpt>
<trkpt lat="42.7628800" lon="-2.5411800">
<ele>1125.717896</ele>
<time>2012-03-29T11:45:36.000Z</time>
</trkpt>
<trkpt lat="42.7628500" lon="-2.5412700">
<ele>1125.077759</ele>
<time>2012-03-29T11:45:48.001Z</time>
</trkpt>
<trkpt lat="42.7628200" lon="-2.5413100">
<ele>1124.285278</ele>
<time>2012-03-29T11:46:00.002Z</time>
</trkpt>
<trkpt lat="42.7627600" lon="-2.5414700">
<ele>1122.730835</ele>
<time>2012-03-29T11:46:16.003Z</time>
</trkpt>
<trkpt lat="42.7627300" lon="-2.5417500">
<ele>1121.176270</ele>
<time>2012-03-29T11:46:36.998Z</time>
</trkpt>
<trkpt lat="42.7627400" lon="-2.5417800">
<ele>1121.084961</ele>
<time>2012-03-29T11:46:39.003Z</time>
</trkpt>
<trkpt lat="42.7627400" lon="-2.5419700">
<ele>1120.841064</ele>
<time>2012-03-29T11:46:47.997Z</time>
</trkpt>
<trkpt lat="42.7627500" lon="-2.5421500">
<ele>1119.378052</ele>
<time>2012-03-29T11:47:02.003Z</time>
</trkpt>
<trkpt lat="42.7627600" lon="-2.5423500">
<ele>1118.341675</ele>
<time>2012-03-29T11:47:15.999Z</time>
</trkpt>
<trkpt lat="42.7627700" lon="-2.5425700">
<ele>1116.573853</ele>
<time>2012-03-29T11:47:29.003Z</time>
</trkpt>
<trkpt lat="42.7627700" lon="-2.5427300">
<ele>1114.592651</ele>
<time>2012-03-29T11:47:48.002Z</time>
</trkpt>
<trkpt lat="42.7627900" lon="-2.5428100">
<ele>1112.885742</ele>
<time>2012-03-29T11:48:08.004Z</time>
</trkpt>
<trkpt lat="42.7628600" lon="-2.5431800">
<ele>1107.765137</ele>
<time>2012-03-29T11:48:42.002Z</time>
</trkpt>
<trkpt lat="42.7628700" lon="-2.5432400">
<ele>1107.246948</ele>
<time>2012-03-29T11:48:45.000Z</time>
</trkpt>
<trkpt lat="42.7629200" lon="-2.5434100">
<ele>1105.021851</ele>
<time>2012-03-29T11:48:59.999Z</time>
</trkpt>
<trkpt lat="42.7630100" lon="-2.5435000">
<ele>1103.162598</ele>
<time>2012-03-29T11:49:14.998Z</time>
</trkpt>
<trkpt lat="42.7630600" lon="-2.5436500">
<ele>1100.571899</ele>
<time>2012-03-29T11:49:25.997Z</time>
</trkpt>
<trkpt lat="42.7631100" lon="-2.5438400">
<ele>1099.474487</ele>
<time>2012-03-29T11:49:40.002Z</time>
</trkpt>
<trkpt lat="42.7631700" lon="-2.5439700">
<ele>1097.920166</ele>
<time>2012-03-29T11:49:48.996Z</time>
</trkpt>
<trkpt lat="42.7632000" lon="-2.5441300">
<ele>1096.822754</ele>
<time>2012-03-29T11:50:03.002Z</time>
</trkpt>
<trkpt lat="42.7632100" lon="-2.5441600">
<ele>1096.670410</ele>
<time>2012-03-29T11:50:04.998Z</time>
</trkpt>
<trkpt lat="42.7632400" lon="-2.5444400">
<ele>1095.999878</ele>
<time>2012-03-29T11:50:20.999Z</time>
</trkpt>
<trkpt lat="42.7632500" lon="-2.5446100">
<ele>1095.938965</ele>
<time>2012-03-29T11:50:34.002Z</time>
</trkpt>
<trkpt lat="42.7632400" lon="-2.5446300">
<ele>1095.908447</ele>
<time>2012-03-29T11:50:37.000Z</time>
</trkpt>
<trkpt lat="42.7632400" lon="-2.5446800">
<ele>1095.969360</ele>
<time>2012-03-29T11:50:41.001Z</time>
</trkpt>
<trkpt lat="42.7632300" lon="-2.5447000">
<ele>1096.060791</ele>
<time>2012-03-29T11:50:43.999Z</time>
</trkpt>
<trkpt lat="42.7632300" lon="-2.5448700">
<ele>1097.584839</ele>
<time>2012-03-29T11:50:54.997Z</time>
</trkpt>
<trkpt lat="42.7631800" lon="-2.5450500">
<ele>1098.986938</ele>
<time>2012-03-29T11:51:08.001Z</time>
</trkpt>
<trkpt lat="42.7631600" lon="-2.5451400">
<ele>1099.870850</ele>
<time>2012-03-29T11:51:14.999Z</time>
</trkpt>
<trkpt lat="42.7631200" lon="-2.5453000">
<ele>1100.815674</ele>
<time>2012-03-29T11:51:27.000Z</time>
</trkpt>
<trkpt lat="42.7631000" lon="-2.5454600">
<ele>1100.815674</ele>
<time>2012-03-29T11:51:40.003Z</time>
</trkpt>
<trkpt lat="42.7630800" lon="-2.5456500">
<ele>1099.169800</ele>
<time>2012-03-29T11:51:55.996Z</time>
</trkpt>
<trkpt lat="42.7630900" lon="-2.5456600">
<ele>1099.047852</ele>
<time>2012-03-29T11:51:59.996Z</time>
</trkpt>
<trkpt lat="42.7630600" lon="-2.5457800">
<ele>1098.346802</ele>
<time>2012-03-29T11:52:06.001Z</time>
</trkpt>
<trkpt lat="42.7630200" lon="-2.5460000">
<ele>1096.335083</ele>
<time>2012-03-29T11:52:19.004Z</time>
</trkpt>
<trkpt lat="42.7630200" lon="-2.5460500">
<ele>1096.030273</ele>
<time>2012-03-29T11:52:22.002Z</time>
</trkpt>
<trkpt lat="42.7629800" lon="-2.5462500">
<ele>1096.121704</ele>
<time>2012-03-29T11:52:34.997Z</time>
</trkpt>
<trkpt lat="42.7629500" lon="-2.5464400">
<ele>1096.030273</ele>
<time>2012-03-29T11:52:49.002Z</time>
</trkpt>
<trkpt lat="42.7629600" lon="-2.5466400">
<ele>1097.310547</ele>
<time>2012-03-29T11:53:01.997Z</time>
</trkpt>
<trkpt lat="42.7629700" lon="-2.5466500">
<ele>1097.401855</ele>
<time>2012-03-29T11:53:02.999Z</time>
</trkpt>
<trkpt lat="42.7629400" lon="-2.5467600">
<ele>1097.828613</ele>
<time>2012-03-29T11:53:09.004Z</time>
</trkpt>
<trkpt lat="42.7629500" lon="-2.5468900">
<ele>1098.346802</ele>
<time>2012-03-29T11:53:16.996Z</time>
</trkpt>
<trkpt lat="42.7629700" lon="-2.5469900">
<ele>1098.499146</ele>
<time>2012-03-29T11:53:23.001Z</time>
</trkpt>
<trkpt lat="42.7629700" lon="-2.5470300">
<ele>1098.255371</ele>
<time>2012-03-29T11:53:24.996Z</time>
</trkpt>
<trkpt lat="42.7629400" lon="-2.5470500">
<ele>1098.041992</ele>
<time>2012-03-29T11:53:29.999Z</time>
</trkpt>
<trkpt lat="42.7629000" lon="-2.5472500">
<ele>1096.060791</ele>
<time>2012-03-29T11:53:46.000Z</time>
</trkpt>
<trkpt lat="42.7629100" lon="-2.5474800">
<ele>1091.549805</ele>
<time>2012-03-29T11:54:03.004Z</time>
</trkpt>
<trkpt lat="42.7629200" lon="-2.5476700">
<ele>1087.831177</ele>
<time>2012-03-29T11:54:18.003Z</time>
</trkpt>
<trkpt lat="42.7630200" lon="-2.5478800">
<ele>1083.746948</ele>
<time>2012-03-29T11:54:33.002Z</time>
</trkpt>
<trkpt lat="42.7630200" lon="-2.5479000">
<ele>1083.381104</ele>
<time>2012-03-29T11:54:34.998Z</time>
</trkpt>
<trkpt lat="42.7630000" lon="-2.5481400">
<ele>1079.449219</ele>
<time>2012-03-29T11:54:50.999Z</time>
</trkpt>
<trkpt lat="42.7629400" lon="-2.5483300">
<ele>1076.431763</ele>
<time>2012-03-29T11:55:08.003Z</time>
</trkpt>
<trkpt lat="42.7629100" lon="-2.5483600">
<ele>1075.883057</ele>
<time>2012-03-29T11:55:11.001Z</time>
</trkpt>
<trkpt lat="42.7628400" lon="-2.5486200">
<ele>1073.749512</ele>
<time>2012-03-29T11:55:24.004Z</time>
</trkpt>
<trkpt lat="42.7627600" lon="-2.5487500">
<ele>1073.718994</ele>
<time>2012-03-29T11:55:36.998Z</time>
</trkpt>
<trkpt lat="42.7626800" lon="-2.5488700">
<ele>1074.145752</ele>
<time>2012-03-29T11:55:55.998Z</time>
</trkpt>
<trkpt lat="42.7626900" lon="-2.5490700">
<ele>1075.578247</ele>
<time>2012-03-29T11:56:15.999Z</time>
</trkpt>
<trkpt lat="42.7625900" lon="-2.5493500">
<ele>1079.997803</ele>
<time>2012-03-29T11:56:37.997Z</time>
</trkpt>
<trkpt lat="42.7624400" lon="-2.5494800">
<ele>1082.466675</ele>
<time>2012-03-29T11:56:59.001Z</time>
</trkpt>
<trkpt lat="42.7623500" lon="-2.5495800">
<ele>1084.874634</ele>
<time>2012-03-29T11:57:19.002Z</time>
</trkpt>
<trkpt lat="42.7622200" lon="-2.5496800">
<ele>1087.495850</ele>
<time>2012-03-29T11:57:36.999Z</time>
</trkpt>
<trkpt lat="42.7621900" lon="-2.5498300">
<ele>1089.019897</ele>
<time>2012-03-29T11:57:47.998Z</time>
</trkpt>
<trkpt lat="42.7622700" lon="-2.5500300">
<ele>1090.574341</ele>
<time>2012-03-29T11:58:03.999Z</time>
</trkpt>
<trkpt lat="42.7622900" lon="-2.5500400">
<ele>1090.696289</ele>
<time>2012-03-29T11:58:08.000Z</time>
</trkpt>
<trkpt lat="42.7623300" lon="-2.5500800">
<ele>1091.610718</ele>
<time>2012-03-29T11:58:12.000Z</time>
</trkpt>
<trkpt lat="42.7624700" lon="-2.5502600">
<ele>1093.652954</ele>
<time>2012-03-29T11:58:29.997Z</time>
</trkpt>
<trkpt lat="42.7625700" lon="-2.5504800">
<ele>1095.755981</ele>
<time>2012-03-29T11:58:51.001Z</time>
</trkpt>
<trkpt lat="42.7626400" lon="-2.5506400">
<ele>1097.706665</ele>
<time>2012-03-29T11:59:08.998Z</time>
</trkpt>
<trkpt lat="42.7626000" lon="-2.5508400">
<ele>1099.413574</ele>
<time>2012-03-29T11:59:24.999Z</time>
</trkpt>
<trkpt lat="42.7624000" lon="-2.5509800">
<ele>1105.143799</ele>
<time>2012-03-29T11:59:49.001Z</time>
</trkpt>
<trkpt lat="42.7622600" lon="-2.5510100">
<ele>1108.069946</ele>
<time>2012-03-29T12:00:01.996Z</time>
</trkpt>
<trkpt lat="42.7622500" lon="-2.5510100">
<ele>1108.069946</ele>
<time>2012-03-29T12:00:02.998Z</time>
</trkpt>
<trkpt lat="42.7621100" lon="-2.5511000">
<ele>1111.453247</ele>
<time>2012-03-29T12:00:18.999Z</time>
</trkpt>
<trkpt lat="42.7620100" lon="-2.5512200">
<ele>1114.348755</ele>
<time>2012-03-29T12:00:33.998Z</time>
</trkpt>
<trkpt lat="42.7619400" lon="-2.5513700">
<ele>1116.878662</ele>
<time>2012-03-29T12:00:51.002Z</time>
</trkpt>
<trkpt lat="42.7619000" lon="-2.5514500">
<ele>1116.909058</ele>
<time>2012-03-29T12:01:04.999Z</time>
</trkpt>
<trkpt lat="42.7617800" lon="-2.5515600">
<ele>1115.354614</ele>
<time>2012-03-29T12:01:31.999Z</time>
</trkpt>
<trkpt lat="42.7617100" lon="-2.5517500">
<ele>1114.287842</ele>
<time>2012-03-29T12:01:46.004Z</time>
</trkpt>
<trkpt lat="42.7615700" lon="-2.5520400">
<ele>1115.994751</ele>
<time>2012-03-29T12:02:05.997Z</time>
</trkpt>
<trkpt lat="42.7615400" lon="-2.5520600">
<ele>1115.842285</ele>
<time>2012-03-29T12:02:09.004Z</time>
</trkpt>
<trkpt lat="42.7615200" lon="-2.5521300">
<ele>1116.055664</ele>
<time>2012-03-29T12:02:15.000Z</time>
</trkpt>
<trkpt lat="42.7615000" lon="-2.5521900">
<ele>1116.634766</ele>
<time>2012-03-29T12:02:16.996Z</time>
</trkpt>
<trkpt lat="42.7614700" lon="-2.5522200">
<ele>1117.061523</ele>
<time>2012-03-29T12:02:20.003Z</time>
</trkpt>
<trkpt lat="42.7614200" lon="-2.5524000">
<ele>1117.213867</ele>
<time>2012-03-29T12:02:31.001Z</time>
</trkpt>
<trkpt lat="42.7613800" lon="-2.5526300">
<ele>1117.762573</ele>
<time>2012-03-29T12:02:46.000Z</time>
</trkpt>
<trkpt lat="42.7614100" lon="-2.5528900">
<ele>1118.097900</ele>
<time>2012-03-29T12:10:57.003Z</time>
</trkpt>
<trkpt lat="42.7614500" lon="-2.5529500">
<ele>1118.494141</ele>
<time>2012-03-29T12:11:01.003Z</time>
</trkpt>
<trkpt lat="42.7615600" lon="-2.5532000">
<ele>1119.713257</ele>
<time>2012-03-29T12:11:23.001Z</time>
</trkpt>
<trkpt lat="42.7616800" lon="-2.5533800">
<ele>1121.054443</ele>
<time>2012-03-29T12:11:39.002Z</time>
</trkpt>
<trkpt lat="42.7617200" lon="-2.5534800">
<ele>1121.572510</ele>
<time>2012-03-29T12:11:44.998Z</time>
</trkpt>
<trkpt lat="42.7617600" lon="-2.5535400">
<ele>1121.603027</ele>
<time>2012-03-29T12:11:47.996Z</time>
</trkpt>
<trkpt lat="42.7618200" lon="-2.5536100">
<ele>1122.273560</ele>
<time>2012-03-29T12:11:54.001Z</time>
</trkpt>
<trkpt lat="42.7618700" lon="-2.5537400">
<ele>1122.304077</ele>
<time>2012-03-29T12:12:07.004Z</time>
</trkpt>
<trkpt lat="42.7618900" lon="-2.5538300">
<ele>1122.334595</ele>
<time>2012-03-29T12:12:13.000Z</time>
</trkpt>
<trkpt lat="42.7619200" lon="-2.5539900">
<ele>1123.584229</ele>
<time>2012-03-29T12:12:27.999Z</time>
</trkpt>
<trkpt lat="42.7618000" lon="-2.5542600">
<ele>1124.529053</ele>
<time>2012-03-29T12:12:50.999Z</time>
</trkpt>
<trkpt lat="42.7617900" lon="-2.5545300">
<ele>1127.394287</ele>
<time>2012-03-29T12:13:09.998Z</time>
</trkpt>
<trkpt lat="42.7617900" lon="-2.5548100">
<ele>1128.643921</ele>
<time>2012-03-29T12:13:30.000Z</time>
</trkpt>
<trkpt lat="42.7617600" lon="-2.5550100">
<ele>1129.405884</ele>
<time>2012-03-29T12:13:44.999Z</time>
</trkpt>
<trkpt lat="42.7617800" lon="-2.5551800">
<ele>1129.954590</ele>
<time>2012-03-29T12:14:02.003Z</time>
</trkpt>
<trkpt lat="42.7617900" lon="-2.5552700">
<ele>1129.680298</ele>
<time>2012-03-29T12:14:09.001Z</time>
</trkpt>
<trkpt lat="42.7617800" lon="-2.5555400">
<ele>1130.929932</ele>
<time>2012-03-29T12:14:29.996Z</time>
</trkpt>
<trkpt lat="42.7617600" lon="-2.5556600">
<ele>1131.813843</ele>
<time>2012-03-29T12:14:48.002Z</time>
</trkpt>
<trkpt lat="42.7617300" lon="-2.5559300">
<ele>1134.374146</ele>
<time>2012-03-29T12:15:07.001Z</time>
</trkpt>
<trkpt lat="42.7617000" lon="-2.5561300">
<ele>1136.020142</ele>
<time>2012-03-29T12:15:27.996Z</time>
</trkpt>
<trkpt lat="42.7617000" lon="-2.5562500">
<ele>1136.568726</ele>
<time>2012-03-29T12:15:36.999Z</time>
</trkpt>
<trkpt lat="42.7617200" lon="-2.5563600">
<ele>1137.056396</ele>
<time>2012-03-29T12:15:46.002Z</time>
</trkpt>
<trkpt lat="42.7617300" lon="-2.5565500">
<ele>1138.092651</ele>
<time>2012-03-29T12:15:58.997Z</time>
</trkpt>
<trkpt lat="42.7617500" lon="-2.5566400">
<ele>1138.427979</ele>
<time>2012-03-29T12:16:12.000Z</time>
</trkpt>
<trkpt lat="42.7617400" lon="-2.5568300">
<ele>1138.336548</ele>
<time>2012-03-29T12:16:28.001Z</time>
</trkpt>
<trkpt lat="42.7617400" lon="-2.5570300">
<ele>1138.976685</ele>
<time>2012-03-29T12:16:40.996Z</time>
</trkpt>
<trkpt lat="42.7617400" lon="-2.5570900">
<ele>1139.098511</ele>
<time>2012-03-29T12:16:45.998Z</time>
</trkpt>
<trkpt lat="42.7616900" lon="-2.5572300">
<ele>1139.525269</ele>
<time>2012-03-29T12:16:56.004Z</time>
</trkpt>
<trkpt lat="42.7616600" lon="-2.5574000">
<ele>1140.439697</ele>
<time>2012-03-29T12:17:10.000Z</time>
</trkpt>
<trkpt lat="42.7616600" lon="-2.5574500">
<ele>1140.439697</ele>
<time>2012-03-29T12:17:14.001Z</time>
</trkpt>
<trkpt lat="42.7616700" lon="-2.5574800">
<ele>1140.317749</ele>
<time>2012-03-29T12:17:15.996Z</time>
</trkpt>
<trkpt lat="42.7616800" lon="-2.5575700">
<ele>1139.769043</ele>
<time>2012-03-29T12:17:22.001Z</time>
</trkpt>
<trkpt lat="42.7615900" lon="-2.5576200">
<ele>1140.104370</ele>
<time>2012-03-29T12:17:29.000Z</time>
</trkpt>
<trkpt lat="42.7615500" lon="-2.5576200">
<ele>1140.561646</ele>
<time>2012-03-29T12:17:33.000Z</time>
</trkpt>
<trkpt lat="42.7614200" lon="-2.5576300">
<ele>1140.988281</ele>
<time>2012-03-29T12:17:43.999Z</time>
</trkpt>
<trkpt lat="42.7613600" lon="-2.5576100">
<ele>1140.988281</ele>
<time>2012-03-29T12:17:47.999Z</time>
</trkpt>
<trkpt lat="42.7613300" lon="-2.5576200">
<ele>1140.988281</ele>
<time>2012-03-29T12:17:50.004Z</time>
</trkpt>
<trkpt lat="42.7612100" lon="-2.5575800">
<ele>1140.988281</ele>
<time>2012-03-29T12:18:04.000Z</time>
</trkpt>
<trkpt lat="42.7611800" lon="-2.5575700">
<ele>1140.988281</ele>
<time>2012-03-29T12:18:20.002Z</time>
</trkpt>
<trkpt lat="42.7611700" lon="-2.5576100">
<ele>1140.988281</ele>
<time>2012-03-29T12:18:33.998Z</time>
</trkpt>
<trkpt lat="42.7611700" lon="-2.5576100">
<ele>1140.988281</ele>
<time>2012-03-29T12:18:35.001Z</time>
</trkpt>
<trkpt lat="42.7611500" lon="-2.5578100">
<ele>1140.988281</ele>
<time>2012-03-29T12:18:47.002Z</time>
</trkpt>
<trkpt lat="42.7611500" lon="-2.5578900">
<ele>1140.988281</ele>
<time>2012-03-29T12:18:52.998Z</time>
</trkpt>
<trkpt lat="42.7611000" lon="-2.5580300">
<ele>1140.988281</ele>
<time>2012-03-29T12:18:59.003Z</time>
</trkpt>
<trkpt lat="42.7611000" lon="-2.5581100">
<ele>1140.988281</ele>
<time>2012-03-29T12:19:03.996Z</time>
</trkpt>
<trkpt lat="42.7610400" lon="-2.5583500">
<ele>1140.988281</ele>
<time>2012-03-29T12:19:19.004Z</time>
</trkpt>
<trkpt lat="42.7610400" lon="-2.5583700">
<ele>1140.988281</ele>
<time>2012-03-29T12:19:19.998Z</time>
</trkpt>
<trkpt lat="42.7609600" lon="-2.5584600">
<ele>1140.988281</ele>
<time>2012-03-29T12:19:29.001Z</time>
</trkpt>
<trkpt lat="42.7609400" lon="-2.5585300">
<ele>1140.988281</ele>
<time>2012-03-29T12:19:34.003Z</time>
</trkpt>
<trkpt lat="42.7609000" lon="-2.5587400">
<ele>1141.018799</ele>
<time>2012-03-29T12:19:46.998Z</time>
</trkpt>
<trkpt lat="42.7608800" lon="-2.5587800">
<ele>1140.988281</ele>
<time>2012-03-29T12:19:50.998Z</time>
</trkpt>
<trkpt lat="42.7608400" lon="-2.5588600">
<ele>1141.018799</ele>
<time>2012-03-29T12:19:56.001Z</time>
</trkpt>
<trkpt lat="42.7608000" lon="-2.5589500">
<ele>1141.018799</ele>
<time>2012-03-29T12:20:01.997Z</time>
</trkpt>
<trkpt lat="42.7607700" lon="-2.5590700">
<ele>1141.140747</ele>
<time>2012-03-29T12:20:13.004Z</time>
</trkpt>
<trkpt lat="42.7607700" lon="-2.5591600">
<ele>1140.988281</ele>
<time>2012-03-29T12:20:17.998Z</time>
</trkpt>
<trkpt lat="42.7607100" lon="-2.5593800">
<ele>1138.946167</ele>
<time>2012-03-29T12:20:32.004Z</time>
</trkpt>
<trkpt lat="42.7607100" lon="-2.5594500">
<ele>1138.885254</ele>
<time>2012-03-29T12:20:36.997Z</time>
</trkpt>
<trkpt lat="42.7606800" lon="-2.5596000">
<ele>1139.007080</ele>
<time>2012-03-29T12:20:47.003Z</time>
</trkpt>
<trkpt lat="42.7607100" lon="-2.5597000">
<ele>1139.007080</ele>
<time>2012-03-29T12:20:51.996Z</time>
</trkpt>
<trkpt lat="42.7607000" lon="-2.5599700">
<ele>1139.007080</ele>
<time>2012-03-29T12:21:07.004Z</time>
</trkpt>
<trkpt lat="42.7607000" lon="-2.5599900">
<ele>1139.007080</ele>
<time>2012-03-29T12:21:07.998Z</time>
</trkpt>
<trkpt lat="42.7607000" lon="-2.5600500">
<ele>1139.007080</ele>
<time>2012-03-29T12:21:11.998Z</time>
</trkpt>
<trkpt lat="42.7607400" lon="-2.5602700">
<ele>1139.007080</ele>
<time>2012-03-29T12:21:26.997Z</time>
</trkpt>
<trkpt lat="42.7607500" lon="-2.5603400">
<ele>1139.007080</ele>
<time>2012-03-29T12:21:40.000Z</time>
</trkpt>
<trkpt lat="42.7607500" lon="-2.5603900">
<ele>1138.976685</ele>
<time>2012-03-29T12:21:45.003Z</time>
</trkpt>
<trkpt lat="42.7607700" lon="-2.5604500">
<ele>1138.976685</ele>
<time>2012-03-29T12:21:49.003Z</time>
</trkpt>
<trkpt lat="42.7607900" lon="-2.5605000">
<ele>1139.068115</ele>
<time>2012-03-29T12:21:53.004Z</time>
</trkpt>
<trkpt lat="42.7608700" lon="-2.5607200">
<ele>1138.001343</ele>
<time>2012-03-29T12:22:07.000Z</time>
</trkpt>
<trkpt lat="42.7608900" lon="-2.5608100">
<ele>1138.001343</ele>
<time>2012-03-29T12:22:12.003Z</time>
</trkpt>
<trkpt lat="42.7609300" lon="-2.5609700">
<ele>1138.123169</ele>
<time>2012-03-29T12:22:24.004Z</time>
</trkpt>
<trkpt lat="42.7609500" lon="-2.5610500">
<ele>1138.153687</ele>
<time>2012-03-29T12:22:31.002Z</time>
</trkpt>
<trkpt lat="42.7609500" lon="-2.5611400">
<ele>1138.153687</ele>
<time>2012-03-29T12:22:38.001Z</time>
</trkpt>
<trkpt lat="42.7609500" lon="-2.5612400">
<ele>1138.153687</ele>
<time>2012-03-29T12:22:43.997Z</time>
</trkpt>
<trkpt lat="42.7609700" lon="-2.5614400">
<ele>1138.123169</ele>
<time>2012-03-29T12:22:55.998Z</time>
</trkpt>
<trkpt lat="42.7609700" lon="-2.5615700">
<ele>1138.123169</ele>
<time>2012-03-29T12:23:03.998Z</time>
</trkpt>
<trkpt lat="42.7609700" lon="-2.5616700">
<ele>1138.123169</ele>
<time>2012-03-29T12:23:10.003Z</time>
</trkpt>
<trkpt lat="42.7609300" lon="-2.5617300">
<ele>1138.092651</ele>
<time>2012-03-29T12:23:25.002Z</time>
</trkpt>
<trkpt lat="42.7609200" lon="-2.5617700">
<ele>1138.062256</ele>
<time>2012-03-29T12:24:43.004Z</time>
</trkpt>
<trkpt lat="42.7609300" lon="-2.5618400">
<ele>1138.092651</ele>
<time>2012-03-29T12:24:46.996Z</time>
</trkpt>
<trkpt lat="42.7609300" lon="-2.5618700">
<ele>1138.092651</ele>
<time>2012-03-29T12:24:49.000Z</time>
</trkpt>
<trkpt lat="42.7609100" lon="-2.5619500">
<ele>1138.031738</ele>
<time>2012-03-29T12:24:54.003Z</time>
</trkpt>
<trkpt lat="42.7608800" lon="-2.5619800">
<ele>1138.001343</ele>
<time>2012-03-29T12:24:58.003Z</time>
</trkpt>
<trkpt lat="42.7608800" lon="-2.5620600">
<ele>1138.031738</ele>
<time>2012-03-29T12:25:02.997Z</time>
</trkpt>
<trkpt lat="42.7609200" lon="-2.5622900">
<ele>1138.153687</ele>
<time>2012-03-29T12:25:16.000Z</time>
</trkpt>
<trkpt lat="42.7609200" lon="-2.5623100">
<ele>1138.184204</ele>
<time>2012-03-29T12:25:17.003Z</time>
</trkpt>
<trkpt lat="42.7610000" lon="-2.5624900">
<ele>1137.909912</ele>
<time>2012-03-29T12:25:30.999Z</time>
</trkpt>
<trkpt lat="42.7610300" lon="-2.5626800">
<ele>1138.153687</ele>
<time>2012-03-29T12:25:44.003Z</time>
</trkpt>
<trkpt lat="42.7610300" lon="-2.5628300">
<ele>1138.062256</ele>
<time>2012-03-29T12:25:55.001Z</time>
</trkpt>
<trkpt lat="42.7610100" lon="-2.5629000">
<ele>1138.123169</ele>
<time>2012-03-29T12:26:00.004Z</time>
</trkpt>
<trkpt lat="42.7609800" lon="-2.5629400">
<ele>1137.757446</ele>
<time>2012-03-29T12:26:04.004Z</time>
</trkpt>
<trkpt lat="42.7609400" lon="-2.5630000">
<ele>1137.147827</ele>
<time>2012-03-29T12:26:11.996Z</time>
</trkpt>
<trkpt lat="42.7608300" lon="-2.5631400">
<ele>1136.203003</ele>
<time>2012-03-29T12:26:26.002Z</time>
</trkpt>
<trkpt lat="42.7608200" lon="-2.5632100">
<ele>1135.806641</ele>
<time>2012-03-29T12:26:31.004Z</time>
</trkpt>
<trkpt lat="42.7608200" lon="-2.5633100">
<ele>1134.831299</ele>
<time>2012-03-29T12:26:42.003Z</time>
</trkpt>
<trkpt lat="42.7608000" lon="-2.5633600">
<ele>1134.099854</ele>
<time>2012-03-29T12:26:47.999Z</time>
</trkpt>
<trkpt lat="42.7607600" lon="-2.5635000">
<ele>1133.398804</ele>
<time>2012-03-29T12:26:57.002Z</time>
</trkpt>
<trkpt lat="42.7608100" lon="-2.5636100">
<ele>1133.337891</ele>
<time>2012-03-29T12:27:05.003Z</time>
</trkpt>
<trkpt lat="42.7607700" lon="-2.5637100">
<ele>1131.996704</ele>
<time>2012-03-29T12:27:18.999Z</time>
</trkpt>
<trkpt lat="42.7606800" lon="-2.5638000">
<ele>1130.228882</ele>
<time>2012-03-29T12:27:33.998Z</time>
</trkpt>
<trkpt lat="42.7606200" lon="-2.5639900">
<ele>1128.034302</ele>
<time>2012-03-29T12:27:47.002Z</time>
</trkpt>
<trkpt lat="42.7606200" lon="-2.5640100">
<ele>1127.881836</ele>
<time>2012-03-29T12:27:48.997Z</time>
</trkpt>
<trkpt lat="42.7606600" lon="-2.5641100">
<ele>1127.424683</ele>
<time>2012-03-29T12:27:56.998Z</time>
</trkpt>
<trkpt lat="42.7606400" lon="-2.5642700">
<ele>1125.961670</ele>
<time>2012-03-29T12:28:11.004Z</time>
</trkpt>
<trkpt lat="42.7606400" lon="-2.5644700">
<ele>1124.346313</ele>
<time>2012-03-29T12:28:26.003Z</time>
</trkpt>
<trkpt lat="42.7606500" lon="-2.5645500">
<ele>1123.797607</ele>
<time>2012-03-29T12:28:30.996Z</time>
</trkpt>
<trkpt lat="42.7606500" lon="-2.5645900">
<ele>1123.553711</ele>
<time>2012-03-29T12:28:34.003Z</time>
</trkpt>
<trkpt lat="42.7606500" lon="-2.5646600">
<ele>1122.700317</ele>
<time>2012-03-29T12:28:39.999Z</time>
</trkpt>
<trkpt lat="42.7606300" lon="-2.5647900">
<ele>1120.414307</ele>
<time>2012-03-29T12:28:54.998Z</time>
</trkpt>
<trkpt lat="42.7606300" lon="-2.5648900">
<ele>1119.591309</ele>
<time>2012-03-29T12:29:01.003Z</time>
</trkpt>
<trkpt lat="42.7606600" lon="-2.5650300">
<ele>1118.006348</ele>
<time>2012-03-29T12:29:16.002Z</time>
</trkpt>
<trkpt lat="42.7606700" lon="-2.5651900">
<ele>1114.866943</ele>
<time>2012-03-29T12:29:35.002Z</time>
</trkpt>
<trkpt lat="42.7606700" lon="-2.5653500">
<ele>1110.112061</ele>
<time>2012-03-29T12:30:00.999Z</time>
</trkpt>
<trkpt lat="42.7606900" lon="-2.5655400">
<ele>1105.113403</ele>
<time>2012-03-29T12:30:19.999Z</time>
</trkpt>
<trkpt lat="42.7607900" lon="-2.5656500">
<ele>1108.069946</ele>
<time>2012-03-29T12:30:36.000Z</time>
</trkpt>
<trkpt lat="42.7607900" lon="-2.5656800">
<ele>1107.429810</ele>
<time>2012-03-29T12:30:40.000Z</time>
</trkpt>
<trkpt lat="42.7609700" lon="-2.5658600">
<ele>1109.319580</ele>
<time>2012-03-29T12:30:57.997Z</time>
</trkpt>
<trkpt lat="42.7610200" lon="-2.5659700">
<ele>1106.454468</ele>
<time>2012-03-29T12:31:16.997Z</time>
</trkpt>
<trkpt lat="42.7611100" lon="-2.5661000">
<ele>1104.016113</ele>
<time>2012-03-29T12:31:34.000Z</time>
</trkpt>
<trkpt lat="42.7611300" lon="-2.5661000">
<ele>1104.503784</ele>
<time>2012-03-29T12:32:02.003Z</time>
</trkpt>
<trkpt lat="42.7612100" lon="-2.5662700">
<ele>1101.912964</ele>
<time>2012-03-29T12:32:17.002Z</time>
</trkpt>
<trkpt lat="42.7612700" lon="-2.5664100">
<ele>1099.139282</ele>
<time>2012-03-29T12:32:32.001Z</time>
</trkpt>
<trkpt lat="42.7612900" lon="-2.5666000">
<ele>1095.847412</ele>
<time>2012-03-29T12:32:45.997Z</time>
</trkpt>
<trkpt lat="42.7612900" lon="-2.5668400">
<ele>1090.879150</ele>
<time>2012-03-29T12:33:03.001Z</time>
</trkpt>
<trkpt lat="42.7613100" lon="-2.5669000">
<ele>1090.208618</ele>
<time>2012-03-29T12:33:20.998Z</time>
</trkpt>
<trkpt lat="42.7612700" lon="-2.5670100">
<ele>1087.495850</ele>
<time>2012-03-29T12:33:35.004Z</time>
</trkpt>
<trkpt lat="42.7612700" lon="-2.5673300">
<ele>1078.382446</ele>
<time>2012-03-29T12:33:55.999Z</time>
</trkpt>
<trkpt lat="42.7612000" lon="-2.5674300">
<ele>1075.273438</ele>
<time>2012-03-29T12:34:12.000Z</time>
</trkpt>
<trkpt lat="42.7613000" lon="-2.5676000">
<ele>1072.012085</ele>
<time>2012-03-29T12:34:28.001Z</time>
</trkpt>
<trkpt lat="42.7613600" lon="-2.5678500">
<ele>1067.653442</ele>
<time>2012-03-29T12:34:52.003Z</time>
</trkpt>
<trkpt lat="42.7614100" lon="-2.5678500">
<ele>1068.293457</ele>
<time>2012-03-29T12:35:19.997Z</time>
</trkpt>
<trkpt lat="42.7614400" lon="-2.5681600">
<ele>1062.807129</ele>
<time>2012-03-29T12:36:17.997Z</time>
</trkpt>
<trkpt lat="42.7614800" lon="-2.5683400">
<ele>1061.435547</ele>
<time>2012-03-29T12:36:29.998Z</time>
</trkpt>
<trkpt lat="42.7614700" lon="-2.5685000">
<ele>1059.301880</ele>
<time>2012-03-29T12:36:39.001Z</time>
</trkpt>
<trkpt lat="42.7614200" lon="-2.5687200">
<ele>1055.369995</ele>
<time>2012-03-29T12:36:52.004Z</time>
</trkpt>
<trkpt lat="42.7613000" lon="-2.5689400">
<ele>1050.645630</ele>
<time>2012-03-29T12:37:06.001Z</time>
</trkpt>
<trkpt lat="42.7612000" lon="-2.5690400">
<ele>1048.877686</ele>
<time>2012-03-29T12:37:19.004Z</time>
</trkpt>
<trkpt lat="42.7611200" lon="-2.5692000">
<ele>1046.652710</ele>
<time>2012-03-29T12:37:30.003Z</time>
</trkpt>
<trkpt lat="42.7611400" lon="-2.5692600">
<ele>1046.469849</ele>
<time>2012-03-29T12:37:34.003Z</time>
</trkpt>
<trkpt lat="42.7611500" lon="-2.5694000">
<ele>1045.403076</ele>
<time>2012-03-29T12:37:44.000Z</time>
</trkpt>
<trkpt lat="42.7611300" lon="-2.5694300">
<ele>1044.915405</ele>
<time>2012-03-29T12:37:46.004Z</time>
</trkpt>
<trkpt lat="42.7611200" lon="-2.5696600">
<ele>1042.934204</ele>
<time>2012-03-29T12:38:00.001Z</time>
</trkpt>
<trkpt lat="42.7611700" lon="-2.5698800">
<ele>1041.654053</ele>
<time>2012-03-29T12:38:12.002Z</time>
</trkpt>
<trkpt lat="42.7611900" lon="-2.5699500">
<ele>1041.349243</ele>
<time>2012-03-29T12:38:17.998Z</time>
</trkpt>
<trkpt lat="42.7612100" lon="-2.5700500">
<ele>1040.587158</ele>
<time>2012-03-29T12:38:25.999Z</time>
</trkpt>
<trkpt lat="42.7613100" lon="-2.5702100">
<ele>1039.520386</ele>
<time>2012-03-29T12:38:40.004Z</time>
</trkpt>
<trkpt lat="42.7613100" lon="-2.5703800">
<ele>1038.118286</ele>
<time>2012-03-29T12:38:48.998Z</time>
</trkpt>
<trkpt lat="42.7612800" lon="-2.5705800">
<ele>1037.356323</ele>
<time>2012-03-29T12:39:03.997Z</time>
</trkpt>
<trkpt lat="42.7612900" lon="-2.5706300">
<ele>1036.777222</ele>
<time>2012-03-29T12:39:07.004Z</time>
</trkpt>
<trkpt lat="42.7613200" lon="-2.5706900">
<ele>1036.411499</ele>
<time>2012-03-29T12:39:10.996Z</time>
</trkpt>
<trkpt lat="42.7614100" lon="-2.5708800">
<ele>1036.076172</ele>
<time>2012-03-29T12:39:25.001Z</time>
</trkpt>
<trkpt lat="42.7614200" lon="-2.5709600">
<ele>1035.527466</ele>
<time>2012-03-29T12:39:30.997Z</time>
</trkpt>
<trkpt lat="42.7614700" lon="-2.5710500">
<ele>1035.283691</ele>
<time>2012-03-29T12:39:37.002Z</time>
</trkpt>
<trkpt lat="42.7614300" lon="-2.5712000">
<ele>1034.613037</ele>
<time>2012-03-29T12:39:50.999Z</time>
</trkpt>
<trkpt lat="42.7613800" lon="-2.5714400">
<ele>1033.180542</ele>
<time>2012-03-29T12:40:05.998Z</time>
</trkpt>
<trkpt lat="42.7613600" lon="-2.5715800">
<ele>1033.058716</ele>
<time>2012-03-29T12:40:20.004Z</time>
</trkpt>
<trkpt lat="42.7613300" lon="-2.5717000">
<ele>1032.083252</ele>
<time>2012-03-29T12:40:27.002Z</time>
</trkpt>
<trkpt lat="42.7613300" lon="-2.5717300">
<ele>1031.900391</ele>
<time>2012-03-29T12:40:28.998Z</time>
</trkpt>
<trkpt lat="42.7612900" lon="-2.5719600">
<ele>1032.022339</ele>
<time>2012-03-29T12:40:44.999Z</time>
</trkpt>
<trkpt lat="42.7612600" lon="-2.5719600">
<ele>1032.205200</ele>
<time>2012-03-29T12:40:48.999Z</time>
</trkpt>
<trkpt lat="42.7612000" lon="-2.5720800">
<ele>1030.985962</ele>
<time>2012-03-29T12:41:03.998Z</time>
</trkpt>
<trkpt lat="42.7611500" lon="-2.5722600">
<ele>1031.107910</ele>
<time>2012-03-29T12:41:15.999Z</time>
</trkpt>
<trkpt lat="42.7610300" lon="-2.5724300">
<ele>1030.041138</ele>
<time>2012-03-29T12:41:30.998Z</time>
</trkpt>
<trkpt lat="42.7609100" lon="-2.5726200">
<ele>1028.425659</ele>
<time>2012-03-29T12:41:45.997Z</time>
</trkpt>
<trkpt lat="42.7608000" lon="-2.5728800">
<ele>1026.749268</ele>
<time>2012-03-29T12:42:04.997Z</time>
</trkpt>
<trkpt lat="42.7607500" lon="-2.5731700">
<ele>1024.950928</ele>
<time>2012-03-29T12:42:23.003Z</time>
</trkpt>
<trkpt lat="42.7607400" lon="-2.5734400">
<ele>1024.768066</ele>
<time>2012-03-29T12:42:39.997Z</time>
</trkpt>
<trkpt lat="42.7607000" lon="-2.5737000">
<ele>1023.183105</ele>
<time>2012-03-29T12:42:55.999Z</time>
</trkpt>
<trkpt lat="42.7606600" lon="-2.5739300">
<ele>1021.628662</ele>
<time>2012-03-29T12:43:10.004Z</time>
</trkpt>
<trkpt lat="42.7606500" lon="-2.5740700">
<ele>1020.653320</ele>
<time>2012-03-29T12:43:18.998Z</time>
</trkpt>
<trkpt lat="42.7605900" lon="-2.5743100">
<ele>1020.104675</ele>
<time>2012-03-29T12:43:33.997Z</time>
</trkpt>
<trkpt lat="42.7605800" lon="-2.5745700">
<ele>1018.885437</ele>
<time>2012-03-29T12:43:48.996Z</time>
</trkpt>
<trkpt lat="42.7605800" lon="-2.5746100">
<ele>1018.976929</ele>
<time>2012-03-29T12:43:52.003Z</time>
</trkpt>
<trkpt lat="42.7605800" lon="-2.5747200">
<ele>1018.489197</ele>
<time>2012-03-29T12:43:59.002Z</time>
</trkpt>
<trkpt lat="42.7605900" lon="-2.5747500">
<ele>1018.306274</ele>
<time>2012-03-29T12:44:00.997Z</time>
</trkpt>
<trkpt lat="42.7605700" lon="-2.5749900">
<ele>1016.934692</ele>
<time>2012-03-29T12:44:15.003Z</time>
</trkpt>
<trkpt lat="42.7605600" lon="-2.5750500">
<ele>1016.629883</ele>
<time>2012-03-29T12:44:18.001Z</time>
</trkpt>
<trkpt lat="42.7606200" lon="-2.5752100">
<ele>1015.502136</ele>
<time>2012-03-29T12:44:31.004Z</time>
</trkpt>
<trkpt lat="42.7606800" lon="-2.5753800">
<ele>1014.008667</ele>
<time>2012-03-29T12:44:39.998Z</time>
</trkpt>
<trkpt lat="42.7606900" lon="-2.5754100">
<ele>1014.100098</ele>
<time>2012-03-29T12:44:42.996Z</time>
</trkpt>
<trkpt lat="42.7607400" lon="-2.5755700">
<ele>1013.612427</ele>
<time>2012-03-29T12:44:53.002Z</time>
</trkpt>
<trkpt lat="42.7608700" lon="-2.5757700">
<ele>1011.783630</ele>
<time>2012-03-29T12:45:09.003Z</time>
</trkpt>
<trkpt lat="42.7608900" lon="-2.5758700">
<ele>1010.838684</ele>
<time>2012-03-29T12:45:16.001Z</time>
</trkpt>
<trkpt lat="42.7608400" lon="-2.5760800">
<ele>1008.552673</ele>
<time>2012-03-29T12:45:28.996Z</time>
</trkpt>
<trkpt lat="42.7607800" lon="-2.5762200">
<ele>1008.095520</ele>
<time>2012-03-29T12:45:40.003Z</time>
</trkpt>
<trkpt lat="42.7607500" lon="-2.5762700">
<ele>1007.821228</ele>
<time>2012-03-29T12:45:44.004Z</time>
</trkpt>
<trkpt lat="42.7607100" lon="-2.5765100">
<ele>1005.870483</ele>
<time>2012-03-29T12:45:58.000Z</time>
</trkpt>
<trkpt lat="42.7607100" lon="-2.5765600">
<ele>1005.931458</ele>
<time>2012-03-29T12:46:02.001Z</time>
</trkpt>
<trkpt lat="42.7606700" lon="-2.5766400">
<ele>1005.992371</ele>
<time>2012-03-29T12:46:15.004Z</time>
</trkpt>
<trkpt lat="42.7606700" lon="-2.5768700">
<ele>1006.144775</ele>
<time>2012-03-29T12:46:29.001Z</time>
</trkpt>
<trkpt lat="42.7606500" lon="-2.5769800">
<ele>1006.266663</ele>
<time>2012-03-29T12:46:34.997Z</time>
</trkpt>
<trkpt lat="42.7606300" lon="-2.5771800">
<ele>1005.047485</ele>
<time>2012-03-29T12:46:49.002Z</time>
</trkpt>
<trkpt lat="42.7606000" lon="-2.5774100">
<ele>1003.401611</ele>
<time>2012-03-29T12:47:02.999Z</time>
</trkpt>
<trkpt lat="42.7605700" lon="-2.5775700">
<ele>1001.969055</ele>
<time>2012-03-29T12:47:13.004Z</time>
</trkpt>
<trkpt lat="42.7605400" lon="-2.5778000">
<ele>1002.121460</ele>
<time>2012-03-29T12:47:28.003Z</time>
</trkpt>
<trkpt lat="42.7605100" lon="-2.5780300">
<ele>1001.999512</ele>
<time>2012-03-29T12:47:42.000Z</time>
</trkpt>
<trkpt lat="42.7605000" lon="-2.5781400">
<ele>1002.182373</ele>
<time>2012-03-29T12:47:48.998Z</time>
</trkpt>
<trkpt lat="42.7604900" lon="-2.5782100">
<ele>1002.030029</ele>
<time>2012-03-29T12:47:52.999Z</time>
</trkpt>
<trkpt lat="42.7605000" lon="-2.5782800">
<ele>1001.359436</ele>
<time>2012-03-29T12:47:58.001Z</time>
</trkpt>
<trkpt lat="42.7605100" lon="-2.5783200">
<ele>1000.963196</ele>
<time>2012-03-29T12:48:00.999Z</time>
</trkpt>
<trkpt lat="42.7605200" lon="-2.5783900">
<ele>1000.963196</ele>
<time>2012-03-29T12:48:05.000Z</time>
</trkpt>
<trkpt lat="42.7605400" lon="-2.5785300">
<ele>1000.048828</ele>
<time>2012-03-29T12:48:21.001Z</time>
</trkpt>
<trkpt lat="42.7605600" lon="-2.5786400">
<ele>998.951477</ele>
<time>2012-03-29T12:48:37.002Z</time>
</trkpt>
<trkpt lat="42.7605600" lon="-2.5786700">
<ele>998.677185</ele>
<time>2012-03-29T12:48:38.998Z</time>
</trkpt>
<trkpt lat="42.7605600" lon="-2.5787500">
<ele>997.762817</ele>
<time>2012-03-29T12:48:44.001Z</time>
</trkpt>
<trkpt lat="42.7605900" lon="-2.5788300">
<ele>996.817871</ele>
<time>2012-03-29T12:48:49.003Z</time>
</trkpt>
<trkpt lat="42.7606000" lon="-2.5789100">
<ele>996.147339</ele>
<time>2012-03-29T12:48:53.997Z</time>
</trkpt>
<trkpt lat="42.7606100" lon="-2.5790800">
<ele>994.653870</ele>
<time>2012-03-29T12:49:05.998Z</time>
</trkpt>
<trkpt lat="42.7606200" lon="-2.5790900">
<ele>994.501465</ele>
<time>2012-03-29T12:49:07.000Z</time>
</trkpt>
<trkpt lat="42.7606000" lon="-2.5792500">
<ele>993.373718</ele>
<time>2012-03-29T12:49:17.999Z</time>
</trkpt>
<trkpt lat="42.7606000" lon="-2.5793600">
<ele>992.428772</ele>
<time>2012-03-29T12:49:24.997Z</time>
</trkpt>
<trkpt lat="42.7606100" lon="-2.5794300">
<ele>991.880127</ele>
<time>2012-03-29T12:49:28.998Z</time>
</trkpt>
<trkpt lat="42.7606100" lon="-2.5795400">
<ele>990.996277</ele>
<time>2012-03-29T12:49:35.003Z</time>
</trkpt>
<trkpt lat="42.7606400" lon="-2.5796700">
<ele>989.563721</ele>
<time>2012-03-29T12:49:43.003Z</time>
</trkpt>
<trkpt lat="42.7606700" lon="-2.5797300">
<ele>988.679749</ele>
<time>2012-03-29T12:49:47.997Z</time>
</trkpt>
<trkpt lat="42.7606700" lon="-2.5798300">
<ele>988.222534</ele>
<time>2012-03-29T12:49:54.002Z</time>
</trkpt>
<trkpt lat="42.7606400" lon="-2.5799900">
<ele>986.729065</ele>
<time>2012-03-29T12:50:05.001Z</time>
</trkpt>
<trkpt lat="42.7606100" lon="-2.5802100">
<ele>983.985840</ele>
<time>2012-03-29T12:50:18.997Z</time>
</trkpt>
<trkpt lat="42.7606200" lon="-2.5802400">
<ele>983.162903</ele>
<time>2012-03-29T12:50:22.004Z</time>
</trkpt>
<trkpt lat="42.7606400" lon="-2.5802400">
<ele>982.431335</ele>
<time>2012-03-29T12:50:24.000Z</time>
</trkpt>
<trkpt lat="42.7606900" lon="-2.5802300">
<ele>980.267334</ele>
<time>2012-03-29T12:50:44.002Z</time>
</trkpt>
<trkpt lat="42.7606700" lon="-2.5802300">
<ele>981.486511</ele>
<time>2012-03-29T12:50:45.997Z</time>
</trkpt>
<trkpt lat="42.7606000" lon="-2.5802700">
<ele>983.223877</ele>
<time>2012-03-29T12:50:55.000Z</time>
</trkpt>
<trkpt lat="42.7604700" lon="-2.5804900">
<ele>982.675171</ele>
<time>2012-03-29T12:51:12.997Z</time>
</trkpt>
<trkpt lat="42.7604200" lon="-2.5807300">
<ele>979.749084</ele>
<time>2012-03-29T12:51:27.996Z</time>
</trkpt>
<trkpt lat="42.7603800" lon="-2.5809000">
<ele>978.377502</ele>
<time>2012-03-29T12:51:39.004Z</time>
</trkpt>
<trkpt lat="42.7603800" lon="-2.5809400">
<ele>977.950806</ele>
<time>2012-03-29T12:51:41.000Z</time>
</trkpt>
<trkpt lat="42.7603700" lon="-2.5809800">
<ele>977.524109</ele>
<time>2012-03-29T12:51:43.998Z</time>
</trkpt>
<trkpt lat="42.7603100" lon="-2.5811400">
<ele>976.701111</ele>
<time>2012-03-29T12:52:02.004Z</time>
</trkpt>
<trkpt lat="42.7602600" lon="-2.5812800">
<ele>975.512390</ele>
<time>2012-03-29T12:52:22.999Z</time>
</trkpt>
<trkpt lat="42.7602300" lon="-2.5813600">
<ele>974.658936</ele>
<time>2012-03-29T12:52:29.997Z</time>
</trkpt>
<trkpt lat="42.7602000" lon="-2.5814000">
<ele>974.476135</ele>
<time>2012-03-29T12:52:33.004Z</time>
</trkpt>
<trkpt lat="42.7601800" lon="-2.5814700">
<ele>973.470276</ele>
<time>2012-03-29T12:52:37.998Z</time>
</trkpt>
<trkpt lat="42.7601200" lon="-2.5815400">
<ele>972.891113</ele>
<time>2012-03-29T12:52:44.996Z</time>
</trkpt>
<trkpt lat="42.7600800" lon="-2.5816800">
<ele>971.610962</ele>
<time>2012-03-29T12:52:53.999Z</time>
</trkpt>
<trkpt lat="42.7600200" lon="-2.5819400">
<ele>969.477356</ele>
<time>2012-03-29T12:53:08.998Z</time>
</trkpt>
<trkpt lat="42.7599900" lon="-2.5820900">
<ele>967.099915</ele>
<time>2012-03-29T12:53:19.003Z</time>
</trkpt>
<trkpt lat="42.7599400" lon="-2.5822600">
<ele>965.149170</ele>
<time>2012-03-29T12:53:31.998Z</time>
</trkpt>
<trkpt lat="42.7599200" lon="-2.5823600">
<ele>963.808105</ele>
<time>2012-03-29T12:53:39.998Z</time>
</trkpt>
<trkpt lat="42.7598500" lon="-2.5824600">
<ele>962.466919</ele>
<time>2012-03-29T12:53:53.002Z</time>
</trkpt>
<trkpt lat="42.7598300" lon="-2.5824700">
<ele>962.223083</ele>
<time>2012-03-29T12:54:13.003Z</time>
</trkpt>
<trkpt lat="42.7598000" lon="-2.5824500">
<ele>962.619324</ele>
<time>2012-03-29T12:54:16.001Z</time>
</trkpt>
<trkpt lat="42.7597200" lon="-2.5825000">
<ele>961.674500</ele>
<time>2012-03-29T12:54:29.998Z</time>
</trkpt>
<trkpt lat="42.7597200" lon="-2.5825400">
<ele>961.186829</ele>
<time>2012-03-29T12:54:35.001Z</time>
</trkpt>
<trkpt lat="42.7597100" lon="-2.5826100">
<ele>959.754272</ele>
<time>2012-03-29T12:54:52.998Z</time>
</trkpt>
<trkpt lat="42.7596900" lon="-2.5826000">
<ele>959.906677</ele>
<time>2012-03-29T12:54:58.000Z</time>
</trkpt>
<trkpt lat="42.7596200" lon="-2.5825500">
<ele>959.876160</ele>
<time>2012-03-29T12:55:11.004Z</time>
</trkpt>
<trkpt lat="42.7595300" lon="-2.5825500">
<ele>959.540894</ele>
<time>2012-03-29T12:55:21.000Z</time>
</trkpt>
<trkpt lat="42.7594200" lon="-2.5825600">
<ele>956.858643</ele>
<time>2012-03-29T12:55:34.003Z</time>
</trkpt>
<trkpt lat="42.7594000" lon="-2.5825300">
<ele>956.614807</ele>
<time>2012-03-29T12:55:38.004Z</time>
</trkpt>
<trkpt lat="42.7593300" lon="-2.5825000">
<ele>955.608948</ele>
<time>2012-03-29T12:55:45.002Z</time>
</trkpt>
<trkpt lat="42.7592900" lon="-2.5825000">
<ele>955.243225</ele>
<time>2012-03-29T12:55:48.000Z</time>
</trkpt>
<trkpt lat="42.7592400" lon="-2.5824900">
<ele>954.511719</ele>
<time>2012-03-29T12:55:52.000Z</time>
</trkpt>
<trkpt lat="42.7591800" lon="-2.5824900">
<ele>953.018127</ele>
<time>2012-03-29T12:55:56.001Z</time>
</trkpt>
<trkpt lat="42.7590300" lon="-2.5823900">
<ele>950.549316</ele>
<time>2012-03-29T12:56:11.000Z</time>
</trkpt>
<trkpt lat="42.7589600" lon="-2.5823500">
<ele>949.360535</ele>
<time>2012-03-29T12:56:16.996Z</time>
</trkpt>
<trkpt lat="42.7589300" lon="-2.5823200">
<ele>949.086243</ele>
<time>2012-03-29T12:56:33.999Z</time>
</trkpt>
<trkpt lat="42.7587900" lon="-2.5821500">
<ele>946.099182</ele>
<time>2012-03-29T12:56:50.001Z</time>
</trkpt>
<trkpt lat="42.7586600" lon="-2.5819300">
<ele>943.020691</ele>
<time>2012-03-29T12:57:07.004Z</time>
</trkpt>
<trkpt lat="42.7586400" lon="-2.5818500">
<ele>942.319702</ele>
<time>2012-03-29T12:57:14.003Z</time>
</trkpt>
<trkpt lat="42.7586000" lon="-2.5817200">
<ele>940.948120</ele>
<time>2012-03-29T12:57:23.999Z</time>
</trkpt>
<trkpt lat="42.7584500" lon="-2.5815500">
<ele>937.930542</ele>
<time>2012-03-29T12:57:38.998Z</time>
</trkpt>
<trkpt lat="42.7583400" lon="-2.5813700">
<ele>935.431213</ele>
<time>2012-03-29T12:57:53.004Z</time>
</trkpt>
<trkpt lat="42.7582600" lon="-2.5811100">
<ele>932.413696</ele>
<time>2012-03-29T12:58:08.996Z</time>
</trkpt>
<trkpt lat="42.7582600" lon="-2.5808600">
<ele>930.401978</ele>
<time>2012-03-29T12:58:23.002Z</time>
</trkpt>
<trkpt lat="42.7583200" lon="-2.5806700">
<ele>930.889709</ele>
<time>2012-03-29T12:58:35.996Z</time>
</trkpt>
<trkpt lat="42.7583300" lon="-2.5806300">
<ele>930.584900</ele>
<time>2012-03-29T12:58:38.001Z</time>
</trkpt>
<trkpt lat="42.7584000" lon="-2.5803100">
<ele>930.432495</ele>
<time>2012-03-29T12:58:58.002Z</time>
</trkpt>
<trkpt lat="42.7584700" lon="-2.5801700">
<ele>931.956482</ele>
<time>2012-03-29T12:59:13.001Z</time>
</trkpt>
<trkpt lat="42.7585100" lon="-2.5799900">
<ele>932.901367</ele>
<time>2012-03-29T12:59:26.998Z</time>
</trkpt>
<trkpt lat="42.7585600" lon="-2.5797600">
<ele>934.090088</ele>
<time>2012-03-29T12:59:41.004Z</time>
</trkpt>
<trkpt lat="42.7585800" lon="-2.5796100">
<ele>934.394897</ele>
<time>2012-03-29T12:59:49.998Z</time>
</trkpt>
<trkpt lat="42.7586100" lon="-2.5795100">
<ele>935.034973</ele>
<time>2012-03-29T12:59:56.996Z</time>
</trkpt>
<trkpt lat="42.7586500" lon="-2.5792500">
<ele>936.071289</ele>
<time>2012-03-29T13:00:12.004Z</time>
</trkpt>
<trkpt lat="42.7586700" lon="-2.5790100">
<ele>936.619873</ele>
<time>2012-03-29T13:00:27.003Z</time>
</trkpt>
<trkpt lat="42.7586900" lon="-2.5788600">
<ele>936.497986</ele>
<time>2012-03-29T13:00:35.004Z</time>
</trkpt>
<trkpt lat="42.7586800" lon="-2.5785600">
<ele>934.973999</ele>
<time>2012-03-29T13:00:51.998Z</time>
</trkpt>
<trkpt lat="42.7586600" lon="-2.5783300">
<ele>933.663330</ele>
<time>2012-03-29T13:01:06.004Z</time>
</trkpt>
<trkpt lat="42.7586700" lon="-2.5781000">
<ele>934.211975</ele>
<time>2012-03-29T13:01:20.001Z</time>
</trkpt>
<trkpt lat="42.7586600" lon="-2.5780600">
<ele>933.968140</ele>
<time>2012-03-29T13:01:22.999Z</time>
</trkpt>
<trkpt lat="42.7586200" lon="-2.5780600">
<ele>932.383179</ele>
<time>2012-03-29T13:01:33.997Z</time>
</trkpt>
<trkpt lat="42.7586000" lon="-2.5781800">
<ele>931.194519</ele>
<time>2012-03-29T13:01:48.996Z</time>
</trkpt>
<trkpt lat="42.7585500" lon="-2.5782800">
<ele>929.761902</ele>
<time>2012-03-29T13:02:12.998Z</time>
</trkpt>
<trkpt lat="42.7585500" lon="-2.5783300">
<ele>929.792419</ele>
<time>2012-03-29T13:02:15.996Z</time>
</trkpt>
<trkpt lat="42.7584700" lon="-2.5785200">
<ele>926.652954</ele>
<time>2012-03-29T13:02:31.004Z</time>
</trkpt>
<trkpt lat="42.7584200" lon="-2.5786400">
<ele>925.189880</ele>
<time>2012-03-29T13:02:42.996Z</time>
</trkpt>
<trkpt lat="42.7583900" lon="-2.5786500">
<ele>923.940247</ele>
<time>2012-03-29T13:02:47.999Z</time>
</trkpt>
<trkpt lat="42.7583800" lon="-2.5787100">
<ele>923.909729</ele>
<time>2012-03-29T13:02:53.002Z</time>
</trkpt>
<trkpt lat="42.7583200" lon="-2.5788000">
<ele>922.020020</ele>
<time>2012-03-29T13:03:05.003Z</time>
</trkpt>
<trkpt lat="42.7582700" lon="-2.5790000">
<ele>920.160706</ele>
<time>2012-03-29T13:03:18.999Z</time>
</trkpt>
<trkpt lat="42.7582600" lon="-2.5790200">
<ele>919.794922</ele>
<time>2012-03-29T13:03:20.002Z</time>
</trkpt>
<trkpt lat="42.7582500" lon="-2.5790800">
<ele>919.703491</ele>
<time>2012-03-29T13:03:24.002Z</time>
</trkpt>
<trkpt lat="42.7581800" lon="-2.5793100">
<ele>918.240540</ele>
<time>2012-03-29T13:03:40.003Z</time>
</trkpt>
<trkpt lat="42.7581500" lon="-2.5794000">
<ele>917.173706</ele>
<time>2012-03-29T13:03:47.002Z</time>
</trkpt>
<trkpt lat="42.7581100" lon="-2.5794700">
<ele>916.137329</ele>
<time>2012-03-29T13:03:52.004Z</time>
</trkpt>
<trkpt lat="42.7580800" lon="-2.5795500">
<ele>915.040100</ele>
<time>2012-03-29T13:04:07.003Z</time>
</trkpt>
<trkpt lat="42.7580500" lon="-2.5796100">
<ele>914.034241</ele>
<time>2012-03-29T13:04:21.000Z</time>
</trkpt>
<trkpt lat="42.7580000" lon="-2.5797100">
<ele>912.754089</ele>
<time>2012-03-29T13:04:27.998Z</time>
</trkpt>
<trkpt lat="42.7579600" lon="-2.5797900">
<ele>911.291077</ele>
<time>2012-03-29T13:04:34.003Z</time>
</trkpt>
<trkpt lat="42.7579500" lon="-2.5798100">
<ele>910.864319</ele>
<time>2012-03-29T13:04:35.999Z</time>
</trkpt>
<trkpt lat="42.7579300" lon="-2.5798500">
<ele>910.163330</ele>
<time>2012-03-29T13:04:38.997Z</time>
</trkpt>
<trkpt lat="42.7578500" lon="-2.5799700">
<ele>907.846802</ele>
<time>2012-03-29T13:04:54.998Z</time>
</trkpt>
<trkpt lat="42.7578500" lon="-2.5799500">
<ele>908.334534</ele>
<time>2012-03-29T13:05:12.002Z</time>
</trkpt>
<trkpt lat="42.7579100" lon="-2.5799000">
<ele>909.309875</ele>
<time>2012-03-29T13:06:19.999Z</time>
</trkpt>
<trkpt lat="42.7579200" lon="-2.5799000">
<ele>909.462280</ele>
<time>2012-03-29T13:07:01.004Z</time>
</trkpt>
<trkpt lat="42.7579300" lon="-2.5799600">
<ele>909.126953</ele>
<time>2012-03-29T13:07:28.998Z</time>
</trkpt>
<trkpt lat="42.7578800" lon="-2.5800400">
<ele>907.054260</ele>
<time>2012-03-29T13:08:02.003Z</time>
</trkpt>
<trkpt lat="42.7578900" lon="-2.5801100">
<ele>906.414246</ele>
<time>2012-03-29T13:08:33.003Z</time>
</trkpt>
<trkpt lat="42.7578500" lon="-2.5802100">
<ele>904.585449</ele>
<time>2012-03-29T13:08:45.997Z</time>
</trkpt>
<trkpt lat="42.7578200" lon="-2.5802700">
<ele>903.945374</ele>
<time>2012-03-29T13:08:49.998Z</time>
</trkpt>
<trkpt lat="42.7578000" lon="-2.5803400">
<ele>903.671082</ele>
<time>2012-03-29T13:08:55.000Z</time>
</trkpt>
<trkpt lat="42.7577800" lon="-2.5803800">
<ele>903.061462</ele>
<time>2012-03-29T13:08:57.998Z</time>
</trkpt>
<trkpt lat="42.7577400" lon="-2.5804300">
<ele>901.781311</ele>
<time>2012-03-29T13:09:03.001Z</time>
</trkpt>
<trkpt lat="42.7577200" lon="-2.5805700">
<ele>902.025085</ele>
<time>2012-03-29T13:09:19.002Z</time>
</trkpt>
<trkpt lat="42.7577300" lon="-2.5805700">
<ele>902.817627</ele>
<time>2012-03-29T13:09:31.997Z</time>
</trkpt>
<trkpt lat="42.7577200" lon="-2.5806300">
<ele>902.969971</ele>
<time>2012-03-29T13:09:35.997Z</time>
</trkpt>
<trkpt lat="42.7577000" lon="-2.5807300">
<ele>903.244263</ele>
<time>2012-03-29T13:09:53.001Z</time>
</trkpt>
<trkpt lat="42.7576700" lon="-2.5808300">
<ele>902.787109</ele>
<time>2012-03-29T13:09:58.997Z</time>
</trkpt>
<trkpt lat="42.7576300" lon="-2.5810600">
<ele>900.927856</ele>
<time>2012-03-29T13:10:14.998Z</time>
</trkpt>
<trkpt lat="42.7576000" lon="-2.5811300">
<ele>897.849365</ele>
<time>2012-03-29T13:10:21.996Z</time>
</trkpt>
<trkpt lat="42.7576200" lon="-2.5812300">
<ele>899.342896</ele>
<time>2012-03-29T13:10:37.998Z</time>
</trkpt>
<trkpt lat="42.7576300" lon="-2.5814200">
<ele>896.264404</ele>
<time>2012-03-29T13:10:52.003Z</time>
</trkpt>
<trkpt lat="42.7576600" lon="-2.5815700">
<ele>894.984253</ele>
<time>2012-03-29T13:11:02.000Z</time>
</trkpt>
<trkpt lat="42.7576700" lon="-2.5817500">
<ele>888.705322</ele>
<time>2012-03-29T13:11:12.998Z</time>
</trkpt>
<trkpt lat="42.7577000" lon="-2.5818400">
<ele>886.998535</ele>
<time>2012-03-29T13:11:29.000Z</time>
</trkpt>
<trkpt lat="42.7577400" lon="-2.5820100">
<ele>884.163879</ele>
<time>2012-03-29T13:11:42.996Z</time>
</trkpt>
<trkpt lat="42.7577400" lon="-2.5820700">
<ele>882.213074</ele>
<time>2012-03-29T13:11:46.997Z</time>
</trkpt>
<trkpt lat="42.7577600" lon="-2.5821400">
<ele>880.872009</ele>
<time>2012-03-29T13:11:51.999Z</time>
</trkpt>
<trkpt lat="42.7578600" lon="-2.5823600">
<ele>878.829834</ele>
<time>2012-03-29T13:12:06.998Z</time>
</trkpt>
<trkpt lat="42.7578900" lon="-2.5824100">
<ele>878.494568</ele>
<time>2012-03-29T13:12:10.999Z</time>
</trkpt>
<trkpt lat="42.7580300" lon="-2.5825900">
<ele>877.580139</ele>
<time>2012-03-29T13:12:27.000Z</time>
</trkpt>
<trkpt lat="42.7581300" lon="-2.5827300">
<ele>877.732544</ele>
<time>2012-03-29T13:12:39.001Z</time>
</trkpt>
<trkpt lat="42.7581500" lon="-2.5827500">
<ele>877.915466</ele>
<time>2012-03-29T13:12:40.997Z</time>
</trkpt>
<trkpt lat="42.7581900" lon="-2.5830000">
<ele>874.684570</ele>
<time>2012-03-29T13:12:55.996Z</time>
</trkpt>
<trkpt lat="42.7581900" lon="-2.5830300">
<ele>873.983521</ele>
<time>2012-03-29T13:12:58.000Z</time>
</trkpt>
<trkpt lat="42.7582100" lon="-2.5831100">
<ele>872.855774</ele>
<time>2012-03-29T13:13:03.003Z</time>
</trkpt>
<trkpt lat="42.7582100" lon="-2.5832100">
<ele>870.203979</ele>
<time>2012-03-29T13:13:08.999Z</time>
</trkpt>
<trkpt lat="42.7582300" lon="-2.5832800">
<ele>869.442017</ele>
<time>2012-03-29T13:13:14.002Z</time>
</trkpt>
<trkpt lat="42.7583400" lon="-2.5834800">
<ele>869.198120</ele>
<time>2012-03-29T13:13:29.001Z</time>
</trkpt>
<trkpt lat="42.7583700" lon="-2.5836600">
<ele>865.418640</ele>
<time>2012-03-29T13:13:41.002Z</time>
</trkpt>
<trkpt lat="42.7583900" lon="-2.5837000">
<ele>865.357727</ele>
<time>2012-03-29T13:13:45.002Z</time>
</trkpt>
<trkpt lat="42.7584400" lon="-2.5838100">
<ele>863.315491</ele>
<time>2012-03-29T13:13:52.000Z</time>
</trkpt>
<trkpt lat="42.7585800" lon="-2.5839400">
<ele>860.633301</ele>
<time>2012-03-29T13:14:06.999Z</time>
</trkpt>
<trkpt lat="42.7586800" lon="-2.5840100">
<ele>860.023682</ele>
<time>2012-03-29T13:14:20.003Z</time>
</trkpt>
<trkpt lat="42.7586900" lon="-2.5840500">
<ele>858.560669</ele>
<time>2012-03-29T13:14:24.996Z</time>
</trkpt>
<trkpt lat="42.7587100" lon="-2.5840800">
<ele>857.798645</ele>
<time>2012-03-29T13:14:28.003Z</time>
</trkpt>
<trkpt lat="42.7588200" lon="-2.5842400">
<ele>856.183228</ele>
<time>2012-03-29T13:14:43.002Z</time>
</trkpt>
<trkpt lat="42.7588800" lon="-2.5844200">
<ele>854.872559</ele>
<time>2012-03-29T13:14:55.003Z</time>
</trkpt>
<trkpt lat="42.7589300" lon="-2.5846200">
<ele>851.306396</ele>
<time>2012-03-29T13:15:09.000Z</time>
</trkpt>
<trkpt lat="42.7589300" lon="-2.5846600">
<ele>850.392029</ele>
<time>2012-03-29T13:15:11.998Z</time>
</trkpt>
<trkpt lat="42.7589300" lon="-2.5846800">
<ele>849.812927</ele>
<time>2012-03-29T13:15:14.003Z</time>
</trkpt>
<trkpt lat="42.7589500" lon="-2.5847100">
<ele>849.508118</ele>
<time>2012-03-29T13:15:15.998Z</time>
</trkpt>
<trkpt lat="42.7590300" lon="-2.5848600">
<ele>846.703918</ele>
<time>2012-03-29T13:15:30.004Z</time>
</trkpt>
<trkpt lat="42.7591500" lon="-2.5850400">
<ele>843.564514</ele>
<time>2012-03-29T13:15:45.003Z</time>
</trkpt>
<trkpt lat="42.7592100" lon="-2.5851900">
<ele>839.602112</ele>
<time>2012-03-29T13:15:59.000Z</time>
</trkpt>
<trkpt lat="42.7593000" lon="-2.5853100">
<ele>837.834229</ele>
<time>2012-03-29T13:16:09.998Z</time>
</trkpt>
<trkpt lat="42.7593300" lon="-2.5853700">
<ele>836.401733</ele>
<time>2012-03-29T13:16:16.003Z</time>
</trkpt>
<trkpt lat="42.7594000" lon="-2.5854900">
<ele>832.957458</ele>
<time>2012-03-29T13:16:28.004Z</time>
</trkpt>
<trkpt lat="42.7595100" lon="-2.5856000">
<ele>830.244690</ele>
<time>2012-03-29T13:16:42.001Z</time>
</trkpt>
<trkpt lat="42.7595400" lon="-2.5856200">
<ele>829.787476</ele>
<time>2012-03-29T13:16:44.999Z</time>
</trkpt>
<trkpt lat="42.7595700" lon="-2.5857600">
<ele>826.495728</ele>
<time>2012-03-29T13:16:59.998Z</time>
</trkpt>
<trkpt lat="42.7596400" lon="-2.5857700">
<ele>826.221375</ele>
<time>2012-03-29T13:17:13.001Z</time>
</trkpt>
<trkpt lat="42.7597400" lon="-2.5858500">
<ele>823.539063</ele>
<time>2012-03-29T13:17:25.002Z</time>
</trkpt>
<trkpt lat="42.7597800" lon="-2.5859000">
<ele>821.253113</ele>
<time>2012-03-29T13:17:29.996Z</time>
</trkpt>
<trkpt lat="42.7598400" lon="-2.5859400">
<ele>819.332886</ele>
<time>2012-03-29T13:17:44.002Z</time>
</trkpt>
<trkpt lat="42.7598900" lon="-2.5859600">
<ele>818.753723</ele>
<time>2012-03-29T13:18:35.997Z</time>
</trkpt>
<trkpt lat="42.7599600" lon="-2.5859800">
<ele>818.418518</ele>
<time>2012-03-29T13:18:50.003Z</time>
</trkpt>
<trkpt lat="42.7599700" lon="-2.5860000">
<ele>817.778381</ele>
<time>2012-03-29T13:18:51.998Z</time>
</trkpt>
<trkpt lat="42.7600600" lon="-2.5860300">
<ele>815.827698</ele>
<time>2012-03-29T13:19:06.004Z</time>
</trkpt>
<trkpt lat="42.7601600" lon="-2.5861200">
<ele>813.541687</ele>
<time>2012-03-29T13:19:24.001Z</time>
</trkpt>
<trkpt lat="42.7603100" lon="-2.5861800">
<ele>810.646118</ele>
<time>2012-03-29T13:19:37.004Z</time>
</trkpt>
<trkpt lat="42.7603600" lon="-2.5861900">
<ele>810.615601</ele>
<time>2012-03-29T13:19:43.000Z</time>
</trkpt>
<trkpt lat="42.7604800" lon="-2.5862400">
<ele>809.152527</ele>
<time>2012-03-29T13:19:57.999Z</time>
</trkpt>
<trkpt lat="42.7606300" lon="-2.5862700">
<ele>807.811462</ele>
<time>2012-03-29T13:20:11.003Z</time>
</trkpt>
<trkpt lat="42.7606500" lon="-2.5862800">
<ele>807.415222</ele>
<time>2012-03-29T13:20:12.998Z</time>
</trkpt>
<trkpt lat="42.7607100" lon="-2.5863200">
<ele>806.043579</ele>
<time>2012-03-29T13:20:19.003Z</time>
</trkpt>
<trkpt lat="42.7607500" lon="-2.5863400">
<ele>805.708313</ele>
<time>2012-03-29T13:20:23.997Z</time>
</trkpt>
<trkpt lat="42.7608700" lon="-2.5863800">
<ele>804.245300</ele>
<time>2012-03-29T13:20:34.996Z</time>
</trkpt>
<trkpt lat="42.7609500" lon="-2.5863900">
<ele>803.666138</ele>
<time>2012-03-29T13:20:39.998Z</time>
</trkpt>
<trkpt lat="42.7610600" lon="-2.5864500">
<ele>802.446960</ele>
<time>2012-03-29T13:20:50.997Z</time>
</trkpt>
<trkpt lat="42.7611600" lon="-2.5864900">
<ele>801.319214</ele>
<time>2012-03-29T13:21:01.002Z</time>
</trkpt>
<trkpt lat="42.7612000" lon="-2.5865700">
<ele>798.697876</ele>
<time>2012-03-29T13:21:08.001Z</time>
</trkpt>
<trkpt lat="42.7611600" lon="-2.5866500">
<ele>795.863281</ele>
<time>2012-03-29T13:21:21.004Z</time>
</trkpt>
<trkpt lat="42.7611200" lon="-2.5866600">
<ele>795.497498</ele>
<time>2012-03-29T13:21:36.996Z</time>
</trkpt>
<trkpt lat="42.7609300" lon="-2.5867100">
<ele>796.076660</ele>
<time>2012-03-29T13:21:51.002Z</time>
</trkpt>
<trkpt lat="42.7609200" lon="-2.5867200">
<ele>795.802307</ele>
<time>2012-03-29T13:21:52.004Z</time>
</trkpt>
<trkpt lat="42.7607200" lon="-2.5867700">
<ele>796.198547</ele>
<time>2012-03-29T13:22:07.003Z</time>
</trkpt>
<trkpt lat="42.7606200" lon="-2.5867900">
<ele>795.863281</ele>
<time>2012-03-29T13:22:15.997Z</time>
</trkpt>
<trkpt lat="42.7604800" lon="-2.5868000">
<ele>796.686279</ele>
<time>2012-03-29T13:22:26.996Z</time>
</trkpt>
<trkpt lat="42.7603000" lon="-2.5868400">
<ele>796.747192</ele>
<time>2012-03-29T13:22:39.999Z</time>
</trkpt>
<trkpt lat="42.7601100" lon="-2.5868800">
<ele>796.899597</ele>
<time>2012-03-29T13:22:53.003Z</time>
</trkpt>
<trkpt lat="42.7599300" lon="-2.5869300">
<ele>794.887878</ele>
<time>2012-03-29T13:23:05.004Z</time>
</trkpt>
<trkpt lat="42.7598300" lon="-2.5869400">
<ele>794.644104</ele>
<time>2012-03-29T13:23:12.002Z</time>
</trkpt>
<trkpt lat="42.7597300" lon="-2.5869600">
<ele>794.461182</ele>
<time>2012-03-29T13:23:19.000Z</time>
</trkpt>
<trkpt lat="42.7595100" lon="-2.5870000">
<ele>793.882080</ele>
<time>2012-03-29T13:23:33.999Z</time>
</trkpt>
<trkpt lat="42.7593200" lon="-2.5870500">
<ele>793.821106</ele>
<time>2012-03-29T13:23:48.998Z</time>
</trkpt>
<trkpt lat="42.7593200" lon="-2.5870400">
<ele>793.943054</ele>
<time>2012-03-29T13:23:51.996Z</time>
</trkpt>
<trkpt lat="42.7591300" lon="-2.5870100">
<ele>793.302917</ele>
<time>2012-03-29T13:24:07.004Z</time>
</trkpt>
<trkpt lat="42.7590600" lon="-2.5870000">
<ele>792.175171</ele>
<time>2012-03-29T13:24:13.000Z</time>
</trkpt>
<trkpt lat="42.7589200" lon="-2.5869300">
<ele>792.388550</ele>
<time>2012-03-29T13:24:30.004Z</time>
</trkpt>
<trkpt lat="42.7587100" lon="-2.5868700">
<ele>788.517578</ele>
<time>2012-03-29T13:24:46.999Z</time>
</trkpt>
<trkpt lat="42.7585700" lon="-2.5868000">
<ele>787.024109</ele>
<time>2012-03-29T13:24:57.997Z</time>
</trkpt>
<trkpt lat="42.7585100" lon="-2.5867700">
<ele>787.054565</ele>
<time>2012-03-29T13:25:13.999Z</time>
</trkpt>
<trkpt lat="42.7585000" lon="-2.5867600">
<ele>787.298401</ele>
<time>2012-03-29T13:25:43.997Z</time>
</trkpt>
<trkpt lat="42.7584200" lon="-2.5867800">
<ele>785.774414</ele>
<time>2012-03-29T13:27:14.000Z</time>
</trkpt>
<trkpt lat="42.7583800" lon="-2.5867800">
<ele>785.439087</ele>
<time>2012-03-29T13:27:18.000Z</time>
</trkpt>
<trkpt lat="42.7582200" lon="-2.5867600">
<ele>786.140137</ele>
<time>2012-03-29T13:27:31.997Z</time>
</trkpt>
<trkpt lat="42.7581200" lon="-2.5867500">
<ele>785.347717</ele>
<time>2012-03-29T13:27:39.004Z</time>
</trkpt>
<trkpt lat="42.7580200" lon="-2.5866800">
<ele>786.414490</ele>
<time>2012-03-29T13:27:45.000Z</time>
</trkpt>
<trkpt lat="42.7578900" lon="-2.5867100">
<ele>785.957336</ele>
<time>2012-03-29T13:27:57.001Z</time>
</trkpt>
<trkpt lat="42.7577200" lon="-2.5866400">
<ele>785.926819</ele>
<time>2012-03-29T13:28:10.998Z</time>
</trkpt>
<trkpt lat="42.7576700" lon="-2.5866100">
<ele>786.231628</ele>
<time>2012-03-29T13:28:16.000Z</time>
</trkpt>
<trkpt lat="42.7576000" lon="-2.5866500">
<ele>785.865845</ele>
<time>2012-03-29T13:28:21.003Z</time>
</trkpt>
<trkpt lat="42.7574900" lon="-2.5867200">
<ele>786.170654</ele>
<time>2012-03-29T13:28:32.002Z</time>
</trkpt>
<trkpt lat="42.7574400" lon="-2.5867500">
<ele>786.597351</ele>
<time>2012-03-29T13:28:36.002Z</time>
</trkpt>
<trkpt lat="42.7574200" lon="-2.5867600">
<ele>786.688782</ele>
<time>2012-03-29T13:28:37.998Z</time>
</trkpt>
<trkpt lat="42.7573100" lon="-2.5869100">
<ele>786.262085</ele>
<time>2012-03-29T13:28:49.999Z</time>
</trkpt>
<trkpt lat="42.7572200" lon="-2.5870000">
<ele>786.140137</ele>
<time>2012-03-29T13:28:57.999Z</time>
</trkpt>
<trkpt lat="42.7570900" lon="-2.5871400">
<ele>786.597351</ele>
<time>2012-03-29T13:29:14.001Z</time>
</trkpt>
<trkpt lat="42.7570400" lon="-2.5871600">
<ele>787.237427</ele>
<time>2012-03-29T13:29:18.001Z</time>
</trkpt>
<trkpt lat="42.7569500" lon="-2.5872900">
<ele>785.957336</ele>
<time>2012-03-29T13:29:31.998Z</time>
</trkpt>
<trkpt lat="42.7569300" lon="-2.5873000">
<ele>786.109680</ele>
<time>2012-03-29T13:29:34.002Z</time>
</trkpt>
<trkpt lat="42.7567900" lon="-2.5874700">
<ele>784.524719</ele>
<time>2012-03-29T13:29:49.001Z</time>
</trkpt>
<trkpt lat="42.7566400" lon="-2.5876300">
<ele>783.640808</ele>
<time>2012-03-29T13:30:04.000Z</time>
</trkpt>
<trkpt lat="42.7565400" lon="-2.5877500">
<ele>781.141479</ele>
<time>2012-03-29T13:30:14.999Z</time>
</trkpt>
<trkpt lat="42.7564800" lon="-2.5877900">
<ele>779.647888</ele>
<time>2012-03-29T13:30:20.002Z</time>
</trkpt>
<trkpt lat="42.7564600" lon="-2.5878100">
<ele>779.312683</ele>
<time>2012-03-29T13:30:21.997Z</time>
</trkpt>
<trkpt lat="42.7563600" lon="-2.5878900">
<ele>779.068787</ele>
<time>2012-03-29T13:30:29.998Z</time>
</trkpt>
<trkpt lat="42.7562500" lon="-2.5880000">
<ele>778.672546</ele>
<time>2012-03-29T13:30:41.999Z</time>
</trkpt>
<trkpt lat="42.7562100" lon="-2.5880100">
<ele>778.916382</ele>
<time>2012-03-29T13:30:47.002Z</time>
</trkpt>
<trkpt lat="42.7561100" lon="-2.5881000">
<ele>778.733521</ele>
<time>2012-03-29T13:30:59.996Z</time>
</trkpt>
<trkpt lat="42.7560800" lon="-2.5881100">
<ele>779.007874</ele>
<time>2012-03-29T13:31:02.001Z</time>
</trkpt>
<trkpt lat="42.7560300" lon="-2.5881500">
<ele>778.154419</ele>
<time>2012-03-29T13:31:07.003Z</time>
</trkpt>
<trkpt lat="42.7559300" lon="-2.5881800">
<ele>776.965698</ele>
<time>2012-03-29T13:31:17.000Z</time>
</trkpt>
<trkpt lat="42.7557300" lon="-2.5882900">
<ele>770.138123</ele>
<time>2012-03-29T13:31:33.001Z</time>
</trkpt>
<trkpt lat="42.7554500" lon="-2.5883300">
<ele>771.845032</ele>
<time>2012-03-29T13:31:56.001Z</time>
</trkpt>
<trkpt lat="42.7552800" lon="-2.5884100">
<ele>771.022095</ele>
<time>2012-03-29T13:32:08.002Z</time>
</trkpt>
<trkpt lat="42.7551500" lon="-2.5884400">
<ele>770.260132</ele>
<time>2012-03-29T13:32:17.998Z</time>
</trkpt>
<trkpt lat="42.7550500" lon="-2.5884100">
<ele>770.046692</ele>
<time>2012-03-29T13:32:27.001Z</time>
</trkpt>
<trkpt lat="42.7548700" lon="-2.5884600">
<ele>768.400818</ele>
<time>2012-03-29T13:32:40.004Z</time>
</trkpt>
<trkpt lat="42.7546600" lon="-2.5884500">
<ele>766.297729</ele>
<time>2012-03-29T13:32:55.997Z</time>
</trkpt>
<trkpt lat="42.7545500" lon="-2.5884200">
<ele>766.267212</ele>
<time>2012-03-29T13:33:03.997Z</time>
</trkpt>
<trkpt lat="42.7544100" lon="-2.5883200">
<ele>767.882629</ele>
<time>2012-03-29T13:33:17.001Z</time>
</trkpt>
<trkpt lat="42.7543400" lon="-2.5883300">
<ele>766.846313</ele>
<time>2012-03-29T13:33:21.001Z</time>
</trkpt>
<trkpt lat="42.7541600" lon="-2.5883500">
<ele>766.175720</ele>
<time>2012-03-29T13:33:34.998Z</time>
</trkpt>
<trkpt lat="42.7539500" lon="-2.5883400">
<ele>766.480530</ele>
<time>2012-03-29T13:33:50.999Z</time>
</trkpt>
<trkpt lat="42.7539200" lon="-2.5883500">
<ele>766.358643</ele>
<time>2012-03-29T13:33:52.001Z</time>
</trkpt>
<trkpt lat="42.7537600" lon="-2.5884100">
<ele>765.566162</ele>
<time>2012-03-29T13:34:04.002Z</time>
</trkpt>
<trkpt lat="42.7536700" lon="-2.5884500">
<ele>765.230896</ele>
<time>2012-03-29T13:34:11.001Z</time>
</trkpt>
<trkpt lat="42.7534600" lon="-2.5885200">
<ele>764.865112</ele>
<time>2012-03-29T13:34:27.002Z</time>
</trkpt>
<trkpt lat="42.7533200" lon="-2.5886000">
<ele>764.072632</ele>
<time>2012-03-29T13:34:43.003Z</time>
</trkpt>
<trkpt lat="42.7533000" lon="-2.5886100">
<ele>764.042175</ele>
<time>2012-03-29T13:34:47.997Z</time>
</trkpt>
<trkpt lat="42.7532800" lon="-2.5886100">
<ele>764.164124</ele>
<time>2012-03-29T13:34:50.002Z</time>
</trkpt>
<trkpt lat="42.7531000" lon="-2.5887000">
<ele>763.706909</ele>
<time>2012-03-29T13:35:06.003Z</time>
</trkpt>
<trkpt lat="42.7530000" lon="-2.5888000">
<ele>762.274292</ele>
<time>2012-03-29T13:35:18.004Z</time>
</trkpt>
<trkpt lat="42.7529400" lon="-2.5888200">
<ele>762.213318</ele>
<time>2012-03-29T13:35:30.998Z</time>
</trkpt>
<trkpt lat="42.7528000" lon="-2.5888300">
<ele>761.542786</ele>
<time>2012-03-29T13:35:40.001Z</time>
</trkpt>
<trkpt lat="42.7526200" lon="-2.5888000">
<ele>761.939026</ele>
<time>2012-03-29T13:35:52.996Z</time>
</trkpt>
<trkpt lat="42.7525500" lon="-2.5888100">
<ele>761.756165</ele>
<time>2012-03-29T13:35:57.998Z</time>
</trkpt>
<trkpt lat="42.7525300" lon="-2.5888500">
<ele>761.359863</ele>
<time>2012-03-29T13:36:01.999Z</time>
</trkpt>
<trkpt lat="42.7524600" lon="-2.5889200">
<ele>760.902710</ele>
<time>2012-03-29T13:36:15.002Z</time>
</trkpt>
<trkpt lat="42.7524400" lon="-2.5889100">
<ele>761.390381</ele>
<time>2012-03-29T13:36:18.000Z</time>
</trkpt>
<trkpt lat="42.7523600" lon="-2.5889400">
<ele>761.634277</ele>
<time>2012-03-29T13:36:22.000Z</time>
</trkpt>
<trkpt lat="42.7522300" lon="-2.5890300">
<ele>761.878113</ele>
<time>2012-03-29T13:36:31.003Z</time>
</trkpt>
<trkpt lat="42.7522000" lon="-2.5891400">
<ele>760.415039</ele>
<time>2012-03-29T13:36:35.997Z</time>
</trkpt>
<trkpt lat="42.7521300" lon="-2.5892200">
<ele>759.195862</ele>
<time>2012-03-29T13:36:50.996Z</time>
</trkpt>
<trkpt lat="42.7520100" lon="-2.5892300">
<ele>759.165344</ele>
<time>2012-03-29T13:37:03.999Z</time>
</trkpt>
<trkpt lat="42.7519000" lon="-2.5892500">
<ele>757.946167</ele>
<time>2012-03-29T13:37:13.996Z</time>
</trkpt>
<trkpt lat="42.7518300" lon="-2.5892500">
<ele>757.946167</ele>
<time>2012-03-29T13:37:29.004Z</time>
</trkpt>
<trkpt lat="42.7517600" lon="-2.5892500">
<ele>758.007080</ele>
<time>2012-03-29T13:37:52.997Z</time>
</trkpt>
<trkpt lat="42.7515200" lon="-2.5892600">
<ele>757.793762</ele>
<time>2012-03-29T13:38:11.996Z</time>
</trkpt>
<trkpt lat="42.7513900" lon="-2.5893200">
<ele>756.848938</ele>
<time>2012-03-29T13:38:24.999Z</time>
</trkpt>
<trkpt lat="42.7512700" lon="-2.5893300">
<ele>757.488953</ele>
<time>2012-03-29T13:38:33.000Z</time>
</trkpt>
<trkpt lat="42.7511900" lon="-2.5893300">
<ele>758.494812</ele>
<time>2012-03-29T13:38:38.996Z</time>
</trkpt>
<trkpt lat="42.7510300" lon="-2.5893500">
<ele>758.494812</ele>
<time>2012-03-29T13:38:53.002Z</time>
</trkpt>
<trkpt lat="42.7508500" lon="-2.5894300">
<ele>757.885193</ele>
<time>2012-03-29T13:39:06.998Z</time>
</trkpt>
<trkpt lat="42.7508300" lon="-2.5894400">
<ele>757.702271</ele>
<time>2012-03-29T13:39:09.003Z</time>
</trkpt>
<trkpt lat="42.7507800" lon="-2.5894700">
<ele>757.397461</ele>
<time>2012-03-29T13:39:13.003Z</time>
</trkpt>
<trkpt lat="42.7506600" lon="-2.5895700">
<ele>756.452637</ele>
<time>2012-03-29T13:39:25.004Z</time>
</trkpt>
<trkpt lat="42.7506500" lon="-2.5896100">
<ele>756.117371</ele>
<time>2012-03-29T13:39:28.996Z</time>
</trkpt>
<trkpt lat="42.7505000" lon="-2.5897500">
<ele>754.989624</ele>
<time>2012-03-29T13:39:44.997Z</time>
</trkpt>
<trkpt lat="42.7503800" lon="-2.5897800">
<ele>754.715332</ele>
<time>2012-03-29T13:39:55.996Z</time>
</trkpt>
<trkpt lat="42.7501800" lon="-2.5897900">
<ele>753.435120</ele>
<time>2012-03-29T13:40:10.001Z</time>
</trkpt>
<trkpt lat="42.7501600" lon="-2.5897900">
<ele>753.465576</ele>
<time>2012-03-29T13:40:12.999Z</time>
</trkpt>
<trkpt lat="42.7500900" lon="-2.5897800">
<ele>753.739868</ele>
<time>2012-03-29T13:40:19.998Z</time>
</trkpt>
<trkpt lat="42.7500300" lon="-2.5897700">
<ele>753.831360</ele>
<time>2012-03-29T13:40:25.000Z</time>
</trkpt>
<trkpt lat="42.7499800" lon="-2.5897300">
<ele>753.953308</ele>
<time>2012-03-29T13:40:38.997Z</time>
</trkpt>
<trkpt lat="42.7499200" lon="-2.5897000">
<ele>754.349487</ele>
<time>2012-03-29T13:40:54.998Z</time>
</trkpt>
<trkpt lat="42.7499200" lon="-2.5897700">
<ele>753.983765</ele>
<time>2012-03-29T13:41:24.003Z</time>
</trkpt>
<trkpt lat="42.7499100" lon="-2.5897900">
<ele>754.075195</ele>
<time>2012-03-29T13:41:25.999Z</time>
</trkpt>
<trkpt lat="42.7499100" lon="-2.5898700">
<ele>754.136169</ele>
<time>2012-03-29T13:41:44.998Z</time>
</trkpt>
<trkpt lat="42.7498700" lon="-2.5900500">
<ele>753.526550</ele>
<time>2012-03-29T13:41:59.997Z</time>
</trkpt>
<trkpt lat="42.7498600" lon="-2.5900800">
<ele>753.617981</ele>
<time>2012-03-29T13:42:02.002Z</time>
</trkpt>
<trkpt lat="42.7498900" lon="-2.5902100">
<ele>752.124512</ele>
<time>2012-03-29T13:42:14.003Z</time>
</trkpt>
<trkpt lat="42.7498800" lon="-2.5902300">
<ele>752.185425</ele>
<time>2012-03-29T13:42:25.001Z</time>
</trkpt>
<trkpt lat="42.7498000" lon="-2.5905000">
<ele>752.002563</ele>
<time>2012-03-29T13:42:40.000Z</time>
</trkpt>
<trkpt lat="42.7497200" lon="-2.5906100">
<ele>752.215881</ele>
<time>2012-03-29T13:42:49.997Z</time>
</trkpt>
<trkpt lat="42.7496900" lon="-2.5906800">
<ele>751.789185</ele>
<time>2012-03-29T13:42:56.002Z</time>
</trkpt>
<trkpt lat="42.7495900" lon="-2.5908200">
<ele>752.642639</ele>
<time>2012-03-29T13:43:09.998Z</time>
</trkpt>
<trkpt lat="42.7495300" lon="-2.5909200">
<ele>752.734131</ele>
<time>2012-03-29T13:43:17.999Z</time>
</trkpt>
<trkpt lat="42.7494400" lon="-2.5910900">
<ele>751.331970</ele>
<time>2012-03-29T13:43:30.000Z</time>
</trkpt>
<trkpt lat="42.7493800" lon="-2.5911700">
<ele>751.545349</ele>
<time>2012-03-29T13:43:35.996Z</time>
</trkpt>
<trkpt lat="42.7493800" lon="-2.5912100">
<ele>750.600525</ele>
<time>2012-03-29T13:43:38.001Z</time>
</trkpt>
<trkpt lat="42.7493000" lon="-2.5914600">
<ele>746.119873</ele>
<time>2012-03-29T13:43:51.997Z</time>
</trkpt>
<trkpt lat="42.7492400" lon="-2.5915600">
<ele>745.540771</ele>
<time>2012-03-29T13:43:59.998Z</time>
</trkpt>
<trkpt lat="42.7491900" lon="-2.5916400">
<ele>745.601746</ele>
<time>2012-03-29T13:44:06.003Z</time>
</trkpt>
<trkpt lat="42.7491400" lon="-2.5917000">
<ele>745.053101</ele>
<time>2012-03-29T13:44:10.997Z</time>
</trkpt>
<trkpt lat="42.7490000" lon="-2.5917600">
<ele>746.394226</ele>
<time>2012-03-29T13:44:24.000Z</time>
</trkpt>
<trkpt lat="42.7488000" lon="-2.5917800">
<ele>746.485718</ele>
<time>2012-03-29T13:44:40.001Z</time>
</trkpt>
<trkpt lat="42.7486500" lon="-2.5918800">
<ele>746.211365</ele>
<time>2012-03-29T13:44:53.998Z</time>
</trkpt>
<trkpt lat="42.7486300" lon="-2.5918900">
<ele>746.150391</ele>
<time>2012-03-29T13:44:56.003Z</time>
</trkpt>
<trkpt lat="42.7485100" lon="-2.5919200">
<ele>745.967468</ele>
<time>2012-03-29T13:45:04.997Z</time>
</trkpt>
<trkpt lat="42.7484800" lon="-2.5919300">
<ele>745.906555</ele>
<time>2012-03-29T13:45:08.997Z</time>
</trkpt>
<trkpt lat="42.7483400" lon="-2.5919200">
<ele>747.430542</ele>
<time>2012-03-29T13:45:23.996Z</time>
</trkpt>
<trkpt lat="42.7481000" lon="-2.5919800">
<ele>747.765869</ele>
<time>2012-03-29T13:45:42.002Z</time>
</trkpt>
<trkpt lat="42.7479200" lon="-2.5920400">
<ele>746.699036</ele>
<time>2012-03-29T13:45:55.999Z</time>
</trkpt>
<trkpt lat="42.7477100" lon="-2.5921100">
<ele>745.754150</ele>
<time>2012-03-29T13:46:13.002Z</time>
</trkpt>
<trkpt lat="42.7476400" lon="-2.5921600">
<ele>745.540771</ele>
<time>2012-03-29T13:46:20.001Z</time>
</trkpt>
<trkpt lat="42.7476100" lon="-2.5921600">
<ele>746.028503</ele>
<time>2012-03-29T13:46:21.996Z</time>
</trkpt>
<trkpt lat="42.7474900" lon="-2.5922400">
<ele>745.388428</ele>
<time>2012-03-29T13:46:35.000Z</time>
</trkpt>
<trkpt lat="42.7474900" lon="-2.5922500">
<ele>745.236023</ele>
<time>2012-03-29T13:46:36.002Z</time>
</trkpt>
<trkpt lat="42.7474600" lon="-2.5922600">
<ele>745.114136</ele>
<time>2012-03-29T13:46:37.998Z</time>
</trkpt>
<trkpt lat="42.7474000" lon="-2.5922800">
<ele>745.114136</ele>
<time>2012-03-29T13:46:43.000Z</time>
</trkpt>
<trkpt lat="42.7472300" lon="-2.5924400">
<ele>744.687317</ele>
<time>2012-03-29T13:46:57.999Z</time>
</trkpt>
<trkpt lat="42.7471600" lon="-2.5924500">
<ele>744.778809</ele>
<time>2012-03-29T13:47:04.004Z</time>
</trkpt>
<trkpt lat="42.7470700" lon="-2.5925000">
<ele>744.534973</ele>
<time>2012-03-29T13:47:16.999Z</time>
</trkpt>
<trkpt lat="42.7470000" lon="-2.5925500">
<ele>744.748291</ele>
<time>2012-03-29T13:47:23.997Z</time>
</trkpt>
<trkpt lat="42.7469800" lon="-2.5925800">
<ele>744.687317</ele>
<time>2012-03-29T13:47:27.004Z</time>
</trkpt>
<trkpt lat="42.7469500" lon="-2.5925700">
<ele>745.388428</ele>
<time>2012-03-29T13:47:29.000Z</time>
</trkpt>
<trkpt lat="42.7469200" lon="-2.5926100">
<ele>744.565430</ele>
<time>2012-03-29T13:47:33.000Z</time>
</trkpt>
<trkpt lat="42.7467700" lon="-2.5926900">
<ele>744.169189</ele>
<time>2012-03-29T13:47:50.997Z</time>
</trkpt>
<trkpt lat="42.7467200" lon="-2.5927000">
<ele>743.986267</ele>
<time>2012-03-29T13:47:54.997Z</time>
</trkpt>
<trkpt lat="42.7465700" lon="-2.5927000">
<ele>745.296936</ele>
<time>2012-03-29T13:48:06.998Z</time>
</trkpt>
<trkpt lat="42.7463900" lon="-2.5927900">
<ele>742.919495</ele>
<time>2012-03-29T13:48:21.004Z</time>
</trkpt>
<trkpt lat="42.7462900" lon="-2.5928000">
<ele>742.035583</ele>
<time>2012-03-29T13:48:27.000Z</time>
</trkpt>
<trkpt lat="42.7462700" lon="-2.5927900">
<ele>741.761292</ele>
<time>2012-03-29T13:48:28.996Z</time>
</trkpt>
<trkpt lat="42.7462000" lon="-2.5927200">
<ele>742.523315</ele>
<time>2012-03-29T13:48:36.996Z</time>
</trkpt>
<trkpt lat="42.7461100" lon="-2.5927600">
<ele>742.370911</ele>
<time>2012-03-29T13:48:41.999Z</time>
</trkpt>
<trkpt lat="42.7460000" lon="-2.5926900">
<ele>742.340393</ele>
<time>2012-03-29T13:48:55.002Z</time>
</trkpt>
<trkpt lat="42.7459100" lon="-2.5926700">
<ele>741.121216</ele>
<time>2012-03-29T13:49:00.998Z</time>
</trkpt>
<trkpt lat="42.7458800" lon="-2.5926700">
<ele>740.877319</ele>
<time>2012-03-29T13:49:03.003Z</time>
</trkpt>
<trkpt lat="42.7457100" lon="-2.5926500">
<ele>740.054382</ele>
<time>2012-03-29T13:49:17.000Z</time>
</trkpt>
<trkpt lat="42.7456100" lon="-2.5926100">
<ele>739.536255</ele>
<time>2012-03-29T13:49:25.000Z</time>
</trkpt>
<trkpt lat="42.7454400" lon="-2.5925800">
<ele>738.896118</ele>
<time>2012-03-29T13:49:38.997Z</time>
</trkpt>
<trkpt lat="42.7453700" lon="-2.5925100">
<ele>739.018127</ele>
<time>2012-03-29T13:49:46.004Z</time>
</trkpt>
<trkpt lat="42.7452500" lon="-2.5925000">
<ele>739.048523</ele>
<time>2012-03-29T13:49:56.001Z</time>
</trkpt>
<trkpt lat="42.7451500" lon="-2.5924800">
<ele>739.566711</ele>
<time>2012-03-29T13:50:05.004Z</time>
</trkpt>
<trkpt lat="42.7449900" lon="-2.5924800">
<ele>739.627686</ele>
<time>2012-03-29T13:50:19.000Z</time>
</trkpt>
<trkpt lat="42.7449300" lon="-2.5924700">
<ele>740.084900</ele>
<time>2012-03-29T13:50:24.003Z</time>
</trkpt>
<trkpt lat="42.7448900" lon="-2.5925000">
<ele>738.957092</ele>
<time>2012-03-29T13:50:28.003Z</time>
</trkpt>
<trkpt lat="42.7448700" lon="-2.5925000">
<ele>738.957092</ele>
<time>2012-03-29T13:50:29.999Z</time>
</trkpt>
<trkpt lat="42.7448100" lon="-2.5925100">
<ele>738.713318</ele>
<time>2012-03-29T13:50:36.997Z</time>
</trkpt>
<trkpt lat="42.7447600" lon="-2.5925400">
<ele>738.164673</ele>
<time>2012-03-29T13:50:40.998Z</time>
</trkpt>
<trkpt lat="42.7446700" lon="-2.5925300">
<ele>738.469482</ele>
<time>2012-03-29T13:50:55.997Z</time>
</trkpt>
<trkpt lat="42.7446000" lon="-2.5925400">
<ele>738.164673</ele>
<time>2012-03-29T13:51:00.999Z</time>
</trkpt>
<trkpt lat="42.7444200" lon="-2.5925400">
<ele>739.414307</ele>
<time>2012-03-29T13:51:14.996Z</time>
</trkpt>
<trkpt lat="42.7443300" lon="-2.5925300">
<ele>740.359192</ele>
<time>2012-03-29T13:51:26.997Z</time>
</trkpt>
<trkpt lat="42.7441900" lon="-2.5925100">
<ele>742.675720</ele>
<time>2012-03-29T13:51:41.003Z</time>
</trkpt>
<trkpt lat="42.7441400" lon="-2.5924900">
<ele>744.169189</ele>
<time>2012-03-29T14:19:50.002Z</time>
</trkpt>
<trkpt lat="42.7440900" lon="-2.5925000">
<ele>744.900696</ele>
<time>2012-03-29T14:19:54.002Z</time>
</trkpt>
<trkpt lat="42.7439100" lon="-2.5925800">
<ele>746.394226</ele>
<time>2012-03-29T14:20:07.999Z</time>
</trkpt>
<trkpt lat="42.7438100" lon="-2.5926300">
<ele>748.101074</ele>
<time>2012-03-29T14:20:18.997Z</time>
</trkpt>
<trkpt lat="42.7437000" lon="-2.5926800">
<ele>748.985046</ele>
<time>2012-03-29T14:20:30.998Z</time>
</trkpt>
<trkpt lat="42.7435500" lon="-2.5928100">
<ele>747.430542</ele>
<time>2012-03-29T14:20:44.002Z</time>
</trkpt>
<trkpt lat="42.7434300" lon="-2.5928700">
<ele>747.582947</ele>
<time>2012-03-29T14:20:56.996Z</time>
</trkpt>
<trkpt lat="42.7432700" lon="-2.5928900">
<ele>749.289856</ele>
<time>2012-03-29T14:21:09.999Z</time>
</trkpt>
<trkpt lat="42.7431200" lon="-2.5929500">
<ele>748.741211</ele>
<time>2012-03-29T14:21:22.000Z</time>
</trkpt>
<trkpt lat="42.7430200" lon="-2.5929700">
<ele>748.985046</ele>
<time>2012-03-29T14:21:34.001Z</time>
</trkpt>
<trkpt lat="42.7429200" lon="-2.5930200">
<ele>747.948669</ele>
<time>2012-03-29T14:21:46.002Z</time>
</trkpt>
<trkpt lat="42.7428100" lon="-2.5930300">
<ele>748.802124</ele>
<time>2012-03-29T14:21:55.999Z</time>
</trkpt>
<trkpt lat="42.7428000" lon="-2.5930200">
<ele>749.350830</ele>
<time>2012-03-29T14:21:58.003Z</time>
</trkpt>
<trkpt lat="42.7426400" lon="-2.5930900">
<ele>749.442261</ele>
<time>2012-03-29T14:22:10.998Z</time>
</trkpt>
<trkpt lat="42.7426000" lon="-2.5931200">
<ele>748.832642</ele>
<time>2012-03-29T14:22:22.999Z</time>
</trkpt>
<trkpt lat="42.7424600" lon="-2.5932000">
<ele>747.918274</ele>
<time>2012-03-29T14:22:49.999Z</time>
</trkpt>
<trkpt lat="42.7423000" lon="-2.5932700">
<ele>747.339111</ele>
<time>2012-03-29T14:23:02.000Z</time>
</trkpt>
<trkpt lat="42.7422200" lon="-2.5932900">
<ele>746.912415</ele>
<time>2012-03-29T14:23:10.000Z</time>
</trkpt>
<trkpt lat="42.7420600" lon="-2.5933400">
<ele>746.394226</ele>
<time>2012-03-29T14:23:26.002Z</time>
</trkpt>
<trkpt lat="42.7418900" lon="-2.5933700">
<ele>745.144531</ele>
<time>2012-03-29T14:23:37.000Z</time>
</trkpt>
<trkpt lat="42.7417800" lon="-2.5933500">
<ele>745.449341</ele>
<time>2012-03-29T14:23:50.997Z</time>
</trkpt>
<trkpt lat="42.7416300" lon="-2.5933800">
<ele>742.492798</ele>
<time>2012-03-29T14:24:02.998Z</time>
</trkpt>
<trkpt lat="42.7415800" lon="-2.5933700">
<ele>742.340393</ele>
<time>2012-03-29T14:24:06.998Z</time>
</trkpt>
<trkpt lat="42.7414100" lon="-2.5933600">
<ele>740.237305</ele>
<time>2012-03-29T14:24:20.002Z</time>
</trkpt>
<trkpt lat="42.7413100" lon="-2.5934000">
<ele>737.433105</ele>
<time>2012-03-29T14:24:32.003Z</time>
</trkpt>
<trkpt lat="42.7412300" lon="-2.5934200">
<ele>736.213867</ele>
<time>2012-03-29T14:24:37.999Z</time>
</trkpt>
<trkpt lat="42.7412000" lon="-2.5934000">
<ele>736.488281</ele>
<time>2012-03-29T14:24:41.999Z</time>
</trkpt>
<trkpt lat="42.7411500" lon="-2.5933900">
<ele>735.238525</ele>
<time>2012-03-29T14:24:47.002Z</time>
</trkpt>
<trkpt lat="42.7410200" lon="-2.5933700">
<ele>732.434387</ele>
<time>2012-03-29T14:24:59.996Z</time>
</trkpt>
<trkpt lat="42.7408700" lon="-2.5933500">
<ele>729.538818</ele>
<time>2012-03-29T14:25:11.997Z</time>
</trkpt>
<trkpt lat="42.7408500" lon="-2.5933500">
<ele>729.203491</ele>
<time>2012-03-29T14:25:12.999Z</time>
</trkpt>
<trkpt lat="42.7407500" lon="-2.5932700">
<ele>729.264526</ele>
<time>2012-03-29T14:25:26.996Z</time>
</trkpt>
<trkpt lat="42.7406300" lon="-2.5932100">
<ele>728.837769</ele>
<time>2012-03-29T14:25:34.997Z</time>
</trkpt>
<trkpt lat="42.7406200" lon="-2.5931600">
<ele>729.355896</ele>
<time>2012-03-29T14:25:41.002Z</time>
</trkpt>
<trkpt lat="42.7404500" lon="-2.5930500">
<ele>729.081604</ele>
<time>2012-03-29T14:25:56.001Z</time>
</trkpt>
<trkpt lat="42.7404200" lon="-2.5930300">
<ele>729.051086</ele>
<time>2012-03-29T14:25:58.999Z</time>
</trkpt>
<trkpt lat="42.7403600" lon="-2.5930200">
<ele>728.654907</ele>
<time>2012-03-29T14:26:04.001Z</time>
</trkpt>
<trkpt lat="42.7401500" lon="-2.5930200">
<ele>726.582275</ele>
<time>2012-03-29T14:26:19.000Z</time>
</trkpt>
<trkpt lat="42.7400000" lon="-2.5930700">
<ele>724.174316</ele>
<time>2012-03-29T14:26:29.999Z</time>
</trkpt>
<trkpt lat="42.7398500" lon="-2.5930900">
<ele>724.540100</ele>
<time>2012-03-29T14:26:42.000Z</time>
</trkpt>
<trkpt lat="42.7396700" lon="-2.5931100">
<ele>724.174316</ele>
<time>2012-03-29T14:26:54.001Z</time>
</trkpt>
<trkpt lat="42.7394900" lon="-2.5931100">
<ele>723.320923</ele>
<time>2012-03-29T14:27:07.998Z</time>
</trkpt>
<trkpt lat="42.7393300" lon="-2.5931200">
<ele>723.107483</ele>
<time>2012-03-29T14:27:21.001Z</time>
</trkpt>
<trkpt lat="42.7392100" lon="-2.5930800">
<ele>723.229431</ele>
<time>2012-03-29T14:27:32.000Z</time>
</trkpt>
<trkpt lat="42.7391100" lon="-2.5930900">
<ele>721.827332</ele>
<time>2012-03-29T14:27:40.000Z</time>
</trkpt>
<trkpt lat="42.7389600" lon="-2.5929800">
<ele>723.991455</ele>
<time>2012-03-29T14:27:53.004Z</time>
</trkpt>
<trkpt lat="42.7388800" lon="-2.5928900">
<ele>725.972656</ele>
<time>2012-03-29T14:28:04.996Z</time>
</trkpt>
<trkpt lat="42.7388600" lon="-2.5928300">
<ele>727.466125</ele>
<time>2012-03-29T14:28:12.003Z</time>
</trkpt>
<trkpt lat="42.7388800" lon="-2.5927700">
<ele>729.965515</ele>
<time>2012-03-29T14:28:28.998Z</time>
</trkpt>
<trkpt lat="42.7389000" lon="-2.5927400">
<ele>731.824829</ele>
<time>2012-03-29T14:29:18.004Z</time>
</trkpt>
<trkpt lat="42.7387900" lon="-2.5927900">
<ele>727.770935</ele>
<time>2012-03-29T14:29:33.003Z</time>
</trkpt>
<trkpt lat="42.7387600" lon="-2.5928000">
<ele>727.344238</ele>
<time>2012-03-29T14:29:48.002Z</time>
</trkpt>
<trkpt lat="42.7386900" lon="-2.5928200">
<ele>726.765076</ele>
<time>2012-03-29T14:30:23.003Z</time>
</trkpt>
<trkpt lat="42.7386100" lon="-2.5929000">
<ele>723.778137</ele>
<time>2012-03-29T14:30:31.997Z</time>
</trkpt>
<trkpt lat="42.7384600" lon="-2.5929900">
<ele>723.077026</ele>
<time>2012-03-29T14:30:46.002Z</time>
</trkpt>
<trkpt lat="42.7382600" lon="-2.5930500">
<ele>723.778137</ele>
<time>2012-03-29T14:30:59.999Z</time>
</trkpt>
<trkpt lat="42.7381300" lon="-2.5931300">
<ele>722.040710</ele>
<time>2012-03-29T14:31:13.996Z</time>
</trkpt>
<trkpt lat="42.7381100" lon="-2.5931500">
<ele>721.187317</ele>
<time>2012-03-29T14:31:16.000Z</time>
</trkpt>
<trkpt lat="42.7380700" lon="-2.5931900">
<ele>720.150940</ele>
<time>2012-03-29T14:31:20.001Z</time>
</trkpt>
<trkpt lat="42.7379400" lon="-2.5932500">
<ele>718.139282</ele>
<time>2012-03-29T14:31:29.997Z</time>
</trkpt>
<trkpt lat="42.7378900" lon="-2.5932600">
<ele>718.108826</ele>
<time>2012-03-29T14:31:33.997Z</time>
</trkpt>
<trkpt lat="42.7378000" lon="-2.5932800">
<ele>717.773499</ele>
<time>2012-03-29T14:31:41.998Z</time>
</trkpt>
<trkpt lat="42.7377700" lon="-2.5933000">
<ele>717.041992</ele>
<time>2012-03-29T14:31:45.998Z</time>
</trkpt>
<trkpt lat="42.7377300" lon="-2.5933400">
<ele>715.822815</ele>
<time>2012-03-29T14:31:51.001Z</time>
</trkpt>
<trkpt lat="42.7375500" lon="-2.5933900">
<ele>714.390259</ele>
<time>2012-03-29T14:32:06.000Z</time>
</trkpt>
<trkpt lat="42.7373900" lon="-2.5933800">
<ele>713.140564</ele>
<time>2012-03-29T14:32:20.999Z</time>
</trkpt>
<trkpt lat="42.7373400" lon="-2.5933500">
<ele>712.835754</ele>
<time>2012-03-29T14:32:26.002Z</time>
</trkpt>
<trkpt lat="42.7372000" lon="-2.5932200">
<ele>713.811096</ele>
<time>2012-03-29T14:32:41.001Z</time>
</trkpt>
<trkpt lat="42.7371600" lon="-2.5931900">
<ele>713.750122</ele>
<time>2012-03-29T14:32:57.002Z</time>
</trkpt>
<trkpt lat="42.7370700" lon="-2.5930300">
<ele>714.816956</ele>
<time>2012-03-29T14:33:10.999Z</time>
</trkpt>
<trkpt lat="42.7370100" lon="-2.5930000">
<ele>713.445374</ele>
<time>2012-03-29T14:33:16.001Z</time>
</trkpt>
<trkpt lat="42.7369000" lon="-2.5928400">
<ele>713.689209</ele>
<time>2012-03-29T14:33:28.996Z</time>
</trkpt>
<trkpt lat="42.7368200" lon="-2.5927800">
<ele>713.079590</ele>
<time>2012-03-29T14:33:36.003Z</time>
</trkpt>
<trkpt lat="42.7366900" lon="-2.5927100">
<ele>712.073730</ele>
<time>2012-03-29T14:33:50.000Z</time>
</trkpt>
<trkpt lat="42.7366500" lon="-2.5926700">
<ele>711.647034</ele>
<time>2012-03-29T14:34:22.996Z</time>
</trkpt>
<trkpt lat="42.7365500" lon="-2.5926500">
<ele>710.123047</ele>
<time>2012-03-29T14:34:31.999Z</time>
</trkpt>
<trkpt lat="42.7364400" lon="-2.5925500">
<ele>710.549744</ele>
<time>2012-03-29T14:34:44.000Z</time>
</trkpt>
<trkpt lat="42.7362800" lon="-2.5924700">
<ele>710.427856</ele>
<time>2012-03-29T14:34:56.001Z</time>
</trkpt>
<trkpt lat="42.7361500" lon="-2.5923500">
<ele>712.439514</ele>
<time>2012-03-29T14:35:09.004Z</time>
</trkpt>
<trkpt lat="42.7360400" lon="-2.5923000">
<ele>712.195740</ele>
<time>2012-03-29T14:35:19.000Z</time>
</trkpt>
<trkpt lat="42.7358300" lon="-2.5923100">
<ele>712.500488</ele>
<time>2012-03-29T14:35:35.002Z</time>
</trkpt>
<trkpt lat="42.7356900" lon="-2.5923300">
<ele>713.445374</ele>
<time>2012-03-29T14:35:47.003Z</time>
</trkpt>
<trkpt lat="42.7356800" lon="-2.5923300">
<ele>713.506287</ele>
<time>2012-03-29T14:35:47.996Z</time>
</trkpt>
<trkpt lat="42.7356100" lon="-2.5924000">
<ele>712.409058</ele>
<time>2012-03-29T14:35:55.003Z</time>
</trkpt>
<trkpt lat="42.7354700" lon="-2.5925100">
<ele>713.689209</ele>
<time>2012-03-29T14:36:09.000Z</time>
</trkpt>
<trkpt lat="42.7354600" lon="-2.5925300">
<ele>713.506287</ele>
<time>2012-03-29T14:36:10.002Z</time>
</trkpt>
<trkpt lat="42.7354200" lon="-2.5925900">
<ele>712.957703</ele>
<time>2012-03-29T14:36:14.003Z</time>
</trkpt>
<trkpt lat="42.7353700" lon="-2.5926300">
<ele>713.902527</ele>
<time>2012-03-29T14:36:18.996Z</time>
</trkpt>
<trkpt lat="42.7353200" lon="-2.5926600">
<ele>714.634094</ele>
<time>2012-03-29T14:36:22.997Z</time>
</trkpt>
<trkpt lat="42.7352300" lon="-2.5927800">
<ele>713.841614</ele>
<time>2012-03-29T14:36:33.002Z</time>
</trkpt>
<trkpt lat="42.7351600" lon="-2.5927900">
<ele>715.914246</ele>
<time>2012-03-29T14:36:38.998Z</time>
</trkpt>
<trkpt lat="42.7351100" lon="-2.5928000">
<ele>717.316284</ele>
<time>2012-03-29T14:36:42.998Z</time>
</trkpt>
<trkpt lat="42.7350300" lon="-2.5928400">
<ele>718.261230</ele>
<time>2012-03-29T14:36:59.000Z</time>
</trkpt>
<trkpt lat="42.7350000" lon="-2.5928700">
<ele>718.352661</ele>
<time>2012-03-29T14:37:01.998Z</time>
</trkpt>
<trkpt lat="42.7349700" lon="-2.5929000">
<ele>718.779358</ele>
<time>2012-03-29T14:37:04.996Z</time>
</trkpt>
<trkpt lat="42.7349600" lon="-2.5929500">
<ele>717.682129</ele>
<time>2012-03-29T14:37:08.996Z</time>
</trkpt>
<trkpt lat="42.7349400" lon="-2.5930900">
<ele>714.390259</ele>
<time>2012-03-29T14:37:17.999Z</time>
</trkpt>
<trkpt lat="42.7349200" lon="-2.5931300">
<ele>713.902527</ele>
<time>2012-03-29T14:37:20.997Z</time>
</trkpt>
<trkpt lat="42.7348500" lon="-2.5932000">
<ele>714.237854</ele>
<time>2012-03-29T14:37:28.998Z</time>
</trkpt>
<trkpt lat="42.7348300" lon="-2.5932300">
<ele>714.237854</ele>
<time>2012-03-29T14:37:44.999Z</time>
</trkpt>
<trkpt lat="42.7348000" lon="-2.5932500">
<ele>714.877869</ele>
<time>2012-03-29T14:37:47.997Z</time>
</trkpt>
<trkpt lat="42.7347700" lon="-2.5932800">
<ele>714.603577</ele>
<time>2012-03-29T14:37:50.002Z</time>
</trkpt>
<trkpt lat="42.7346800" lon="-2.5933800">
<ele>714.420715</ele>
<time>2012-03-29T14:37:59.998Z</time>
</trkpt>
<trkpt lat="42.7346000" lon="-2.5934200">
<ele>714.816956</ele>
<time>2012-03-29T14:38:06.003Z</time>
</trkpt>
<trkpt lat="42.7344900" lon="-2.5935200">
<ele>713.597717</ele>
<time>2012-03-29T14:38:14.997Z</time>
</trkpt>
<trkpt lat="42.7344700" lon="-2.5935400">
<ele>713.018677</ele>
<time>2012-03-29T14:38:18.004Z</time>
</trkpt>
<trkpt lat="42.7343100" lon="-2.5936000">
<ele>712.988159</ele>
<time>2012-03-29T14:38:33.003Z</time>
</trkpt>
<trkpt lat="42.7341600" lon="-2.5936600">
<ele>712.469971</ele>
<time>2012-03-29T14:38:47.000Z</time>
</trkpt>
<trkpt lat="42.7340700" lon="-2.5936900">
<ele>710.671692</ele>
<time>2012-03-29T14:38:57.998Z</time>
</trkpt>
<trkpt lat="42.7340600" lon="-2.5937000">
<ele>710.366882</ele>
<time>2012-03-29T14:38:59.001Z</time>
</trkpt>
<trkpt lat="42.7339100" lon="-2.5936700">
<ele>709.330566</ele>
<time>2012-03-29T14:39:12.004Z</time>
</trkpt>
<trkpt lat="42.7337500" lon="-2.5935900">
<ele>708.659973</ele>
<time>2012-03-29T14:39:26.001Z</time>
</trkpt>
<trkpt lat="42.7336800" lon="-2.5935400">
<ele>708.964783</ele>
<time>2012-03-29T14:39:38.002Z</time>
</trkpt>
<trkpt lat="42.7336600" lon="-2.5935300">
<ele>709.056274</ele>
<time>2012-03-29T14:39:54.996Z</time>
</trkpt>
<trkpt lat="42.7335900" lon="-2.5934900">
<ele>709.300110</ele>
<time>2012-03-29T14:40:02.997Z</time>
</trkpt>
<trkpt lat="42.7334100" lon="-2.5935700">
<ele>706.313049</ele>
<time>2012-03-29T14:40:17.996Z</time>
</trkpt>
<trkpt lat="42.7333700" lon="-2.5936100">
<ele>705.246277</ele>
<time>2012-03-29T14:40:21.996Z</time>
</trkpt>
<trkpt lat="42.7333100" lon="-2.5936100">
<ele>705.368164</ele>
<time>2012-03-29T14:40:26.999Z</time>
</trkpt>
<trkpt lat="42.7331400" lon="-2.5936500">
<ele>705.185303</ele>
<time>2012-03-29T14:40:41.998Z</time>
</trkpt>
<trkpt lat="42.7329800" lon="-2.5936200">
<ele>704.849976</ele>
<time>2012-03-29T14:40:55.001Z</time>
</trkpt>
<trkpt lat="42.7328700" lon="-2.5936100">
<ele>703.173584</ele>
<time>2012-03-29T14:41:04.004Z</time>
</trkpt>
<trkpt lat="42.7326900" lon="-2.5936100">
<ele>702.868774</ele>
<time>2012-03-29T14:41:18.001Z</time>
</trkpt>
<trkpt lat="42.7326100" lon="-2.5936300">
<ele>703.265076</ele>
<time>2012-03-29T14:41:23.997Z</time>
</trkpt>
<trkpt lat="42.7324300" lon="-2.5936100">
<ele>705.185303</ele>
<time>2012-03-29T14:41:38.003Z</time>
</trkpt>
<trkpt lat="42.7323100" lon="-2.5936700">
<ele>704.057495</ele>
<time>2012-03-29T14:41:50.997Z</time>
</trkpt>
<trkpt lat="42.7321300" lon="-2.5937800">
<ele>702.564026</ele>
<time>2012-03-29T14:42:05.996Z</time>
</trkpt>
<trkpt lat="42.7320200" lon="-2.5938300">
<ele>703.295471</ele>
<time>2012-03-29T14:42:14.999Z</time>
</trkpt>
<trkpt lat="42.7319900" lon="-2.5938300">
<ele>703.783203</ele>
<time>2012-03-29T14:42:17.004Z</time>
</trkpt>
<trkpt lat="42.7319700" lon="-2.5938400">
<ele>703.691772</ele>
<time>2012-03-29T14:42:18.999Z</time>
</trkpt>
<trkpt lat="42.7318200" lon="-2.5939000">
<ele>703.295471</ele>
<time>2012-03-29T14:42:32.003Z</time>
</trkpt>
<trkpt lat="42.7316600" lon="-2.5939600">
<ele>702.899292</ele>
<time>2012-03-29T14:42:45.999Z</time>
</trkpt>
<trkpt lat="42.7315300" lon="-2.5940200">
<ele>702.106812</ele>
<time>2012-03-29T14:42:59.003Z</time>
</trkpt>
<trkpt lat="42.7314100" lon="-2.5940500">
<ele>701.405762</ele>
<time>2012-03-29T14:43:10.001Z</time>
</trkpt>
<trkpt lat="42.7313900" lon="-2.5940700">
<ele>701.039978</ele>
<time>2012-03-29T14:43:11.997Z</time>
</trkpt>
<trkpt lat="42.7311600" lon="-2.5941300">
<ele>700.338928</ele>
<time>2012-03-29T14:43:27.998Z</time>
</trkpt>
<trkpt lat="42.7309900" lon="-2.5940700">
<ele>699.180664</ele>
<time>2012-03-29T14:43:41.002Z</time>
</trkpt>
<trkpt lat="42.7308800" lon="-2.5939200">
<ele>699.119751</ele>
<time>2012-03-29T14:43:54.998Z</time>
</trkpt>
<trkpt lat="42.7306800" lon="-2.5938600">
<ele>696.407043</ele>
<time>2012-03-29T14:44:12.002Z</time>
</trkpt>
<trkpt lat="42.7305500" lon="-2.5938300">
<ele>695.065918</ele>
<time>2012-03-29T14:44:24.003Z</time>
</trkpt>
<trkpt lat="42.7304400" lon="-2.5938000">
<ele>693.663879</ele>
<time>2012-03-29T14:44:32.004Z</time>
</trkpt>
<trkpt lat="42.7303600" lon="-2.5937400">
<ele>693.359070</ele>
<time>2012-03-29T14:44:40.004Z</time>
</trkpt>
<trkpt lat="42.7303200" lon="-2.5937000">
<ele>693.419983</ele>
<time>2012-03-29T14:44:43.996Z</time>
</trkpt>
<trkpt lat="42.7302800" lon="-2.5936700">
<ele>693.328552</ele>
<time>2012-03-29T14:44:47.996Z</time>
</trkpt>
<trkpt lat="42.7301400" lon="-2.5935500">
<ele>692.322693</ele>
<time>2012-03-29T14:45:03.004Z</time>
</trkpt>
<trkpt lat="42.7300600" lon="-2.5934300">
<ele>693.450500</ele>
<time>2012-03-29T14:45:13.000Z</time>
</trkpt>
<trkpt lat="42.7298800" lon="-2.5932600">
<ele>691.987427</ele>
<time>2012-03-29T14:45:30.997Z</time>
</trkpt>
<trkpt lat="42.7298100" lon="-2.5931500">
<ele>691.987427</ele>
<time>2012-03-29T14:45:38.998Z</time>
</trkpt>
<trkpt lat="42.7297500" lon="-2.5930700">
<ele>691.225464</ele>
<time>2012-03-29T14:45:46.999Z</time>
</trkpt>
<trkpt lat="42.7296900" lon="-2.5929700">
<ele>691.682678</ele>
<time>2012-03-29T14:45:53.997Z</time>
</trkpt>
<trkpt lat="42.7296700" lon="-2.5929600">
<ele>691.194946</ele>
<time>2012-03-29T14:45:56.002Z</time>
</trkpt>
<trkpt lat="42.7295400" lon="-2.5929700">
<ele>688.756531</ele>
<time>2012-03-29T14:46:05.998Z</time>
</trkpt>
<trkpt lat="42.7293900" lon="-2.5930000">
<ele>689.640503</ele>
<time>2012-03-29T14:46:20.004Z</time>
</trkpt>
<trkpt lat="42.7293800" lon="-2.5930000">
<ele>689.701477</ele>
<time>2012-03-29T14:46:21.999Z</time>
</trkpt>
<trkpt lat="42.7292500" lon="-2.5930600">
<ele>688.726135</ele>
<time>2012-03-29T14:46:35.003Z</time>
</trkpt>
<trkpt lat="42.7290900" lon="-2.5931200">
<ele>688.025024</ele>
<time>2012-03-29T14:46:48.999Z</time>
</trkpt>
<trkpt lat="42.7289100" lon="-2.5931900">
<ele>687.445862</ele>
<time>2012-03-29T14:47:03.998Z</time>
</trkpt>
<trkpt lat="42.7288200" lon="-2.5932200">
<ele>687.598267</ele>
<time>2012-03-29T14:47:11.999Z</time>
</trkpt>
<trkpt lat="42.7287600" lon="-2.5932600">
<ele>687.323975</ele>
<time>2012-03-29T14:47:18.004Z</time>
</trkpt>
<trkpt lat="42.7287300" lon="-2.5933000">
<ele>686.775330</ele>
<time>2012-03-29T14:47:22.004Z</time>
</trkpt>
<trkpt lat="42.7286000" lon="-2.5934100">
<ele>686.196228</ele>
<time>2012-03-29T14:47:33.996Z</time>
</trkpt>
<trkpt lat="42.7285500" lon="-2.5934700">
<ele>686.318115</ele>
<time>2012-03-29T14:47:38.999Z</time>
</trkpt>
<trkpt lat="42.7284000" lon="-2.5935800">
<ele>686.683899</ele>
<time>2012-03-29T14:47:56.003Z</time>
</trkpt>
<trkpt lat="42.7282900" lon="-2.5937500">
<ele>684.672241</ele>
<time>2012-03-29T14:48:11.002Z</time>
</trkpt>
<trkpt lat="42.7281000" lon="-2.5938500">
<ele>685.373291</ele>
<time>2012-03-29T14:48:26.001Z</time>
</trkpt>
<trkpt lat="42.7279700" lon="-2.5938900">
<ele>685.860962</ele>
<time>2012-03-29T14:48:36.999Z</time>
</trkpt>
<trkpt lat="42.7278500" lon="-2.5938700">
<ele>687.842163</ele>
<time>2012-03-29T14:48:47.998Z</time>
</trkpt>
<trkpt lat="42.7276500" lon="-2.5939800">
<ele>686.226685</ele>
<time>2012-03-29T14:49:03.999Z</time>
</trkpt>
<trkpt lat="42.7274800" lon="-2.5940600">
<ele>684.672241</ele>
<time>2012-03-29T14:49:17.003Z</time>
</trkpt>
<trkpt lat="42.7273200" lon="-2.5941300">
<ele>684.306519</ele>
<time>2012-03-29T14:49:29.997Z</time>
</trkpt>
<trkpt lat="42.7271700" lon="-2.5941900">
<ele>685.586670</ele>
<time>2012-03-29T14:49:44.003Z</time>
</trkpt>
<trkpt lat="42.7271500" lon="-2.5942100">
<ele>685.068481</ele>
<time>2012-03-29T14:49:44.996Z</time>
</trkpt>
<trkpt lat="42.7270600" lon="-2.5942200">
<ele>684.672241</ele>
<time>2012-03-29T14:49:51.001Z</time>
</trkpt>
<trkpt lat="42.7269500" lon="-2.5942900">
<ele>683.209229</ele>
<time>2012-03-29T14:50:00.004Z</time>
</trkpt>
<trkpt lat="42.7268600" lon="-2.5942800">
<ele>683.483521</ele>
<time>2012-03-29T14:50:07.002Z</time>
</trkpt>
<trkpt lat="42.7268300" lon="-2.5942900">
<ele>683.331116</ele>
<time>2012-03-29T14:50:08.998Z</time>
</trkpt>
<trkpt lat="42.7266000" lon="-2.5942400">
<ele>681.898560</ele>
<time>2012-03-29T14:50:27.004Z</time>
</trkpt>
<trkpt lat="42.7264800" lon="-2.5941200">
<ele>683.209229</ele>
<time>2012-03-29T14:50:38.996Z</time>
</trkpt>
<trkpt lat="42.7262700" lon="-2.5941700">
<ele>682.233826</ele>
<time>2012-03-29T14:50:54.004Z</time>
</trkpt>
<trkpt lat="42.7261200" lon="-2.5942200">
<ele>681.441345</ele>
<time>2012-03-29T14:51:06.998Z</time>
</trkpt>
<trkpt lat="42.7260800" lon="-2.5942200">
<ele>681.868103</ele>
<time>2012-03-29T14:51:09.996Z</time>
</trkpt>
<trkpt lat="42.7260100" lon="-2.5942400">
<ele>681.654663</ele>
<time>2012-03-29T14:51:16.001Z</time>
</trkpt>
<trkpt lat="42.7258900" lon="-2.5942200">
<ele>683.026306</ele>
<time>2012-03-29T14:51:25.004Z</time>
</trkpt>
<trkpt lat="42.7258400" lon="-2.5942200">
<ele>682.904419</ele>
<time>2012-03-29T14:51:28.002Z</time>
</trkpt>
<trkpt lat="42.7258000" lon="-2.5942300">
<ele>682.660522</ele>
<time>2012-03-29T14:51:32.003Z</time>
</trkpt>
<trkpt lat="42.7257600" lon="-2.5943000">
<ele>681.624268</ele>
<time>2012-03-29T14:51:36.996Z</time>
</trkpt>
<trkpt lat="42.7257000" lon="-2.5943100">
<ele>682.050964</ele>
<time>2012-03-29T14:51:41.999Z</time>
</trkpt>
<trkpt lat="42.7255200" lon="-2.5944000">
<ele>679.764954</ele>
<time>2012-03-29T14:51:56.998Z</time>
</trkpt>
<trkpt lat="42.7253700" lon="-2.5944600">
<ele>679.216309</ele>
<time>2012-03-29T14:52:10.001Z</time>
</trkpt>
<trkpt lat="42.7253700" lon="-2.5944600">
<ele>679.216309</ele>
<time>2012-03-29T14:52:11.004Z</time>
</trkpt>
<trkpt lat="42.7252700" lon="-2.5945100">
<ele>678.850525</ele>
<time>2012-03-29T14:52:18.002Z</time>
</trkpt>
<trkpt lat="42.7252700" lon="-2.5945500">
<ele>678.088562</ele>
<time>2012-03-29T14:52:19.998Z</time>
</trkpt>
<trkpt lat="42.7252100" lon="-2.5946500">
<ele>676.991333</ele>
<time>2012-03-29T14:52:27.998Z</time>
</trkpt>
<trkpt lat="42.7250400" lon="-2.5947900">
<ele>675.528259</ele>
<time>2012-03-29T14:52:42.997Z</time>
</trkpt>
<trkpt lat="42.7248900" lon="-2.5949100">
<ele>675.436829</ele>
<time>2012-03-29T14:52:57.003Z</time>
</trkpt>
<trkpt lat="42.7248700" lon="-2.5949200">
<ele>675.558716</ele>
<time>2012-03-29T14:52:57.996Z</time>
</trkpt>
<trkpt lat="42.7247400" lon="-2.5950400">
<ele>674.126160</ele>
<time>2012-03-29T14:53:13.004Z</time>
</trkpt>
<trkpt lat="42.7246900" lon="-2.5950700">
<ele>673.516541</ele>
<time>2012-03-29T14:53:17.998Z</time>
</trkpt>
<trkpt lat="42.7245100" lon="-2.5951100">
<ele>672.693604</ele>
<time>2012-03-29T14:53:32.997Z</time>
</trkpt>
<trkpt lat="42.7244000" lon="-2.5949600">
<ele>672.663086</ele>
<time>2012-03-29T14:53:47.003Z</time>
</trkpt>
<trkpt lat="42.7243800" lon="-2.5949500">
<ele>672.663086</ele>
<time>2012-03-29T14:53:48.998Z</time>
</trkpt>
<trkpt lat="42.7243300" lon="-2.5949200">
<ele>673.333740</ele>
<time>2012-03-29T14:53:54.001Z</time>
</trkpt>
<trkpt lat="42.7241500" lon="-2.5948700">
<ele>674.857727</ele>
<time>2012-03-29T14:54:07.004Z</time>
</trkpt>
<trkpt lat="42.7240600" lon="-2.5948400">
<ele>675.345337</ele>
<time>2012-03-29T14:54:15.998Z</time>
</trkpt>
<trkpt lat="42.7240300" lon="-2.5948500">
<ele>675.253906</ele>
<time>2012-03-29T14:54:18.996Z</time>
</trkpt>
<trkpt lat="42.7239800" lon="-2.5948000">
<ele>675.863464</ele>
<time>2012-03-29T14:54:23.999Z</time>
</trkpt>
<trkpt lat="42.7239500" lon="-2.5947500">
<ele>676.412170</ele>
<time>2012-03-29T14:54:27.999Z</time>
</trkpt>
<trkpt lat="42.7237900" lon="-2.5946700">
<ele>677.235107</ele>
<time>2012-03-29T14:54:42.998Z</time>
</trkpt>
<trkpt lat="42.7236300" lon="-2.5946200">
<ele>677.326538</ele>
<time>2012-03-29T14:54:56.002Z</time>
</trkpt>
<trkpt lat="42.7234500" lon="-2.5945100">
<ele>676.991333</ele>
<time>2012-03-29T14:55:09.998Z</time>
</trkpt>
<trkpt lat="42.7233100" lon="-2.5945400">
<ele>677.265625</ele>
<time>2012-03-29T14:55:24.997Z</time>
</trkpt>
<trkpt lat="42.7231500" lon="-2.5945600">
<ele>678.576233</ele>
<time>2012-03-29T14:55:36.998Z</time>
</trkpt>
<trkpt lat="42.7230800" lon="-2.5945900">
<ele>679.124939</ele>
<time>2012-03-29T14:55:43.003Z</time>
</trkpt>
<trkpt lat="42.7229900" lon="-2.5946200">
<ele>681.807068</ele>
<time>2012-03-29T14:55:51.997Z</time>
</trkpt>
<trkpt lat="42.7229200" lon="-2.5948200">
<ele>680.069763</ele>
<time>2012-03-29T14:56:06.003Z</time>
</trkpt>
<trkpt lat="42.7228700" lon="-2.5948600">
<ele>681.045105</ele>
<time>2012-03-29T14:56:10.003Z</time>
</trkpt>
<trkpt lat="42.7227900" lon="-2.5949300">
<ele>682.264282</ele>
<time>2012-03-29T14:56:18.004Z</time>
</trkpt>
<trkpt lat="42.7227700" lon="-2.5949500">
<ele>682.386230</ele>
<time>2012-03-29T14:56:20.000Z</time>
</trkpt>
<trkpt lat="42.7226600" lon="-2.5950600">
<ele>683.910278</ele>
<time>2012-03-29T14:56:30.998Z</time>
</trkpt>
<trkpt lat="42.7225200" lon="-2.5951900">
<ele>684.794128</ele>
<time>2012-03-29T14:56:45.004Z</time>
</trkpt>
<trkpt lat="42.7224800" lon="-2.5952600">
<ele>685.129456</ele>
<time>2012-03-29T14:56:49.998Z</time>
</trkpt>
<trkpt lat="42.7224600" lon="-2.5953000">
<ele>685.495178</ele>
<time>2012-03-29T14:56:52.996Z</time>
</trkpt>
<trkpt lat="42.7224400" lon="-2.5953500">
<ele>685.434265</ele>
<time>2012-03-29T14:56:56.996Z</time>
</trkpt>
<trkpt lat="42.7224200" lon="-2.5954200">
<ele>685.373291</ele>
<time>2012-03-29T14:57:00.996Z</time>
</trkpt>
<trkpt lat="42.7223900" lon="-2.5955500">
<ele>685.007507</ele>
<time>2012-03-29T14:57:08.004Z</time>
</trkpt>
<trkpt lat="42.7222800" lon="-2.5958200">
<ele>684.154114</ele>
<time>2012-03-29T14:57:24.998Z</time>
</trkpt>
<trkpt lat="42.7222000" lon="-2.5960600">
<ele>684.032166</ele>
<time>2012-03-29T14:57:39.997Z</time>
</trkpt>
<trkpt lat="42.7221600" lon="-2.5961800">
<ele>683.483521</ele>
<time>2012-03-29T14:57:46.996Z</time>
</trkpt>
<trkpt lat="42.7221200" lon="-2.5962500">
<ele>683.392090</ele>
<time>2012-03-29T14:57:51.998Z</time>
</trkpt>
<trkpt lat="42.7219800" lon="-2.5964200">
<ele>682.416687</ele>
<time>2012-03-29T14:58:06.997Z</time>
</trkpt>
<trkpt lat="42.7219100" lon="-2.5964900">
<ele>682.599609</ele>
<time>2012-03-29T14:58:13.996Z</time>
</trkpt>
<trkpt lat="42.7217500" lon="-2.5965600">
<ele>681.502319</ele>
<time>2012-03-29T14:58:29.004Z</time>
</trkpt>
<trkpt lat="42.7215700" lon="-2.5965700">
<ele>681.288940</ele>
<time>2012-03-29T14:58:44.003Z</time>
</trkpt>
<trkpt lat="42.7214100" lon="-2.5966100">
<ele>680.222168</ele>
<time>2012-03-29T14:58:57.999Z</time>
</trkpt>
<trkpt lat="42.7213100" lon="-2.5966600">
<ele>678.942017</ele>
<time>2012-03-29T14:59:10.000Z</time>
</trkpt>
<trkpt lat="42.7211700" lon="-2.5965800">
<ele>678.881042</ele>
<time>2012-03-29T14:59:23.004Z</time>
</trkpt>
<trkpt lat="42.7209800" lon="-2.5965400">
<ele>677.326538</ele>
<time>2012-03-29T14:59:38.996Z</time>
</trkpt>
<trkpt lat="42.7209200" lon="-2.5965200">
<ele>676.625488</ele>
<time>2012-03-29T14:59:43.999Z</time>
</trkpt>
<trkpt lat="42.7209000" lon="-2.5965200">
<ele>676.442627</ele>
<time>2012-03-29T14:59:46.997Z</time>
</trkpt>
<trkpt lat="42.7208600" lon="-2.5964500">
<ele>675.985474</ele>
<time>2012-03-29T14:59:51.999Z</time>
</trkpt>
<trkpt lat="42.7207800" lon="-2.5963300">
<ele>674.583374</ele>
<time>2012-03-29T15:00:00.000Z</time>
</trkpt>
<trkpt lat="42.7207300" lon="-2.5962400">
<ele>672.602173</ele>
<time>2012-03-29T15:00:06.998Z</time>
</trkpt>
<trkpt lat="42.7207400" lon="-2.5961600">
<ele>672.083984</ele>
<time>2012-03-29T15:00:13.003Z</time>
</trkpt>
<trkpt lat="42.7208000" lon="-2.5960700">
<ele>671.718262</ele>
<time>2012-03-29T15:00:20.002Z</time>
</trkpt>
<trkpt lat="42.7208300" lon="-2.5959800">
<ele>672.144958</ele>
<time>2012-03-29T15:00:25.004Z</time>
</trkpt>
<trkpt lat="42.7208000" lon="-2.5958200">
<ele>671.291504</ele>
<time>2012-03-29T15:00:39.001Z</time>
</trkpt>
<trkpt lat="42.7207500" lon="-2.5957800">
<ele>670.773315</ele>
<time>2012-03-29T15:00:52.004Z</time>
</trkpt>
<trkpt lat="42.7206500" lon="-2.5957300">
<ele>669.676086</ele>
<time>2012-03-29T15:00:59.003Z</time>
</trkpt>
<trkpt lat="42.7205500" lon="-2.5956800">
<ele>670.407593</ele>
<time>2012-03-29T15:01:12.999Z</time>
</trkpt>
<trkpt lat="42.7203600" lon="-2.5956800">
<ele>671.931580</ele>
<time>2012-03-29T15:01:26.996Z</time>
</trkpt>
<trkpt lat="42.7203500" lon="-2.5957000">
<ele>671.992554</ele>
<time>2012-03-29T15:01:27.998Z</time>
</trkpt>
<trkpt lat="42.7203200" lon="-2.5957200">
<ele>672.358276</ele>
<time>2012-03-29T15:01:31.999Z</time>
</trkpt>
<trkpt lat="42.7201500" lon="-2.5957900">
<ele>674.004272</ele>
<time>2012-03-29T15:01:46.998Z</time>
</trkpt>
<trkpt lat="42.7199500" lon="-2.5957000">
<ele>676.960815</ele>
<time>2012-03-29T15:02:04.001Z</time>
</trkpt>
<trkpt lat="42.7198000" lon="-2.5957500">
<ele>677.600891</ele>
<time>2012-03-29T15:02:16.996Z</time>
</trkpt>
<trkpt lat="42.7198000" lon="-2.5957600">
<ele>677.448486</ele>
<time>2012-03-29T15:02:17.998Z</time>
</trkpt>
<trkpt lat="42.7197900" lon="-2.5957900">
<ele>677.113220</ele>
<time>2012-03-29T15:02:20.003Z</time>
</trkpt>
<trkpt lat="42.7197400" lon="-2.5958400">
<ele>677.052246</ele>
<time>2012-03-29T15:02:24.996Z</time>
</trkpt>
<trkpt lat="42.7197000" lon="-2.5959100">
<ele>676.991333</ele>
<time>2012-03-29T15:02:38.000Z</time>
</trkpt>
<trkpt lat="42.7197100" lon="-2.5958900">
<ele>676.991333</ele>
<time>2012-03-29T15:02:43.996Z</time>
</trkpt>
<trkpt lat="42.7197800" lon="-2.5958000">
<ele>677.082703</ele>
<time>2012-03-29T15:02:51.003Z</time>
</trkpt>
<trkpt lat="42.7197400" lon="-2.5957200">
<ele>678.820129</ele>
<time>2012-03-29T15:02:59.004Z</time>
</trkpt>
<trkpt lat="42.7195600" lon="-2.5956400">
<ele>681.563293</ele>
<time>2012-03-29T15:03:14.996Z</time>
</trkpt>
<trkpt lat="42.7194400" lon="-2.5955300">
<ele>682.325317</ele>
<time>2012-03-29T15:03:27.999Z</time>
</trkpt>
<trkpt lat="42.7193800" lon="-2.5954700">
<ele>682.812927</ele>
<time>2012-03-29T15:03:40.000Z</time>
</trkpt>
<trkpt lat="42.7193600" lon="-2.5955100">
<ele>682.508118</ele>
<time>2012-03-29T15:04:15.001Z</time>
</trkpt>
<trkpt lat="42.7192800" lon="-2.5953900">
<ele>683.574951</ele>
<time>2012-03-29T15:05:20.000Z</time>
</trkpt>
<trkpt lat="42.7191200" lon="-2.5952600">
<ele>685.373291</ele>
<time>2012-03-29T15:05:38.999Z</time>
</trkpt>
<trkpt lat="42.7190700" lon="-2.5951500">
<ele>686.988708</ele>
<time>2012-03-29T15:05:56.003Z</time>
</trkpt>
<trkpt lat="42.7190100" lon="-2.5950600">
<ele>687.872681</ele>
<time>2012-03-29T15:18:08.001Z</time>
</trkpt>
<trkpt lat="42.7190100" lon="-2.5949200">
<ele>689.457581</ele>
<time>2012-03-29T15:18:20.002Z</time>
</trkpt>
<trkpt lat="42.7190100" lon="-2.5948200">
<ele>690.280518</ele>
<time>2012-03-29T15:18:31.000Z</time>
</trkpt>
<trkpt lat="42.7190100" lon="-2.5947700">
<ele>690.737732</ele>
<time>2012-03-29T15:18:35.001Z</time>
</trkpt>
<trkpt lat="42.7190000" lon="-2.5947200">
<ele>691.377869</ele>
<time>2012-03-29T15:18:40.997Z</time>
</trkpt>
<trkpt lat="42.7188300" lon="-2.5946300">
<ele>691.530273</ele>
<time>2012-03-29T15:18:59.003Z</time>
</trkpt>
<trkpt lat="42.7188200" lon="-2.5946100">
<ele>691.804565</ele>
<time>2012-03-29T15:19:00.998Z</time>
</trkpt>
<trkpt lat="42.7187600" lon="-2.5944100">
<ele>693.724792</ele>
<time>2012-03-29T15:19:15.997Z</time>
</trkpt>
<trkpt lat="42.7187500" lon="-2.5943800">
<ele>694.029602</ele>
<time>2012-03-29T15:19:19.004Z</time>
</trkpt>
<trkpt lat="42.7187900" lon="-2.5942000">
<ele>696.498535</ele>
<time>2012-03-29T15:19:34.997Z</time>
</trkpt>
<trkpt lat="42.7188200" lon="-2.5941000">
<ele>697.717712</ele>
<time>2012-03-29T15:19:44.000Z</time>
</trkpt>
<trkpt lat="42.7188400" lon="-2.5940800">
<ele>698.022522</ele>
<time>2012-03-29T15:19:46.998Z</time>
</trkpt>
<trkpt lat="42.7189100" lon="-2.5939400">
<ele>699.729370</ele>
<time>2012-03-29T15:19:57.003Z</time>
</trkpt>
<trkpt lat="42.7189300" lon="-2.5938800">
<ele>699.729370</ele>
<time>2012-03-29T15:20:01.003Z</time>
</trkpt>
<trkpt lat="42.7189500" lon="-2.5938600">
<ele>699.912231</ele>
<time>2012-03-29T15:20:02.999Z</time>
</trkpt>
<trkpt lat="42.7189700" lon="-2.5938000">
<ele>700.125610</ele>
<time>2012-03-29T15:20:08.002Z</time>
</trkpt>
<trkpt lat="42.7190800" lon="-2.5935800">
<ele>700.643738</ele>
<time>2012-03-29T15:20:24.996Z</time>
</trkpt>
<trkpt lat="42.7191100" lon="-2.5933500">
<ele>699.333069</ele>
<time>2012-03-29T15:20:39.002Z</time>
</trkpt>
<trkpt lat="42.7190900" lon="-2.5931000">
<ele>699.942688</ele>
<time>2012-03-29T15:20:52.999Z</time>
</trkpt>
<trkpt lat="42.7190600" lon="-2.5929500">
<ele>699.881775</ele>
<time>2012-03-29T15:21:07.004Z</time>
</trkpt>
<trkpt lat="42.7190200" lon="-2.5928000">
<ele>701.070496</ele>
<time>2012-03-29T15:21:29.002Z</time>
</trkpt>
<trkpt lat="42.7190000" lon="-2.5927500">
<ele>701.436279</ele>
<time>2012-03-29T15:21:33.002Z</time>
</trkpt>
<trkpt lat="42.7189900" lon="-2.5927100">
<ele>701.375305</ele>
<time>2012-03-29T15:21:37.002Z</time>
</trkpt>
<trkpt lat="42.7189200" lon="-2.5926300">
<ele>701.131470</ele>
<time>2012-03-29T15:21:49.997Z</time>
</trkpt>
<trkpt lat="42.7189200" lon="-2.5926200">
<ele>701.222900</ele>
<time>2012-03-29T15:21:50.999Z</time>
</trkpt>
<trkpt lat="42.7188400" lon="-2.5924900">
<ele>702.381104</ele>
<time>2012-03-29T15:22:08.003Z</time>
</trkpt>
<trkpt lat="42.7187800" lon="-2.5923900">
<ele>703.051697</ele>
<time>2012-03-29T15:22:48.999Z</time>
</trkpt>
<trkpt lat="42.7187800" lon="-2.5923000">
<ele>702.990662</ele>
<time>2012-03-29T15:23:06.003Z</time>
</trkpt>
<trkpt lat="42.7187700" lon="-2.5922500">
<ele>703.143066</ele>
<time>2012-03-29T15:23:41.004Z</time>
</trkpt>
<trkpt lat="42.7187700" lon="-2.5922400">
<ele>703.204102</ele>
<time>2012-03-29T15:23:41.997Z</time>
</trkpt>
<trkpt lat="42.7188000" lon="-2.5920100">
<ele>705.307190</ele>
<time>2012-03-29T15:23:59.001Z</time>
</trkpt>
<trkpt lat="42.7188200" lon="-2.5918600">
<ele>706.495911</ele>
<time>2012-03-29T15:24:12.997Z</time>
</trkpt>
<trkpt lat="42.7188400" lon="-2.5916700">
<ele>708.080933</ele>
<time>2012-03-29T15:24:55.999Z</time>
</trkpt>
<trkpt lat="42.7188600" lon="-2.5915800">
<ele>708.690491</ele>
<time>2012-03-29T15:25:02.004Z</time>
</trkpt>
<trkpt lat="42.7188500" lon="-2.5913600">
<ele>710.427856</ele>
<time>2012-03-29T15:25:17.003Z</time>
</trkpt>
<trkpt lat="42.7188400" lon="-2.5911500">
<ele>711.860413</ele>
<time>2012-03-29T15:25:32.002Z</time>
</trkpt>
<trkpt lat="42.7188500" lon="-2.5910800">
<ele>712.561462</ele>
<time>2012-03-29T15:25:51.001Z</time>
</trkpt>
<trkpt lat="42.7188300" lon="-2.5909100">
<ele>713.445374</ele>
<time>2012-03-29T15:26:11.996Z</time>
</trkpt>
<trkpt lat="42.7188100" lon="-2.5906800">
<ele>714.999878</ele>
<time>2012-03-29T15:26:27.997Z</time>
</trkpt>
<trkpt lat="42.7188200" lon="-2.5906200">
<ele>715.060791</ele>
<time>2012-03-29T15:26:42.996Z</time>
</trkpt>
<trkpt lat="42.7188200" lon="-2.5905800">
<ele>715.121765</ele>
<time>2012-03-29T15:26:45.001Z</time>
</trkpt>
<trkpt lat="42.7187800" lon="-2.5903800">
<ele>716.158081</ele>
<time>2012-03-29T15:26:58.004Z</time>
</trkpt>
<trkpt lat="42.7187400" lon="-2.5902600">
<ele>717.560120</ele>
<time>2012-03-29T15:27:04.000Z</time>
</trkpt>
<trkpt lat="42.7186500" lon="-2.5900800">
<ele>719.724243</ele>
<time>2012-03-29T15:27:17.997Z</time>
</trkpt>
<trkpt lat="42.7186400" lon="-2.5900600">
<ele>720.029053</ele>
<time>2012-03-29T15:27:20.002Z</time>
</trkpt>
<trkpt lat="42.7186000" lon="-2.5899900">
<ele>720.760559</ele>
<time>2012-03-29T15:27:25.998Z</time>
</trkpt>
<trkpt lat="42.7185600" lon="-2.5899700">
<ele>720.516663</ele>
<time>2012-03-29T15:27:28.996Z</time>
</trkpt>
<trkpt lat="42.7184900" lon="-2.5898100">
<ele>721.156799</ele>
<time>2012-03-29T15:27:40.997Z</time>
</trkpt>
<trkpt lat="42.7184700" lon="-2.5897100">
<ele>721.461609</ele>
<time>2012-03-29T15:27:47.002Z</time>
</trkpt>
<trkpt lat="42.7184700" lon="-2.5895100">
<ele>722.375977</ele>
<time>2012-03-29T15:28:02.001Z</time>
</trkpt>
<trkpt lat="42.7184700" lon="-2.5893100">
<ele>723.503723</ele>
<time>2012-03-29T15:28:15.997Z</time>
</trkpt>
<trkpt lat="42.7184300" lon="-2.5891900">
<ele>723.381836</ele>
<time>2012-03-29T15:28:25.000Z</time>
</trkpt>
<trkpt lat="42.7183900" lon="-2.5889500">
<ele>724.204773</ele>
<time>2012-03-29T15:28:39.999Z</time>
</trkpt>
<trkpt lat="42.7183400" lon="-2.5887200">
<ele>724.296265</ele>
<time>2012-03-29T15:28:53.003Z</time>
</trkpt>
<trkpt lat="42.7183400" lon="-2.5886500">
<ele>724.814392</ele>
<time>2012-03-29T15:28:57.003Z</time>
</trkpt>
<trkpt lat="42.7183300" lon="-2.5883800">
<ele>726.125061</ele>
<time>2012-03-29T15:29:12.002Z</time>
</trkpt>
<trkpt lat="42.7183200" lon="-2.5881000">
<ele>727.283325</ele>
<time>2012-03-29T15:29:28.003Z</time>
</trkpt>
<trkpt lat="42.7182500" lon="-2.5878700">
<ele>727.435730</ele>
<time>2012-03-29T15:29:43.002Z</time>
</trkpt>
<trkpt lat="42.7182200" lon="-2.5876800">
<ele>728.136719</ele>
<time>2012-03-29T15:29:55.003Z</time>
</trkpt>
<trkpt lat="42.7181700" lon="-2.5877400">
<ele>727.618530</ele>
<time>2012-03-29T15:31:07.000Z</time>
</trkpt>
<trkpt lat="42.7181900" lon="-2.5877400">
<ele>727.801453</ele>
<time>2012-03-29T15:31:21.999Z</time>
</trkpt>
<trkpt lat="42.7181800" lon="-2.5877600">
<ele>727.679504</ele>
<time>2012-03-29T15:31:35.996Z</time>
</trkpt>
<trkpt lat="42.7180600" lon="-2.5876000">
<ele>726.521301</ele>
<time>2012-03-29T15:31:48.999Z</time>
</trkpt>
<trkpt lat="42.7180300" lon="-2.5875300">
<ele>725.972656</ele>
<time>2012-03-29T15:31:54.002Z</time>
</trkpt>
<trkpt lat="42.7178800" lon="-2.5875000">
<ele>723.198975</ele>
<time>2012-03-29T15:32:07.999Z</time>
</trkpt>
<trkpt lat="42.7177700" lon="-2.5874700">
<ele>722.040710</ele>
<time>2012-03-29T15:32:17.002Z</time>
</trkpt>
<trkpt lat="42.7176600" lon="-2.5874800">
<ele>720.973877</ele>
<time>2012-03-29T15:32:25.002Z</time>
</trkpt>
<trkpt lat="42.7176100" lon="-2.5874600">
<ele>721.217773</ele>
<time>2012-03-29T15:32:29.003Z</time>
</trkpt>
<trkpt lat="42.7176200" lon="-2.5873000">
<ele>720.486267</ele>
<time>2012-03-29T15:32:41.004Z</time>
</trkpt>
<trkpt lat="42.7176300" lon="-2.5871500">
<ele>719.449890</ele>
<time>2012-03-29T15:32:55.000Z</time>
</trkpt>
<trkpt lat="42.7176000" lon="-2.5870700">
<ele>718.626953</ele>
<time>2012-03-29T15:33:07.001Z</time>
</trkpt>
<trkpt lat="42.7174400" lon="-2.5870400">
<ele>716.493347</ele>
<time>2012-03-29T15:33:19.002Z</time>
</trkpt>
<trkpt lat="42.7173000" lon="-2.5870400">
<ele>714.816956</ele>
<time>2012-03-29T15:33:30.001Z</time>
</trkpt>
<trkpt lat="42.7171700" lon="-2.5870900">
<ele>713.414917</ele>
<time>2012-03-29T15:33:42.002Z</time>
</trkpt>
<trkpt lat="42.7170500" lon="-2.5871300">
<ele>710.824097</ele>
<time>2012-03-29T15:33:51.998Z</time>
</trkpt>
<trkpt lat="42.7168700" lon="-2.5872100">
<ele>707.532227</ele>
<time>2012-03-29T15:34:06.997Z</time>
</trkpt>
<trkpt lat="42.7168300" lon="-2.5872500">
<ele>706.831177</ele>
<time>2012-03-29T15:34:10.998Z</time>
</trkpt>
<trkpt lat="42.7168100" lon="-2.5873000">
<ele>706.983582</ele>
<time>2012-03-29T15:34:16.000Z</time>
</trkpt>
<trkpt lat="42.7166900" lon="-2.5874600">
<ele>705.154785</ele>
<time>2012-03-29T15:34:29.004Z</time>
</trkpt>
<trkpt lat="42.7166700" lon="-2.5874900">
<ele>704.636658</ele>
<time>2012-03-29T15:34:30.999Z</time>
</trkpt>
<trkpt lat="42.7166400" lon="-2.5875000">
<ele>704.301331</ele>
<time>2012-03-29T15:34:33.004Z</time>
</trkpt>
<trkpt lat="42.7164800" lon="-2.5874300">
<ele>701.649597</ele>
<time>2012-03-29T15:34:45.998Z</time>
</trkpt>
<trkpt lat="42.7164700" lon="-2.5874300">
<ele>701.558167</ele>
<time>2012-03-29T15:34:47.001Z</time>
</trkpt>
<trkpt lat="42.7164300" lon="-2.5874600">
<ele>701.131470</ele>
<time>2012-03-29T15:34:52.003Z</time>
</trkpt>
<trkpt lat="42.7163400" lon="-2.5876600">
<ele>700.186523</ele>
<time>2012-03-29T15:35:06.000Z</time>
</trkpt>
<trkpt lat="42.7162500" lon="-2.5879200">
<ele>697.229980</ele>
<time>2012-03-29T15:35:20.999Z</time>
</trkpt>
<trkpt lat="42.7162500" lon="-2.5880900">
<ele>696.650940</ele>
<time>2012-03-29T15:35:30.002Z</time>
</trkpt>
<trkpt lat="42.7162300" lon="-2.5881400">
<ele>695.827881</ele>
<time>2012-03-29T15:36:39.001Z</time>
</trkpt>
<trkpt lat="42.7161900" lon="-2.5882200">
<ele>695.370667</ele>
<time>2012-03-29T15:36:48.997Z</time>
</trkpt>
<trkpt lat="42.7161100" lon="-2.5882600">
<ele>694.578247</ele>
<time>2012-03-29T15:37:04.999Z</time>
</trkpt>
<trkpt lat="42.7160600" lon="-2.5882700">
<ele>693.999084</ele>
<time>2012-03-29T15:37:22.996Z</time>
</trkpt>
<trkpt lat="42.7160300" lon="-2.5882400">
<ele>693.663879</ele>
<time>2012-03-29T15:37:29.001Z</time>
</trkpt>
<trkpt lat="42.7158800" lon="-2.5882400">
<ele>692.414124</ele>
<time>2012-03-29T15:37:38.004Z</time>
</trkpt>
<trkpt lat="42.7156700" lon="-2.5883000">
<ele>692.779907</ele>
<time>2012-03-29T15:37:54.998Z</time>
</trkpt>
<trkpt lat="42.7155900" lon="-2.5883400">
<ele>693.663879</ele>
<time>2012-03-29T15:38:01.997Z</time>
</trkpt>
<trkpt lat="42.7154000" lon="-2.5883500">
<ele>694.822083</ele>
<time>2012-03-29T15:38:16.002Z</time>
</trkpt>
<trkpt lat="42.7152300" lon="-2.5883000">
<ele>696.650940</ele>
<time>2012-03-29T15:38:28.997Z</time>
</trkpt>
<trkpt lat="42.7151500" lon="-2.5882000">
<ele>697.504272</ele>
<time>2012-03-29T15:38:40.004Z</time>
</trkpt>
<trkpt lat="42.7149800" lon="-2.5880900">
<ele>699.394104</ele>
<time>2012-03-29T15:38:55.003Z</time>
</trkpt>
<trkpt lat="42.7149100" lon="-2.5880600">
<ele>700.369446</ele>
<time>2012-03-29T15:39:03.004Z</time>
</trkpt>
<trkpt lat="42.7148900" lon="-2.5880400">
<ele>700.796143</ele>
<time>2012-03-29T15:39:06.002Z</time>
</trkpt>
<trkpt lat="42.7148800" lon="-2.5879300">
<ele>701.741028</ele>
<time>2012-03-29T15:39:18.996Z</time>
</trkpt>
<trkpt lat="42.7148700" lon="-2.5879100">
<ele>702.106812</ele>
<time>2012-03-29T15:39:21.001Z</time>
</trkpt>
<trkpt lat="42.7148500" lon="-2.5878700">
<ele>702.746887</ele>
<time>2012-03-29T15:39:23.999Z</time>
</trkpt>
<trkpt lat="42.7147900" lon="-2.5877500">
<ele>704.484253</ele>
<time>2012-03-29T15:39:36.000Z</time>
</trkpt>
<trkpt lat="42.7147000" lon="-2.5876200">
<ele>706.495911</ele>
<time>2012-03-29T15:39:49.003Z</time>
</trkpt>
<trkpt lat="42.7146700" lon="-2.5876100">
<ele>706.678772</ele>
<time>2012-03-29T15:39:50.999Z</time>
</trkpt>
<trkpt lat="42.7146400" lon="-2.5875800">
<ele>707.196960</ele>
<time>2012-03-29T15:39:54.999Z</time>
</trkpt>
<trkpt lat="42.7146300" lon="-2.5875200">
<ele>708.355225</ele>
<time>2012-03-29T15:40:08.003Z</time>
</trkpt>
<trkpt lat="42.7144900" lon="-2.5874000">
<ele>710.244934</ele>
<time>2012-03-29T15:40:21.999Z</time>
</trkpt>
<trkpt lat="42.7143900" lon="-2.5873900">
<ele>711.159363</ele>
<time>2012-03-29T15:40:31.002Z</time>
</trkpt>
<trkpt lat="42.7142500" lon="-2.5872900">
<ele>715.396118</ele>
<time>2012-03-29T15:40:43.997Z</time>
</trkpt>
<trkpt lat="42.7141400" lon="-2.5872300">
<ele>718.535461</ele>
<time>2012-03-29T15:40:55.998Z</time>
</trkpt>
<trkpt lat="42.7139400" lon="-2.5871900">
<ele>718.322144</ele>
<time>2012-03-29T15:41:13.001Z</time>
</trkpt>
<trkpt lat="42.7138300" lon="-2.5871600">
<ele>717.529724</ele>
<time>2012-03-29T15:41:25.996Z</time>
</trkpt>
<trkpt lat="42.7137300" lon="-2.5871600">
<ele>715.700928</ele>
<time>2012-03-29T15:41:36.001Z</time>
</trkpt>
<trkpt lat="42.7136400" lon="-2.5870900">
<ele>715.792297</ele>
<time>2012-03-29T15:41:45.004Z</time>
</trkpt>
<trkpt lat="42.7135000" lon="-2.5870400">
<ele>713.750122</ele>
<time>2012-03-29T15:41:57.998Z</time>
</trkpt>
<trkpt lat="42.7134300" lon="-2.5869400">
<ele>714.816956</ele>
<time>2012-03-29T15:42:08.997Z</time>
</trkpt>
<trkpt lat="42.7133100" lon="-2.5868300">
<ele>714.755981</ele>
<time>2012-03-29T15:42:23.003Z</time>
</trkpt>
<trkpt lat="42.7132400" lon="-2.5867800">
<ele>715.243713</ele>
<time>2012-03-29T15:42:30.001Z</time>
</trkpt>
<trkpt lat="42.7130900" lon="-2.5867100">
<ele>714.938904</ele>
<time>2012-03-29T15:42:43.998Z</time>
</trkpt>
<trkpt lat="42.7130800" lon="-2.5867000">
<ele>714.969360</ele>
<time>2012-03-29T15:42:46.002Z</time>
</trkpt>
<trkpt lat="42.7128800" lon="-2.5866700">
<ele>715.304626</ele>
<time>2012-03-29T15:43:02.997Z</time>
</trkpt>
<trkpt lat="42.7128100" lon="-2.5866500">
<ele>715.518005</ele>
<time>2012-03-29T15:43:10.998Z</time>
</trkpt>
<trkpt lat="42.7126600" lon="-2.5865300">
<ele>715.731323</ele>
<time>2012-03-29T15:43:25.003Z</time>
</trkpt>
<trkpt lat="42.7126000" lon="-2.5864500">
<ele>715.761841</ele>
<time>2012-03-29T15:43:37.998Z</time>
</trkpt>
<trkpt lat="42.7125900" lon="-2.5863800">
<ele>715.213196</ele>
<time>2012-03-29T15:43:41.998Z</time>
</trkpt>
<trkpt lat="42.7125900" lon="-2.5863200">
<ele>714.542664</ele>
<time>2012-03-29T15:43:45.998Z</time>
</trkpt>
<trkpt lat="42.7126100" lon="-2.5862600">
<ele>714.451172</ele>
<time>2012-03-29T15:43:49.999Z</time>
</trkpt>
<trkpt lat="42.7126100" lon="-2.5861900">
<ele>713.231995</ele>
<time>2012-03-29T15:43:53.999Z</time>
</trkpt>
<trkpt lat="42.7126700" lon="-2.5859400">
<ele>709.909729</ele>
<time>2012-03-29T15:44:10.000Z</time>
</trkpt>
<trkpt lat="42.7126700" lon="-2.5858800">
<ele>709.178162</ele>
<time>2012-03-29T15:44:14.001Z</time>
</trkpt>
<trkpt lat="42.7126100" lon="-2.5856500">
<ele>705.429077</ele>
<time>2012-03-29T15:44:30.002Z</time>
</trkpt>
<trkpt lat="42.7125300" lon="-2.5855300">
<ele>702.381104</ele>
<time>2012-03-29T15:44:38.996Z</time>
</trkpt>
<trkpt lat="42.7125200" lon="-2.5854700">
<ele>701.161865</ele>
<time>2012-03-29T15:44:42.996Z</time>
</trkpt>
<trkpt lat="42.7125100" lon="-2.5853500">
<ele>699.180664</ele>
<time>2012-03-29T15:44:50.997Z</time>
</trkpt>
<trkpt lat="42.7124700" lon="-2.5853000">
<ele>697.656677</ele>
<time>2012-03-29T15:44:56.000Z</time>
</trkpt>
<trkpt lat="42.7123700" lon="-2.5852000">
<ele>693.846680</ele>
<time>2012-03-29T15:45:09.996Z</time>
</trkpt>
<trkpt lat="42.7123400" lon="-2.5851700">
<ele>693.023743</ele>
<time>2012-03-29T15:45:13.997Z</time>
</trkpt>
<trkpt lat="42.7123400" lon="-2.5851000">
<ele>692.627502</ele>
<time>2012-03-29T15:45:28.996Z</time>
</trkpt>
<trkpt lat="42.7123500" lon="-2.5851000">
<ele>692.810425</ele>
<time>2012-03-29T15:45:52.998Z</time>
</trkpt>
<trkpt lat="42.7123500" lon="-2.5850800">
<ele>692.718933</ele>
<time>2012-03-29T15:46:22.002Z</time>
</trkpt>
<trkpt lat="42.7123700" lon="-2.5850200">
<ele>692.932312</ele>
<time>2012-03-29T15:46:26.003Z</time>
</trkpt>
<trkpt lat="42.7123800" lon="-2.5849700">
<ele>693.176147</ele>
<time>2012-03-29T15:46:42.997Z</time>
</trkpt>
<trkpt lat="42.7123700" lon="-2.5847300">
<ele>696.193726</ele>
<time>2012-03-29T15:46:54.998Z</time>
</trkpt>
<trkpt lat="42.7123600" lon="-2.5845300">
<ele>697.748169</ele>
<time>2012-03-29T15:47:06.999Z</time>
</trkpt>
<trkpt lat="42.7123500" lon="-2.5844900">
<ele>698.113892</ele>
<time>2012-03-29T15:47:09.004Z</time>
</trkpt>
<trkpt lat="42.7123200" lon="-2.5842700">
<ele>699.820801</ele>
<time>2012-03-29T15:47:23.001Z</time>
</trkpt>
<trkpt lat="42.7122700" lon="-2.5841400">
<ele>701.893433</ele>
<time>2012-03-29T15:47:36.004Z</time>
</trkpt>
<trkpt lat="42.7122600" lon="-2.5841300">
<ele>702.076294</ele>
<time>2012-03-29T15:47:38.000Z</time>
</trkpt>
<trkpt lat="42.7120900" lon="-2.5841000">
<ele>703.508911</ele>
<time>2012-03-29T15:47:51.996Z</time>
</trkpt>
<trkpt lat="42.7120500" lon="-2.5840800">
<ele>704.331848</ele>
<time>2012-03-29T15:47:55.997Z</time>
</trkpt>
<trkpt lat="42.7119300" lon="-2.5839700">
<ele>707.257874</ele>
<time>2012-03-29T15:48:10.996Z</time>
</trkpt>
<trkpt lat="42.7118400" lon="-2.5839200">
<ele>709.726807</ele>
<time>2012-03-29T15:48:26.004Z</time>
</trkpt>
<trkpt lat="42.7117500" lon="-2.5838500">
<ele>712.530945</ele>
<time>2012-03-29T15:48:40.000Z</time>
</trkpt>
<trkpt lat="42.7116500" lon="-2.5837900">
<ele>714.298828</ele>
<time>2012-03-29T15:48:57.997Z</time>
</trkpt>
<trkpt lat="42.7115800" lon="-2.5837200">
<ele>717.163879</ele>
<time>2012-03-29T15:49:12.996Z</time>
</trkpt>
<trkpt lat="42.7115700" lon="-2.5837300">
<ele>717.133484</ele>
<time>2012-03-29T15:49:28.004Z</time>
</trkpt>
<trkpt lat="42.7113700" lon="-2.5838800">
<ele>718.169739</ele>
<time>2012-03-29T15:49:44.999Z</time>
</trkpt>
<trkpt lat="42.7112600" lon="-2.5839400">
<ele>718.687866</ele>
<time>2012-03-29T15:49:55.004Z</time>
</trkpt>
<trkpt lat="42.7110900" lon="-2.5839400">
<ele>720.303345</ele>
<time>2012-03-29T15:50:10.003Z</time>
</trkpt>
<trkpt lat="42.7110700" lon="-2.5839400">
<ele>720.425293</ele>
<time>2012-03-29T15:50:11.999Z</time>
</trkpt>
<trkpt lat="42.7109000" lon="-2.5838900">
<ele>721.217773</ele>
<time>2012-03-29T15:50:29.003Z</time>
</trkpt>
<trkpt lat="42.7108300" lon="-2.5838900">
<ele>721.217773</ele>
<time>2012-03-29T15:50:42.999Z</time>
</trkpt>
<trkpt lat="42.7106800" lon="-2.5838900">
<ele>721.126282</ele>
<time>2012-03-29T15:50:56.996Z</time>
</trkpt>
<trkpt lat="42.7105400" lon="-2.5838600">
<ele>721.431091</ele>
<time>2012-03-29T15:51:11.002Z</time>
</trkpt>
<trkpt lat="42.7105200" lon="-2.5838000">
<ele>721.827332</ele>
<time>2012-03-29T15:51:24.998Z</time>
</trkpt>
<trkpt lat="42.7104200" lon="-2.5837000">
<ele>722.680786</ele>
<time>2012-03-29T15:51:43.004Z</time>
</trkpt>
<trkpt lat="42.7102700" lon="-2.5835200">
<ele>725.302124</ele>
<time>2012-03-29T15:51:58.997Z</time>
</trkpt>
<trkpt lat="42.7101600" lon="-2.5833800">
<ele>726.155518</ele>
<time>2012-03-29T15:52:14.998Z</time>
</trkpt>
<trkpt lat="42.7100400" lon="-2.5832600">
<ele>725.363037</ele>
<time>2012-03-29T15:52:52.997Z</time>
</trkpt>
<trkpt lat="42.7098700" lon="-2.5831200">
<ele>725.119202</ele>
<time>2012-03-29T15:53:08.998Z</time>
</trkpt>
<trkpt lat="42.7096500" lon="-2.5830200">
<ele>723.991455</ele>
<time>2012-03-29T15:53:27.004Z</time>
</trkpt>
<trkpt lat="42.7094900" lon="-2.5829200">
<ele>724.113342</ele>
<time>2012-03-29T15:53:42.003Z</time>
</trkpt>
<trkpt lat="42.7093300" lon="-2.5827900">
<ele>722.619873</ele>
<time>2012-03-29T15:53:57.002Z</time>
</trkpt>
<trkpt lat="42.7091700" lon="-2.5826600">
<ele>720.608154</ele>
<time>2012-03-29T15:54:13.003Z</time>
</trkpt>
<trkpt lat="42.7089800" lon="-2.5824400">
<ele>716.828674</ele>
<time>2012-03-29T15:54:32.996Z</time>
</trkpt>
<trkpt lat="42.7088600" lon="-2.5822500">
<ele>715.335083</ele>
<time>2012-03-29T15:54:48.004Z</time>
</trkpt>
<trkpt lat="42.7087800" lon="-2.5821200">
<ele>713.841614</ele>
<time>2012-03-29T15:54:58.000Z</time>
</trkpt>
<trkpt lat="42.7087300" lon="-2.5820200">
<ele>711.951843</ele>
<time>2012-03-29T15:55:10.001Z</time>
</trkpt>
<trkpt lat="42.7085900" lon="-2.5817700">
<ele>708.385681</ele>
<time>2012-03-29T15:55:29.001Z</time>
</trkpt>
<trkpt lat="42.7084400" lon="-2.5815500">
<ele>706.770264</ele>
<time>2012-03-29T15:55:48.000Z</time>
</trkpt>
<trkpt lat="42.7083300" lon="-2.5813300">
<ele>705.977722</ele>
<time>2012-03-29T15:56:04.001Z</time>
</trkpt>
<trkpt lat="42.7082700" lon="-2.5812400">
<ele>705.246277</ele>
<time>2012-03-29T15:56:17.998Z</time>
</trkpt>
<trkpt lat="42.7081100" lon="-2.5809800">
<ele>702.868774</ele>
<time>2012-03-29T15:56:36.004Z</time>
</trkpt>
<trkpt lat="42.7080000" lon="-2.5807700">
<ele>701.405762</ele>
<time>2012-03-29T15:56:52.999Z</time>
</trkpt>
<trkpt lat="42.7079000" lon="-2.5805000">
<ele>699.302673</ele>
<time>2012-03-29T15:57:09.000Z</time>
</trkpt>
<trkpt lat="42.7077300" lon="-2.5804300">
<ele>700.399902</ele>
<time>2012-03-29T15:57:22.997Z</time>
</trkpt>
<trkpt lat="42.7075900" lon="-2.5802800">
<ele>699.180664</ele>
<time>2012-03-29T15:57:37.996Z</time>
</trkpt>
<trkpt lat="42.7074600" lon="-2.5801000">
<ele>697.626282</ele>
<time>2012-03-29T15:57:53.004Z</time>
</trkpt>
<trkpt lat="42.7072900" lon="-2.5798700">
<ele>694.822083</ele>
<time>2012-03-29T15:58:11.001Z</time>
</trkpt>
<trkpt lat="42.7072900" lon="-2.5797500">
<ele>695.126892</ele>
<time>2012-03-29T15:58:17.999Z</time>
</trkpt>
<trkpt lat="42.7072500" lon="-2.5796900">
<ele>695.614563</ele>
<time>2012-03-29T15:58:23.002Z</time>
</trkpt>
<trkpt lat="42.7071300" lon="-2.5797000">
<ele>695.218262</ele>
<time>2012-03-29T15:58:32.998Z</time>
</trkpt>
<trkpt lat="42.7070900" lon="-2.5796700">
<ele>695.553589</ele>
<time>2012-03-29T15:58:36.998Z</time>
</trkpt>
<trkpt lat="42.7069600" lon="-2.5795200">
<ele>697.260498</ele>
<time>2012-03-29T15:58:53.000Z</time>
</trkpt>
<trkpt lat="42.7068700" lon="-2.5794000">
<ele>698.052917</ele>
<time>2012-03-29T15:59:06.003Z</time>
</trkpt>
<trkpt lat="42.7067500" lon="-2.5791900">
<ele>699.790283</ele>
<time>2012-03-29T15:59:21.002Z</time>
</trkpt>
<trkpt lat="42.7066500" lon="-2.5790700">
<ele>700.857117</ele>
<time>2012-03-29T15:59:33.996Z</time>
</trkpt>
<trkpt lat="42.7066000" lon="-2.5790800">
<ele>701.344788</ele>
<time>2012-03-29T15:59:38.999Z</time>
</trkpt>
<trkpt lat="42.7064600" lon="-2.5790000">
<ele>702.381104</ele>
<time>2012-03-29T15:59:52.996Z</time>
</trkpt>
<trkpt lat="42.7064400" lon="-2.5789800">
<ele>702.533508</ele>
<time>2012-03-29T15:59:56.003Z</time>
</trkpt>
<trkpt lat="42.7063800" lon="-2.5789500">
<ele>702.777344</ele>
<time>2012-03-29T16:00:01.999Z</time>
</trkpt>
<trkpt lat="42.7062800" lon="-2.5788100">
<ele>703.966125</ele>
<time>2012-03-29T16:00:16.004Z</time>
</trkpt>
<trkpt lat="42.7062700" lon="-2.5787900">
<ele>704.118530</ele>
<time>2012-03-29T16:00:16.998Z</time>
</trkpt>
<trkpt lat="42.7061400" lon="-2.5786500">
<ele>705.276672</ele>
<time>2012-03-29T16:00:32.999Z</time>
</trkpt>
<trkpt lat="42.7060900" lon="-2.5785200">
<ele>706.343506</ele>
<time>2012-03-29T16:00:43.004Z</time>
</trkpt>
<trkpt lat="42.7059500" lon="-2.5783200">
<ele>707.989441</ele>
<time>2012-03-29T16:01:01.001Z</time>
</trkpt>
<trkpt lat="42.7059100" lon="-2.5782900">
<ele>708.233337</ele>
<time>2012-03-29T16:01:05.002Z</time>
</trkpt>
<trkpt lat="42.7058900" lon="-2.5782400">
<ele>708.629517</ele>
<time>2012-03-29T16:01:09.002Z</time>
</trkpt>
<trkpt lat="42.7058100" lon="-2.5780800">
<ele>709.940125</ele>
<time>2012-03-29T16:01:21.996Z</time>
</trkpt>
<trkpt lat="42.7057700" lon="-2.5780300">
<ele>710.366882</ele>
<time>2012-03-29T16:01:29.997Z</time>
</trkpt>
<trkpt lat="42.7056600" lon="-2.5778000">
<ele>711.159363</ele>
<time>2012-03-29T16:01:47.001Z</time>
</trkpt>
<trkpt lat="42.7056200" lon="-2.5776100">
<ele>712.805298</ele>
<time>2012-03-29T16:02:00.997Z</time>
</trkpt>
<trkpt lat="42.7055600" lon="-2.5774600">
<ele>714.024536</ele>
<time>2012-03-29T16:02:18.001Z</time>
</trkpt>
<trkpt lat="42.7054800" lon="-2.5773700">
<ele>713.933044</ele>
<time>2012-03-29T16:02:31.004Z</time>
</trkpt>
<trkpt lat="42.7053900" lon="-2.5772200">
<ele>715.030273</ele>
<time>2012-03-29T16:02:45.001Z</time>
</trkpt>
<trkpt lat="42.7053400" lon="-2.5771000">
<ele>716.036133</ele>
<time>2012-03-29T16:02:58.004Z</time>
</trkpt>
<trkpt lat="42.7053200" lon="-2.5770600">
<ele>716.493347</ele>
<time>2012-03-29T16:03:01.996Z</time>
</trkpt>
<trkpt lat="42.7052000" lon="-2.5768500">
<ele>717.072510</ele>
<time>2012-03-29T16:03:17.997Z</time>
</trkpt>
<trkpt lat="42.7051300" lon="-2.5766300">
<ele>718.992676</ele>
<time>2012-03-29T16:03:32.996Z</time>
</trkpt>
<trkpt lat="42.7051000" lon="-2.5765900">
<ele>718.840271</ele>
<time>2012-03-29T16:03:36.003Z</time>
</trkpt>
<trkpt lat="42.7050900" lon="-2.5765200">
<ele>718.718384</ele>
<time>2012-03-29T16:03:40.997Z</time>
</trkpt>
<trkpt lat="42.7050800" lon="-2.5764200">
<ele>719.602295</ele>
<time>2012-03-29T16:03:48.004Z</time>
</trkpt>
<trkpt lat="42.7050100" lon="-2.5762200">
<ele>720.059509</ele>
<time>2012-03-29T16:04:03.996Z</time>
</trkpt>
<trkpt lat="42.7049000" lon="-2.5760500">
<ele>721.400635</ele>
<time>2012-03-29T16:04:19.004Z</time>
</trkpt>
<trkpt lat="42.7047600" lon="-2.5758700">
<ele>722.040710</ele>
<time>2012-03-29T16:04:35.999Z</time>
</trkpt>
<trkpt lat="42.7047500" lon="-2.5758500">
<ele>721.979736</ele>
<time>2012-03-29T16:04:38.004Z</time>
</trkpt>
<trkpt lat="42.7046800" lon="-2.5756300">
<ele>723.046570</ele>
<time>2012-03-29T16:04:53.003Z</time>
</trkpt>
<trkpt lat="42.7046600" lon="-2.5755800">
<ele>723.351318</ele>
<time>2012-03-29T16:04:57.996Z</time>
</trkpt>
<trkpt lat="42.7046200" lon="-2.5753700">
<ele>726.064087</ele>
<time>2012-03-29T16:05:13.004Z</time>
</trkpt>
<trkpt lat="42.7046000" lon="-2.5751600">
<ele>729.294922</ele>
<time>2012-03-29T16:05:25.999Z</time>
</trkpt>
<trkpt lat="42.7045200" lon="-2.5749400">
<ele>730.575073</ele>
<time>2012-03-29T16:05:40.998Z</time>
</trkpt>
<trkpt lat="42.7045200" lon="-2.5747400">
<ele>732.434387</ele>
<time>2012-03-29T16:05:54.001Z</time>
</trkpt>
<trkpt lat="42.7044800" lon="-2.5745100">
<ele>734.385071</ele>
<time>2012-03-29T16:06:07.998Z</time>
</trkpt>
<trkpt lat="42.7044400" lon="-2.5744200">
<ele>733.988892</ele>
<time>2012-03-29T16:06:14.003Z</time>
</trkpt>
<trkpt lat="42.7044200" lon="-2.5743600">
<ele>733.988892</ele>
<time>2012-03-29T16:06:18.003Z</time>
</trkpt>
<trkpt lat="42.7043700" lon="-2.5742200">
<ele>735.116638</ele>
<time>2012-03-29T16:06:26.997Z</time>
</trkpt>
<trkpt lat="42.7043200" lon="-2.5740600">
<ele>735.147095</ele>
<time>2012-03-29T16:06:41.003Z</time>
</trkpt>
<trkpt lat="42.7043000" lon="-2.5739500">
<ele>735.848145</ele>
<time>2012-03-29T16:06:50.999Z</time>
</trkpt>
<trkpt lat="42.7042400" lon="-2.5737200">
<ele>737.006409</ele>
<time>2012-03-29T16:07:05.998Z</time>
</trkpt>
<trkpt lat="42.7041800" lon="-2.5735300">
<ele>738.408508</ele>
<time>2012-03-29T16:07:20.004Z</time>
</trkpt>
<trkpt lat="42.7041700" lon="-2.5733300">
<ele>740.450684</ele>
<time>2012-03-29T16:07:35.996Z</time>
</trkpt>
<trkpt lat="42.7041600" lon="-2.5733100">
<ele>740.511597</ele>
<time>2012-03-29T16:07:38.001Z</time>
</trkpt>
<trkpt lat="42.7041600" lon="-2.5732500">
<ele>740.907837</ele>
<time>2012-03-29T16:07:42.001Z</time>
</trkpt>
<trkpt lat="42.7041600" lon="-2.5730300">
<ele>743.437683</ele>
<time>2012-03-29T16:07:57.000Z</time>
</trkpt>
<trkpt lat="42.7041200" lon="-2.5728400">
<ele>744.992126</ele>
<time>2012-03-29T16:08:10.997Z</time>
</trkpt>
<trkpt lat="42.7039600" lon="-2.5727100">
<ele>744.900696</ele>
<time>2012-03-29T16:08:25.996Z</time>
</trkpt>
<trkpt lat="42.7038600" lon="-2.5726200">
<ele>745.937073</ele>
<time>2012-03-29T16:08:38.999Z</time>
</trkpt>
<trkpt lat="42.7037600" lon="-2.5725100">
<ele>746.668518</ele>
<time>2012-03-29T16:08:53.998Z</time>
</trkpt>
<trkpt lat="42.7037000" lon="-2.5724500">
<ele>746.302795</ele>
<time>2012-03-29T16:09:08.004Z</time>
</trkpt>
<trkpt lat="42.7036500" lon="-2.5724100">
<ele>745.540771</ele>
<time>2012-03-29T16:09:12.004Z</time>
</trkpt>
<trkpt lat="42.7035500" lon="-2.5723200">
<ele>744.260681</ele>
<time>2012-03-29T16:09:28.999Z</time>
</trkpt>
<trkpt lat="42.7035000" lon="-2.5723000">
<ele>743.711975</ele>
<time>2012-03-29T16:09:34.001Z</time>
</trkpt>
<trkpt lat="42.7034600" lon="-2.5722600">
<ele>743.590088</ele>
<time>2012-03-29T16:09:53.001Z</time>
</trkpt>
<trkpt lat="42.7034600" lon="-2.5722600">
<ele>743.590088</ele>
<time>2012-03-29T16:09:58.003Z</time>
</trkpt>
<trkpt lat="42.7034600" lon="-2.5721900">
<ele>742.675720</ele>
<time>2012-03-29T16:10:02.004Z</time>
</trkpt>
<trkpt lat="42.7034500" lon="-2.5721400">
<ele>742.096558</ele>
<time>2012-03-29T16:10:06.004Z</time>
</trkpt>
<trkpt lat="42.7034800" lon="-2.5719700">
<ele>739.719116</ele>
<time>2012-03-29T16:10:17.996Z</time>
</trkpt>
<trkpt lat="42.7035400" lon="-2.5716700">
<ele>736.305359</ele>
<time>2012-03-29T16:10:39.000Z</time>
</trkpt>
<trkpt lat="42.7035700" lon="-2.5715400">
<ele>735.756714</ele>
<time>2012-03-29T16:10:48.003Z</time>
</trkpt>
<trkpt lat="42.7035800" lon="-2.5715100">
<ele>735.634827</ele>
<time>2012-03-29T16:10:49.999Z</time>
</trkpt>
<trkpt lat="42.7035500" lon="-2.5712900">
<ele>731.337097</ele>
<time>2012-03-29T16:11:06.000Z</time>
</trkpt>
<trkpt lat="42.7034900" lon="-2.5710600">
<ele>727.130920</ele>
<time>2012-03-29T16:11:22.001Z</time>
</trkpt>
<trkpt lat="42.7033600" lon="-2.5708300">
<ele>724.631470</ele>
<time>2012-03-29T16:11:39.998Z</time>
</trkpt>
<trkpt lat="42.7032000" lon="-2.5707000">
<ele>723.656128</ele>
<time>2012-03-29T16:11:57.002Z</time>
</trkpt>
<trkpt lat="42.7030800" lon="-2.5706200">
<ele>719.419434</ele>
<time>2012-03-29T16:12:09.996Z</time>
</trkpt>
<trkpt lat="42.7030100" lon="-2.5704100">
<ele>718.992676</ele>
<time>2012-03-29T16:12:28.002Z</time>
</trkpt>
<trkpt lat="42.7029900" lon="-2.5703700">
<ele>717.986938</ele>
<time>2012-03-29T16:12:45.999Z</time>
</trkpt>
<trkpt lat="42.7029800" lon="-2.5702200">
<ele>716.737183</ele>
<time>2012-03-29T16:13:03.003Z</time>
</trkpt>
<trkpt lat="42.7029700" lon="-2.5701500">
<ele>715.609436</ele>
<time>2012-03-29T16:13:07.003Z</time>
</trkpt>
<trkpt lat="42.7029700" lon="-2.5699700">
<ele>713.658691</ele>
<time>2012-03-29T16:13:19.998Z</time>
</trkpt>
<trkpt lat="42.7029800" lon="-2.5698900">
<ele>713.018677</ele>
<time>2012-03-29T16:13:25.000Z</time>
</trkpt>
<trkpt lat="42.7029500" lon="-2.5697700">
<ele>710.397339</ele>
<time>2012-03-29T16:13:39.999Z</time>
</trkpt>
<trkpt lat="42.7029600" lon="-2.5695800">
<ele>707.105469</ele>
<time>2012-03-29T16:13:52.000Z</time>
</trkpt>
<trkpt lat="42.7029900" lon="-2.5693400">
<ele>704.849976</ele>
<time>2012-03-29T16:14:08.002Z</time>
</trkpt>
<trkpt lat="42.7029800" lon="-2.5690900">
<ele>702.685913</ele>
<time>2012-03-29T16:14:23.001Z</time>
</trkpt>
<trkpt lat="42.7029600" lon="-2.5688600">
<ele>701.375305</ele>
<time>2012-03-29T16:14:39.002Z</time>
</trkpt>
<trkpt lat="42.7029400" lon="-2.5686000">
<ele>699.302673</ele>
<time>2012-03-29T16:14:55.003Z</time>
</trkpt>
<trkpt lat="42.7029300" lon="-2.5683700">
<ele>698.357727</ele>
<time>2012-03-29T16:15:09.000Z</time>
</trkpt>
<trkpt lat="42.7029200" lon="-2.5682300">
<ele>697.900574</ele>
<time>2012-03-29T16:15:23.999Z</time>
</trkpt>
<trkpt lat="42.7029000" lon="-2.5681100">
<ele>697.565308</ele>
<time>2012-03-29T16:15:32.000Z</time>
</trkpt>
<trkpt lat="42.7028100" lon="-2.5678400">
<ele>695.675476</ele>
<time>2012-03-29T16:15:50.999Z</time>
</trkpt>
</trkseg>
</trk>
<trk>
 <desc>Marcha Larga Gazteiz 2012</desc>
<trkseg>
<trkpt lat="42.7028100" lon="-2.5678300">
<ele>695.675476</ele>
<time>2012-03-29T07:31:41.002Z</time>
</trkpt>
<trkpt lat="42.7028500" lon="-2.5678700">
<ele>696.102234</ele>
<time>2012-03-29T07:31:54.998Z</time>
</trkpt>
<trkpt lat="42.7028700" lon="-2.5678700">
<ele>696.254639</ele>
<time>2012-03-29T07:32:01.003Z</time>
</trkpt>
<trkpt lat="42.7029500" lon="-2.5677500">
<ele>697.626282</ele>
<time>2012-03-29T07:32:16.002Z</time>
</trkpt>
<trkpt lat="42.7030000" lon="-2.5676600">
<ele>698.266296</ele>
<time>2012-03-29T07:32:28.997Z</time>
</trkpt>
<trkpt lat="42.7030500" lon="-2.5675700">
<ele>698.662537</ele>
<time>2012-03-29T07:32:35.002Z</time>
</trkpt>
<trkpt lat="42.7030900" lon="-2.5675100">
<ele>698.967346</ele>
<time>2012-03-29T07:32:39.002Z</time>
</trkpt>
<trkpt lat="42.7031000" lon="-2.5674800">
<ele>698.936890</ele>
<time>2012-03-29T07:32:40.998Z</time>
</trkpt>
<trkpt lat="42.7032200" lon="-2.5672600">
<ele>700.247498</ele>
<time>2012-03-29T07:32:56.999Z</time>
</trkpt>
<trkpt lat="42.7032200" lon="-2.5672500">
<ele>700.217041</ele>
<time>2012-03-29T07:32:58.001Z</time>
</trkpt>
<trkpt lat="42.7032200" lon="-2.5671500">
<ele>700.430420</ele>
<time>2012-03-29T07:33:13.000Z</time>
</trkpt>
<trkpt lat="42.7032800" lon="-2.5669800">
<ele>700.979065</ele>
<time>2012-03-29T07:33:34.998Z</time>
</trkpt>
<trkpt lat="42.7033100" lon="-2.5669400">
<ele>701.192383</ele>
<time>2012-03-29T07:33:49.997Z</time>
</trkpt>
<trkpt lat="42.7033300" lon="-2.5669300">
<ele>701.527710</ele>
<time>2012-03-29T07:33:52.001Z</time>
</trkpt>
<trkpt lat="42.7033800" lon="-2.5668300">
<ele>701.923889</ele>
<time>2012-03-29T07:33:57.997Z</time>
</trkpt>
<trkpt lat="42.7034300" lon="-2.5667400">
<ele>702.320129</ele>
<time>2012-03-29T07:34:04.996Z</time>
</trkpt>
<trkpt lat="42.7035500" lon="-2.5665300">
<ele>703.996521</ele>
<time>2012-03-29T07:34:19.001Z</time>
</trkpt>
<trkpt lat="42.7036500" lon="-2.5663400">
<ele>705.154785</ele>
<time>2012-03-29T07:34:31.996Z</time>
</trkpt>
<trkpt lat="42.7037400" lon="-2.5662100">
<ele>706.160645</ele>
<time>2012-03-29T07:34:44.999Z</time>
</trkpt>
<trkpt lat="42.7038500" lon="-2.5660600">
<ele>706.953064</ele>
<time>2012-03-29T07:35:02.996Z</time>
</trkpt>
<trkpt lat="42.7039100" lon="-2.5659700">
<ele>707.989441</ele>
<time>2012-03-29T07:35:14.997Z</time>
</trkpt>
<trkpt lat="42.7039600" lon="-2.5658900">
<ele>709.940125</ele>
<time>2012-03-29T07:35:25.996Z</time>
</trkpt>
<trkpt lat="42.7039800" lon="-2.5658400">
<ele>710.184021</ele>
<time>2012-03-29T07:35:37.003Z</time>
</trkpt>
<trkpt lat="42.7040700" lon="-2.5656900">
<ele>711.951843</ele>
<time>2012-03-29T07:35:51.000Z</time>
</trkpt>
<trkpt lat="42.7041400" lon="-2.5655100">
<ele>712.866272</ele>
<time>2012-03-29T07:36:04.003Z</time>
</trkpt>
<trkpt lat="42.7042000" lon="-2.5654300">
<ele>714.237854</ele>
<time>2012-03-29T07:36:12.004Z</time>
</trkpt>
<trkpt lat="42.7042600" lon="-2.5652700">
<ele>714.938904</ele>
<time>2012-03-29T07:36:23.003Z</time>
</trkpt>
<trkpt lat="42.7043200" lon="-2.5651200">
<ele>714.786499</ele>
<time>2012-03-29T07:36:31.997Z</time>
</trkpt>
<trkpt lat="42.7043600" lon="-2.5649700">
<ele>714.664551</ele>
<time>2012-03-29T07:36:42.002Z</time>
</trkpt>
<trkpt lat="42.7044400" lon="-2.5647200">
<ele>715.792297</ele>
<time>2012-03-29T07:36:57.001Z</time>
</trkpt>
<trkpt lat="42.7045200" lon="-2.5646200">
<ele>716.767700</ele>
<time>2012-03-29T07:37:06.997Z</time>
</trkpt>
<trkpt lat="42.7045400" lon="-2.5645900">
<ele>716.950562</ele>
<time>2012-03-29T07:37:10.998Z</time>
</trkpt>
<trkpt lat="42.7045700" lon="-2.5645700">
<ele>717.316284</ele>
<time>2012-03-29T07:37:13.996Z</time>
</trkpt>
<trkpt lat="42.7046100" lon="-2.5645200">
<ele>717.834534</ele>
<time>2012-03-29T07:37:18.998Z</time>
</trkpt>
<trkpt lat="42.7047800" lon="-2.5644200">
<ele>719.724243</ele>
<time>2012-03-29T07:37:35.000Z</time>
</trkpt>
<trkpt lat="42.7049400" lon="-2.5643400">
<ele>721.827332</ele>
<time>2012-03-29T07:37:51.001Z</time>
</trkpt>
<trkpt lat="42.7050800" lon="-2.5642800">
<ele>724.052429</ele>
<time>2012-03-29T07:38:04.004Z</time>
</trkpt>
<trkpt lat="42.7051000" lon="-2.5642700">
<ele>724.113342</ele>
<time>2012-03-29T07:38:06.000Z</time>
</trkpt>
<trkpt lat="42.7052600" lon="-2.5641600">
<ele>726.216492</ele>
<time>2012-03-29T07:38:20.999Z</time>
</trkpt>
<trkpt lat="42.7053700" lon="-2.5640100">
<ele>728.563477</ele>
<time>2012-03-29T07:38:34.996Z</time>
</trkpt>
<trkpt lat="42.7054700" lon="-2.5637900">
<ele>729.630249</ele>
<time>2012-03-29T07:38:50.004Z</time>
</trkpt>
<trkpt lat="42.7055900" lon="-2.5635600">
<ele>731.398132</ele>
<time>2012-03-29T07:39:05.003Z</time>
</trkpt>
<trkpt lat="42.7056400" lon="-2.5634800">
<ele>732.007690</ele>
<time>2012-03-29T07:39:17.997Z</time>
</trkpt>
<trkpt lat="42.7056500" lon="-2.5634900">
<ele>732.251465</ele>
<time>2012-03-29T07:39:36.003Z</time>
</trkpt>
<trkpt lat="42.7057600" lon="-2.5633400">
<ele>732.830627</ele>
<time>2012-03-29T07:39:50.000Z</time>
</trkpt>
<trkpt lat="42.7059300" lon="-2.5631300">
<ele>734.750916</ele>
<time>2012-03-29T07:40:06.001Z</time>
</trkpt>
<trkpt lat="42.7060600" lon="-2.5629600">
<ele>736.091980</ele>
<time>2012-03-29T07:40:19.998Z</time>
</trkpt>
<trkpt lat="42.7062100" lon="-2.5627600">
<ele>737.768372</ele>
<time>2012-03-29T07:40:34.003Z</time>
</trkpt>
<trkpt lat="42.7063500" lon="-2.5625700">
<ele>739.170532</ele>
<time>2012-03-29T07:40:49.996Z</time>
</trkpt>
<trkpt lat="42.7065100" lon="-2.5623700">
<ele>740.298279</ele>
<time>2012-03-29T07:41:06.999Z</time>
</trkpt>
<trkpt lat="42.7065500" lon="-2.5623100">
<ele>740.816406</ele>
<time>2012-03-29T07:41:12.002Z</time>
</trkpt>
<trkpt lat="42.7066100" lon="-2.5622600">
<ele>741.669861</ele>
<time>2012-03-29T07:41:17.998Z</time>
</trkpt>
<trkpt lat="42.7066100" lon="-2.5622400">
<ele>741.486938</ele>
<time>2012-03-29T07:41:20.003Z</time>
</trkpt>
<trkpt lat="42.7067900" lon="-2.5620600">
<ele>742.980530</ele>
<time>2012-03-29T07:41:36.004Z</time>
</trkpt>
<trkpt lat="42.7068800" lon="-2.5619800">
<ele>742.523315</ele>
<time>2012-03-29T07:41:43.996Z</time>
</trkpt>
<trkpt lat="42.7069300" lon="-2.5619200">
<ele>742.157471</ele>
<time>2012-03-29T07:41:56.999Z</time>
</trkpt>
<trkpt lat="42.7070200" lon="-2.5618400">
<ele>739.993469</ele>
<time>2012-03-29T07:42:14.996Z</time>
</trkpt>
<trkpt lat="42.7072100" lon="-2.5616700">
<ele>739.749573</ele>
<time>2012-03-29T07:42:30.997Z</time>
</trkpt>
<trkpt lat="42.7073400" lon="-2.5615300">
<ele>739.627686</ele>
<time>2012-03-29T07:42:44.001Z</time>
</trkpt>
<trkpt lat="42.7074600" lon="-2.5613700">
<ele>740.420166</ele>
<time>2012-03-29T07:42:57.997Z</time>
</trkpt>
<trkpt lat="42.7075400" lon="-2.5612600">
<ele>741.486938</ele>
<time>2012-03-29T07:43:09.998Z</time>
</trkpt>
<trkpt lat="42.7076300" lon="-2.5611600">
<ele>742.736633</ele>
<time>2012-03-29T07:43:20.004Z</time>
</trkpt>
<trkpt lat="42.7076500" lon="-2.5610600">
<ele>743.468140</ele>
<time>2012-03-29T07:43:35.003Z</time>
</trkpt>
<trkpt lat="42.7076700" lon="-2.5610100">
<ele>743.986267</ele>
<time>2012-03-29T07:43:39.996Z</time>
</trkpt>
<trkpt lat="42.7076900" lon="-2.5609800">
<ele>744.230164</ele>
<time>2012-03-29T07:43:43.997Z</time>
</trkpt>
<trkpt lat="42.7078500" lon="-2.5608200">
<ele>747.003845</ele>
<time>2012-03-29T07:43:59.998Z</time>
</trkpt>
<trkpt lat="42.7079000" lon="-2.5607300">
<ele>747.308655</ele>
<time>2012-03-29T07:44:06.996Z</time>
</trkpt>
<trkpt lat="42.7079300" lon="-2.5607000">
<ele>747.552490</ele>
<time>2012-03-29T07:44:10.997Z</time>
</trkpt>
<trkpt lat="42.7079600" lon="-2.5606600">
<ele>747.643860</ele>
<time>2012-03-29T07:44:14.997Z</time>
</trkpt>
<trkpt lat="42.7080400" lon="-2.5606000">
<ele>749.350830</ele>
<time>2012-03-29T07:44:21.002Z</time>
</trkpt>
<trkpt lat="42.7081000" lon="-2.5605500">
<ele>751.453918</ele>
<time>2012-03-29T07:44:28.000Z</time>
</trkpt>
<trkpt lat="42.7081800" lon="-2.5604700">
<ele>754.501892</ele>
<time>2012-03-29T07:44:36.001Z</time>
</trkpt>
<trkpt lat="42.7082200" lon="-2.5604600">
<ele>756.117371</ele>
<time>2012-03-29T07:44:38.999Z</time>
</trkpt>
<trkpt lat="42.7082500" lon="-2.5604400">
<ele>756.848938</ele>
<time>2012-03-29T07:44:41.997Z</time>
</trkpt>
<trkpt lat="42.7082900" lon="-2.5603800">
<ele>757.915710</ele>
<time>2012-03-29T07:44:55.000Z</time>
</trkpt>
<trkpt lat="42.7083200" lon="-2.5603700">
<ele>758.891052</ele>
<time>2012-03-29T07:45:07.001Z</time>
</trkpt>
<trkpt lat="42.7083900" lon="-2.5603000">
<ele>760.171204</ele>
<time>2012-03-29T07:45:14.000Z</time>
</trkpt>
<trkpt lat="42.7084500" lon="-2.5602600">
<ele>761.420898</ele>
<time>2012-03-29T07:45:19.002Z</time>
</trkpt>
<trkpt lat="42.7085200" lon="-2.5601700">
<ele>762.853455</ele>
<time>2012-03-29T07:45:31.003Z</time>
</trkpt>
<trkpt lat="42.7085200" lon="-2.5601600">
<ele>762.731506</ele>
<time>2012-03-29T07:45:39.004Z</time>
</trkpt>
<trkpt lat="42.7085800" lon="-2.5601300">
<ele>764.834656</ele>
<time>2012-03-29T07:45:43.998Z</time>
</trkpt>
<trkpt lat="42.7086100" lon="-2.5600800">
<ele>764.194519</ele>
<time>2012-03-29T07:45:47.998Z</time>
</trkpt>
<trkpt lat="42.7087000" lon="-2.5600100">
<ele>765.291870</ele>
<time>2012-03-29T07:45:54.996Z</time>
</trkpt>
<trkpt lat="42.7087300" lon="-2.5599800">
<ele>766.053833</ele>
<time>2012-03-29T07:45:58.997Z</time>
</trkpt>
<trkpt lat="42.7088500" lon="-2.5598300">
<ele>766.998718</ele>
<time>2012-03-29T07:46:13.996Z</time>
</trkpt>
<trkpt lat="42.7090000" lon="-2.5597000">
<ele>768.766541</ele>
<time>2012-03-29T07:46:29.004Z</time>
</trkpt>
<trkpt lat="42.7091700" lon="-2.5595600">
<ele>768.797058</ele>
<time>2012-03-29T07:46:44.003Z</time>
</trkpt>
<trkpt lat="42.7093400" lon="-2.5595500">
<ele>770.900146</ele>
<time>2012-03-29T07:46:59.002Z</time>
</trkpt>
<trkpt lat="42.7094800" lon="-2.5595900">
<ele>772.698486</ele>
<time>2012-03-29T07:47:12.998Z</time>
</trkpt>
<trkpt lat="42.7095500" lon="-2.5595700">
<ele>772.911865</ele>
<time>2012-03-29T07:47:20.999Z</time>
</trkpt>
<trkpt lat="42.7097300" lon="-2.5596000">
<ele>774.588257</ele>
<time>2012-03-29T07:47:37.000Z</time>
</trkpt>
<trkpt lat="42.7098300" lon="-2.5595800">
<ele>775.594116</ele>
<time>2012-03-29T07:47:45.001Z</time>
</trkpt>
<trkpt lat="42.7099900" lon="-2.5595100">
<ele>777.087585</ele>
<time>2012-03-29T07:47:58.998Z</time>
</trkpt>
<trkpt lat="42.7100800" lon="-2.5594900">
<ele>777.910522</ele>
<time>2012-03-29T07:48:13.003Z</time>
</trkpt>
<trkpt lat="42.7102300" lon="-2.5594600">
<ele>779.129761</ele>
<time>2012-03-29T07:48:24.002Z</time>
</trkpt>
<trkpt lat="42.7102900" lon="-2.5594500">
<ele>780.409912</ele>
<time>2012-03-29T07:48:28.002Z</time>
</trkpt>
<trkpt lat="42.7103600" lon="-2.5594800">
<ele>782.695862</ele>
<time>2012-03-29T07:48:36.003Z</time>
</trkpt>
<trkpt lat="42.7105300" lon="-2.5594300">
<ele>784.250427</ele>
<time>2012-03-29T07:48:50.000Z</time>
</trkpt>
<trkpt lat="42.7106600" lon="-2.5593700">
<ele>785.835327</ele>
<time>2012-03-29T07:49:03.003Z</time>
</trkpt>
<trkpt lat="42.7107800" lon="-2.5593300">
<ele>787.420288</ele>
<time>2012-03-29T07:49:15.004Z</time>
</trkpt>
<trkpt lat="42.7108400" lon="-2.5593200">
<ele>788.487061</ele>
<time>2012-03-29T07:49:19.998Z</time>
</trkpt>
<trkpt lat="42.7110300" lon="-2.5593200">
<ele>792.327576</ele>
<time>2012-03-29T07:49:34.997Z</time>
</trkpt>
<trkpt lat="42.7111700" lon="-2.5593200">
<ele>794.430664</ele>
<time>2012-03-29T07:49:49.002Z</time>
</trkpt>
<trkpt lat="42.7112700" lon="-2.5593300">
<ele>796.960571</ele>
<time>2012-03-29T07:49:58.999Z</time>
</trkpt>
<trkpt lat="42.7113900" lon="-2.5593200">
<ele>798.057861</ele>
<time>2012-03-29T07:50:13.004Z</time>
</trkpt>
<trkpt lat="42.7115300" lon="-2.5593100">
<ele>799.978088</ele>
<time>2012-03-29T07:50:29.999Z</time>
</trkpt>
<trkpt lat="42.7116300" lon="-2.5593400">
<ele>802.446960</ele>
<time>2012-03-29T07:50:43.002Z</time>
</trkpt>
<trkpt lat="42.7117400" lon="-2.5593700">
<ele>806.104553</ele>
<time>2012-03-29T07:50:56.999Z</time>
</trkpt>
<trkpt lat="42.7118400" lon="-2.5593700">
<ele>807.780945</ele>
<time>2012-03-29T07:51:10.002Z</time>
</trkpt>
<trkpt lat="42.7119700" lon="-2.5592800">
<ele>808.421082</ele>
<time>2012-03-29T07:51:25.001Z</time>
</trkpt>
<trkpt lat="42.7121000" lon="-2.5592600">
<ele>813.389282</ele>
<time>2012-03-29T07:51:36.000Z</time>
</trkpt>
<trkpt lat="42.7121800" lon="-2.5592500">
<ele>815.583862</ele>
<time>2012-03-29T07:51:44.001Z</time>
</trkpt>
<trkpt lat="42.7123100" lon="-2.5591700">
<ele>816.772522</ele>
<time>2012-03-29T07:51:57.997Z</time>
</trkpt>
<trkpt lat="42.7124400" lon="-2.5591000">
<ele>818.083191</ele>
<time>2012-03-29T07:52:13.999Z</time>
</trkpt>
<trkpt lat="42.7125700" lon="-2.5590700">
<ele>821.039734</ele>
<time>2012-03-29T07:52:30.000Z</time>
</trkpt>
<trkpt lat="42.7126700" lon="-2.5590100">
<ele>822.777100</ele>
<time>2012-03-29T07:52:43.997Z</time>
</trkpt>
<trkpt lat="42.7127000" lon="-2.5590000">
<ele>823.386719</ele>
<time>2012-03-29T07:52:47.004Z</time>
</trkpt>
<trkpt lat="42.7128200" lon="-2.5589700">
<ele>826.556641</ele>
<time>2012-03-29T07:53:01.000Z</time>
</trkpt>
<trkpt lat="42.7128800" lon="-2.5589500">
<ele>827.531982</ele>
<time>2012-03-29T07:53:09.001Z</time>
</trkpt>
<trkpt lat="42.7130100" lon="-2.5589400">
<ele>829.208374</ele>
<time>2012-03-29T07:53:24.000Z</time>
</trkpt>
<trkpt lat="42.7130400" lon="-2.5589400">
<ele>829.604675</ele>
<time>2012-03-29T07:53:26.998Z</time>
</trkpt>
<trkpt lat="42.7130900" lon="-2.5589500">
<ele>830.336121</ele>
<time>2012-03-29T07:53:44.002Z</time>
</trkpt>
<trkpt lat="42.7132100" lon="-2.5589400">
<ele>830.976257</ele>
<time>2012-03-29T07:53:56.996Z</time>
</trkpt>
<trkpt lat="42.7133300" lon="-2.5589000">
<ele>831.860168</ele>
<time>2012-03-29T07:54:12.997Z</time>
</trkpt>
<trkpt lat="42.7134800" lon="-2.5588300">
<ele>833.567078</ele>
<time>2012-03-29T07:54:27.003Z</time>
</trkpt>
<trkpt lat="42.7136000" lon="-2.5587300">
<ele>834.877686</ele>
<time>2012-03-29T07:54:39.997Z</time>
</trkpt>
<trkpt lat="42.7137300" lon="-2.5586000">
<ele>835.334900</ele>
<time>2012-03-29T07:54:54.996Z</time>
</trkpt>
<trkpt lat="42.7138700" lon="-2.5584900">
<ele>836.919861</ele>
<time>2012-03-29T07:55:08.000Z</time>
</trkpt>
<trkpt lat="42.7140100" lon="-2.5583600">
<ele>837.956116</ele>
<time>2012-03-29T07:55:24.001Z</time>
</trkpt>
<trkpt lat="42.7140500" lon="-2.5583600">
<ele>837.956116</ele>
<time>2012-03-29T07:55:37.998Z</time>
</trkpt>
<trkpt lat="42.7141300" lon="-2.5582100">
<ele>839.083862</ele>
<time>2012-03-29T07:55:52.003Z</time>
</trkpt>
<trkpt lat="42.7142400" lon="-2.5580700">
<ele>840.150696</ele>
<time>2012-03-29T07:56:04.998Z</time>
</trkpt>
<trkpt lat="42.7142600" lon="-2.5580300">
<ele>840.455505</ele>
<time>2012-03-29T07:56:08.998Z</time>
</trkpt>
<trkpt lat="42.7143600" lon="-2.5579000">
<ele>841.369873</ele>
<time>2012-03-29T07:56:22.001Z</time>
</trkpt>
<trkpt lat="42.7144200" lon="-2.5577900">
<ele>843.107300</ele>
<time>2012-03-29T07:56:30.002Z</time>
</trkpt>
<trkpt lat="42.7144600" lon="-2.5577600">
<ele>843.899719</ele>
<time>2012-03-29T07:56:34.002Z</time>
</trkpt>
<trkpt lat="42.7146000" lon="-2.5576300">
<ele>844.844666</ele>
<time>2012-03-29T07:56:50.997Z</time>
</trkpt>
<trkpt lat="42.7146100" lon="-2.5576200">
<ele>845.088501</ele>
<time>2012-03-29T07:57:47.002Z</time>
</trkpt>
<trkpt lat="42.7147600" lon="-2.5575000">
<ele>845.941895</ele>
<time>2012-03-29T07:58:00.998Z</time>
</trkpt>
<trkpt lat="42.7147600" lon="-2.5574800">
<ele>846.338135</ele>
<time>2012-03-29T07:58:02.001Z</time>
</trkpt>
<trkpt lat="42.7148300" lon="-2.5574600">
<ele>846.581970</ele>
<time>2012-03-29T07:58:07.003Z</time>
</trkpt>
<trkpt lat="42.7149800" lon="-2.5573700">
<ele>846.764893</ele>
<time>2012-03-29T07:58:21.000Z</time>
</trkpt>
<trkpt lat="42.7151300" lon="-2.5572300">
<ele>847.343994</ele>
<time>2012-03-29T07:58:35.999Z</time>
</trkpt>
<trkpt lat="42.7151900" lon="-2.5571400">
<ele>848.319336</ele>
<time>2012-03-29T07:58:48.000Z</time>
</trkpt>
<trkpt lat="42.7153300" lon="-2.5569300">
<ele>847.953613</ele>
<time>2012-03-29T07:59:04.001Z</time>
</trkpt>
<trkpt lat="42.7153500" lon="-2.5569000">
<ele>847.984131</ele>
<time>2012-03-29T07:59:06.999Z</time>
</trkpt>
<trkpt lat="42.7154500" lon="-2.5567100">
<ele>847.343994</ele>
<time>2012-03-29T07:59:21.998Z</time>
</trkpt>
<trkpt lat="42.7155400" lon="-2.5565000">
<ele>846.917297</ele>
<time>2012-03-29T07:59:36.004Z</time>
</trkpt>
<trkpt lat="42.7156900" lon="-2.5563100">
<ele>845.880920</ele>
<time>2012-03-29T07:59:51.996Z</time>
</trkpt>
<trkpt lat="42.7159000" lon="-2.5562300">
<ele>846.368652</ele>
<time>2012-03-29T08:00:09.000Z</time>
</trkpt>
<trkpt lat="42.7160900" lon="-2.5561800">
<ele>845.789490</ele>
<time>2012-03-29T08:00:23.999Z</time>
</trkpt>
<trkpt lat="42.7162800" lon="-2.5561300">
<ele>844.905579</ele>
<time>2012-03-29T08:00:38.998Z</time>
</trkpt>
<trkpt lat="42.7164700" lon="-2.5561400">
<ele>845.911438</ele>
<time>2012-03-29T08:00:53.004Z</time>
</trkpt>
<trkpt lat="42.7166500" lon="-2.5561500">
<ele>846.917297</ele>
<time>2012-03-29T08:01:07.000Z</time>
</trkpt>
<trkpt lat="42.7168700" lon="-2.5561000">
<ele>849.904297</ele>
<time>2012-03-29T08:01:23.002Z</time>
</trkpt>
<trkpt lat="42.7170300" lon="-2.5560300">
<ele>850.270081</ele>
<time>2012-03-29T08:01:36.998Z</time>
</trkpt>
<trkpt lat="42.7171300" lon="-2.5559600">
<ele>851.153992</ele>
<time>2012-03-29T08:01:46.001Z</time>
</trkpt>
<trkpt lat="42.7173000" lon="-2.5558000">
<ele>853.531433</ele>
<time>2012-03-29T08:02:03.998Z</time>
</trkpt>
<trkpt lat="42.7174900" lon="-2.5556800">
<ele>855.665039</ele>
<time>2012-03-29T08:02:18.997Z</time>
</trkpt>
<trkpt lat="42.7176600" lon="-2.5556100">
<ele>855.390686</ele>
<time>2012-03-29T08:02:33.003Z</time>
</trkpt>
<trkpt lat="42.7178200" lon="-2.5555000">
<ele>856.335571</ele>
<time>2012-03-29T08:02:48.002Z</time>
</trkpt>
<trkpt lat="42.7179800" lon="-2.5553600">
<ele>856.457520</ele>
<time>2012-03-29T08:03:01.999Z</time>
</trkpt>
<trkpt lat="42.7180500" lon="-2.5553000">
<ele>857.402405</ele>
<time>2012-03-29T08:03:08.004Z</time>
</trkpt>
<trkpt lat="42.7182500" lon="-2.5551700">
<ele>859.962708</ele>
<time>2012-03-29T08:03:23.996Z</time>
</trkpt>
<trkpt lat="42.7184300" lon="-2.5550900">
<ele>860.541870</ele>
<time>2012-03-29T08:03:39.004Z</time>
</trkpt>
<trkpt lat="42.7186400" lon="-2.5550300">
<ele>860.999084</ele>
<time>2012-03-29T08:03:54.996Z</time>
</trkpt>
<trkpt lat="42.7188600" lon="-2.5550200">
<ele>861.669617</ele>
<time>2012-03-29T08:04:10.998Z</time>
</trkpt>
<trkpt lat="42.7190500" lon="-2.5550400">
<ele>861.822021</ele>
<time>2012-03-29T08:04:25.997Z</time>
</trkpt>
<trkpt lat="42.7192100" lon="-2.5550100">
<ele>862.187744</ele>
<time>2012-03-29T08:04:39.000Z</time>
</trkpt>
<trkpt lat="42.7193800" lon="-2.5548900">
<ele>863.102173</ele>
<time>2012-03-29T08:04:53.999Z</time>
</trkpt>
<trkpt lat="42.7195200" lon="-2.5547500">
<ele>864.229919</ele>
<time>2012-03-29T08:05:07.996Z</time>
</trkpt>
<trkpt lat="42.7196700" lon="-2.5546600">
<ele>864.961426</ele>
<time>2012-03-29T08:05:22.001Z</time>
</trkpt>
<trkpt lat="42.7199100" lon="-2.5546100">
<ele>865.418640</ele>
<time>2012-03-29T08:05:39.998Z</time>
</trkpt>
<trkpt lat="42.7201000" lon="-2.5545400">
<ele>866.211121</ele>
<time>2012-03-29T08:05:54.997Z</time>
</trkpt>
<trkpt lat="42.7203000" lon="-2.5545700">
<ele>868.527588</ele>
<time>2012-03-29T08:06:12.001Z</time>
</trkpt>
<trkpt lat="42.7204300" lon="-2.5546900">
<ele>869.899170</ele>
<time>2012-03-29T08:06:25.998Z</time>
</trkpt>
<trkpt lat="42.7205300" lon="-2.5548700">
<ele>872.154663</ele>
<time>2012-03-29T08:06:40.997Z</time>
</trkpt>
<trkpt lat="42.7206900" lon="-2.5549100">
<ele>873.678711</ele>
<time>2012-03-29T08:06:55.002Z</time>
</trkpt>
<trkpt lat="42.7208100" lon="-2.5548900">
<ele>875.019836</ele>
<time>2012-03-29T08:07:08.999Z</time>
</trkpt>
<trkpt lat="42.7208700" lon="-2.5548700">
<ele>875.080811</ele>
<time>2012-03-29T08:07:18.002Z</time>
</trkpt>
<trkpt lat="42.7210500" lon="-2.5548000">
<ele>876.635315</ele>
<time>2012-03-29T08:07:34.003Z</time>
</trkpt>
<trkpt lat="42.7211700" lon="-2.5547000">
<ele>877.610657</ele>
<time>2012-03-29T08:07:45.002Z</time>
</trkpt>
<trkpt lat="42.7213300" lon="-2.5546200">
<ele>878.890808</ele>
<time>2012-03-29T08:07:57.996Z</time>
</trkpt>
<trkpt lat="42.7215000" lon="-2.5544900">
<ele>881.024414</ele>
<time>2012-03-29T08:08:13.998Z</time>
</trkpt>
<trkpt lat="42.7216400" lon="-2.5543600">
<ele>881.573059</ele>
<time>2012-03-29T08:08:27.001Z</time>
</trkpt>
<trkpt lat="42.7217100" lon="-2.5542700">
<ele>882.121704</ele>
<time>2012-03-29T08:08:33.999Z</time>
</trkpt>
<trkpt lat="42.7217600" lon="-2.5542100">
<ele>882.853210</ele>
<time>2012-03-29T08:08:40.004Z</time>
</trkpt>
<trkpt lat="42.7217900" lon="-2.5541500">
<ele>883.005615</ele>
<time>2012-03-29T08:08:43.996Z</time>
</trkpt>
<trkpt lat="42.7219300" lon="-2.5540000">
<ele>884.133362</ele>
<time>2012-03-29T08:08:59.997Z</time>
</trkpt>
<trkpt lat="42.7220500" lon="-2.5538600">
<ele>884.864929</ele>
<time>2012-03-29T08:09:13.000Z</time>
</trkpt>
<trkpt lat="42.7221700" lon="-2.5537100">
<ele>886.023071</ele>
<time>2012-03-29T08:09:26.997Z</time>
</trkpt>
<trkpt lat="42.7222100" lon="-2.5536600">
<ele>885.992676</ele>
<time>2012-03-29T08:09:32.000Z</time>
</trkpt>
<trkpt lat="42.7222400" lon="-2.5536300">
<ele>885.992676</ele>
<time>2012-03-29T08:09:36.000Z</time>
</trkpt>
<trkpt lat="42.7224200" lon="-2.5534900">
<ele>886.114563</ele>
<time>2012-03-29T08:09:53.004Z</time>
</trkpt>
<trkpt lat="42.7225600" lon="-2.5534200">
<ele>886.053589</ele>
<time>2012-03-29T08:10:05.998Z</time>
</trkpt>
<trkpt lat="42.7226100" lon="-2.5533800">
<ele>885.962158</ele>
<time>2012-03-29T08:10:11.001Z</time>
</trkpt>
<trkpt lat="42.7227500" lon="-2.5533700">
<ele>886.023071</ele>
<time>2012-03-29T08:10:26.000Z</time>
</trkpt>
<trkpt lat="42.7229100" lon="-2.5533600">
<ele>887.638550</ele>
<time>2012-03-29T08:10:39.996Z</time>
</trkpt>
<trkpt lat="42.7231400" lon="-2.5533400">
<ele>889.436890</ele>
<time>2012-03-29T08:10:57.000Z</time>
</trkpt>
<trkpt lat="42.7233100" lon="-2.5533300">
<ele>890.991333</ele>
<time>2012-03-29T08:11:10.997Z</time>
</trkpt>
<trkpt lat="42.7234000" lon="-2.5533300">
<ele>890.991333</ele>
<time>2012-03-29T08:11:24.000Z</time>
</trkpt>
<trkpt lat="42.7235000" lon="-2.5533400">
<ele>890.991333</ele>
<time>2012-03-29T08:11:42.999Z</time>
</trkpt>
<trkpt lat="42.7237100" lon="-2.5533700">
<ele>890.991333</ele>
<time>2012-03-29T08:11:59.001Z</time>
</trkpt>
<trkpt lat="42.7238600" lon="-2.5533900">
<ele>890.991333</ele>
<time>2012-03-29T08:12:12.004Z</time>
</trkpt>
<trkpt lat="42.7240100" lon="-2.5534000">
<ele>890.991333</ele>
<time>2012-03-29T08:12:23.996Z</time>
</trkpt>
<trkpt lat="42.7242200" lon="-2.5534100">
<ele>890.991333</ele>
<time>2012-03-29T08:12:39.004Z</time>
</trkpt>
<trkpt lat="42.7244300" lon="-2.5534500">
<ele>891.021851</ele>
<time>2012-03-29T08:12:54.003Z</time>
</trkpt>
<trkpt lat="42.7246000" lon="-2.5535000">
<ele>891.082825</ele>
<time>2012-03-29T08:13:09.002Z</time>
</trkpt>
<trkpt lat="42.7247100" lon="-2.5535100">
<ele>891.021851</ele>
<time>2012-03-29T08:13:17.996Z</time>
</trkpt>
<trkpt lat="42.7249400" lon="-2.5535600">
<ele>891.722900</ele>
<time>2012-03-29T08:13:36.002Z</time>
</trkpt>
<trkpt lat="42.7251100" lon="-2.5536000">
<ele>891.296143</ele>
<time>2012-03-29T08:13:52.003Z</time>
</trkpt>
<trkpt lat="42.7253100" lon="-2.5536300">
<ele>891.021851</ele>
<time>2012-03-29T08:14:07.002Z</time>
</trkpt>
<trkpt lat="42.7255100" lon="-2.5536800">
<ele>890.717041</ele>
<time>2012-03-29T08:14:22.001Z</time>
</trkpt>
<trkpt lat="42.7257000" lon="-2.5537800">
<ele>891.814270</ele>
<time>2012-03-29T08:14:37.000Z</time>
</trkpt>
<trkpt lat="42.7258900" lon="-2.5538700">
<ele>892.759216</ele>
<time>2012-03-29T08:14:51.999Z</time>
</trkpt>
<trkpt lat="42.7261400" lon="-2.5539400">
<ele>893.216370</ele>
<time>2012-03-29T08:15:10.999Z</time>
</trkpt>
<trkpt lat="42.7263300" lon="-2.5539800">
<ele>893.704102</ele>
<time>2012-03-29T08:15:25.998Z</time>
</trkpt>
<trkpt lat="42.7265400" lon="-2.5540300">
<ele>894.435608</ele>
<time>2012-03-29T08:15:43.001Z</time>
</trkpt>
<trkpt lat="42.7268000" lon="-2.5540900">
<ele>894.191772</ele>
<time>2012-03-29T08:16:00.998Z</time>
</trkpt>
<trkpt lat="42.7270000" lon="-2.5541000">
<ele>894.161316</ele>
<time>2012-03-29T08:16:15.004Z</time>
</trkpt>
<trkpt lat="42.7271900" lon="-2.5540600">
<ele>894.191772</ele>
<time>2012-03-29T08:16:30.003Z</time>
</trkpt>
<trkpt lat="42.7273500" lon="-2.5540500">
<ele>893.429749</ele>
<time>2012-03-29T08:16:42.004Z</time>
</trkpt>
<trkpt lat="42.7274100" lon="-2.5540600">
<ele>893.277344</ele>
<time>2012-03-29T08:16:46.998Z</time>
</trkpt>
<trkpt lat="42.7276200" lon="-2.5541100">
<ele>891.844788</ele>
<time>2012-03-29T08:17:02.999Z</time>
</trkpt>
<trkpt lat="42.7277400" lon="-2.5541400">
<ele>893.551697</ele>
<time>2012-03-29T08:17:13.004Z</time>
</trkpt>
<trkpt lat="42.7278000" lon="-2.5541500">
<ele>894.069885</ele>
<time>2012-03-29T08:17:17.998Z</time>
</trkpt>
<trkpt lat="42.7279700" lon="-2.5541900">
<ele>895.868164</ele>
<time>2012-03-29T08:17:32.997Z</time>
</trkpt>
<trkpt lat="42.7281700" lon="-2.5542000">
<ele>897.239746</ele>
<time>2012-03-29T08:17:47.996Z</time>
</trkpt>
<trkpt lat="42.7282300" lon="-2.5541700">
<ele>897.757874</ele>
<time>2012-03-29T08:18:05.000Z</time>
</trkpt>
<trkpt lat="42.7282800" lon="-2.5541500">
<ele>898.093201</ele>
<time>2012-03-29T08:18:18.003Z</time>
</trkpt>
<trkpt lat="42.7282900" lon="-2.5541500">
<ele>898.184631</ele>
<time>2012-03-29T08:18:22.003Z</time>
</trkpt>
<trkpt lat="42.7284700" lon="-2.5540200">
<ele>900.379211</ele>
<time>2012-03-29T08:18:40.000Z</time>
</trkpt>
<trkpt lat="42.7286200" lon="-2.5539900">
<ele>900.958313</ele>
<time>2012-03-29T08:18:53.997Z</time>
</trkpt>
<trkpt lat="42.7287000" lon="-2.5539500">
<ele>901.750793</ele>
<time>2012-03-29T08:19:00.002Z</time>
</trkpt>
<trkpt lat="42.7287500" lon="-2.5539100">
<ele>901.476501</ele>
<time>2012-03-29T08:19:04.996Z</time>
</trkpt>
<trkpt lat="42.7289700" lon="-2.5538100">
<ele>901.628906</ele>
<time>2012-03-29T08:19:21.999Z</time>
</trkpt>
<trkpt lat="42.7291700" lon="-2.5537800">
<ele>901.994629</ele>
<time>2012-03-29T08:19:38.001Z</time>
</trkpt>
<trkpt lat="42.7293400" lon="-2.5537600">
<ele>901.659363</ele>
<time>2012-03-29T08:19:51.997Z</time>
</trkpt>
<trkpt lat="42.7295200" lon="-2.5537600">
<ele>901.750793</ele>
<time>2012-03-29T08:20:06.996Z</time>
</trkpt>
<trkpt lat="42.7297000" lon="-2.5538000">
<ele>900.836426</ele>
<time>2012-03-29T08:20:22.004Z</time>
</trkpt>
<trkpt lat="42.7298800" lon="-2.5538700">
<ele>900.592529</ele>
<time>2012-03-29T08:20:37.997Z</time>
</trkpt>
<trkpt lat="42.7300600" lon="-2.5539000">
<ele>900.013428</ele>
<time>2012-03-29T08:20:52.996Z</time>
</trkpt>
<trkpt lat="42.7302300" lon="-2.5539000">
<ele>898.154175</ele>
<time>2012-03-29T08:21:08.004Z</time>
</trkpt>
<trkpt lat="42.7302400" lon="-2.5538900">
<ele>897.879883</ele>
<time>2012-03-29T08:21:22.000Z</time>
</trkpt>
<trkpt lat="42.7303200" lon="-2.5539400">
<ele>897.757874</ele>
<time>2012-03-29T08:21:28.999Z</time>
</trkpt>
<trkpt lat="42.7304900" lon="-2.5540700">
<ele>898.215088</ele>
<time>2012-03-29T08:21:43.998Z</time>
</trkpt>
<trkpt lat="42.7306400" lon="-2.5542300">
<ele>898.032227</ele>
<time>2012-03-29T08:21:59.999Z</time>
</trkpt>
<trkpt lat="42.7306600" lon="-2.5542500">
<ele>898.154175</ele>
<time>2012-03-29T08:22:02.004Z</time>
</trkpt>
<trkpt lat="42.7307100" lon="-2.5542700">
<ele>897.544556</ele>
<time>2012-03-29T08:22:06.004Z</time>
</trkpt>
<trkpt lat="42.7308800" lon="-2.5543400">
<ele>895.197571</ele>
<time>2012-03-29T08:22:21.003Z</time>
</trkpt>
<trkpt lat="42.7310900" lon="-2.5543700">
<ele>896.081482</ele>
<time>2012-03-29T08:22:37.004Z</time>
</trkpt>
<trkpt lat="42.7312100" lon="-2.5543700">
<ele>896.874023</ele>
<time>2012-03-29T08:22:49.999Z</time>
</trkpt>
<trkpt lat="42.7312100" lon="-2.5543800">
<ele>897.087341</ele>
<time>2012-03-29T08:22:53.999Z</time>
</trkpt>
<trkpt lat="42.7311500" lon="-2.5543500">
<ele>895.624268</ele>
<time>2012-03-29T08:23:00.997Z</time>
</trkpt>
<trkpt lat="42.7311400" lon="-2.5542700">
<ele>893.521179</ele>
<time>2012-03-29T08:23:14.001Z</time>
</trkpt>
<trkpt lat="42.7311300" lon="-2.5543000">
<ele>894.130798</ele>
<time>2012-03-29T08:23:22.001Z</time>
</trkpt>
<trkpt lat="42.7311500" lon="-2.5543600">
<ele>895.868164</ele>
<time>2012-03-29T08:23:26.002Z</time>
</trkpt>
<trkpt lat="42.7313500" lon="-2.5543900">
<ele>897.849365</ele>
<time>2012-03-29T08:23:41.001Z</time>
</trkpt>
<trkpt lat="42.7315400" lon="-2.5543200">
<ele>898.580933</ele>
<time>2012-03-29T08:23:56.000Z</time>
</trkpt>
<trkpt lat="42.7317600" lon="-2.5542100">
<ele>900.714539</ele>
<time>2012-03-29T08:24:13.997Z</time>
</trkpt>
<trkpt lat="42.7318100" lon="-2.5541800">
<ele>901.354553</ele>
<time>2012-03-29T08:24:18.999Z</time>
</trkpt>
<trkpt lat="42.7318600" lon="-2.5541500">
<ele>901.628906</ele>
<time>2012-03-29T08:24:23.000Z</time>
</trkpt>
<trkpt lat="42.7318500" lon="-2.5540380">
<ele>900.104919</ele>
<time>2012-03-29T08:24:35.001Z</time>
</trkpt>
<trkpt lat="42.7319110" lon="-2.5538760">
<ele>898.702820</ele>
<time>2012-03-29T08:24:44.004Z</time>
</trkpt>
<trkpt lat="42.7320290" lon="-2.5537440">
<ele>899.342896</ele>
<time>2012-03-29T08:24:55.996Z</time>
</trkpt>
<trkpt lat="42.7321930" lon="-2.5535490">
<ele>899.952515</ele>
<time>2012-03-29T08:25:11.997Z</time>
</trkpt>
<trkpt lat="42.7322160" lon="-2.5535290">
<ele>900.135315</ele>
<time>2012-03-29T08:25:14.002Z</time>
</trkpt>
<trkpt lat="42.7323150" lon="-2.5534140">
<ele>899.891479</ele>
<time>2012-03-29T08:25:23.998Z</time>
</trkpt>
<trkpt lat="42.7324370" lon="-2.5532600">
<ele>899.647705</ele>
<time>2012-03-29T08:25:37.001Z</time>
</trkpt>
<trkpt lat="42.7324980" lon="-2.5532080">
<ele>899.830566</ele>
<time>2012-03-29T08:25:42.004Z</time>
</trkpt>
<trkpt lat="42.7326700" lon="-2.5530490">
<ele>901.506958</ele>
<time>2012-03-29T08:25:57.003Z</time>
</trkpt>
<trkpt lat="42.7328070" lon="-2.5528800">
<ele>902.390930</ele>
<time>2012-03-29T08:26:11.000Z</time>
</trkpt>
<trkpt lat="42.7328190" lon="-2.5528660">
<ele>902.482300</ele>
<time>2012-03-29T08:26:12.002Z</time>
</trkpt>
<trkpt lat="42.7328640" lon="-2.5526970">
<ele>902.055603</ele>
<time>2012-03-29T08:26:23.001Z</time>
</trkpt>
<trkpt lat="42.7328000" lon="-2.5526400">
<ele>900.409729</ele>
<time>2012-03-29T08:29:07.999Z</time>
</trkpt>
<trkpt lat="42.7327300" lon="-2.5525200">
<ele>897.148315</ele>
<time>2012-03-29T08:29:20.000Z</time>
</trkpt>
<trkpt lat="42.7327400" lon="-2.5525100">
<ele>897.178772</ele>
<time>2012-03-29T08:29:38.999Z</time>
</trkpt>
<trkpt lat="42.7327100" lon="-2.5524900">
<ele>896.477722</ele>
<time>2012-03-29T08:29:55.000Z</time>
</trkpt>
<trkpt lat="42.7326200" lon="-2.5525000">
<ele>895.624268</ele>
<time>2012-03-29T08:30:20.998Z</time>
</trkpt>
<trkpt lat="42.7326000" lon="-2.5525200">
<ele>895.349976</ele>
<time>2012-03-29T08:30:39.997Z</time>
</trkpt>
<trkpt lat="42.7325100" lon="-2.5526300">
<ele>893.399292</ele>
<time>2012-03-29T08:31:22.999Z</time>
</trkpt>
<trkpt lat="42.7324900" lon="-2.5526600">
<ele>892.850647</ele>
<time>2012-03-29T08:31:26.999Z</time>
</trkpt>
<trkpt lat="42.7324400" lon="-2.5527600">
<ele>891.052307</ele>
<time>2012-03-29T08:31:33.997Z</time>
</trkpt>
<trkpt lat="42.7323700" lon="-2.5528300">
<ele>888.613892</ele>
<time>2012-03-29T08:31:43.000Z</time>
</trkpt>
<trkpt lat="42.7323000" lon="-2.5529300">
<ele>887.425171</ele>
<time>2012-03-29T08:31:55.001Z</time>
</trkpt>
<trkpt lat="42.7322800" lon="-2.5529600">
<ele>887.333740</ele>
<time>2012-03-29T08:31:57.999Z</time>
</trkpt>
<trkpt lat="42.7322600" lon="-2.5529500">
<ele>886.602234</ele>
<time>2012-03-29T08:32:00.004Z</time>
</trkpt>
<trkpt lat="42.7322100" lon="-2.5529600">
<ele>885.017334</ele>
<time>2012-03-29T08:32:04.998Z</time>
</trkpt>
<trkpt lat="42.7321900" lon="-2.5529800">
<ele>884.986816</ele>
<time>2012-03-29T08:32:08.998Z</time>
</trkpt>
<trkpt lat="42.7321000" lon="-2.5530500">
<ele>883.127502</ele>
<time>2012-03-29T08:32:18.001Z</time>
</trkpt>
<trkpt lat="42.7320500" lon="-2.5531000">
<ele>882.274109</ele>
<time>2012-03-29T08:32:23.004Z</time>
</trkpt>
<trkpt lat="42.7319900" lon="-2.5532100">
<ele>881.542542</ele>
<time>2012-03-29T08:32:38.996Z</time>
</trkpt>
<trkpt lat="42.7319400" lon="-2.5532800">
<ele>880.597717</ele>
<time>2012-03-29T08:32:46.003Z</time>
</trkpt>
<trkpt lat="42.7318300" lon="-2.5534100">
<ele>879.652771</ele>
<time>2012-03-29T08:33:00.000Z</time>
</trkpt>
<trkpt lat="42.7317600" lon="-2.5534600">
<ele>877.549683</ele>
<time>2012-03-29T08:33:06.998Z</time>
</trkpt>
<trkpt lat="42.7316800" lon="-2.5534700">
<ele>874.654114</ele>
<time>2012-03-29T08:33:14.999Z</time>
</trkpt>
<trkpt lat="42.7316000" lon="-2.5534300">
<ele>871.118408</ele>
<time>2012-03-29T08:33:24.002Z</time>
</trkpt>
<trkpt lat="42.7315300" lon="-2.5534300">
<ele>869.716309</ele>
<time>2012-03-29T08:33:28.996Z</time>
</trkpt>
<trkpt lat="42.7314300" lon="-2.5534000">
<ele>867.034119</ele>
<time>2012-03-29T08:33:43.001Z</time>
</trkpt>
<trkpt lat="42.7313100" lon="-2.5532900">
<ele>862.614502</ele>
<time>2012-03-29T08:33:56.998Z</time>
</trkpt>
<trkpt lat="42.7312800" lon="-2.5531800">
<ele>859.292175</ele>
<time>2012-03-29T08:34:06.001Z</time>
</trkpt>
<trkpt lat="42.7311900" lon="-2.5531400">
<ele>857.768127</ele>
<time>2012-03-29T08:34:19.004Z</time>
</trkpt>
<trkpt lat="42.7311600" lon="-2.5532100">
<ele>859.353088</ele>
<time>2012-03-29T08:34:26.003Z</time>
</trkpt>
<trkpt lat="42.7311100" lon="-2.5531900">
<ele>858.591064</ele>
<time>2012-03-29T08:34:35.999Z</time>
</trkpt>
<trkpt lat="42.7311300" lon="-2.5531200">
<ele>856.396545</ele>
<time>2012-03-29T08:34:42.997Z</time>
</trkpt>
<trkpt lat="42.7310900" lon="-2.5530400">
<ele>853.714294</ele>
<time>2012-03-29T08:34:57.996Z</time>
</trkpt>
<trkpt lat="42.7310700" lon="-2.5529400">
<ele>850.331055</ele>
<time>2012-03-29T08:35:13.004Z</time>
</trkpt>
<trkpt lat="42.7311400" lon="-2.5528700">
<ele>847.374512</ele>
<time>2012-03-29T08:35:29.999Z</time>
</trkpt>
<trkpt lat="42.7312000" lon="-2.5528300">
<ele>845.545715</ele>
<time>2012-03-29T08:35:36.997Z</time>
</trkpt>
<trkpt lat="42.7312700" lon="-2.5528100">
<ele>844.875061</ele>
<time>2012-03-29T08:35:48.998Z</time>
</trkpt>
<trkpt lat="42.7313700" lon="-2.5528100">
<ele>845.179871</ele>
<time>2012-03-29T08:35:59.997Z</time>
</trkpt>
<trkpt lat="42.7313900" lon="-2.5526700">
<ele>840.181213</ele>
<time>2012-03-29T08:36:10.002Z</time>
</trkpt>
<trkpt lat="42.7314000" lon="-2.5526000">
<ele>837.011292</ele>
<time>2012-03-29T08:36:27.999Z</time>
</trkpt>
<trkpt lat="42.7314100" lon="-2.5525800">
<ele>836.249329</ele>
<time>2012-03-29T08:37:08.996Z</time>
</trkpt>
<trkpt lat="42.7315000" lon="-2.5524700">
<ele>832.805054</ele>
<time>2012-03-29T08:37:23.002Z</time>
</trkpt>
<trkpt lat="42.7315500" lon="-2.5524000">
<ele>831.951599</ele>
<time>2012-03-29T08:37:28.004Z</time>
</trkpt>
<trkpt lat="42.7315800" lon="-2.5523500">
<ele>831.159119</ele>
<time>2012-03-29T08:37:31.996Z</time>
</trkpt>
<trkpt lat="42.7316300" lon="-2.5521900">
<ele>828.050171</ele>
<time>2012-03-29T08:37:44.999Z</time>
</trkpt>
<trkpt lat="42.7316400" lon="-2.5521300">
<ele>827.166260</ele>
<time>2012-03-29T08:37:48.999Z</time>
</trkpt>
<trkpt lat="42.7316100" lon="-2.5519900">
<ele>821.801758</ele>
<time>2012-03-29T08:37:59.998Z</time>
</trkpt>
<trkpt lat="42.7316200" lon="-2.5518400">
<ele>818.601318</ele>
<time>2012-03-29T08:38:11.999Z</time>
</trkpt>
<trkpt lat="42.7316100" lon="-2.5518300">
<ele>817.778381</ele>
<time>2012-03-29T08:38:13.001Z</time>
</trkpt>
<trkpt lat="42.7316500" lon="-2.5516600">
<ele>815.096130</ele>
<time>2012-03-29T08:38:25.996Z</time>
</trkpt>
<trkpt lat="42.7316500" lon="-2.5516500">
<ele>814.791321</ele>
<time>2012-03-29T08:38:26.998Z</time>
</trkpt>
<trkpt lat="42.7316900" lon="-2.5516200">
<ele>815.949585</ele>
<time>2012-03-29T08:38:32.001Z</time>
</trkpt>
<trkpt lat="42.7317100" lon="-2.5515700">
<ele>815.583862</ele>
<time>2012-03-29T08:38:44.002Z</time>
</trkpt>
<trkpt lat="42.7317900" lon="-2.5514600">
<ele>814.273193</ele>
<time>2012-03-29T08:38:53.998Z</time>
</trkpt>
<trkpt lat="42.7318500" lon="-2.5513100">
<ele>809.914551</ele>
<time>2012-03-29T08:39:05.999Z</time>
</trkpt>
<trkpt lat="42.7319500" lon="-2.5512500">
<ele>808.969727</ele>
<time>2012-03-29T08:39:18.000Z</time>
</trkpt>
<trkpt lat="42.7320000" lon="-2.5511800">
<ele>806.958008</ele>
<time>2012-03-29T08:39:28.999Z</time>
</trkpt>
<trkpt lat="42.7320200" lon="-2.5511300">
<ele>804.885315</ele>
<time>2012-03-29T08:39:47.998Z</time>
</trkpt>
<trkpt lat="42.7320500" lon="-2.5511100">
<ele>804.428162</ele>
<time>2012-03-29T08:39:59.999Z</time>
</trkpt>
<trkpt lat="42.7319900" lon="-2.5510900">
<ele>802.355469</ele>
<time>2012-03-29T08:43:30.003Z</time>
</trkpt>
<trkpt lat="42.7319300" lon="-2.5511200">
<ele>802.264099</ele>
<time>2012-03-29T08:43:35.999Z</time>
</trkpt>
<trkpt lat="42.7317900" lon="-2.5511100">
<ele>798.118774</ele>
<time>2012-03-29T08:43:46.998Z</time>
</trkpt>
<trkpt lat="42.7317300" lon="-2.5511000">
<ele>796.168091</ele>
<time>2012-03-29T08:43:50.998Z</time>
</trkpt>
<trkpt lat="42.7316500" lon="-2.5511100">
<ele>794.613586</ele>
<time>2012-03-29T08:43:57.003Z</time>
</trkpt>
<trkpt lat="42.7316300" lon="-2.5510900">
<ele>793.272522</ele>
<time>2012-03-29T08:43:58.999Z</time>
</trkpt>
<trkpt lat="42.7314600" lon="-2.5510900">
<ele>789.249084</ele>
<time>2012-03-29T08:44:13.004Z</time>
</trkpt>
<trkpt lat="42.7314000" lon="-2.5511100">
<ele>788.273743</ele>
<time>2012-03-29T08:44:19.000Z</time>
</trkpt>
<trkpt lat="42.7313300" lon="-2.5511300">
<ele>786.810669</ele>
<time>2012-03-29T08:44:31.001Z</time>
</trkpt>
<trkpt lat="42.7313100" lon="-2.5511300">
<ele>786.079224</ele>
<time>2012-03-29T08:44:39.002Z</time>
</trkpt>
<trkpt lat="42.7312900" lon="-2.5510500">
<ele>783.823730</ele>
<time>2012-03-29T08:44:46.000Z</time>
</trkpt>
<trkpt lat="42.7313500" lon="-2.5508500">
<ele>780.440430</ele>
<time>2012-03-29T08:44:59.004Z</time>
</trkpt>
<trkpt lat="42.7314900" lon="-2.5507200">
<ele>777.910522</ele>
<time>2012-03-29T08:45:11.998Z</time>
</trkpt>
<trkpt lat="42.7315000" lon="-2.5507100">
<ele>777.727722</ele>
<time>2012-03-29T08:45:13.000Z</time>
</trkpt>
<trkpt lat="42.7315400" lon="-2.5506400">
<ele>775.807434</ele>
<time>2012-03-29T08:45:18.996Z</time>
</trkpt>
<trkpt lat="42.7316100" lon="-2.5505700">
<ele>774.405334</ele>
<time>2012-03-29T08:45:27.999Z</time>
</trkpt>
<trkpt lat="42.7316300" lon="-2.5504900">
<ele>771.906006</ele>
<time>2012-03-29T08:45:33.002Z</time>
</trkpt>
<trkpt lat="42.7315000" lon="-2.5504000">
<ele>767.516907</ele>
<time>2012-03-29T08:45:45.996Z</time>
</trkpt>
<trkpt lat="42.7314600" lon="-2.5503500">
<ele>766.297729</ele>
<time>2012-03-29T08:46:01.998Z</time>
</trkpt>
<trkpt lat="42.7314500" lon="-2.5503500">
<ele>766.328125</ele>
<time>2012-03-29T08:46:11.001Z</time>
</trkpt>
<trkpt lat="42.7313800" lon="-2.5501700">
<ele>761.939026</ele>
<time>2012-03-29T08:46:24.004Z</time>
</trkpt>
<trkpt lat="42.7314600" lon="-2.5501900">
<ele>762.182922</ele>
<time>2012-03-29T08:46:39.996Z</time>
</trkpt>
<trkpt lat="42.7316200" lon="-2.5502100">
<ele>763.859314</ele>
<time>2012-03-29T08:46:51.997Z</time>
</trkpt>
<trkpt lat="42.7318000" lon="-2.5502600">
<ele>766.389099</ele>
<time>2012-03-29T08:47:06.996Z</time>
</trkpt>
<trkpt lat="42.7318400" lon="-2.5502500">
<ele>766.602539</ele>
<time>2012-03-29T08:47:10.003Z</time>
</trkpt>
<trkpt lat="42.7319200" lon="-2.5502200">
<ele>767.364502</ele>
<time>2012-03-29T08:47:18.004Z</time>
</trkpt>
<trkpt lat="42.7320900" lon="-2.5501900">
<ele>768.400818</ele>
<time>2012-03-29T08:47:33.003Z</time>
</trkpt>
<trkpt lat="42.7322300" lon="-2.5501400">
<ele>768.187439</ele>
<time>2012-03-29T08:47:47.000Z</time>
</trkpt>
<trkpt lat="42.7324300" lon="-2.5501600">
<ele>771.204956</ele>
<time>2012-03-29T08:48:01.999Z</time>
</trkpt>
<trkpt lat="42.7325400" lon="-2.5501900">
<ele>773.521484</ele>
<time>2012-03-29T08:48:14.000Z</time>
</trkpt>
<trkpt lat="42.7327200" lon="-2.5501500">
<ele>774.100525</ele>
<time>2012-03-29T08:48:27.996Z</time>
</trkpt>
<trkpt lat="42.7327300" lon="-2.5501300">
<ele>773.521484</ele>
<time>2012-03-29T08:48:30.001Z</time>
</trkpt>
<trkpt lat="42.7328900" lon="-2.5500900">
<ele>774.557739</ele>
<time>2012-03-29T08:48:45.000Z</time>
</trkpt>
<trkpt lat="42.7331000" lon="-2.5499900">
<ele>775.685486</ele>
<time>2012-03-29T08:48:58.997Z</time>
</trkpt>
<trkpt lat="42.7331800" lon="-2.5499700">
<ele>776.295105</ele>
<time>2012-03-29T08:49:12.000Z</time>
</trkpt>
<trkpt lat="42.7332800" lon="-2.5499500">
<ele>777.910522</ele>
<time>2012-03-29T08:49:21.003Z</time>
</trkpt>
<trkpt lat="42.7334500" lon="-2.5499000">
<ele>779.282166</ele>
<time>2012-03-29T08:49:35.000Z</time>
</trkpt>
<trkpt lat="42.7335200" lon="-2.5498600">
<ele>778.763977</ele>
<time>2012-03-29T08:49:40.996Z</time>
</trkpt>
<trkpt lat="42.7337000" lon="-2.5498100">
<ele>779.373596</ele>
<time>2012-03-29T08:49:53.999Z</time>
</trkpt>
<trkpt lat="42.7338100" lon="-2.5498000">
<ele>780.135620</ele>
<time>2012-03-29T08:50:02.000Z</time>
</trkpt>
<trkpt lat="42.7340300" lon="-2.5497900">
<ele>782.208252</ele>
<time>2012-03-29T08:50:19.003Z</time>
</trkpt>
<trkpt lat="42.7341900" lon="-2.5497400">
<ele>783.000671</ele>
<time>2012-03-29T08:50:31.998Z</time>
</trkpt>
<trkpt lat="42.7343400" lon="-2.5496900">
<ele>783.427429</ele>
<time>2012-03-29T08:50:46.003Z</time>
</trkpt>
<trkpt lat="42.7344800" lon="-2.5496200">
<ele>782.482544</ele>
<time>2012-03-29T08:51:01.996Z</time>
</trkpt>
<trkpt lat="42.7346600" lon="-2.5496300">
<ele>785.896301</ele>
<time>2012-03-29T08:51:16.001Z</time>
</trkpt>
<trkpt lat="42.7348500" lon="-2.5496200">
<ele>788.426147</ele>
<time>2012-03-29T08:51:32.996Z</time>
</trkpt>
<trkpt lat="42.7350100" lon="-2.5495300">
<ele>787.908020</ele>
<time>2012-03-29T08:51:48.004Z</time>
</trkpt>
<trkpt lat="42.7352300" lon="-2.5493800">
<ele>788.578552</ele>
<time>2012-03-29T08:52:06.001Z</time>
</trkpt>
<trkpt lat="42.7353600" lon="-2.5493200">
<ele>790.011108</ele>
<time>2012-03-29T08:52:19.004Z</time>
</trkpt>
<trkpt lat="42.7354600" lon="-2.5492200">
<ele>789.188171</ele>
<time>2012-03-29T08:52:31.999Z</time>
</trkpt>
<trkpt lat="42.7356500" lon="-2.5491400">
<ele>790.285461</ele>
<time>2012-03-29T08:52:49.996Z</time>
</trkpt>
<trkpt lat="42.7356800" lon="-2.5491200">
<ele>790.072083</ele>
<time>2012-03-29T08:53:05.004Z</time>
</trkpt>
<trkpt lat="42.7356500" lon="-2.5491200">
<ele>789.645325</ele>
<time>2012-03-29T08:54:06.002Z</time>
</trkpt>
<trkpt lat="42.7357800" lon="-2.5490700">
<ele>790.742676</ele>
<time>2012-03-29T08:54:26.997Z</time>
</trkpt>
<trkpt lat="42.7357900" lon="-2.5490700">
<ele>790.834106</ele>
<time>2012-03-29T08:54:27.999Z</time>
</trkpt>
<trkpt lat="42.7359600" lon="-2.5491500">
<ele>794.186890</ele>
<time>2012-03-29T08:54:45.003Z</time>
</trkpt>
<trkpt lat="42.7361200" lon="-2.5490900">
<ele>794.522156</ele>
<time>2012-03-29T08:55:09.998Z</time>
</trkpt>
<trkpt lat="42.7360800" lon="-2.5490900">
<ele>794.034485</ele>
<time>2012-03-29T08:55:24.004Z</time>
</trkpt>
<trkpt lat="42.7361000" lon="-2.5491400">
<ele>795.467041</ele>
<time>2012-03-29T08:55:32.998Z</time>
</trkpt>
<trkpt lat="42.7362100" lon="-2.5492000">
<ele>800.374268</ele>
<time>2012-03-29T08:55:44.999Z</time>
</trkpt>
<trkpt lat="42.7363100" lon="-2.5491800">
<ele>801.806885</ele>
<time>2012-03-29T08:55:57.000Z</time>
</trkpt>
<trkpt lat="42.7364700" lon="-2.5491100">
<ele>801.715454</ele>
<time>2012-03-29T08:56:15.999Z</time>
</trkpt>
<trkpt lat="42.7365200" lon="-2.5490300">
<ele>802.568909</ele>
<time>2012-03-29T08:56:32.001Z</time>
</trkpt>
<trkpt lat="42.7365700" lon="-2.5490900">
<ele>803.544250</ele>
<time>2012-03-29T08:57:12.004Z</time>
</trkpt>
<trkpt lat="42.7366500" lon="-2.5491300">
<ele>806.195984</ele>
<time>2012-03-29T08:57:23.003Z</time>
</trkpt>
<trkpt lat="42.7367400" lon="-2.5491900">
<ele>808.847717</ele>
<time>2012-03-29T08:57:31.997Z</time>
</trkpt>
<trkpt lat="42.7368700" lon="-2.5492200">
<ele>809.365906</ele>
<time>2012-03-29T08:57:45.000Z</time>
</trkpt>
<trkpt lat="42.7369700" lon="-2.5492100">
<ele>809.701172</ele>
<time>2012-03-29T08:57:59.999Z</time>
</trkpt>
<trkpt lat="42.7371600" lon="-2.5492600">
<ele>814.059875</ele>
<time>2012-03-29T08:58:18.998Z</time>
</trkpt>
<trkpt lat="42.7372900" lon="-2.5492900">
<ele>817.168823</ele>
<time>2012-03-29T08:58:37.004Z</time>
</trkpt>
<trkpt lat="42.7374400" lon="-2.5493300">
<ele>820.552124</ele>
<time>2012-03-29T08:58:51.001Z</time>
</trkpt>
<trkpt lat="42.7375800" lon="-2.5493000">
<ele>820.216797</ele>
<time>2012-03-29T08:59:07.002Z</time>
</trkpt>
<trkpt lat="42.7377600" lon="-2.5493200">
<ele>821.954163</ele>
<time>2012-03-29T08:59:24.999Z</time>
</trkpt>
<trkpt lat="42.7380200" lon="-2.5492700">
<ele>820.399719</ele>
<time>2012-03-29T08:59:46.997Z</time>
</trkpt>
<trkpt lat="42.7382600" lon="-2.5493400">
<ele>825.825073</ele>
<time>2012-03-29T09:00:05.996Z</time>
</trkpt>
<trkpt lat="42.7382700" lon="-2.5493300">
<ele>825.459351</ele>
<time>2012-03-29T09:00:06.998Z</time>
</trkpt>
<trkpt lat="42.7384900" lon="-2.5492900">
<ele>827.775879</ele>
<time>2012-03-29T09:00:21.997Z</time>
</trkpt>
<trkpt lat="42.7385500" lon="-2.5492800">
<ele>828.537842</ele>
<time>2012-03-29T09:00:25.998Z</time>
</trkpt>
<trkpt lat="42.7385900" lon="-2.5492800">
<ele>829.543701</ele>
<time>2012-03-29T09:00:32.003Z</time>
</trkpt>
<trkpt lat="42.7387300" lon="-2.5491900">
<ele>827.440552</ele>
<time>2012-03-29T09:00:48.004Z</time>
</trkpt>
<trkpt lat="42.7389200" lon="-2.5491400">
<ele>827.531982</ele>
<time>2012-03-29T09:01:06.001Z</time>
</trkpt>
<trkpt lat="42.7392000" lon="-2.5491200">
<ele>826.129883</ele>
<time>2012-03-29T09:01:29.001Z</time>
</trkpt>
<trkpt lat="42.7394400" lon="-2.5491400">
<ele>828.294006</ele>
<time>2012-03-29T09:01:53.996Z</time>
</trkpt>
<trkpt lat="42.7395300" lon="-2.5491600">
<ele>830.214233</ele>
<time>2012-03-29T09:01:58.999Z</time>
</trkpt>
<trkpt lat="42.7397500" lon="-2.5491100">
<ele>831.951599</ele>
<time>2012-03-29T09:02:20.003Z</time>
</trkpt>
<trkpt lat="42.7399500" lon="-2.5490800">
<ele>834.877686</ele>
<time>2012-03-29T09:02:38.000Z</time>
</trkpt>
<trkpt lat="42.7401200" lon="-2.5490900">
<ele>838.626709</ele>
<time>2012-03-29T09:02:55.997Z</time>
</trkpt>
<trkpt lat="42.7402400" lon="-2.5490600">
<ele>838.901062</ele>
<time>2012-03-29T09:03:10.002Z</time>
</trkpt>
<trkpt lat="42.7404500" lon="-2.5489000">
<ele>837.102661</ele>
<time>2012-03-29T09:03:30.004Z</time>
</trkpt>
<trkpt lat="42.7404500" lon="-2.5488500">
<ele>835.578674</ele>
<time>2012-03-29T09:03:32.000Z</time>
</trkpt>
<trkpt lat="42.7405300" lon="-2.5487700">
<ele>836.767456</ele>
<time>2012-03-29T09:03:45.996Z</time>
</trkpt>
<trkpt lat="42.7406900" lon="-2.5487600">
<ele>841.461365</ele>
<time>2012-03-29T09:04:00.002Z</time>
</trkpt>
<trkpt lat="42.7408600" lon="-2.5487200">
<ele>842.284302</ele>
<time>2012-03-29T09:04:13.999Z</time>
</trkpt>
<trkpt lat="42.7409700" lon="-2.5486900">
<ele>841.369873</ele>
<time>2012-03-29T09:04:27.002Z</time>
</trkpt>
<trkpt lat="42.7410400" lon="-2.5487200">
<ele>842.436707</ele>
<time>2012-03-29T09:04:32.998Z</time>
</trkpt>
<trkpt lat="42.7411700" lon="-2.5486600">
<ele>840.607910</ele>
<time>2012-03-29T09:04:53.000Z</time>
</trkpt>
<trkpt lat="42.7411200" lon="-2.5486600">
<ele>840.607910</ele>
<time>2012-03-29T09:05:20.000Z</time>
</trkpt>
<trkpt lat="42.7413200" lon="-2.5487500">
<ele>843.716919</ele>
<time>2012-03-29T09:05:41.997Z</time>
</trkpt>
<trkpt lat="42.7414000" lon="-2.5487800">
<ele>844.875061</ele>
<time>2012-03-29T09:05:48.002Z</time>
</trkpt>
<trkpt lat="42.7415800" lon="-2.5487900">
<ele>845.332275</ele>
<time>2012-03-29T09:06:03.001Z</time>
</trkpt>
<trkpt lat="42.7417100" lon="-2.5487600">
<ele>846.094299</ele>
<time>2012-03-29T09:06:16.004Z</time>
</trkpt>
<trkpt lat="42.7418800" lon="-2.5487000">
<ele>847.222107</ele>
<time>2012-03-29T09:06:31.003Z</time>
</trkpt>
<trkpt lat="42.7420500" lon="-2.5486400">
<ele>847.831726</ele>
<time>2012-03-29T09:06:43.998Z</time>
</trkpt>
<trkpt lat="42.7420700" lon="-2.5486300">
<ele>847.740234</ele>
<time>2012-03-29T09:06:46.002Z</time>
</trkpt>
<trkpt lat="42.7423100" lon="-2.5486500">
<ele>856.366089</ele>
<time>2012-03-29T09:07:02.004Z</time>
</trkpt>
<trkpt lat="42.7424000" lon="-2.5486000">
<ele>858.652100</ele>
<time>2012-03-29T09:07:09.002Z</time>
</trkpt>
<trkpt lat="42.7424900" lon="-2.5484700">
<ele>857.493835</ele>
<time>2012-03-29T09:07:22.999Z</time>
</trkpt>
<trkpt lat="42.7425700" lon="-2.5484200">
<ele>857.341431</ele>
<time>2012-03-29T09:07:37.998Z</time>
</trkpt>
<trkpt lat="42.7426800" lon="-2.5483900">
<ele>857.158569</ele>
<time>2012-03-29T09:07:48.003Z</time>
</trkpt>
<trkpt lat="42.7427000" lon="-2.5484100">
<ele>857.585327</ele>
<time>2012-03-29T09:07:51.001Z</time>
</trkpt>
<trkpt lat="42.7428600" lon="-2.5483700">
<ele>858.987366</ele>
<time>2012-03-29T09:08:04.998Z</time>
</trkpt>
<trkpt lat="42.7429600" lon="-2.5482700">
<ele>857.798645</ele>
<time>2012-03-29T09:08:18.001Z</time>
</trkpt>
<trkpt lat="42.7429500" lon="-2.5482600">
<ele>857.402405</ele>
<time>2012-03-29T09:09:25.004Z</time>
</trkpt>
<trkpt lat="42.7431200" lon="-2.5481100">
<ele>856.427063</ele>
<time>2012-03-29T09:09:41.999Z</time>
</trkpt>
<trkpt lat="42.7432200" lon="-2.5480100">
<ele>855.238281</ele>
<time>2012-03-29T09:09:51.002Z</time>
</trkpt>
<trkpt lat="42.7433000" lon="-2.5478600">
<ele>856.183228</ele>
<time>2012-03-29T09:10:02.001Z</time>
</trkpt>
<trkpt lat="42.7434200" lon="-2.5477600">
<ele>857.402405</ele>
<time>2012-03-29T09:10:14.002Z</time>
</trkpt>
<trkpt lat="42.7435400" lon="-2.5476000">
<ele>856.579468</ele>
<time>2012-03-29T09:10:27.998Z</time>
</trkpt>
<trkpt lat="42.7435900" lon="-2.5475500">
<ele>856.701355</ele>
<time>2012-03-29T09:10:49.002Z</time>
</trkpt>
<trkpt lat="42.7437200" lon="-2.5473900">
<ele>856.975708</ele>
<time>2012-03-29T09:11:02.999Z</time>
</trkpt>
<trkpt lat="42.7437500" lon="-2.5473600">
<ele>856.792786</ele>
<time>2012-03-29T09:11:05.997Z</time>
</trkpt>
<trkpt lat="42.7437800" lon="-2.5473000">
<ele>856.670898</ele>
<time>2012-03-29T09:11:12.002Z</time>
</trkpt>
<trkpt lat="42.7438500" lon="-2.5473100">
<ele>856.762268</ele>
<time>2012-03-29T09:11:24.996Z</time>
</trkpt>
<trkpt lat="42.7439000" lon="-2.5472700">
<ele>857.768127</ele>
<time>2012-03-29T09:11:40.998Z</time>
</trkpt>
<trkpt lat="42.7439700" lon="-2.5472200">
<ele>858.591064</ele>
<time>2012-03-29T09:11:50.001Z</time>
</trkpt>
<trkpt lat="42.7440500" lon="-2.5471700">
<ele>859.261719</ele>
<time>2012-03-29T09:12:03.997Z</time>
</trkpt>
<trkpt lat="42.7440400" lon="-2.5471200">
<ele>859.170227</ele>
<time>2012-03-29T09:12:18.003Z</time>
</trkpt>
<trkpt lat="42.7440300" lon="-2.5471000">
<ele>859.261719</ele>
<time>2012-03-29T09:12:38.998Z</time>
</trkpt>
<trkpt lat="42.7439300" lon="-2.5472600">
<ele>858.255859</ele>
<time>2012-03-29T09:13:04.996Z</time>
</trkpt>
<trkpt lat="42.7439900" lon="-2.5471500">
<ele>858.926392</ele>
<time>2012-03-29T09:13:35.996Z</time>
</trkpt>
<trkpt lat="42.7440400" lon="-2.5471100">
<ele>859.200684</ele>
<time>2012-03-29T09:13:40.999Z</time>
</trkpt>
<trkpt lat="42.7441300" lon="-2.5470500">
<ele>859.505493</ele>
<time>2012-03-29T09:13:51.004Z</time>
</trkpt>
<trkpt lat="42.7442500" lon="-2.5468600">
<ele>861.029480</ele>
<time>2012-03-29T09:14:06.996Z</time>
</trkpt>
<trkpt lat="42.7443000" lon="-2.5467900">
<ele>861.303833</ele>
<time>2012-03-29T09:14:29.996Z</time>
</trkpt>
<trkpt lat="42.7443700" lon="-2.5466900">
<ele>860.999084</ele>
<time>2012-03-29T09:14:44.002Z</time>
</trkpt>
<trkpt lat="42.7444300" lon="-2.5465400">
<ele>863.041199</ele>
<time>2012-03-29T09:14:56.003Z</time>
</trkpt>
<trkpt lat="42.7444400" lon="-2.5464100">
<ele>866.211121</ele>
<time>2012-03-29T09:15:04.997Z</time>
</trkpt>
<trkpt lat="42.7445300" lon="-2.5462500">
<ele>866.637878</ele>
<time>2012-03-29T09:15:27.003Z</time>
</trkpt>
<trkpt lat="42.7446800" lon="-2.5460400">
<ele>867.338928</ele>
<time>2012-03-29T09:15:49.000Z</time>
</trkpt>
<trkpt lat="42.7447400" lon="-2.5459800">
<ele>867.125488</ele>
<time>2012-03-29T09:15:54.003Z</time>
</trkpt>
<trkpt lat="42.7447700" lon="-2.5459300">
<ele>867.857056</ele>
<time>2012-03-29T09:18:12.001Z</time>
</trkpt>
<trkpt lat="42.7448000" lon="-2.5460000">
<ele>866.272095</ele>
<time>2012-03-29T09:18:24.002Z</time>
</trkpt>
<trkpt lat="42.7448400" lon="-2.5460400">
<ele>866.393982</ele>
<time>2012-03-29T09:18:59.996Z</time>
</trkpt>
<trkpt lat="42.7449000" lon="-2.5460300">
<ele>867.918030</ele>
<time>2012-03-29T09:21:10.002Z</time>
</trkpt>
<trkpt lat="42.7449300" lon="-2.5460000">
<ele>868.070374</ele>
<time>2012-03-29T09:21:14.003Z</time>
</trkpt>
<trkpt lat="42.7451300" lon="-2.5459000">
<ele>869.594421</ele>
<time>2012-03-29T09:21:26.997Z</time>
</trkpt>
<trkpt lat="42.7453200" lon="-2.5458400">
<ele>871.118408</ele>
<time>2012-03-29T09:21:44.001Z</time>
</trkpt>
<trkpt lat="42.7454900" lon="-2.5457900">
<ele>872.947205</ele>
<time>2012-03-29T09:21:56.002Z</time>
</trkpt>
<trkpt lat="42.7455300" lon="-2.5457800">
<ele>873.587280</ele>
<time>2012-03-29T09:22:12.996Z</time>
</trkpt>
<trkpt lat="42.7456300" lon="-2.5457700">
<ele>875.446533</ele>
<time>2012-03-29T09:22:27.002Z</time>
</trkpt>
<trkpt lat="42.7457200" lon="-2.5457400">
<ele>876.421875</ele>
<time>2012-03-29T09:22:47.997Z</time>
</trkpt>
<trkpt lat="42.7458000" lon="-2.5457600">
<ele>877.884949</ele>
<time>2012-03-29T09:23:14.997Z</time>
</trkpt>
<trkpt lat="42.7459200" lon="-2.5457600">
<ele>880.475769</ele>
<time>2012-03-29T09:23:38.999Z</time>
</trkpt>
<trkpt lat="42.7459500" lon="-2.5457500">
<ele>880.445313</ele>
<time>2012-03-29T09:24:03.001Z</time>
</trkpt>
<trkpt lat="42.7459600" lon="-2.5457800">
<ele>881.298706</ele>
<time>2012-03-29T09:24:31.997Z</time>
</trkpt>
<trkpt lat="42.7459700" lon="-2.5457500">
<ele>880.689087</ele>
<time>2012-03-29T09:25:10.004Z</time>
</trkpt>
<trkpt lat="42.7461600" lon="-2.5457300">
<ele>882.914124</ele>
<time>2012-03-29T09:26:12.998Z</time>
</trkpt>
<trkpt lat="42.7463000" lon="-2.5457000">
<ele>883.432312</ele>
<time>2012-03-29T09:26:27.004Z</time>
</trkpt>
<trkpt lat="42.7463600" lon="-2.5456900">
<ele>883.950500</ele>
<time>2012-03-29T09:26:33.000Z</time>
</trkpt>
<trkpt lat="42.7463900" lon="-2.5457200">
<ele>885.230652</ele>
<time>2012-03-29T09:26:54.997Z</time>
</trkpt>
<trkpt lat="42.7464200" lon="-2.5456900">
<ele>884.712524</ele>
<time>2012-03-29T09:27:01.002Z</time>
</trkpt>
<trkpt lat="42.7465900" lon="-2.5456200">
<ele>883.584717</ele>
<time>2012-03-29T09:27:13.997Z</time>
</trkpt>
<trkpt lat="42.7467300" lon="-2.5455300">
<ele>884.011475</ele>
<time>2012-03-29T09:27:28.002Z</time>
</trkpt>
<trkpt lat="42.7469300" lon="-2.5454800">
<ele>886.297485</ele>
<time>2012-03-29T09:27:44.997Z</time>
</trkpt>
<trkpt lat="42.7470400" lon="-2.5454800">
<ele>887.486145</ele>
<time>2012-03-29T09:27:59.003Z</time>
</trkpt>
<trkpt lat="42.7470900" lon="-2.5454800">
<ele>887.790955</ele>
<time>2012-03-29T09:28:02.001Z</time>
</trkpt>
<trkpt lat="42.7472800" lon="-2.5455000">
<ele>890.137878</ele>
<time>2012-03-29T09:28:15.997Z</time>
</trkpt>
<trkpt lat="42.7473100" lon="-2.5455100">
<ele>890.838928</ele>
<time>2012-03-29T09:28:21.000Z</time>
</trkpt>
<trkpt lat="42.7474700" lon="-2.5454300">
<ele>892.119080</ele>
<time>2012-03-29T09:28:34.997Z</time>
</trkpt>
<trkpt lat="42.7476300" lon="-2.5453900">
<ele>891.570496</ele>
<time>2012-03-29T09:28:48.000Z</time>
</trkpt>
<trkpt lat="42.7477300" lon="-2.5454000">
<ele>893.551697</ele>
<time>2012-03-29T09:29:06.999Z</time>
</trkpt>
<trkpt lat="42.7478400" lon="-2.5453600">
<ele>894.130798</ele>
<time>2012-03-29T09:29:21.998Z</time>
</trkpt>
<trkpt lat="42.7480300" lon="-2.5452000">
<ele>895.776672</ele>
<time>2012-03-29T09:29:43.002Z</time>
</trkpt>
<trkpt lat="42.7480500" lon="-2.5451500">
<ele>895.959595</ele>
<time>2012-03-29T09:30:11.998Z</time>
</trkpt>
<trkpt lat="42.7481800" lon="-2.5450400">
<ele>897.270264</ele>
<time>2012-03-29T09:30:26.997Z</time>
</trkpt>
<trkpt lat="42.7482400" lon="-2.5450200">
<ele>898.276123</ele>
<time>2012-03-29T09:30:44.001Z</time>
</trkpt>
<trkpt lat="42.7484200" lon="-2.5448800">
<ele>902.086121</ele>
<time>2012-03-29T09:31:01.998Z</time>
</trkpt>
<trkpt lat="42.7484300" lon="-2.5448500">
<ele>901.964172</ele>
<time>2012-03-29T09:31:16.997Z</time>
</trkpt>
<trkpt lat="42.7484700" lon="-2.5448000">
<ele>902.390930</ele>
<time>2012-03-29T09:31:20.997Z</time>
</trkpt>
<trkpt lat="42.7485000" lon="-2.5447400">
<ele>902.543335</ele>
<time>2012-03-29T09:31:24.997Z</time>
</trkpt>
<trkpt lat="42.7485600" lon="-2.5446300">
<ele>903.122375</ele>
<time>2012-03-29T09:31:34.000Z</time>
</trkpt>
<trkpt lat="42.7486200" lon="-2.5445300">
<ele>904.554932</ele>
<time>2012-03-29T09:31:47.004Z</time>
</trkpt>
<trkpt lat="42.7487200" lon="-2.5444900">
<ele>907.359070</ele>
<time>2012-03-29T09:32:02.003Z</time>
</trkpt>
<trkpt lat="42.7488400" lon="-2.5444200">
<ele>909.492676</ele>
<time>2012-03-29T09:32:15.999Z</time>
</trkpt>
<trkpt lat="42.7489000" lon="-2.5442500">
<ele>908.761230</ele>
<time>2012-03-29T09:32:33.996Z</time>
</trkpt>
<trkpt lat="42.7489600" lon="-2.5441400">
<ele>909.248901</ele>
<time>2012-03-29T09:32:41.997Z</time>
</trkpt>
<trkpt lat="42.7490100" lon="-2.5440800">
<ele>911.108154</ele>
<time>2012-03-29T09:32:47.000Z</time>
</trkpt>
<trkpt lat="42.7490800" lon="-2.5440200">
<ele>913.089355</ele>
<time>2012-03-29T09:32:52.996Z</time>
</trkpt>
<trkpt lat="42.7491000" lon="-2.5439700">
<ele>913.302673</ele>
<time>2012-03-29T09:32:56.996Z</time>
</trkpt>
<trkpt lat="42.7490800" lon="-2.5438600">
<ele>912.144531</ele>
<time>2012-03-29T09:33:04.003Z</time>
</trkpt>
<trkpt lat="42.7491200" lon="-2.5437700">
<ele>912.906494</ele>
<time>2012-03-29T09:33:11.002Z</time>
</trkpt>
<trkpt lat="42.7491300" lon="-2.5437000">
<ele>913.119873</ele>
<time>2012-03-29T09:33:18.000Z</time>
</trkpt>
<trkpt lat="42.7492300" lon="-2.5434800">
<ele>915.405884</ele>
<time>2012-03-29T09:33:35.004Z</time>
</trkpt>
<trkpt lat="42.7492000" lon="-2.5432100">
<ele>914.674316</ele>
<time>2012-03-29T09:33:57.001Z</time>
</trkpt>
<trkpt lat="42.7491800" lon="-2.5431800">
<ele>914.704773</ele>
<time>2012-03-29T09:33:58.003Z</time>
</trkpt>
<trkpt lat="42.7492300" lon="-2.5430300">
<ele>917.143188</ele>
<time>2012-03-29T09:34:06.997Z</time>
</trkpt>
<trkpt lat="42.7493800" lon="-2.5427900">
<ele>919.612122</ele>
<time>2012-03-29T09:34:26.999Z</time>
</trkpt>
<trkpt lat="42.7494600" lon="-2.5426500">
<ele>920.983704</ele>
<time>2012-03-29T09:34:47.001Z</time>
</trkpt>
<trkpt lat="42.7494700" lon="-2.5426600">
<ele>921.288513</ele>
<time>2012-03-29T09:35:19.997Z</time>
</trkpt>
<trkpt lat="42.7495300" lon="-2.5426900">
<ele>923.391602</ele>
<time>2012-03-29T09:36:08.001Z</time>
</trkpt>
<trkpt lat="42.7497100" lon="-2.5425200">
<ele>926.409119</ele>
<time>2012-03-29T09:36:31.000Z</time>
</trkpt>
<trkpt lat="42.7497900" lon="-2.5424200">
<ele>927.110168</ele>
<time>2012-03-29T09:36:50.000Z</time>
</trkpt>
<trkpt lat="42.7498000" lon="-2.5424200">
<ele>927.201599</ele>
<time>2012-03-29T09:37:11.004Z</time>
</trkpt>
<trkpt lat="42.7497700" lon="-2.5423100">
<ele>927.994080</ele>
<time>2012-03-29T09:37:34.997Z</time>
</trkpt>
<trkpt lat="42.7498100" lon="-2.5421200">
<ele>929.152283</ele>
<time>2012-03-29T09:37:49.002Z</time>
</trkpt>
<trkpt lat="42.7498800" lon="-2.5418400">
<ele>932.139343</ele>
<time>2012-03-29T09:38:08.002Z</time>
</trkpt>
<trkpt lat="42.7500100" lon="-2.5416400">
<ele>933.084229</ele>
<time>2012-03-29T09:38:29.999Z</time>
</trkpt>
<trkpt lat="42.7501300" lon="-2.5415100">
<ele>935.736023</ele>
<time>2012-03-29T09:39:07.998Z</time>
</trkpt>
<trkpt lat="42.7501700" lon="-2.5414500">
<ele>937.900085</ele>
<time>2012-03-29T09:39:25.001Z</time>
</trkpt>
<trkpt lat="42.7502800" lon="-2.5414000">
<ele>940.948120</ele>
<time>2012-03-29T09:39:41.996Z</time>
</trkpt>
<trkpt lat="42.7503000" lon="-2.5414000">
<ele>940.887085</ele>
<time>2012-03-29T09:39:44.001Z</time>
</trkpt>
<trkpt lat="42.7503700" lon="-2.5413800">
<ele>941.100525</ele>
<time>2012-03-29T09:39:57.997Z</time>
</trkpt>
<trkpt lat="42.7504200" lon="-2.5413100">
<ele>943.599854</ele>
<time>2012-03-29T09:40:12.996Z</time>
</trkpt>
<trkpt lat="42.7504500" lon="-2.5413200">
<ele>943.264526</ele>
<time>2012-03-29T09:40:17.999Z</time>
</trkpt>
<trkpt lat="42.7504600" lon="-2.5413500">
<ele>942.258667</ele>
<time>2012-03-29T09:40:34.000Z</time>
</trkpt>
<trkpt lat="42.7505000" lon="-2.5412900">
<ele>943.904663</ele>
<time>2012-03-29T09:41:10.997Z</time>
</trkpt>
<trkpt lat="42.7505700" lon="-2.5412100">
<ele>946.983093</ele>
<time>2012-03-29T09:41:20.000Z</time>
</trkpt>
<trkpt lat="42.7507300" lon="-2.5411800">
<ele>947.379333</ele>
<time>2012-03-29T09:41:36.001Z</time>
</trkpt>
<trkpt lat="42.7508900" lon="-2.5411500">
<ele>950.457825</ele>
<time>2012-03-29T09:41:52.996Z</time>
</trkpt>
<trkpt lat="42.7510100" lon="-2.5411700">
<ele>951.707520</ele>
<time>2012-03-29T09:42:18.000Z</time>
</trkpt>
<trkpt lat="42.7511100" lon="-2.5411800">
<ele>952.652405</ele>
<time>2012-03-29T09:42:51.998Z</time>
</trkpt>
<trkpt lat="42.7511800" lon="-2.5412100">
<ele>952.835327</ele>
<time>2012-03-29T09:42:59.999Z</time>
</trkpt>
<trkpt lat="42.7512000" lon="-2.5412300">
<ele>952.408569</ele>
<time>2012-03-29T09:43:02.997Z</time>
</trkpt>
<trkpt lat="42.7512700" lon="-2.5412700">
<ele>952.225708</ele>
<time>2012-03-29T09:43:13.002Z</time>
</trkpt>
<trkpt lat="42.7513700" lon="-2.5413400">
<ele>952.621887</ele>
<time>2012-03-29T09:43:21.996Z</time>
</trkpt>
<trkpt lat="42.7515300" lon="-2.5414500">
<ele>951.555115</ele>
<time>2012-03-29T09:43:37.004Z</time>
</trkpt>
<trkpt lat="42.7516500" lon="-2.5415400">
<ele>950.488281</ele>
<time>2012-03-29T09:43:52.003Z</time>
</trkpt>
<trkpt lat="42.7517300" lon="-2.5415900">
<ele>950.061584</ele>
<time>2012-03-29T09:44:11.003Z</time>
</trkpt>
<trkpt lat="42.7517700" lon="-2.5415900">
<ele>950.092102</ele>
<time>2012-03-29T09:44:26.002Z</time>
</trkpt>
<trkpt lat="42.7517900" lon="-2.5416200">
<ele>949.817749</ele>
<time>2012-03-29T09:44:42.003Z</time>
</trkpt>
<trkpt lat="42.7519200" lon="-2.5417500">
<ele>954.542175</ele>
<time>2012-03-29T09:44:57.002Z</time>
</trkpt>
<trkpt lat="42.7520900" lon="-2.5419000">
<ele>960.302917</ele>
<time>2012-03-29T09:45:18.999Z</time>
</trkpt>
<trkpt lat="42.7521300" lon="-2.5419700">
<ele>959.815186</ele>
<time>2012-03-29T09:45:28.002Z</time>
</trkpt>
<trkpt lat="42.7521500" lon="-2.5420000">
<ele>959.754272</ele>
<time>2012-03-29T09:45:31.000Z</time>
</trkpt>
<trkpt lat="42.7522500" lon="-2.5420700">
<ele>962.497437</ele>
<time>2012-03-29T09:45:40.997Z</time>
</trkpt>
<trkpt lat="42.7523100" lon="-2.5421700">
<ele>961.461121</ele>
<time>2012-03-29T09:45:51.002Z</time>
</trkpt>
<trkpt lat="42.7524300" lon="-2.5422500">
<ele>963.076538</ele>
<time>2012-03-29T09:46:02.001Z</time>
</trkpt>
<trkpt lat="42.7525500" lon="-2.5423600">
<ele>963.259460</ele>
<time>2012-03-29T09:46:18.002Z</time>
</trkpt>
<trkpt lat="42.7526900" lon="-2.5424900">
<ele>964.204285</ele>
<time>2012-03-29T09:46:37.001Z</time>
</trkpt>
<trkpt lat="42.7528300" lon="-2.5427100">
<ele>963.350891</ele>
<time>2012-03-29T09:46:57.996Z</time>
</trkpt>
<trkpt lat="42.7528700" lon="-2.5428300">
<ele>963.137512</ele>
<time>2012-03-29T09:47:16.996Z</time>
</trkpt>
<trkpt lat="42.7529900" lon="-2.5429800">
<ele>966.124573</ele>
<time>2012-03-29T09:47:36.997Z</time>
</trkpt>
<trkpt lat="42.7529900" lon="-2.5431700">
<ele>964.996826</ele>
<time>2012-03-29T09:53:03.002Z</time>
</trkpt>
<trkpt lat="42.7529800" lon="-2.5432700">
<ele>963.990967</ele>
<time>2012-03-29T09:53:15.996Z</time>
</trkpt>
<trkpt lat="42.7529500" lon="-2.5433500">
<ele>963.472778</ele>
<time>2012-03-29T09:54:05.003Z</time>
</trkpt>
<trkpt lat="42.7529600" lon="-2.5434700">
<ele>964.905334</ele>
<time>2012-03-29T09:54:40.003Z</time>
</trkpt>
<trkpt lat="42.7530000" lon="-2.5436700">
<ele>967.739990</ele>
<time>2012-03-29T09:54:56.998Z</time>
</trkpt>
<trkpt lat="42.7530900" lon="-2.5437800">
<ele>966.642700</ele>
<time>2012-03-29T09:55:14.002Z</time>
</trkpt>
<trkpt lat="42.7532300" lon="-2.5439000">
<ele>967.831482</ele>
<time>2012-03-29T09:55:30.996Z</time>
</trkpt>
<trkpt lat="42.7532500" lon="-2.5439200">
<ele>968.288635</ele>
<time>2012-03-29T09:55:33.001Z</time>
</trkpt>
<trkpt lat="42.7533500" lon="-2.5440400">
<ele>969.721191</ele>
<time>2012-03-29T09:55:48.000Z</time>
</trkpt>
<trkpt lat="42.7534700" lon="-2.5441800">
<ele>971.306152</ele>
<time>2012-03-29T09:56:05.004Z</time>
</trkpt>
<trkpt lat="42.7536100" lon="-2.5442300">
<ele>973.714111</ele>
<time>2012-03-29T09:56:24.003Z</time>
</trkpt>
<trkpt lat="42.7536700" lon="-2.5442300">
<ele>975.055176</ele>
<time>2012-03-29T09:56:44.998Z</time>
</trkpt>
<trkpt lat="42.7537100" lon="-2.5442300">
<ele>976.426819</ele>
<time>2012-03-29T09:57:03.004Z</time>
</trkpt>
<trkpt lat="42.7538200" lon="-2.5442900">
<ele>979.962524</ele>
<time>2012-03-29T09:57:32.000Z</time>
</trkpt>
<trkpt lat="42.7537900" lon="-2.5443200">
<ele>977.737427</ele>
<time>2012-03-29T09:58:28.004Z</time>
</trkpt>
<trkpt lat="42.7539700" lon="-2.5443300">
<ele>985.357483</ele>
<time>2012-03-29T09:58:42.001Z</time>
</trkpt>
<trkpt lat="42.7540800" lon="-2.5443900">
<ele>989.167480</ele>
<time>2012-03-29T09:59:06.003Z</time>
</trkpt>
<trkpt lat="42.7542300" lon="-2.5445900">
<ele>990.630493</ele>
<time>2012-03-29T09:59:29.003Z</time>
</trkpt>
<trkpt lat="42.7543800" lon="-2.5447100">
<ele>993.922302</ele>
<time>2012-03-29T10:01:44.003Z</time>
</trkpt>
<trkpt lat="42.7544900" lon="-2.5448500">
<ele>996.848389</ele>
<time>2012-03-29T10:02:02.000Z</time>
</trkpt>
<trkpt lat="42.7546400" lon="-2.5449900">
<ele>999.835449</ele>
<time>2012-03-29T10:02:23.004Z</time>
</trkpt>
<trkpt lat="42.7547900" lon="-2.5450600">
<ele>1003.218689</ele>
<time>2012-03-29T10:02:42.003Z</time>
</trkpt>
<trkpt lat="42.7549500" lon="-2.5452300">
<ele>1002.426270</ele>
<time>2012-03-29T10:03:02.998Z</time>
</trkpt>
<trkpt lat="42.7550900" lon="-2.5452800">
<ele>1005.047485</ele>
<time>2012-03-29T10:03:24.002Z</time>
</trkpt>
<trkpt lat="42.7551900" lon="-2.5453700">
<ele>1005.840027</ele>
<time>2012-03-29T10:03:59.003Z</time>
</trkpt>
<trkpt lat="42.7554200" lon="-2.5455600">
<ele>1009.954773</ele>
<time>2012-03-29T10:04:22.002Z</time>
</trkpt>
<trkpt lat="42.7554900" lon="-2.5457600">
<ele>1006.327698</ele>
<time>2012-03-29T10:04:41.002Z</time>
</trkpt>
<trkpt lat="42.7555700" lon="-2.5458100">
<ele>1009.162292</ele>
<time>2012-03-29T10:05:02.999Z</time>
</trkpt>
<trkpt lat="42.7558000" lon="-2.5459800">
<ele>1012.911316</ele>
<time>2012-03-29T10:05:25.999Z</time>
</trkpt>
<trkpt lat="42.7559200" lon="-2.5460500">
<ele>1013.734314</ele>
<time>2012-03-29T10:05:47.996Z</time>
</trkpt>
<trkpt lat="42.7560200" lon="-2.5461600">
<ele>1013.917175</ele>
<time>2012-03-29T10:06:11.998Z</time>
</trkpt>
<trkpt lat="42.7561100" lon="-2.5461700">
<ele>1015.593628</ele>
<time>2012-03-29T10:06:30.004Z</time>
</trkpt>
<trkpt lat="42.7561800" lon="-2.5461500">
<ele>1017.574829</ele>
<time>2012-03-29T10:06:42.998Z</time>
</trkpt>
<trkpt lat="42.7562000" lon="-2.5461600">
<ele>1017.818665</ele>
<time>2012-03-29T10:07:01.004Z</time>
</trkpt>
<trkpt lat="42.7563700" lon="-2.5462000">
<ele>1020.958130</ele>
<time>2012-03-29T10:07:16.997Z</time>
</trkpt>
<trkpt lat="42.7565400" lon="-2.5462000">
<ele>1023.335510</ele>
<time>2012-03-29T10:07:35.996Z</time>
</trkpt>
<trkpt lat="42.7565700" lon="-2.5461600">
<ele>1023.853699</ele>
<time>2012-03-29T10:07:58.002Z</time>
</trkpt>
<trkpt lat="42.7566900" lon="-2.5462000">
<ele>1024.950928</ele>
<time>2012-03-29T10:08:11.999Z</time>
</trkpt>
<trkpt lat="42.7567500" lon="-2.5462300">
<ele>1025.408203</ele>
<time>2012-03-29T10:08:15.999Z</time>
</trkpt>
<trkpt lat="42.7568800" lon="-2.5463100">
<ele>1025.225342</ele>
<time>2012-03-29T10:08:30.998Z</time>
</trkpt>
<trkpt lat="42.7569800" lon="-2.5464000">
<ele>1025.408203</ele>
<time>2012-03-29T10:08:38.999Z</time>
</trkpt>
<trkpt lat="42.7570200" lon="-2.5464300">
<ele>1025.682495</ele>
<time>2012-03-29T10:08:44.002Z</time>
</trkpt>
<trkpt lat="42.7571400" lon="-2.5465500">
<ele>1026.078735</ele>
<time>2012-03-29T10:08:56.996Z</time>
</trkpt>
<trkpt lat="42.7572200" lon="-2.5466400">
<ele>1026.139771</ele>
<time>2012-03-29T10:09:04.997Z</time>
</trkpt>
<trkpt lat="42.7573700" lon="-2.5468100">
<ele>1026.474976</ele>
<time>2012-03-29T10:09:23.003Z</time>
</trkpt>
<trkpt lat="42.7573900" lon="-2.5468500">
<ele>1026.353027</ele>
<time>2012-03-29T10:09:28.999Z</time>
</trkpt>
<trkpt lat="42.7574200" lon="-2.5469100">
<ele>1026.200684</ele>
<time>2012-03-29T10:09:51.998Z</time>
</trkpt>
<trkpt lat="42.7574900" lon="-2.5469200">
<ele>1026.840698</ele>
<time>2012-03-29T10:10:30.999Z</time>
</trkpt>
<trkpt lat="42.7575700" lon="-2.5470400">
<ele>1026.109253</ele>
<time>2012-03-29T10:10:56.997Z</time>
</trkpt>
<trkpt lat="42.7576800" lon="-2.5471300">
<ele>1026.200684</ele>
<time>2012-03-29T10:11:07.996Z</time>
</trkpt>
<trkpt lat="42.7577400" lon="-2.5471800">
<ele>1026.444458</ele>
<time>2012-03-29T10:11:15.996Z</time>
</trkpt>
<trkpt lat="42.7578700" lon="-2.5472400">
<ele>1027.419800</ele>
<time>2012-03-29T10:11:29.000Z</time>
</trkpt>
<trkpt lat="42.7579300" lon="-2.5473200">
<ele>1027.328369</ele>
<time>2012-03-29T10:11:41.001Z</time>
</trkpt>
<trkpt lat="42.7580200" lon="-2.5473100">
<ele>1028.456177</ele>
<time>2012-03-29T10:11:54.997Z</time>
</trkpt>
<trkpt lat="42.7581600" lon="-2.5473700">
<ele>1029.401001</ele>
<time>2012-03-29T10:12:04.000Z</time>
</trkpt>
<trkpt lat="42.7581900" lon="-2.5474000">
<ele>1029.583862</ele>
<time>2012-03-29T10:12:06.998Z</time>
</trkpt>
<trkpt lat="42.7582300" lon="-2.5474600">
<ele>1029.858276</ele>
<time>2012-03-29T10:12:13.003Z</time>
</trkpt>
<trkpt lat="42.7582400" lon="-2.5474900">
<ele>1030.010620</ele>
<time>2012-03-29T10:12:14.999Z</time>
</trkpt>
<trkpt lat="42.7583000" lon="-2.5475100">
<ele>1030.711670</ele>
<time>2012-03-29T10:12:20.002Z</time>
</trkpt>
<trkpt lat="42.7583900" lon="-2.5475600">
<ele>1031.595581</ele>
<time>2012-03-29T10:12:28.996Z</time>
</trkpt>
<trkpt lat="42.7584100" lon="-2.5475800">
<ele>1031.656494</ele>
<time>2012-03-29T10:12:31.000Z</time>
</trkpt>
<trkpt lat="42.7584600" lon="-2.5476300">
<ele>1031.534668</ele>
<time>2012-03-29T10:12:36.996Z</time>
</trkpt>
<trkpt lat="42.7585900" lon="-2.5477200">
<ele>1033.485352</ele>
<time>2012-03-29T10:12:51.002Z</time>
</trkpt>
<trkpt lat="42.7586400" lon="-2.5477800">
<ele>1033.485352</ele>
<time>2012-03-29T10:13:03.003Z</time>
</trkpt>
<trkpt lat="42.7586600" lon="-2.5477800">
<ele>1033.698730</ele>
<time>2012-03-29T10:13:18.002Z</time>
</trkpt>
<trkpt lat="42.7587400" lon="-2.5477800">
<ele>1034.613037</ele>
<time>2012-03-29T10:13:22.996Z</time>
</trkpt>
<trkpt lat="42.7587600" lon="-2.5477800">
<ele>1034.796021</ele>
<time>2012-03-29T10:13:25.000Z</time>
</trkpt>
<trkpt lat="42.7587900" lon="-2.5478000">
<ele>1035.100830</ele>
<time>2012-03-29T10:13:27.998Z</time>
</trkpt>
<trkpt lat="42.7589500" lon="-2.5477400">
<ele>1037.082031</ele>
<time>2012-03-29T10:13:42.997Z</time>
</trkpt>
<trkpt lat="42.7589800" lon="-2.5477200">
<ele>1037.447754</ele>
<time>2012-03-29T10:13:45.002Z</time>
</trkpt>
<trkpt lat="42.7591200" lon="-2.5476800">
<ele>1039.886108</ele>
<time>2012-03-29T10:14:00.001Z</time>
</trkpt>
<trkpt lat="42.7592600" lon="-2.5476600">
<ele>1041.440674</ele>
<time>2012-03-29T10:14:13.998Z</time>
</trkpt>
<trkpt lat="42.7594100" lon="-2.5476600">
<ele>1043.025635</ele>
<time>2012-03-29T10:14:27.001Z</time>
</trkpt>
<trkpt lat="42.7595000" lon="-2.5476700">
<ele>1043.056152</ele>
<time>2012-03-29T10:14:40.004Z</time>
</trkpt>
<trkpt lat="42.7596200" lon="-2.5476400">
<ele>1044.336304</ele>
<time>2012-03-29T10:14:51.996Z</time>
</trkpt>
<trkpt lat="42.7597200" lon="-2.5476000">
<ele>1046.256470</ele>
<time>2012-03-29T10:15:02.002Z</time>
</trkpt>
<trkpt lat="42.7598500" lon="-2.5475400">
<ele>1048.908203</ele>
<time>2012-03-29T10:15:14.996Z</time>
</trkpt>
<trkpt lat="42.7599100" lon="-2.5475300">
<ele>1050.340820</ele>
<time>2012-03-29T10:15:29.002Z</time>
</trkpt>
<trkpt lat="42.7599200" lon="-2.5475300">
<ele>1050.523682</ele>
<time>2012-03-29T10:15:30.004Z</time>
</trkpt>
<trkpt lat="42.7599500" lon="-2.5475300">
<ele>1051.133301</ele>
<time>2012-03-29T10:15:33.002Z</time>
</trkpt>
<trkpt lat="42.7600800" lon="-2.5474500">
<ele>1052.535400</ele>
<time>2012-03-29T10:15:48.001Z</time>
</trkpt>
<trkpt lat="42.7601700" lon="-2.5473800">
<ele>1053.541260</ele>
<time>2012-03-29T10:16:00.002Z</time>
</trkpt>
<trkpt lat="42.7601900" lon="-2.5473700">
<ele>1053.724121</ele>
<time>2012-03-29T10:16:01.998Z</time>
</trkpt>
<trkpt lat="42.7603100" lon="-2.5473100">
<ele>1055.156616</ele>
<time>2012-03-29T10:16:15.001Z</time>
</trkpt>
<trkpt lat="42.7604000" lon="-2.5472700">
<ele>1057.198853</ele>
<time>2012-03-29T10:16:30.000Z</time>
</trkpt>
<trkpt lat="42.7604200" lon="-2.5472300">
<ele>1057.595093</ele>
<time>2012-03-29T10:16:36.998Z</time>
</trkpt>
<trkpt lat="42.7604900" lon="-2.5471600">
<ele>1058.113159</ele>
<time>2012-03-29T10:16:46.001Z</time>
</trkpt>
<trkpt lat="42.7606100" lon="-2.5471000">
<ele>1059.362915</ele>
<time>2012-03-29T10:16:58.002Z</time>
</trkpt>
<trkpt lat="42.7607100" lon="-2.5470400">
<ele>1061.130737</ele>
<time>2012-03-29T10:17:09.001Z</time>
</trkpt>
<trkpt lat="42.7607600" lon="-2.5469900">
<ele>1061.923218</ele>
<time>2012-03-29T10:17:14.004Z</time>
</trkpt>
<trkpt lat="42.7608600" lon="-2.5468900">
<ele>1063.569092</ele>
<time>2012-03-29T10:17:28.000Z</time>
</trkpt>
<trkpt lat="42.7608400" lon="-2.5469300">
<ele>1062.989990</ele>
<time>2012-03-29T10:17:48.002Z</time>
</trkpt>
<trkpt lat="42.7608700" lon="-2.5468700">
<ele>1063.812988</ele>
<time>2012-03-29T10:17:59.001Z</time>
</trkpt>
<trkpt lat="42.7609000" lon="-2.5466600">
<ele>1063.203369</ele>
<time>2012-03-29T10:18:12.997Z</time>
</trkpt>
<trkpt lat="42.7609500" lon="-2.5465400">
<ele>1064.392090</ele>
<time>2012-03-29T10:18:22.000Z</time>
</trkpt>
<trkpt lat="42.7609700" lon="-2.5464500">
<ele>1063.721436</ele>
<time>2012-03-29T10:18:27.003Z</time>
</trkpt>
<trkpt lat="42.7609900" lon="-2.5462400">
<ele>1063.965332</ele>
<time>2012-03-29T10:18:41.000Z</time>
</trkpt>
<trkpt lat="42.7610500" lon="-2.5460800">
<ele>1063.843506</ele>
<time>2012-03-29T10:18:51.998Z</time>
</trkpt>
<trkpt lat="42.7610600" lon="-2.5460500">
<ele>1063.843506</ele>
<time>2012-03-29T10:19:13.996Z</time>
</trkpt>
<trkpt lat="42.7610900" lon="-2.5459500">
<ele>1063.691040</ele>
<time>2012-03-29T10:19:21.996Z</time>
</trkpt>
<trkpt lat="42.7611100" lon="-2.5457700">
<ele>1065.336914</ele>
<time>2012-03-29T10:19:33.004Z</time>
</trkpt>
<trkpt lat="42.7611200" lon="-2.5455800">
<ele>1066.952393</ele>
<time>2012-03-29T10:19:43.000Z</time>
</trkpt>
<trkpt lat="42.7611000" lon="-2.5454400">
<ele>1067.897339</ele>
<time>2012-03-29T10:19:51.001Z</time>
</trkpt>
<trkpt lat="42.7609700" lon="-2.5453400">
<ele>1069.634644</ele>
<time>2012-03-29T10:20:03.002Z</time>
</trkpt>
<trkpt lat="42.7608400" lon="-2.5452900">
<ele>1069.695557</ele>
<time>2012-03-29T10:20:15.996Z</time>
</trkpt>
<trkpt lat="42.7607600" lon="-2.5452500">
<ele>1070.609985</ele>
<time>2012-03-29T10:20:23.997Z</time>
</trkpt>
<trkpt lat="42.7607100" lon="-2.5452100">
<ele>1071.615845</ele>
<time>2012-03-29T10:20:29.000Z</time>
</trkpt>
<trkpt lat="42.7605500" lon="-2.5451200">
<ele>1073.048340</ele>
<time>2012-03-29T10:20:43.999Z</time>
</trkpt>
<trkpt lat="42.7604000" lon="-2.5450300">
<ele>1074.816284</ele>
<time>2012-03-29T10:20:58.998Z</time>
</trkpt>
<trkpt lat="42.7603900" lon="-2.5450400">
<ele>1074.663818</ele>
<time>2012-03-29T10:21:00.000Z</time>
</trkpt>
<trkpt lat="42.7603500" lon="-2.5450300">
<ele>1074.724854</ele>
<time>2012-03-29T10:21:17.004Z</time>
</trkpt>
<trkpt lat="42.7602500" lon="-2.5451500">
<ele>1072.865479</ele>
<time>2012-03-29T10:21:25.998Z</time>
</trkpt>
<trkpt lat="42.7602000" lon="-2.5451700">
<ele>1072.530273</ele>
<time>2012-03-29T10:21:31.000Z</time>
</trkpt>
<trkpt lat="42.7600300" lon="-2.5452400">
<ele>1072.652100</ele>
<time>2012-03-29T10:21:44.997Z</time>
</trkpt>
<trkpt lat="42.7599600" lon="-2.5452800">
<ele>1072.316895</ele>
<time>2012-03-29T10:21:52.004Z</time>
</trkpt>
<trkpt lat="42.7599200" lon="-2.5452900">
<ele>1072.194946</ele>
<time>2012-03-29T10:22:07.997Z</time>
</trkpt>
<trkpt lat="42.7600000" lon="-2.5453900">
<ele>1071.676758</ele>
<time>2012-03-29T10:23:20.996Z</time>
</trkpt>
<trkpt lat="42.7600300" lon="-2.5454000">
<ele>1071.402466</ele>
<time>2012-03-29T10:23:43.002Z</time>
</trkpt>
<trkpt lat="42.7600200" lon="-2.5453900">
<ele>1071.585327</ele>
<time>2012-03-29T10:25:28.998Z</time>
</trkpt>
<trkpt lat="42.7598800" lon="-2.5452700">
<ele>1072.347290</ele>
<time>2012-03-29T10:25:43.003Z</time>
</trkpt>
<trkpt lat="42.7598700" lon="-2.5452600">
<ele>1072.438843</ele>
<time>2012-03-29T10:25:43.997Z</time>
</trkpt>
<trkpt lat="42.7597600" lon="-2.5450500">
<ele>1074.206665</ele>
<time>2012-03-29T10:25:59.998Z</time>
</trkpt>
<trkpt lat="42.7596900" lon="-2.5448800">
<ele>1075.212524</ele>
<time>2012-03-29T10:26:13.001Z</time>
</trkpt>
<trkpt lat="42.7596200" lon="-2.5446500">
<ele>1075.974487</ele>
<time>2012-03-29T10:26:28.000Z</time>
</trkpt>
<trkpt lat="42.7595700" lon="-2.5444300">
<ele>1077.102295</ele>
<time>2012-03-29T10:26:41.004Z</time>
</trkpt>
<trkpt lat="42.7595200" lon="-2.5441900">
<ele>1076.431763</ele>
<time>2012-03-29T10:26:55.000Z</time>
</trkpt>
<trkpt lat="42.7594200" lon="-2.5439900">
<ele>1076.309692</ele>
<time>2012-03-29T10:27:08.997Z</time>
</trkpt>
<trkpt lat="42.7593800" lon="-2.5439200">
<ele>1075.913452</ele>
<time>2012-03-29T10:27:12.997Z</time>
</trkpt>
<trkpt lat="42.7593000" lon="-2.5438100">
<ele>1075.486816</ele>
<time>2012-03-29T10:27:23.003Z</time>
</trkpt>
<trkpt lat="42.7592400" lon="-2.5437300">
<ele>1075.425903</ele>
<time>2012-03-29T10:27:30.001Z</time>
</trkpt>
<trkpt lat="42.7592000" lon="-2.5436900">
<ele>1075.029541</ele>
<time>2012-03-29T10:27:43.998Z</time>
</trkpt>
<trkpt lat="42.7592100" lon="-2.5437600">
<ele>1074.938110</ele>
<time>2012-03-29T10:28:09.002Z</time>
</trkpt>
<trkpt lat="42.7592200" lon="-2.5437500">
<ele>1075.090576</ele>
<time>2012-03-29T10:28:33.004Z</time>
</trkpt>
<trkpt lat="42.7591700" lon="-2.5435600">
<ele>1074.663818</ele>
<time>2012-03-29T10:30:02.998Z</time>
</trkpt>
<trkpt lat="42.7591400" lon="-2.5434600">
<ele>1075.182007</ele>
<time>2012-03-29T10:30:09.003Z</time>
</trkpt>
<trkpt lat="42.7591100" lon="-2.5432200">
<ele>1075.212524</ele>
<time>2012-03-29T10:30:24.002Z</time>
</trkpt>
<trkpt lat="42.7590900" lon="-2.5430100">
<ele>1075.852539</ele>
<time>2012-03-29T10:30:39.001Z</time>
</trkpt>
<trkpt lat="42.7590900" lon="-2.5428400">
<ele>1076.766968</ele>
<time>2012-03-29T10:30:52.004Z</time>
</trkpt>
<trkpt lat="42.7590900" lon="-2.5428000">
<ele>1076.736450</ele>
<time>2012-03-29T10:30:55.002Z</time>
</trkpt>
<trkpt lat="42.7591000" lon="-2.5427800">
<ele>1076.827881</ele>
<time>2012-03-29T10:30:56.998Z</time>
</trkpt>
<trkpt lat="42.7591300" lon="-2.5426600">
<ele>1077.376587</ele>
<time>2012-03-29T10:31:04.999Z</time>
</trkpt>
<trkpt lat="42.7591600" lon="-2.5424000">
<ele>1078.108154</ele>
<time>2012-03-29T10:31:21.000Z</time>
</trkpt>
<trkpt lat="42.7592000" lon="-2.5422500">
<ele>1078.991943</ele>
<time>2012-03-29T10:31:30.003Z</time>
</trkpt>
<trkpt lat="42.7592000" lon="-2.5422200">
<ele>1078.991943</ele>
<time>2012-03-29T10:31:31.999Z</time>
</trkpt>
<trkpt lat="42.7591900" lon="-2.5420600">
<ele>1078.870117</ele>
<time>2012-03-29T10:31:45.002Z</time>
</trkpt>
<trkpt lat="42.7592200" lon="-2.5420100">
<ele>1079.266235</ele>
<time>2012-03-29T10:32:04.001Z</time>
</trkpt>
<trkpt lat="42.7591900" lon="-2.5417800">
<ele>1078.870117</ele>
<time>2012-03-29T10:32:20.996Z</time>
</trkpt>
<trkpt lat="42.7592400" lon="-2.5416600">
<ele>1079.449219</ele>
<time>2012-03-29T10:32:36.004Z</time>
</trkpt>
<trkpt lat="42.7593800" lon="-2.5414700">
<ele>1082.131470</ele>
<time>2012-03-29T10:32:55.003Z</time>
</trkpt>
<trkpt lat="42.7595000" lon="-2.5413700">
<ele>1083.350708</ele>
<time>2012-03-29T10:33:09.000Z</time>
</trkpt>
<trkpt lat="42.7596400" lon="-2.5412400">
<ele>1084.935547</ele>
<time>2012-03-29T10:33:26.997Z</time>
</trkpt>
<trkpt lat="42.7597600" lon="-2.5410400">
<ele>1086.002441</ele>
<time>2012-03-29T10:33:45.003Z</time>
</trkpt>
<trkpt lat="42.7597900" lon="-2.5410300">
<ele>1085.880493</ele>
<time>2012-03-29T10:33:46.999Z</time>
</trkpt>
<trkpt lat="42.7598300" lon="-2.5410100">
<ele>1085.941406</ele>
<time>2012-03-29T10:33:49.997Z</time>
</trkpt>
<trkpt lat="42.7599200" lon="-2.5408700">
<ele>1087.008301</ele>
<time>2012-03-29T10:34:04.002Z</time>
</trkpt>
<trkpt lat="42.7599300" lon="-2.5408400">
<ele>1087.038696</ele>
<time>2012-03-29T10:34:07.000Z</time>
</trkpt>
<trkpt lat="42.7600000" lon="-2.5406900">
<ele>1086.916748</ele>
<time>2012-03-29T10:34:20.997Z</time>
</trkpt>
<trkpt lat="42.7601000" lon="-2.5405700">
<ele>1088.014160</ele>
<time>2012-03-29T10:34:35.003Z</time>
</trkpt>
<trkpt lat="42.7601500" lon="-2.5405200">
<ele>1088.532227</ele>
<time>2012-03-29T10:34:40.999Z</time>
</trkpt>
<trkpt lat="42.7601700" lon="-2.5404700">
<ele>1088.806519</ele>
<time>2012-03-29T10:34:43.997Z</time>
</trkpt>
<trkpt lat="42.7602100" lon="-2.5403700">
<ele>1089.294312</ele>
<time>2012-03-29T10:34:50.002Z</time>
</trkpt>
<trkpt lat="42.7603000" lon="-2.5401700">
<ele>1090.178101</ele>
<time>2012-03-29T10:35:05.001Z</time>
</trkpt>
<trkpt lat="42.7603000" lon="-2.5401500">
<ele>1089.964844</ele>
<time>2012-03-29T10:35:06.003Z</time>
</trkpt>
<trkpt lat="42.7603500" lon="-2.5400100">
<ele>1089.873291</ele>
<time>2012-03-29T10:35:17.002Z</time>
</trkpt>
<trkpt lat="42.7603500" lon="-2.5399700">
<ele>1089.995361</ele>
<time>2012-03-29T10:35:37.997Z</time>
</trkpt>
<trkpt lat="42.7604000" lon="-2.5399100">
<ele>1089.873291</ele>
<time>2012-03-29T10:36:03.001Z</time>
</trkpt>
<trkpt lat="42.7604500" lon="-2.5397200">
<ele>1089.141846</ele>
<time>2012-03-29T10:41:31.001Z</time>
</trkpt>
<trkpt lat="42.7605100" lon="-2.5396700">
<ele>1089.385742</ele>
<time>2012-03-29T10:41:36.997Z</time>
</trkpt>
<trkpt lat="42.7607000" lon="-2.5396300">
<ele>1092.799438</ele>
<time>2012-03-29T10:41:50.001Z</time>
</trkpt>
<trkpt lat="42.7607800" lon="-2.5395400">
<ele>1093.652954</ele>
<time>2012-03-29T10:42:05.000Z</time>
</trkpt>
<trkpt lat="42.7609000" lon="-2.5394400">
<ele>1094.994019</ele>
<time>2012-03-29T10:42:18.996Z</time>
</trkpt>
<trkpt lat="42.7610000" lon="-2.5393900">
<ele>1096.060791</ele>
<time>2012-03-29T10:42:30.997Z</time>
</trkpt>
<trkpt lat="42.7611500" lon="-2.5392400">
<ele>1095.877930</ele>
<time>2012-03-29T10:42:45.996Z</time>
</trkpt>
<trkpt lat="42.7611900" lon="-2.5391800">
<ele>1096.182739</ele>
<time>2012-03-29T10:42:50.999Z</time>
</trkpt>
<trkpt lat="42.7612900" lon="-2.5391400">
<ele>1096.853271</ele>
<time>2012-03-29T10:42:57.997Z</time>
</trkpt>
<trkpt lat="42.7613600" lon="-2.5390900">
<ele>1098.377319</ele>
<time>2012-03-29T10:43:04.996Z</time>
</trkpt>
<trkpt lat="42.7614600" lon="-2.5389700">
<ele>1099.870850</ele>
<time>2012-03-29T10:43:20.997Z</time>
</trkpt>
<trkpt lat="42.7615700" lon="-2.5387900">
<ele>1102.065308</ele>
<time>2012-03-29T10:43:35.003Z</time>
</trkpt>
<trkpt lat="42.7616000" lon="-2.5385500">
<ele>1101.181396</ele>
<time>2012-03-29T10:43:50.002Z</time>
</trkpt>
<trkpt lat="42.7616200" lon="-2.5382900">
<ele>1101.059448</ele>
<time>2012-03-29T10:44:03.998Z</time>
</trkpt>
<trkpt lat="42.7616000" lon="-2.5381600">
<ele>1100.785156</ele>
<time>2012-03-29T10:44:15.999Z</time>
</trkpt>
<trkpt lat="42.7615900" lon="-2.5381200">
<ele>1100.602295</ele>
<time>2012-03-29T10:44:18.997Z</time>
</trkpt>
<trkpt lat="42.7615400" lon="-2.5380000">
<ele>1100.907104</ele>
<time>2012-03-29T10:44:32.001Z</time>
</trkpt>
<trkpt lat="42.7614900" lon="-2.5379700">
<ele>1100.724243</ele>
<time>2012-03-29T10:44:37.003Z</time>
</trkpt>
<trkpt lat="42.7614400" lon="-2.5379300">
<ele>1099.962280</ele>
<time>2012-03-29T10:44:41.997Z</time>
</trkpt>
<trkpt lat="42.7613100" lon="-2.5377800">
<ele>1099.626953</ele>
<time>2012-03-29T10:44:56.003Z</time>
</trkpt>
<trkpt lat="42.7612400" lon="-2.5377200">
<ele>1098.925903</ele>
<time>2012-03-29T10:45:11.002Z</time>
</trkpt>
<trkpt lat="42.7611200" lon="-2.5375600">
<ele>1097.127563</ele>
<time>2012-03-29T10:45:23.003Z</time>
</trkpt>
<trkpt lat="42.7609700" lon="-2.5374000">
<ele>1096.548462</ele>
<time>2012-03-29T10:45:39.004Z</time>
</trkpt>
<trkpt lat="42.7609400" lon="-2.5373700">
<ele>1096.060791</ele>
<time>2012-03-29T10:45:42.002Z</time>
</trkpt>
<trkpt lat="42.7608900" lon="-2.5373000">
<ele>1094.933105</ele>
<time>2012-03-29T10:45:46.996Z</time>
</trkpt>
<trkpt lat="42.7607800" lon="-2.5372300">
<ele>1093.744263</ele>
<time>2012-03-29T10:45:57.001Z</time>
</trkpt>
<trkpt lat="42.7607300" lon="-2.5371700">
<ele>1093.226196</ele>
<time>2012-03-29T10:46:02.004Z</time>
</trkpt>
<trkpt lat="42.7606000" lon="-2.5370500">
<ele>1091.793579</ele>
<time>2012-03-29T10:46:17.003Z</time>
</trkpt>
<trkpt lat="42.7605700" lon="-2.5370100">
<ele>1091.458252</ele>
<time>2012-03-29T10:46:21.003Z</time>
</trkpt>
<trkpt lat="42.7605000" lon="-2.5369200">
<ele>1090.665894</ele>
<time>2012-03-29T10:46:29.004Z</time>
</trkpt>
<trkpt lat="42.7604700" lon="-2.5368600">
<ele>1090.239136</ele>
<time>2012-03-29T10:46:33.997Z</time>
</trkpt>
<trkpt lat="42.7604200" lon="-2.5367400">
<ele>1088.562744</ele>
<time>2012-03-29T10:46:41.998Z</time>
</trkpt>
<trkpt lat="42.7603100" lon="-2.5365400">
<ele>1087.678833</ele>
<time>2012-03-29T10:46:57.999Z</time>
</trkpt>
<trkpt lat="42.7602600" lon="-2.5364100">
<ele>1086.093872</ele>
<time>2012-03-29T10:47:10.000Z</time>
</trkpt>
<trkpt lat="42.7602500" lon="-2.5363700">
<ele>1085.849976</ele>
<time>2012-03-29T10:47:12.998Z</time>
</trkpt>
<trkpt lat="42.7602600" lon="-2.5361300">
<ele>1084.996582</ele>
<time>2012-03-29T10:47:27.997Z</time>
</trkpt>
<trkpt lat="42.7602700" lon="-2.5361000">
<ele>1085.148926</ele>
<time>2012-03-29T10:47:31.004Z</time>
</trkpt>
<trkpt lat="42.7603000" lon="-2.5359800">
<ele>1085.667114</ele>
<time>2012-03-29T10:47:38.003Z</time>
</trkpt>
<trkpt lat="42.7603300" lon="-2.5358400">
<ele>1085.849976</ele>
<time>2012-03-29T10:47:47.999Z</time>
</trkpt>
<trkpt lat="42.7603400" lon="-2.5356400">
<ele>1086.032959</ele>
<time>2012-03-29T10:48:02.998Z</time>
</trkpt>
<trkpt lat="42.7603100" lon="-2.5356300">
<ele>1085.849976</ele>
<time>2012-03-29T10:48:21.997Z</time>
</trkpt>
<trkpt lat="42.7603100" lon="-2.5355900">
<ele>1086.002441</ele>
<time>2012-03-29T10:48:28.002Z</time>
</trkpt>
<trkpt lat="42.7602800" lon="-2.5355400">
<ele>1086.368164</ele>
<time>2012-03-29T10:48:33.998Z</time>
</trkpt>
<trkpt lat="42.7602600" lon="-2.5354400">
<ele>1088.532227</ele>
<time>2012-03-29T10:48:51.002Z</time>
</trkpt>
<trkpt lat="42.7602500" lon="-2.5352300">
<ele>1092.494629</ele>
<time>2012-03-29T10:49:07.003Z</time>
</trkpt>
<trkpt lat="42.7602100" lon="-2.5350700">
<ele>1096.304688</ele>
<time>2012-03-29T10:49:22.996Z</time>
</trkpt>
<trkpt lat="42.7601600" lon="-2.5349600">
<ele>1097.554321</ele>
<time>2012-03-29T10:49:34.997Z</time>
</trkpt>
<trkpt lat="42.7601300" lon="-2.5348200">
<ele>1099.566040</ele>
<time>2012-03-29T10:49:50.998Z</time>
</trkpt>
<trkpt lat="42.7601000" lon="-2.5346700">
<ele>1102.674927</ele>
<time>2012-03-29T10:50:05.997Z</time>
</trkpt>
<trkpt lat="42.7601000" lon="-2.5346500">
<ele>1102.918823</ele>
<time>2012-03-29T10:50:08.002Z</time>
</trkpt>
<trkpt lat="42.7600900" lon="-2.5345900">
<ele>1103.284546</ele>
<time>2012-03-29T10:50:13.998Z</time>
</trkpt>
<trkpt lat="42.7600700" lon="-2.5344900">
<ele>1103.619873</ele>
<time>2012-03-29T10:50:24.003Z</time>
</trkpt>
<trkpt lat="42.7600300" lon="-2.5344100">
<ele>1103.741699</ele>
<time>2012-03-29T10:50:31.001Z</time>
</trkpt>
<trkpt lat="42.7600000" lon="-2.5343900">
<ele>1103.741699</ele>
<time>2012-03-29T10:50:33.999Z</time>
</trkpt>
<trkpt lat="42.7599700" lon="-2.5343700">
<ele>1103.650269</ele>
<time>2012-03-29T10:50:38.000Z</time>
</trkpt>
<trkpt lat="42.7599500" lon="-2.5343300">
<ele>1103.650269</ele>
<time>2012-03-29T10:50:40.998Z</time>
</trkpt>
<trkpt lat="42.7600500" lon="-2.5342000">
<ele>1104.778076</ele>
<time>2012-03-29T10:50:59.004Z</time>
</trkpt>
<trkpt lat="42.7601200" lon="-2.5341800">
<ele>1105.418091</ele>
<time>2012-03-29T10:51:10.996Z</time>
</trkpt>
<trkpt lat="42.7602500" lon="-2.5340900">
<ele>1108.069946</ele>
<time>2012-03-29T10:51:25.001Z</time>
</trkpt>
<trkpt lat="42.7603600" lon="-2.5339900">
<ele>1111.453247</ele>
<time>2012-03-29T10:51:37.996Z</time>
</trkpt>
<trkpt lat="42.7604900" lon="-2.5339500">
<ele>1113.281982</ele>
<time>2012-03-29T10:51:52.001Z</time>
</trkpt>
<trkpt lat="42.7606200" lon="-2.5339000">
<ele>1115.903320</ele>
<time>2012-03-29T10:52:07.000Z</time>
</trkpt>
<trkpt lat="42.7607100" lon="-2.5339000">
<ele>1116.817749</ele>
<time>2012-03-29T10:52:19.001Z</time>
</trkpt>
<trkpt lat="42.7608200" lon="-2.5339800">
<ele>1118.433105</ele>
<time>2012-03-29T10:52:32.998Z</time>
</trkpt>
<trkpt lat="42.7609400" lon="-2.5340600">
<ele>1119.652344</ele>
<time>2012-03-29T10:52:43.997Z</time>
</trkpt>
<trkpt lat="42.7610800" lon="-2.5341200">
<ele>1121.328735</ele>
<time>2012-03-29T10:52:58.002Z</time>
</trkpt>
<trkpt lat="42.7612900" lon="-2.5341100">
<ele>1124.925293</ele>
<time>2012-03-29T10:53:18.997Z</time>
</trkpt>
<trkpt lat="42.7614400" lon="-2.5341200">
<ele>1127.455200</ele>
<time>2012-03-29T10:53:30.998Z</time>
</trkpt>
<trkpt lat="42.7615800" lon="-2.5341200">
<ele>1128.643921</ele>
<time>2012-03-29T10:53:47.000Z</time>
</trkpt>
<trkpt lat="42.7617500" lon="-2.5341100">
<ele>1131.387085</ele>
<time>2012-03-29T10:54:01.999Z</time>
</trkpt>
<trkpt lat="42.7618500" lon="-2.5341100">
<ele>1132.850098</ele>
<time>2012-03-29T10:54:14.000Z</time>
</trkpt>
<trkpt lat="42.7619400" lon="-2.5341100">
<ele>1133.398804</ele>
<time>2012-03-29T10:54:26.001Z</time>
</trkpt>
<trkpt lat="42.7619800" lon="-2.5341000">
<ele>1133.825439</ele>
<time>2012-03-29T10:54:30.001Z</time>
</trkpt>
<trkpt lat="42.7620100" lon="-2.5341000">
<ele>1134.130249</ele>
<time>2012-03-29T10:54:31.997Z</time>
</trkpt>
<trkpt lat="42.7621300" lon="-2.5341500">
<ele>1135.319092</ele>
<time>2012-03-29T10:54:45.000Z</time>
</trkpt>
<trkpt lat="42.7621600" lon="-2.5341600">
<ele>1135.349487</ele>
<time>2012-03-29T10:54:47.998Z</time>
</trkpt>
<trkpt lat="42.7622900" lon="-2.5341800">
<ele>1135.806641</ele>
<time>2012-03-29T10:55:02.004Z</time>
</trkpt>
<trkpt lat="42.7623800" lon="-2.5342100">
<ele>1135.715332</ele>
<time>2012-03-29T10:55:16.000Z</time>
</trkpt>
<trkpt lat="42.7624200" lon="-2.5341800">
<ele>1136.020142</ele>
<time>2012-03-29T10:55:29.004Z</time>
</trkpt>
<trkpt lat="42.7625900" lon="-2.5341600">
<ele>1136.416260</ele>
<time>2012-03-29T10:55:44.003Z</time>
</trkpt>
<trkpt lat="42.7627400" lon="-2.5341100">
<ele>1137.239258</ele>
<time>2012-03-29T10:55:55.001Z</time>
</trkpt>
<trkpt lat="42.7628500" lon="-2.5340800">
<ele>1137.696533</ele>
<time>2012-03-29T10:56:04.004Z</time>
</trkpt>
<trkpt lat="42.7630400" lon="-2.5340100">
<ele>1138.488892</ele>
<time>2012-03-29T10:56:20.999Z</time>
</trkpt>
<trkpt lat="42.7631800" lon="-2.5339600">
<ele>1139.464233</ele>
<time>2012-03-29T10:56:34.996Z</time>
</trkpt>
<trkpt lat="42.7633200" lon="-2.5339600">
<ele>1140.835938</ele>
<time>2012-03-29T10:56:50.997Z</time>
</trkpt>
<trkpt lat="42.7634400" lon="-2.5340200">
<ele>1141.811279</ele>
<time>2012-03-29T10:57:05.003Z</time>
</trkpt>
<trkpt lat="42.7635400" lon="-2.5340600">
<ele>1143.640137</ele>
<time>2012-03-29T10:57:14.999Z</time>
</trkpt>
<trkpt lat="42.7636900" lon="-2.5340900">
<ele>1144.981201</ele>
<time>2012-03-29T10:57:31.000Z</time>
</trkpt>
<trkpt lat="42.7637300" lon="-2.5340800">
<ele>1145.072632</ele>
<time>2012-03-29T10:57:36.003Z</time>
</trkpt>
<trkpt lat="42.7637600" lon="-2.5340600">
<ele>1145.072632</ele>
<time>2012-03-29T10:57:39.001Z</time>
</trkpt>
<trkpt lat="42.7638200" lon="-2.5340500">
<ele>1145.011719</ele>
<time>2012-03-29T10:57:44.997Z</time>
</trkpt>
<trkpt lat="42.7638700" lon="-2.5339900">
<ele>1144.432495</ele>
<time>2012-03-29T10:57:59.996Z</time>
</trkpt>
<trkpt lat="42.7639600" lon="-2.5340000">
<ele>1144.036255</ele>
<time>2012-03-29T10:58:17.000Z</time>
</trkpt>
<trkpt lat="42.7640000" lon="-2.5340000">
<ele>1143.792480</ele>
<time>2012-03-29T10:58:35.999Z</time>
</trkpt>
<trkpt lat="42.7640200" lon="-2.5340100">
<ele>1143.883911</ele>
<time>2012-03-29T10:58:38.004Z</time>
</trkpt>
<trkpt lat="42.7640700" lon="-2.5340400">
<ele>1143.944946</ele>
<time>2012-03-29T10:58:42.004Z</time>
</trkpt>
<trkpt lat="42.7641400" lon="-2.5340800">
<ele>1144.097290</ele>
<time>2012-03-29T10:58:48.000Z</time>
</trkpt>
<trkpt lat="42.7642300" lon="-2.5341900">
<ele>1146.444214</ele>
<time>2012-03-29T10:59:01.003Z</time>
</trkpt>
<trkpt lat="42.7643100" lon="-2.5342900">
<ele>1147.876831</ele>
<time>2012-03-29T10:59:13.004Z</time>
</trkpt>
<trkpt lat="42.7643500" lon="-2.5343600">
<ele>1149.461792</ele>
<time>2012-03-29T10:59:25.999Z</time>
</trkpt>
<trkpt lat="42.7644100" lon="-2.5344600">
<ele>1151.625854</ele>
<time>2012-03-29T10:59:38.000Z</time>
</trkpt>
<trkpt lat="42.7644400" lon="-2.5345800">
<ele>1154.033691</ele>
<time>2012-03-29T10:59:56.999Z</time>
</trkpt>
<trkpt lat="42.7644800" lon="-2.5347600">
<ele>1154.917725</ele>
<time>2012-03-29T11:00:11.998Z</time>
</trkpt>
<trkpt lat="42.7645200" lon="-2.5349400">
<ele>1156.502686</ele>
<time>2012-03-29T11:00:26.997Z</time>
</trkpt>
<trkpt lat="42.7645300" lon="-2.5351200">
<ele>1159.154419</ele>
<time>2012-03-29T11:00:40.000Z</time>
</trkpt>
<trkpt lat="42.7645500" lon="-2.5352100">
<ele>1159.123901</ele>
<time>2012-03-29T11:00:48.001Z</time>
</trkpt>
<trkpt lat="42.7645800" lon="-2.5352800">
<ele>1157.996094</ele>
<time>2012-03-29T11:00:53.004Z</time>
</trkpt>
<trkpt lat="42.7646100" lon="-2.5354900">
<ele>1161.867065</ele>
<time>2012-03-29T11:01:08.996Z</time>
</trkpt>
<trkpt lat="42.7647000" lon="-2.5355900">
<ele>1160.465088</ele>
<time>2012-03-29T11:01:24.997Z</time>
</trkpt>
<trkpt lat="42.7647500" lon="-2.5356900">
<ele>1160.952637</ele>
<time>2012-03-29T11:01:34.000Z</time>
</trkpt>
<trkpt lat="42.7647700" lon="-2.5357000">
<ele>1160.129761</ele>
<time>2012-03-29T11:01:35.996Z</time>
</trkpt>
<trkpt lat="42.7647900" lon="-2.5357500">
<ele>1161.623291</ele>
<time>2012-03-29T11:01:39.996Z</time>
</trkpt>
<trkpt lat="42.7648100" lon="-2.5358000">
<ele>1163.238647</ele>
<time>2012-03-29T11:01:59.998Z</time>
</trkpt>
<trkpt lat="42.7648400" lon="-2.5358300">
<ele>1163.391113</ele>
<time>2012-03-29T11:02:02.996Z</time>
</trkpt>
<trkpt lat="42.7648700" lon="-2.5358800">
<ele>1164.671265</ele>
<time>2012-03-29T11:02:10.003Z</time>
</trkpt>
<trkpt lat="42.7649100" lon="-2.5359400">
<ele>1166.621948</ele>
<time>2012-03-29T11:02:20.000Z</time>
</trkpt>
<trkpt lat="42.7649400" lon="-2.5360500">
<ele>1170.035767</ele>
<time>2012-03-29T11:02:29.003Z</time>
</trkpt>
<trkpt lat="42.7650200" lon="-2.5361500">
<ele>1171.041626</ele>
<time>2012-03-29T11:02:40.001Z</time>
</trkpt>
<trkpt lat="42.7650600" lon="-2.5362000">
<ele>1170.828247</ele>
<time>2012-03-29T11:02:45.997Z</time>
</trkpt>
<trkpt lat="42.7651700" lon="-2.5363000">
<ele>1170.584351</ele>
<time>2012-03-29T11:02:59.001Z</time>
</trkpt>
<trkpt lat="42.7652600" lon="-2.5364000">
<ele>1170.218628</ele>
<time>2012-03-29T11:03:09.999Z</time>
</trkpt>
<trkpt lat="42.7653400" lon="-2.5365100">
<ele>1171.102539</ele>
<time>2012-03-29T11:03:23.003Z</time>
</trkpt>
<trkpt lat="42.7654100" lon="-2.5366300">
<ele>1171.011108</ele>
<time>2012-03-29T11:03:31.997Z</time>
</trkpt>
<trkpt lat="42.7654100" lon="-2.5366800">
<ele>1171.559692</ele>
<time>2012-03-29T11:03:35.997Z</time>
</trkpt>
<trkpt lat="42.7654900" lon="-2.5367800">
<ele>1169.944336</ele>
<time>2012-03-29T11:03:49.000Z</time>
</trkpt>
<trkpt lat="42.7655900" lon="-2.5369800">
<ele>1169.883301</ele>
<time>2012-03-29T11:04:03.999Z</time>
</trkpt>
<trkpt lat="42.7657400" lon="-2.5370900">
<ele>1168.145996</ele>
<time>2012-03-29T11:04:17.996Z</time>
</trkpt>
<trkpt lat="42.7658300" lon="-2.5371900">
<ele>1169.883301</ele>
<time>2012-03-29T11:04:28.001Z</time>
</trkpt>
<trkpt lat="42.7659100" lon="-2.5373400">
<ele>1170.462524</ele>
<time>2012-03-29T11:04:43.000Z</time>
</trkpt>
<trkpt lat="42.7659900" lon="-2.5374100">
<ele>1170.950195</ele>
<time>2012-03-29T11:04:59.002Z</time>
</trkpt>
<trkpt lat="42.7660300" lon="-2.5374400">
<ele>1170.919678</ele>
<time>2012-03-29T11:05:03.002Z</time>
</trkpt>
<trkpt lat="42.7660600" lon="-2.5374800">
<ele>1171.285400</ele>
<time>2012-03-29T11:05:07.002Z</time>
</trkpt>
<trkpt lat="42.7660800" lon="-2.5375200">
<ele>1171.407349</ele>
<time>2012-03-29T11:05:11.003Z</time>
</trkpt>
<trkpt lat="42.7661600" lon="-2.5376200">
<ele>1171.133057</ele>
<time>2012-03-29T11:05:22.001Z</time>
</trkpt>
<trkpt lat="42.7661900" lon="-2.5376400">
<ele>1171.011108</ele>
<time>2012-03-29T11:05:38.996Z</time>
</trkpt>
<trkpt lat="42.7662100" lon="-2.5377000">
<ele>1171.041626</ele>
<time>2012-03-29T11:05:47.999Z</time>
</trkpt>
<trkpt lat="42.7662300" lon="-2.5378200">
<ele>1170.828247</ele>
<time>2012-03-29T11:05:54.004Z</time>
</trkpt>
<trkpt lat="42.7662300" lon="-2.5379100">
<ele>1170.401489</ele>
<time>2012-03-29T11:06:01.996Z</time>
</trkpt>
<trkpt lat="42.7661200" lon="-2.5379200">
<ele>1170.462524</ele>
<time>2012-03-29T11:06:12.001Z</time>
</trkpt>
<trkpt lat="42.7660800" lon="-2.5379500">
<ele>1169.974854</ele>
<time>2012-04-01T08:58:25.003Z</time>
</trkpt>
<trkpt lat="42.7660400" lon="-2.5379800">
<ele>1169.456665</ele>
<time>2012-04-01T08:58:43.000Z</time>
</trkpt>
<trkpt lat="42.7658900" lon="-2.5380000">
<ele>1167.475464</ele>
<time>2012-04-01T08:59:07.002Z</time>
</trkpt>
<trkpt lat="42.7658800" lon="-2.5380100">
<ele>1167.231567</ele>
<time>2012-04-01T08:59:07.996Z</time>
</trkpt>
<trkpt lat="42.7657400" lon="-2.5380400">
<ele>1165.402832</ele>
<time>2012-04-01T08:59:19.997Z</time>
</trkpt>
<trkpt lat="42.7656100" lon="-2.5380500">
<ele>1163.756958</ele>
<time>2012-04-01T08:59:34.002Z</time>
</trkpt>
<trkpt lat="42.7655400" lon="-2.5380800">
<ele>1162.385254</ele>
<time>2012-04-01T08:59:51.999Z</time>
</trkpt>
<trkpt lat="42.7654200" lon="-2.5381900">
<ele>1159.977295</ele>
<time>2012-04-01T09:00:23.000Z</time>
</trkpt>
<trkpt lat="42.7654100" lon="-2.5383200">
<ele>1157.874268</ele>
<time>2012-04-01T09:00:43.001Z</time>
</trkpt>
<trkpt lat="42.7656900" lon="-2.5384900">
<ele>1153.607056</ele>
<time>2012-04-01T09:01:04.999Z</time>
</trkpt>
<trkpt lat="42.7658300" lon="-2.5384900">
<ele>1153.271729</ele>
<time>2012-04-01T09:01:18.002Z</time>
</trkpt>
<trkpt lat="42.7659600" lon="-2.5385400">
<ele>1150.589478</ele>
<time>2012-04-01T09:01:30.003Z</time>
</trkpt>
<trkpt lat="42.7660100" lon="-2.5385600">
<ele>1149.766602</ele>
<time>2012-04-01T09:01:33.001Z</time>
</trkpt>
<trkpt lat="42.7660700" lon="-2.5386100">
<ele>1148.212158</ele>
<time>2012-04-01T09:01:37.001Z</time>
</trkpt>
<trkpt lat="42.7661400" lon="-2.5386200">
<ele>1148.181641</ele>
<time>2012-04-01T09:01:42.004Z</time>
</trkpt>
<trkpt lat="42.7663000" lon="-2.5387800">
<ele>1144.371582</ele>
<time>2012-04-01T09:01:54.998Z</time>
</trkpt>
<trkpt lat="42.7664700" lon="-2.5388400">
<ele>1141.994141</ele>
<time>2012-04-01T09:02:09.004Z</time>
</trkpt>
<trkpt lat="42.7666000" lon="-2.5389400">
<ele>1140.409180</ele>
<time>2012-04-01T09:02:23.001Z</time>
</trkpt>
<trkpt lat="42.7666200" lon="-2.5389500">
<ele>1139.982544</ele>
<time>2012-04-01T09:02:24.996Z</time>
</trkpt>
<trkpt lat="42.7667600" lon="-2.5390800">
<ele>1136.203003</ele>
<time>2012-04-01T09:02:39.002Z</time>
</trkpt>
<trkpt lat="42.7668400" lon="-2.5391300">
<ele>1134.587524</ele>
<time>2012-04-01T09:02:44.998Z</time>
</trkpt>
<trkpt lat="42.7670100" lon="-2.5392600">
<ele>1130.533691</ele>
<time>2012-04-01T09:03:00.999Z</time>
</trkpt>
<trkpt lat="42.7670600" lon="-2.5393000">
<ele>1129.070679</ele>
<time>2012-04-01T09:03:05.000Z</time>
</trkpt>
<trkpt lat="42.7671200" lon="-2.5393900">
<ele>1126.906494</ele>
<time>2012-04-01T09:03:22.997Z</time>
</trkpt>
<trkpt lat="42.7671800" lon="-2.5394800">
<ele>1126.053101</ele>
<time>2012-04-01T09:03:30.004Z</time>
</trkpt>
<trkpt lat="42.7673300" lon="-2.5395400">
<ele>1126.114136</ele>
<time>2012-04-01T09:03:49.003Z</time>
</trkpt>
<trkpt lat="42.7673300" lon="-2.5395400">
<ele>1126.114136</ele>
<time>2012-04-01T09:03:53.004Z</time>
</trkpt>
<trkpt lat="42.7673500" lon="-2.5396400">
<ele>1126.022705</ele>
<time>2012-04-01T09:04:00.002Z</time>
</trkpt>
<trkpt lat="42.7673300" lon="-2.5397500">
<ele>1126.144531</ele>
<time>2012-04-01T09:04:07.000Z</time>
</trkpt>
<trkpt lat="42.7673300" lon="-2.5398500">
<ele>1125.626343</ele>
<time>2012-04-01T09:04:12.996Z</time>
</trkpt>
<trkpt lat="42.7673400" lon="-2.5400300">
<ele>1125.626343</ele>
<time>2012-04-01T09:04:23.002Z</time>
</trkpt>
<trkpt lat="42.7674000" lon="-2.5402400">
<ele>1124.437744</ele>
<time>2012-04-01T09:04:35.996Z</time>
</trkpt>
<trkpt lat="42.7674000" lon="-2.5402400">
<ele>1124.437744</ele>
<time>2012-04-01T09:04:36.998Z</time>
</trkpt>
<trkpt lat="42.7675100" lon="-2.5403700">
<ele>1122.608887</ele>
<time>2012-04-01T09:04:51.004Z</time>
</trkpt>
<trkpt lat="42.7677000" lon="-2.5404900">
<ele>1119.378052</ele>
<time>2012-04-01T09:05:09.001Z</time>
</trkpt>
<trkpt lat="42.7677600" lon="-2.5405300">
<ele>1118.158813</ele>
<time>2012-04-01T09:05:14.004Z</time>
</trkpt>
<trkpt lat="42.7678800" lon="-2.5406600">
<ele>1114.714600</ele>
<time>2012-04-01T09:05:26.998Z</time>
</trkpt>
<trkpt lat="42.7678900" lon="-2.5407000">
<ele>1113.708740</ele>
<time>2012-04-01T09:05:30.998Z</time>
</trkpt>
<trkpt lat="42.7680700" lon="-2.5407600">
<ele>1110.142578</ele>
<time>2012-04-01T09:05:45.004Z</time>
</trkpt>
<trkpt lat="42.7681200" lon="-2.5407600">
<ele>1109.563477</ele>
<time>2012-04-01T09:05:59.001Z</time>
</trkpt>
<trkpt lat="42.7682400" lon="-2.5407900">
<ele>1107.033569</ele>
<time>2012-04-01T09:06:14.000Z</time>
</trkpt>
<trkpt lat="42.7684500" lon="-2.5407000">
<ele>1102.979736</ele>
<time>2012-04-01T09:06:30.001Z</time>
</trkpt>
<trkpt lat="42.7686600" lon="-2.5405000">
<ele>1097.401855</ele>
<time>2012-04-01T09:06:50.996Z</time>
</trkpt>
<trkpt lat="42.7688600" lon="-2.5404500">
<ele>1091.488770</ele>
<time>2012-04-01T09:07:17.003Z</time>
</trkpt>
<trkpt lat="42.7689900" lon="-2.5403900">
<ele>1087.526367</ele>
<time>2012-04-01T09:07:36.002Z</time>
</trkpt>
<trkpt lat="42.7691100" lon="-2.5402700">
<ele>1084.417480</ele>
<time>2012-04-01T09:07:52.997Z</time>
</trkpt>
<trkpt lat="42.7692000" lon="-2.5402300">
<ele>1081.582764</ele>
<time>2012-04-01T09:08:10.000Z</time>
</trkpt>
<trkpt lat="42.7694400" lon="-2.5402000">
<ele>1075.303833</ele>
<time>2012-04-01T09:08:27.004Z</time>
</trkpt>
<trkpt lat="42.7695700" lon="-2.5401600">
<ele>1073.231323</ele>
<time>2012-04-01T09:08:46.997Z</time>
</trkpt>
<trkpt lat="42.7696900" lon="-2.5401600">
<ele>1071.371948</ele>
<time>2012-04-01T09:09:01.996Z</time>
</trkpt>
<trkpt lat="42.7698400" lon="-2.5402700">
<ele>1071.890137</ele>
<time>2012-04-01T09:09:20.002Z</time>
</trkpt>
<trkpt lat="42.7698600" lon="-2.5403000">
<ele>1071.615845</ele>
<time>2012-04-01T09:09:25.998Z</time>
</trkpt>
<trkpt lat="42.7699400" lon="-2.5404000">
<ele>1070.731934</ele>
<time>2012-04-01T09:09:35.001Z</time>
</trkpt>
<trkpt lat="42.7700900" lon="-2.5404800">
<ele>1071.036743</ele>
<time>2012-04-01T09:09:47.002Z</time>
</trkpt>
<trkpt lat="42.7703500" lon="-2.5405100">
<ele>1070.488159</ele>
<time>2012-04-01T09:10:07.003Z</time>
</trkpt>
<trkpt lat="42.7703900" lon="-2.5405400">
<ele>1070.183350</ele>
<time>2012-04-01T09:10:27.998Z</time>
</trkpt>
<trkpt lat="42.7704200" lon="-2.5405600">
<ele>1069.908936</ele>
<time>2012-04-01T09:11:04.001Z</time>
</trkpt>
<trkpt lat="42.7706500" lon="-2.5404800">
<ele>1070.213745</ele>
<time>2012-04-01T09:11:28.997Z</time>
</trkpt>
<trkpt lat="42.7707300" lon="-2.5405000">
<ele>1070.975708</ele>
<time>2012-04-01T09:11:33.999Z</time>
</trkpt>
<trkpt lat="42.7708700" lon="-2.5405400">
<ele>1070.945313</ele>
<time>2012-04-01T09:11:42.000Z</time>
</trkpt>
<trkpt lat="42.7709200" lon="-2.5405200">
<ele>1071.036743</ele>
<time>2012-04-01T09:11:52.999Z</time>
</trkpt>
<trkpt lat="42.7710000" lon="-2.5405400">
<ele>1071.036743</ele>
<time>2012-04-01T09:11:58.001Z</time>
</trkpt>
<trkpt lat="42.7712000" lon="-2.5406100">
<ele>1073.017944</ele>
<time>2012-04-01T09:12:13.000Z</time>
</trkpt>
<trkpt lat="42.7713200" lon="-2.5407000">
<ele>1072.134033</ele>
<time>2012-04-01T09:12:25.001Z</time>
</trkpt>
<trkpt lat="42.7714800" lon="-2.5407200">
<ele>1071.493896</ele>
<time>2012-04-01T09:12:40.000Z</time>
</trkpt>
<trkpt lat="42.7717400" lon="-2.5406200">
<ele>1069.573730</ele>
<time>2012-04-01T09:12:59.000Z</time>
</trkpt>
<trkpt lat="42.7718900" lon="-2.5406100">
<ele>1067.104858</ele>
<time>2012-04-01T09:13:08.003Z</time>
</trkpt>
<trkpt lat="42.7719700" lon="-2.5406100">
<ele>1065.306519</ele>
<time>2012-04-01T09:13:24.997Z</time>
</trkpt>
<trkpt lat="42.7721000" lon="-2.5406000">
<ele>1063.721436</ele>
<time>2012-04-01T09:13:42.001Z</time>
</trkpt>
<trkpt lat="42.7722500" lon="-2.5405600">
<ele>1062.075562</ele>
<time>2012-04-01T09:13:54.002Z</time>
</trkpt>
<trkpt lat="42.7724100" lon="-2.5405500">
<ele>1061.100220</ele>
<time>2012-04-01T09:14:06.996Z</time>
</trkpt>
<trkpt lat="42.7726100" lon="-2.5406200">
<ele>1059.759033</ele>
<time>2012-04-01T09:14:22.998Z</time>
</trkpt>
<trkpt lat="42.7728100" lon="-2.5406500">
<ele>1058.966675</ele>
<time>2012-04-01T09:14:37.997Z</time>
</trkpt>
<trkpt lat="42.7729800" lon="-2.5407000">
<ele>1056.010132</ele>
<time>2012-04-01T09:14:52.996Z</time>
</trkpt>
<trkpt lat="42.7731100" lon="-2.5407500">
<ele>1053.724121</ele>
<time>2012-04-01T09:15:04.997Z</time>
</trkpt>
<trkpt lat="42.7732400" lon="-2.5408600">
<ele>1051.529541</ele>
<time>2012-04-01T09:15:19.996Z</time>
</trkpt>
<trkpt lat="42.7733600" lon="-2.5409500">
<ele>1050.249390</ele>
<time>2012-04-01T09:15:31.997Z</time>
</trkpt>
<trkpt lat="42.7734900" lon="-2.5411000">
<ele>1049.243530</ele>
<time>2012-04-01T09:15:54.996Z</time>
</trkpt>
<trkpt lat="42.7736400" lon="-2.5413000">
<ele>1048.999756</ele>
<time>2012-04-01T09:16:10.004Z</time>
</trkpt>
<trkpt lat="42.7737600" lon="-2.5414600">
<ele>1049.456909</ele>
<time>2012-04-01T09:16:22.999Z</time>
</trkpt>
<trkpt lat="42.7738100" lon="-2.5415300">
<ele>1049.487305</ele>
<time>2012-04-01T09:16:28.001Z</time>
</trkpt>
<trkpt lat="42.7739600" lon="-2.5417200">
<ele>1048.237671</ele>
<time>2012-04-01T09:16:43.000Z</time>
</trkpt>
<trkpt lat="42.7741300" lon="-2.5419200">
<ele>1046.530762</ele>
<time>2012-04-01T09:17:00.997Z</time>
</trkpt>
<trkpt lat="42.7741600" lon="-2.5419600">
<ele>1045.799316</ele>
<time>2012-04-01T09:17:04.004Z</time>
</trkpt>
<trkpt lat="42.7742200" lon="-2.5419800">
<ele>1046.225952</ele>
<time>2012-04-01T09:17:08.998Z</time>
</trkpt>
<trkpt lat="42.7742800" lon="-2.5420300">
<ele>1046.652710</ele>
<time>2012-04-01T09:17:15.996Z</time>
</trkpt>
<trkpt lat="42.7744400" lon="-2.5421300">
<ele>1046.500244</ele>
<time>2012-04-01T09:17:30.002Z</time>
</trkpt>
<trkpt lat="42.7744500" lon="-2.5421400">
<ele>1046.195435</ele>
<time>2012-04-01T09:17:31.004Z</time>
</trkpt>
<trkpt lat="42.7747100" lon="-2.5422500">
<ele>1045.311646</ele>
<time>2012-04-01T09:17:47.999Z</time>
</trkpt>
<trkpt lat="42.7748700" lon="-2.5423500">
<ele>1042.690308</ele>
<time>2012-04-01T09:18:01.996Z</time>
</trkpt>
<trkpt lat="42.7750500" lon="-2.5424600">
<ele>1040.008057</ele>
<time>2012-04-01T09:18:17.004Z</time>
</trkpt>
<trkpt lat="42.7752300" lon="-2.5424900">
<ele>1039.154663</ele>
<time>2012-04-01T09:18:31.000Z</time>
</trkpt>
<trkpt lat="42.7754500" lon="-2.5424400">
<ele>1038.849854</ele>
<time>2012-04-01T09:18:47.002Z</time>
</trkpt>
<trkpt lat="42.7755300" lon="-2.5424000">
<ele>1038.331665</ele>
<time>2012-04-01T09:18:52.998Z</time>
</trkpt>
<trkpt lat="42.7756400" lon="-2.5423700">
<ele>1039.154663</ele>
<time>2012-04-01T09:19:02.001Z</time>
</trkpt>
<trkpt lat="42.7757800" lon="-2.5423800">
<ele>1037.722168</ele>
<time>2012-04-01T09:19:15.997Z</time>
</trkpt>
<trkpt lat="42.7758000" lon="-2.5423600">
<ele>1038.575439</ele>
<time>2012-04-01T09:19:38.004Z</time>
</trkpt>
<trkpt lat="42.7760300" lon="-2.5424300">
<ele>1037.234375</ele>
<time>2012-04-01T09:19:53.996Z</time>
</trkpt>
<trkpt lat="42.7761400" lon="-2.5425100">
<ele>1035.314087</ele>
<time>2012-04-01T09:20:06.999Z</time>
</trkpt>
<trkpt lat="42.7762300" lon="-2.5426100">
<ele>1031.290771</ele>
<time>2012-04-01T09:20:17.998Z</time>
</trkpt>
<trkpt lat="42.7763300" lon="-2.5426700">
<ele>1028.425659</ele>
<time>2012-04-01T09:20:28.003Z</time>
</trkpt>
<trkpt lat="42.7763900" lon="-2.5426800">
<ele>1027.877075</ele>
<time>2012-04-01T09:20:32.997Z</time>
</trkpt>
<trkpt lat="42.7765900" lon="-2.5427200">
<ele>1023.122131</ele>
<time>2012-04-01T09:20:47.003Z</time>
</trkpt>
<trkpt lat="42.7767600" lon="-2.5426600">
<ele>1020.653320</ele>
<time>2012-04-01T09:21:00.999Z</time>
</trkpt>
<trkpt lat="42.7768300" lon="-2.5426200">
<ele>1021.841980</ele>
<time>2012-04-01T09:21:14.996Z</time>
</trkpt>
<trkpt lat="42.7769100" lon="-2.5426100">
<ele>1020.683716</ele>
<time>2012-04-01T09:21:33.002Z</time>
</trkpt>
<trkpt lat="42.7769700" lon="-2.5426000">
<ele>1019.403625</ele>
<time>2012-04-01T09:21:38.998Z</time>
</trkpt>
<trkpt lat="42.7770000" lon="-2.5425600">
<ele>1019.799866</ele>
<time>2012-04-01T09:21:57.004Z</time>
</trkpt>
<trkpt lat="42.7769900" lon="-2.5425500">
<ele>1020.409485</ele>
<time>2012-04-01T09:22:30.000Z</time>
</trkpt>
<trkpt lat="42.7770600" lon="-2.5425900">
<ele>1017.574829</ele>
<time>2012-04-01T09:38:42.000Z</time>
</trkpt>
<trkpt lat="42.7771000" lon="-2.5425900">
<ele>1016.812805</ele>
<time>2012-04-01T09:38:48.998Z</time>
</trkpt>
<trkpt lat="42.7772600" lon="-2.5426100">
<ele>1012.088379</ele>
<time>2012-04-01T09:39:03.997Z</time>
</trkpt>
<trkpt lat="42.7772900" lon="-2.5426100">
<ele>1011.814087</ele>
<time>2012-04-01T09:39:10.996Z</time>
</trkpt>
<trkpt lat="42.7773900" lon="-2.5425800">
<ele>1010.442505</ele>
<time>2012-04-01T09:39:22.997Z</time>
</trkpt>
<trkpt lat="42.7775200" lon="-2.5425500">
<ele>1007.699280</ele>
<time>2012-04-01T09:39:33.002Z</time>
</trkpt>
<trkpt lat="42.7776300" lon="-2.5424300">
<ele>1006.358154</ele>
<time>2012-04-01T09:39:45.996Z</time>
</trkpt>
<trkpt lat="42.7776500" lon="-2.5424000">
<ele>1006.205750</ele>
<time>2012-04-01T09:39:48.001Z</time>
</trkpt>
<trkpt lat="42.7777100" lon="-2.5423300">
<ele>1005.047485</ele>
<time>2012-04-01T09:39:53.004Z</time>
</trkpt>
<trkpt lat="42.7777600" lon="-2.5422500">
<ele>1004.742676</ele>
<time>2012-04-01T09:39:59.000Z</time>
</trkpt>
<trkpt lat="42.7778100" lon="-2.5422000">
<ele>1003.401611</ele>
<time>2012-04-01T09:40:12.996Z</time>
</trkpt>
<trkpt lat="42.7779400" lon="-2.5421600">
<ele>1000.505981</ele>
<time>2012-04-01T09:40:38.001Z</time>
</trkpt>
<trkpt lat="42.7781400" lon="-2.5421300">
<ele>999.012512</ele>
<time>2012-04-01T09:40:53.000Z</time>
</trkpt>
<trkpt lat="42.7783100" lon="-2.5422000">
<ele>997.976135</ele>
<time>2012-04-01T09:41:06.003Z</time>
</trkpt>
<trkpt lat="42.7785400" lon="-2.5422500">
<ele>997.854248</ele>
<time>2012-04-01T09:41:25.002Z</time>
</trkpt>
<trkpt lat="42.7787300" lon="-2.5422000">
<ele>998.860107</ele>
<time>2012-04-01T09:41:40.001Z</time>
</trkpt>
<trkpt lat="42.7789300" lon="-2.5421400">
<ele>999.195374</ele>
<time>2012-04-01T09:41:55.000Z</time>
</trkpt>
<trkpt lat="42.7791100" lon="-2.5422100">
<ele>998.037109</ele>
<time>2012-04-01T09:42:08.997Z</time>
</trkpt>
<trkpt lat="42.7791400" lon="-2.5422200">
<ele>997.579895</ele>
<time>2012-04-01T09:42:12.004Z</time>
</trkpt>
<trkpt lat="42.7792000" lon="-2.5422500">
<ele>996.909363</ele>
<time>2012-04-01T09:42:16.998Z</time>
</trkpt>
<trkpt lat="42.7792300" lon="-2.5423000">
<ele>996.970276</ele>
<time>2012-04-01T09:42:22.000Z</time>
</trkpt>
<trkpt lat="42.7792800" lon="-2.5423500">
<ele>996.939880</ele>
<time>2012-04-01T09:45:02.998Z</time>
</trkpt>
<trkpt lat="42.7793800" lon="-2.5422100">
<ele>997.061768</ele>
<time>2012-04-01T09:45:17.997Z</time>
</trkpt>
<trkpt lat="42.7793800" lon="-2.5422200">
<ele>997.031311</ele>
<time>2012-04-01T09:45:21.004Z</time>
</trkpt>
<trkpt lat="42.7794200" lon="-2.5424100">
<ele>998.646667</ele>
<time>2012-04-01T09:45:36.003Z</time>
</trkpt>
<trkpt lat="42.7795600" lon="-2.5425200">
<ele>1000.140259</ele>
<time>2012-04-01T09:45:51.002Z</time>
</trkpt>
<trkpt lat="42.7797100" lon="-2.5425400">
<ele>1001.054626</ele>
<time>2012-04-01T09:46:03.003Z</time>
</trkpt>
<trkpt lat="42.7798900" lon="-2.5425700">
<ele>1001.450928</ele>
<time>2012-04-01T09:46:18.002Z</time>
</trkpt>
<trkpt lat="42.7799600" lon="-2.5425500">
<ele>1001.450928</ele>
<time>2012-04-01T09:46:30.003Z</time>
</trkpt>
<trkpt lat="42.7799600" lon="-2.5425600">
<ele>1001.542297</ele>
<time>2012-04-01T09:46:33.001Z</time>
</trkpt>
<trkpt lat="42.7801100" lon="-2.5425800">
<ele>1001.755737</ele>
<time>2012-04-01T09:46:46.998Z</time>
</trkpt>
<trkpt lat="42.7802300" lon="-2.5426100">
<ele>1001.633728</ele>
<time>2012-04-01T09:46:58.999Z</time>
</trkpt>
<trkpt lat="42.7803900" lon="-2.5427500">
<ele>1000.993713</ele>
<time>2012-04-01T09:47:15.000Z</time>
</trkpt>
<trkpt lat="42.7805400" lon="-2.5428600">
<ele>999.256287</ele>
<time>2012-04-01T09:47:28.997Z</time>
</trkpt>
<trkpt lat="42.7805600" lon="-2.5428700">
<ele>998.860107</ele>
<time>2012-04-01T09:47:32.004Z</time>
</trkpt>
<trkpt lat="42.7806500" lon="-2.5429000">
<ele>997.275085</ele>
<time>2012-04-01T09:47:38.000Z</time>
</trkpt>
<trkpt lat="42.7808100" lon="-2.5429400">
<ele>995.598694</ele>
<time>2012-04-01T09:47:51.996Z</time>
</trkpt>
<trkpt lat="42.7809900" lon="-2.5430200">
<ele>995.019592</ele>
<time>2012-04-01T09:48:06.002Z</time>
</trkpt>
<trkpt lat="42.7811600" lon="-2.5431000">
<ele>995.141479</ele>
<time>2012-04-01T09:48:19.999Z</time>
</trkpt>
<trkpt lat="42.7812300" lon="-2.5431300">
<ele>995.476807</ele>
<time>2012-04-01T09:48:30.997Z</time>
</trkpt>
<trkpt lat="42.7813600" lon="-2.5431500">
<ele>995.629211</ele>
<time>2012-04-01T09:48:41.003Z</time>
</trkpt>
<trkpt lat="42.7815300" lon="-2.5431300">
<ele>995.934021</ele>
<time>2012-04-01T09:48:54.999Z</time>
</trkpt>
<trkpt lat="42.7817200" lon="-2.5431500">
<ele>997.518921</ele>
<time>2012-04-01T09:49:12.003Z</time>
</trkpt>
<trkpt lat="42.7818800" lon="-2.5431300">
<ele>998.677185</ele>
<time>2012-04-01T09:49:24.997Z</time>
</trkpt>
<trkpt lat="42.7820300" lon="-2.5431100">
<ele>1000.414551</ele>
<time>2012-04-01T09:49:39.003Z</time>
</trkpt>
<trkpt lat="42.7822200" lon="-2.5431000">
<ele>1003.157715</ele>
<time>2012-04-01T09:49:54.002Z</time>
</trkpt>
<trkpt lat="42.7823600" lon="-2.5431200">
<ele>1004.956116</ele>
<time>2012-04-01T09:50:06.996Z</time>
</trkpt>
<trkpt lat="42.7824300" lon="-2.5431100">
<ele>1005.748535</ele>
<time>2012-04-01T09:50:15.999Z</time>
</trkpt>
<trkpt lat="42.7824700" lon="-2.5431300">
<ele>1006.144775</ele>
<time>2012-04-01T09:50:20.000Z</time>
</trkpt>
<trkpt lat="42.7825400" lon="-2.5431100">
<ele>1006.876282</ele>
<time>2012-04-01T09:50:26.998Z</time>
</trkpt>
<trkpt lat="42.7826000" lon="-2.5431300">
<ele>1006.845825</ele>
<time>2012-04-01T09:50:30.998Z</time>
</trkpt>
<trkpt lat="42.7826700" lon="-2.5431400">
<ele>1007.546936</ele>
<time>2012-04-01T09:50:49.004Z</time>
</trkpt>
<trkpt lat="42.7828500" lon="-2.5431700">
<ele>1008.644165</ele>
<time>2012-04-01T09:51:04.003Z</time>
</trkpt>
<trkpt lat="42.7829800" lon="-2.5432300">
<ele>1010.991089</ele>
<time>2012-04-01T09:51:16.998Z</time>
</trkpt>
<trkpt lat="42.7831300" lon="-2.5433200">
<ele>1013.277100</ele>
<time>2012-04-01T09:51:34.001Z</time>
</trkpt>
<trkpt lat="42.7832800" lon="-2.5434500">
<ele>1016.386108</ele>
<time>2012-04-01T09:51:51.998Z</time>
</trkpt>
<trkpt lat="42.7833800" lon="-2.5435300">
<ele>1018.306274</ele>
<time>2012-04-01T09:52:06.004Z</time>
</trkpt>
<trkpt lat="42.7833800" lon="-2.5435400">
<ele>1018.336792</ele>
<time>2012-04-01T09:52:06.997Z</time>
</trkpt>
<trkpt lat="42.7835000" lon="-2.5436200">
<ele>1020.744690</ele>
<time>2012-04-01T09:52:21.996Z</time>
</trkpt>
<trkpt lat="42.7835500" lon="-2.5436600">
<ele>1021.506714</ele>
<time>2012-04-01T09:52:28.001Z</time>
</trkpt>
<trkpt lat="42.7836200" lon="-2.5437500">
<ele>1022.146790</ele>
<time>2012-04-01T09:52:37.004Z</time>
</trkpt>
<trkpt lat="42.7837300" lon="-2.5438900">
<ele>1022.421082</ele>
<time>2012-04-01T09:52:51.001Z</time>
</trkpt>
<trkpt lat="42.7837700" lon="-2.5438900">
<ele>1022.756409</ele>
<time>2012-04-01T09:52:55.001Z</time>
</trkpt>
<trkpt lat="42.7838100" lon="-2.5438800">
<ele>1023.183105</ele>
<time>2012-04-01T09:53:00.004Z</time>
</trkpt>
<trkpt lat="42.7839400" lon="-2.5439400">
<ele>1024.707031</ele>
<time>2012-04-01T09:53:11.003Z</time>
</trkpt>
<trkpt lat="42.7840800" lon="-2.5440300">
<ele>1025.164307</ele>
<time>2012-04-01T09:53:24.999Z</time>
</trkpt>
<trkpt lat="42.7841000" lon="-2.5440300">
<ele>1025.377686</ele>
<time>2012-04-01T09:53:26.002Z</time>
</trkpt>
<trkpt lat="42.7841400" lon="-2.5440200">
<ele>1025.834961</ele>
<time>2012-04-01T09:53:31.004Z</time>
</trkpt>
<trkpt lat="42.7842600" lon="-2.5440700">
<ele>1026.932129</ele>
<time>2012-04-01T09:53:42.003Z</time>
</trkpt>
<trkpt lat="42.7843000" lon="-2.5441100">
<ele>1026.871216</ele>
<time>2012-04-01T09:53:46.003Z</time>
</trkpt>
<trkpt lat="42.7843500" lon="-2.5441500">
<ele>1027.054077</ele>
<time>2012-04-01T09:53:50.004Z</time>
</trkpt>
<trkpt lat="42.7844100" lon="-2.5442100">
<ele>1026.871216</ele>
<time>2012-04-01T09:53:57.002Z</time>
</trkpt>
<trkpt lat="42.7845100" lon="-2.5443300">
<ele>1026.627319</ele>
<time>2012-04-01T09:54:08.001Z</time>
</trkpt>
<trkpt lat="42.7845400" lon="-2.5443900">
<ele>1026.139771</ele>
<time>2012-04-01T09:54:13.003Z</time>
</trkpt>
<trkpt lat="42.7845800" lon="-2.5444400">
<ele>1025.469116</ele>
<time>2012-04-01T09:54:17.997Z</time>
</trkpt>
<trkpt lat="42.7846000" lon="-2.5444700">
<ele>1025.316650</ele>
<time>2012-04-01T09:54:21.004Z</time>
</trkpt>
<trkpt lat="42.7846100" lon="-2.5445500">
<ele>1024.859497</ele>
<time>2012-04-01T09:54:25.998Z</time>
</trkpt>
<trkpt lat="42.7847000" lon="-2.5446700">
<ele>1023.792664</ele>
<time>2012-04-01T09:54:36.996Z</time>
</trkpt>
<trkpt lat="42.7847400" lon="-2.5447600">
<ele>1023.640320</ele>
<time>2012-04-01T09:54:50.000Z</time>
</trkpt>
<trkpt lat="42.7847500" lon="-2.5447900">
<ele>1023.487915</ele>
<time>2012-04-01T09:54:52.004Z</time>
</trkpt>
<trkpt lat="42.7847900" lon="-2.5448600">
<ele>1023.305054</ele>
<time>2012-04-01T09:55:10.001Z</time>
</trkpt>
<trkpt lat="42.7848300" lon="-2.5448600">
<ele>1023.274536</ele>
<time>2012-04-01T09:55:15.004Z</time>
</trkpt>
<trkpt lat="42.7849400" lon="-2.5449700">
<ele>1022.878296</ele>
<time>2012-04-01T09:55:30.003Z</time>
</trkpt>
<trkpt lat="42.7850200" lon="-2.5450500">
<ele>1023.518372</ele>
<time>2012-04-01T09:55:39.999Z</time>
</trkpt>
<trkpt lat="42.7850400" lon="-2.5451600">
<ele>1023.670776</ele>
<time>2012-04-01T09:55:48.000Z</time>
</trkpt>
<trkpt lat="42.7851500" lon="-2.5453200">
<ele>1023.945068</ele>
<time>2012-04-01T09:56:01.997Z</time>
</trkpt>
<trkpt lat="42.7852200" lon="-2.5453800">
<ele>1024.798584</ele>
<time>2012-04-01T09:56:11.000Z</time>
</trkpt>
<trkpt lat="42.7852400" lon="-2.5454300">
<ele>1025.011841</ele>
<time>2012-04-01T09:56:15.000Z</time>
</trkpt>
<trkpt lat="42.7852400" lon="-2.5454800">
<ele>1025.011841</ele>
<time>2012-04-01T09:56:17.998Z</time>
</trkpt>
<trkpt lat="42.7852700" lon="-2.5455600">
<ele>1025.377686</ele>
<time>2012-04-01T09:56:24.996Z</time>
</trkpt>
<trkpt lat="42.7852600" lon="-2.5457800">
<ele>1025.499634</ele>
<time>2012-04-01T09:56:40.004Z</time>
</trkpt>
<trkpt lat="42.7852500" lon="-2.5458900">
<ele>1025.072876</ele>
<time>2012-04-01T09:56:47.003Z</time>
</trkpt>
<trkpt lat="42.7852600" lon="-2.5460600">
<ele>1024.371826</ele>
<time>2012-04-01T09:56:56.999Z</time>
</trkpt>
<trkpt lat="42.7852700" lon="-2.5461600">
<ele>1024.067017</ele>
<time>2012-04-01T09:57:11.998Z</time>
</trkpt>
<trkpt lat="42.7852600" lon="-2.5462400">
<ele>1022.085876</ele>
<time>2012-04-01T09:58:00.002Z</time>
</trkpt>
<trkpt lat="42.7852200" lon="-2.5463200">
<ele>1019.190247</ele>
<time>2012-04-01T09:58:13.999Z</time>
</trkpt>
<trkpt lat="42.7852000" lon="-2.5464300">
<ele>1015.776489</ele>
<time>2012-04-01T09:58:32.998Z</time>
</trkpt>
<trkpt lat="42.7852500" lon="-2.5465500">
<ele>1013.277100</ele>
<time>2012-04-01T09:58:51.997Z</time>
</trkpt>
<trkpt lat="42.7852400" lon="-2.5467400">
<ele>1009.650024</ele>
<time>2012-04-01T09:59:10.997Z</time>
</trkpt>
<trkpt lat="42.7851500" lon="-2.5470300">
<ele>1002.944397</ele>
<time>2012-04-01T09:59:29.996Z</time>
</trkpt>
<trkpt lat="42.7851300" lon="-2.5472300">
<ele>998.677185</ele>
<time>2012-04-01T09:59:49.004Z</time>
</trkpt>
<trkpt lat="42.7850800" lon="-2.5474600">
<ele>993.038391</ele>
<time>2012-04-01T10:00:08.004Z</time>
</trkpt>
<trkpt lat="42.7850700" lon="-2.5476400">
<ele>989.716125</ele>
<time>2012-04-01T10:00:23.003Z</time>
</trkpt>
<trkpt lat="42.7851100" lon="-2.5479000">
<ele>983.802917</ele>
<time>2012-04-01T10:00:46.002Z</time>
</trkpt>
<trkpt lat="42.7850700" lon="-2.5481000">
<ele>979.383362</ele>
<time>2012-04-01T10:01:06.997Z</time>
</trkpt>
<trkpt lat="42.7850000" lon="-2.5483600">
<ele>975.420959</ele>
<time>2012-04-01T10:01:25.997Z</time>
</trkpt>
<trkpt lat="42.7850300" lon="-2.5485700">
<ele>970.757507</ele>
<time>2012-04-01T10:01:45.998Z</time>
</trkpt>
<trkpt lat="42.7851000" lon="-2.5486900">
<ele>968.136230</ele>
<time>2012-04-01T10:02:06.000Z</time>
</trkpt>
<trkpt lat="42.7851000" lon="-2.5486800">
<ele>968.380127</ele>
<time>2012-04-01T10:02:30.002Z</time>
</trkpt>
<trkpt lat="42.7850800" lon="-2.5488100">
<ele>964.966309</ele>
<time>2012-04-01T10:02:58.004Z</time>
</trkpt>
<trkpt lat="42.7850000" lon="-2.5490300">
<ele>959.083740</ele>
<time>2012-04-01T10:03:17.997Z</time>
</trkpt>
<trkpt lat="42.7849700" lon="-2.5492300">
<ele>955.730896</ele>
<time>2012-04-01T10:03:31.000Z</time>
</trkpt>
<trkpt lat="42.7849800" lon="-2.5494700">
<ele>952.286682</ele>
<time>2012-04-01T10:03:52.998Z</time>
</trkpt>
<trkpt lat="42.7848400" lon="-2.5497400">
<ele>951.128418</ele>
<time>2012-04-01T10:04:08.999Z</time>
</trkpt>
<trkpt lat="42.7846900" lon="-2.5501500">
<ele>944.727600</ele>
<time>2012-04-01T10:04:31.999Z</time>
</trkpt>
<trkpt lat="42.7844500" lon="-2.5503500">
<ele>944.666626</ele>
<time>2012-04-01T10:04:53.003Z</time>
</trkpt>
<trkpt lat="42.7843500" lon="-2.5505100">
<ele>944.209473</ele>
<time>2012-04-01T10:05:08.002Z</time>
</trkpt>
<trkpt lat="42.7844100" lon="-2.5507700">
<ele>941.130920</ele>
<time>2012-04-01T10:05:28.003Z</time>
</trkpt>
<trkpt lat="42.7844300" lon="-2.5509900">
<ele>941.130920</ele>
<time>2012-04-01T10:05:46.000Z</time>
</trkpt>
<trkpt lat="42.7844200" lon="-2.5510000">
<ele>941.161438</ele>
<time>2012-04-01T10:06:15.998Z</time>
</trkpt>
<trkpt lat="42.7844600" lon="-2.5510200">
<ele>940.978516</ele>
<time>2012-04-01T10:06:54.999Z</time>
</trkpt>
<trkpt lat="42.7844800" lon="-2.5511000">
<ele>941.161438</ele>
<time>2012-04-01T10:08:29.003Z</time>
</trkpt>
<trkpt lat="42.7844900" lon="-2.5511400">
<ele>941.252930</ele>
<time>2012-04-01T10:08:32.001Z</time>
</trkpt>
<trkpt lat="42.7845200" lon="-2.5512200">
<ele>941.283325</ele>
<time>2012-04-01T10:08:37.003Z</time>
</trkpt>
<trkpt lat="42.7845600" lon="-2.5513500">
<ele>940.734680</ele>
<time>2012-04-01T10:08:52.002Z</time>
</trkpt>
<trkpt lat="42.7845600" lon="-2.5514100">
<ele>940.978516</ele>
<time>2012-04-01T10:09:00.996Z</time>
</trkpt>
<trkpt lat="42.7846400" lon="-2.5517900">
<ele>944.636169</ele>
<time>2012-04-01T10:09:24.998Z</time>
</trkpt>
<trkpt lat="42.7846700" lon="-2.5518600">
<ele>945.794373</ele>
<time>2012-04-01T10:09:30.001Z</time>
</trkpt>
<trkpt lat="42.7846800" lon="-2.5519000">
<ele>946.403992</ele>
<time>2012-04-01T10:09:32.999Z</time>
</trkpt>
<trkpt lat="42.7847700" lon="-2.5519700">
<ele>947.226929</ele>
<time>2012-04-01T10:09:39.997Z</time>
</trkpt>
<trkpt lat="42.7848400" lon="-2.5521100">
<ele>949.086243</ele>
<time>2012-04-01T10:09:51.998Z</time>
</trkpt>
<trkpt lat="42.7848800" lon="-2.5521200">
<ele>949.299622</ele>
<time>2012-04-01T10:09:55.999Z</time>
</trkpt>
<trkpt lat="42.7849600" lon="-2.5521400">
<ele>949.238647</ele>
<time>2012-04-01T10:10:02.004Z</time>
</trkpt>
<trkpt lat="42.7850700" lon="-2.5522300">
<ele>949.360535</ele>
<time>2012-04-01T10:10:14.998Z</time>
</trkpt>
<trkpt lat="42.7851500" lon="-2.5523700">
<ele>950.244507</ele>
<time>2012-04-01T10:10:29.004Z</time>
</trkpt>
<trkpt lat="42.7852000" lon="-2.5525400">
<ele>952.774292</ele>
<time>2012-04-01T10:10:41.998Z</time>
</trkpt>
<trkpt lat="42.7852800" lon="-2.5527000">
<ele>954.816528</ele>
<time>2012-04-01T10:10:56.997Z</time>
</trkpt>
<trkpt lat="42.7853800" lon="-2.5528200">
<ele>955.791870</ele>
<time>2012-04-01T10:11:15.003Z</time>
</trkpt>
<trkpt lat="42.7853900" lon="-2.5528300">
<ele>955.852783</ele>
<time>2012-04-01T10:11:15.996Z</time>
</trkpt>
<trkpt lat="42.7853900" lon="-2.5530800">
<ele>958.047363</ele>
<time>2012-04-01T10:11:31.998Z</time>
</trkpt>
<trkpt lat="42.7854000" lon="-2.5531500">
<ele>959.510376</ele>
<time>2012-04-01T10:11:35.998Z</time>
</trkpt>
<trkpt lat="42.7854000" lon="-2.5531800">
<ele>960.211426</ele>
<time>2012-04-01T10:11:38.003Z</time>
</trkpt>
<trkpt lat="42.7854000" lon="-2.5532100">
<ele>960.760132</ele>
<time>2012-04-01T10:11:39.998Z</time>
</trkpt>
<trkpt lat="42.7854400" lon="-2.5533300">
<ele>961.887878</ele>
<time>2012-04-01T10:11:47.999Z</time>
</trkpt>
<trkpt lat="42.7854500" lon="-2.5535700">
<ele>962.009766</ele>
<time>2012-04-01T10:12:02.998Z</time>
</trkpt>
<trkpt lat="42.7854500" lon="-2.5537700">
<ele>959.754272</ele>
<time>2012-04-01T10:12:17.004Z</time>
</trkpt>
<trkpt lat="42.7854300" lon="-2.5538200">
<ele>958.992249</ele>
<time>2012-04-01T10:12:18.999Z</time>
</trkpt>
<trkpt lat="42.7853900" lon="-2.5539200">
<ele>957.559692</ele>
<time>2012-04-01T10:12:23.000Z</time>
</trkpt>
<trkpt lat="42.7853600" lon="-2.5540300">
<ele>956.096680</ele>
<time>2012-04-01T10:12:40.003Z</time>
</trkpt>
<trkpt lat="42.7852800" lon="-2.5542300">
<ele>956.066162</ele>
<time>2012-04-01T10:12:54.000Z</time>
</trkpt>
<trkpt lat="42.7851500" lon="-2.5544200">
<ele>955.090820</ele>
<time>2012-04-01T10:13:07.997Z</time>
</trkpt>
<trkpt lat="42.7850900" lon="-2.5545700">
<ele>954.968933</ele>
<time>2012-04-01T10:13:21.000Z</time>
</trkpt>
<trkpt lat="42.7850000" lon="-2.5548200">
<ele>952.926697</ele>
<time>2012-04-01T10:13:34.997Z</time>
</trkpt>
<trkpt lat="42.7848600" lon="-2.5550300">
<ele>952.164673</ele>
<time>2012-04-01T10:13:49.002Z</time>
</trkpt>
<trkpt lat="42.7847700" lon="-2.5552000">
<ele>951.036926</ele>
<time>2012-04-01T10:14:05.004Z</time>
</trkpt>
<trkpt lat="42.7846800" lon="-2.5553500">
<ele>950.549316</ele>
<time>2012-04-01T10:14:16.996Z</time>
</trkpt>
<trkpt lat="42.7846400" lon="-2.5554300">
<ele>949.909180</ele>
<time>2012-04-01T10:14:21.998Z</time>
</trkpt>
<trkpt lat="42.7845000" lon="-2.5556500">
<ele>947.105042</ele>
<time>2012-04-01T10:14:39.002Z</time>
</trkpt>
<trkpt lat="42.7843500" lon="-2.5558700">
<ele>945.306702</ele>
<time>2012-04-01T10:14:55.997Z</time>
</trkpt>
<trkpt lat="42.7842100" lon="-2.5560200">
<ele>944.087463</ele>
<time>2012-04-01T10:15:10.002Z</time>
</trkpt>
<trkpt lat="42.7841700" lon="-2.5561200">
<ele>942.533081</ele>
<time>2012-04-01T10:15:23.999Z</time>
</trkpt>
<trkpt lat="42.7841800" lon="-2.5561400">
<ele>942.167297</ele>
<time>2012-04-01T10:15:57.004Z</time>
</trkpt>
<trkpt lat="42.7841000" lon="-2.5563200">
<ele>940.307983</ele>
<time>2012-04-01T10:16:12.003Z</time>
</trkpt>
<trkpt lat="42.7841210" lon="-2.5563210">
<ele>940.125061</ele>
<time>2012-03-23T17:12:08.004Z</time>
</trkpt>
<trkpt lat="42.7841470" lon="-2.5563690">
<ele>939.027832</ele>
<time>2012-03-23T17:12:12.004Z</time>
</trkpt>
<trkpt lat="42.7842360" lon="-2.5563740">
<ele>937.930542</ele>
<time>2012-03-23T17:12:19.002Z</time>
</trkpt>
<trkpt lat="42.7843410" lon="-2.5564240">
<ele>935.431213</ele>
<time>2012-03-23T17:12:26.001Z</time>
</trkpt>
<trkpt lat="42.7844040" lon="-2.5564680">
<ele>934.059570</ele>
<time>2012-03-23T17:12:31.003Z</time>
</trkpt>
<trkpt lat="42.7845330" lon="-2.5565740">
<ele>930.737305</ele>
<time>2012-03-23T17:12:41.000Z</time>
</trkpt>
<trkpt lat="42.7846270" lon="-2.5566730">
<ele>927.933105</ele>
<time>2012-03-23T17:12:50.996Z</time>
</trkpt>
<trkpt lat="42.7846540" lon="-2.5567520">
<ele>927.049194</ele>
<time>2012-03-23T17:12:57.001Z</time>
</trkpt>
<trkpt lat="42.7847900" lon="-2.5566870">
<ele>924.031738</ele>
<time>2012-03-23T17:13:06.997Z</time>
</trkpt>
<trkpt lat="42.7848490" lon="-2.5566080">
<ele>923.726929</ele>
<time>2012-03-23T17:13:14.998Z</time>
</trkpt>
<trkpt lat="42.7849230" lon="-2.5565600">
<ele>921.715210</ele>
<time>2012-03-23T17:13:20.001Z</time>
</trkpt>
<trkpt lat="42.7849780" lon="-2.5564700">
<ele>922.202881</ele>
<time>2012-03-23T17:13:28.001Z</time>
</trkpt>
<trkpt lat="42.7851890" lon="-2.5563570">
<ele>916.960266</ele>
<time>2012-03-23T17:13:40.996Z</time>
</trkpt>
<trkpt lat="42.7852530" lon="-2.5563250">
<ele>916.137329</ele>
<time>2012-03-23T17:13:44.996Z</time>
</trkpt>
<trkpt lat="42.7854180" lon="-2.5562020">
<ele>912.662659</ele>
<time>2012-03-23T17:13:56.004Z</time>
</trkpt>
<trkpt lat="42.7855160" lon="-2.5561120">
<ele>911.931091</ele>
<time>2012-03-23T17:14:06.000Z</time>
</trkpt>
<trkpt lat="42.7855970" lon="-2.5560590">
<ele>911.412964</ele>
<time>2012-03-23T17:14:11.996Z</time>
</trkpt>
<trkpt lat="42.7858690" lon="-2.5559350">
<ele>909.492676</ele>
<time>2012-03-23T17:14:27.997Z</time>
</trkpt>
<trkpt lat="42.7859680" lon="-2.5558740">
<ele>908.852661</ele>
<time>2012-03-23T17:14:33.000Z</time>
</trkpt>
<trkpt lat="42.7860420" lon="-2.5558170">
<ele>908.517334</ele>
<time>2012-03-23T17:14:38.003Z</time>
</trkpt>
<trkpt lat="42.7861770" lon="-2.5557680">
<ele>906.170410</ele>
<time>2012-03-23T17:14:47.999Z</time>
</trkpt>
<trkpt lat="42.7864530" lon="-2.5556170">
<ele>900.866882</ele>
<time>2012-03-23T17:15:01.002Z</time>
</trkpt>
<trkpt lat="42.7866360" lon="-2.5554970">
<ele>897.544556</ele>
<time>2012-03-23T17:15:13.003Z</time>
</trkpt>
<trkpt lat="42.7867550" lon="-2.5553470">
<ele>897.026428</ele>
<time>2012-03-23T17:15:25.998Z</time>
</trkpt>
<trkpt lat="42.7869000" lon="-2.5552380">
<ele>894.130798</ele>
<time>2012-03-23T17:15:36.996Z</time>
</trkpt>
<trkpt lat="42.7870570" lon="-2.5550880">
<ele>893.155457</ele>
<time>2012-03-23T17:15:52.998Z</time>
</trkpt>
<trkpt lat="42.7871720" lon="-2.5550110">
<ele>891.509460</ele>
<time>2012-03-23T17:16:04.999Z</time>
</trkpt>
<trkpt lat="42.7872770" lon="-2.5549210">
<ele>890.198914</ele>
<time>2012-03-23T17:16:11.004Z</time>
</trkpt>
<trkpt lat="42.7873670" lon="-2.5548680">
<ele>888.431030</ele>
<time>2012-03-23T17:16:17.000Z</time>
</trkpt>
<trkpt lat="42.7875210" lon="-2.5548000">
<ele>884.590515</ele>
<time>2012-03-23T17:16:22.996Z</time>
</trkpt>
<trkpt lat="42.7876590" lon="-2.5546920">
<ele>880.018555</ele>
<time>2012-03-23T17:16:31.999Z</time>
</trkpt>
<trkpt lat="42.7878020" lon="-2.5545740">
<ele>876.391479</ele>
<time>2012-03-23T17:16:42.997Z</time>
</trkpt>
<trkpt lat="42.7879720" lon="-2.5545880">
<ele>872.825317</ele>
<time>2012-03-23T17:16:52.000Z</time>
</trkpt>
<trkpt lat="42.7881720" lon="-2.5546070">
<ele>870.508789</ele>
<time>2012-03-23T17:17:04.001Z</time>
</trkpt>
<trkpt lat="42.7883840" lon="-2.5546240">
<ele>870.905029</ele>
<time>2012-03-23T17:17:15.000Z</time>
</trkpt>
<trkpt lat="42.7884700" lon="-2.5546270">
<ele>870.752625</ele>
<time>2012-03-23T17:17:20.003Z</time>
</trkpt>
<trkpt lat="42.7887230" lon="-2.5546540">
<ele>866.363464</ele>
<time>2012-03-23T17:17:29.999Z</time>
</trkpt>
<trkpt lat="42.7889620" lon="-2.5548180">
<ele>861.151428</ele>
<time>2012-03-23T17:17:46.000Z</time>
</trkpt>
<trkpt lat="42.7890530" lon="-2.5550160">
<ele>858.987366</ele>
<time>2012-03-23T17:17:58.001Z</time>
</trkpt>
<trkpt lat="42.7891440" lon="-2.5552320">
<ele>858.042480</ele>
<time>2012-03-23T17:18:09.000Z</time>
</trkpt>
<trkpt lat="42.7892720" lon="-2.5554760">
<ele>856.030823</ele>
<time>2012-03-23T17:18:19.999Z</time>
</trkpt>
<trkpt lat="42.7893760" lon="-2.5556470">
<ele>854.720154</ele>
<time>2012-03-23T17:18:30.997Z</time>
</trkpt>
<trkpt lat="42.7895190" lon="-2.5557300">
<ele>855.238281</ele>
<time>2012-03-23T17:18:41.003Z</time>
</trkpt>
<trkpt lat="42.7896370" lon="-2.5559280">
<ele>854.323914</ele>
<time>2012-03-23T17:18:53.004Z</time>
</trkpt>
<trkpt lat="42.7897210" lon="-2.5560520">
<ele>853.470520</ele>
<time>2012-03-23T17:19:01.998Z</time>
</trkpt>
<trkpt lat="42.7898910" lon="-2.5561640">
<ele>854.141052</ele>
<time>2012-03-23T17:19:13.999Z</time>
</trkpt>
<trkpt lat="42.7900460" lon="-2.5563040">
<ele>853.440002</ele>
<time>2012-03-23T17:19:24.997Z</time>
</trkpt>
<trkpt lat="42.7902490" lon="-2.5565360">
<ele>852.464661</ele>
<time>2012-03-23T17:19:39.003Z</time>
</trkpt>
<trkpt lat="42.7903450" lon="-2.5567060">
<ele>850.087219</ele>
<time>2012-03-23T17:19:47.997Z</time>
</trkpt>
<trkpt lat="42.7904180" lon="-2.5568420">
<ele>848.837463</ele>
<time>2012-03-23T17:19:55.998Z</time>
</trkpt>
<trkpt lat="42.7904670" lon="-2.5569530">
<ele>848.319336</ele>
<time>2012-03-23T17:20:02.003Z</time>
</trkpt>
<trkpt lat="42.7905210" lon="-2.5570580">
<ele>848.166931</ele>
<time>2012-03-23T17:20:06.996Z</time>
</trkpt>
<trkpt lat="42.7907260" lon="-2.5572950">
<ele>847.648804</ele>
<time>2012-03-23T17:20:22.004Z</time>
</trkpt>
<trkpt lat="42.7908320" lon="-2.5574110">
<ele>847.404968</ele>
<time>2012-03-23T17:20:29.996Z</time>
</trkpt>
<trkpt lat="42.7909710" lon="-2.5575860">
<ele>842.467224</ele>
<time>2012-03-23T17:20:41.997Z</time>
</trkpt>
<trkpt lat="42.7911360" lon="-2.5577660">
<ele>838.961975</ele>
<time>2012-03-23T17:21:00.003Z</time>
</trkpt>
<trkpt lat="42.7913520" lon="-2.5578190">
<ele>836.706482</ele>
<time>2012-03-23T17:21:12.997Z</time>
</trkpt>
<trkpt lat="42.7915170" lon="-2.5578120">
<ele>835.731079</ele>
<time>2012-03-23T17:21:22.000Z</time>
</trkpt>
<trkpt lat="42.7918000" lon="-2.5577460">
<ele>831.585876</ele>
<time>2012-03-23T17:21:39.004Z</time>
</trkpt>
<trkpt lat="42.7919320" lon="-2.5576860">
<ele>831.281067</ele>
<time>2012-03-23T17:21:49.000Z</time>
</trkpt>
<trkpt lat="42.7921420" lon="-2.5576130">
<ele>827.928284</ele>
<time>2012-03-23T17:22:01.001Z</time>
</trkpt>
<trkpt lat="42.7922140" lon="-2.5575820">
<ele>826.800537</ele>
<time>2012-03-23T17:22:05.002Z</time>
</trkpt>
<trkpt lat="42.7923270" lon="-2.5575370">
<ele>824.819336</ele>
<time>2012-03-23T17:22:12.000Z</time>
</trkpt>
<trkpt lat="42.7925710" lon="-2.5574600">
<ele>823.752502</ele>
<time>2012-03-23T17:22:25.997Z</time>
</trkpt>
<trkpt lat="42.7927850" lon="-2.5574170">
<ele>823.234314</ele>
<time>2012-03-23T17:22:37.998Z</time>
</trkpt>
<trkpt lat="42.7930690" lon="-2.5573770">
<ele>820.978821</ele>
<time>2012-03-23T17:22:51.001Z</time>
</trkpt>
<trkpt lat="42.7932270" lon="-2.5572740">
<ele>820.064392</ele>
<time>2012-03-23T17:23:03.002Z</time>
</trkpt>
<trkpt lat="42.7934180" lon="-2.5570830">
<ele>819.454773</ele>
<time>2012-03-23T17:23:18.001Z</time>
</trkpt>
<trkpt lat="42.7936070" lon="-2.5569880">
<ele>818.662292</ele>
<time>2012-03-23T17:23:30.002Z</time>
</trkpt>
<trkpt lat="42.7938230" lon="-2.5568710">
<ele>816.071472</ele>
<time>2012-03-23T17:23:42.996Z</time>
</trkpt>
<trkpt lat="42.7939720" lon="-2.5567720">
<ele>816.223877</ele>
<time>2012-03-23T17:23:53.002Z</time>
</trkpt>
<trkpt lat="42.7941220" lon="-2.5567080">
<ele>816.223877</ele>
<time>2012-03-23T17:24:02.998Z</time>
</trkpt>
<trkpt lat="42.7942760" lon="-2.5566210">
<ele>817.107849</ele>
<time>2012-03-23T17:24:17.004Z</time>
</trkpt>
<trkpt lat="42.7945510" lon="-2.5566330">
<ele>819.119507</ele>
<time>2012-03-23T17:24:32.996Z</time>
</trkpt>
<trkpt lat="42.7947680" lon="-2.5568110">
<ele>822.380920</ele>
<time>2012-03-23T17:24:48.004Z</time>
</trkpt>
<trkpt lat="42.7948750" lon="-2.5569370">
<ele>824.057312</ele>
<time>2012-03-23T17:24:58.000Z</time>
</trkpt>
<trkpt lat="42.7950210" lon="-2.5571470">
<ele>826.099426</ele>
<time>2012-03-23T17:25:11.997Z</time>
</trkpt>
<trkpt lat="42.7951700" lon="-2.5574180">
<ele>827.745361</ele>
<time>2012-03-23T17:25:27.998Z</time>
</trkpt>
<trkpt lat="42.7952190" lon="-2.5575470">
<ele>829.452271</ele>
<time>2012-03-23T17:25:34.997Z</time>
</trkpt>
<trkpt lat="42.7953120" lon="-2.5578050">
<ele>830.336121</ele>
<time>2012-03-23T17:25:48.000Z</time>
</trkpt>
<trkpt lat="42.7954000" lon="-2.5581350">
<ele>831.341980</ele>
<time>2012-03-23T17:26:02.999Z</time>
</trkpt>
<trkpt lat="42.7955430" lon="-2.5584700">
<ele>832.805054</ele>
<time>2012-03-23T17:26:20.996Z</time>
</trkpt>
<trkpt lat="42.7955860" lon="-2.5585430">
<ele>833.292664</ele>
<time>2012-03-23T17:26:25.999Z</time>
</trkpt>
<trkpt lat="42.7956820" lon="-2.5587340">
<ele>834.542419</ele>
<time>2012-03-23T17:26:36.004Z</time>
</trkpt>
<trkpt lat="42.7957590" lon="-2.5588740">
<ele>835.121460</ele>
<time>2012-03-23T17:26:43.996Z</time>
</trkpt>
<trkpt lat="42.7958650" lon="-2.5590440">
<ele>834.664307</ele>
<time>2012-03-23T17:26:52.999Z</time>
</trkpt>
<trkpt lat="42.7959860" lon="-2.5590600">
<ele>834.237610</ele>
<time>2012-03-23T17:26:59.997Z</time>
</trkpt>
<trkpt lat="42.7961150" lon="-2.5591470">
<ele>830.945740</ele>
<time>2012-03-23T17:27:06.002Z</time>
</trkpt>
<trkpt lat="42.7962590" lon="-2.5592380">
<ele>826.251831</ele>
<time>2012-03-23T17:27:10.002Z</time>
</trkpt>
<trkpt lat="42.7965170" lon="-2.5592780">
<ele>825.306946</ele>
<time>2012-03-23T17:27:18.996Z</time>
</trkpt>
<trkpt lat="42.7967170" lon="-2.5593860">
<ele>822.990540</ele>
<time>2012-03-23T17:27:32.000Z</time>
</trkpt>
<trkpt lat="42.7968390" lon="-2.5594460">
<ele>822.380920</ele>
<time>2012-03-23T17:27:38.998Z</time>
</trkpt>
<trkpt lat="42.7970130" lon="-2.5595140">
<ele>819.668152</ele>
<time>2012-03-23T17:27:49.997Z</time>
</trkpt>
<trkpt lat="42.7970880" lon="-2.5595680">
<ele>817.077332</ele>
<time>2012-03-23T17:27:54.999Z</time>
</trkpt>
<trkpt lat="42.7972020" lon="-2.5595850">
<ele>816.498230</ele>
<time>2012-03-23T17:28:04.996Z</time>
</trkpt>
<trkpt lat="42.7973470" lon="-2.5594560">
<ele>821.192139</ele>
<time>2012-03-23T17:28:19.001Z</time>
</trkpt>
<trkpt lat="42.7973970" lon="-2.5594600">
<ele>821.954163</ele>
<time>2012-03-23T17:28:24.004Z</time>
</trkpt>
<trkpt lat="42.7974970" lon="-2.5596260">
<ele>823.569580</ele>
<time>2012-03-23T17:28:35.996Z</time>
</trkpt>
<trkpt lat="42.7975940" lon="-2.5597830">
<ele>826.465210</ele>
<time>2012-03-23T17:28:50.002Z</time>
</trkpt>
<trkpt lat="42.7977060" lon="-2.5600040">
<ele>829.421753</ele>
<time>2012-03-23T17:29:05.001Z</time>
</trkpt>
<trkpt lat="42.7978030" lon="-2.5601720">
<ele>833.323181</ele>
<time>2012-03-23T17:29:18.004Z</time>
</trkpt>
<trkpt lat="42.7978940" lon="-2.5602760">
<ele>836.645508</ele>
<time>2012-03-23T17:29:29.996Z</time>
</trkpt>
<trkpt lat="42.7979460" lon="-2.5603630">
<ele>838.321899</ele>
<time>2012-03-23T17:29:37.997Z</time>
</trkpt>
<trkpt lat="42.7980320" lon="-2.5604950">
<ele>839.937317</ele>
<time>2012-03-23T17:29:51.000Z</time>
</trkpt>
<trkpt lat="42.7981520" lon="-2.5606850">
<ele>842.375732</ele>
<time>2012-03-23T17:30:08.004Z</time>
</trkpt>
<trkpt lat="42.7982810" lon="-2.5609330">
<ele>847.557373</ele>
<time>2012-03-23T17:30:26.001Z</time>
</trkpt>
<trkpt lat="42.7983220" lon="-2.5610230">
<ele>850.270081</ele>
<time>2012-03-23T17:30:31.997Z</time>
</trkpt>
<trkpt lat="42.7983690" lon="-2.5613520">
<ele>854.415344</ele>
<time>2012-03-23T17:30:50.996Z</time>
</trkpt>
<trkpt lat="42.7983660" lon="-2.5616360">
<ele>855.878418</ele>
<time>2012-03-23T17:31:06.997Z</time>
</trkpt>
<trkpt lat="42.7984240" lon="-2.5618540">
<ele>860.084656</ele>
<time>2012-03-23T17:31:18.998Z</time>
</trkpt>
<trkpt lat="42.7984590" lon="-2.5621270">
<ele>863.498413</ele>
<time>2012-03-23T17:31:33.997Z</time>
</trkpt>
<trkpt lat="42.7984710" lon="-2.5622810">
<ele>863.742249</ele>
<time>2012-03-23T17:31:44.003Z</time>
</trkpt>
<trkpt lat="42.7984950" lon="-2.5624920">
<ele>864.321350</ele>
<time>2012-03-23T17:31:59.002Z</time>
</trkpt>
<trkpt lat="42.7985570" lon="-2.5625670">
<ele>867.765625</ele>
<time>2012-03-23T17:32:08.998Z</time>
</trkpt>
<trkpt lat="42.7986510" lon="-2.5626730">
<ele>871.758484</ele>
<time>2012-03-23T17:32:20.999Z</time>
</trkpt>
<trkpt lat="42.7987170" lon="-2.5627180">
<ele>873.953064</ele>
<time>2012-03-23T17:32:31.004Z</time>
</trkpt>
<trkpt lat="42.7987820" lon="-2.5626940">
<ele>875.324646</ele>
<time>2012-03-23T17:32:38.996Z</time>
</trkpt>
<trkpt lat="42.7989550" lon="-2.5626320">
<ele>878.677429</ele>
<time>2012-03-23T17:32:54.997Z</time>
</trkpt>
<trkpt lat="42.7991410" lon="-2.5625700">
<ele>881.085327</ele>
<time>2012-03-23T17:33:09.996Z</time>
</trkpt>
<trkpt lat="42.7992160" lon="-2.5625560">
<ele>880.963440</ele>
<time>2012-03-23T17:33:55.002Z</time>
</trkpt>
<trkpt lat="42.7992670" lon="-2.5626080">
<ele>880.140503</ele>
<time>2012-03-23T17:33:58.000Z</time>
</trkpt>
<trkpt lat="42.7994270" lon="-2.5626890">
<ele>878.250671</ele>
<time>2012-03-23T17:34:07.997Z</time>
</trkpt>
<trkpt lat="42.7996310" lon="-2.5627530">
<ele>876.086670</ele>
<time>2012-03-23T17:34:21.000Z</time>
</trkpt>
<trkpt lat="42.7997660" lon="-2.5628520">
<ele>873.099609</ele>
<time>2012-03-23T17:34:30.996Z</time>
</trkpt>
<trkpt lat="42.7999270" lon="-2.5629560">
<ele>870.021118</ele>
<time>2012-03-23T17:34:42.004Z</time>
</trkpt>
<trkpt lat="42.8000310" lon="-2.5629450">
<ele>867.918030</ele>
<time>2012-03-23T17:34:49.002Z</time>
</trkpt>
<trkpt lat="42.8001610" lon="-2.5630850">
<ele>860.877075</ele>
<time>2012-03-23T17:35:04.001Z</time>
</trkpt>
<trkpt lat="42.8003750" lon="-2.5631430">
<ele>852.037903</ele>
<time>2012-03-23T17:35:21.998Z</time>
</trkpt>
<trkpt lat="42.8005990" lon="-2.5631820">
<ele>843.930237</ele>
<time>2012-03-23T17:35:43.996Z</time>
</trkpt>
<trkpt lat="42.8007590" lon="-2.5632950">
<ele>840.150696</ele>
<time>2012-03-23T17:35:55.003Z</time>
</trkpt>
<trkpt lat="42.8009370" lon="-2.5634230">
<ele>837.742798</ele>
<time>2012-03-23T17:36:06.002Z</time>
</trkpt>
<trkpt lat="42.8010760" lon="-2.5634110">
<ele>834.146118</ele>
<time>2012-03-23T17:36:18.003Z</time>
</trkpt>
<trkpt lat="42.8011550" lon="-2.5633710">
<ele>830.427612</ele>
<time>2012-03-23T17:36:23.999Z</time>
</trkpt>
<trkpt lat="42.8013480" lon="-2.5634400">
<ele>826.830933</ele>
<time>2012-03-23T17:36:34.998Z</time>
</trkpt>
<trkpt lat="42.8015310" lon="-2.5635160">
<ele>823.935364</ele>
<time>2012-03-23T17:36:45.003Z</time>
</trkpt>
<trkpt lat="42.8015880" lon="-2.5635550">
<ele>824.423035</ele>
<time>2012-03-23T17:36:50.999Z</time>
</trkpt>
<trkpt lat="42.8017400" lon="-2.5636340">
<ele>823.173340</ele>
<time>2012-03-23T17:37:03.000Z</time>
</trkpt>
<trkpt lat="42.8019340" lon="-2.5637460">
<ele>819.637695</ele>
<time>2012-03-23T17:37:15.001Z</time>
</trkpt>
<trkpt lat="42.8020250" lon="-2.5637340">
<ele>814.943726</ele>
<time>2012-03-23T17:37:30.000Z</time>
</trkpt>
<trkpt lat="42.8020920" lon="-2.5637380">
<ele>812.474915</ele>
<time>2012-03-23T17:37:36.998Z</time>
</trkpt>
<trkpt lat="42.8021920" lon="-2.5637350">
<ele>809.183044</ele>
<time>2012-03-23T17:38:05.001Z</time>
</trkpt>
<trkpt lat="42.8022360" lon="-2.5636580">
<ele>804.641479</ele>
<time>2012-03-23T17:38:13.001Z</time>
</trkpt>
<trkpt lat="42.8023590" lon="-2.5636530">
<ele>801.044922</ele>
<time>2012-03-23T17:38:22.998Z</time>
</trkpt>
<trkpt lat="42.8025320" lon="-2.5636690">
<ele>795.954712</ele>
<time>2012-03-23T17:38:33.003Z</time>
</trkpt>
<trkpt lat="42.8026730" lon="-2.5637040">
<ele>792.236145</ele>
<time>2012-03-23T17:38:42.999Z</time>
</trkpt>
<trkpt lat="42.8027560" lon="-2.5637560">
<ele>790.559753</ele>
<time>2012-03-23T17:38:52.996Z</time>
</trkpt>
<trkpt lat="42.8028480" lon="-2.5638550">
<ele>788.974792</ele>
<time>2012-03-23T17:39:00.996Z</time>
</trkpt>
<trkpt lat="42.8029280" lon="-2.5639590">
<ele>786.932678</ele>
<time>2012-03-23T17:39:08.004Z</time>
</trkpt>
<trkpt lat="42.8030160" lon="-2.5640720">
<ele>786.048706</ele>
<time>2012-03-23T17:39:16.004Z</time>
</trkpt>
<trkpt lat="42.8031290" lon="-2.5641950">
<ele>783.457886</ele>
<time>2012-03-23T17:39:30.001Z</time>
</trkpt>
<trkpt lat="42.8032230" lon="-2.5642110">
<ele>780.501343</ele>
<time>2012-03-23T17:39:43.004Z</time>
</trkpt>
<trkpt lat="42.8033290" lon="-2.5643020">
<ele>776.599915</ele>
<time>2012-03-23T17:39:58.003Z</time>
</trkpt>
<trkpt lat="42.8034110" lon="-2.5643280">
<ele>774.009094</ele>
<time>2012-03-23T17:40:05.002Z</time>
</trkpt>
<trkpt lat="42.8034770" lon="-2.5643000">
<ele>771.174500</ele>
<time>2012-03-23T17:40:10.998Z</time>
</trkpt>
<trkpt lat="42.8035620" lon="-2.5642750">
<ele>767.943604</ele>
<time>2012-03-23T17:40:17.996Z</time>
</trkpt>
<trkpt lat="42.8036230" lon="-2.5642920">
<ele>766.236694</ele>
<time>2012-03-23T17:40:22.999Z</time>
</trkpt>
<trkpt lat="42.8036910" lon="-2.5641600">
<ele>764.560303</ele>
<time>2012-03-23T17:40:29.997Z</time>
</trkpt>
<trkpt lat="42.8037440" lon="-2.5639430">
<ele>760.476013</ele>
<time>2012-03-23T17:40:40.002Z</time>
</trkpt>
<trkpt lat="42.8037050" lon="-2.5637220">
<ele>758.738647</ele>
<time>2012-03-23T17:40:51.001Z</time>
</trkpt>
<trkpt lat="42.8036730" lon="-2.5635530">
<ele>756.818420</ele>
<time>2012-03-23T17:41:06.000Z</time>
</trkpt>
<trkpt lat="42.8036370" lon="-2.5632860">
<ele>753.800903</ele>
<time>2012-03-23T17:41:16.999Z</time>
</trkpt>
<trkpt lat="42.8034900" lon="-2.5630630">
<ele>753.282715</ele>
<time>2012-03-23T17:41:29.000Z</time>
</trkpt>
<trkpt lat="42.8034310" lon="-2.5629810">
<ele>752.368286</ele>
<time>2012-03-23T17:41:33.000Z</time>
</trkpt>
<trkpt lat="42.8032600" lon="-2.5627480">
<ele>749.960388</ele>
<time>2012-03-23T17:41:46.997Z</time>
</trkpt>
<trkpt lat="42.8031870" lon="-2.5626370">
<ele>747.979187</ele>
<time>2012-03-23T17:41:53.002Z</time>
</trkpt>
<trkpt lat="42.8031410" lon="-2.5624590">
<ele>743.925354</ele>
<time>2012-03-23T17:42:01.996Z</time>
</trkpt>
<trkpt lat="42.8031210" lon="-2.5623270">
<ele>741.517456</ele>
<time>2012-03-23T17:42:09.003Z</time>
</trkpt>
<trkpt lat="42.8030660" lon="-2.5621160">
<ele>737.402649</ele>
<time>2012-03-23T17:42:21.004Z</time>
</trkpt>
<trkpt lat="42.8029950" lon="-2.5618730">
<ele>732.129578</ele>
<time>2012-03-23T17:42:32.996Z</time>
</trkpt>
<trkpt lat="42.8028940" lon="-2.5616210">
<ele>728.837769</ele>
<time>2012-03-23T17:42:44.997Z</time>
</trkpt>
<trkpt lat="42.8028840" lon="-2.5615240">
<ele>726.582275</ele>
<time>2012-03-23T17:42:48.004Z</time>
</trkpt>
<trkpt lat="42.8028610" lon="-2.5612140">
<ele>721.888306</ele>
<time>2012-03-23T17:43:07.997Z</time>
</trkpt>
<trkpt lat="42.8030000" lon="-2.5612470">
<ele>719.663330</ele>
<time>2012-03-23T17:43:17.000Z</time>
</trkpt>
<trkpt lat="42.8031560" lon="-2.5612610">
<ele>716.280029</ele>
<time>2012-03-23T17:43:23.998Z</time>
</trkpt>
<trkpt lat="42.8033870" lon="-2.5611820">
<ele>711.860413</ele>
<time>2012-03-23T17:43:35.999Z</time>
</trkpt>
<trkpt lat="42.8035580" lon="-2.5611220">
<ele>707.928528</ele>
<time>2012-03-23T17:43:46.004Z</time>
</trkpt>
<trkpt lat="42.8038040" lon="-2.5610760">
<ele>702.045837</ele>
<time>2012-03-23T17:43:58.999Z</time>
</trkpt>
<trkpt lat="42.8039640" lon="-2.5610120">
<ele>701.862915</ele>
<time>2012-03-23T17:44:08.002Z</time>
</trkpt>
<trkpt lat="42.8041560" lon="-2.5610030">
<ele>700.918091</ele>
<time>2012-03-23T17:44:19.000Z</time>
</trkpt>
<trkpt lat="42.8045000" lon="-2.5608990">
<ele>701.832520</ele>
<time>2012-03-23T17:44:43.002Z</time>
</trkpt>
<trkpt lat="42.8047770" lon="-2.5608750">
<ele>699.058777</ele>
<time>2012-03-23T17:44:59.004Z</time>
</trkpt>
<trkpt lat="42.8050230" lon="-2.5606560">
<ele>696.711853</ele>
<time>2012-03-23T17:45:17.001Z</time>
</trkpt>
<trkpt lat="42.8050750" lon="-2.5604360">
<ele>699.363586</ele>
<time>2012-03-23T17:45:26.004Z</time>
</trkpt>
<trkpt lat="42.8051420" lon="-2.5601990">
<ele>702.228699</ele>
<time>2012-03-23T17:45:34.998Z</time>
</trkpt>
<trkpt lat="42.8051980" lon="-2.5599760">
<ele>706.495911</ele>
<time>2012-03-23T17:45:45.003Z</time>
</trkpt>
<trkpt lat="42.8052460" lon="-2.5597560">
<ele>709.178162</ele>
<time>2012-03-23T17:45:53.997Z</time>
</trkpt>
<trkpt lat="42.8053760" lon="-2.5594900">
<ele>709.513428</ele>
<time>2012-03-23T17:46:13.999Z</time>
</trkpt>
<trkpt lat="42.8054900" lon="-2.5593430">
<ele>707.379883</ele>
<time>2012-03-23T17:46:24.997Z</time>
</trkpt>
<trkpt lat="42.8056160" lon="-2.5591030">
<ele>706.953064</ele>
<time>2012-03-23T17:46:36.998Z</time>
</trkpt>
<trkpt lat="42.8057820" lon="-2.5589520">
<ele>702.442139</ele>
<time>2012-03-23T17:46:48.999Z</time>
</trkpt>
<trkpt lat="42.8060050" lon="-2.5588510">
<ele>695.004944</ele>
<time>2012-03-23T17:47:02.996Z</time>
</trkpt>
<trkpt lat="42.8061310" lon="-2.5587630">
<ele>691.194946</ele>
<time>2012-03-23T17:47:11.999Z</time>
</trkpt>
<trkpt lat="42.8062990" lon="-2.5585740">
<ele>685.952393</ele>
<time>2012-03-23T17:47:25.002Z</time>
</trkpt>
<trkpt lat="42.8064870" lon="-2.5584120">
<ele>681.532776</ele>
<time>2012-03-23T17:47:37.003Z</time>
</trkpt>
<trkpt lat="42.8065370" lon="-2.5583490">
<ele>681.136536</ele>
<time>2012-03-23T17:47:41.004Z</time>
</trkpt>
<trkpt lat="42.8065460" lon="-2.5581510">
<ele>679.856384</ele>
<time>2012-03-23T17:47:49.004Z</time>
</trkpt>
<trkpt lat="42.8065600" lon="-2.5579810">
<ele>679.917358</ele>
<time>2012-03-23T17:47:56.003Z</time>
</trkpt>
<trkpt lat="42.8066640" lon="-2.5577680">
<ele>677.387512</ele>
<time>2012-03-23T17:48:04.003Z</time>
</trkpt>
<trkpt lat="42.8068190" lon="-2.5576990">
<ele>674.979614</ele>
<time>2012-03-23T17:48:12.004Z</time>
</trkpt>
<trkpt lat="42.8070810" lon="-2.5574520">
<ele>670.956238</ele>
<time>2012-03-23T17:48:30.001Z</time>
</trkpt>
<trkpt lat="42.8072260" lon="-2.5570870">
<ele>669.036011</ele>
<time>2012-03-23T17:48:46.996Z</time>
</trkpt>
<trkpt lat="42.8075310" lon="-2.5569660">
<ele>667.999695</ele>
<time>2012-03-23T17:49:02.997Z</time>
</trkpt>
<trkpt lat="42.8078680" lon="-2.5569320">
<ele>666.170898</ele>
<time>2012-03-23T17:49:14.998Z</time>
</trkpt>
<trkpt lat="42.8081470" lon="-2.5569030">
<ele>666.170898</ele>
<time>2012-03-23T17:49:30.999Z</time>
</trkpt>
<trkpt lat="42.8084340" lon="-2.5568790">
<ele>662.421875</ele>
<time>2012-03-23T17:49:48.003Z</time>
</trkpt>
<trkpt lat="42.8086350" lon="-2.5568940">
<ele>659.251892</ele>
<time>2012-03-23T17:50:00.004Z</time>
</trkpt>
<trkpt lat="42.8086760" lon="-2.5570190">
<ele>657.941284</ele>
<time>2012-03-23T17:50:06.000Z</time>
</trkpt>
<trkpt lat="42.8086410" lon="-2.5575790">
<ele>655.076172</ele>
<time>2012-03-23T17:50:27.997Z</time>
</trkpt>
<trkpt lat="42.8086050" lon="-2.5580980">
<ele>653.856934</ele>
<time>2012-03-23T17:50:49.001Z</time>
</trkpt>
<trkpt lat="42.8085700" lon="-2.5586640">
<ele>652.119629</ele>
<time>2012-03-23T17:51:12.001Z</time>
</trkpt>
<trkpt lat="42.8085220" lon="-2.5592420">
<ele>652.089111</ele>
<time>2012-03-23T17:51:36.003Z</time>
</trkpt>
<trkpt lat="42.8084680" lon="-2.5598130">
<ele>651.967224</ele>
<time>2012-03-23T17:51:59.996Z</time>
</trkpt>
<trkpt lat="42.8084120" lon="-2.5603680">
<ele>652.119629</ele>
<time>2012-03-23T17:52:23.998Z</time>
</trkpt>
<trkpt lat="42.8083490" lon="-2.5607380">
<ele>651.936707</ele>
<time>2012-03-23T17:52:41.002Z</time>
</trkpt>
<trkpt lat="42.8081780" lon="-2.5611160">
<ele>654.009338</ele>
<time>2012-03-23T17:53:01.997Z</time>
</trkpt>
<trkpt lat="42.8080170" lon="-2.5613420">
<ele>656.874512</ele>
<time>2012-03-23T17:53:16.996Z</time>
</trkpt>
<trkpt lat="42.8079110" lon="-2.5614600">
<ele>658.916626</ele>
<time>2012-03-23T17:53:25.999Z</time>
</trkpt>
<trkpt lat="42.8077090" lon="-2.5616510">
<ele>661.659851</ele>
<time>2012-03-23T17:53:40.998Z</time>
</trkpt>
<trkpt lat="42.8075310" lon="-2.5618070">
<ele>663.762939</ele>
<time>2012-03-23T17:53:54.001Z</time>
</trkpt>
<trkpt lat="42.8073660" lon="-2.5619610">
<ele>666.018494</ele>
<time>2012-03-23T17:54:07.004Z</time>
</trkpt>
<trkpt lat="42.8072350" lon="-2.5621690">
<ele>667.481506</ele>
<time>2012-03-23T17:54:19.999Z</time>
</trkpt>
<trkpt lat="42.8072090" lon="-2.5622540">
<ele>667.877747</ele>
<time>2012-03-23T17:54:23.999Z</time>
</trkpt>
<trkpt lat="42.8072420" lon="-2.5626890">
<ele>671.382935</ele>
<time>2012-03-23T17:54:44.001Z</time>
</trkpt>
<trkpt lat="42.8072920" lon="-2.5629590">
<ele>671.809692</ele>
<time>2012-03-23T17:54:57.997Z</time>
</trkpt>
<trkpt lat="42.8073160" lon="-2.5632050">
<ele>670.438110</ele>
<time>2012-03-23T17:55:11.001Z</time>
</trkpt>
<trkpt lat="42.8073080" lon="-2.5633840">
<ele>669.858948</ele>
<time>2012-03-23T17:55:20.004Z</time>
</trkpt>
<trkpt lat="42.8073000" lon="-2.5635440">
<ele>668.883606</ele>
<time>2012-03-23T17:55:24.004Z</time>
</trkpt>
<trkpt lat="42.8072830" lon="-2.5638310">
<ele>669.127441</ele>
<time>2012-03-23T17:55:34.000Z</time>
</trkpt>
<trkpt lat="42.8072580" lon="-2.5642100">
<ele>671.474426</ele>
<time>2012-03-23T17:55:51.004Z</time>
</trkpt>
<trkpt lat="42.8072270" lon="-2.5646970">
<ele>671.657288</ele>
<time>2012-03-23T17:56:11.999Z</time>
</trkpt>
<trkpt lat="42.8071990" lon="-2.5652490">
<ele>671.992554</ele>
<time>2012-03-23T17:56:36.001Z</time>
</trkpt>
<trkpt lat="42.8071890" lon="-2.5654820">
<ele>672.846008</ele>
<time>2012-03-23T17:56:45.997Z</time>
</trkpt>
<trkpt lat="42.8071740" lon="-2.5658670">
<ele>673.333740</ele>
<time>2012-03-23T17:57:01.999Z</time>
</trkpt>
<trkpt lat="42.8071590" lon="-2.5663190">
<ele>674.491882</ele>
<time>2012-03-23T17:57:20.998Z</time>
</trkpt>
<trkpt lat="42.8071440" lon="-2.5667770">
<ele>674.644287</ele>
<time>2012-03-23T17:57:39.997Z</time>
</trkpt>
<trkpt lat="42.8071190" lon="-2.5672380">
<ele>673.943298</ele>
<time>2012-03-23T17:57:59.999Z</time>
</trkpt>
<trkpt lat="42.8071080" lon="-2.5676110">
<ele>672.023071</ele>
<time>2012-03-23T17:58:16.000Z</time>
</trkpt>
<trkpt lat="42.8070890" lon="-2.5679900">
<ele>669.950378</ele>
<time>2012-03-23T17:58:26.999Z</time>
</trkpt>
<trkpt lat="42.8070700" lon="-2.5683120">
<ele>668.792175</ele>
<time>2012-03-23T17:58:36.002Z</time>
</trkpt>
<trkpt lat="42.8070610" lon="-2.5686330">
<ele>666.841431</ele>
<time>2012-03-23T17:58:49.999Z</time>
</trkpt>
<trkpt lat="42.8070360" lon="-2.5691520">
<ele>664.311584</ele>
<time>2012-03-23T17:59:11.996Z</time>
</trkpt>
<trkpt lat="42.8070260" lon="-2.5696300">
<ele>661.995117</ele>
<time>2012-03-23T17:59:23.997Z</time>
</trkpt>
<trkpt lat="42.8070260" lon="-2.5699400">
<ele>661.019775</ele>
<time>2012-03-23T17:59:37.000Z</time>
</trkpt>
<trkpt lat="42.8070340" lon="-2.5703180">
<ele>659.861511</ele>
<time>2012-03-23T17:59:54.004Z</time>
</trkpt>
<trkpt lat="42.8072100" lon="-2.5705070">
<ele>659.343323</ele>
<time>2012-03-23T18:00:09.996Z</time>
</trkpt>
<trkpt lat="42.8075220" lon="-2.5705330">
<ele>658.916626</ele>
<time>2012-03-23T18:00:29.998Z</time>
</trkpt>
<trkpt lat="42.8075200" lon="-2.5706040">
<ele>658.520386</ele>
<time>2012-03-23T18:00:33.998Z</time>
</trkpt>
<trkpt lat="42.8073260" lon="-2.5709990">
<ele>656.295349</ele>
<time>2012-03-23T18:00:54.000Z</time>
</trkpt>
<trkpt lat="42.8070460" lon="-2.5714640">
<ele>654.466553</ele>
<time>2012-03-23T18:01:19.004Z</time>
</trkpt>
<trkpt lat="42.8068150" lon="-2.5717760">
<ele>652.942566</ele>
<time>2012-03-23T18:01:38.004Z</time>
</trkpt>
<trkpt lat="42.8065720" lon="-2.5719480">
<ele>652.668274</ele>
<time>2012-03-23T18:01:54.998Z</time>
</trkpt>
<trkpt lat="42.8063270" lon="-2.5721740">
<ele>652.332947</ele>
<time>2012-03-23T18:02:12.002Z</time>
</trkpt>
<trkpt lat="42.8060560" lon="-2.5723620">
<ele>650.260315</ele>
<time>2012-03-23T18:02:28.997Z</time>
</trkpt>
<trkpt lat="42.8058860" lon="-2.5725140">
<ele>648.797302</ele>
<time>2012-03-23T18:02:40.004Z</time>
</trkpt>
<trkpt lat="42.8057310" lon="-2.5726570">
<ele>648.157227</ele>
<time>2012-03-23T18:02:51.003Z</time>
</trkpt>
<trkpt lat="42.8056300" lon="-2.5727380">
<ele>647.913330</ele>
<time>2012-03-23T18:02:58.001Z</time>
</trkpt>
<trkpt lat="42.8054790" lon="-2.5728810">
<ele>647.303772</ele>
<time>2012-03-23T18:03:09.000Z</time>
</trkpt>
<trkpt lat="42.8053060" lon="-2.5730250">
<ele>647.212280</ele>
<time>2012-03-23T18:03:21.001Z</time>
</trkpt>
<trkpt lat="42.8050450" lon="-2.5731870">
<ele>646.450317</ele>
<time>2012-03-23T18:03:37.002Z</time>
</trkpt>
<trkpt lat="42.8046090" lon="-2.5733470">
<ele>644.072937</ele>
<time>2012-03-23T18:04:01.998Z</time>
</trkpt>
<trkpt lat="42.8042570" lon="-2.5734830">
<ele>643.036560</ele>
<time>2012-03-23T18:04:21.999Z</time>
</trkpt>
<trkpt lat="42.8039530" lon="-2.5735720">
<ele>644.621460</ele>
<time>2012-03-23T18:04:40.999Z</time>
</trkpt>
<trkpt lat="42.8036560" lon="-2.5737230">
<ele>644.194824</ele>
<time>2012-03-23T18:04:58.996Z</time>
</trkpt>
<trkpt lat="42.8034270" lon="-2.5737980">
<ele>643.829041</ele>
<time>2012-03-23T18:05:13.001Z</time>
</trkpt>
<trkpt lat="42.8030890" lon="-2.5737420">
<ele>643.067078</ele>
<time>2012-03-23T18:05:32.001Z</time>
</trkpt>
<trkpt lat="42.8027570" lon="-2.5736720">
<ele>643.249878</ele>
<time>2012-03-23T18:05:51.000Z</time>
</trkpt>
<trkpt lat="42.8024980" lon="-2.5736060">
<ele>643.432800</ele>
<time>2012-03-23T18:06:07.001Z</time>
</trkpt>
<trkpt lat="42.8021940" lon="-2.5734780">
<ele>644.530090</ele>
<time>2012-03-23T18:06:27.003Z</time>
</trkpt>
<trkpt lat="42.8019670" lon="-2.5733240">
<ele>645.261597</ele>
<time>2012-03-23T18:06:42.002Z</time>
</trkpt>
<trkpt lat="42.8017420" lon="-2.5731830">
<ele>645.657837</ele>
<time>2012-03-23T18:06:57.001Z</time>
</trkpt>
<trkpt lat="42.8014630" lon="-2.5731510">
<ele>644.926270</ele>
<time>2012-03-23T18:07:13.996Z</time>
</trkpt>
<trkpt lat="42.8012570" lon="-2.5731640">
<ele>644.834900</ele>
<time>2012-03-23T18:07:28.001Z</time>
</trkpt>
<trkpt lat="42.8010440" lon="-2.5732300">
<ele>644.164307</ele>
<time>2012-03-23T18:07:44.003Z</time>
</trkpt>
<trkpt lat="42.8008080" lon="-2.5731960">
<ele>645.078674</ele>
<time>2012-03-23T18:08:02.000Z</time>
</trkpt>
<trkpt lat="42.8006000" lon="-2.5731210">
<ele>646.633179</ele>
<time>2012-03-23T18:08:15.996Z</time>
</trkpt>
<trkpt lat="42.8003900" lon="-2.5729960">
<ele>646.602661</ele>
<time>2012-03-23T18:08:31.004Z</time>
</trkpt>
<trkpt lat="42.8001330" lon="-2.5728790">
<ele>646.694153</ele>
<time>2012-03-23T18:08:50.004Z</time>
</trkpt>
<trkpt lat="42.7998190" lon="-2.5727370">
<ele>646.541748</ele>
<time>2012-03-23T18:09:12.001Z</time>
</trkpt>
<trkpt lat="42.7996740" lon="-2.5726330">
<ele>646.846558</ele>
<time>2012-03-23T18:09:21.997Z</time>
</trkpt>
<trkpt lat="42.7994810" lon="-2.5725030">
<ele>649.010681</ele>
<time>2012-03-23T18:09:35.001Z</time>
</trkpt>
<trkpt lat="42.7992370" lon="-2.5723770">
<ele>649.772644</ele>
<time>2012-03-23T18:09:51.002Z</time>
</trkpt>
<trkpt lat="42.7990830" lon="-2.5722750">
<ele>650.046936</ele>
<time>2012-03-23T18:10:03.003Z</time>
</trkpt>
<trkpt lat="42.7987820" lon="-2.5720900">
<ele>650.961365</ele>
<time>2012-03-23T18:10:21.000Z</time>
</trkpt>
<trkpt lat="42.7986000" lon="-2.5719400">
<ele>651.662415</ele>
<time>2012-03-23T18:10:34.003Z</time>
</trkpt>
<trkpt lat="42.7984210" lon="-2.5718090">
<ele>652.607300</ele>
<time>2012-03-23T18:10:46.004Z</time>
</trkpt>
<trkpt lat="42.7981880" lon="-2.5717200">
<ele>654.436096</ele>
<time>2012-03-23T18:11:00.001Z</time>
</trkpt>
<trkpt lat="42.7979610" lon="-2.5715900">
<ele>655.076172</ele>
<time>2012-03-23T18:11:16.002Z</time>
</trkpt>
<trkpt lat="42.7978100" lon="-2.5713680">
<ele>655.380920</ele>
<time>2012-03-23T18:11:32.004Z</time>
</trkpt>
<trkpt lat="42.7976460" lon="-2.5711510">
<ele>657.484131</ele>
<time>2012-03-23T18:11:46.000Z</time>
</trkpt>
<trkpt lat="42.7974680" lon="-2.5710510">
<ele>659.648132</ele>
<time>2012-03-23T18:11:59.997Z</time>
</trkpt>
<trkpt lat="42.7972540" lon="-2.5709280">
<ele>661.751282</ele>
<time>2012-03-23T18:12:14.003Z</time>
</trkpt>
<trkpt lat="42.7970160" lon="-2.5708050">
<ele>663.092407</ele>
<time>2012-03-23T18:12:30.004Z</time>
</trkpt>
<trkpt lat="42.7967490" lon="-2.5708070">
<ele>664.677368</ele>
<time>2012-03-23T18:12:45.003Z</time>
</trkpt>
<trkpt lat="42.7965020" lon="-2.5708630">
<ele>666.810974</ele>
<time>2012-03-23T18:13:00.002Z</time>
</trkpt>
<trkpt lat="42.7962640" lon="-2.5709540">
<ele>667.969177</ele>
<time>2012-03-23T18:13:12.996Z</time>
</trkpt>
<trkpt lat="42.7960630" lon="-2.5709540">
<ele>670.956238</ele>
<time>2012-03-23T18:13:27.002Z</time>
</trkpt>
<trkpt lat="42.7959050" lon="-2.5709560">
<ele>671.840149</ele>
<time>2012-03-23T18:13:39.003Z</time>
</trkpt>
<trkpt lat="42.7957210" lon="-2.5709800">
<ele>672.236389</ele>
<time>2012-03-23T18:13:53.000Z</time>
</trkpt>
<trkpt lat="42.7954970" lon="-2.5709520">
<ele>674.126160</ele>
<time>2012-03-23T18:14:09.001Z</time>
</trkpt>
<trkpt lat="42.7952880" lon="-2.5708890">
<ele>677.814270</ele>
<time>2012-03-23T18:14:25.002Z</time>
</trkpt>
<trkpt lat="42.7950740" lon="-2.5708700">
<ele>678.820129</ele>
<time>2012-03-23T18:14:38.999Z</time>
</trkpt>
<trkpt lat="42.7948440" lon="-2.5708090">
<ele>680.679321</ele>
<time>2012-03-23T18:14:52.996Z</time>
</trkpt>
<trkpt lat="42.7945830" lon="-2.5707660">
<ele>682.172913</ele>
<time>2012-03-23T18:15:12.004Z</time>
</trkpt>
<trkpt lat="42.7944130" lon="-2.5707250">
<ele>686.348633</ele>
<time>2012-03-23T18:15:27.996Z</time>
</trkpt>
<trkpt lat="42.7942830" lon="-2.5707050">
<ele>687.689758</ele>
<time>2012-03-23T18:15:38.002Z</time>
</trkpt>
<trkpt lat="42.7940450" lon="-2.5706450">
<ele>690.219604</ele>
<time>2012-03-23T18:15:53.001Z</time>
</trkpt>
<trkpt lat="42.7937540" lon="-2.5706020">
<ele>690.829224</ele>
<time>2012-03-23T18:16:10.004Z</time>
</trkpt>
<trkpt lat="42.7935000" lon="-2.5705990">
<ele>690.372009</ele>
<time>2012-03-23T18:16:25.997Z</time>
</trkpt>
<trkpt lat="42.7932170" lon="-2.5706100">
<ele>692.597046</ele>
<time>2012-03-23T18:16:43.000Z</time>
</trkpt>
<trkpt lat="42.7931030" lon="-2.5706090">
<ele>693.145691</ele>
<time>2012-03-23T18:16:49.999Z</time>
</trkpt>
<trkpt lat="42.7928200" lon="-2.5705050">
<ele>695.553589</ele>
<time>2012-03-23T18:17:07.996Z</time>
</trkpt>
<trkpt lat="42.7925760" lon="-2.5704130">
<ele>698.662537</ele>
<time>2012-03-23T18:17:23.997Z</time>
</trkpt>
<trkpt lat="42.7923860" lon="-2.5703740">
<ele>698.266296</ele>
<time>2012-03-23T18:17:35.998Z</time>
</trkpt>
<trkpt lat="42.7922090" lon="-2.5702910">
<ele>699.637878</ele>
<time>2012-03-23T18:17:46.997Z</time>
</trkpt>
<trkpt lat="42.7921050" lon="-2.5702580">
<ele>699.698914</ele>
<time>2012-03-23T18:17:51.999Z</time>
</trkpt>
<trkpt lat="42.7919150" lon="-2.5702290">
<ele>699.394104</ele>
<time>2012-03-23T18:18:05.996Z</time>
</trkpt>
<trkpt lat="42.7916820" lon="-2.5703250">
<ele>699.973206</ele>
<time>2012-03-23T18:18:20.002Z</time>
</trkpt>
<trkpt lat="42.7914780" lon="-2.5704100">
<ele>703.112671</ele>
<time>2012-03-23T18:18:33.998Z</time>
</trkpt>
<trkpt lat="42.7912460" lon="-2.5705770">
<ele>704.453735</ele>
<time>2012-03-23T18:18:48.997Z</time>
</trkpt>
<trkpt lat="42.7909930" lon="-2.5707120">
<ele>703.051697</ele>
<time>2012-03-23T18:19:06.001Z</time>
</trkpt>
<trkpt lat="42.7908520" lon="-2.5706830">
<ele>702.350647</ele>
<time>2012-03-23T18:19:14.002Z</time>
</trkpt>
<trkpt lat="42.7906180" lon="-2.5705080">
<ele>704.179443</ele>
<time>2012-03-23T18:19:26.996Z</time>
</trkpt>
<trkpt lat="42.7904310" lon="-2.5704480">
<ele>703.935608</ele>
<time>2012-03-23T18:19:39.999Z</time>
</trkpt>
<trkpt lat="42.7903570" lon="-2.5704890">
<ele>701.497192</ele>
<time>2012-03-23T18:19:46.004Z</time>
</trkpt>
<trkpt lat="42.7903160" lon="-2.5706120">
<ele>700.217041</ele>
<time>2012-03-23T18:19:58.999Z</time>
</trkpt>
<trkpt lat="42.7902520" lon="-2.5706420">
<ele>701.161865</ele>
<time>2012-03-23T18:20:12.002Z</time>
</trkpt>
<trkpt lat="42.7900750" lon="-2.5706000">
<ele>704.027039</ele>
<time>2012-03-23T18:20:23.001Z</time>
</trkpt>
<trkpt lat="42.7898620" lon="-2.5706850">
<ele>707.105469</ele>
<time>2012-03-23T18:20:36.004Z</time>
</trkpt>
<trkpt lat="42.7897950" lon="-2.5707780">
<ele>707.166504</ele>
<time>2012-03-23T18:20:40.998Z</time>
</trkpt>
<trkpt lat="42.7896570" lon="-2.5709370">
<ele>707.562683</ele>
<time>2012-03-23T18:20:52.999Z</time>
</trkpt>
<trkpt lat="42.7895700" lon="-2.5709950">
<ele>709.909729</ele>
<time>2012-03-23T18:21:03.004Z</time>
</trkpt>
<trkpt lat="42.7895030" lon="-2.5711110">
<ele>710.702148</ele>
<time>2012-03-23T18:21:13.000Z</time>
</trkpt>
<trkpt lat="42.7894290" lon="-2.5712170">
<ele>711.464172</ele>
<time>2012-03-23T18:21:22.003Z</time>
</trkpt>
<trkpt lat="42.7892680" lon="-2.5713290">
<ele>712.683350</ele>
<time>2012-03-23T18:21:33.002Z</time>
</trkpt>
<trkpt lat="42.7890370" lon="-2.5714130">
<ele>716.615295</ele>
<time>2012-03-23T18:21:49.003Z</time>
</trkpt>
<trkpt lat="42.7889040" lon="-2.5715780">
<ele>717.072510</ele>
<time>2012-03-23T18:22:00.002Z</time>
</trkpt>
<trkpt lat="42.7887790" lon="-2.5716840">
<ele>717.316284</ele>
<time>2012-03-23T18:22:12.003Z</time>
</trkpt>
<trkpt lat="42.7886920" lon="-2.5717860">
<ele>718.047852</ele>
<time>2012-03-23T18:22:26.000Z</time>
</trkpt>
<trkpt lat="42.7885600" lon="-2.5718230">
<ele>717.956421</ele>
<time>2012-03-23T18:22:38.001Z</time>
</trkpt>
<trkpt lat="42.7884210" lon="-2.5718420">
<ele>721.095825</ele>
<time>2012-03-23T18:22:46.001Z</time>
</trkpt>
<trkpt lat="42.7882670" lon="-2.5719740">
<ele>721.309204</ele>
<time>2012-03-23T18:22:58.996Z</time>
</trkpt>
<trkpt lat="42.7881360" lon="-2.5719690">
<ele>722.193115</ele>
<time>2012-03-23T18:23:07.999Z</time>
</trkpt>
<trkpt lat="42.7879520" lon="-2.5719710">
<ele>724.326660</ele>
<time>2012-03-23T18:23:20.000Z</time>
</trkpt>
<trkpt lat="42.7878420" lon="-2.5720070">
<ele>724.143860</ele>
<time>2012-03-23T18:23:26.998Z</time>
</trkpt>
<trkpt lat="42.7876420" lon="-2.5720260">
<ele>724.082886</ele>
<time>2012-03-23T18:23:41.997Z</time>
</trkpt>
<trkpt lat="42.7875000" lon="-2.5721900">
<ele>725.210632</ele>
<time>2012-03-23T18:24:31.003Z</time>
</trkpt>
<trkpt lat="42.7873430" lon="-2.5722790">
<ele>726.947998</ele>
<time>2012-03-23T18:24:49.000Z</time>
</trkpt>
<trkpt lat="42.7872850" lon="-2.5724570">
<ele>730.026489</ele>
<time>2012-03-23T18:24:59.999Z</time>
</trkpt>
<trkpt lat="42.7871990" lon="-2.5725240">
<ele>731.062805</ele>
<time>2012-03-23T18:25:06.997Z</time>
</trkpt>
<trkpt lat="42.7871010" lon="-2.5726010">
<ele>732.312500</ele>
<time>2012-03-23T18:25:17.003Z</time>
</trkpt>
<trkpt lat="42.7870770" lon="-2.5726810">
<ele>733.348816</ele>
<time>2012-03-23T18:25:21.003Z</time>
</trkpt>
<trkpt lat="42.7869950" lon="-2.5727280">
<ele>732.861084</ele>
<time>2012-03-23T18:25:29.004Z</time>
</trkpt>
<trkpt lat="42.7869340" lon="-2.5727260">
<ele>731.794312</ele>
<time>2012-03-23T18:25:33.997Z</time>
</trkpt>
<trkpt lat="42.7868530" lon="-2.5727910">
<ele>732.068665</ele>
<time>2012-03-23T18:25:47.001Z</time>
</trkpt>
<trkpt lat="42.7867230" lon="-2.5728900">
<ele>733.897461</ele>
<time>2012-03-23T18:25:57.999Z</time>
</trkpt>
<trkpt lat="42.7866080" lon="-2.5730330">
<ele>735.512939</ele>
<time>2012-03-23T18:26:07.996Z</time>
</trkpt>
<trkpt lat="42.7865760" lon="-2.5731350">
<ele>736.244385</ele>
<time>2012-03-23T18:26:12.998Z</time>
</trkpt>
<trkpt lat="42.7865330" lon="-2.5732440">
<ele>737.128296</ele>
<time>2012-03-23T18:26:18.001Z</time>
</trkpt>
<trkpt lat="42.7863370" lon="-2.5733590">
<ele>737.829346</ele>
<time>2012-03-23T18:26:33.000Z</time>
</trkpt>
<trkpt lat="42.7862280" lon="-2.5733770">
<ele>738.073181</ele>
<time>2012-03-23T18:26:38.996Z</time>
</trkpt>
<trkpt lat="42.7860700" lon="-2.5734850">
<ele>738.835205</ele>
<time>2012-03-23T18:26:50.997Z</time>
</trkpt>
<trkpt lat="42.7860350" lon="-2.5735820">
<ele>739.871460</ele>
<time>2012-03-23T18:27:02.998Z</time>
</trkpt>
<trkpt lat="42.7861510" lon="-2.5736400">
<ele>740.450684</ele>
<time>2012-03-23T18:27:13.997Z</time>
</trkpt>
<trkpt lat="42.7863040" lon="-2.5737190">
<ele>744.931213</ele>
<time>2012-03-23T18:27:25.004Z</time>
</trkpt>
<trkpt lat="42.7865660" lon="-2.5738050">
<ele>750.417603</ele>
<time>2012-03-23T18:27:44.004Z</time>
</trkpt>
<trkpt lat="42.7867260" lon="-2.5738060">
<ele>752.825500</ele>
<time>2012-03-23T18:27:55.996Z</time>
</trkpt>
<trkpt lat="42.7868710" lon="-2.5737680">
<ele>755.355347</ele>
<time>2012-03-23T18:28:11.997Z</time>
</trkpt>
<trkpt lat="42.7870700" lon="-2.5737770">
<ele>760.171204</ele>
<time>2012-03-23T18:28:26.003Z</time>
</trkpt>
<trkpt lat="42.7872790" lon="-2.5738570">
<ele>764.590820</ele>
<time>2012-03-23T18:28:39.999Z</time>
</trkpt>
<trkpt lat="42.7873550" lon="-2.5738630">
<ele>765.474670</ele>
<time>2012-03-23T18:28:46.004Z</time>
</trkpt>
<trkpt lat="42.7875680" lon="-2.5737740">
<ele>767.212097</ele>
<time>2012-03-23T18:29:01.003Z</time>
</trkpt>
<trkpt lat="42.7877380" lon="-2.5737560">
<ele>769.772400</ele>
<time>2012-03-23T18:29:13.998Z</time>
</trkpt>
<trkpt lat="42.7878650" lon="-2.5738470">
<ele>771.936523</ele>
<time>2012-03-23T18:29:27.001Z</time>
</trkpt>
<trkpt lat="42.7880770" lon="-2.5740140">
<ele>774.649170</ele>
<time>2012-03-23T18:29:43.002Z</time>
</trkpt>
<trkpt lat="42.7882070" lon="-2.5739980">
<ele>776.904663</ele>
<time>2012-03-23T18:29:55.003Z</time>
</trkpt>
<trkpt lat="42.7883510" lon="-2.5739770">
<ele>778.337280</ele>
<time>2012-03-23T18:30:07.998Z</time>
</trkpt>
<trkpt lat="42.7885540" lon="-2.5738840">
<ele>780.806152</ele>
<time>2012-03-23T18:30:22.997Z</time>
</trkpt>
<trkpt lat="42.7887960" lon="-2.5739120">
<ele>783.854126</ele>
<time>2012-03-23T18:30:37.996Z</time>
</trkpt>
<trkpt lat="42.7890260" lon="-2.5739260">
<ele>787.389832</ele>
<time>2012-03-23T18:30:53.004Z</time>
</trkpt>
<trkpt lat="42.7892990" lon="-2.5739810">
<ele>790.986511</ele>
<time>2012-03-23T18:31:11.001Z</time>
</trkpt>
<trkpt lat="42.7894450" lon="-2.5740680">
<ele>793.516296</ele>
<time>2012-03-23T18:31:24.004Z</time>
</trkpt>
<trkpt lat="42.7896440" lon="-2.5742970">
<ele>795.985229</ele>
<time>2012-03-23T18:31:39.996Z</time>
</trkpt>
<trkpt lat="42.7897120" lon="-2.5744790">
<ele>797.204407</ele>
<time>2012-03-23T18:31:48.999Z</time>
</trkpt>
<trkpt lat="42.7897450" lon="-2.5746950">
<ele>797.996887</ele>
<time>2012-03-23T18:31:58.996Z</time>
</trkpt>
<trkpt lat="42.7895690" lon="-2.5749190">
<ele>798.758911</ele>
<time>2012-03-23T18:32:13.001Z</time>
</trkpt>
<trkpt lat="42.7894780" lon="-2.5749270">
<ele>797.905457</ele>
<time>2012-03-23T18:32:18.004Z</time>
</trkpt>
<trkpt lat="42.7892540" lon="-2.5749700">
<ele>797.173889</ele>
<time>2012-03-23T18:32:33.003Z</time>
</trkpt>
<trkpt lat="42.7890260" lon="-2.5751360">
<ele>795.345093</ele>
<time>2012-03-23T18:32:49.004Z</time>
</trkpt>
<trkpt lat="42.7888670" lon="-2.5753040">
<ele>793.973511</ele>
<time>2012-03-23T18:33:00.996Z</time>
</trkpt>
<trkpt lat="42.7887040" lon="-2.5755640">
<ele>793.211487</ele>
<time>2012-03-23T18:33:15.002Z</time>
</trkpt>
<trkpt lat="42.7884400" lon="-2.5759880">
<ele>790.986511</ele>
<time>2012-03-23T18:33:36.999Z</time>
</trkpt>
<trkpt lat="42.7882740" lon="-2.5758920">
<ele>791.016968</ele>
<time>2012-03-23T18:33:49.000Z</time>
</trkpt>
<trkpt lat="42.7881920" lon="-2.5758410">
<ele>790.925476</ele>
<time>2012-03-23T18:33:54.996Z</time>
</trkpt>
<trkpt lat="42.7879580" lon="-2.5757530">
<ele>792.175171</ele>
<time>2012-03-23T18:34:10.004Z</time>
</trkpt>
<trkpt lat="42.7877880" lon="-2.5757850">
<ele>792.175171</ele>
<time>2012-03-23T18:34:21.003Z</time>
</trkpt>
<trkpt lat="42.7875500" lon="-2.5759040">
<ele>793.912537</ele>
<time>2012-03-23T18:34:37.004Z</time>
</trkpt>
<trkpt lat="42.7873370" lon="-2.5758920">
<ele>795.009827</ele>
<time>2012-03-23T18:34:48.996Z</time>
</trkpt>
<trkpt lat="42.7870800" lon="-2.5757670">
<ele>797.356812</ele>
<time>2012-03-23T18:35:03.002Z</time>
</trkpt>
<trkpt lat="42.7869470" lon="-2.5757020">
<ele>798.362671</ele>
<time>2012-03-23T18:35:11.003Z</time>
</trkpt>
<trkpt lat="42.7868270" lon="-2.5755850">
<ele>798.271179</ele>
<time>2012-03-23T18:35:19.997Z</time>
</trkpt>
<trkpt lat="42.7866880" lon="-2.5755640">
<ele>797.874939</ele>
<time>2012-03-23T18:35:30.002Z</time>
</trkpt>
<trkpt lat="42.7865160" lon="-2.5756140">
<ele>797.935913</ele>
<time>2012-03-23T18:35:43.999Z</time>
</trkpt>
<trkpt lat="42.7863270" lon="-2.5757060">
<ele>799.307495</ele>
<time>2012-03-23T18:35:54.997Z</time>
</trkpt>
<trkpt lat="42.7861050" lon="-2.5757130">
<ele>800.039063</ele>
<time>2012-03-23T18:36:10.999Z</time>
</trkpt>
<trkpt lat="42.7859970" lon="-2.5757540">
<ele>804.611084</ele>
<time>2012-03-23T18:36:25.004Z</time>
</trkpt>
<trkpt lat="42.7860040" lon="-2.5758510">
<ele>807.719971</ele>
<time>2012-03-23T18:36:36.996Z</time>
</trkpt>
<trkpt lat="42.7858780" lon="-2.5758440">
<ele>810.371765</ele>
<time>2012-03-23T18:36:48.997Z</time>
</trkpt>
<trkpt lat="42.7856870" lon="-2.5758260">
<ele>812.718689</ele>
<time>2012-03-23T18:37:03.996Z</time>
</trkpt>
<trkpt lat="42.7854500" lon="-2.5758190">
<ele>816.742126</ele>
<time>2012-03-23T18:37:21.000Z</time>
</trkpt>
<trkpt lat="42.7852970" lon="-2.5758460">
<ele>818.723328</ele>
<time>2012-03-23T18:37:33.001Z</time>
</trkpt>
<trkpt lat="42.7850900" lon="-2.5758500">
<ele>820.033875</ele>
<time>2012-03-23T18:37:46.004Z</time>
</trkpt>
<trkpt lat="42.7848720" lon="-2.5758160">
<ele>819.546265</ele>
<time>2012-03-23T18:38:00.001Z</time>
</trkpt>
<trkpt lat="42.7847460" lon="-2.5758490">
<ele>820.856934</ele>
<time>2012-03-23T18:38:08.002Z</time>
</trkpt>
<trkpt lat="42.7845520" lon="-2.5758160">
<ele>822.197998</ele>
<time>2012-03-23T18:38:24.996Z</time>
</trkpt>
<trkpt lat="42.7844640" lon="-2.5758220">
<ele>824.362122</ele>
<time>2012-03-23T18:38:33.999Z</time>
</trkpt>
<trkpt lat="42.7843570" lon="-2.5757660">
<ele>823.721985</ele>
<time>2012-03-23T18:38:42.000Z</time>
</trkpt>
<trkpt lat="42.7841900" lon="-2.5757080">
<ele>824.819336</ele>
<time>2012-03-23T18:38:55.003Z</time>
</trkpt>
<trkpt lat="42.7840960" lon="-2.5757210">
<ele>828.233032</ele>
<time>2012-03-23T18:39:06.002Z</time>
</trkpt>
<trkpt lat="42.7840060" lon="-2.5756850">
<ele>829.330261</ele>
<time>2012-03-23T18:39:14.996Z</time>
</trkpt>
<trkpt lat="42.7839050" lon="-2.5756960">
<ele>831.067688</ele>
<time>2012-03-23T18:39:25.001Z</time>
</trkpt>
<trkpt lat="42.7838200" lon="-2.5756700">
<ele>832.591736</ele>
<time>2012-03-23T18:39:33.002Z</time>
</trkpt>
<trkpt lat="42.7836030" lon="-2.5756430">
<ele>835.151978</ele>
<time>2012-03-23T18:39:49.003Z</time>
</trkpt>
<trkpt lat="42.7833650" lon="-2.5756860">
<ele>837.498962</ele>
<time>2012-03-23T18:40:05.998Z</time>
</trkpt>
<trkpt lat="42.7832110" lon="-2.5758650">
<ele>838.931519</ele>
<time>2012-03-23T18:40:20.004Z</time>
</trkpt>
<trkpt lat="42.7830750" lon="-2.5760080">
<ele>836.919861</ele>
<time>2012-03-23T18:40:40.999Z</time>
</trkpt>
<trkpt lat="42.7830210" lon="-2.5761330">
<ele>837.803772</ele>
<time>2012-03-23T18:40:51.004Z</time>
</trkpt>
<trkpt lat="42.7829250" lon="-2.5761640">
<ele>838.565735</ele>
<time>2012-03-23T18:41:03.998Z</time>
</trkpt>
<trkpt lat="42.7827470" lon="-2.5761510">
<ele>838.626709</ele>
<time>2012-03-23T18:41:15.999Z</time>
</trkpt>
<trkpt lat="42.7826850" lon="-2.5760690">
<ele>837.864685</ele>
<time>2012-03-23T18:41:22.998Z</time>
</trkpt>
<trkpt lat="42.7825530" lon="-2.5759270">
<ele>837.468506</ele>
<time>2012-03-23T18:41:36.001Z</time>
</trkpt>
<trkpt lat="42.7825230" lon="-2.5757550">
<ele>836.340698</ele>
<time>2012-03-23T18:41:45.997Z</time>
</trkpt>
<trkpt lat="42.7823710" lon="-2.5756770">
<ele>836.767456</ele>
<time>2012-03-23T18:41:56.003Z</time>
</trkpt>
<trkpt lat="42.7822750" lon="-2.5756170">
<ele>836.371216</ele>
<time>2012-03-23T18:42:01.999Z</time>
</trkpt>
<trkpt lat="42.7820690" lon="-2.5755070">
<ele>835.853027</ele>
<time>2012-03-23T18:42:16.004Z</time>
</trkpt>
<trkpt lat="42.7818440" lon="-2.5754210">
<ele>836.523621</ele>
<time>2012-03-23T18:42:32.999Z</time>
</trkpt>
<trkpt lat="42.7816310" lon="-2.5753980">
<ele>837.834229</ele>
<time>2012-03-23T18:42:46.002Z</time>
</trkpt>
<trkpt lat="42.7815600" lon="-2.5754090">
<ele>838.413330</ele>
<time>2012-03-23T18:42:50.996Z</time>
</trkpt>
<trkpt lat="42.7814400" lon="-2.5753950">
<ele>838.565735</ele>
<time>2012-03-23T18:42:58.997Z</time>
</trkpt>
<trkpt lat="42.7813030" lon="-2.5753670">
<ele>839.998291</ele>
<time>2012-03-23T18:43:08.000Z</time>
</trkpt>
<trkpt lat="42.7812310" lon="-2.5754720">
<ele>840.089722</ele>
<time>2012-03-23T18:43:25.997Z</time>
</trkpt>
<trkpt lat="42.7809530" lon="-2.5754650">
<ele>838.078125</ele>
<time>2012-03-23T18:44:34.996Z</time>
</trkpt>
<trkpt lat="42.7808200" lon="-2.5754670">
<ele>837.011292</ele>
<time>2012-03-23T18:44:42.996Z</time>
</trkpt>
<trkpt lat="42.7808170" lon="-2.5754750">
<ele>836.950317</ele>
<time>2012-03-23T18:45:05.003Z</time>
</trkpt>
<trkpt lat="42.7803240" lon="-2.5756840">
<ele>836.157837</ele>
<time>2012-03-23T18:45:37.999Z</time>
</trkpt>
<trkpt lat="42.7800360" lon="-2.5759180">
<ele>836.554138</ele>
<time>2012-03-23T18:45:56.998Z</time>
</trkpt>
<trkpt lat="42.7798600" lon="-2.5760970">
<ele>835.151978</ele>
<time>2012-03-23T18:46:08.999Z</time>
</trkpt>
<trkpt lat="42.7796790" lon="-2.5763190">
<ele>834.542419</ele>
<time>2012-03-23T18:46:23.998Z</time>
</trkpt>
<trkpt lat="42.7795300" lon="-2.5764970">
<ele>834.481445</ele>
<time>2012-03-23T18:46:39.999Z</time>
</trkpt>
<trkpt lat="42.7793270" lon="-2.5767380">
<ele>833.719482</ele>
<time>2012-03-23T18:46:57.996Z</time>
</trkpt>
<trkpt lat="42.7791630" lon="-2.5768670">
<ele>832.652649</ele>
<time>2012-03-23T18:47:09.997Z</time>
</trkpt>
<trkpt lat="42.7789410" lon="-2.5770010">
<ele>832.744080</ele>
<time>2012-03-23T18:47:27.001Z</time>
</trkpt>
<trkpt lat="42.7786850" lon="-2.5770780">
<ele>833.201294</ele>
<time>2012-03-23T18:47:43.996Z</time>
</trkpt>
<trkpt lat="42.7784720" lon="-2.5771910">
<ele>832.866028</ele>
<time>2012-03-23T18:47:59.997Z</time>
</trkpt>
<trkpt lat="42.7782630" lon="-2.5772830">
<ele>834.054688</ele>
<time>2012-03-23T18:48:17.001Z</time>
</trkpt>
<trkpt lat="42.7779910" lon="-2.5774870">
<ele>836.249329</ele>
<time>2012-03-23T18:48:37.996Z</time>
</trkpt>
<trkpt lat="42.7777250" lon="-2.5778360">
<ele>836.615051</ele>
<time>2012-03-23T18:49:00.002Z</time>
</trkpt>
<trkpt lat="42.7775350" lon="-2.5781200">
<ele>836.218811</ele>
<time>2012-03-23T18:49:17.999Z</time>
</trkpt>
<trkpt lat="42.7773350" lon="-2.5783230">
<ele>836.371216</ele>
<time>2012-03-23T18:49:35.003Z</time>
</trkpt>
<trkpt lat="42.7771570" lon="-2.5785450">
<ele>836.736938</ele>
<time>2012-03-23T18:49:51.004Z</time>
</trkpt>
<trkpt lat="42.7770230" lon="-2.5787510">
<ele>836.615051</ele>
<time>2012-03-23T18:50:05.001Z</time>
</trkpt>
<trkpt lat="42.7768370" lon="-2.5789160">
<ele>837.895203</ele>
<time>2012-03-23T18:50:22.998Z</time>
</trkpt>
<trkpt lat="42.7766740" lon="-2.5791820">
<ele>836.797913</ele>
<time>2012-03-23T18:50:40.001Z</time>
</trkpt>
<trkpt lat="42.7767780" lon="-2.5794240">
<ele>833.932800</ele>
<time>2012-03-23T18:50:55.000Z</time>
</trkpt>
<trkpt lat="42.7769020" lon="-2.5794640">
<ele>830.915283</ele>
<time>2012-03-23T18:51:05.999Z</time>
</trkpt>
<trkpt lat="42.7769920" lon="-2.5795240">
<ele>828.202515</ele>
<time>2012-03-23T18:51:14.000Z</time>
</trkpt>
<trkpt lat="42.7770420" lon="-2.5797500">
<ele>824.148682</ele>
<time>2012-03-23T18:51:26.001Z</time>
</trkpt>
<trkpt lat="42.7769970" lon="-2.5800020">
<ele>821.588379</ele>
<time>2012-03-23T18:51:39.004Z</time>
</trkpt>
<trkpt lat="42.7769220" lon="-2.5802480">
<ele>818.266113</ele>
<time>2012-03-23T18:51:53.001Z</time>
</trkpt>
<trkpt lat="42.7768180" lon="-2.5804170">
<ele>816.803040</ele>
<time>2012-03-23T18:52:06.997Z</time>
</trkpt>
<trkpt lat="42.7766910" lon="-2.5805130">
<ele>816.467773</ele>
<time>2012-03-23T18:52:17.996Z</time>
</trkpt>
<trkpt lat="42.7764530" lon="-2.5805990">
<ele>816.101990</ele>
<time>2012-03-23T18:52:33.997Z</time>
</trkpt>
<trkpt lat="42.7762900" lon="-2.5806430">
<ele>815.004700</ele>
<time>2012-03-23T18:52:45.998Z</time>
</trkpt>
<trkpt lat="42.7762800" lon="-2.5806300">
<ele>815.096130</ele>
<time>2012-04-01T11:23:15.996Z</time>
</trkpt>
<trkpt lat="42.7762300" lon="-2.5807100">
<ele>815.157104</ele>
<time>2012-04-01T11:23:22.001Z</time>
</trkpt>
<trkpt lat="42.7760800" lon="-2.5808700">
<ele>817.077332</ele>
<time>2012-04-01T11:23:43.999Z</time>
</trkpt>
<trkpt lat="42.7759800" lon="-2.5809400">
<ele>819.150024</ele>
<time>2012-04-01T11:23:54.004Z</time>
</trkpt>
<trkpt lat="42.7758900" lon="-2.5810000">
<ele>820.247314</ele>
<time>2012-04-01T11:24:09.003Z</time>
</trkpt>
<trkpt lat="42.7758300" lon="-2.5811500">
<ele>821.070251</ele>
<time>2012-04-01T11:24:24.002Z</time>
</trkpt>
<trkpt lat="42.7758200" lon="-2.5812200">
<ele>821.466492</ele>
<time>2012-04-01T11:24:29.998Z</time>
</trkpt>
<trkpt lat="42.7758500" lon="-2.5813200">
<ele>823.173340</ele>
<time>2012-04-01T11:24:39.001Z</time>
</trkpt>
<trkpt lat="42.7758700" lon="-2.5814000">
<ele>824.270630</ele>
<time>2012-04-01T11:24:44.997Z</time>
</trkpt>
<trkpt lat="42.7759000" lon="-2.5814800">
<ele>824.849731</ele>
<time>2012-04-01T11:24:50.000Z</time>
</trkpt>
<trkpt lat="42.7759400" lon="-2.5815800">
<ele>825.337463</ele>
<time>2012-04-01T11:24:59.996Z</time>
</trkpt>
<trkpt lat="42.7759600" lon="-2.5816100">
<ele>825.886108</ele>
<time>2012-04-01T11:25:02.001Z</time>
</trkpt>
<trkpt lat="42.7759800" lon="-2.5817500">
<ele>826.465210</ele>
<time>2012-04-01T11:25:17.000Z</time>
</trkpt>
<trkpt lat="42.7760500" lon="-2.5819300">
<ele>827.531982</ele>
<time>2012-04-01T11:25:30.003Z</time>
</trkpt>
<trkpt lat="42.7760700" lon="-2.5819500">
<ele>827.684387</ele>
<time>2012-04-01T11:25:31.999Z</time>
</trkpt>
<trkpt lat="42.7761800" lon="-2.5821400">
<ele>828.842651</ele>
<time>2012-04-01T11:25:46.998Z</time>
</trkpt>
<trkpt lat="42.7762800" lon="-2.5822700">
<ele>830.945740</ele>
<time>2012-04-01T11:26:01.997Z</time>
</trkpt>
<trkpt lat="42.7762900" lon="-2.5822900">
<ele>831.098145</ele>
<time>2012-04-01T11:26:04.001Z</time>
</trkpt>
<trkpt lat="42.7763600" lon="-2.5824100">
<ele>831.829712</ele>
<time>2012-04-01T11:26:16.002Z</time>
</trkpt>
<trkpt lat="42.7764300" lon="-2.5825700">
<ele>832.987915</ele>
<time>2012-04-01T11:26:29.999Z</time>
</trkpt>
<trkpt lat="42.7765500" lon="-2.5827400">
<ele>834.938660</ele>
<time>2012-04-01T11:26:43.996Z</time>
</trkpt>
<trkpt lat="42.7765800" lon="-2.5827600">
<ele>835.243469</ele>
<time>2012-04-01T11:26:47.996Z</time>
</trkpt>
<trkpt lat="42.7766700" lon="-2.5829500">
<ele>836.858887</ele>
<time>2012-04-01T11:27:03.997Z</time>
</trkpt>
<trkpt lat="42.7767200" lon="-2.5830600">
<ele>837.559875</ele>
<time>2012-04-01T11:27:13.000Z</time>
</trkpt>
<trkpt lat="42.7768300" lon="-2.5832700">
<ele>839.083862</ele>
<time>2012-04-01T11:27:30.997Z</time>
</trkpt>
<trkpt lat="42.7768700" lon="-2.5833800">
<ele>839.388672</ele>
<time>2012-04-01T11:27:40.000Z</time>
</trkpt>
<trkpt lat="42.7768800" lon="-2.5834100">
<ele>839.541077</ele>
<time>2012-04-01T11:27:41.996Z</time>
</trkpt>
<trkpt lat="42.7769000" lon="-2.5834600">
<ele>839.784973</ele>
<time>2012-04-01T11:27:45.996Z</time>
</trkpt>
<trkpt lat="42.7769900" lon="-2.5836900">
<ele>841.674683</ele>
<time>2012-04-01T11:28:03.000Z</time>
</trkpt>
<trkpt lat="42.7770600" lon="-2.5838400">
<ele>842.528137</ele>
<time>2012-04-01T11:28:16.997Z</time>
</trkpt>
<trkpt lat="42.7771700" lon="-2.5840100">
<ele>844.265503</ele>
<time>2012-04-01T11:28:32.998Z</time>
</trkpt>
<trkpt lat="42.7772200" lon="-2.5841100">
<ele>845.484680</ele>
<time>2012-04-01T11:28:47.997Z</time>
</trkpt>
<trkpt lat="42.7772400" lon="-2.5841500">
<ele>845.637085</ele>
<time>2012-04-01T11:29:10.003Z</time>
</trkpt>
<trkpt lat="42.7773100" lon="-2.5843300">
<ele>846.307739</ele>
<time>2012-04-01T11:29:22.998Z</time>
</trkpt>
<trkpt lat="42.7773800" lon="-2.5844600">
<ele>848.197449</ele>
<time>2012-04-01T11:29:34.999Z</time>
</trkpt>
<trkpt lat="42.7774500" lon="-2.5846100">
<ele>848.837463</ele>
<time>2012-04-01T11:29:48.002Z</time>
</trkpt>
<trkpt lat="42.7774600" lon="-2.5846300">
<ele>848.928955</ele>
<time>2012-04-01T11:30:07.001Z</time>
</trkpt>
<trkpt lat="42.7774900" lon="-2.5847500">
<ele>849.172791</ele>
<time>2012-04-01T11:50:07.002Z</time>
</trkpt>
<trkpt lat="42.7775800" lon="-2.5849400">
<ele>851.153992</ele>
<time>2012-04-01T11:50:19.003Z</time>
</trkpt>
<trkpt lat="42.7776100" lon="-2.5851500">
<ele>851.641724</ele>
<time>2012-04-01T11:50:33.000Z</time>
</trkpt>
<trkpt lat="42.7776600" lon="-2.5853700">
<ele>852.830383</ele>
<time>2012-04-01T11:50:47.999Z</time>
</trkpt>
<trkpt lat="42.7777100" lon="-2.5855300">
<ele>853.683838</ele>
<time>2012-04-01T11:51:00.000Z</time>
</trkpt>
<trkpt lat="42.7777900" lon="-2.5857500">
<ele>855.786926</ele>
<time>2012-04-01T11:51:14.999Z</time>
</trkpt>
<trkpt lat="42.7778400" lon="-2.5859100">
<ele>856.000305</ele>
<time>2012-04-01T11:51:27.000Z</time>
</trkpt>
<trkpt lat="42.7779100" lon="-2.5860800">
<ele>856.000305</ele>
<time>2012-04-01T11:51:40.003Z</time>
</trkpt>
<trkpt lat="42.7779500" lon="-2.5861600">
<ele>855.969849</ele>
<time>2012-04-01T11:51:45.999Z</time>
</trkpt>
<trkpt lat="42.7779600" lon="-2.5862000">
<ele>855.847900</ele>
<time>2012-04-01T11:51:48.997Z</time>
</trkpt>
<trkpt lat="42.7779900" lon="-2.5863900">
<ele>857.036682</ele>
<time>2012-04-01T11:52:03.003Z</time>
</trkpt>
<trkpt lat="42.7780400" lon="-2.5865400">
<ele>858.591064</ele>
<time>2012-04-01T11:52:12.999Z</time>
</trkpt>
<trkpt lat="42.7780500" lon="-2.5866100">
<ele>859.536011</ele>
<time>2012-04-01T11:52:17.000Z</time>
</trkpt>
<trkpt lat="42.7780800" lon="-2.5867000">
<ele>859.779846</ele>
<time>2012-04-01T11:52:22.996Z</time>
</trkpt>
<trkpt lat="42.7781100" lon="-2.5868700">
<ele>860.877075</ele>
<time>2012-04-01T11:52:35.999Z</time>
</trkpt>
<trkpt lat="42.7781600" lon="-2.5870200">
<ele>861.639099</ele>
<time>2012-04-01T11:52:48.000Z</time>
</trkpt>
<trkpt lat="42.7782600" lon="-2.5871400">
<ele>860.297974</ele>
<time>2012-04-01T11:53:01.997Z</time>
</trkpt>
<trkpt lat="42.7782700" lon="-2.5871400">
<ele>860.206543</ele>
<time>2012-04-01T11:53:04.001Z</time>
</trkpt>
<trkpt lat="42.7783200" lon="-2.5871800">
<ele>859.840820</ele>
<time>2012-04-01T11:53:24.003Z</time>
</trkpt>
<trkpt lat="42.7783600" lon="-2.5872000">
<ele>859.414124</ele>
<time>2012-04-01T11:53:29.999Z</time>
</trkpt>
<trkpt lat="42.7785300" lon="-2.5871900">
<ele>856.762268</ele>
<time>2012-04-01T11:53:44.998Z</time>
</trkpt>
<trkpt lat="42.7787000" lon="-2.5872800">
<ele>856.000305</ele>
<time>2012-04-01T11:53:58.001Z</time>
</trkpt>
<trkpt lat="42.7787700" lon="-2.5872700">
<ele>855.878418</ele>
<time>2012-04-01T11:54:03.997Z</time>
</trkpt>
<trkpt lat="42.7789200" lon="-2.5873100">
<ele>857.219482</ele>
<time>2012-04-01T11:54:15.998Z</time>
</trkpt>
<trkpt lat="42.7790300" lon="-2.5873800">
<ele>858.255859</ele>
<time>2012-04-01T11:54:29.002Z</time>
</trkpt>
<trkpt lat="42.7790900" lon="-2.5874000">
<ele>858.438721</ele>
<time>2012-04-01T11:54:37.002Z</time>
</trkpt>
<trkpt lat="42.7791700" lon="-2.5875900">
<ele>859.871338</ele>
<time>2012-04-01T11:54:53.004Z</time>
</trkpt>
<trkpt lat="42.7791700" lon="-2.5876000">
<ele>859.901733</ele>
<time>2012-04-01T11:54:53.997Z</time>
</trkpt>
<trkpt lat="42.7791900" lon="-2.5876500">
<ele>860.176086</ele>
<time>2012-04-01T11:55:12.003Z</time>
</trkpt>
<trkpt lat="42.7791900" lon="-2.5876600">
<ele>860.176086</ele>
<time>2012-04-01T11:55:12.996Z</time>
</trkpt>
<trkpt lat="42.7791900" lon="-2.5877300">
<ele>860.054138</ele>
<time>2012-04-01T11:55:16.997Z</time>
</trkpt>
<trkpt lat="42.7791600" lon="-2.5880200">
<ele>860.511353</ele>
<time>2012-04-01T11:55:34.000Z</time>
</trkpt>
<trkpt lat="42.7791800" lon="-2.5882800">
<ele>859.840820</ele>
<time>2012-04-01T11:55:47.997Z</time>
</trkpt>
<trkpt lat="42.7791900" lon="-2.5883900">
<ele>859.779846</ele>
<time>2012-04-01T11:55:55.004Z</time>
</trkpt>
<trkpt lat="42.7792100" lon="-2.5884800">
<ele>859.231201</ele>
<time>2012-04-01T11:55:59.998Z</time>
</trkpt>
<trkpt lat="42.7792700" lon="-2.5886400">
<ele>859.261719</ele>
<time>2012-04-01T11:56:10.997Z</time>
</trkpt>
<trkpt lat="42.7793700" lon="-2.5888300">
<ele>859.932251</ele>
<time>2012-04-01T11:56:24.000Z</time>
</trkpt>
<trkpt lat="42.7794100" lon="-2.5889300">
<ele>859.810303</ele>
<time>2012-04-01T11:56:29.996Z</time>
</trkpt>
<trkpt lat="42.7794300" lon="-2.5889900">
<ele>859.444519</ele>
<time>2012-04-01T11:56:33.996Z</time>
</trkpt>
<trkpt lat="42.7795000" lon="-2.5892200">
<ele>857.737732</ele>
<time>2012-04-01T11:56:49.998Z</time>
</trkpt>
<trkpt lat="42.7795100" lon="-2.5892700">
<ele>857.250000</ele>
<time>2012-04-01T11:56:53.998Z</time>
</trkpt>
<trkpt lat="42.7795200" lon="-2.5892900">
<ele>857.097595</ele>
<time>2012-04-01T11:56:56.003Z</time>
</trkpt>
<trkpt lat="42.7795400" lon="-2.5893400">
<ele>856.884277</ele>
<time>2012-04-01T11:57:00.996Z</time>
</trkpt>
<trkpt lat="42.7795300" lon="-2.5894000">
<ele>856.975708</ele>
<time>2012-04-01T11:57:04.997Z</time>
</trkpt>
<trkpt lat="42.7795100" lon="-2.5894800">
<ele>857.036682</ele>
<time>2012-04-01T11:57:11.002Z</time>
</trkpt>
<trkpt lat="42.7795400" lon="-2.5895300">
<ele>857.067078</ele>
<time>2012-04-01T11:57:14.000Z</time>
</trkpt>
<trkpt lat="42.7795100" lon="-2.5896800">
<ele>856.000305</ele>
<time>2012-04-01T11:57:27.996Z</time>
</trkpt>
<trkpt lat="42.7795300" lon="-2.5897700">
<ele>856.701355</ele>
<time>2012-04-01T11:57:32.999Z</time>
</trkpt>
<trkpt lat="42.7795200" lon="-2.5899000">
<ele>857.859619</ele>
<time>2012-04-01T11:57:46.002Z</time>
</trkpt>
<trkpt lat="42.7795200" lon="-2.5899600">
<ele>858.743469</ele>
<time>2012-04-01T11:57:54.996Z</time>
</trkpt>
<trkpt lat="42.7795500" lon="-2.5901800">
<ele>861.120972</ele>
<time>2012-04-01T11:58:10.998Z</time>
</trkpt>
<trkpt lat="42.7795500" lon="-2.5902500">
<ele>861.151428</ele>
<time>2012-04-01T11:58:16.000Z</time>
</trkpt>
<trkpt lat="42.7795500" lon="-2.5903000">
<ele>861.029480</ele>
<time>2012-04-01T11:58:20.001Z</time>
</trkpt>
<trkpt lat="42.7795300" lon="-2.5904000">
<ele>860.938110</ele>
<time>2012-04-01T11:58:25.997Z</time>
</trkpt>
<trkpt lat="42.7795400" lon="-2.5904900">
<ele>861.608643</ele>
<time>2012-04-01T11:58:32.002Z</time>
</trkpt>
<trkpt lat="42.7795500" lon="-2.5906600">
<ele>863.071716</ele>
<time>2012-04-01T11:58:43.000Z</time>
</trkpt>
<trkpt lat="42.7795800" lon="-2.5908400">
<ele>865.235718</ele>
<time>2012-04-01T11:58:55.001Z</time>
</trkpt>
<trkpt lat="42.7796200" lon="-2.5910600">
<ele>866.454956</ele>
<time>2012-04-01T11:59:11.003Z</time>
</trkpt>
<trkpt lat="42.7796700" lon="-2.5913100">
<ele>866.150146</ele>
<time>2012-04-01T11:59:27.004Z</time>
</trkpt>
<trkpt lat="42.7796900" lon="-2.5915300">
<ele>867.826538</ele>
<time>2012-04-01T11:59:42.003Z</time>
</trkpt>
<trkpt lat="42.7797100" lon="-2.5916300">
<ele>868.405701</ele>
<time>2012-04-01T11:59:49.001Z</time>
</trkpt>
<trkpt lat="42.7797100" lon="-2.5916700">
<ele>869.045715</ele>
<time>2012-04-01T11:59:51.999Z</time>
</trkpt>
<trkpt lat="42.7797500" lon="-2.5918300">
<ele>870.600281</ele>
<time>2012-04-01T12:00:01.996Z</time>
</trkpt>
<trkpt lat="42.7797700" lon="-2.5919200">
<ele>870.905029</ele>
<time>2012-04-01T12:00:08.001Z</time>
</trkpt>
<trkpt lat="42.7797700" lon="-2.5919600">
<ele>871.240295</ele>
<time>2012-04-01T12:00:10.999Z</time>
</trkpt>
<trkpt lat="42.7797900" lon="-2.5921400">
<ele>871.697510</ele>
<time>2012-04-01T12:00:21.997Z</time>
</trkpt>
<trkpt lat="42.7798000" lon="-2.5921500">
<ele>871.667053</ele>
<time>2012-04-01T12:00:24.002Z</time>
</trkpt>
<trkpt lat="42.7797800" lon="-2.5923700">
<ele>874.836975</ele>
<time>2012-04-01T12:00:39.001Z</time>
</trkpt>
<trkpt lat="42.7797500" lon="-2.5924000">
<ele>875.446533</ele>
<time>2012-04-01T12:00:59.003Z</time>
</trkpt>
<trkpt lat="42.7797200" lon="-2.5926500">
<ele>875.934265</ele>
<time>2012-04-01T12:01:14.002Z</time>
</trkpt>
<trkpt lat="42.7797300" lon="-2.5928700">
<ele>875.995178</ele>
<time>2012-04-01T12:01:26.996Z</time>
</trkpt>
<trkpt lat="42.7797400" lon="-2.5928700">
<ele>875.964661</ele>
<time>2012-04-01T12:01:38.997Z</time>
</trkpt>
<trkpt lat="42.7796800" lon="-2.5930400">
<ele>876.147583</ele>
<time>2012-04-01T12:01:49.996Z</time>
</trkpt>
<trkpt lat="42.7796100" lon="-2.5931800">
<ele>875.598938</ele>
<time>2012-04-01T12:02:01.997Z</time>
</trkpt>
<trkpt lat="42.7795400" lon="-2.5932600">
<ele>874.471191</ele>
<time>2012-04-01T12:02:05.997Z</time>
</trkpt>
<trkpt lat="42.7795200" lon="-2.5933400">
<ele>874.318787</ele>
<time>2012-04-01T12:02:11.000Z</time>
</trkpt>
<trkpt lat="42.7794900" lon="-2.5934200">
<ele>874.227356</ele>
<time>2012-04-01T12:02:15.000Z</time>
</trkpt>
<trkpt lat="42.7794100" lon="-2.5936000">
<ele>873.191040</ele>
<time>2012-04-01T12:02:28.003Z</time>
</trkpt>
<trkpt lat="42.7794000" lon="-2.5937200">
<ele>873.130127</ele>
<time>2012-04-01T12:02:35.002Z</time>
</trkpt>
<trkpt lat="42.7793000" lon="-2.5939600">
<ele>872.032776</ele>
<time>2012-04-01T12:02:47.996Z</time>
</trkpt>
<trkpt lat="42.7792100" lon="-2.5941100">
<ele>871.026917</ele>
<time>2012-04-01T12:03:00.999Z</time>
</trkpt>
<trkpt lat="42.7791400" lon="-2.5943400">
<ele>870.264954</ele>
<time>2012-04-01T12:03:14.003Z</time>
</trkpt>
<trkpt lat="42.7790800" lon="-2.5944300">
<ele>869.533447</ele>
<time>2012-04-01T12:03:27.999Z</time>
</trkpt>
<trkpt lat="42.7790300" lon="-2.5945100">
<ele>868.984802</ele>
<time>2012-04-01T12:03:57.997Z</time>
</trkpt>
<trkpt lat="42.7790100" lon="-2.5947100">
<ele>868.679993</ele>
<time>2012-04-01T12:04:08.003Z</time>
</trkpt>
<trkpt lat="42.7789100" lon="-2.5948800">
<ele>868.375183</ele>
<time>2012-04-01T12:04:23.002Z</time>
</trkpt>
<trkpt lat="42.7788500" lon="-2.5948700">
<ele>869.045715</ele>
<time>2012-04-01T12:04:39.996Z</time>
</trkpt>
<trkpt lat="42.7788100" lon="-2.5948700">
<ele>869.350525</ele>
<time>2012-04-01T12:04:59.998Z</time>
</trkpt>
<trkpt lat="42.7787400" lon="-2.5949100">
<ele>869.838257</ele>
<time>2012-04-01T12:05:25.996Z</time>
</trkpt>
<trkpt lat="42.7785200" lon="-2.5951200">
<ele>872.002319</ele>
<time>2012-04-01T12:05:47.000Z</time>
</trkpt>
<trkpt lat="42.7783400" lon="-2.5952400">
<ele>875.233215</ele>
<time>2012-04-01T12:06:07.001Z</time>
</trkpt>
<trkpt lat="42.7781500" lon="-2.5951800">
<ele>878.433594</ele>
<time>2012-04-01T12:06:27.996Z</time>
</trkpt>
<trkpt lat="42.7780200" lon="-2.5951400">
<ele>880.750122</ele>
<time>2012-04-01T12:06:46.002Z</time>
</trkpt>
<trkpt lat="42.7779000" lon="-2.5951500">
<ele>883.615173</ele>
<time>2012-04-01T12:06:59.999Z</time>
</trkpt>
<trkpt lat="42.7777600" lon="-2.5951300">
<ele>885.108704</ele>
<time>2012-04-01T12:07:16.000Z</time>
</trkpt>
<trkpt lat="42.7776800" lon="-2.5951800">
<ele>886.815613</ele>
<time>2012-04-01T12:07:25.003Z</time>
</trkpt>
<trkpt lat="42.7775400" lon="-2.5953100">
<ele>887.516663</ele>
<time>2012-04-01T12:07:39.000Z</time>
</trkpt>
<trkpt lat="42.7774900" lon="-2.5954100">
<ele>887.638550</ele>
<time>2012-04-01T12:07:45.998Z</time>
</trkpt>
<trkpt lat="42.7774300" lon="-2.5954200">
<ele>887.028931</ele>
<time>2012-04-01T12:08:04.998Z</time>
</trkpt>
<trkpt lat="42.7773300" lon="-2.5956600">
<ele>887.912903</ele>
<time>2012-04-01T12:08:20.999Z</time>
</trkpt>
<trkpt lat="42.7772900" lon="-2.5957100">
<ele>887.821472</ele>
<time>2012-04-01T12:08:24.999Z</time>
</trkpt>
<trkpt lat="42.7771900" lon="-2.5959200">
<ele>888.461487</ele>
<time>2012-04-01T12:08:42.003Z</time>
</trkpt>
<trkpt lat="42.7771800" lon="-2.5959700">
<ele>888.827332</ele>
<time>2012-04-01T12:08:45.001Z</time>
</trkpt>
<trkpt lat="42.7772500" lon="-2.5961900">
<ele>890.198914</ele>
<time>2012-04-01T12:09:01.002Z</time>
</trkpt>
<trkpt lat="42.7772900" lon="-2.5964100">
<ele>892.606812</ele>
<time>2012-04-01T12:09:18.999Z</time>
</trkpt>
<trkpt lat="42.7772600" lon="-2.5966500">
<ele>893.795471</ele>
<time>2012-04-01T12:09:36.996Z</time>
</trkpt>
<trkpt lat="42.7772100" lon="-2.5968600">
<ele>895.624268</ele>
<time>2012-04-01T12:09:51.002Z</time>
</trkpt>
<trkpt lat="42.7771500" lon="-2.5969500">
<ele>896.294922</ele>
<time>2012-04-01T12:10:06.001Z</time>
</trkpt>
<trkpt lat="42.7771400" lon="-2.5971100">
<ele>898.367493</ele>
<time>2012-04-01T12:10:30.003Z</time>
</trkpt>
<trkpt lat="42.7769500" lon="-2.5972700">
<ele>901.171692</ele>
<time>2012-04-01T12:10:53.003Z</time>
</trkpt>
<trkpt lat="42.7768500" lon="-2.5973000">
<ele>902.543335</ele>
<time>2012-04-01T12:11:08.002Z</time>
</trkpt>
<trkpt lat="42.7767600" lon="-2.5974900">
<ele>905.408386</ele>
<time>2012-04-01T12:11:28.997Z</time>
</trkpt>
<trkpt lat="42.7766400" lon="-2.5976600">
<ele>908.121094</ele>
<time>2012-04-01T12:11:50.001Z</time>
</trkpt>
<trkpt lat="42.7764900" lon="-2.5977700">
<ele>910.224243</ele>
<time>2012-04-01T12:12:07.004Z</time>
</trkpt>
<trkpt lat="42.7763800" lon="-2.5979500">
<ele>912.997864</ele>
<time>2012-04-01T12:12:26.004Z</time>
</trkpt>
<trkpt lat="42.7762800" lon="-2.5980100">
<ele>915.283875</ele>
<time>2012-04-01T12:12:38.998Z</time>
</trkpt>
<trkpt lat="42.7761700" lon="-2.5981100">
<ele>917.630920</ele>
<time>2012-04-01T12:12:56.002Z</time>
</trkpt>
<trkpt lat="42.7760800" lon="-2.5981300">
<ele>919.794922</ele>
<time>2012-04-01T12:13:09.998Z</time>
</trkpt>
<trkpt lat="42.7759500" lon="-2.5982000">
<ele>921.501831</ele>
<time>2012-04-01T12:13:24.997Z</time>
</trkpt>
<trkpt lat="42.7758400" lon="-2.5983200">
<ele>922.538147</ele>
<time>2012-04-01T12:13:43.997Z</time>
</trkpt>
<trkpt lat="42.7757400" lon="-2.5983800">
<ele>923.635437</ele>
<time>2012-04-01T12:14:06.996Z</time>
</trkpt>
<trkpt lat="42.7756000" lon="-2.5983300">
<ele>925.311829</ele>
<time>2012-04-01T12:14:21.002Z</time>
</trkpt>
<trkpt lat="42.7754800" lon="-2.5983000">
<ele>926.531067</ele>
<time>2012-04-01T12:14:36.001Z</time>
</trkpt>
<trkpt lat="42.7753600" lon="-2.5981500">
<ele>927.872131</ele>
<time>2012-04-01T12:14:53.998Z</time>
</trkpt>
<trkpt lat="42.7752200" lon="-2.5979300">
<ele>929.487610</ele>
<time>2012-04-01T12:15:15.002Z</time>
</trkpt>
<trkpt lat="42.7750900" lon="-2.5977600">
<ele>931.560242</ele>
<time>2012-04-01T12:15:36.999Z</time>
</trkpt>
<trkpt lat="42.7749200" lon="-2.5976400">
<ele>936.193176</ele>
<time>2012-04-01T12:15:58.997Z</time>
</trkpt>
<trkpt lat="42.7749100" lon="-2.5976400">
<ele>936.497986</ele>
<time>2012-04-01T12:15:59.999Z</time>
</trkpt>
<trkpt lat="42.7747100" lon="-2.5974600">
<ele>939.576538</ele>
<time>2012-04-01T12:16:24.001Z</time>
</trkpt>
<trkpt lat="42.7745700" lon="-2.5973000">
<ele>941.892944</ele>
<time>2012-04-01T12:16:45.998Z</time>
</trkpt>
<trkpt lat="42.7744500" lon="-2.5971000">
<ele>943.325500</ele>
<time>2012-04-01T12:17:04.998Z</time>
</trkpt>
<trkpt lat="42.7743500" lon="-2.5970500">
<ele>946.251587</ele>
<time>2012-04-01T12:17:24.999Z</time>
</trkpt>
<trkpt lat="42.7742700" lon="-2.5969500">
<ele>947.196533</ele>
<time>2012-04-01T12:17:41.001Z</time>
</trkpt>
<trkpt lat="42.7741300" lon="-2.5967700">
<ele>950.061584</ele>
<time>2012-04-01T12:17:58.998Z</time>
</trkpt>
<trkpt lat="42.7739800" lon="-2.5966600">
<ele>953.201050</ele>
<time>2012-04-01T12:18:18.999Z</time>
</trkpt>
<trkpt lat="42.7738900" lon="-2.5966200">
<ele>955.547974</ele>
<time>2012-04-01T12:18:35.001Z</time>
</trkpt>
<trkpt lat="42.7737900" lon="-2.5965200">
<ele>957.224426</ele>
<time>2012-04-01T12:18:55.002Z</time>
</trkpt>
<trkpt lat="42.7736900" lon="-2.5964700">
<ele>959.083740</ele>
<time>2012-04-01T12:19:06.001Z</time>
</trkpt>
<trkpt lat="42.7736400" lon="-2.5964800">
<ele>959.479919</ele>
<time>2012-04-01T12:19:10.001Z</time>
</trkpt>
<trkpt lat="42.7735700" lon="-2.5965500">
<ele>959.998108</ele>
<time>2012-04-01T12:19:18.002Z</time>
</trkpt>
<trkpt lat="42.7735900" lon="-2.5967200">
<ele>961.400146</ele>
<time>2012-04-01T12:19:33.001Z</time>
</trkpt>
<trkpt lat="42.7736000" lon="-2.5967800">
<ele>961.796387</ele>
<time>2012-04-01T12:19:37.001Z</time>
</trkpt>
<trkpt lat="42.7736300" lon="-2.5969300">
<ele>963.015625</ele>
<time>2012-04-01T12:19:48.000Z</time>
</trkpt>
<trkpt lat="42.7735900" lon="-2.5971500">
<ele>964.905334</ele>
<time>2012-04-01T12:20:02.999Z</time>
</trkpt>
<trkpt lat="42.7735400" lon="-2.5972400">
<ele>965.514954</ele>
<time>2012-04-01T12:20:19.000Z</time>
</trkpt>
<trkpt lat="42.7734300" lon="-2.5974900">
<ele>966.337891</ele>
<time>2012-04-01T12:20:39.002Z</time>
</trkpt>
<trkpt lat="42.7733600" lon="-2.5977500">
<ele>968.562927</ele>
<time>2012-04-01T12:20:56.999Z</time>
</trkpt>
<trkpt lat="42.7732600" lon="-2.5979100">
<ele>969.934570</ele>
<time>2012-04-01T12:21:10.996Z</time>
</trkpt>
<trkpt lat="42.7731700" lon="-2.5981100">
<ele>971.549988</ele>
<time>2012-04-01T12:21:26.004Z</time>
</trkpt>
<trkpt lat="42.7731300" lon="-2.5983000">
<ele>971.885315</ele>
<time>2012-04-01T12:21:41.003Z</time>
</trkpt>
<trkpt lat="42.7731600" lon="-2.5984900">
<ele>973.348267</ele>
<time>2012-04-01T12:22:04.996Z</time>
</trkpt>
<trkpt lat="42.7731700" lon="-2.5986800">
<ele>974.841858</ele>
<time>2012-04-01T12:22:20.004Z</time>
</trkpt>
<trkpt lat="42.7732600" lon="-2.5988600">
<ele>976.670654</ele>
<time>2012-04-01T12:22:35.003Z</time>
</trkpt>
<trkpt lat="42.7733300" lon="-2.5990700">
<ele>978.865173</ele>
<time>2012-04-01T12:22:54.002Z</time>
</trkpt>
<trkpt lat="42.7734000" lon="-2.5991300">
<ele>979.200500</ele>
<time>2012-04-01T12:23:01.000Z</time>
</trkpt>
<trkpt lat="42.7734300" lon="-2.5993500">
<ele>980.937866</ele>
<time>2012-04-01T12:23:18.997Z</time>
</trkpt>
<trkpt lat="42.7734200" lon="-2.5995900">
<ele>982.736145</ele>
<time>2012-04-01T12:23:36.001Z</time>
</trkpt>
<trkpt lat="42.7733200" lon="-2.5998900">
<ele>985.326965</ele>
<time>2012-04-01T12:24:00.996Z</time>
</trkpt>
<trkpt lat="42.7733100" lon="-2.5999600">
<ele>985.875610</ele>
<time>2012-04-01T12:24:04.997Z</time>
</trkpt>
<trkpt lat="42.7732500" lon="-2.6001600">
<ele>987.460571</ele>
<time>2012-04-01T12:24:23.003Z</time>
</trkpt>
<trkpt lat="42.7732100" lon="-2.6002500">
<ele>987.247192</ele>
<time>2012-04-01T12:24:28.999Z</time>
</trkpt>
<trkpt lat="42.7731800" lon="-2.6002900">
<ele>987.308167</ele>
<time>2012-04-01T12:24:32.999Z</time>
</trkpt>
<trkpt lat="42.7731000" lon="-2.6004000">
<ele>988.039734</ele>
<time>2012-04-01T12:24:46.002Z</time>
</trkpt>
<trkpt lat="42.7730600" lon="-2.6004800">
<ele>987.978699</ele>
<time>2012-04-01T12:24:53.001Z</time>
</trkpt>
<trkpt lat="42.7730400" lon="-2.6004900">
<ele>988.131104</ele>
<time>2012-04-01T12:24:54.996Z</time>
</trkpt>
<trkpt lat="42.7730200" lon="-2.6005100">
<ele>988.344482</ele>
<time>2012-04-01T12:24:57.001Z</time>
</trkpt>
<trkpt lat="42.7729000" lon="-2.6006300">
<ele>987.887329</ele>
<time>2012-04-01T12:25:10.998Z</time>
</trkpt>
<trkpt lat="42.7727900" lon="-2.6007700">
<ele>988.161621</ele>
<time>2012-04-01T12:25:25.003Z</time>
</trkpt>
<trkpt lat="42.7727100" lon="-2.6008800">
<ele>988.131104</ele>
<time>2012-04-01T12:25:40.002Z</time>
</trkpt>
<trkpt lat="42.7726300" lon="-2.6009700">
<ele>988.832153</ele>
<time>2012-04-01T12:26:06.000Z</time>
</trkpt>
<trkpt lat="42.7726200" lon="-2.6010200">
<ele>989.167480</ele>
<time>2012-04-01T12:26:08.998Z</time>
</trkpt>
<trkpt lat="42.7726000" lon="-2.6010800">
<ele>989.350281</ele>
<time>2012-04-01T12:26:12.998Z</time>
</trkpt>
<trkpt lat="42.7725900" lon="-2.6011700">
<ele>989.990417</ele>
<time>2012-04-01T12:26:27.997Z</time>
</trkpt>
<trkpt lat="42.7724300" lon="-2.6012400">
<ele>988.649292</ele>
<time>2012-04-01T12:26:49.001Z</time>
</trkpt>
<trkpt lat="42.7723700" lon="-2.6012700">
<ele>988.161621</ele>
<time>2012-04-01T12:26:54.997Z</time>
</trkpt>
<trkpt lat="42.7722800" lon="-2.6013500">
<ele>987.856812</ele>
<time>2012-04-01T12:27:04.000Z</time>
</trkpt>
<trkpt lat="42.7722200" lon="-2.6013800">
<ele>987.277710</ele>
<time>2012-04-01T12:27:09.003Z</time>
</trkpt>
<trkpt lat="42.7720300" lon="-2.6015300">
<ele>985.022156</ele>
<time>2012-04-01T12:27:25.998Z</time>
</trkpt>
<trkpt lat="42.7718400" lon="-2.6016400">
<ele>984.443054</ele>
<time>2012-04-01T12:27:41.999Z</time>
</trkpt>
<trkpt lat="42.7717600" lon="-2.6016600">
<ele>984.717346</ele>
<time>2012-04-01T12:27:47.002Z</time>
</trkpt>
<trkpt lat="42.7716700" lon="-2.6017400">
<ele>986.485229</ele>
<time>2012-04-01T12:28:00.998Z</time>
</trkpt>
<trkpt lat="42.7715500" lon="-2.6018300">
<ele>989.106506</ele>
<time>2012-04-01T12:28:15.997Z</time>
</trkpt>
<trkpt lat="42.7713700" lon="-2.6019500">
<ele>989.807495</ele>
<time>2012-04-01T12:28:31.999Z</time>
</trkpt>
<trkpt lat="42.7712400" lon="-2.6020000">
<ele>990.417114</ele>
<time>2012-04-01T12:28:44.000Z</time>
</trkpt>
<trkpt lat="42.7711600" lon="-2.6019900">
<ele>990.752380</ele>
<time>2012-04-01T12:28:52.000Z</time>
</trkpt>
<trkpt lat="42.7711000" lon="-2.6019800">
<ele>992.154480</ele>
<time>2012-04-01T12:29:02.999Z</time>
</trkpt>
<trkpt lat="42.7709700" lon="-2.6018600">
<ele>994.714783</ele>
<time>2012-04-01T12:29:16.002Z</time>
</trkpt>
<trkpt lat="42.7709100" lon="-2.6018200">
<ele>996.086426</ele>
<time>2012-04-01T12:29:32.997Z</time>
</trkpt>
<trkpt lat="42.7708900" lon="-2.6018100">
<ele>996.330261</ele>
<time>2012-04-01T12:29:58.001Z</time>
</trkpt>
<trkpt lat="42.7708000" lon="-2.6018900">
<ele>1001.359436</ele>
<time>2012-04-01T12:30:49.003Z</time>
</trkpt>
<trkpt lat="42.7707400" lon="-2.6019700">
<ele>1004.834167</ele>
<time>2012-04-01T12:31:01.998Z</time>
</trkpt>
<trkpt lat="42.7707000" lon="-2.6020300">
<ele>1006.022888</ele>
<time>2012-04-01T12:31:09.998Z</time>
</trkpt>
<trkpt lat="42.7706500" lon="-2.6021800">
<ele>1008.979431</ele>
<time>2012-04-01T12:31:27.002Z</time>
</trkpt>
<trkpt lat="42.7705900" lon="-2.6023300">
<ele>1011.052124</ele>
<time>2012-04-01T12:31:47.004Z</time>
</trkpt>
<trkpt lat="42.7705100" lon="-2.6024300">
<ele>1014.526794</ele>
<time>2012-04-01T12:32:03.998Z</time>
</trkpt>
<trkpt lat="42.7704500" lon="-2.6025000">
<ele>1016.782288</ele>
<time>2012-04-01T12:32:18.997Z</time>
</trkpt>
<trkpt lat="42.7703900" lon="-2.6025500">
<ele>1018.489197</ele>
<time>2012-04-01T12:32:36.001Z</time>
</trkpt>
<trkpt lat="42.7703600" lon="-2.6025900">
<ele>1019.616943</ele>
<time>2012-04-01T12:32:53.998Z</time>
</trkpt>
<trkpt lat="42.7703300" lon="-2.6026500">
<ele>1020.775208</ele>
<time>2012-04-01T12:33:00.003Z</time>
</trkpt>
<trkpt lat="42.7702400" lon="-2.6027200">
<ele>1023.000244</ele>
<time>2012-04-01T12:33:16.004Z</time>
</trkpt>
<trkpt lat="42.7701200" lon="-2.6027700">
<ele>1025.834961</ele>
<time>2012-04-01T12:33:28.999Z</time>
</trkpt>
<trkpt lat="42.7700000" lon="-2.6028200">
<ele>1028.303711</ele>
<time>2012-04-01T12:33:43.004Z</time>
</trkpt>
<trkpt lat="42.7698900" lon="-2.6029200">
<ele>1030.650635</ele>
<time>2012-04-01T12:34:02.997Z</time>
</trkpt>
<trkpt lat="42.7697800" lon="-2.6029400">
<ele>1032.083252</ele>
<time>2012-04-01T12:34:21.996Z</time>
</trkpt>
<trkpt lat="42.7696300" lon="-2.6029200">
<ele>1034.674072</ele>
<time>2012-04-01T12:34:40.996Z</time>
</trkpt>
<trkpt lat="42.7695200" lon="-2.6029400">
<ele>1035.923706</ele>
<time>2012-04-01T12:34:57.999Z</time>
</trkpt>
<trkpt lat="42.7694700" lon="-2.6029200">
<ele>1035.923706</ele>
<time>2012-04-01T12:35:03.002Z</time>
</trkpt>
<trkpt lat="42.7694500" lon="-2.6029100">
<ele>1035.771362</ele>
<time>2012-04-01T12:35:04.998Z</time>
</trkpt>
<trkpt lat="42.7692700" lon="-2.6029600">
<ele>1038.697510</ele>
<time>2012-04-01T12:35:20.999Z</time>
</trkpt>
<trkpt lat="42.7691400" lon="-2.6029500">
<ele>1040.130005</ele>
<time>2012-04-01T12:35:35.998Z</time>
</trkpt>
<trkpt lat="42.7691000" lon="-2.6029400">
<ele>1040.038574</ele>
<time>2012-04-01T12:35:41.001Z</time>
</trkpt>
<trkpt lat="42.7690300" lon="-2.6029600">
<ele>1040.282349</ele>
<time>2012-04-01T12:35:58.004Z</time>
</trkpt>
<trkpt lat="42.7689800" lon="-2.6029700">
<ele>1040.495728</ele>
<time>2012-04-01T12:36:09.003Z</time>
</trkpt>
<trkpt lat="42.7689100" lon="-2.6029700">
<ele>1040.282349</ele>
<time>2012-04-01T12:36:14.999Z</time>
</trkpt>
<trkpt lat="42.7687500" lon="-2.6029700">
<ele>1041.593018</ele>
<time>2012-04-01T12:36:36.003Z</time>
</trkpt>
<trkpt lat="42.7687800" lon="-2.6030100">
<ele>1041.623535</ele>
<time>2012-04-01T12:37:02.001Z</time>
</trkpt>
<trkpt lat="42.7689000" lon="-2.6029700">
<ele>1040.282349</ele>
<time>2012-04-01T12:37:14.002Z</time>
</trkpt>
<trkpt lat="42.7689600" lon="-2.6029900">
<ele>1040.739624</ele>
<time>2012-04-01T12:37:31.999Z</time>
</trkpt>
<trkpt lat="42.7689800" lon="-2.6030400">
<ele>1041.105347</ele>
<time>2012-04-01T12:38:05.004Z</time>
</trkpt>
<trkpt lat="42.7690100" lon="-2.6030000">
<ele>1040.953003</ele>
<time>2012-04-01T12:38:16.996Z</time>
</trkpt>
<trkpt lat="42.7689800" lon="-2.6030400">
<ele>1041.105347</ele>
<time>2012-04-01T12:38:21.998Z</time>
</trkpt>
<trkpt lat="42.7690400" lon="-2.6030900">
<ele>1041.196777</ele>
<time>2012-04-01T12:38:28.997Z</time>
</trkpt>
<trkpt lat="42.7691000" lon="-2.6030800">
<ele>1040.617676</ele>
<time>2012-04-01T12:38:35.002Z</time>
</trkpt>
<trkpt lat="42.7692400" lon="-2.6030900">
<ele>1040.099487</ele>
<time>2012-04-01T12:38:50.001Z</time>
</trkpt>
<trkpt lat="42.7694000" lon="-2.6031200">
<ele>1037.630615</ele>
<time>2012-04-01T12:39:06.002Z</time>
</trkpt>
<trkpt lat="42.7694800" lon="-2.6031500">
<ele>1036.076172</ele>
<time>2012-04-01T12:39:26.997Z</time>
</trkpt>
<trkpt lat="42.7696300" lon="-2.6031600">
<ele>1033.790161</ele>
<time>2012-04-01T12:39:41.003Z</time>
</trkpt>
<trkpt lat="42.7697000" lon="-2.6032300">
<ele>1031.443237</ele>
<time>2012-04-01T12:39:59.000Z</time>
</trkpt>
<trkpt lat="42.7697500" lon="-2.6033700">
<ele>1030.010620</ele>
<time>2012-04-01T12:41:13.001Z</time>
</trkpt>
<trkpt lat="42.7697600" lon="-2.6033800">
<ele>1029.797363</ele>
<time>2012-04-01T12:41:14.004Z</time>
</trkpt>
<trkpt lat="42.7697900" lon="-2.6034500">
<ele>1028.791504</ele>
<time>2012-04-01T12:41:18.997Z</time>
</trkpt>
<trkpt lat="42.7698200" lon="-2.6035000">
<ele>1027.816162</ele>
<time>2012-04-01T12:41:22.998Z</time>
</trkpt>
<trkpt lat="42.7698800" lon="-2.6036700">
<ele>1025.011841</ele>
<time>2012-04-01T12:41:37.997Z</time>
</trkpt>
<trkpt lat="42.7699000" lon="-2.6039300">
<ele>1022.512573</ele>
<time>2012-04-01T12:41:53.998Z</time>
</trkpt>
<trkpt lat="42.7699700" lon="-2.6041600">
<ele>1018.976929</ele>
<time>2012-04-01T12:42:08.004Z</time>
</trkpt>
<trkpt lat="42.7699700" lon="-2.6042000">
<ele>1018.641602</ele>
<time>2012-04-01T12:42:09.999Z</time>
</trkpt>
<trkpt lat="42.7700100" lon="-2.6044400">
<ele>1017.117615</ele>
<time>2012-04-01T12:42:23.996Z</time>
</trkpt>
<trkpt lat="42.7700200" lon="-2.6045700">
<ele>1017.209045</ele>
<time>2012-04-01T12:42:39.997Z</time>
</trkpt>
<trkpt lat="42.7700200" lon="-2.6045800">
<ele>1017.178528</ele>
<time>2012-04-01T12:42:42.002Z</time>
</trkpt>
<trkpt lat="42.7700400" lon="-2.6047500">
<ele>1016.416565</ele>
<time>2012-04-01T12:42:53.001Z</time>
</trkpt>
<trkpt lat="42.7700900" lon="-2.6050100">
<ele>1014.953491</ele>
<time>2012-04-01T12:43:08.000Z</time>
</trkpt>
<trkpt lat="42.7700900" lon="-2.6050200">
<ele>1014.953491</ele>
<time>2012-04-01T12:43:09.002Z</time>
</trkpt>
<trkpt lat="42.7701700" lon="-2.6052700">
<ele>1013.886719</ele>
<time>2012-04-01T12:43:24.001Z</time>
</trkpt>
<trkpt lat="42.7701900" lon="-2.6054700">
<ele>1013.002808</ele>
<time>2012-04-01T12:43:36.002Z</time>
</trkpt>
<trkpt lat="42.7701900" lon="-2.6055300">
<ele>1012.972290</ele>
<time>2012-04-01T12:43:39.000Z</time>
</trkpt>
<trkpt lat="42.7702600" lon="-2.6057800">
<ele>1013.216125</ele>
<time>2012-04-01T12:43:53.999Z</time>
</trkpt>
<trkpt lat="42.7702700" lon="-2.6060400">
<ele>1013.338135</ele>
<time>2012-04-01T12:44:10.000Z</time>
</trkpt>
<trkpt lat="42.7702600" lon="-2.6062900">
<ele>1011.996948</ele>
<time>2012-04-01T12:44:23.997Z</time>
</trkpt>
<trkpt lat="42.7702500" lon="-2.6063400">
<ele>1011.356934</ele>
<time>2012-04-01T12:44:27.004Z</time>
</trkpt>
<trkpt lat="42.7702400" lon="-2.6064000">
<ele>1010.472961</ele>
<time>2012-04-01T12:44:31.004Z</time>
</trkpt>
<trkpt lat="42.7702700" lon="-2.6066900">
<ele>1010.747314</ele>
<time>2012-04-01T12:44:46.997Z</time>
</trkpt>
<trkpt lat="42.7702600" lon="-2.6067700">
<ele>1011.082520</ele>
<time>2012-04-01T12:44:51.999Z</time>
</trkpt>
<trkpt lat="42.7702600" lon="-2.6068700">
<ele>1010.960632</ele>
<time>2012-04-01T12:44:58.998Z</time>
</trkpt>
<trkpt lat="42.7702500" lon="-2.6071200">
<ele>1012.118896</ele>
<time>2012-04-01T12:45:13.997Z</time>
</trkpt>
<trkpt lat="42.7702400" lon="-2.6073100">
<ele>1011.844543</ele>
<time>2012-04-01T12:45:25.998Z</time>
</trkpt>
<trkpt lat="42.7702300" lon="-2.6076200">
<ele>1012.697998</ele>
<time>2012-04-01T12:45:43.001Z</time>
</trkpt>
<trkpt lat="42.7702000" lon="-2.6078500">
<ele>1013.581909</ele>
<time>2012-04-01T12:45:55.996Z</time>
</trkpt>
<trkpt lat="42.7701500" lon="-2.6080900">
<ele>1014.069580</ele>
<time>2012-04-01T12:46:08.999Z</time>
</trkpt>
<trkpt lat="42.7701400" lon="-2.6081300">
<ele>1014.069580</ele>
<time>2012-04-01T12:46:11.997Z</time>
</trkpt>
<trkpt lat="42.7701000" lon="-2.6082600">
<ele>1013.277100</ele>
<time>2012-04-01T12:46:22.002Z</time>
</trkpt>
<trkpt lat="42.7700900" lon="-2.6083100">
<ele>1013.063721</ele>
<time>2012-04-01T12:46:41.002Z</time>
</trkpt>
<trkpt lat="42.7700800" lon="-2.6083600">
<ele>1012.819885</ele>
<time>2012-04-01T12:46:45.002Z</time>
</trkpt>
<trkpt lat="42.7701000" lon="-2.6084400">
<ele>1012.332275</ele>
<time>2012-04-01T12:46:49.996Z</time>
</trkpt>
<trkpt lat="42.7701100" lon="-2.6084600">
<ele>1012.301758</ele>
<time>2012-04-01T12:46:52.000Z</time>
</trkpt>
<trkpt lat="42.7701700" lon="-2.6087000">
<ele>1010.960632</ele>
<time>2012-04-01T12:47:06.999Z</time>
</trkpt>
<trkpt lat="42.7702100" lon="-2.6088600">
<ele>1009.528137</ele>
<time>2012-04-01T12:47:15.000Z</time>
</trkpt>
<trkpt lat="42.7701800" lon="-2.6091100">
<ele>1006.541077</ele>
<time>2012-04-01T12:47:29.999Z</time>
</trkpt>
<trkpt lat="42.7702300" lon="-2.6092600">
<ele>1005.078003</ele>
<time>2012-04-01T12:47:40.998Z</time>
</trkpt>
<trkpt lat="42.7702500" lon="-2.6095300">
<ele>1002.944397</ele>
<time>2012-04-01T12:47:55.997Z</time>
</trkpt>
<trkpt lat="42.7702700" lon="-2.6096200">
<ele>1003.310120</ele>
<time>2012-04-01T12:48:00.999Z</time>
</trkpt>
<trkpt lat="42.7702400" lon="-2.6098100">
<ele>1002.609070</ele>
<time>2012-04-01T12:48:10.996Z</time>
</trkpt>
<trkpt lat="42.7701400" lon="-2.6100100">
<ele>999.408691</ele>
<time>2012-04-01T12:48:25.001Z</time>
</trkpt>
<trkpt lat="42.7700500" lon="-2.6102400">
<ele>995.842529</ele>
<time>2012-04-01T12:48:40.000Z</time>
</trkpt>
<trkpt lat="42.7700500" lon="-2.6102500">
<ele>995.751099</ele>
<time>2012-04-01T12:48:41.003Z</time>
</trkpt>
<trkpt lat="42.7699500" lon="-2.6104300">
<ele>991.788696</ele>
<time>2012-04-01T12:48:56.002Z</time>
</trkpt>
<trkpt lat="42.7699000" lon="-2.6105000">
<ele>990.173340</ele>
<time>2012-04-01T12:49:03.000Z</time>
</trkpt>
<trkpt lat="42.7698100" lon="-2.6107000">
<ele>989.075989</ele>
<time>2012-04-01T12:49:16.003Z</time>
</trkpt>
<trkpt lat="42.7696400" lon="-2.6108800">
<ele>988.984558</ele>
<time>2012-04-01T12:49:32.998Z</time>
</trkpt>
<trkpt lat="42.7696200" lon="-2.6108900">
<ele>989.075989</ele>
<time>2012-04-01T12:49:34.000Z</time>
</trkpt>
<trkpt lat="42.7695200" lon="-2.6111100">
<ele>989.289368</ele>
<time>2012-04-01T12:49:47.997Z</time>
</trkpt>
<trkpt lat="42.7695000" lon="-2.6111400">
<ele>989.563721</ele>
<time>2012-04-01T12:49:51.004Z</time>
</trkpt>
<trkpt lat="42.7694700" lon="-2.6112100">
<ele>989.959900</ele>
<time>2012-04-01T12:49:55.998Z</time>
</trkpt>
<trkpt lat="42.7693300" lon="-2.6113900">
<ele>992.946960</ele>
<time>2012-04-01T12:50:11.999Z</time>
</trkpt>
<trkpt lat="42.7692300" lon="-2.6115700">
<ele>996.756958</ele>
<time>2012-04-01T12:50:29.996Z</time>
</trkpt>
<trkpt lat="42.7691300" lon="-2.6116800">
<ele>1000.201172</ele>
<time>2012-04-01T12:50:49.998Z</time>
</trkpt>
<trkpt lat="42.7690400" lon="-2.6117800">
<ele>1003.828308</ele>
<time>2012-04-01T12:51:09.999Z</time>
</trkpt>
<trkpt lat="42.7689400" lon="-2.6118800">
<ele>1006.053345</ele>
<time>2012-04-01T12:51:31.003Z</time>
</trkpt>
<trkpt lat="42.7688700" lon="-2.6119900">
<ele>1007.699280</ele>
<time>2012-04-01T12:51:50.003Z</time>
</trkpt>
<trkpt lat="42.7688700" lon="-2.6121600">
<ele>1007.455444</ele>
<time>2012-04-01T12:52:05.002Z</time>
</trkpt>
<trkpt lat="42.7688700" lon="-2.6123100">
<ele>1007.150635</ele>
<time>2012-04-01T12:52:21.003Z</time>
</trkpt>
<trkpt lat="42.7688200" lon="-2.6124700">
<ele>1008.004089</ele>
<time>2012-04-01T12:52:35.000Z</time>
</trkpt>
<trkpt lat="42.7688000" lon="-2.6126600">
<ele>1011.204529</ele>
<time>2012-04-01T12:52:48.003Z</time>
</trkpt>
<trkpt lat="42.7687400" lon="-2.6128700">
<ele>1014.161072</ele>
<time>2012-04-01T12:53:03.002Z</time>
</trkpt>
<trkpt lat="42.7687000" lon="-2.6130700">
<ele>1016.416565</ele>
<time>2012-04-01T12:53:16.999Z</time>
</trkpt>
<trkpt lat="42.7686400" lon="-2.6132400">
<ele>1016.995728</ele>
<time>2012-04-01T12:53:31.004Z</time>
</trkpt>
<trkpt lat="42.7685600" lon="-2.6134400">
<ele>1016.995728</ele>
<time>2012-04-01T12:53:46.003Z</time>
</trkpt>
<trkpt lat="42.7685100" lon="-2.6136000">
<ele>1017.696716</ele>
<time>2012-04-01T12:53:56.000Z</time>
</trkpt>
<trkpt lat="42.7684700" lon="-2.6138200">
<ele>1017.056641</ele>
<time>2012-04-01T12:54:10.999Z</time>
</trkpt>
<trkpt lat="42.7683900" lon="-2.6140200">
<ele>1017.910095</ele>
<time>2012-04-01T12:54:28.002Z</time>
</trkpt>
<trkpt lat="42.7683500" lon="-2.6142200">
<ele>1019.068298</ele>
<time>2012-04-01T12:54:41.999Z</time>
</trkpt>
<trkpt lat="42.7682900" lon="-2.6144100">
<ele>1021.080017</ele>
<time>2012-04-01T12:54:56.998Z</time>
</trkpt>
<trkpt lat="42.7682300" lon="-2.6145500">
<ele>1022.177307</ele>
<time>2012-04-01T12:55:08.999Z</time>
</trkpt>
<trkpt lat="42.7682800" lon="-2.6145600">
<ele>1021.506714</ele>
<time>2012-04-01T12:55:26.996Z</time>
</trkpt>
<trkpt lat="42.7683300" lon="-2.6145400">
<ele>1019.677917</ele>
<time>2012-04-01T12:55:46.004Z</time>
</trkpt>
<trkpt lat="42.7683000" lon="-2.6146200">
<ele>1020.409485</ele>
<time>2012-04-01T12:56:09.004Z</time>
</trkpt>
<trkpt lat="42.7682700" lon="-2.6145900">
<ele>1021.598145</ele>
<time>2012-04-01T12:56:25.999Z</time>
</trkpt>
<trkpt lat="42.7682400" lon="-2.6146400">
<ele>1021.841980</ele>
<time>2012-04-01T12:56:40.998Z</time>
</trkpt>
<trkpt lat="42.7682200" lon="-2.6146500">
<ele>1022.055359</ele>
<time>2012-04-01T12:56:46.000Z</time>
</trkpt>
<trkpt lat="42.7681200" lon="-2.6147400">
<ele>1020.653320</ele>
<time>2012-03-18T09:27:09.003Z</time>
</trkpt>
<trkpt lat="42.7680600" lon="-2.6147400">
<ele>1020.653320</ele>
<time>2012-03-18T09:33:35.004Z</time>
</trkpt>
<trkpt lat="42.7680400" lon="-2.6147600">
<ele>1020.561829</ele>
<time>2012-03-18T09:33:36.999Z</time>
</trkpt>
<trkpt lat="42.7679100" lon="-2.6148300">
<ele>1018.611084</ele>
<time>2012-03-18T09:33:50.996Z</time>
</trkpt>
<trkpt lat="42.7678100" lon="-2.6148900">
<ele>1016.934692</ele>
<time>2012-03-18T09:34:02.997Z</time>
</trkpt>
<trkpt lat="42.7677800" lon="-2.6149600">
<ele>1016.233704</ele>
<time>2012-03-18T09:34:08.000Z</time>
</trkpt>
<trkpt lat="42.7676300" lon="-2.6150400">
<ele>1013.642883</ele>
<time>2012-03-18T09:34:25.997Z</time>
</trkpt>
<trkpt lat="42.7675700" lon="-2.6150600">
<ele>1012.941833</ele>
<time>2012-03-18T09:34:36.002Z</time>
</trkpt>
<trkpt lat="42.7673900" lon="-2.6151800">
<ele>1009.954773</ele>
<time>2012-03-18T09:34:52.003Z</time>
</trkpt>
<trkpt lat="42.7673200" lon="-2.6152300">
<ele>1009.070923</ele>
<time>2012-03-18T09:34:59.002Z</time>
</trkpt>
<trkpt lat="42.7672700" lon="-2.6152400">
<ele>1008.400269</ele>
<time>2012-03-18T09:35:03.002Z</time>
</trkpt>
<trkpt lat="42.7671900" lon="-2.6153100">
<ele>1007.912659</ele>
<time>2012-03-18T09:35:11.003Z</time>
</trkpt>
<trkpt lat="42.7671100" lon="-2.6153500">
<ele>1007.607849</ele>
<time>2012-03-18T09:35:16.999Z</time>
</trkpt>
<trkpt lat="42.7669500" lon="-2.6154400">
<ele>1006.022888</ele>
<time>2012-03-18T09:35:31.004Z</time>
</trkpt>
<trkpt lat="42.7668400" lon="-2.6155100">
<ele>1004.986572</ele>
<time>2012-03-18T09:35:42.003Z</time>
</trkpt>
<trkpt lat="42.7668000" lon="-2.6155300">
<ele>1004.559875</ele>
<time>2012-03-18T09:35:46.003Z</time>
</trkpt>
<trkpt lat="42.7666500" lon="-2.6156200">
<ele>1002.852966</ele>
<time>2012-03-18T09:36:01.002Z</time>
</trkpt>
<trkpt lat="42.7664700" lon="-2.6157400">
<ele>1001.603333</ele>
<time>2012-03-18T09:36:17.004Z</time>
</trkpt>
<trkpt lat="42.7663100" lon="-2.6158200">
<ele>1000.810791</ele>
<time>2012-03-18T09:36:32.003Z</time>
</trkpt>
<trkpt lat="42.7661600" lon="-2.6159000">
<ele>1000.170715</ele>
<time>2012-03-18T09:36:45.999Z</time>
</trkpt>
<trkpt lat="42.7660500" lon="-2.6160000">
<ele>998.921082</ele>
<time>2012-03-18T09:36:59.003Z</time>
</trkpt>
<trkpt lat="42.7659800" lon="-2.6160300">
<ele>997.092285</ele>
<time>2012-03-18T09:37:42.004Z</time>
</trkpt>
<trkpt lat="42.7659200" lon="-2.6160800">
<ele>994.409973</ele>
<time>2012-03-18T09:37:49.002Z</time>
</trkpt>
<trkpt lat="42.7657600" lon="-2.6161500">
<ele>989.990417</ele>
<time>2012-03-18T09:38:04.001Z</time>
</trkpt>
<trkpt lat="42.7657300" lon="-2.6161800">
<ele>988.740662</ele>
<time>2012-03-18T09:38:08.002Z</time>
</trkpt>
<trkpt lat="42.7657100" lon="-2.6161800">
<ele>988.283508</ele>
<time>2012-03-18T09:38:09.997Z</time>
</trkpt>
<trkpt lat="42.7656700" lon="-2.6162300">
<ele>986.637573</ele>
<time>2012-03-18T09:38:13.998Z</time>
</trkpt>
<trkpt lat="42.7656200" lon="-2.6163100">
<ele>985.144104</ele>
<time>2012-03-18T09:38:20.996Z</time>
</trkpt>
<trkpt lat="42.7655800" lon="-2.6163300">
<ele>984.107727</ele>
<time>2012-03-18T09:38:24.996Z</time>
</trkpt>
<trkpt lat="42.7654200" lon="-2.6163900">
<ele>979.352905</ele>
<time>2012-03-18T09:38:39.002Z</time>
</trkpt>
<trkpt lat="42.7652600" lon="-2.6164400">
<ele>975.085693</ele>
<time>2012-03-18T09:38:54.001Z</time>
</trkpt>
<trkpt lat="42.7651600" lon="-2.6165000">
<ele>973.439758</ele>
<time>2012-03-18T09:39:06.002Z</time>
</trkpt>
<trkpt lat="42.7651500" lon="-2.6164900">
<ele>973.439758</ele>
<time>2012-03-18T09:39:15.998Z</time>
</trkpt>
<trkpt lat="42.7651000" lon="-2.6165200">
<ele>972.677734</ele>
<time>2012-03-18T09:39:21.001Z</time>
</trkpt>
<trkpt lat="42.7649400" lon="-2.6164300">
<ele>971.580505</ele>
<time>2012-03-18T09:39:34.004Z</time>
</trkpt>
<trkpt lat="42.7647900" lon="-2.6162700">
<ele>971.092773</ele>
<time>2012-03-18T09:39:49.997Z</time>
</trkpt>
<trkpt lat="42.7646400" lon="-2.6161400">
<ele>969.446899</ele>
<time>2012-03-18T09:40:04.996Z</time>
</trkpt>
<trkpt lat="42.7645000" lon="-2.6160100">
<ele>967.800964</ele>
<time>2012-03-18T09:40:20.997Z</time>
</trkpt>
<trkpt lat="42.7643900" lon="-2.6159200">
<ele>966.673218</ele>
<time>2012-03-18T09:40:40.999Z</time>
</trkpt>
<trkpt lat="42.7642500" lon="-2.6157700">
<ele>964.082397</ele>
<time>2012-03-18T09:40:55.004Z</time>
</trkpt>
<trkpt lat="42.7641700" lon="-2.6156300">
<ele>962.863220</ele>
<time>2012-03-18T09:41:06.996Z</time>
</trkpt>
<trkpt lat="42.7640100" lon="-2.6154600">
<ele>960.577209</ele>
<time>2012-03-18T09:41:22.998Z</time>
</trkpt>
<trkpt lat="42.7638900" lon="-2.6153600">
<ele>958.199768</ele>
<time>2012-03-18T09:41:37.003Z</time>
</trkpt>
<trkpt lat="42.7638400" lon="-2.6153400">
<ele>957.651062</ele>
<time>2012-03-18T09:41:41.004Z</time>
</trkpt>
<trkpt lat="42.7636800" lon="-2.6151500">
<ele>954.206909</ele>
<time>2012-03-18T09:42:00.003Z</time>
</trkpt>
<trkpt lat="42.7635500" lon="-2.6150700">
<ele>951.616089</ele>
<time>2012-03-18T09:42:16.004Z</time>
</trkpt>
<trkpt lat="42.7635400" lon="-2.6150700">
<ele>951.311279</ele>
<time>2012-03-18T09:42:35.997Z</time>
</trkpt>
<trkpt lat="42.7635400" lon="-2.6150700">
<ele>951.311279</ele>
<time>2012-03-18T09:42:49.000Z</time>
</trkpt>
<trkpt lat="42.7633700" lon="-2.6149000">
<ele>949.360535</ele>
<time>2012-03-18T09:43:05.002Z</time>
</trkpt>
<trkpt lat="42.7632100" lon="-2.6147300">
<ele>947.562256</ele>
<time>2012-03-18T09:43:21.003Z</time>
</trkpt>
<trkpt lat="42.7631500" lon="-2.6146600">
<ele>947.044128</ele>
<time>2012-03-18T09:43:28.001Z</time>
</trkpt>
<trkpt lat="42.7630200" lon="-2.6145100">
<ele>944.697083</ele>
<time>2012-03-18T09:43:43.000Z</time>
</trkpt>
<trkpt lat="42.7629200" lon="-2.6144100">
<ele>943.508423</ele>
<time>2012-03-18T09:43:56.997Z</time>
</trkpt>
<trkpt lat="42.7627900" lon="-2.6142900">
<ele>940.307983</ele>
<time>2012-03-18T09:44:11.003Z</time>
</trkpt>
<trkpt lat="42.7626400" lon="-2.6141500">
<ele>937.778137</ele>
<time>2012-03-18T09:44:27.997Z</time>
</trkpt>
<trkpt lat="42.7625500" lon="-2.6140700">
<ele>934.973999</ele>
<time>2012-03-18T09:44:38.996Z</time>
</trkpt>
<trkpt lat="42.7625100" lon="-2.6140600">
<ele>934.181519</ele>
<time>2012-03-18T09:44:42.003Z</time>
</trkpt>
<trkpt lat="42.7623700" lon="-2.6139200">
<ele>931.712646</ele>
<time>2012-03-18T09:44:58.004Z</time>
</trkpt>
<trkpt lat="42.7623100" lon="-2.6138700">
<ele>930.584900</ele>
<time>2012-03-18T09:45:02.998Z</time>
</trkpt>
<trkpt lat="42.7621700" lon="-2.6137500">
<ele>928.055054</ele>
<time>2012-03-18T09:45:17.004Z</time>
</trkpt>
<trkpt lat="42.7620500" lon="-2.6135900">
<ele>926.439575</ele>
<time>2012-03-18T09:45:32.996Z</time>
</trkpt>
<trkpt lat="42.7619500" lon="-2.6135000">
<ele>925.677612</ele>
<time>2012-03-18T09:45:50.000Z</time>
</trkpt>
<trkpt lat="42.7617700" lon="-2.6133600">
<ele>923.726929</ele>
<time>2012-03-18T09:46:04.999Z</time>
</trkpt>
<trkpt lat="42.7616100" lon="-2.6132000">
<ele>921.837097</ele>
<time>2012-03-18T09:46:21.000Z</time>
</trkpt>
<trkpt lat="42.7614500" lon="-2.6130400">
<ele>920.953186</ele>
<time>2012-03-18T09:46:35.999Z</time>
</trkpt>
<trkpt lat="42.7614400" lon="-2.6130000">
<ele>921.014160</ele>
<time>2012-03-18T09:46:38.997Z</time>
</trkpt>
<trkpt lat="42.7613900" lon="-2.6129800">
<ele>921.014160</ele>
<time>2012-03-18T09:46:42.997Z</time>
</trkpt>
<trkpt lat="42.7612600" lon="-2.6128100">
<ele>920.252136</ele>
<time>2012-03-18T09:46:58.999Z</time>
</trkpt>
<trkpt lat="42.7611800" lon="-2.6127100">
<ele>920.038818</ele>
<time>2012-03-18T09:47:09.004Z</time>
</trkpt>
<trkpt lat="42.7611100" lon="-2.6126200">
<ele>919.703491</ele>
<time>2012-03-18T09:47:17.998Z</time>
</trkpt>
<trkpt lat="42.7610100" lon="-2.6125500">
<ele>919.093872</ele>
<time>2012-03-18T09:47:27.001Z</time>
</trkpt>
<trkpt lat="42.7609500" lon="-2.6124800">
<ele>918.819580</ele>
<time>2012-03-18T09:47:40.004Z</time>
</trkpt>
<trkpt lat="42.7608600" lon="-2.6122800">
<ele>918.514771</ele>
<time>2012-03-18T09:47:55.003Z</time>
</trkpt>
<trkpt lat="42.7608500" lon="-2.6122200">
<ele>918.057617</ele>
<time>2012-03-18T09:47:59.997Z</time>
</trkpt>
<trkpt lat="42.7608800" lon="-2.6121600">
<ele>917.844238</ele>
<time>2012-03-18T09:48:10.996Z</time>
</trkpt>
<trkpt lat="42.7608500" lon="-2.6121500">
<ele>917.813721</ele>
<time>2012-03-18T09:48:32.000Z</time>
</trkpt>
<trkpt lat="42.7608100" lon="-2.6121500">
<ele>917.996643</ele>
<time>2012-03-18T09:48:53.004Z</time>
</trkpt>
<trkpt lat="42.7607700" lon="-2.6121400">
<ele>918.027100</ele>
<time>2012-03-18T09:49:12.996Z</time>
</trkpt>
<trkpt lat="42.7607600" lon="-2.6121500">
<ele>918.027100</ele>
<time>2012-03-18T09:49:24.997Z</time>
</trkpt>
<trkpt lat="42.7606700" lon="-2.6121900">
<ele>918.057617</ele>
<time>2012-03-18T09:49:54.002Z</time>
</trkpt>
<trkpt lat="42.7605000" lon="-2.6122200">
<ele>918.331909</ele>
<time>2012-03-18T09:50:07.999Z</time>
</trkpt>
<trkpt lat="42.7604600" lon="-2.6122000">
<ele>918.270935</ele>
<time>2012-03-18T09:50:17.002Z</time>
</trkpt>
<trkpt lat="42.7603300" lon="-2.6121000">
<ele>917.417480</ele>
<time>2012-03-18T09:50:33.996Z</time>
</trkpt>
<trkpt lat="42.7601700" lon="-2.6120200">
<ele>915.863037</ele>
<time>2012-03-18T09:50:49.004Z</time>
</trkpt>
<trkpt lat="42.7600000" lon="-2.6120400">
<ele>914.948669</ele>
<time>2012-03-18T09:51:03.001Z</time>
</trkpt>
<trkpt lat="42.7600000" lon="-2.6120500">
<ele>915.009583</ele>
<time>2012-03-18T09:51:04.003Z</time>
</trkpt>
<trkpt lat="42.7598800" lon="-2.6121200">
<ele>915.466797</ele>
<time>2012-03-18T09:51:16.998Z</time>
</trkpt>
<trkpt lat="42.7598400" lon="-2.6121700">
<ele>915.222961</ele>
<time>2012-03-18T09:51:31.997Z</time>
</trkpt>
<trkpt lat="42.7598000" lon="-2.6121100">
<ele>914.948669</ele>
<time>2012-03-18T09:51:50.003Z</time>
</trkpt>
<trkpt lat="42.7597900" lon="-2.6118700">
<ele>913.119873</ele>
<time>2012-03-18T09:52:05.002Z</time>
</trkpt>
<trkpt lat="42.7598000" lon="-2.6116400">
<ele>913.820923</ele>
<time>2012-03-18T09:52:18.998Z</time>
</trkpt>
<trkpt lat="42.7598000" lon="-2.6116300">
<ele>913.759888</ele>
<time>2012-03-18T09:52:20.001Z</time>
</trkpt>
<trkpt lat="42.7598200" lon="-2.6114400">
<ele>915.009583</ele>
<time>2012-03-18T09:52:33.997Z</time>
</trkpt>
<trkpt lat="42.7598300" lon="-2.6113300">
<ele>915.161987</ele>
<time>2012-03-18T09:52:40.996Z</time>
</trkpt>
<trkpt lat="42.7598500" lon="-2.6110800">
<ele>915.954529</ele>
<time>2012-03-18T09:52:56.004Z</time>
</trkpt>
<trkpt lat="42.7598500" lon="-2.6109000">
<ele>916.564087</ele>
<time>2012-03-18T09:53:07.996Z</time>
</trkpt>
<trkpt lat="42.7598600" lon="-2.6107000">
<ele>916.625061</ele>
<time>2012-03-18T09:53:20.999Z</time>
</trkpt>
<trkpt lat="42.7598400" lon="-2.6103800">
<ele>915.222961</ele>
<time>2012-03-18T09:53:38.996Z</time>
</trkpt>
<trkpt lat="42.7598200" lon="-2.6101500">
<ele>914.460938</ele>
<time>2012-03-18T09:53:54.004Z</time>
</trkpt>
<trkpt lat="42.7598100" lon="-2.6101300">
<ele>914.217102</ele>
<time>2012-03-18T09:54:01.996Z</time>
</trkpt>
<trkpt lat="42.7598200" lon="-2.6100000">
<ele>914.064697</ele>
<time>2012-03-18T09:54:18.999Z</time>
</trkpt>
<trkpt lat="42.7598300" lon="-2.6098200">
<ele>914.308533</ele>
<time>2012-03-18T09:54:28.996Z</time>
</trkpt>
<trkpt lat="42.7599000" lon="-2.6096000">
<ele>913.973328</ele>
<time>2012-03-18T09:54:41.999Z</time>
</trkpt>
<trkpt lat="42.7599100" lon="-2.6094100">
<ele>914.095215</ele>
<time>2012-03-18T09:54:54.000Z</time>
</trkpt>
<trkpt lat="42.7599500" lon="-2.6091600">
<ele>914.613342</ele>
<time>2012-03-18T09:55:08.999Z</time>
</trkpt>
<trkpt lat="42.7599300" lon="-2.6091000">
<ele>914.308533</ele>
<time>2012-03-18T09:55:22.002Z</time>
</trkpt>
<trkpt lat="42.7599200" lon="-2.6090900">
<ele>914.217102</ele>
<time>2012-03-18T09:55:27.998Z</time>
</trkpt>
<trkpt lat="42.7598400" lon="-2.6089300">
<ele>913.302673</ele>
<time>2012-03-18T09:55:39.999Z</time>
</trkpt>
<trkpt lat="42.7597400" lon="-2.6087700">
<ele>912.235901</ele>
<time>2012-03-18T09:55:53.003Z</time>
</trkpt>
<trkpt lat="42.7597200" lon="-2.6087400">
<ele>912.083496</ele>
<time>2012-03-18T09:55:54.998Z</time>
</trkpt>
<trkpt lat="42.7596100" lon="-2.6085800">
<ele>909.706116</ele>
<time>2012-03-18T09:56:09.004Z</time>
</trkpt>
<trkpt lat="42.7596000" lon="-2.6085700">
<ele>909.614685</ele>
<time>2012-03-18T09:56:11.000Z</time>
</trkpt>
<trkpt lat="42.7595900" lon="-2.6085300">
<ele>909.614685</ele>
<time>2012-03-18T09:56:13.998Z</time>
</trkpt>
<trkpt lat="42.7595400" lon="-2.6085100">
<ele>909.065979</ele>
<time>2012-03-18T09:56:17.998Z</time>
</trkpt>
<trkpt lat="42.7594800" lon="-2.6085100">
<ele>908.517334</ele>
<time>2012-03-18T09:56:23.001Z</time>
</trkpt>
<trkpt lat="42.7594400" lon="-2.6084700">
<ele>907.694397</ele>
<time>2012-03-18T09:56:27.001Z</time>
</trkpt>
<trkpt lat="42.7592800" lon="-2.6083800">
<ele>905.103577</ele>
<time>2012-03-18T09:56:42.000Z</time>
</trkpt>
<trkpt lat="42.7591800" lon="-2.6084100">
<ele>904.158691</ele>
<time>2012-03-18T09:56:55.003Z</time>
</trkpt>
<trkpt lat="42.7591600" lon="-2.6083500">
<ele>903.518677</ele>
<time>2012-03-18T09:56:59.997Z</time>
</trkpt>
<trkpt lat="42.7591100" lon="-2.6082400">
<ele>902.299438</ele>
<time>2012-03-18T09:57:13.000Z</time>
</trkpt>
<trkpt lat="42.7590800" lon="-2.6082800">
<ele>901.994629</ele>
<time>2012-03-18T09:58:15.001Z</time>
</trkpt>
<trkpt lat="42.7590300" lon="-2.6083000">
<ele>901.506958</ele>
<time>2012-03-18T09:58:30.000Z</time>
</trkpt>
<trkpt lat="42.7590000" lon="-2.6083200">
<ele>901.415466</ele>
<time>2012-03-18T10:14:04.001Z</time>
</trkpt>
<trkpt lat="42.7589400" lon="-2.6082900">
<ele>901.110718</ele>
<time>2012-03-18T10:14:09.997Z</time>
</trkpt>
<trkpt lat="42.7589300" lon="-2.6082700">
<ele>901.019287</ele>
<time>2012-03-18T10:14:12.002Z</time>
</trkpt>
<trkpt lat="42.7589300" lon="-2.6080800">
<ele>900.287720</ele>
<time>2012-03-18T10:14:24.996Z</time>
</trkpt>
<trkpt lat="42.7589000" lon="-2.6080100">
<ele>899.952515</ele>
<time>2012-03-18T10:14:40.998Z</time>
</trkpt>
<trkpt lat="42.7589000" lon="-2.6079100">
<ele>900.013428</ele>
<time>2012-03-18T10:14:59.004Z</time>
</trkpt>
<trkpt lat="42.7588900" lon="-2.6078800">
<ele>899.739075</ele>
<time>2012-03-18T10:15:15.998Z</time>
</trkpt>
<trkpt lat="42.7588400" lon="-2.6077200">
<ele>898.641846</ele>
<time>2012-03-18T10:15:26.997Z</time>
</trkpt>
<trkpt lat="42.7588100" lon="-2.6076400">
<ele>897.971313</ele>
<time>2012-03-18T10:15:33.002Z</time>
</trkpt>
<trkpt lat="42.7587800" lon="-2.6075500">
<ele>897.849365</ele>
<time>2012-03-18T10:15:37.996Z</time>
</trkpt>
<trkpt lat="42.7587000" lon="-2.6073000">
<ele>895.898682</ele>
<time>2012-03-18T10:15:53.997Z</time>
</trkpt>
<trkpt lat="42.7586300" lon="-2.6071200">
<ele>894.008911</ele>
<time>2012-03-18T10:16:05.998Z</time>
</trkpt>
<trkpt lat="42.7586100" lon="-2.6070700">
<ele>893.978394</ele>
<time>2012-03-18T10:16:08.996Z</time>
</trkpt>
<trkpt lat="42.7585700" lon="-2.6069100">
<ele>892.972534</ele>
<time>2012-03-18T10:16:30.000Z</time>
</trkpt>
<trkpt lat="42.7585200" lon="-2.6068300">
<ele>892.850647</ele>
<time>2012-03-18T10:19:02.997Z</time>
</trkpt>
<trkpt lat="42.7584300" lon="-2.6066400">
<ele>893.185913</ele>
<time>2012-03-18T10:19:17.003Z</time>
</trkpt>
<trkpt lat="42.7582700" lon="-2.6065200">
<ele>893.246887</ele>
<time>2012-03-18T10:19:30.999Z</time>
</trkpt>
<trkpt lat="42.7581400" lon="-2.6064400">
<ele>894.069885</ele>
<time>2012-03-18T10:19:44.003Z</time>
</trkpt>
<trkpt lat="42.7580800" lon="-2.6064500">
<ele>893.795471</ele>
<time>2012-03-18T10:20:04.004Z</time>
</trkpt>
<trkpt lat="42.7578900" lon="-2.6063300">
<ele>893.765076</ele>
<time>2012-03-18T10:20:19.997Z</time>
</trkpt>
<trkpt lat="42.7577500" lon="-2.6062800">
<ele>893.825989</ele>
<time>2012-03-18T10:20:33.000Z</time>
</trkpt>
<trkpt lat="42.7575700" lon="-2.6061900">
<ele>894.161316</ele>
<time>2012-03-18T10:20:49.001Z</time>
</trkpt>
<trkpt lat="42.7574900" lon="-2.6061500">
<ele>894.039368</ele>
<time>2012-03-18T10:20:56.000Z</time>
</trkpt>
<trkpt lat="42.7573900" lon="-2.6060700">
<ele>893.338318</ele>
<time>2012-03-18T10:21:05.996Z</time>
</trkpt>
<trkpt lat="42.7573100" lon="-2.6059700">
<ele>893.460266</ele>
<time>2012-03-18T10:21:18.999Z</time>
</trkpt>
<trkpt lat="42.7573000" lon="-2.6059400">
<ele>893.338318</ele>
<time>2012-03-18T10:21:33.998Z</time>
</trkpt>
<trkpt lat="42.7572500" lon="-2.6059400">
<ele>892.728699</ele>
<time>2012-03-18T10:21:48.004Z</time>
</trkpt>
<trkpt lat="42.7570800" lon="-2.6059400">
<ele>891.052307</ele>
<time>2012-03-18T10:22:03.003Z</time>
</trkpt>
<trkpt lat="42.7570600" lon="-2.6059500">
<ele>890.960938</ele>
<time>2012-03-18T10:22:06.001Z</time>
</trkpt>
<trkpt lat="42.7569400" lon="-2.6060600">
<ele>890.107483</ele>
<time>2012-03-18T10:22:22.002Z</time>
</trkpt>
<trkpt lat="42.7568200" lon="-2.6061400">
<ele>888.552917</ele>
<time>2012-03-18T10:22:35.999Z</time>
</trkpt>
<trkpt lat="42.7568000" lon="-2.6061500">
<ele>888.095764</ele>
<time>2012-03-18T10:22:38.004Z</time>
</trkpt>
<trkpt lat="42.7566400" lon="-2.6063000">
<ele>886.205994</ele>
<time>2012-03-18T10:22:53.003Z</time>
</trkpt>
<trkpt lat="42.7566100" lon="-2.6063400">
<ele>885.840271</ele>
<time>2012-03-18T10:22:57.996Z</time>
</trkpt>
<trkpt lat="42.7564900" lon="-2.6064400">
<ele>884.285767</ele>
<time>2012-03-18T10:23:09.004Z</time>
</trkpt>
<trkpt lat="42.7563900" lon="-2.6064900">
<ele>883.645691</ele>
<time>2012-03-18T10:23:20.003Z</time>
</trkpt>
<trkpt lat="42.7562300" lon="-2.6065100">
<ele>883.249451</ele>
<time>2012-03-18T10:23:32.004Z</time>
</trkpt>
<trkpt lat="42.7560400" lon="-2.6066200">
<ele>881.694946</ele>
<time>2012-03-18T10:23:47.003Z</time>
</trkpt>
<trkpt lat="42.7558600" lon="-2.6066500">
<ele>880.597717</ele>
<time>2012-03-18T10:24:02.002Z</time>
</trkpt>
<trkpt lat="42.7556500" lon="-2.6066800">
<ele>879.012695</ele>
<time>2012-03-18T10:24:18.996Z</time>
</trkpt>
<trkpt lat="42.7555000" lon="-2.6067500">
<ele>877.122925</ele>
<time>2012-03-18T10:24:33.002Z</time>
</trkpt>
<trkpt lat="42.7552900" lon="-2.6068500">
<ele>874.776001</ele>
<time>2012-03-18T10:24:49.997Z</time>
</trkpt>
<trkpt lat="42.7551700" lon="-2.6068500">
<ele>873.526306</ele>
<time>2012-03-18T10:25:00.002Z</time>
</trkpt>
<trkpt lat="42.7550000" lon="-2.6068600">
<ele>870.600281</ele>
<time>2012-03-18T10:25:13.999Z</time>
</trkpt>
<trkpt lat="42.7548600" lon="-2.6069000">
<ele>867.765625</ele>
<time>2012-03-18T10:25:26.000Z</time>
</trkpt>
<trkpt lat="42.7546800" lon="-2.6069200">
<ele>863.589844</ele>
<time>2012-03-18T10:25:40.999Z</time>
</trkpt>
<trkpt lat="42.7545100" lon="-2.6070000">
<ele>860.054138</ele>
<time>2012-03-18T10:25:57.000Z</time>
</trkpt>
<trkpt lat="42.7544000" lon="-2.6071300">
<ele>857.585327</ele>
<time>2012-03-18T10:26:10.003Z</time>
</trkpt>
<trkpt lat="42.7543300" lon="-2.6071800">
<ele>856.244141</ele>
<time>2012-03-18T10:26:15.999Z</time>
</trkpt>
<trkpt lat="42.7542600" lon="-2.6072500">
<ele>856.030823</ele>
<time>2012-03-18T10:26:24.000Z</time>
</trkpt>
<trkpt lat="42.7542600" lon="-2.6072500">
<ele>856.030823</ele>
<time>2012-03-18T10:26:37.997Z</time>
</trkpt>
<trkpt lat="42.7541600" lon="-2.6071400">
<ele>855.146912</ele>
<time>2012-03-18T10:27:07.001Z</time>
</trkpt>
<trkpt lat="42.7540300" lon="-2.6069000">
<ele>856.945190</ele>
<time>2012-03-18T10:27:23.996Z</time>
</trkpt>
<trkpt lat="42.7539900" lon="-2.6068300">
<ele>858.072937</ele>
<time>2012-03-18T10:33:52.001Z</time>
</trkpt>
<trkpt lat="42.7539900" lon="-2.6066900">
<ele>859.749329</ele>
<time>2012-03-18T10:34:05.998Z</time>
</trkpt>
<trkpt lat="42.7539800" lon="-2.6066200">
<ele>860.602783</ele>
<time>2012-03-18T10:34:09.998Z</time>
</trkpt>
<trkpt lat="42.7540200" lon="-2.6064500">
<ele>862.370667</ele>
<time>2012-03-18T10:34:24.997Z</time>
</trkpt>
<trkpt lat="42.7540100" lon="-2.6063700">
<ele>863.986084</ele>
<time>2012-03-18T10:34:44.999Z</time>
</trkpt>
<trkpt lat="42.7540300" lon="-2.6062600">
<ele>864.626160</ele>
<time>2012-03-18T10:34:58.002Z</time>
</trkpt>
<trkpt lat="42.7540500" lon="-2.6062700">
<ele>864.412781</ele>
<time>2012-03-18T10:35:14.004Z</time>
</trkpt>
<trkpt lat="42.7540600" lon="-2.6061200">
<ele>866.759766</ele>
<time>2012-03-18T10:35:29.996Z</time>
</trkpt>
<trkpt lat="42.7540900" lon="-2.6060200">
<ele>867.857056</ele>
<time>2012-03-18T10:35:41.997Z</time>
</trkpt>
<trkpt lat="42.7540900" lon="-2.6059800">
<ele>868.131348</ele>
<time>2012-03-18T10:35:44.002Z</time>
</trkpt>
<trkpt lat="42.7540300" lon="-2.6059000">
<ele>868.619080</ele>
<time>2012-03-18T10:35:56.996Z</time>
</trkpt>
<trkpt lat="42.7540000" lon="-2.6058400">
<ele>869.137207</ele>
<time>2012-03-18T10:36:04.003Z</time>
</trkpt>
<trkpt lat="42.7538900" lon="-2.6057300">
<ele>870.143066</ele>
<time>2012-03-18T10:36:16.004Z</time>
</trkpt>
<trkpt lat="42.7538900" lon="-2.6057000">
<ele>870.386902</ele>
<time>2012-03-18T10:36:18.000Z</time>
</trkpt>
<trkpt lat="42.7538700" lon="-2.6056200">
<ele>870.996521</ele>
<time>2012-03-18T10:36:41.000Z</time>
</trkpt>
<trkpt lat="42.7539000" lon="-2.6056000">
<ele>871.209839</ele>
<time>2012-03-18T10:36:53.001Z</time>
</trkpt>
<trkpt lat="42.7539300" lon="-2.6054300">
<ele>872.429077</ele>
<time>2012-03-18T10:37:03.999Z</time>
</trkpt>
<trkpt lat="42.7539800" lon="-2.6053000">
<ele>873.495850</ele>
<time>2012-03-18T10:37:13.002Z</time>
</trkpt>
<trkpt lat="42.7540600" lon="-2.6050800">
<ele>875.568481</ele>
<time>2012-03-18T10:37:26.999Z</time>
</trkpt>
<trkpt lat="42.7541000" lon="-2.6050000">
<ele>875.934265</ele>
<time>2012-03-18T10:37:35.000Z</time>
</trkpt>
<trkpt lat="42.7541000" lon="-2.6049600">
<ele>876.147583</ele>
<time>2012-03-18T10:37:37.998Z</time>
</trkpt>
<trkpt lat="42.7541900" lon="-2.6048200">
<ele>877.884949</ele>
<time>2012-03-18T10:37:51.001Z</time>
</trkpt>
<trkpt lat="42.7542100" lon="-2.6048000">
<ele>877.945862</ele>
<time>2012-03-18T10:37:52.997Z</time>
</trkpt>
<trkpt lat="42.7542200" lon="-2.6047600">
<ele>878.037354</ele>
<time>2012-03-18T10:38:06.000Z</time>
</trkpt>
<trkpt lat="42.7542300" lon="-2.6047600">
<ele>878.189758</ele>
<time>2012-03-18T10:38:11.996Z</time>
</trkpt>
<trkpt lat="42.7541500" lon="-2.6045800">
<ele>878.585999</ele>
<time>2012-03-18T10:38:26.002Z</time>
</trkpt>
<trkpt lat="42.7541500" lon="-2.6044800">
<ele>879.530884</ele>
<time>2012-03-18T10:38:34.002Z</time>
</trkpt>
<trkpt lat="42.7541400" lon="-2.6044100">
<ele>880.049072</ele>
<time>2012-03-18T10:38:38.003Z</time>
</trkpt>
<trkpt lat="42.7541600" lon="-2.6043200">
<ele>880.993896</ele>
<time>2012-03-18T10:38:47.999Z</time>
</trkpt>
<trkpt lat="42.7541600" lon="-2.6041700">
<ele>882.243591</ele>
<time>2012-03-18T10:39:01.002Z</time>
</trkpt>
<trkpt lat="42.7541900" lon="-2.6040500">
<ele>882.853210</ele>
<time>2012-03-18T10:39:14.999Z</time>
</trkpt>
<trkpt lat="42.7542300" lon="-2.6039900">
<ele>883.432312</ele>
<time>2012-03-18T10:39:32.996Z</time>
</trkpt>
<trkpt lat="42.7542600" lon="-2.6039600">
<ele>884.133362</ele>
<time>2012-03-18T10:39:41.999Z</time>
</trkpt>
<trkpt lat="42.7542700" lon="-2.6038700">
<ele>884.864929</ele>
<time>2012-03-18T10:39:50.000Z</time>
</trkpt>
<trkpt lat="42.7541800" lon="-2.6037000">
<ele>884.468628</ele>
<time>2012-03-18T10:40:02.001Z</time>
</trkpt>
<trkpt lat="42.7541400" lon="-2.6035600">
<ele>884.864929</ele>
<time>2012-03-18T10:40:11.997Z</time>
</trkpt>
<trkpt lat="42.7540700" lon="-2.6033500">
<ele>884.925842</ele>
<time>2012-03-18T10:40:26.003Z</time>
</trkpt>
<trkpt lat="42.7540800" lon="-2.6032900">
<ele>884.925842</ele>
<time>2012-03-18T10:40:30.003Z</time>
</trkpt>
<trkpt lat="42.7541000" lon="-2.6031300">
<ele>885.840271</ele>
<time>2012-03-18T10:40:38.997Z</time>
</trkpt>
<trkpt lat="42.7541100" lon="-2.6029600">
<ele>886.632690</ele>
<time>2012-03-18T10:40:49.996Z</time>
</trkpt>
<trkpt lat="42.7541100" lon="-2.6027300">
<ele>886.937500</ele>
<time>2012-03-18T10:41:04.001Z</time>
</trkpt>
<trkpt lat="42.7541300" lon="-2.6026800">
<ele>887.333740</ele>
<time>2012-03-18T10:41:08.002Z</time>
</trkpt>
<trkpt lat="42.7541500" lon="-2.6026300">
<ele>887.729980</ele>
<time>2012-03-18T10:41:13.004Z</time>
</trkpt>
<trkpt lat="42.7541500" lon="-2.6025700">
<ele>887.699463</ele>
<time>2012-03-18T10:41:29.999Z</time>
</trkpt>
<trkpt lat="42.7541500" lon="-2.6024500">
<ele>887.790955</ele>
<time>2012-03-18T10:41:40.998Z</time>
</trkpt>
<trkpt lat="42.7541900" lon="-2.6021700">
<ele>888.735840</ele>
<time>2012-03-18T10:41:56.999Z</time>
</trkpt>
<trkpt lat="42.7541300" lon="-2.6018800">
<ele>888.370117</ele>
<time>2012-03-18T10:42:13.000Z</time>
</trkpt>
<trkpt lat="42.7541200" lon="-2.6017600">
<ele>887.547119</ele>
<time>2012-03-18T10:42:18.996Z</time>
</trkpt>
<trkpt lat="42.7541200" lon="-2.6016500">
<ele>887.150940</ele>
<time>2012-03-18T10:42:23.999Z</time>
</trkpt>
<trkpt lat="42.7541600" lon="-2.6014800">
<ele>887.547119</ele>
<time>2012-03-18T10:42:34.004Z</time>
</trkpt>
<trkpt lat="42.7541700" lon="-2.6013500">
<ele>887.760498</ele>
<time>2012-03-18T10:42:41.996Z</time>
</trkpt>
<trkpt lat="42.7541600" lon="-2.6012800">
<ele>887.028931</ele>
<time>2012-03-18T10:42:45.996Z</time>
</trkpt>
<trkpt lat="42.7542300" lon="-2.6010500">
<ele>886.998535</ele>
<time>2012-03-18T10:43:01.004Z</time>
</trkpt>
<trkpt lat="42.7541900" lon="-2.6008300">
<ele>885.962158</ele>
<time>2012-03-18T10:43:15.001Z</time>
</trkpt>
<trkpt lat="42.7540700" lon="-2.6006800">
<ele>886.145081</ele>
<time>2012-03-18T10:43:27.002Z</time>
</trkpt>
<trkpt lat="42.7539800" lon="-2.6005100">
<ele>886.419373</ele>
<time>2012-03-18T10:43:40.999Z</time>
</trkpt>
<trkpt lat="42.7538200" lon="-2.6003200">
<ele>888.156677</ele>
<time>2012-03-18T10:43:55.998Z</time>
</trkpt>
<trkpt lat="42.7537100" lon="-2.6001500">
<ele>889.558777</ele>
<time>2012-03-18T10:44:09.001Z</time>
</trkpt>
<trkpt lat="42.7536700" lon="-2.6000600">
<ele>889.284485</ele>
<time>2012-03-18T10:44:14.997Z</time>
</trkpt>
<trkpt lat="42.7535900" lon="-2.5998400">
<ele>888.888245</ele>
<time>2012-03-18T10:44:29.996Z</time>
</trkpt>
<trkpt lat="42.7535300" lon="-2.5996700">
<ele>888.034790</ele>
<time>2012-03-18T10:44:41.004Z</time>
</trkpt>
<trkpt lat="42.7535000" lon="-2.5995200">
<ele>886.815613</ele>
<time>2012-03-18T10:44:53.998Z</time>
</trkpt>
<trkpt lat="42.7534700" lon="-2.5993400">
<ele>885.992676</ele>
<time>2012-03-18T10:45:08.004Z</time>
</trkpt>
<trkpt lat="42.7534600" lon="-2.5992600">
<ele>885.687866</ele>
<time>2012-03-18T10:45:14.000Z</time>
</trkpt>
<trkpt lat="42.7534500" lon="-2.5991900">
<ele>885.413513</ele>
<time>2012-03-18T10:45:18.000Z</time>
</trkpt>
<trkpt lat="42.7534300" lon="-2.5991300">
<ele>884.803894</ele>
<time>2012-03-18T10:45:23.003Z</time>
</trkpt>
<trkpt lat="42.7534100" lon="-2.5991100">
<ele>884.407715</ele>
<time>2012-03-18T10:45:24.998Z</time>
</trkpt>
<trkpt lat="42.7533300" lon="-2.5990400">
<ele>883.036133</ele>
<time>2012-03-18T10:45:42.002Z</time>
</trkpt>
<trkpt lat="42.7533200" lon="-2.5989400">
<ele>883.554260</ele>
<time>2012-03-18T10:45:58.997Z</time>
</trkpt>
<trkpt lat="42.7533900" lon="-2.5989800">
<ele>884.346680</ele>
<time>2012-03-18T10:47:07.996Z</time>
</trkpt>
<trkpt lat="42.7533900" lon="-2.5989800">
<ele>884.346680</ele>
<time>2012-03-18T10:47:11.003Z</time>
</trkpt>
<trkpt lat="42.7533400" lon="-2.5990200">
<ele>883.188538</ele>
<time>2012-03-18T10:47:26.002Z</time>
</trkpt>
<trkpt lat="42.7533100" lon="-2.5990000">
<ele>883.066528</ele>
<time>2012-03-18T10:47:41.001Z</time>
</trkpt>
<trkpt lat="42.7532000" lon="-2.5989400">
<ele>884.621033</ele>
<time>2012-03-18T10:47:53.002Z</time>
</trkpt>
<trkpt lat="42.7530600" lon="-2.5988900">
<ele>886.602234</ele>
<time>2012-03-18T10:48:05.996Z</time>
</trkpt>
<trkpt lat="42.7529800" lon="-2.5988900">
<ele>887.516663</ele>
<time>2012-03-18T10:48:13.003Z</time>
</trkpt>
<trkpt lat="42.7529000" lon="-2.5989300">
<ele>888.095764</ele>
<time>2012-03-18T10:48:20.002Z</time>
</trkpt>
<trkpt lat="42.7527300" lon="-2.5989900">
<ele>888.613892</ele>
<time>2012-03-18T10:48:35.001Z</time>
</trkpt>
<trkpt lat="42.7526500" lon="-2.5990300">
<ele>889.010132</ele>
<time>2012-03-18T10:48:41.999Z</time>
</trkpt>
<trkpt lat="42.7524800" lon="-2.5990400">
<ele>889.619751</ele>
<time>2012-03-18T10:48:56.998Z</time>
</trkpt>
<trkpt lat="42.7523300" lon="-2.5990700">
<ele>890.107483</ele>
<time>2012-03-18T10:49:11.004Z</time>
</trkpt>
<trkpt lat="42.7521500" lon="-2.5991100">
<ele>889.711182</ele>
<time>2012-03-18T10:49:26.996Z</time>
</trkpt>
<trkpt lat="42.7520500" lon="-2.5991600">
<ele>888.034790</ele>
<time>2012-03-18T10:49:37.001Z</time>
</trkpt>
<trkpt lat="42.7519700" lon="-2.5991600">
<ele>887.760498</ele>
<time>2012-03-18T10:49:42.997Z</time>
</trkpt>
<trkpt lat="42.7518500" lon="-2.5991700">
<ele>886.724121</ele>
<time>2012-03-18T10:49:53.996Z</time>
</trkpt>
<trkpt lat="42.7517600" lon="-2.5991600">
<ele>885.840271</ele>
<time>2012-03-18T10:50:01.997Z</time>
</trkpt>
<trkpt lat="42.7515900" lon="-2.5991100">
<ele>884.925842</ele>
<time>2012-03-18T10:50:16.002Z</time>
</trkpt>
<trkpt lat="42.7514500" lon="-2.5990300">
<ele>884.194275</ele>
<time>2012-03-18T10:50:31.001Z</time>
</trkpt>
<trkpt lat="42.7514400" lon="-2.5990300">
<ele>883.889465</ele>
<time>2012-03-18T10:50:46.000Z</time>
</trkpt>
<trkpt lat="42.7513900" lon="-2.5989900">
<ele>883.462830</ele>
<time>2012-03-18T10:50:51.003Z</time>
</trkpt>
<trkpt lat="42.7512900" lon="-2.5988700">
<ele>882.914124</ele>
<time>2012-03-18T10:51:05.000Z</time>
</trkpt>
<trkpt lat="42.7512500" lon="-2.5988300">
<ele>882.944641</ele>
<time>2012-03-18T10:51:10.002Z</time>
</trkpt>
<trkpt lat="42.7512100" lon="-2.5988200">
<ele>882.609375</ele>
<time>2012-03-18T10:51:14.003Z</time>
</trkpt>
<trkpt lat="42.7511200" lon="-2.5987300">
<ele>881.329224</ele>
<time>2012-03-18T10:51:26.997Z</time>
</trkpt>
<trkpt lat="42.7510900" lon="-2.5987500">
<ele>880.384277</ele>
<time>2012-03-18T10:52:01.998Z</time>
</trkpt>
<trkpt lat="42.7510600" lon="-2.5987400">
<ele>879.774719</ele>
<time>2012-03-18T10:52:04.996Z</time>
</trkpt>
<trkpt lat="42.7509100" lon="-2.5987500">
<ele>877.915466</ele>
<time>2012-03-18T10:52:19.001Z</time>
</trkpt>
<trkpt lat="42.7509000" lon="-2.5987500">
<ele>877.793518</ele>
<time>2012-03-18T10:52:20.004Z</time>
</trkpt>
<trkpt lat="42.7507600" lon="-2.5988000">
<ele>874.867432</ele>
<time>2012-03-18T10:52:32.998Z</time>
</trkpt>
<trkpt lat="42.7507000" lon="-2.5988500">
<ele>873.892090</ele>
<time>2012-03-18T10:52:39.996Z</time>
</trkpt>
<trkpt lat="42.7506500" lon="-2.5988600">
<ele>872.886230</ele>
<time>2012-03-18T10:52:58.996Z</time>
</trkpt>
<trkpt lat="42.7506000" lon="-2.5988600">
<ele>872.063293</ele>
<time>2012-03-18T10:53:17.002Z</time>
</trkpt>
<trkpt lat="42.7504300" lon="-2.5989500">
<ele>869.960144</ele>
<time>2012-03-18T10:53:33.003Z</time>
</trkpt>
<trkpt lat="42.7502700" lon="-2.5990300">
<ele>868.527588</ele>
<time>2012-03-18T10:53:47.000Z</time>
</trkpt>
<trkpt lat="42.7502300" lon="-2.5990500">
<ele>868.039917</ele>
<time>2012-03-18T10:53:52.002Z</time>
</trkpt>
<trkpt lat="42.7500200" lon="-2.5991100">
<ele>867.399841</ele>
<time>2012-03-18T10:54:08.004Z</time>
</trkpt>
<trkpt lat="42.7499200" lon="-2.5991400">
<ele>866.759766</ele>
<time>2012-03-18T10:54:16.998Z</time>
</trkpt>
<trkpt lat="42.7498700" lon="-2.5991500">
<ele>866.058716</ele>
<time>2012-03-18T10:54:20.998Z</time>
</trkpt>
<trkpt lat="42.7497100" lon="-2.5992300">
<ele>864.351868</ele>
<time>2012-03-18T10:54:35.997Z</time>
</trkpt>
<trkpt lat="42.7495200" lon="-2.5993100">
<ele>862.004883</ele>
<time>2012-03-18T10:54:51.998Z</time>
</trkpt>
<trkpt lat="42.7494300" lon="-2.5993400">
<ele>860.724670</ele>
<time>2012-03-18T10:54:58.997Z</time>
</trkpt>
<trkpt lat="42.7493800" lon="-2.5993500">
<ele>860.297974</ele>
<time>2012-03-18T10:55:03.999Z</time>
</trkpt>
<trkpt lat="42.7493100" lon="-2.5993700">
<ele>859.932251</ele>
<time>2012-03-18T10:55:09.002Z</time>
</trkpt>
<trkpt lat="42.7491500" lon="-2.5994300">
<ele>857.890137</ele>
<time>2012-03-18T10:55:22.999Z</time>
</trkpt>
<trkpt lat="42.7489800" lon="-2.5995100">
<ele>857.219482</ele>
<time>2012-03-18T10:55:37.004Z</time>
</trkpt>
<trkpt lat="42.7489000" lon="-2.5995300">
<ele>856.244141</ele>
<time>2012-03-18T10:55:43.000Z</time>
</trkpt>
<trkpt lat="42.7488700" lon="-2.5995600">
<ele>855.939331</ele>
<time>2012-03-18T10:55:47.001Z</time>
</trkpt>
<trkpt lat="42.7488400" lon="-2.5995400">
<ele>855.604126</ele>
<time>2012-03-18T10:55:49.999Z</time>
</trkpt>
<trkpt lat="42.7486200" lon="-2.5996400">
<ele>852.159851</ele>
<time>2012-03-18T10:56:07.996Z</time>
</trkpt>
<trkpt lat="42.7486100" lon="-2.5996500">
<ele>852.007446</ele>
<time>2012-03-18T10:56:08.998Z</time>
</trkpt>
<trkpt lat="42.7484500" lon="-2.5997300">
<ele>849.630005</ele>
<time>2012-03-18T10:56:23.004Z</time>
</trkpt>
<trkpt lat="42.7483400" lon="-2.5997800">
<ele>849.020386</ele>
<time>2012-03-18T10:56:34.002Z</time>
</trkpt>
<trkpt lat="42.7482000" lon="-2.5998500">
<ele>847.953613</ele>
<time>2012-03-18T10:56:47.999Z</time>
</trkpt>
<trkpt lat="42.7481700" lon="-2.5998500">
<ele>847.984131</ele>
<time>2012-03-18T10:56:50.997Z</time>
</trkpt>
<trkpt lat="42.7479700" lon="-2.5999000">
<ele>847.984131</ele>
<time>2012-03-18T10:57:05.996Z</time>
</trkpt>
<trkpt lat="42.7479100" lon="-2.5999300">
<ele>847.892639</ele>
<time>2012-03-18T10:57:12.001Z</time>
</trkpt>
<trkpt lat="42.7478600" lon="-2.5999000">
<ele>848.227905</ele>
<time>2012-03-18T11:03:12.997Z</time>
</trkpt>
<trkpt lat="42.7478600" lon="-2.5999100">
<ele>848.258423</ele>
<time>2012-03-18T11:04:18.998Z</time>
</trkpt>
<trkpt lat="42.7478400" lon="-2.5998600">
<ele>848.288879</ele>
<time>2012-03-18T11:04:21.003Z</time>
</trkpt>
<trkpt lat="42.7477900" lon="-2.5996700">
<ele>847.984131</ele>
<time>2012-03-18T11:04:33.004Z</time>
</trkpt>
<trkpt lat="42.7478400" lon="-2.5995100">
<ele>848.045044</ele>
<time>2012-03-18T11:04:43.000Z</time>
</trkpt>
<trkpt lat="42.7479000" lon="-2.5993800">
<ele>848.106018</ele>
<time>2012-03-18T11:04:52.997Z</time>
</trkpt>
<trkpt lat="42.7479100" lon="-2.5993200">
<ele>848.166931</ele>
<time>2012-03-18T11:04:57.999Z</time>
</trkpt>
<trkpt lat="42.7479300" lon="-2.5991800">
<ele>847.679321</ele>
<time>2012-03-18T11:05:08.998Z</time>
</trkpt>
<trkpt lat="42.7479100" lon="-2.5991100">
<ele>846.795349</ele>
<time>2012-03-18T11:05:14.001Z</time>
</trkpt>
<trkpt lat="42.7479000" lon="-2.5990100">
<ele>845.820007</ele>
<time>2012-03-18T11:05:23.997Z</time>
</trkpt>
<trkpt lat="42.7477500" lon="-2.5989700">
<ele>843.991211</ele>
<time>2012-03-18T11:05:38.996Z</time>
</trkpt>
<trkpt lat="42.7476700" lon="-2.5989800">
<ele>842.893860</ele>
<time>2012-03-18T11:05:46.003Z</time>
</trkpt>
<trkpt lat="42.7475100" lon="-2.5989200">
<ele>839.663025</ele>
<time>2012-03-18T11:05:58.998Z</time>
</trkpt>
<trkpt lat="42.7475000" lon="-2.5988500">
<ele>838.840088</ele>
<time>2012-03-18T11:06:04.000Z</time>
</trkpt>
<trkpt lat="42.7474900" lon="-2.5988100">
<ele>838.596252</ele>
<time>2012-03-18T11:06:06.998Z</time>
</trkpt>
<trkpt lat="42.7475100" lon="-2.5987600">
<ele>838.596252</ele>
<time>2012-03-18T11:06:13.003Z</time>
</trkpt>
<trkpt lat="42.7475500" lon="-2.5986200">
<ele>839.754517</ele>
<time>2012-03-18T11:06:20.002Z</time>
</trkpt>
<trkpt lat="42.7475300" lon="-2.5985900">
<ele>839.784973</ele>
<time>2012-03-18T11:06:24.002Z</time>
</trkpt>
<trkpt lat="42.7476200" lon="-2.5984700">
<ele>841.796631</ele>
<time>2012-03-18T11:18:29.002Z</time>
</trkpt>
<trkpt lat="42.7476500" lon="-2.5984300">
<ele>842.497681</ele>
<time>2012-03-18T11:18:33.002Z</time>
</trkpt>
<trkpt lat="42.7476800" lon="-2.5984000">
<ele>843.076782</ele>
<time>2012-03-18T11:18:36.000Z</time>
</trkpt>
<trkpt lat="42.7478100" lon="-2.5983000">
<ele>845.362793</ele>
<time>2012-03-18T11:18:49.003Z</time>
</trkpt>
<trkpt lat="42.7478500" lon="-2.5982200">
<ele>846.978271</ele>
<time>2012-03-18T11:19:01.998Z</time>
</trkpt>
<trkpt lat="42.7478800" lon="-2.5982200">
<ele>847.526917</ele>
<time>2012-03-18T11:19:16.997Z</time>
</trkpt>
<trkpt lat="42.7479900" lon="-2.5980800">
<ele>850.209106</ele>
<time>2012-03-18T11:19:31.996Z</time>
</trkpt>
<trkpt lat="42.7481000" lon="-2.5979500">
<ele>852.525574</ele>
<time>2012-03-18T11:19:46.001Z</time>
</trkpt>
<trkpt lat="42.7482100" lon="-2.5978900">
<ele>853.775330</ele>
<time>2012-03-18T11:19:55.998Z</time>
</trkpt>
<trkpt lat="42.7482800" lon="-2.5978200">
<ele>855.146912</ele>
<time>2012-03-18T11:20:05.001Z</time>
</trkpt>
<trkpt lat="42.7483500" lon="-2.5977000">
<ele>858.164429</ele>
<time>2012-03-18T11:20:15.999Z</time>
</trkpt>
<trkpt lat="42.7483900" lon="-2.5976100">
<ele>858.804504</ele>
<time>2012-03-18T11:20:24.000Z</time>
</trkpt>
<trkpt lat="42.7484300" lon="-2.5974300">
<ele>860.297974</ele>
<time>2012-03-18T11:20:37.003Z</time>
</trkpt>
<trkpt lat="42.7484300" lon="-2.5973900">
<ele>860.663757</ele>
<time>2012-03-18T11:20:40.001Z</time>
</trkpt>
<trkpt lat="42.7484600" lon="-2.5973300">
<ele>861.029480</ele>
<time>2012-03-18T11:20:53.998Z</time>
</trkpt>
<trkpt lat="42.7484000" lon="-2.5972600">
<ele>860.877075</ele>
<time>2012-03-18T11:21:14.000Z</time>
</trkpt>
<trkpt lat="42.7483600" lon="-2.5971500">
<ele>861.090515</ele>
<time>2012-03-18T11:21:27.996Z</time>
</trkpt>
<trkpt lat="42.7483400" lon="-2.5970900">
<ele>861.059998</ele>
<time>2012-03-18T11:21:32.999Z</time>
</trkpt>
<trkpt lat="42.7481700" lon="-2.5969700">
<ele>860.999084</ele>
<time>2012-03-18T11:21:46.996Z</time>
</trkpt>
<trkpt lat="42.7480500" lon="-2.5969200">
<ele>860.999084</ele>
<time>2012-03-18T11:21:58.003Z</time>
</trkpt>
<trkpt lat="42.7478900" lon="-2.5969000">
<ele>860.999084</ele>
<time>2012-03-18T11:22:12.000Z</time>
</trkpt>
<trkpt lat="42.7478600" lon="-2.5968900">
<ele>861.059998</ele>
<time>2012-03-18T11:22:14.998Z</time>
</trkpt>
<trkpt lat="42.7477100" lon="-2.5968500">
<ele>860.206543</ele>
<time>2012-03-18T11:22:28.001Z</time>
</trkpt>
<trkpt lat="42.7475300" lon="-2.5968400">
<ele>858.072937</ele>
<time>2012-03-18T11:22:41.998Z</time>
</trkpt>
<trkpt lat="42.7474900" lon="-2.5968300">
<ele>857.951050</ele>
<time>2012-03-18T11:22:45.998Z</time>
</trkpt>
<trkpt lat="42.7473600" lon="-2.5967400">
<ele>857.341431</ele>
<time>2012-03-18T11:22:57.999Z</time>
</trkpt>
<trkpt lat="42.7473300" lon="-2.5967300">
<ele>856.884277</ele>
<time>2012-03-18T11:23:00.997Z</time>
</trkpt>
<trkpt lat="42.7472600" lon="-2.5966900">
<ele>856.152710</ele>
<time>2012-03-18T11:23:07.002Z</time>
</trkpt>
<trkpt lat="42.7472200" lon="-2.5966700">
<ele>855.604126</ele>
<time>2012-03-18T11:23:10.000Z</time>
</trkpt>
<trkpt lat="42.7470800" lon="-2.5965900">
<ele>854.933472</ele>
<time>2012-03-18T11:23:23.997Z</time>
</trkpt>
<trkpt lat="42.7470000" lon="-2.5965700">
<ele>855.146912</ele>
<time>2012-03-18T11:23:37.000Z</time>
</trkpt>
<trkpt lat="42.7468300" lon="-2.5965300">
<ele>855.207825</ele>
<time>2012-03-18T11:23:51.999Z</time>
</trkpt>
<trkpt lat="42.7468100" lon="-2.5965100">
<ele>855.116394</ele>
<time>2012-03-18T11:23:54.004Z</time>
</trkpt>
<trkpt lat="42.7467900" lon="-2.5964900">
<ele>854.994507</ele>
<time>2012-03-18T11:23:57.002Z</time>
</trkpt>
<trkpt lat="42.7467400" lon="-2.5964600">
<ele>854.720154</ele>
<time>2012-03-18T11:24:01.996Z</time>
</trkpt>
<trkpt lat="42.7466100" lon="-2.5964100">
<ele>855.512634</ele>
<time>2012-03-18T11:24:13.997Z</time>
</trkpt>
<trkpt lat="42.7464500" lon="-2.5963100">
<ele>856.640381</ele>
<time>2012-03-18T11:24:28.002Z</time>
</trkpt>
<trkpt lat="42.7463900" lon="-2.5962600">
<ele>856.183228</ele>
<time>2012-03-18T11:24:33.998Z</time>
</trkpt>
<trkpt lat="42.7463300" lon="-2.5962400">
<ele>855.969849</ele>
<time>2012-03-18T11:24:39.001Z</time>
</trkpt>
<trkpt lat="42.7461700" lon="-2.5962200">
<ele>856.579468</ele>
<time>2012-03-18T11:24:52.004Z</time>
</trkpt>
<trkpt lat="42.7460000" lon="-2.5962300">
<ele>855.847900</ele>
<time>2012-03-18T11:25:04.999Z</time>
</trkpt>
<trkpt lat="42.7458400" lon="-2.5961700">
<ele>854.537292</ele>
<time>2012-03-18T11:25:17.000Z</time>
</trkpt>
<trkpt lat="42.7457400" lon="-2.5961800">
<ele>854.872559</ele>
<time>2012-03-18T11:25:29.001Z</time>
</trkpt>
<trkpt lat="42.7455600" lon="-2.5960900">
<ele>853.744812</ele>
<time>2012-03-18T11:25:44.000Z</time>
</trkpt>
<trkpt lat="42.7455300" lon="-2.5960600">
<ele>853.561890</ele>
<time>2012-03-18T11:25:49.996Z</time>
</trkpt>
<trkpt lat="42.7453500" lon="-2.5960000">
<ele>852.799866</ele>
<time>2012-03-18T11:26:04.001Z</time>
</trkpt>
<trkpt lat="42.7452700" lon="-2.5959900">
<ele>852.647461</ele>
<time>2012-03-18T11:26:09.004Z</time>
</trkpt>
<trkpt lat="42.7451100" lon="-2.5959800">
<ele>851.916016</ele>
<time>2012-03-18T11:26:23.001Z</time>
</trkpt>
<trkpt lat="42.7450000" lon="-2.5960200">
<ele>851.123474</ele>
<time>2012-03-18T11:26:32.004Z</time>
</trkpt>
<trkpt lat="42.7449800" lon="-2.5960600">
<ele>851.336914</ele>
<time>2012-03-18T11:26:58.001Z</time>
</trkpt>
<trkpt lat="42.7449400" lon="-2.5960900">
<ele>851.184509</ele>
<time>2012-03-18T11:27:02.002Z</time>
</trkpt>
<trkpt lat="42.7448100" lon="-2.5961500">
<ele>849.995728</ele>
<time>2012-03-18T11:27:13.000Z</time>
</trkpt>
<trkpt lat="42.7447000" lon="-2.5961700">
<ele>848.898499</ele>
<time>2012-03-18T11:27:27.999Z</time>
</trkpt>
<trkpt lat="42.7447000" lon="-2.5962100">
<ele>848.959473</ele>
<time>2012-03-18T11:27:34.998Z</time>
</trkpt>
<trkpt lat="42.7446600" lon="-2.5962800">
<ele>849.111877</ele>
<time>2012-03-18T11:27:40.000Z</time>
</trkpt>
<trkpt lat="42.7445000" lon="-2.5964300">
<ele>847.557373</ele>
<time>2012-03-18T11:27:57.004Z</time>
</trkpt>
<trkpt lat="42.7443800" lon="-2.5964200">
<ele>846.399109</ele>
<time>2012-03-18T11:28:08.003Z</time>
</trkpt>
<trkpt lat="42.7442400" lon="-2.5964100">
<ele>843.229187</ele>
<time>2012-03-18T11:28:20.997Z</time>
</trkpt>
<trkpt lat="42.7441800" lon="-2.5963800">
<ele>841.888123</ele>
<time>2012-03-18T11:28:35.996Z</time>
</trkpt>
<trkpt lat="42.7440900" lon="-2.5963700">
<ele>840.821289</ele>
<time>2012-03-18T11:29:38.999Z</time>
</trkpt>
<trkpt lat="42.7440700" lon="-2.5963700">
<ele>840.486023</ele>
<time>2012-03-18T11:29:41.997Z</time>
</trkpt>
<trkpt lat="42.7440600" lon="-2.5963500">
<ele>840.059326</ele>
<time>2012-03-18T11:29:44.002Z</time>
</trkpt>
<trkpt lat="42.7440100" lon="-2.5963600">
<ele>838.961975</ele>
<time>2012-03-18T11:29:51.000Z</time>
</trkpt>
<trkpt lat="42.7440000" lon="-2.5963500">
<ele>838.657227</ele>
<time>2012-03-18T11:30:01.999Z</time>
</trkpt>
<trkpt lat="42.7439400" lon="-2.5963200">
<ele>837.163696</ele>
<time>2012-03-18T11:31:09.002Z</time>
</trkpt>
<trkpt lat="42.7438100" lon="-2.5962100">
<ele>833.201294</ele>
<time>2012-03-18T11:31:24.001Z</time>
</trkpt>
<trkpt lat="42.7437500" lon="-2.5961600">
<ele>830.732422</ele>
<time>2012-03-18T11:31:29.004Z</time>
</trkpt>
<trkpt lat="42.7436800" lon="-2.5961000">
<ele>828.233032</ele>
<time>2012-03-18T11:31:43.000Z</time>
</trkpt>
<trkpt lat="42.7437500" lon="-2.5960400">
<ele>829.757080</ele>
<time>2012-03-18T11:31:55.001Z</time>
</trkpt>
<trkpt lat="42.7437700" lon="-2.5960100">
<ele>829.726563</ele>
<time>2012-03-18T11:31:57.999Z</time>
</trkpt>
<trkpt lat="42.7438100" lon="-2.5959800">
<ele>830.092285</ele>
<time>2012-03-18T11:32:02.000Z</time>
</trkpt>
<trkpt lat="42.7439000" lon="-2.5959100">
<ele>831.037170</ele>
<time>2012-03-18T11:32:14.001Z</time>
</trkpt>
<trkpt lat="42.7440300" lon="-2.5958200">
<ele>830.701904</ele>
<time>2012-03-18T11:32:29.000Z</time>
</trkpt>
<trkpt lat="42.7440800" lon="-2.5957700">
<ele>830.488525</ele>
<time>2012-03-18T11:32:35.998Z</time>
</trkpt>
<trkpt lat="42.7440700" lon="-2.5957100">
<ele>828.964539</ele>
<time>2012-03-18T11:34:11.004Z</time>
</trkpt>
<trkpt lat="42.7440500" lon="-2.5956000">
<ele>825.520264</ele>
<time>2012-03-18T11:34:19.004Z</time>
</trkpt>
<trkpt lat="42.7440000" lon="-2.5955600">
<ele>823.843872</ele>
<time>2012-03-18T11:34:34.003Z</time>
</trkpt>
<trkpt lat="42.7439800" lon="-2.5955600">
<ele>823.386719</ele>
<time>2012-03-18T11:34:42.997Z</time>
</trkpt>
<trkpt lat="42.7439800" lon="-2.5955500">
<ele>823.112427</ele>
<time>2012-03-18T11:34:56.001Z</time>
</trkpt>
<trkpt lat="42.7441100" lon="-2.5954700">
<ele>822.716125</ele>
<time>2012-03-18T11:35:20.003Z</time>
</trkpt>
<trkpt lat="42.7441300" lon="-2.5954500">
<ele>822.685730</ele>
<time>2012-03-18T11:35:21.998Z</time>
</trkpt>
<trkpt lat="42.7441600" lon="-2.5954200">
<ele>822.594238</ele>
<time>2012-03-18T11:35:24.996Z</time>
</trkpt>
<trkpt lat="42.7442100" lon="-2.5953800">
<ele>823.203857</ele>
<time>2012-03-18T11:35:36.997Z</time>
</trkpt>
<trkpt lat="42.7442500" lon="-2.5953600">
<ele>823.691467</ele>
<time>2012-03-18T11:35:44.998Z</time>
</trkpt>
<trkpt lat="42.7443600" lon="-2.5952800">
<ele>824.788818</ele>
<time>2012-03-18T11:35:55.997Z</time>
</trkpt>
<trkpt lat="42.7445000" lon="-2.5952700">
<ele>828.202515</ele>
<time>2012-03-18T11:36:07.998Z</time>
</trkpt>
<trkpt lat="42.7445700" lon="-2.5952500">
<ele>829.696106</ele>
<time>2012-03-18T11:36:14.003Z</time>
</trkpt>
<trkpt lat="42.7446100" lon="-2.5952100">
<ele>829.056030</ele>
<time>2012-03-18T11:36:19.999Z</time>
</trkpt>
<trkpt lat="42.7446900" lon="-2.5951200">
<ele>828.233032</ele>
<time>2012-03-18T11:36:45.996Z</time>
</trkpt>
<trkpt lat="42.7447400" lon="-2.5951600">
<ele>830.427612</ele>
<time>2012-03-18T11:37:01.004Z</time>
</trkpt>
<trkpt lat="42.7448000" lon="-2.5951500">
<ele>831.555359</ele>
<time>2012-03-18T11:37:05.998Z</time>
</trkpt>
<trkpt lat="42.7448700" lon="-2.5951100">
<ele>831.524902</ele>
<time>2012-03-18T11:37:13.999Z</time>
</trkpt>
<trkpt lat="42.7449600" lon="-2.5950800">
<ele>831.707764</ele>
<time>2012-03-18T11:37:23.002Z</time>
</trkpt>
<trkpt lat="42.7449800" lon="-2.5950200">
<ele>830.427612</ele>
<time>2012-03-18T11:37:27.002Z</time>
</trkpt>
<trkpt lat="42.7450200" lon="-2.5949700">
<ele>829.757080</ele>
<time>2012-03-18T11:37:35.003Z</time>
</trkpt>
<trkpt lat="42.7450900" lon="-2.5949600">
<ele>830.275208</ele>
<time>2012-03-18T11:37:50.002Z</time>
</trkpt>
<trkpt lat="42.7451100" lon="-2.5949500">
<ele>830.275208</ele>
<time>2012-03-18T11:38:38.999Z</time>
</trkpt>
<trkpt lat="42.7451400" lon="-2.5949000">
<ele>829.238892</ele>
<time>2012-03-18T11:38:48.002Z</time>
</trkpt>
<trkpt lat="42.7452500" lon="-2.5948800">
<ele>830.031372</ele>
<time>2012-03-18T11:39:00.996Z</time>
</trkpt>
<trkpt lat="42.7454000" lon="-2.5947800">
<ele>828.781738</ele>
<time>2012-03-18T11:39:24.998Z</time>
</trkpt>
<trkpt lat="42.7454700" lon="-2.5947800">
<ele>828.720703</ele>
<time>2012-03-18T11:39:31.997Z</time>
</trkpt>
<trkpt lat="42.7456000" lon="-2.5947600">
<ele>828.172119</ele>
<time>2012-03-18T11:39:43.998Z</time>
</trkpt>
<trkpt lat="42.7455800" lon="-2.5947200">
<ele>827.196716</ele>
<time>2012-03-18T11:41:46.997Z</time>
</trkpt>
<trkpt lat="42.7456600" lon="-2.5946400">
<ele>825.459351</ele>
<time>2012-03-18T11:41:54.997Z</time>
</trkpt>
<trkpt lat="42.7457600" lon="-2.5946600">
<ele>825.855591</ele>
<time>2012-03-18T11:42:05.996Z</time>
</trkpt>
<trkpt lat="42.7457900" lon="-2.5946700">
<ele>826.099426</ele>
<time>2012-03-18T11:42:09.003Z</time>
</trkpt>
<trkpt lat="42.7458400" lon="-2.5946700">
<ele>826.099426</ele>
<time>2012-03-18T11:42:14.999Z</time>
</trkpt>
<trkpt lat="42.7458900" lon="-2.5946500">
<ele>825.672668</ele>
<time>2012-03-18T11:42:20.002Z</time>
</trkpt>
<trkpt lat="42.7459700" lon="-2.5946900">
<ele>826.587097</ele>
<time>2012-03-18T11:42:28.002Z</time>
</trkpt>
<trkpt lat="42.7459800" lon="-2.5946300">
<ele>825.306946</ele>
<time>2012-03-18T11:42:56.998Z</time>
</trkpt>
<trkpt lat="42.7461000" lon="-2.5945400">
<ele>823.965881</ele>
<time>2012-03-18T11:43:10.001Z</time>
</trkpt>
<trkpt lat="42.7461600" lon="-2.5945100">
<ele>823.539063</ele>
<time>2012-03-18T11:43:15.004Z</time>
</trkpt>
<trkpt lat="42.7462000" lon="-2.5945000">
<ele>823.386719</ele>
<time>2012-03-18T11:43:18.002Z</time>
</trkpt>
<trkpt lat="42.7463100" lon="-2.5945100">
<ele>823.447693</ele>
<time>2012-03-18T11:43:29.001Z</time>
</trkpt>
<trkpt lat="42.7463200" lon="-2.5945000">
<ele>823.295288</ele>
<time>2012-03-18T11:43:30.003Z</time>
</trkpt>
<trkpt lat="42.7463600" lon="-2.5944700">
<ele>823.020935</ele>
<time>2012-03-18T11:43:34.997Z</time>
</trkpt>
<trkpt lat="42.7464100" lon="-2.5944200">
<ele>822.167480</ele>
<time>2012-03-18T11:43:42.004Z</time>
</trkpt>
<trkpt lat="42.7464900" lon="-2.5943600">
<ele>820.674011</ele>
<time>2012-03-18T11:43:57.996Z</time>
</trkpt>
<trkpt lat="42.7465200" lon="-2.5944500">
<ele>821.588379</ele>
<time>2012-03-18T11:44:33.999Z</time>
</trkpt>
<trkpt lat="42.7466200" lon="-2.5945200">
<ele>821.679871</ele>
<time>2012-03-18T11:44:43.996Z</time>
</trkpt>
<trkpt lat="42.7467300" lon="-2.5945200">
<ele>821.253113</ele>
<time>2012-03-18T11:44:55.003Z</time>
</trkpt>
<trkpt lat="42.7468800" lon="-2.5945300">
<ele>820.765442</ele>
<time>2012-03-18T11:45:09.000Z</time>
</trkpt>
<trkpt lat="42.7469800" lon="-2.5945200">
<ele>821.588379</ele>
<time>2012-03-18T11:45:18.996Z</time>
</trkpt>
<trkpt lat="42.7471500" lon="-2.5944200">
<ele>820.308228</ele>
<time>2012-03-18T11:45:34.004Z</time>
</trkpt>
<trkpt lat="42.7471700" lon="-2.5944000">
<ele>819.576660</ele>
<time>2012-03-18T11:45:36.000Z</time>
</trkpt>
<trkpt lat="42.7472200" lon="-2.5943800">
<ele>818.814697</ele>
<time>2012-03-18T11:45:40.000Z</time>
</trkpt>
<trkpt lat="42.7472700" lon="-2.5943800">
<ele>818.723328</ele>
<time>2012-03-18T11:45:44.001Z</time>
</trkpt>
<trkpt lat="42.7473100" lon="-2.5943600">
<ele>817.900269</ele>
<time>2012-03-18T11:45:48.001Z</time>
</trkpt>
<trkpt lat="42.7473800" lon="-2.5943400">
<ele>817.534546</ele>
<time>2012-03-18T11:46:03.000Z</time>
</trkpt>
<trkpt lat="42.7474500" lon="-2.5943500">
<ele>817.046936</ele>
<time>2012-03-18T11:46:47.997Z</time>
</trkpt>
<trkpt lat="42.7476200" lon="-2.5945100">
<ele>819.972961</ele>
<time>2012-03-18T11:47:03.998Z</time>
</trkpt>
<trkpt lat="42.7477000" lon="-2.5945600">
<ele>822.015076</ele>
<time>2012-03-18T11:47:14.004Z</time>
</trkpt>
<trkpt lat="42.7477500" lon="-2.5945900">
<ele>822.746643</ele>
<time>2012-03-18T11:47:18.004Z</time>
</trkpt>
<trkpt lat="42.7479000" lon="-2.5945400">
<ele>825.581299</ele>
<time>2012-03-18T11:47:32.001Z</time>
</trkpt>
<trkpt lat="42.7479300" lon="-2.5945100">
<ele>825.947083</ele>
<time>2012-03-18T11:47:36.001Z</time>
</trkpt>
<trkpt lat="42.7479800" lon="-2.5943000">
<ele>825.550781</ele>
<time>2012-03-18T11:47:51.000Z</time>
</trkpt>
<trkpt lat="42.7480200" lon="-2.5941400">
<ele>824.057312</ele>
<time>2012-03-18T11:48:04.003Z</time>
</trkpt>
<trkpt lat="42.7480200" lon="-2.5941500">
<ele>824.240173</ele>
<time>2012-03-18T11:48:16.998Z</time>
</trkpt>
<trkpt lat="42.7480300" lon="-2.5941500">
<ele>824.727844</ele>
<time>2012-03-18T11:48:50.003Z</time>
</trkpt>
<trkpt lat="42.7480400" lon="-2.5941500">
<ele>825.215515</ele>
<time>2012-03-18T11:49:18.998Z</time>
</trkpt>
<trkpt lat="42.7480900" lon="-2.5940400">
<ele>824.636414</ele>
<time>2012-03-18T12:00:55.002Z</time>
</trkpt>
<trkpt lat="42.7481200" lon="-2.5939800">
<ele>823.721985</ele>
<time>2012-03-18T12:00:59.996Z</time>
</trkpt>
<trkpt lat="42.7481300" lon="-2.5939500">
<ele>823.020935</ele>
<time>2012-03-18T12:01:03.003Z</time>
</trkpt>
<trkpt lat="42.7481700" lon="-2.5938700">
<ele>821.070251</ele>
<time>2012-03-18T12:01:23.998Z</time>
</trkpt>
<trkpt lat="42.7481900" lon="-2.5938500">
<ele>821.039734</ele>
<time>2012-03-18T12:01:26.003Z</time>
</trkpt>
<trkpt lat="42.7483400" lon="-2.5937700">
<ele>820.521606</ele>
<time>2012-03-18T12:01:39.999Z</time>
</trkpt>
<trkpt lat="42.7483700" lon="-2.5937400">
<ele>820.338684</ele>
<time>2012-03-18T12:01:42.997Z</time>
</trkpt>
<trkpt lat="42.7483800" lon="-2.5936800">
<ele>818.784241</ele>
<time>2012-03-18T12:01:46.998Z</time>
</trkpt>
<trkpt lat="42.7484500" lon="-2.5936100">
<ele>817.595520</ele>
<time>2012-03-18T12:01:56.001Z</time>
</trkpt>
<trkpt lat="42.7485100" lon="-2.5935000">
<ele>814.608521</ele>
<time>2012-03-18T12:02:04.001Z</time>
</trkpt>
<trkpt lat="42.7485500" lon="-2.5934800">
<ele>814.578003</ele>
<time>2012-03-18T12:02:08.002Z</time>
</trkpt>
<trkpt lat="42.7485700" lon="-2.5934400">
<ele>813.419739</ele>
<time>2012-03-18T12:02:11.000Z</time>
</trkpt>
<trkpt lat="42.7487100" lon="-2.5933200">
<ele>810.066956</ele>
<time>2012-03-18T12:02:24.996Z</time>
</trkpt>
<trkpt lat="42.7487500" lon="-2.5932700">
<ele>808.634399</ele>
<time>2012-03-18T12:02:29.999Z</time>
</trkpt>
<trkpt lat="42.7487900" lon="-2.5932800">
<ele>809.183044</ele>
<time>2012-03-18T12:02:51.003Z</time>
</trkpt>
<trkpt lat="42.7488100" lon="-2.5932900">
<ele>809.579285</ele>
<time>2012-03-18T12:02:52.999Z</time>
</trkpt>
<trkpt lat="42.7490000" lon="-2.5933000">
<ele>809.823120</ele>
<time>2012-03-18T12:03:07.004Z</time>
</trkpt>
<trkpt lat="42.7490300" lon="-2.5932800">
<ele>809.183044</ele>
<time>2012-03-18T12:03:22.003Z</time>
</trkpt>
<trkpt lat="42.7490800" lon="-2.5933000">
<ele>810.371765</ele>
<time>2012-03-18T12:04:04.002Z</time>
</trkpt>
<trkpt lat="42.7491200" lon="-2.5932700">
<ele>809.975464</ele>
<time>2012-03-18T12:04:12.003Z</time>
</trkpt>
<trkpt lat="42.7491800" lon="-2.5932100">
<ele>808.329590</ele>
<time>2012-03-18T12:04:17.999Z</time>
</trkpt>
<trkpt lat="42.7492300" lon="-2.5931800">
<ele>807.232300</ele>
<time>2012-03-18T12:04:23.002Z</time>
</trkpt>
<trkpt lat="42.7492500" lon="-2.5931600">
<ele>806.683716</ele>
<time>2012-03-18T12:04:34.000Z</time>
</trkpt>
<trkpt lat="42.7493100" lon="-2.5931400">
<ele>806.836121</ele>
<time>2012-03-18T12:04:39.996Z</time>
</trkpt>
<trkpt lat="42.7494100" lon="-2.5930900">
<ele>806.348389</ele>
<time>2012-03-18T12:04:54.002Z</time>
</trkpt>
<trkpt lat="42.7495600" lon="-2.5929900">
<ele>805.037720</ele>
<time>2012-03-18T12:05:06.003Z</time>
</trkpt>
<trkpt lat="42.7495900" lon="-2.5929900">
<ele>805.647339</ele>
<time>2012-03-18T12:05:09.001Z</time>
</trkpt>
<trkpt lat="42.7496800" lon="-2.5929400">
<ele>805.738770</ele>
<time>2012-03-18T12:05:17.002Z</time>
</trkpt>
<trkpt lat="42.7497200" lon="-2.5929200">
<ele>805.769287</ele>
<time>2012-03-18T12:05:21.002Z</time>
</trkpt>
<trkpt lat="42.7497700" lon="-2.5928800">
<ele>805.373047</ele>
<time>2012-03-18T12:05:25.996Z</time>
</trkpt>
<trkpt lat="42.7498500" lon="-2.5928000">
<ele>802.751770</ele>
<time>2012-03-18T12:05:34.999Z</time>
</trkpt>
<trkpt lat="42.7499600" lon="-2.5927600">
<ele>802.172668</ele>
<time>2012-03-18T12:05:45.004Z</time>
</trkpt>
<trkpt lat="42.7499900" lon="-2.5927400">
<ele>801.715454</ele>
<time>2012-03-18T12:05:49.004Z</time>
</trkpt>
<trkpt lat="42.7500300" lon="-2.5927300">
<ele>801.593506</ele>
<time>2012-03-18T12:05:52.996Z</time>
</trkpt>
<trkpt lat="42.7501500" lon="-2.5926600">
<ele>799.581848</ele>
<time>2012-03-18T12:06:07.001Z</time>
</trkpt>
<trkpt lat="42.7501700" lon="-2.5926600">
<ele>799.917114</ele>
<time>2012-03-18T12:06:19.002Z</time>
</trkpt>
<trkpt lat="42.7501900" lon="-2.5925400">
<ele>797.935913</ele>
<time>2012-03-18T12:06:28.999Z</time>
</trkpt>
<trkpt lat="42.7502100" lon="-2.5923900">
<ele>797.874939</ele>
<time>2012-03-18T12:06:41.000Z</time>
</trkpt>
<trkpt lat="42.7502200" lon="-2.5922900">
<ele>797.844482</ele>
<time>2012-03-18T12:06:50.996Z</time>
</trkpt>
<trkpt lat="42.7502100" lon="-2.5921400">
<ele>796.320496</ele>
<time>2012-03-18T12:07:05.002Z</time>
</trkpt>
<trkpt lat="42.7502400" lon="-2.5920000">
<ele>796.350952</ele>
<time>2012-03-18T12:07:16.000Z</time>
</trkpt>
<trkpt lat="42.7502600" lon="-2.5919600">
<ele>797.021484</ele>
<time>2012-03-18T12:07:18.998Z</time>
</trkpt>
<trkpt lat="42.7503200" lon="-2.5917300">
<ele>793.760132</ele>
<time>2012-03-18T12:07:40.002Z</time>
</trkpt>
<trkpt lat="42.7503100" lon="-2.5917000">
<ele>791.931335</ele>
<time>2012-03-18T12:08:23.997Z</time>
</trkpt>
<trkpt lat="42.7504000" lon="-2.5916200">
<ele>794.339294</ele>
<time>2012-03-18T12:08:53.002Z</time>
</trkpt>
<trkpt lat="42.7504300" lon="-2.5916000">
<ele>795.558533</ele>
<time>2012-03-18T12:09:09.003Z</time>
</trkpt>
<trkpt lat="42.7504400" lon="-2.5915200">
<ele>792.754272</ele>
<time>2012-03-18T12:09:27.000Z</time>
</trkpt>
<trkpt lat="42.7505800" lon="-2.5913900">
<ele>798.819885</ele>
<time>2012-03-18T12:09:44.004Z</time>
</trkpt>
<trkpt lat="42.7505800" lon="-2.5913800">
<ele>798.454102</ele>
<time>2012-03-18T12:09:44.997Z</time>
</trkpt>
<trkpt lat="42.7506200" lon="-2.5913000">
<ele>798.088318</ele>
<time>2012-03-18T12:09:54.000Z</time>
</trkpt>
<trkpt lat="42.7506400" lon="-2.5912200">
<ele>795.771851</ele>
<time>2012-03-18T12:09:59.996Z</time>
</trkpt>
<trkpt lat="42.7506600" lon="-2.5911900">
<ele>795.497498</ele>
<time>2012-03-18T12:10:02.001Z</time>
</trkpt>
<trkpt lat="42.7507300" lon="-2.5910900">
<ele>794.583069</ele>
<time>2012-03-18T12:10:15.997Z</time>
</trkpt>
<trkpt lat="42.7508000" lon="-2.5910100">
<ele>794.064941</ele>
<time>2012-03-18T12:10:27.998Z</time>
</trkpt>
<trkpt lat="42.7508500" lon="-2.5908900">
<ele>790.712158</ele>
<time>2012-03-18T12:10:41.002Z</time>
</trkpt>
<trkpt lat="42.7508900" lon="-2.5908500">
<ele>789.706299</ele>
<time>2012-03-18T12:11:31.001Z</time>
</trkpt>
<trkpt lat="42.7508900" lon="-2.5908400">
<ele>789.157715</ele>
<time>2012-03-18T12:11:32.004Z</time>
</trkpt>
<trkpt lat="42.7509600" lon="-2.5907400">
<ele>785.774414</ele>
<time>2012-03-18T12:11:44.998Z</time>
</trkpt>
<trkpt lat="42.7509900" lon="-2.5907100">
<ele>784.981873</ele>
<time>2012-03-18T12:11:50.001Z</time>
</trkpt>
<trkpt lat="42.7510200" lon="-2.5906700">
<ele>784.189453</ele>
<time>2012-03-18T12:11:52.999Z</time>
</trkpt>
<trkpt lat="42.7510400" lon="-2.5906300">
<ele>783.092163</ele>
<time>2012-03-18T12:11:55.997Z</time>
</trkpt>
<trkpt lat="42.7511200" lon="-2.5906100">
<ele>784.067505</ele>
<time>2012-03-18T12:12:10.002Z</time>
</trkpt>
<trkpt lat="42.7511900" lon="-2.5905800">
<ele>784.128540</ele>
<time>2012-03-18T12:12:29.002Z</time>
</trkpt>
<trkpt lat="42.7511900" lon="-2.5905600">
<ele>783.335999</ele>
<time>2012-03-18T12:12:42.998Z</time>
</trkpt>
<trkpt lat="42.7512200" lon="-2.5905200">
<ele>782.543518</ele>
<time>2012-03-18T12:12:49.997Z</time>
</trkpt>
<trkpt lat="42.7512600" lon="-2.5904600">
<ele>780.806152</ele>
<time>2012-03-18T12:12:57.004Z</time>
</trkpt>
<trkpt lat="42.7512700" lon="-2.5903400">
<ele>776.234131</ele>
<time>2012-03-18T12:13:08.996Z</time>
</trkpt>
<trkpt lat="42.7512900" lon="-2.5903000">
<ele>775.533081</ele>
<time>2012-03-18T12:13:34.000Z</time>
</trkpt>
<trkpt lat="42.7513800" lon="-2.5901400">
<ele>771.631714</ele>
<time>2012-03-18T12:13:47.997Z</time>
</trkpt>
<trkpt lat="42.7514600" lon="-2.5900800">
<ele>770.869690</ele>
<time>2012-03-18T12:13:55.998Z</time>
</trkpt>
<trkpt lat="42.7514700" lon="-2.5900600">
<ele>770.199097</ele>
<time>2012-03-18T12:13:58.002Z</time>
</trkpt>
<trkpt lat="42.7515300" lon="-2.5900400">
<ele>770.534424</ele>
<time>2012-03-18T12:14:02.003Z</time>
</trkpt>
<trkpt lat="42.7515800" lon="-2.5900100">
<ele>770.534424</ele>
<time>2012-03-18T12:14:06.996Z</time>
</trkpt>
<trkpt lat="42.7515900" lon="-2.5899900">
<ele>769.924805</ele>
<time>2012-03-18T12:14:09.001Z</time>
</trkpt>
<trkpt lat="42.7516700" lon="-2.5899500">
<ele>768.888489</ele>
<time>2012-03-18T12:14:17.002Z</time>
</trkpt>
<trkpt lat="42.7517100" lon="-2.5899400">
<ele>768.461731</ele>
<time>2012-03-18T12:14:30.998Z</time>
</trkpt>
<trkpt lat="42.7518400" lon="-2.5898100">
<ele>765.901428</ele>
<time>2012-03-18T12:14:47.000Z</time>
</trkpt>
<trkpt lat="42.7518700" lon="-2.5897800">
<ele>765.200378</ele>
<time>2012-03-18T12:14:51.000Z</time>
</trkpt>
<trkpt lat="42.7519100" lon="-2.5897300">
<ele>763.737366</ele>
<time>2012-03-18T12:14:55.000Z</time>
</trkpt>
<trkpt lat="42.7519700" lon="-2.5897400">
<ele>763.920227</ele>
<time>2012-03-18T12:14:59.001Z</time>
</trkpt>
<trkpt lat="42.7520100" lon="-2.5897000">
<ele>763.371582</ele>
<time>2012-03-18T12:15:03.001Z</time>
</trkpt>
<trkpt lat="42.7520400" lon="-2.5896500">
<ele>763.005859</ele>
<time>2012-03-18T12:15:05.999Z</time>
</trkpt>
<trkpt lat="42.7520600" lon="-2.5896600">
<ele>763.310669</ele>
<time>2012-03-18T12:15:18.000Z</time>
</trkpt>
<trkpt lat="42.7521000" lon="-2.5896300">
<ele>763.402100</ele>
<time>2012-03-18T12:15:22.000Z</time>
</trkpt>
<trkpt lat="42.7521800" lon="-2.5894800">
<ele>761.786682</ele>
<time>2012-03-18T12:15:34.001Z</time>
</trkpt>
<trkpt lat="42.7522800" lon="-2.5893800">
<ele>761.390381</ele>
<time>2012-03-18T12:15:45.000Z</time>
</trkpt>
<trkpt lat="42.7522900" lon="-2.5893600">
<ele>761.359863</ele>
<time>2012-03-18T12:15:47.998Z</time>
</trkpt>
<trkpt lat="42.7523000" lon="-2.5893200">
<ele>760.963684</ele>
<time>2012-03-18T12:15:50.996Z</time>
</trkpt>
<trkpt lat="42.7523300" lon="-2.5892600">
<ele>760.841736</ele>
<time>2012-03-18T12:15:55.999Z</time>
</trkpt>
<trkpt lat="42.7524200" lon="-2.5891600">
<ele>760.110229</ele>
<time>2012-03-18T12:16:06.004Z</time>
</trkpt>
<trkpt lat="42.7524400" lon="-2.5890700">
<ele>759.531067</ele>
<time>2012-03-18T12:16:18.998Z</time>
</trkpt>
<trkpt lat="42.7525000" lon="-2.5890400">
<ele>759.653076</ele>
<time>2012-03-18T12:16:56.004Z</time>
</trkpt>
<trkpt lat="42.7525700" lon="-2.5890000">
<ele>760.415039</ele>
<time>2012-03-18T12:17:02.000Z</time>
</trkpt>
<trkpt lat="42.7526100" lon="-2.5889900">
<ele>760.811279</ele>
<time>2012-03-18T12:17:04.998Z</time>
</trkpt>
<trkpt lat="42.7526700" lon="-2.5889900">
<ele>760.994141</ele>
<time>2012-03-18T12:17:18.001Z</time>
</trkpt>
<trkpt lat="42.7527000" lon="-2.5889900">
<ele>760.933228</ele>
<time>2012-03-18T12:17:23.004Z</time>
</trkpt>
<trkpt lat="42.7527300" lon="-2.5890200">
<ele>760.994141</ele>
<time>2012-03-18T12:17:24.999Z</time>
</trkpt>
<trkpt lat="42.7527900" lon="-2.5890500">
<ele>761.055115</ele>
<time>2012-03-18T12:17:38.996Z</time>
</trkpt>
<trkpt lat="42.7528200" lon="-2.5890500">
<ele>761.237976</ele>
<time>2012-03-18T12:17:57.002Z</time>
</trkpt>
<trkpt lat="42.7528500" lon="-2.5890300">
<ele>761.420898</ele>
<time>2012-03-18T12:17:58.998Z</time>
</trkpt>
<trkpt lat="42.7529000" lon="-2.5890500">
<ele>762.182922</ele>
<time>2012-03-18T12:18:09.996Z</time>
</trkpt>
<trkpt lat="42.7529300" lon="-2.5889600">
<ele>762.213318</ele>
<time>2012-03-18T12:18:32.003Z</time>
</trkpt>
<trkpt lat="42.7529400" lon="-2.5889100">
<ele>762.060974</ele>
<time>2012-03-18T12:18:48.997Z</time>
</trkpt>
<trkpt lat="42.7529800" lon="-2.5889000">
<ele>762.000000</ele>
<time>2012-03-18T12:19:07.997Z</time>
</trkpt>
<trkpt lat="42.7530000" lon="-2.5888900">
<ele>761.908569</ele>
<time>2012-03-18T12:19:10.001Z</time>
</trkpt>
<trkpt lat="42.7532200" lon="-2.5887700">
<ele>762.822937</ele>
<time>2012-03-18T12:19:31.999Z</time>
</trkpt>
<trkpt lat="42.7532200" lon="-2.5887500">
<ele>762.853455</ele>
<time>2012-03-18T12:21:38.998Z</time>
</trkpt>
<trkpt lat="42.7531900" lon="-2.5887300">
<ele>762.914429</ele>
<time>2012-03-18T12:21:45.996Z</time>
</trkpt>
<trkpt lat="42.7532000" lon="-2.5886000">
<ele>764.407898</ele>
<time>2012-03-18T12:22:01.998Z</time>
</trkpt>
<trkpt lat="42.7531000" lon="-2.5887000">
<ele>763.706909</ele>
<time>2012-03-29T13:35:06.003Z</time>
</trkpt>
<trkpt lat="42.7530000" lon="-2.5888000">
<ele>762.274292</ele>
<time>2012-03-29T13:35:18.004Z</time>
</trkpt>
<trkpt lat="42.7529400" lon="-2.5888200">
<ele>762.213318</ele>
<time>2012-03-29T13:35:30.998Z</time>
</trkpt>
<trkpt lat="42.7528000" lon="-2.5888300">
<ele>761.542786</ele>
<time>2012-03-29T13:35:40.001Z</time>
</trkpt>
<trkpt lat="42.7526200" lon="-2.5888000">
<ele>761.939026</ele>
<time>2012-03-29T13:35:52.996Z</time>
</trkpt>
<trkpt lat="42.7525500" lon="-2.5888100">
<ele>761.756165</ele>
<time>2012-03-29T13:35:57.998Z</time>
</trkpt>
<trkpt lat="42.7525300" lon="-2.5888500">
<ele>761.359863</ele>
<time>2012-03-29T13:36:01.999Z</time>
</trkpt>
<trkpt lat="42.7524600" lon="-2.5889200">
<ele>760.902710</ele>
<time>2012-03-29T13:36:15.002Z</time>
</trkpt>
<trkpt lat="42.7524400" lon="-2.5889100">
<ele>761.390381</ele>
<time>2012-03-29T13:36:18.000Z</time>
</trkpt>
<trkpt lat="42.7523600" lon="-2.5889400">
<ele>761.634277</ele>
<time>2012-03-29T13:36:22.000Z</time>
</trkpt>
<trkpt lat="42.7522300" lon="-2.5890300">
<ele>761.878113</ele>
<time>2012-03-29T13:36:31.003Z</time>
</trkpt>
<trkpt lat="42.7522000" lon="-2.5891400">
<ele>760.415039</ele>
<time>2012-03-29T13:36:35.997Z</time>
</trkpt>
<trkpt lat="42.7521300" lon="-2.5892200">
<ele>759.195862</ele>
<time>2012-03-29T13:36:50.996Z</time>
</trkpt>
<trkpt lat="42.7520100" lon="-2.5892300">
<ele>759.165344</ele>
<time>2012-03-29T13:37:03.999Z</time>
</trkpt>
<trkpt lat="42.7519000" lon="-2.5892500">
<ele>757.946167</ele>
<time>2012-03-29T13:37:13.996Z</time>
</trkpt>
<trkpt lat="42.7518300" lon="-2.5892500">
<ele>757.946167</ele>
<time>2012-03-29T13:37:29.004Z</time>
</trkpt>
<trkpt lat="42.7517600" lon="-2.5892500">
<ele>758.007080</ele>
<time>2012-03-29T13:37:52.997Z</time>
</trkpt>
<trkpt lat="42.7515200" lon="-2.5892600">
<ele>757.793762</ele>
<time>2012-03-29T13:38:11.996Z</time>
</trkpt>
<trkpt lat="42.7513900" lon="-2.5893200">
<ele>756.848938</ele>
<time>2012-03-29T13:38:24.999Z</time>
</trkpt>
<trkpt lat="42.7512700" lon="-2.5893300">
<ele>757.488953</ele>
<time>2012-03-29T13:38:33.000Z</time>
</trkpt>
<trkpt lat="42.7511900" lon="-2.5893300">
<ele>758.494812</ele>
<time>2012-03-29T13:38:38.996Z</time>
</trkpt>
<trkpt lat="42.7510300" lon="-2.5893500">
<ele>758.494812</ele>
<time>2012-03-29T13:38:53.002Z</time>
</trkpt>
<trkpt lat="42.7508500" lon="-2.5894300">
<ele>757.885193</ele>
<time>2012-03-29T13:39:06.998Z</time>
</trkpt>
<trkpt lat="42.7508300" lon="-2.5894400">
<ele>757.702271</ele>
<time>2012-03-29T13:39:09.003Z</time>
</trkpt>
<trkpt lat="42.7507800" lon="-2.5894700">
<ele>757.397461</ele>
<time>2012-03-29T13:39:13.003Z</time>
</trkpt>
<trkpt lat="42.7506600" lon="-2.5895700">
<ele>756.452637</ele>
<time>2012-03-29T13:39:25.004Z</time>
</trkpt>
<trkpt lat="42.7506500" lon="-2.5896100">
<ele>756.117371</ele>
<time>2012-03-29T13:39:28.996Z</time>
</trkpt>
<trkpt lat="42.7505000" lon="-2.5897500">
<ele>754.989624</ele>
<time>2012-03-29T13:39:44.997Z</time>
</trkpt>
<trkpt lat="42.7503800" lon="-2.5897800">
<ele>754.715332</ele>
<time>2012-03-29T13:39:55.996Z</time>
</trkpt>
<trkpt lat="42.7501800" lon="-2.5897900">
<ele>753.435120</ele>
<time>2012-03-29T13:40:10.001Z</time>
</trkpt>
<trkpt lat="42.7501600" lon="-2.5897900">
<ele>753.465576</ele>
<time>2012-03-29T13:40:12.999Z</time>
</trkpt>
<trkpt lat="42.7500900" lon="-2.5897800">
<ele>753.739868</ele>
<time>2012-03-29T13:40:19.998Z</time>
</trkpt>
<trkpt lat="42.7500300" lon="-2.5897700">
<ele>753.831360</ele>
<time>2012-03-29T13:40:25.000Z</time>
</trkpt>
<trkpt lat="42.7499800" lon="-2.5897300">
<ele>753.953308</ele>
<time>2012-03-29T13:40:38.997Z</time>
</trkpt>
<trkpt lat="42.7499200" lon="-2.5897000">
<ele>754.349487</ele>
<time>2012-03-29T13:40:54.998Z</time>
</trkpt>
<trkpt lat="42.7499200" lon="-2.5897700">
<ele>753.983765</ele>
<time>2012-03-29T13:41:24.003Z</time>
</trkpt>
<trkpt lat="42.7499100" lon="-2.5897900">
<ele>754.075195</ele>
<time>2012-03-29T13:41:25.999Z</time>
</trkpt>
<trkpt lat="42.7499100" lon="-2.5898700">
<ele>754.136169</ele>
<time>2012-03-29T13:41:44.998Z</time>
</trkpt>
<trkpt lat="42.7498700" lon="-2.5900500">
<ele>753.526550</ele>
<time>2012-03-29T13:41:59.997Z</time>
</trkpt>
<trkpt lat="42.7498600" lon="-2.5900800">
<ele>753.617981</ele>
<time>2012-03-29T13:42:02.002Z</time>
</trkpt>
<trkpt lat="42.7498900" lon="-2.5902100">
<ele>752.124512</ele>
<time>2012-03-29T13:42:14.003Z</time>
</trkpt>
<trkpt lat="42.7498800" lon="-2.5902300">
<ele>752.185425</ele>
<time>2012-03-29T13:42:25.001Z</time>
</trkpt>
<trkpt lat="42.7498000" lon="-2.5905000">
<ele>752.002563</ele>
<time>2012-03-29T13:42:40.000Z</time>
</trkpt>
<trkpt lat="42.7497200" lon="-2.5906100">
<ele>752.215881</ele>
<time>2012-03-29T13:42:49.997Z</time>
</trkpt>
<trkpt lat="42.7496900" lon="-2.5906800">
<ele>751.789185</ele>
<time>2012-03-29T13:42:56.002Z</time>
</trkpt>
<trkpt lat="42.7495900" lon="-2.5908200">
<ele>752.642639</ele>
<time>2012-03-29T13:43:09.998Z</time>
</trkpt>
<trkpt lat="42.7495300" lon="-2.5909200">
<ele>752.734131</ele>
<time>2012-03-29T13:43:17.999Z</time>
</trkpt>
<trkpt lat="42.7494400" lon="-2.5910900">
<ele>751.331970</ele>
<time>2012-03-29T13:43:30.000Z</time>
</trkpt>
<trkpt lat="42.7493800" lon="-2.5911700">
<ele>751.545349</ele>
<time>2012-03-29T13:43:35.996Z</time>
</trkpt>
<trkpt lat="42.7493800" lon="-2.5912100">
<ele>750.600525</ele>
<time>2012-03-29T13:43:38.001Z</time>
</trkpt>
<trkpt lat="42.7493000" lon="-2.5914600">
<ele>746.119873</ele>
<time>2012-03-29T13:43:51.997Z</time>
</trkpt>
<trkpt lat="42.7492400" lon="-2.5915600">
<ele>745.540771</ele>
<time>2012-03-29T13:43:59.998Z</time>
</trkpt>
<trkpt lat="42.7491900" lon="-2.5916400">
<ele>745.601746</ele>
<time>2012-03-29T13:44:06.003Z</time>
</trkpt>
<trkpt lat="42.7491400" lon="-2.5917000">
<ele>745.053101</ele>
<time>2012-03-29T13:44:10.997Z</time>
</trkpt>
<trkpt lat="42.7490000" lon="-2.5917600">
<ele>746.394226</ele>
<time>2012-03-29T13:44:24.000Z</time>
</trkpt>
<trkpt lat="42.7488000" lon="-2.5917800">
<ele>746.485718</ele>
<time>2012-03-29T13:44:40.001Z</time>
</trkpt>
<trkpt lat="42.7486500" lon="-2.5918800">
<ele>746.211365</ele>
<time>2012-03-29T13:44:53.998Z</time>
</trkpt>
<trkpt lat="42.7486300" lon="-2.5918900">
<ele>746.150391</ele>
<time>2012-03-29T13:44:56.003Z</time>
</trkpt>
<trkpt lat="42.7485100" lon="-2.5919200">
<ele>745.967468</ele>
<time>2012-03-29T13:45:04.997Z</time>
</trkpt>
<trkpt lat="42.7484800" lon="-2.5919300">
<ele>745.906555</ele>
<time>2012-03-29T13:45:08.997Z</time>
</trkpt>
<trkpt lat="42.7483400" lon="-2.5919200">
<ele>747.430542</ele>
<time>2012-03-29T13:45:23.996Z</time>
</trkpt>
<trkpt lat="42.7481000" lon="-2.5919800">
<ele>747.765869</ele>
<time>2012-03-29T13:45:42.002Z</time>
</trkpt>
<trkpt lat="42.7479200" lon="-2.5920400">
<ele>746.699036</ele>
<time>2012-03-29T13:45:55.999Z</time>
</trkpt>
<trkpt lat="42.7477100" lon="-2.5921100">
<ele>745.754150</ele>
<time>2012-03-29T13:46:13.002Z</time>
</trkpt>
<trkpt lat="42.7476400" lon="-2.5921600">
<ele>745.540771</ele>
<time>2012-03-29T13:46:20.001Z</time>
</trkpt>
<trkpt lat="42.7476100" lon="-2.5921600">
<ele>746.028503</ele>
<time>2012-03-29T13:46:21.996Z</time>
</trkpt>
<trkpt lat="42.7474900" lon="-2.5922400">
<ele>745.388428</ele>
<time>2012-03-29T13:46:35.000Z</time>
</trkpt>
<trkpt lat="42.7474900" lon="-2.5922500">
<ele>745.236023</ele>
<time>2012-03-29T13:46:36.002Z</time>
</trkpt>
<trkpt lat="42.7474600" lon="-2.5922600">
<ele>745.114136</ele>
<time>2012-03-29T13:46:37.998Z</time>
</trkpt>
<trkpt lat="42.7474000" lon="-2.5922800">
<ele>745.114136</ele>
<time>2012-03-29T13:46:43.000Z</time>
</trkpt>
<trkpt lat="42.7472300" lon="-2.5924400">
<ele>744.687317</ele>
<time>2012-03-29T13:46:57.999Z</time>
</trkpt>
<trkpt lat="42.7471600" lon="-2.5924500">
<ele>744.778809</ele>
<time>2012-03-29T13:47:04.004Z</time>
</trkpt>
<trkpt lat="42.7470700" lon="-2.5925000">
<ele>744.534973</ele>
<time>2012-03-29T13:47:16.999Z</time>
</trkpt>
<trkpt lat="42.7470000" lon="-2.5925500">
<ele>744.748291</ele>
<time>2012-03-29T13:47:23.997Z</time>
</trkpt>
<trkpt lat="42.7469800" lon="-2.5925800">
<ele>744.687317</ele>
<time>2012-03-29T13:47:27.004Z</time>
</trkpt>
<trkpt lat="42.7469500" lon="-2.5925700">
<ele>745.388428</ele>
<time>2012-03-29T13:47:29.000Z</time>
</trkpt>
<trkpt lat="42.7469200" lon="-2.5926100">
<ele>744.565430</ele>
<time>2012-03-29T13:47:33.000Z</time>
</trkpt>
<trkpt lat="42.7467700" lon="-2.5926900">
<ele>744.169189</ele>
<time>2012-03-29T13:47:50.997Z</time>
</trkpt>
<trkpt lat="42.7467200" lon="-2.5927000">
<ele>743.986267</ele>
<time>2012-03-29T13:47:54.997Z</time>
</trkpt>
<trkpt lat="42.7465700" lon="-2.5927000">
<ele>745.296936</ele>
<time>2012-03-29T13:48:06.998Z</time>
</trkpt>
<trkpt lat="42.7463900" lon="-2.5927900">
<ele>742.919495</ele>
<time>2012-03-29T13:48:21.004Z</time>
</trkpt>
<trkpt lat="42.7462900" lon="-2.5928000">
<ele>742.035583</ele>
<time>2012-03-29T13:48:27.000Z</time>
</trkpt>
<trkpt lat="42.7462700" lon="-2.5927900">
<ele>741.761292</ele>
<time>2012-03-29T13:48:28.996Z</time>
</trkpt>
<trkpt lat="42.7462000" lon="-2.5927200">
<ele>742.523315</ele>
<time>2012-03-29T13:48:36.996Z</time>
</trkpt>
<trkpt lat="42.7461100" lon="-2.5927600">
<ele>742.370911</ele>
<time>2012-03-29T13:48:41.999Z</time>
</trkpt>
<trkpt lat="42.7460000" lon="-2.5926900">
<ele>742.340393</ele>
<time>2012-03-29T13:48:55.002Z</time>
</trkpt>
<trkpt lat="42.7459100" lon="-2.5926700">
<ele>741.121216</ele>
<time>2012-03-29T13:49:00.998Z</time>
</trkpt>
<trkpt lat="42.7458800" lon="-2.5926700">
<ele>740.877319</ele>
<time>2012-03-29T13:49:03.003Z</time>
</trkpt>
<trkpt lat="42.7457100" lon="-2.5926500">
<ele>740.054382</ele>
<time>2012-03-29T13:49:17.000Z</time>
</trkpt>
<trkpt lat="42.7456100" lon="-2.5926100">
<ele>739.536255</ele>
<time>2012-03-29T13:49:25.000Z</time>
</trkpt>
<trkpt lat="42.7454400" lon="-2.5925800">
<ele>738.896118</ele>
<time>2012-03-29T13:49:38.997Z</time>
</trkpt>
<trkpt lat="42.7453700" lon="-2.5925100">
<ele>739.018127</ele>
<time>2012-03-29T13:49:46.004Z</time>
</trkpt>
<trkpt lat="42.7452500" lon="-2.5925000">
<ele>739.048523</ele>
<time>2012-03-29T13:49:56.001Z</time>
</trkpt>
<trkpt lat="42.7451500" lon="-2.5924800">
<ele>739.566711</ele>
<time>2012-03-29T13:50:05.004Z</time>
</trkpt>
<trkpt lat="42.7449900" lon="-2.5924800">
<ele>739.627686</ele>
<time>2012-03-29T13:50:19.000Z</time>
</trkpt>
<trkpt lat="42.7449300" lon="-2.5924700">
<ele>740.084900</ele>
<time>2012-03-29T13:50:24.003Z</time>
</trkpt>
<trkpt lat="42.7448900" lon="-2.5925000">
<ele>738.957092</ele>
<time>2012-03-29T13:50:28.003Z</time>
</trkpt>
<trkpt lat="42.7448700" lon="-2.5925000">
<ele>738.957092</ele>
<time>2012-03-29T13:50:29.999Z</time>
</trkpt>
<trkpt lat="42.7448100" lon="-2.5925100">
<ele>738.713318</ele>
<time>2012-03-29T13:50:36.997Z</time>
</trkpt>
<trkpt lat="42.7447600" lon="-2.5925400">
<ele>738.164673</ele>
<time>2012-03-29T13:50:40.998Z</time>
</trkpt>
<trkpt lat="42.7446700" lon="-2.5925300">
<ele>738.469482</ele>
<time>2012-03-29T13:50:55.997Z</time>
</trkpt>
<trkpt lat="42.7446000" lon="-2.5925400">
<ele>738.164673</ele>
<time>2012-03-29T13:51:00.999Z</time>
</trkpt>
<trkpt lat="42.7444200" lon="-2.5925400">
<ele>739.414307</ele>
<time>2012-03-29T13:51:14.996Z</time>
</trkpt>
<trkpt lat="42.7443300" lon="-2.5925300">
<ele>740.359192</ele>
<time>2012-03-29T13:51:26.997Z</time>
</trkpt>
<trkpt lat="42.7441900" lon="-2.5925100">
<ele>742.675720</ele>
<time>2012-03-29T13:51:41.003Z</time>
</trkpt>
<trkpt lat="42.7441400" lon="-2.5924900">
<ele>744.169189</ele>
<time>2012-03-29T14:19:50.002Z</time>
</trkpt>
<trkpt lat="42.7440900" lon="-2.5925000">
<ele>744.900696</ele>
<time>2012-03-29T14:19:54.002Z</time>
</trkpt>
<trkpt lat="42.7439100" lon="-2.5925800">
<ele>746.394226</ele>
<time>2012-03-29T14:20:07.999Z</time>
</trkpt>
<trkpt lat="42.7438100" lon="-2.5926300">
<ele>748.101074</ele>
<time>2012-03-29T14:20:18.997Z</time>
</trkpt>
<trkpt lat="42.7437000" lon="-2.5926800">
<ele>748.985046</ele>
<time>2012-03-29T14:20:30.998Z</time>
</trkpt>
<trkpt lat="42.7435500" lon="-2.5928100">
<ele>747.430542</ele>
<time>2012-03-29T14:20:44.002Z</time>
</trkpt>
<trkpt lat="42.7434300" lon="-2.5928700">
<ele>747.582947</ele>
<time>2012-03-29T14:20:56.996Z</time>
</trkpt>
<trkpt lat="42.7432700" lon="-2.5928900">
<ele>749.289856</ele>
<time>2012-03-29T14:21:09.999Z</time>
</trkpt>
<trkpt lat="42.7431200" lon="-2.5929500">
<ele>748.741211</ele>
<time>2012-03-29T14:21:22.000Z</time>
</trkpt>
<trkpt lat="42.7430200" lon="-2.5929700">
<ele>748.985046</ele>
<time>2012-03-29T14:21:34.001Z</time>
</trkpt>
<trkpt lat="42.7429200" lon="-2.5930200">
<ele>747.948669</ele>
<time>2012-03-29T14:21:46.002Z</time>
</trkpt>
<trkpt lat="42.7428100" lon="-2.5930300">
<ele>748.802124</ele>
<time>2012-03-29T14:21:55.999Z</time>
</trkpt>
<trkpt lat="42.7428000" lon="-2.5930200">
<ele>749.350830</ele>
<time>2012-03-29T14:21:58.003Z</time>
</trkpt>
<trkpt lat="42.7426400" lon="-2.5930900">
<ele>749.442261</ele>
<time>2012-03-29T14:22:10.998Z</time>
</trkpt>
<trkpt lat="42.7426000" lon="-2.5931200">
<ele>748.832642</ele>
<time>2012-03-29T14:22:22.999Z</time>
</trkpt>
<trkpt lat="42.7424600" lon="-2.5932000">
<ele>747.918274</ele>
<time>2012-03-29T14:22:49.999Z</time>
</trkpt>
<trkpt lat="42.7423000" lon="-2.5932700">
<ele>747.339111</ele>
<time>2012-03-29T14:23:02.000Z</time>
</trkpt>
<trkpt lat="42.7422200" lon="-2.5932900">
<ele>746.912415</ele>
<time>2012-03-29T14:23:10.000Z</time>
</trkpt>
<trkpt lat="42.7420600" lon="-2.5933400">
<ele>746.394226</ele>
<time>2012-03-29T14:23:26.002Z</time>
</trkpt>
<trkpt lat="42.7418900" lon="-2.5933700">
<ele>745.144531</ele>
<time>2012-03-29T14:23:37.000Z</time>
</trkpt>
<trkpt lat="42.7417800" lon="-2.5933500">
<ele>745.449341</ele>
<time>2012-03-29T14:23:50.997Z</time>
</trkpt>
<trkpt lat="42.7416300" lon="-2.5933800">
<ele>742.492798</ele>
<time>2012-03-29T14:24:02.998Z</time>
</trkpt>
<trkpt lat="42.7415800" lon="-2.5933700">
<ele>742.340393</ele>
<time>2012-03-29T14:24:06.998Z</time>
</trkpt>
<trkpt lat="42.7414100" lon="-2.5933600">
<ele>740.237305</ele>
<time>2012-03-29T14:24:20.002Z</time>
</trkpt>
<trkpt lat="42.7413100" lon="-2.5934000">
<ele>737.433105</ele>
<time>2012-03-29T14:24:32.003Z</time>
</trkpt>
<trkpt lat="42.7412300" lon="-2.5934200">
<ele>736.213867</ele>
<time>2012-03-29T14:24:37.999Z</time>
</trkpt>
<trkpt lat="42.7412000" lon="-2.5934000">
<ele>736.488281</ele>
<time>2012-03-29T14:24:41.999Z</time>
</trkpt>
<trkpt lat="42.7411500" lon="-2.5933900">
<ele>735.238525</ele>
<time>2012-03-29T14:24:47.002Z</time>
</trkpt>
<trkpt lat="42.7410200" lon="-2.5933700">
<ele>732.434387</ele>
<time>2012-03-29T14:24:59.996Z</time>
</trkpt>
<trkpt lat="42.7408700" lon="-2.5933500">
<ele>729.538818</ele>
<time>2012-03-29T14:25:11.997Z</time>
</trkpt>
<trkpt lat="42.7408500" lon="-2.5933500">
<ele>729.203491</ele>
<time>2012-03-29T14:25:12.999Z</time>
</trkpt>
<trkpt lat="42.7407500" lon="-2.5932700">
<ele>729.264526</ele>
<time>2012-03-29T14:25:26.996Z</time>
</trkpt>
<trkpt lat="42.7406300" lon="-2.5932100">
<ele>728.837769</ele>
<time>2012-03-29T14:25:34.997Z</time>
</trkpt>
<trkpt lat="42.7406200" lon="-2.5931600">
<ele>729.355896</ele>
<time>2012-03-29T14:25:41.002Z</time>
</trkpt>
<trkpt lat="42.7404500" lon="-2.5930500">
<ele>729.081604</ele>
<time>2012-03-29T14:25:56.001Z</time>
</trkpt>
<trkpt lat="42.7404200" lon="-2.5930300">
<ele>729.051086</ele>
<time>2012-03-29T14:25:58.999Z</time>
</trkpt>
<trkpt lat="42.7403600" lon="-2.5930200">
<ele>728.654907</ele>
<time>2012-03-29T14:26:04.001Z</time>
</trkpt>
<trkpt lat="42.7401500" lon="-2.5930200">
<ele>726.582275</ele>
<time>2012-03-29T14:26:19.000Z</time>
</trkpt>
<trkpt lat="42.7400000" lon="-2.5930700">
<ele>724.174316</ele>
<time>2012-03-29T14:26:29.999Z</time>
</trkpt>
<trkpt lat="42.7398500" lon="-2.5930900">
<ele>724.540100</ele>
<time>2012-03-29T14:26:42.000Z</time>
</trkpt>
<trkpt lat="42.7396700" lon="-2.5931100">
<ele>724.174316</ele>
<time>2012-03-29T14:26:54.001Z</time>
</trkpt>
<trkpt lat="42.7394900" lon="-2.5931100">
<ele>723.320923</ele>
<time>2012-03-29T14:27:07.998Z</time>
</trkpt>
<trkpt lat="42.7393300" lon="-2.5931200">
<ele>723.107483</ele>
<time>2012-03-29T14:27:21.001Z</time>
</trkpt>
<trkpt lat="42.7392100" lon="-2.5930800">
<ele>723.229431</ele>
<time>2012-03-29T14:27:32.000Z</time>
</trkpt>
<trkpt lat="42.7391100" lon="-2.5930900">
<ele>721.827332</ele>
<time>2012-03-29T14:27:40.000Z</time>
</trkpt>
<trkpt lat="42.7389600" lon="-2.5929800">
<ele>723.991455</ele>
<time>2012-03-29T14:27:53.004Z</time>
</trkpt>
<trkpt lat="42.7388800" lon="-2.5928900">
<ele>725.972656</ele>
<time>2012-03-29T14:28:04.996Z</time>
</trkpt>
<trkpt lat="42.7388600" lon="-2.5928300">
<ele>727.466125</ele>
<time>2012-03-29T14:28:12.003Z</time>
</trkpt>
<trkpt lat="42.7388800" lon="-2.5927700">
<ele>729.965515</ele>
<time>2012-03-29T14:28:28.998Z</time>
</trkpt>
<trkpt lat="42.7389000" lon="-2.5927400">
<ele>731.824829</ele>
<time>2012-03-29T14:29:18.004Z</time>
</trkpt>
<trkpt lat="42.7387900" lon="-2.5927900">
<ele>727.770935</ele>
<time>2012-03-29T14:29:33.003Z</time>
</trkpt>
<trkpt lat="42.7387600" lon="-2.5928000">
<ele>727.344238</ele>
<time>2012-03-29T14:29:48.002Z</time>
</trkpt>
<trkpt lat="42.7386900" lon="-2.5928200">
<ele>726.765076</ele>
<time>2012-03-29T14:30:23.003Z</time>
</trkpt>
<trkpt lat="42.7386100" lon="-2.5929000">
<ele>723.778137</ele>
<time>2012-03-29T14:30:31.997Z</time>
</trkpt>
<trkpt lat="42.7384600" lon="-2.5929900">
<ele>723.077026</ele>
<time>2012-03-29T14:30:46.002Z</time>
</trkpt>
<trkpt lat="42.7382600" lon="-2.5930500">
<ele>723.778137</ele>
<time>2012-03-29T14:30:59.999Z</time>
</trkpt>
<trkpt lat="42.7381300" lon="-2.5931300">
<ele>722.040710</ele>
<time>2012-03-29T14:31:13.996Z</time>
</trkpt>
<trkpt lat="42.7381100" lon="-2.5931500">
<ele>721.187317</ele>
<time>2012-03-29T14:31:16.000Z</time>
</trkpt>
<trkpt lat="42.7380700" lon="-2.5931900">
<ele>720.150940</ele>
<time>2012-03-29T14:31:20.001Z</time>
</trkpt>
<trkpt lat="42.7379400" lon="-2.5932500">
<ele>718.139282</ele>
<time>2012-03-29T14:31:29.997Z</time>
</trkpt>
<trkpt lat="42.7378900" lon="-2.5932600">
<ele>718.108826</ele>
<time>2012-03-29T14:31:33.997Z</time>
</trkpt>
<trkpt lat="42.7378000" lon="-2.5932800">
<ele>717.773499</ele>
<time>2012-03-29T14:31:41.998Z</time>
</trkpt>
<trkpt lat="42.7377700" lon="-2.5933000">
<ele>717.041992</ele>
<time>2012-03-29T14:31:45.998Z</time>
</trkpt>
<trkpt lat="42.7377300" lon="-2.5933400">
<ele>715.822815</ele>
<time>2012-03-29T14:31:51.001Z</time>
</trkpt>
<trkpt lat="42.7375500" lon="-2.5933900">
<ele>714.390259</ele>
<time>2012-03-29T14:32:06.000Z</time>
</trkpt>
<trkpt lat="42.7373900" lon="-2.5933800">
<ele>713.140564</ele>
<time>2012-03-29T14:32:20.999Z</time>
</trkpt>
<trkpt lat="42.7373400" lon="-2.5933500">
<ele>712.835754</ele>
<time>2012-03-29T14:32:26.002Z</time>
</trkpt>
<trkpt lat="42.7372000" lon="-2.5932200">
<ele>713.811096</ele>
<time>2012-03-29T14:32:41.001Z</time>
</trkpt>
<trkpt lat="42.7371600" lon="-2.5931900">
<ele>713.750122</ele>
<time>2012-03-29T14:32:57.002Z</time>
</trkpt>
<trkpt lat="42.7370700" lon="-2.5930300">
<ele>714.816956</ele>
<time>2012-03-29T14:33:10.999Z</time>
</trkpt>
<trkpt lat="42.7370100" lon="-2.5930000">
<ele>713.445374</ele>
<time>2012-03-29T14:33:16.001Z</time>
</trkpt>
<trkpt lat="42.7369000" lon="-2.5928400">
<ele>713.689209</ele>
<time>2012-03-29T14:33:28.996Z</time>
</trkpt>
<trkpt lat="42.7368200" lon="-2.5927800">
<ele>713.079590</ele>
<time>2012-03-29T14:33:36.003Z</time>
</trkpt>
<trkpt lat="42.7366900" lon="-2.5927100">
<ele>712.073730</ele>
<time>2012-03-29T14:33:50.000Z</time>
</trkpt>
<trkpt lat="42.7366500" lon="-2.5926700">
<ele>711.647034</ele>
<time>2012-03-29T14:34:22.996Z</time>
</trkpt>
<trkpt lat="42.7365500" lon="-2.5926500">
<ele>710.123047</ele>
<time>2012-03-29T14:34:31.999Z</time>
</trkpt>
<trkpt lat="42.7364400" lon="-2.5925500">
<ele>710.549744</ele>
<time>2012-03-29T14:34:44.000Z</time>
</trkpt>
<trkpt lat="42.7362800" lon="-2.5924700">
<ele>710.427856</ele>
<time>2012-03-29T14:34:56.001Z</time>
</trkpt>
<trkpt lat="42.7361500" lon="-2.5923500">
<ele>712.439514</ele>
<time>2012-03-29T14:35:09.004Z</time>
</trkpt>
<trkpt lat="42.7360400" lon="-2.5923000">
<ele>712.195740</ele>
<time>2012-03-29T14:35:19.000Z</time>
</trkpt>
<trkpt lat="42.7358300" lon="-2.5923100">
<ele>712.500488</ele>
<time>2012-03-29T14:35:35.002Z</time>
</trkpt>
<trkpt lat="42.7356900" lon="-2.5923300">
<ele>713.445374</ele>
<time>2012-03-29T14:35:47.003Z</time>
</trkpt>
<trkpt lat="42.7356800" lon="-2.5923300">
<ele>713.506287</ele>
<time>2012-03-29T14:35:47.996Z</time>
</trkpt>
<trkpt lat="42.7356100" lon="-2.5924000">
<ele>712.409058</ele>
<time>2012-03-29T14:35:55.003Z</time>
</trkpt>
<trkpt lat="42.7354700" lon="-2.5925100">
<ele>713.689209</ele>
<time>2012-03-29T14:36:09.000Z</time>
</trkpt>
<trkpt lat="42.7354600" lon="-2.5925300">
<ele>713.506287</ele>
<time>2012-03-29T14:36:10.002Z</time>
</trkpt>
<trkpt lat="42.7354200" lon="-2.5925900">
<ele>712.957703</ele>
<time>2012-03-29T14:36:14.003Z</time>
</trkpt>
<trkpt lat="42.7353700" lon="-2.5926300">
<ele>713.902527</ele>
<time>2012-03-29T14:36:18.996Z</time>
</trkpt>
<trkpt lat="42.7353200" lon="-2.5926600">
<ele>714.634094</ele>
<time>2012-03-29T14:36:22.997Z</time>
</trkpt>
<trkpt lat="42.7352300" lon="-2.5927800">
<ele>713.841614</ele>
<time>2012-03-29T14:36:33.002Z</time>
</trkpt>
<trkpt lat="42.7351600" lon="-2.5927900">
<ele>715.914246</ele>
<time>2012-03-29T14:36:38.998Z</time>
</trkpt>
<trkpt lat="42.7351100" lon="-2.5928000">
<ele>717.316284</ele>
<time>2012-03-29T14:36:42.998Z</time>
</trkpt>
<trkpt lat="42.7350300" lon="-2.5928400">
<ele>718.261230</ele>
<time>2012-03-29T14:36:59.000Z</time>
</trkpt>
<trkpt lat="42.7350000" lon="-2.5928700">
<ele>718.352661</ele>
<time>2012-03-29T14:37:01.998Z</time>
</trkpt>
<trkpt lat="42.7349700" lon="-2.5929000">
<ele>718.779358</ele>
<time>2012-03-29T14:37:04.996Z</time>
</trkpt>
<trkpt lat="42.7349600" lon="-2.5929500">
<ele>717.682129</ele>
<time>2012-03-29T14:37:08.996Z</time>
</trkpt>
<trkpt lat="42.7349400" lon="-2.5930900">
<ele>714.390259</ele>
<time>2012-03-29T14:37:17.999Z</time>
</trkpt>
<trkpt lat="42.7349200" lon="-2.5931300">
<ele>713.902527</ele>
<time>2012-03-29T14:37:20.997Z</time>
</trkpt>
<trkpt lat="42.7348500" lon="-2.5932000">
<ele>714.237854</ele>
<time>2012-03-29T14:37:28.998Z</time>
</trkpt>
<trkpt lat="42.7348300" lon="-2.5932300">
<ele>714.237854</ele>
<time>2012-03-29T14:37:44.999Z</time>
</trkpt>
<trkpt lat="42.7348000" lon="-2.5932500">
<ele>714.877869</ele>
<time>2012-03-29T14:37:47.997Z</time>
</trkpt>
<trkpt lat="42.7347700" lon="-2.5932800">
<ele>714.603577</ele>
<time>2012-03-29T14:37:50.002Z</time>
</trkpt>
<trkpt lat="42.7346800" lon="-2.5933800">
<ele>714.420715</ele>
<time>2012-03-29T14:37:59.998Z</time>
</trkpt>
<trkpt lat="42.7346000" lon="-2.5934200">
<ele>714.816956</ele>
<time>2012-03-29T14:38:06.003Z</time>
</trkpt>
<trkpt lat="42.7344900" lon="-2.5935200">
<ele>713.597717</ele>
<time>2012-03-29T14:38:14.997Z</time>
</trkpt>
<trkpt lat="42.7344700" lon="-2.5935400">
<ele>713.018677</ele>
<time>2012-03-29T14:38:18.004Z</time>
</trkpt>
<trkpt lat="42.7343100" lon="-2.5936000">
<ele>712.988159</ele>
<time>2012-03-29T14:38:33.003Z</time>
</trkpt>
<trkpt lat="42.7341600" lon="-2.5936600">
<ele>712.469971</ele>
<time>2012-03-29T14:38:47.000Z</time>
</trkpt>
<trkpt lat="42.7340700" lon="-2.5936900">
<ele>710.671692</ele>
<time>2012-03-29T14:38:57.998Z</time>
</trkpt>
<trkpt lat="42.7340600" lon="-2.5937000">
<ele>710.366882</ele>
<time>2012-03-29T14:38:59.001Z</time>
</trkpt>
<trkpt lat="42.7339100" lon="-2.5936700">
<ele>709.330566</ele>
<time>2012-03-29T14:39:12.004Z</time>
</trkpt>
<trkpt lat="42.7337500" lon="-2.5935900">
<ele>708.659973</ele>
<time>2012-03-29T14:39:26.001Z</time>
</trkpt>
<trkpt lat="42.7336800" lon="-2.5935400">
<ele>708.964783</ele>
<time>2012-03-29T14:39:38.002Z</time>
</trkpt>
<trkpt lat="42.7336600" lon="-2.5935300">
<ele>709.056274</ele>
<time>2012-03-29T14:39:54.996Z</time>
</trkpt>
<trkpt lat="42.7335900" lon="-2.5934900">
<ele>709.300110</ele>
<time>2012-03-29T14:40:02.997Z</time>
</trkpt>
<trkpt lat="42.7334100" lon="-2.5935700">
<ele>706.313049</ele>
<time>2012-03-29T14:40:17.996Z</time>
</trkpt>
<trkpt lat="42.7333700" lon="-2.5936100">
<ele>705.246277</ele>
<time>2012-03-29T14:40:21.996Z</time>
</trkpt>
<trkpt lat="42.7333100" lon="-2.5936100">
<ele>705.368164</ele>
<time>2012-03-29T14:40:26.999Z</time>
</trkpt>
<trkpt lat="42.7331400" lon="-2.5936500">
<ele>705.185303</ele>
<time>2012-03-29T14:40:41.998Z</time>
</trkpt>
<trkpt lat="42.7329800" lon="-2.5936200">
<ele>704.849976</ele>
<time>2012-03-29T14:40:55.001Z</time>
</trkpt>
<trkpt lat="42.7328700" lon="-2.5936100">
<ele>703.173584</ele>
<time>2012-03-29T14:41:04.004Z</time>
</trkpt>
<trkpt lat="42.7326900" lon="-2.5936100">
<ele>702.868774</ele>
<time>2012-03-29T14:41:18.001Z</time>
</trkpt>
<trkpt lat="42.7326100" lon="-2.5936300">
<ele>703.265076</ele>
<time>2012-03-29T14:41:23.997Z</time>
</trkpt>
<trkpt lat="42.7324300" lon="-2.5936100">
<ele>705.185303</ele>
<time>2012-03-29T14:41:38.003Z</time>
</trkpt>
<trkpt lat="42.7323100" lon="-2.5936700">
<ele>704.057495</ele>
<time>2012-03-29T14:41:50.997Z</time>
</trkpt>
<trkpt lat="42.7321300" lon="-2.5937800">
<ele>702.564026</ele>
<time>2012-03-29T14:42:05.996Z</time>
</trkpt>
<trkpt lat="42.7320200" lon="-2.5938300">
<ele>703.295471</ele>
<time>2012-03-29T14:42:14.999Z</time>
</trkpt>
<trkpt lat="42.7319900" lon="-2.5938300">
<ele>703.783203</ele>
<time>2012-03-29T14:42:17.004Z</time>
</trkpt>
<trkpt lat="42.7319700" lon="-2.5938400">
<ele>703.691772</ele>
<time>2012-03-29T14:42:18.999Z</time>
</trkpt>
<trkpt lat="42.7318200" lon="-2.5939000">
<ele>703.295471</ele>
<time>2012-03-29T14:42:32.003Z</time>
</trkpt>
<trkpt lat="42.7316600" lon="-2.5939600">
<ele>702.899292</ele>
<time>2012-03-29T14:42:45.999Z</time>
</trkpt>
<trkpt lat="42.7315300" lon="-2.5940200">
<ele>702.106812</ele>
<time>2012-03-29T14:42:59.003Z</time>
</trkpt>
<trkpt lat="42.7314100" lon="-2.5940500">
<ele>701.405762</ele>
<time>2012-03-29T14:43:10.001Z</time>
</trkpt>
<trkpt lat="42.7313900" lon="-2.5940700">
<ele>701.039978</ele>
<time>2012-03-29T14:43:11.997Z</time>
</trkpt>
<trkpt lat="42.7311600" lon="-2.5941300">
<ele>700.338928</ele>
<time>2012-03-29T14:43:27.998Z</time>
</trkpt>
<trkpt lat="42.7309900" lon="-2.5940700">
<ele>699.180664</ele>
<time>2012-03-29T14:43:41.002Z</time>
</trkpt>
<trkpt lat="42.7308800" lon="-2.5939200">
<ele>699.119751</ele>
<time>2012-03-29T14:43:54.998Z</time>
</trkpt>
<trkpt lat="42.7306800" lon="-2.5938600">
<ele>696.407043</ele>
<time>2012-03-29T14:44:12.002Z</time>
</trkpt>
<trkpt lat="42.7305500" lon="-2.5938300">
<ele>695.065918</ele>
<time>2012-03-29T14:44:24.003Z</time>
</trkpt>
<trkpt lat="42.7304400" lon="-2.5938000">
<ele>693.663879</ele>
<time>2012-03-29T14:44:32.004Z</time>
</trkpt>
<trkpt lat="42.7303600" lon="-2.5937400">
<ele>693.359070</ele>
<time>2012-03-29T14:44:40.004Z</time>
</trkpt>
<trkpt lat="42.7303200" lon="-2.5937000">
<ele>693.419983</ele>
<time>2012-03-29T14:44:43.996Z</time>
</trkpt>
<trkpt lat="42.7302800" lon="-2.5936700">
<ele>693.328552</ele>
<time>2012-03-29T14:44:47.996Z</time>
</trkpt>
<trkpt lat="42.7301400" lon="-2.5935500">
<ele>692.322693</ele>
<time>2012-03-29T14:45:03.004Z</time>
</trkpt>
<trkpt lat="42.7300600" lon="-2.5934300">
<ele>693.450500</ele>
<time>2012-03-29T14:45:13.000Z</time>
</trkpt>
<trkpt lat="42.7298800" lon="-2.5932600">
<ele>691.987427</ele>
<time>2012-03-29T14:45:30.997Z</time>
</trkpt>
<trkpt lat="42.7298100" lon="-2.5931500">
<ele>691.987427</ele>
<time>2012-03-29T14:45:38.998Z</time>
</trkpt>
<trkpt lat="42.7297500" lon="-2.5930700">
<ele>691.225464</ele>
<time>2012-03-29T14:45:46.999Z</time>
</trkpt>
<trkpt lat="42.7296900" lon="-2.5929700">
<ele>691.682678</ele>
<time>2012-03-29T14:45:53.997Z</time>
</trkpt>
<trkpt lat="42.7296700" lon="-2.5929600">
<ele>691.194946</ele>
<time>2012-03-29T14:45:56.002Z</time>
</trkpt>
<trkpt lat="42.7295400" lon="-2.5929700">
<ele>688.756531</ele>
<time>2012-03-29T14:46:05.998Z</time>
</trkpt>
<trkpt lat="42.7293900" lon="-2.5930000">
<ele>689.640503</ele>
<time>2012-03-29T14:46:20.004Z</time>
</trkpt>
<trkpt lat="42.7293800" lon="-2.5930000">
<ele>689.701477</ele>
<time>2012-03-29T14:46:21.999Z</time>
</trkpt>
<trkpt lat="42.7292500" lon="-2.5930600">
<ele>688.726135</ele>
<time>2012-03-29T14:46:35.003Z</time>
</trkpt>
<trkpt lat="42.7290900" lon="-2.5931200">
<ele>688.025024</ele>
<time>2012-03-29T14:46:48.999Z</time>
</trkpt>
<trkpt lat="42.7289100" lon="-2.5931900">
<ele>687.445862</ele>
<time>2012-03-29T14:47:03.998Z</time>
</trkpt>
<trkpt lat="42.7288200" lon="-2.5932200">
<ele>687.598267</ele>
<time>2012-03-29T14:47:11.999Z</time>
</trkpt>
<trkpt lat="42.7287600" lon="-2.5932600">
<ele>687.323975</ele>
<time>2012-03-29T14:47:18.004Z</time>
</trkpt>
<trkpt lat="42.7287300" lon="-2.5933000">
<ele>686.775330</ele>
<time>2012-03-29T14:47:22.004Z</time>
</trkpt>
<trkpt lat="42.7286000" lon="-2.5934100">
<ele>686.196228</ele>
<time>2012-03-29T14:47:33.996Z</time>
</trkpt>
<trkpt lat="42.7285500" lon="-2.5934700">
<ele>686.318115</ele>
<time>2012-03-29T14:47:38.999Z</time>
</trkpt>
<trkpt lat="42.7284000" lon="-2.5935800">
<ele>686.683899</ele>
<time>2012-03-29T14:47:56.003Z</time>
</trkpt>
<trkpt lat="42.7282900" lon="-2.5937500">
<ele>684.672241</ele>
<time>2012-03-29T14:48:11.002Z</time>
</trkpt>
<trkpt lat="42.7281000" lon="-2.5938500">
<ele>685.373291</ele>
<time>2012-03-29T14:48:26.001Z</time>
</trkpt>
<trkpt lat="42.7279700" lon="-2.5938900">
<ele>685.860962</ele>
<time>2012-03-29T14:48:36.999Z</time>
</trkpt>
<trkpt lat="42.7278500" lon="-2.5938700">
<ele>687.842163</ele>
<time>2012-03-29T14:48:47.998Z</time>
</trkpt>
<trkpt lat="42.7276500" lon="-2.5939800">
<ele>686.226685</ele>
<time>2012-03-29T14:49:03.999Z</time>
</trkpt>
<trkpt lat="42.7274800" lon="-2.5940600">
<ele>684.672241</ele>
<time>2012-03-29T14:49:17.003Z</time>
</trkpt>
<trkpt lat="42.7273200" lon="-2.5941300">
<ele>684.306519</ele>
<time>2012-03-29T14:49:29.997Z</time>
</trkpt>
<trkpt lat="42.7271700" lon="-2.5941900">
<ele>685.586670</ele>
<time>2012-03-29T14:49:44.003Z</time>
</trkpt>
<trkpt lat="42.7271500" lon="-2.5942100">
<ele>685.068481</ele>
<time>2012-03-29T14:49:44.996Z</time>
</trkpt>
<trkpt lat="42.7270600" lon="-2.5942200">
<ele>684.672241</ele>
<time>2012-03-29T14:49:51.001Z</time>
</trkpt>
<trkpt lat="42.7269500" lon="-2.5942900">
<ele>683.209229</ele>
<time>2012-03-29T14:50:00.004Z</time>
</trkpt>
<trkpt lat="42.7268600" lon="-2.5942800">
<ele>683.483521</ele>
<time>2012-03-29T14:50:07.002Z</time>
</trkpt>
<trkpt lat="42.7268300" lon="-2.5942900">
<ele>683.331116</ele>
<time>2012-03-29T14:50:08.998Z</time>
</trkpt>
<trkpt lat="42.7266000" lon="-2.5942400">
<ele>681.898560</ele>
<time>2012-03-29T14:50:27.004Z</time>
</trkpt>
<trkpt lat="42.7264800" lon="-2.5941200">
<ele>683.209229</ele>
<time>2012-03-29T14:50:38.996Z</time>
</trkpt>
<trkpt lat="42.7262700" lon="-2.5941700">
<ele>682.233826</ele>
<time>2012-03-29T14:50:54.004Z</time>
</trkpt>
<trkpt lat="42.7261200" lon="-2.5942200">
<ele>681.441345</ele>
<time>2012-03-29T14:51:06.998Z</time>
</trkpt>
<trkpt lat="42.7260800" lon="-2.5942200">
<ele>681.868103</ele>
<time>2012-03-29T14:51:09.996Z</time>
</trkpt>
<trkpt lat="42.7260100" lon="-2.5942400">
<ele>681.654663</ele>
<time>2012-03-29T14:51:16.001Z</time>
</trkpt>
<trkpt lat="42.7258900" lon="-2.5942200">
<ele>683.026306</ele>
<time>2012-03-29T14:51:25.004Z</time>
</trkpt>
<trkpt lat="42.7258400" lon="-2.5942200">
<ele>682.904419</ele>
<time>2012-03-29T14:51:28.002Z</time>
</trkpt>
<trkpt lat="42.7258000" lon="-2.5942300">
<ele>682.660522</ele>
<time>2012-03-29T14:51:32.003Z</time>
</trkpt>
<trkpt lat="42.7257600" lon="-2.5943000">
<ele>681.624268</ele>
<time>2012-03-29T14:51:36.996Z</time>
</trkpt>
<trkpt lat="42.7257000" lon="-2.5943100">
<ele>682.050964</ele>
<time>2012-03-29T14:51:41.999Z</time>
</trkpt>
<trkpt lat="42.7255200" lon="-2.5944000">
<ele>679.764954</ele>
<time>2012-03-29T14:51:56.998Z</time>
</trkpt>
<trkpt lat="42.7253700" lon="-2.5944600">
<ele>679.216309</ele>
<time>2012-03-29T14:52:10.001Z</time>
</trkpt>
<trkpt lat="42.7253700" lon="-2.5944600">
<ele>679.216309</ele>
<time>2012-03-29T14:52:11.004Z</time>
</trkpt>
<trkpt lat="42.7252700" lon="-2.5945100">
<ele>678.850525</ele>
<time>2012-03-29T14:52:18.002Z</time>
</trkpt>
<trkpt lat="42.7252700" lon="-2.5945500">
<ele>678.088562</ele>
<time>2012-03-29T14:52:19.998Z</time>
</trkpt>
<trkpt lat="42.7252100" lon="-2.5946500">
<ele>676.991333</ele>
<time>2012-03-29T14:52:27.998Z</time>
</trkpt>
<trkpt lat="42.7250400" lon="-2.5947900">
<ele>675.528259</ele>
<time>2012-03-29T14:52:42.997Z</time>
</trkpt>
<trkpt lat="42.7248900" lon="-2.5949100">
<ele>675.436829</ele>
<time>2012-03-29T14:52:57.003Z</time>
</trkpt>
<trkpt lat="42.7248700" lon="-2.5949200">
<ele>675.558716</ele>
<time>2012-03-29T14:52:57.996Z</time>
</trkpt>
<trkpt lat="42.7247400" lon="-2.5950400">
<ele>674.126160</ele>
<time>2012-03-29T14:53:13.004Z</time>
</trkpt>
<trkpt lat="42.7246900" lon="-2.5950700">
<ele>673.516541</ele>
<time>2012-03-29T14:53:17.998Z</time>
</trkpt>
<trkpt lat="42.7245100" lon="-2.5951100">
<ele>672.693604</ele>
<time>2012-03-29T14:53:32.997Z</time>
</trkpt>
<trkpt lat="42.7244000" lon="-2.5949600">
<ele>672.663086</ele>
<time>2012-03-29T14:53:47.003Z</time>
</trkpt>
<trkpt lat="42.7243800" lon="-2.5949500">
<ele>672.663086</ele>
<time>2012-03-29T14:53:48.998Z</time>
</trkpt>
<trkpt lat="42.7243300" lon="-2.5949200">
<ele>673.333740</ele>
<time>2012-03-29T14:53:54.001Z</time>
</trkpt>
<trkpt lat="42.7241500" lon="-2.5948700">
<ele>674.857727</ele>
<time>2012-03-29T14:54:07.004Z</time>
</trkpt>
<trkpt lat="42.7240600" lon="-2.5948400">
<ele>675.345337</ele>
<time>2012-03-29T14:54:15.998Z</time>
</trkpt>
<trkpt lat="42.7240300" lon="-2.5948500">
<ele>675.253906</ele>
<time>2012-03-29T14:54:18.996Z</time>
</trkpt>
<trkpt lat="42.7239800" lon="-2.5948000">
<ele>675.863464</ele>
<time>2012-03-29T14:54:23.999Z</time>
</trkpt>
<trkpt lat="42.7239500" lon="-2.5947500">
<ele>676.412170</ele>
<time>2012-03-29T14:54:27.999Z</time>
</trkpt>
<trkpt lat="42.7237900" lon="-2.5946700">
<ele>677.235107</ele>
<time>2012-03-29T14:54:42.998Z</time>
</trkpt>
<trkpt lat="42.7236300" lon="-2.5946200">
<ele>677.326538</ele>
<time>2012-03-29T14:54:56.002Z</time>
</trkpt>
<trkpt lat="42.7234500" lon="-2.5945100">
<ele>676.991333</ele>
<time>2012-03-29T14:55:09.998Z</time>
</trkpt>
<trkpt lat="42.7233100" lon="-2.5945400">
<ele>677.265625</ele>
<time>2012-03-29T14:55:24.997Z</time>
</trkpt>
<trkpt lat="42.7231500" lon="-2.5945600">
<ele>678.576233</ele>
<time>2012-03-29T14:55:36.998Z</time>
</trkpt>
<trkpt lat="42.7230800" lon="-2.5945900">
<ele>679.124939</ele>
<time>2012-03-29T14:55:43.003Z</time>
</trkpt>
<trkpt lat="42.7229900" lon="-2.5946200">
<ele>681.807068</ele>
<time>2012-03-29T14:55:51.997Z</time>
</trkpt>
<trkpt lat="42.7229200" lon="-2.5948200">
<ele>680.069763</ele>
<time>2012-03-29T14:56:06.003Z</time>
</trkpt>
<trkpt lat="42.7228700" lon="-2.5948600">
<ele>681.045105</ele>
<time>2012-03-29T14:56:10.003Z</time>
</trkpt>
<trkpt lat="42.7227900" lon="-2.5949300">
<ele>682.264282</ele>
<time>2012-03-29T14:56:18.004Z</time>
</trkpt>
<trkpt lat="42.7227700" lon="-2.5949500">
<ele>682.386230</ele>
<time>2012-03-29T14:56:20.000Z</time>
</trkpt>
<trkpt lat="42.7226600" lon="-2.5950600">
<ele>683.910278</ele>
<time>2012-03-29T14:56:30.998Z</time>
</trkpt>
<trkpt lat="42.7225200" lon="-2.5951900">
<ele>684.794128</ele>
<time>2012-03-29T14:56:45.004Z</time>
</trkpt>
<trkpt lat="42.7224800" lon="-2.5952600">
<ele>685.129456</ele>
<time>2012-03-29T14:56:49.998Z</time>
</trkpt>
<trkpt lat="42.7224600" lon="-2.5953000">
<ele>685.495178</ele>
<time>2012-03-29T14:56:52.996Z</time>
</trkpt>
<trkpt lat="42.7224400" lon="-2.5953500">
<ele>685.434265</ele>
<time>2012-03-29T14:56:56.996Z</time>
</trkpt>
<trkpt lat="42.7224200" lon="-2.5954200">
<ele>685.373291</ele>
<time>2012-03-29T14:57:00.996Z</time>
</trkpt>
<trkpt lat="42.7223900" lon="-2.5955500">
<ele>685.007507</ele>
<time>2012-03-29T14:57:08.004Z</time>
</trkpt>
<trkpt lat="42.7222800" lon="-2.5958200">
<ele>684.154114</ele>
<time>2012-03-29T14:57:24.998Z</time>
</trkpt>
<trkpt lat="42.7222000" lon="-2.5960600">
<ele>684.032166</ele>
<time>2012-03-29T14:57:39.997Z</time>
</trkpt>
<trkpt lat="42.7221600" lon="-2.5961800">
<ele>683.483521</ele>
<time>2012-03-29T14:57:46.996Z</time>
</trkpt>
<trkpt lat="42.7221200" lon="-2.5962500">
<ele>683.392090</ele>
<time>2012-03-29T14:57:51.998Z</time>
</trkpt>
<trkpt lat="42.7219800" lon="-2.5964200">
<ele>682.416687</ele>
<time>2012-03-29T14:58:06.997Z</time>
</trkpt>
<trkpt lat="42.7219100" lon="-2.5964900">
<ele>682.599609</ele>
<time>2012-03-29T14:58:13.996Z</time>
</trkpt>
<trkpt lat="42.7217500" lon="-2.5965600">
<ele>681.502319</ele>
<time>2012-03-29T14:58:29.004Z</time>
</trkpt>
<trkpt lat="42.7215700" lon="-2.5965700">
<ele>681.288940</ele>
<time>2012-03-29T14:58:44.003Z</time>
</trkpt>
<trkpt lat="42.7214100" lon="-2.5966100">
<ele>680.222168</ele>
<time>2012-03-29T14:58:57.999Z</time>
</trkpt>
<trkpt lat="42.7213100" lon="-2.5966600">
<ele>678.942017</ele>
<time>2012-03-29T14:59:10.000Z</time>
</trkpt>
<trkpt lat="42.7211700" lon="-2.5965800">
<ele>678.881042</ele>
<time>2012-03-29T14:59:23.004Z</time>
</trkpt>
<trkpt lat="42.7209800" lon="-2.5965400">
<ele>677.326538</ele>
<time>2012-03-29T14:59:38.996Z</time>
</trkpt>
<trkpt lat="42.7209200" lon="-2.5965200">
<ele>676.625488</ele>
<time>2012-03-29T14:59:43.999Z</time>
</trkpt>
<trkpt lat="42.7209000" lon="-2.5965200">
<ele>676.442627</ele>
<time>2012-03-29T14:59:46.997Z</time>
</trkpt>
<trkpt lat="42.7208600" lon="-2.5964500">
<ele>675.985474</ele>
<time>2012-03-29T14:59:51.999Z</time>
</trkpt>
<trkpt lat="42.7207800" lon="-2.5963300">
<ele>674.583374</ele>
<time>2012-03-29T15:00:00.000Z</time>
</trkpt>
<trkpt lat="42.7207300" lon="-2.5962400">
<ele>672.602173</ele>
<time>2012-03-29T15:00:06.998Z</time>
</trkpt>
<trkpt lat="42.7207400" lon="-2.5961600">
<ele>672.083984</ele>
<time>2012-03-29T15:00:13.003Z</time>
</trkpt>
<trkpt lat="42.7208000" lon="-2.5960700">
<ele>671.718262</ele>
<time>2012-03-29T15:00:20.002Z</time>
</trkpt>
<trkpt lat="42.7208300" lon="-2.5959800">
<ele>672.144958</ele>
<time>2012-03-29T15:00:25.004Z</time>
</trkpt>
<trkpt lat="42.7208000" lon="-2.5958200">
<ele>671.291504</ele>
<time>2012-03-29T15:00:39.001Z</time>
</trkpt>
<trkpt lat="42.7207500" lon="-2.5957800">
<ele>670.773315</ele>
<time>2012-03-29T15:00:52.004Z</time>
</trkpt>
<trkpt lat="42.7206500" lon="-2.5957300">
<ele>669.676086</ele>
<time>2012-03-29T15:00:59.003Z</time>
</trkpt>
<trkpt lat="42.7205500" lon="-2.5956800">
<ele>670.407593</ele>
<time>2012-03-29T15:01:12.999Z</time>
</trkpt>
<trkpt lat="42.7203600" lon="-2.5956800">
<ele>671.931580</ele>
<time>2012-03-29T15:01:26.996Z</time>
</trkpt>
<trkpt lat="42.7203500" lon="-2.5957000">
<ele>671.992554</ele>
<time>2012-03-29T15:01:27.998Z</time>
</trkpt>
<trkpt lat="42.7203200" lon="-2.5957200">
<ele>672.358276</ele>
<time>2012-03-29T15:01:31.999Z</time>
</trkpt>
<trkpt lat="42.7201500" lon="-2.5957900">
<ele>674.004272</ele>
<time>2012-03-29T15:01:46.998Z</time>
</trkpt>
<trkpt lat="42.7199500" lon="-2.5957000">
<ele>676.960815</ele>
<time>2012-03-29T15:02:04.001Z</time>
</trkpt>
<trkpt lat="42.7198000" lon="-2.5957500">
<ele>677.600891</ele>
<time>2012-03-29T15:02:16.996Z</time>
</trkpt>
<trkpt lat="42.7198000" lon="-2.5957600">
<ele>677.448486</ele>
<time>2012-03-29T15:02:17.998Z</time>
</trkpt>
<trkpt lat="42.7197900" lon="-2.5957900">
<ele>677.113220</ele>
<time>2012-03-29T15:02:20.003Z</time>
</trkpt>
<trkpt lat="42.7197400" lon="-2.5958400">
<ele>677.052246</ele>
<time>2012-03-29T15:02:24.996Z</time>
</trkpt>
<trkpt lat="42.7197000" lon="-2.5959100">
<ele>676.991333</ele>
<time>2012-03-29T15:02:38.000Z</time>
</trkpt>
<trkpt lat="42.7197100" lon="-2.5958900">
<ele>676.991333</ele>
<time>2012-03-29T15:02:43.996Z</time>
</trkpt>
<trkpt lat="42.7197800" lon="-2.5958000">
<ele>677.082703</ele>
<time>2012-03-29T15:02:51.003Z</time>
</trkpt>
<trkpt lat="42.7197400" lon="-2.5957200">
<ele>678.820129</ele>
<time>2012-03-29T15:02:59.004Z</time>
</trkpt>
<trkpt lat="42.7195600" lon="-2.5956400">
<ele>681.563293</ele>
<time>2012-03-29T15:03:14.996Z</time>
</trkpt>
<trkpt lat="42.7194400" lon="-2.5955300">
<ele>682.325317</ele>
<time>2012-03-29T15:03:27.999Z</time>
</trkpt>
<trkpt lat="42.7193800" lon="-2.5954700">
<ele>682.812927</ele>
<time>2012-03-29T15:03:40.000Z</time>
</trkpt>
<trkpt lat="42.7193600" lon="-2.5955100">
<ele>682.508118</ele>
<time>2012-03-29T15:04:15.001Z</time>
</trkpt>
<trkpt lat="42.7192800" lon="-2.5953900">
<ele>683.574951</ele>
<time>2012-03-29T15:05:20.000Z</time>
</trkpt>
<trkpt lat="42.7191200" lon="-2.5952600">
<ele>685.373291</ele>
<time>2012-03-29T15:05:38.999Z</time>
</trkpt>
<trkpt lat="42.7190700" lon="-2.5951500">
<ele>686.988708</ele>
<time>2012-03-29T15:05:56.003Z</time>
</trkpt>
<trkpt lat="42.7190100" lon="-2.5950600">
<ele>687.872681</ele>
<time>2012-03-29T15:18:08.001Z</time>
</trkpt>
<trkpt lat="42.7190100" lon="-2.5949200">
<ele>689.457581</ele>
<time>2012-03-29T15:18:20.002Z</time>
</trkpt>
<trkpt lat="42.7190100" lon="-2.5948200">
<ele>690.280518</ele>
<time>2012-03-29T15:18:31.000Z</time>
</trkpt>
<trkpt lat="42.7190100" lon="-2.5947700">
<ele>690.737732</ele>
<time>2012-03-29T15:18:35.001Z</time>
</trkpt>
<trkpt lat="42.7190000" lon="-2.5947200">
<ele>691.377869</ele>
<time>2012-03-29T15:18:40.997Z</time>
</trkpt>
<trkpt lat="42.7188300" lon="-2.5946300">
<ele>691.530273</ele>
<time>2012-03-29T15:18:59.003Z</time>
</trkpt>
<trkpt lat="42.7188200" lon="-2.5946100">
<ele>691.804565</ele>
<time>2012-03-29T15:19:00.998Z</time>
</trkpt>
<trkpt lat="42.7187600" lon="-2.5944100">
<ele>693.724792</ele>
<time>2012-03-29T15:19:15.997Z</time>
</trkpt>
<trkpt lat="42.7187500" lon="-2.5943800">
<ele>694.029602</ele>
<time>2012-03-29T15:19:19.004Z</time>
</trkpt>
<trkpt lat="42.7187900" lon="-2.5942000">
<ele>696.498535</ele>
<time>2012-03-29T15:19:34.997Z</time>
</trkpt>
<trkpt lat="42.7188200" lon="-2.5941000">
<ele>697.717712</ele>
<time>2012-03-29T15:19:44.000Z</time>
</trkpt>
<trkpt lat="42.7188400" lon="-2.5940800">
<ele>698.022522</ele>
<time>2012-03-29T15:19:46.998Z</time>
</trkpt>
<trkpt lat="42.7189100" lon="-2.5939400">
<ele>699.729370</ele>
<time>2012-03-29T15:19:57.003Z</time>
</trkpt>
<trkpt lat="42.7189300" lon="-2.5938800">
<ele>699.729370</ele>
<time>2012-03-29T15:20:01.003Z</time>
</trkpt>
<trkpt lat="42.7189500" lon="-2.5938600">
<ele>699.912231</ele>
<time>2012-03-29T15:20:02.999Z</time>
</trkpt>
<trkpt lat="42.7189700" lon="-2.5938000">
<ele>700.125610</ele>
<time>2012-03-29T15:20:08.002Z</time>
</trkpt>
<trkpt lat="42.7190800" lon="-2.5935800">
<ele>700.643738</ele>
<time>2012-03-29T15:20:24.996Z</time>
</trkpt>
<trkpt lat="42.7191100" lon="-2.5933500">
<ele>699.333069</ele>
<time>2012-03-29T15:20:39.002Z</time>
</trkpt>
<trkpt lat="42.7190900" lon="-2.5931000">
<ele>699.942688</ele>
<time>2012-03-29T15:20:52.999Z</time>
</trkpt>
<trkpt lat="42.7190600" lon="-2.5929500">
<ele>699.881775</ele>
<time>2012-03-29T15:21:07.004Z</time>
</trkpt>
<trkpt lat="42.7190200" lon="-2.5928000">
<ele>701.070496</ele>
<time>2012-03-29T15:21:29.002Z</time>
</trkpt>
<trkpt lat="42.7190000" lon="-2.5927500">
<ele>701.436279</ele>
<time>2012-03-29T15:21:33.002Z</time>
</trkpt>
<trkpt lat="42.7189900" lon="-2.5927100">
<ele>701.375305</ele>
<time>2012-03-29T15:21:37.002Z</time>
</trkpt>
<trkpt lat="42.7189200" lon="-2.5926300">
<ele>701.131470</ele>
<time>2012-03-29T15:21:49.997Z</time>
</trkpt>
<trkpt lat="42.7189200" lon="-2.5926200">
<ele>701.222900</ele>
<time>2012-03-29T15:21:50.999Z</time>
</trkpt>
<trkpt lat="42.7188400" lon="-2.5924900">
<ele>702.381104</ele>
<time>2012-03-29T15:22:08.003Z</time>
</trkpt>
<trkpt lat="42.7187800" lon="-2.5923900">
<ele>703.051697</ele>
<time>2012-03-29T15:22:48.999Z</time>
</trkpt>
<trkpt lat="42.7187800" lon="-2.5923000">
<ele>702.990662</ele>
<time>2012-03-29T15:23:06.003Z</time>
</trkpt>
<trkpt lat="42.7187700" lon="-2.5922500">
<ele>703.143066</ele>
<time>2012-03-29T15:23:41.004Z</time>
</trkpt>
<trkpt lat="42.7187700" lon="-2.5922400">
<ele>703.204102</ele>
<time>2012-03-29T15:23:41.997Z</time>
</trkpt>
<trkpt lat="42.7188000" lon="-2.5920100">
<ele>705.307190</ele>
<time>2012-03-29T15:23:59.001Z</time>
</trkpt>
<trkpt lat="42.7188200" lon="-2.5918600">
<ele>706.495911</ele>
<time>2012-03-29T15:24:12.997Z</time>
</trkpt>
<trkpt lat="42.7188400" lon="-2.5916700">
<ele>708.080933</ele>
<time>2012-03-29T15:24:55.999Z</time>
</trkpt>
<trkpt lat="42.7188600" lon="-2.5915800">
<ele>708.690491</ele>
<time>2012-03-29T15:25:02.004Z</time>
</trkpt>
<trkpt lat="42.7188500" lon="-2.5913600">
<ele>710.427856</ele>
<time>2012-03-29T15:25:17.003Z</time>
</trkpt>
<trkpt lat="42.7188400" lon="-2.5911500">
<ele>711.860413</ele>
<time>2012-03-29T15:25:32.002Z</time>
</trkpt>
<trkpt lat="42.7188500" lon="-2.5910800">
<ele>712.561462</ele>
<time>2012-03-29T15:25:51.001Z</time>
</trkpt>
<trkpt lat="42.7188300" lon="-2.5909100">
<ele>713.445374</ele>
<time>2012-03-29T15:26:11.996Z</time>
</trkpt>
<trkpt lat="42.7188100" lon="-2.5906800">
<ele>714.999878</ele>
<time>2012-03-29T15:26:27.997Z</time>
</trkpt>
<trkpt lat="42.7188200" lon="-2.5906200">
<ele>715.060791</ele>
<time>2012-03-29T15:26:42.996Z</time>
</trkpt>
<trkpt lat="42.7188200" lon="-2.5905800">
<ele>715.121765</ele>
<time>2012-03-29T15:26:45.001Z</time>
</trkpt>
<trkpt lat="42.7187800" lon="-2.5903800">
<ele>716.158081</ele>
<time>2012-03-29T15:26:58.004Z</time>
</trkpt>
<trkpt lat="42.7187400" lon="-2.5902600">
<ele>717.560120</ele>
<time>2012-03-29T15:27:04.000Z</time>
</trkpt>
<trkpt lat="42.7186500" lon="-2.5900800">
<ele>719.724243</ele>
<time>2012-03-29T15:27:17.997Z</time>
</trkpt>
<trkpt lat="42.7186400" lon="-2.5900600">
<ele>720.029053</ele>
<time>2012-03-29T15:27:20.002Z</time>
</trkpt>
<trkpt lat="42.7186000" lon="-2.5899900">
<ele>720.760559</ele>
<time>2012-03-29T15:27:25.998Z</time>
</trkpt>
<trkpt lat="42.7185600" lon="-2.5899700">
<ele>720.516663</ele>
<time>2012-03-29T15:27:28.996Z</time>
</trkpt>
<trkpt lat="42.7184900" lon="-2.5898100">
<ele>721.156799</ele>
<time>2012-03-29T15:27:40.997Z</time>
</trkpt>
<trkpt lat="42.7184700" lon="-2.5897100">
<ele>721.461609</ele>
<time>2012-03-29T15:27:47.002Z</time>
</trkpt>
<trkpt lat="42.7184700" lon="-2.5895100">
<ele>722.375977</ele>
<time>2012-03-29T15:28:02.001Z</time>
</trkpt>
<trkpt lat="42.7184700" lon="-2.5893100">
<ele>723.503723</ele>
<time>2012-03-29T15:28:15.997Z</time>
</trkpt>
<trkpt lat="42.7184300" lon="-2.5891900">
<ele>723.381836</ele>
<time>2012-03-29T15:28:25.000Z</time>
</trkpt>
<trkpt lat="42.7183900" lon="-2.5889500">
<ele>724.204773</ele>
<time>2012-03-29T15:28:39.999Z</time>
</trkpt>
<trkpt lat="42.7183400" lon="-2.5887200">
<ele>724.296265</ele>
<time>2012-03-29T15:28:53.003Z</time>
</trkpt>
<trkpt lat="42.7183400" lon="-2.5886500">
<ele>724.814392</ele>
<time>2012-03-29T15:28:57.003Z</time>
</trkpt>
<trkpt lat="42.7183300" lon="-2.5883800">
<ele>726.125061</ele>
<time>2012-03-29T15:29:12.002Z</time>
</trkpt>
<trkpt lat="42.7183200" lon="-2.5881000">
<ele>727.283325</ele>
<time>2012-03-29T15:29:28.003Z</time>
</trkpt>
<trkpt lat="42.7182500" lon="-2.5878700">
<ele>727.435730</ele>
<time>2012-03-29T15:29:43.002Z</time>
</trkpt>
<trkpt lat="42.7182200" lon="-2.5876800">
<ele>728.136719</ele>
<time>2012-03-29T15:29:55.003Z</time>
</trkpt>
<trkpt lat="42.7181700" lon="-2.5877400">
<ele>727.618530</ele>
<time>2012-03-29T15:31:07.000Z</time>
</trkpt>
<trkpt lat="42.7181900" lon="-2.5877400">
<ele>727.801453</ele>
<time>2012-03-29T15:31:21.999Z</time>
</trkpt>
<trkpt lat="42.7181800" lon="-2.5877600">
<ele>727.679504</ele>
<time>2012-03-29T15:31:35.996Z</time>
</trkpt>
<trkpt lat="42.7180600" lon="-2.5876000">
<ele>726.521301</ele>
<time>2012-03-29T15:31:48.999Z</time>
</trkpt>
<trkpt lat="42.7180300" lon="-2.5875300">
<ele>725.972656</ele>
<time>2012-03-29T15:31:54.002Z</time>
</trkpt>
<trkpt lat="42.7178800" lon="-2.5875000">
<ele>723.198975</ele>
<time>2012-03-29T15:32:07.999Z</time>
</trkpt>
<trkpt lat="42.7177700" lon="-2.5874700">
<ele>722.040710</ele>
<time>2012-03-29T15:32:17.002Z</time>
</trkpt>
<trkpt lat="42.7176600" lon="-2.5874800">
<ele>720.973877</ele>
<time>2012-03-29T15:32:25.002Z</time>
</trkpt>
<trkpt lat="42.7176100" lon="-2.5874600">
<ele>721.217773</ele>
<time>2012-03-29T15:32:29.003Z</time>
</trkpt>
<trkpt lat="42.7176200" lon="-2.5873000">
<ele>720.486267</ele>
<time>2012-03-29T15:32:41.004Z</time>
</trkpt>
<trkpt lat="42.7176300" lon="-2.5871500">
<ele>719.449890</ele>
<time>2012-03-29T15:32:55.000Z</time>
</trkpt>
<trkpt lat="42.7176000" lon="-2.5870700">
<ele>718.626953</ele>
<time>2012-03-29T15:33:07.001Z</time>
</trkpt>
<trkpt lat="42.7174400" lon="-2.5870400">
<ele>716.493347</ele>
<time>2012-03-29T15:33:19.002Z</time>
</trkpt>
<trkpt lat="42.7173000" lon="-2.5870400">
<ele>714.816956</ele>
<time>2012-03-29T15:33:30.001Z</time>
</trkpt>
<trkpt lat="42.7171700" lon="-2.5870900">
<ele>713.414917</ele>
<time>2012-03-29T15:33:42.002Z</time>
</trkpt>
<trkpt lat="42.7170500" lon="-2.5871300">
<ele>710.824097</ele>
<time>2012-03-29T15:33:51.998Z</time>
</trkpt>
<trkpt lat="42.7168700" lon="-2.5872100">
<ele>707.532227</ele>
<time>2012-03-29T15:34:06.997Z</time>
</trkpt>
<trkpt lat="42.7168300" lon="-2.5872500">
<ele>706.831177</ele>
<time>2012-03-29T15:34:10.998Z</time>
</trkpt>
<trkpt lat="42.7168100" lon="-2.5873000">
<ele>706.983582</ele>
<time>2012-03-29T15:34:16.000Z</time>
</trkpt>
<trkpt lat="42.7166900" lon="-2.5874600">
<ele>705.154785</ele>
<time>2012-03-29T15:34:29.004Z</time>
</trkpt>
<trkpt lat="42.7166700" lon="-2.5874900">
<ele>704.636658</ele>
<time>2012-03-29T15:34:30.999Z</time>
</trkpt>
<trkpt lat="42.7166400" lon="-2.5875000">
<ele>704.301331</ele>
<time>2012-03-29T15:34:33.004Z</time>
</trkpt>
<trkpt lat="42.7164800" lon="-2.5874300">
<ele>701.649597</ele>
<time>2012-03-29T15:34:45.998Z</time>
</trkpt>
<trkpt lat="42.7164700" lon="-2.5874300">
<ele>701.558167</ele>
<time>2012-03-29T15:34:47.001Z</time>
</trkpt>
<trkpt lat="42.7164300" lon="-2.5874600">
<ele>701.131470</ele>
<time>2012-03-29T15:34:52.003Z</time>
</trkpt>
<trkpt lat="42.7163400" lon="-2.5876600">
<ele>700.186523</ele>
<time>2012-03-29T15:35:06.000Z</time>
</trkpt>
<trkpt lat="42.7162500" lon="-2.5879200">
<ele>697.229980</ele>
<time>2012-03-29T15:35:20.999Z</time>
</trkpt>
<trkpt lat="42.7162500" lon="-2.5880900">
<ele>696.650940</ele>
<time>2012-03-29T15:35:30.002Z</time>
</trkpt>
<trkpt lat="42.7162300" lon="-2.5881400">
<ele>695.827881</ele>
<time>2012-03-29T15:36:39.001Z</time>
</trkpt>
<trkpt lat="42.7161900" lon="-2.5882200">
<ele>695.370667</ele>
<time>2012-03-29T15:36:48.997Z</time>
</trkpt>
<trkpt lat="42.7161100" lon="-2.5882600">
<ele>694.578247</ele>
<time>2012-03-29T15:37:04.999Z</time>
</trkpt>
<trkpt lat="42.7160600" lon="-2.5882700">
<ele>693.999084</ele>
<time>2012-03-29T15:37:22.996Z</time>
</trkpt>
<trkpt lat="42.7160300" lon="-2.5882400">
<ele>693.663879</ele>
<time>2012-03-29T15:37:29.001Z</time>
</trkpt>
<trkpt lat="42.7158800" lon="-2.5882400">
<ele>692.414124</ele>
<time>2012-03-29T15:37:38.004Z</time>
</trkpt>
<trkpt lat="42.7156700" lon="-2.5883000">
<ele>692.779907</ele>
<time>2012-03-29T15:37:54.998Z</time>
</trkpt>
<trkpt lat="42.7155900" lon="-2.5883400">
<ele>693.663879</ele>
<time>2012-03-29T15:38:01.997Z</time>
</trkpt>
<trkpt lat="42.7154000" lon="-2.5883500">
<ele>694.822083</ele>
<time>2012-03-29T15:38:16.002Z</time>
</trkpt>
<trkpt lat="42.7152300" lon="-2.5883000">
<ele>696.650940</ele>
<time>2012-03-29T15:38:28.997Z</time>
</trkpt>
<trkpt lat="42.7151500" lon="-2.5882000">
<ele>697.504272</ele>
<time>2012-03-29T15:38:40.004Z</time>
</trkpt>
<trkpt lat="42.7149800" lon="-2.5880900">
<ele>699.394104</ele>
<time>2012-03-29T15:38:55.003Z</time>
</trkpt>
<trkpt lat="42.7149100" lon="-2.5880600">
<ele>700.369446</ele>
<time>2012-03-29T15:39:03.004Z</time>
</trkpt>
<trkpt lat="42.7148900" lon="-2.5880400">
<ele>700.796143</ele>
<time>2012-03-29T15:39:06.002Z</time>
</trkpt>
<trkpt lat="42.7148800" lon="-2.5879300">
<ele>701.741028</ele>
<time>2012-03-29T15:39:18.996Z</time>
</trkpt>
<trkpt lat="42.7148700" lon="-2.5879100">
<ele>702.106812</ele>
<time>2012-03-29T15:39:21.001Z</time>
</trkpt>
<trkpt lat="42.7148500" lon="-2.5878700">
<ele>702.746887</ele>
<time>2012-03-29T15:39:23.999Z</time>
</trkpt>
<trkpt lat="42.7147900" lon="-2.5877500">
<ele>704.484253</ele>
<time>2012-03-29T15:39:36.000Z</time>
</trkpt>
<trkpt lat="42.7147000" lon="-2.5876200">
<ele>706.495911</ele>
<time>2012-03-29T15:39:49.003Z</time>
</trkpt>
<trkpt lat="42.7146700" lon="-2.5876100">
<ele>706.678772</ele>
<time>2012-03-29T15:39:50.999Z</time>
</trkpt>
<trkpt lat="42.7146400" lon="-2.5875800">
<ele>707.196960</ele>
<time>2012-03-29T15:39:54.999Z</time>
</trkpt>
<trkpt lat="42.7146300" lon="-2.5875200">
<ele>708.355225</ele>
<time>2012-03-29T15:40:08.003Z</time>
</trkpt>
<trkpt lat="42.7144900" lon="-2.5874000">
<ele>710.244934</ele>
<time>2012-03-29T15:40:21.999Z</time>
</trkpt>
<trkpt lat="42.7143900" lon="-2.5873900">
<ele>711.159363</ele>
<time>2012-03-29T15:40:31.002Z</time>
</trkpt>
<trkpt lat="42.7142500" lon="-2.5872900">
<ele>715.396118</ele>
<time>2012-03-29T15:40:43.997Z</time>
</trkpt>
<trkpt lat="42.7141400" lon="-2.5872300">
<ele>718.535461</ele>
<time>2012-03-29T15:40:55.998Z</time>
</trkpt>
<trkpt lat="42.7139400" lon="-2.5871900">
<ele>718.322144</ele>
<time>2012-03-29T15:41:13.001Z</time>
</trkpt>
<trkpt lat="42.7138300" lon="-2.5871600">
<ele>717.529724</ele>
<time>2012-03-29T15:41:25.996Z</time>
</trkpt>
<trkpt lat="42.7137300" lon="-2.5871600">
<ele>715.700928</ele>
<time>2012-03-29T15:41:36.001Z</time>
</trkpt>
<trkpt lat="42.7136400" lon="-2.5870900">
<ele>715.792297</ele>
<time>2012-03-29T15:41:45.004Z</time>
</trkpt>
<trkpt lat="42.7135000" lon="-2.5870400">
<ele>713.750122</ele>
<time>2012-03-29T15:41:57.998Z</time>
</trkpt>
<trkpt lat="42.7134300" lon="-2.5869400">
<ele>714.816956</ele>
<time>2012-03-29T15:42:08.997Z</time>
</trkpt>
<trkpt lat="42.7133100" lon="-2.5868300">
<ele>714.755981</ele>
<time>2012-03-29T15:42:23.003Z</time>
</trkpt>
<trkpt lat="42.7132400" lon="-2.5867800">
<ele>715.243713</ele>
<time>2012-03-29T15:42:30.001Z</time>
</trkpt>
<trkpt lat="42.7130900" lon="-2.5867100">
<ele>714.938904</ele>
<time>2012-03-29T15:42:43.998Z</time>
</trkpt>
<trkpt lat="42.7130800" lon="-2.5867000">
<ele>714.969360</ele>
<time>2012-03-29T15:42:46.002Z</time>
</trkpt>
<trkpt lat="42.7128800" lon="-2.5866700">
<ele>715.304626</ele>
<time>2012-03-29T15:43:02.997Z</time>
</trkpt>
<trkpt lat="42.7128100" lon="-2.5866500">
<ele>715.518005</ele>
<time>2012-03-29T15:43:10.998Z</time>
</trkpt>
<trkpt lat="42.7126600" lon="-2.5865300">
<ele>715.731323</ele>
<time>2012-03-29T15:43:25.003Z</time>
</trkpt>
<trkpt lat="42.7126000" lon="-2.5864500">
<ele>715.761841</ele>
<time>2012-03-29T15:43:37.998Z</time>
</trkpt>
<trkpt lat="42.7125900" lon="-2.5863800">
<ele>715.213196</ele>
<time>2012-03-29T15:43:41.998Z</time>
</trkpt>
<trkpt lat="42.7125900" lon="-2.5863200">
<ele>714.542664</ele>
<time>2012-03-29T15:43:45.998Z</time>
</trkpt>
<trkpt lat="42.7126100" lon="-2.5862600">
<ele>714.451172</ele>
<time>2012-03-29T15:43:49.999Z</time>
</trkpt>
<trkpt lat="42.7126100" lon="-2.5861900">
<ele>713.231995</ele>
<time>2012-03-29T15:43:53.999Z</time>
</trkpt>
<trkpt lat="42.7126700" lon="-2.5859400">
<ele>709.909729</ele>
<time>2012-03-29T15:44:10.000Z</time>
</trkpt>
<trkpt lat="42.7126700" lon="-2.5858800">
<ele>709.178162</ele>
<time>2012-03-29T15:44:14.001Z</time>
</trkpt>
<trkpt lat="42.7126100" lon="-2.5856500">
<ele>705.429077</ele>
<time>2012-03-29T15:44:30.002Z</time>
</trkpt>
<trkpt lat="42.7125300" lon="-2.5855300">
<ele>702.381104</ele>
<time>2012-03-29T15:44:38.996Z</time>
</trkpt>
<trkpt lat="42.7125200" lon="-2.5854700">
<ele>701.161865</ele>
<time>2012-03-29T15:44:42.996Z</time>
</trkpt>
<trkpt lat="42.7125100" lon="-2.5853500">
<ele>699.180664</ele>
<time>2012-03-29T15:44:50.997Z</time>
</trkpt>
<trkpt lat="42.7124700" lon="-2.5853000">
<ele>697.656677</ele>
<time>2012-03-29T15:44:56.000Z</time>
</trkpt>
<trkpt lat="42.7123700" lon="-2.5852000">
<ele>693.846680</ele>
<time>2012-03-29T15:45:09.996Z</time>
</trkpt>
<trkpt lat="42.7123400" lon="-2.5851700">
<ele>693.023743</ele>
<time>2012-03-29T15:45:13.997Z</time>
</trkpt>
<trkpt lat="42.7123400" lon="-2.5851000">
<ele>692.627502</ele>
<time>2012-03-29T15:45:28.996Z</time>
</trkpt>
<trkpt lat="42.7123500" lon="-2.5851000">
<ele>692.810425</ele>
<time>2012-03-29T15:45:52.998Z</time>
</trkpt>
<trkpt lat="42.7123500" lon="-2.5850800">
<ele>692.718933</ele>
<time>2012-03-29T15:46:22.002Z</time>
</trkpt>
<trkpt lat="42.7123700" lon="-2.5850200">
<ele>692.932312</ele>
<time>2012-03-29T15:46:26.003Z</time>
</trkpt>
<trkpt lat="42.7123800" lon="-2.5849700">
<ele>693.176147</ele>
<time>2012-03-29T15:46:42.997Z</time>
</trkpt>
<trkpt lat="42.7123700" lon="-2.5847300">
<ele>696.193726</ele>
<time>2012-03-29T15:46:54.998Z</time>
</trkpt>
<trkpt lat="42.7123600" lon="-2.5845300">
<ele>697.748169</ele>
<time>2012-03-29T15:47:06.999Z</time>
</trkpt>
<trkpt lat="42.7123500" lon="-2.5844900">
<ele>698.113892</ele>
<time>2012-03-29T15:47:09.004Z</time>
</trkpt>
<trkpt lat="42.7123200" lon="-2.5842700">
<ele>699.820801</ele>
<time>2012-03-29T15:47:23.001Z</time>
</trkpt>
<trkpt lat="42.7122700" lon="-2.5841400">
<ele>701.893433</ele>
<time>2012-03-29T15:47:36.004Z</time>
</trkpt>
<trkpt lat="42.7122600" lon="-2.5841300">
<ele>702.076294</ele>
<time>2012-03-29T15:47:38.000Z</time>
</trkpt>
<trkpt lat="42.7120900" lon="-2.5841000">
<ele>703.508911</ele>
<time>2012-03-29T15:47:51.996Z</time>
</trkpt>
<trkpt lat="42.7120500" lon="-2.5840800">
<ele>704.331848</ele>
<time>2012-03-29T15:47:55.997Z</time>
</trkpt>
<trkpt lat="42.7119300" lon="-2.5839700">
<ele>707.257874</ele>
<time>2012-03-29T15:48:10.996Z</time>
</trkpt>
<trkpt lat="42.7118400" lon="-2.5839200">
<ele>709.726807</ele>
<time>2012-03-29T15:48:26.004Z</time>
</trkpt>
<trkpt lat="42.7117500" lon="-2.5838500">
<ele>712.530945</ele>
<time>2012-03-29T15:48:40.000Z</time>
</trkpt>
<trkpt lat="42.7116500" lon="-2.5837900">
<ele>714.298828</ele>
<time>2012-03-29T15:48:57.997Z</time>
</trkpt>
<trkpt lat="42.7115800" lon="-2.5837200">
<ele>717.163879</ele>
<time>2012-03-29T15:49:12.996Z</time>
</trkpt>
<trkpt lat="42.7115700" lon="-2.5837300">
<ele>717.133484</ele>
<time>2012-03-29T15:49:28.004Z</time>
</trkpt>
<trkpt lat="42.7113700" lon="-2.5838800">
<ele>718.169739</ele>
<time>2012-03-29T15:49:44.999Z</time>
</trkpt>
<trkpt lat="42.7112600" lon="-2.5839400">
<ele>718.687866</ele>
<time>2012-03-29T15:49:55.004Z</time>
</trkpt>
<trkpt lat="42.7110900" lon="-2.5839400">
<ele>720.303345</ele>
<time>2012-03-29T15:50:10.003Z</time>
</trkpt>
<trkpt lat="42.7110700" lon="-2.5839400">
<ele>720.425293</ele>
<time>2012-03-29T15:50:11.999Z</time>
</trkpt>
<trkpt lat="42.7109000" lon="-2.5838900">
<ele>721.217773</ele>
<time>2012-03-29T15:50:29.003Z</time>
</trkpt>
<trkpt lat="42.7108300" lon="-2.5838900">
<ele>721.217773</ele>
<time>2012-03-29T15:50:42.999Z</time>
</trkpt>
<trkpt lat="42.7106800" lon="-2.5838900">
<ele>721.126282</ele>
<time>2012-03-29T15:50:56.996Z</time>
</trkpt>
<trkpt lat="42.7105400" lon="-2.5838600">
<ele>721.431091</ele>
<time>2012-03-29T15:51:11.002Z</time>
</trkpt>
<trkpt lat="42.7105200" lon="-2.5838000">
<ele>721.827332</ele>
<time>2012-03-29T15:51:24.998Z</time>
</trkpt>
<trkpt lat="42.7104200" lon="-2.5837000">
<ele>722.680786</ele>
<time>2012-03-29T15:51:43.004Z</time>
</trkpt>
<trkpt lat="42.7102700" lon="-2.5835200">
<ele>725.302124</ele>
<time>2012-03-29T15:51:58.997Z</time>
</trkpt>
<trkpt lat="42.7101600" lon="-2.5833800">
<ele>726.155518</ele>
<time>2012-03-29T15:52:14.998Z</time>
</trkpt>
<trkpt lat="42.7100400" lon="-2.5832600">
<ele>725.363037</ele>
<time>2012-03-29T15:52:52.997Z</time>
</trkpt>
<trkpt lat="42.7098700" lon="-2.5831200">
<ele>725.119202</ele>
<time>2012-03-29T15:53:08.998Z</time>
</trkpt>
<trkpt lat="42.7096500" lon="-2.5830200">
<ele>723.991455</ele>
<time>2012-03-29T15:53:27.004Z</time>
</trkpt>
<trkpt lat="42.7094900" lon="-2.5829200">
<ele>724.113342</ele>
<time>2012-03-29T15:53:42.003Z</time>
</trkpt>
<trkpt lat="42.7093300" lon="-2.5827900">
<ele>722.619873</ele>
<time>2012-03-29T15:53:57.002Z</time>
</trkpt>
<trkpt lat="42.7091700" lon="-2.5826600">
<ele>720.608154</ele>
<time>2012-03-29T15:54:13.003Z</time>
</trkpt>
<trkpt lat="42.7089800" lon="-2.5824400">
<ele>716.828674</ele>
<time>2012-03-29T15:54:32.996Z</time>
</trkpt>
<trkpt lat="42.7088600" lon="-2.5822500">
<ele>715.335083</ele>
<time>2012-03-29T15:54:48.004Z</time>
</trkpt>
<trkpt lat="42.7087800" lon="-2.5821200">
<ele>713.841614</ele>
<time>2012-03-29T15:54:58.000Z</time>
</trkpt>
<trkpt lat="42.7087300" lon="-2.5820200">
<ele>711.951843</ele>
<time>2012-03-29T15:55:10.001Z</time>
</trkpt>
<trkpt lat="42.7085900" lon="-2.5817700">
<ele>708.385681</ele>
<time>2012-03-29T15:55:29.001Z</time>
</trkpt>
<trkpt lat="42.7084400" lon="-2.5815500">
<ele>706.770264</ele>
<time>2012-03-29T15:55:48.000Z</time>
</trkpt>
<trkpt lat="42.7083300" lon="-2.5813300">
<ele>705.977722</ele>
<time>2012-03-29T15:56:04.001Z</time>
</trkpt>
<trkpt lat="42.7082700" lon="-2.5812400">
<ele>705.246277</ele>
<time>2012-03-29T15:56:17.998Z</time>
</trkpt>
<trkpt lat="42.7081100" lon="-2.5809800">
<ele>702.868774</ele>
<time>2012-03-29T15:56:36.004Z</time>
</trkpt>
<trkpt lat="42.7080000" lon="-2.5807700">
<ele>701.405762</ele>
<time>2012-03-29T15:56:52.999Z</time>
</trkpt>
<trkpt lat="42.7079000" lon="-2.5805000">
<ele>699.302673</ele>
<time>2012-03-29T15:57:09.000Z</time>
</trkpt>
<trkpt lat="42.7077300" lon="-2.5804300">
<ele>700.399902</ele>
<time>2012-03-29T15:57:22.997Z</time>
</trkpt>
<trkpt lat="42.7075900" lon="-2.5802800">
<ele>699.180664</ele>
<time>2012-03-29T15:57:37.996Z</time>
</trkpt>
<trkpt lat="42.7074600" lon="-2.5801000">
<ele>697.626282</ele>
<time>2012-03-29T15:57:53.004Z</time>
</trkpt>
<trkpt lat="42.7072900" lon="-2.5798700">
<ele>694.822083</ele>
<time>2012-03-29T15:58:11.001Z</time>
</trkpt>
<trkpt lat="42.7072900" lon="-2.5797500">
<ele>695.126892</ele>
<time>2012-03-29T15:58:17.999Z</time>
</trkpt>
<trkpt lat="42.7072500" lon="-2.5796900">
<ele>695.614563</ele>
<time>2012-03-29T15:58:23.002Z</time>
</trkpt>
<trkpt lat="42.7071300" lon="-2.5797000">
<ele>695.218262</ele>
<time>2012-03-29T15:58:32.998Z</time>
</trkpt>
<trkpt lat="42.7070900" lon="-2.5796700">
<ele>695.553589</ele>
<time>2012-03-29T15:58:36.998Z</time>
</trkpt>
<trkpt lat="42.7069600" lon="-2.5795200">
<ele>697.260498</ele>
<time>2012-03-29T15:58:53.000Z</time>
</trkpt>
<trkpt lat="42.7068700" lon="-2.5794000">
<ele>698.052917</ele>
<time>2012-03-29T15:59:06.003Z</time>
</trkpt>
<trkpt lat="42.7067500" lon="-2.5791900">
<ele>699.790283</ele>
<time>2012-03-29T15:59:21.002Z</time>
</trkpt>
<trkpt lat="42.7066500" lon="-2.5790700">
<ele>700.857117</ele>
<time>2012-03-29T15:59:33.996Z</time>
</trkpt>
<trkpt lat="42.7066000" lon="-2.5790800">
<ele>701.344788</ele>
<time>2012-03-29T15:59:38.999Z</time>
</trkpt>
<trkpt lat="42.7064600" lon="-2.5790000">
<ele>702.381104</ele>
<time>2012-03-29T15:59:52.996Z</time>
</trkpt>
<trkpt lat="42.7064400" lon="-2.5789800">
<ele>702.533508</ele>
<time>2012-03-29T15:59:56.003Z</time>
</trkpt>
<trkpt lat="42.7063800" lon="-2.5789500">
<ele>702.777344</ele>
<time>2012-03-29T16:00:01.999Z</time>
</trkpt>
<trkpt lat="42.7062800" lon="-2.5788100">
<ele>703.966125</ele>
<time>2012-03-29T16:00:16.004Z</time>
</trkpt>
<trkpt lat="42.7062700" lon="-2.5787900">
<ele>704.118530</ele>
<time>2012-03-29T16:00:16.998Z</time>
</trkpt>
<trkpt lat="42.7061400" lon="-2.5786500">
<ele>705.276672</ele>
<time>2012-03-29T16:00:32.999Z</time>
</trkpt>
<trkpt lat="42.7060900" lon="-2.5785200">
<ele>706.343506</ele>
<time>2012-03-29T16:00:43.004Z</time>
</trkpt>
<trkpt lat="42.7059500" lon="-2.5783200">
<ele>707.989441</ele>
<time>2012-03-29T16:01:01.001Z</time>
</trkpt>
<trkpt lat="42.7059100" lon="-2.5782900">
<ele>708.233337</ele>
<time>2012-03-29T16:01:05.002Z</time>
</trkpt>
<trkpt lat="42.7058900" lon="-2.5782400">
<ele>708.629517</ele>
<time>2012-03-29T16:01:09.002Z</time>
</trkpt>
<trkpt lat="42.7058100" lon="-2.5780800">
<ele>709.940125</ele>
<time>2012-03-29T16:01:21.996Z</time>
</trkpt>
<trkpt lat="42.7057700" lon="-2.5780300">
<ele>710.366882</ele>
<time>2012-03-29T16:01:29.997Z</time>
</trkpt>
<trkpt lat="42.7056600" lon="-2.5778000">
<ele>711.159363</ele>
<time>2012-03-29T16:01:47.001Z</time>
</trkpt>
<trkpt lat="42.7056200" lon="-2.5776100">
<ele>712.805298</ele>
<time>2012-03-29T16:02:00.997Z</time>
</trkpt>
<trkpt lat="42.7055600" lon="-2.5774600">
<ele>714.024536</ele>
<time>2012-03-29T16:02:18.001Z</time>
</trkpt>
<trkpt lat="42.7054800" lon="-2.5773700">
<ele>713.933044</ele>
<time>2012-03-29T16:02:31.004Z</time>
</trkpt>
<trkpt lat="42.7053900" lon="-2.5772200">
<ele>715.030273</ele>
<time>2012-03-29T16:02:45.001Z</time>
</trkpt>
<trkpt lat="42.7053400" lon="-2.5771000">
<ele>716.036133</ele>
<time>2012-03-29T16:02:58.004Z</time>
</trkpt>
<trkpt lat="42.7053200" lon="-2.5770600">
<ele>716.493347</ele>
<time>2012-03-29T16:03:01.996Z</time>
</trkpt>
<trkpt lat="42.7052000" lon="-2.5768500">
<ele>717.072510</ele>
<time>2012-03-29T16:03:17.997Z</time>
</trkpt>
<trkpt lat="42.7051300" lon="-2.5766300">
<ele>718.992676</ele>
<time>2012-03-29T16:03:32.996Z</time>
</trkpt>
<trkpt lat="42.7051000" lon="-2.5765900">
<ele>718.840271</ele>
<time>2012-03-29T16:03:36.003Z</time>
</trkpt>
<trkpt lat="42.7050900" lon="-2.5765200">
<ele>718.718384</ele>
<time>2012-03-29T16:03:40.997Z</time>
</trkpt>
<trkpt lat="42.7050800" lon="-2.5764200">
<ele>719.602295</ele>
<time>2012-03-29T16:03:48.004Z</time>
</trkpt>
<trkpt lat="42.7050100" lon="-2.5762200">
<ele>720.059509</ele>
<time>2012-03-29T16:04:03.996Z</time>
</trkpt>
<trkpt lat="42.7049000" lon="-2.5760500">
<ele>721.400635</ele>
<time>2012-03-29T16:04:19.004Z</time>
</trkpt>
<trkpt lat="42.7047600" lon="-2.5758700">
<ele>722.040710</ele>
<time>2012-03-29T16:04:35.999Z</time>
</trkpt>
<trkpt lat="42.7047500" lon="-2.5758500">
<ele>721.979736</ele>
<time>2012-03-29T16:04:38.004Z</time>
</trkpt>
<trkpt lat="42.7046800" lon="-2.5756300">
<ele>723.046570</ele>
<time>2012-03-29T16:04:53.003Z</time>
</trkpt>
<trkpt lat="42.7046600" lon="-2.5755800">
<ele>723.351318</ele>
<time>2012-03-29T16:04:57.996Z</time>
</trkpt>
<trkpt lat="42.7046200" lon="-2.5753700">
<ele>726.064087</ele>
<time>2012-03-29T16:05:13.004Z</time>
</trkpt>
<trkpt lat="42.7046000" lon="-2.5751600">
<ele>729.294922</ele>
<time>2012-03-29T16:05:25.999Z</time>
</trkpt>
<trkpt lat="42.7045200" lon="-2.5749400">
<ele>730.575073</ele>
<time>2012-03-29T16:05:40.998Z</time>
</trkpt>
<trkpt lat="42.7045200" lon="-2.5747400">
<ele>732.434387</ele>
<time>2012-03-29T16:05:54.001Z</time>
</trkpt>
<trkpt lat="42.7044800" lon="-2.5745100">
<ele>734.385071</ele>
<time>2012-03-29T16:06:07.998Z</time>
</trkpt>
<trkpt lat="42.7044400" lon="-2.5744200">
<ele>733.988892</ele>
<time>2012-03-29T16:06:14.003Z</time>
</trkpt>
<trkpt lat="42.7044200" lon="-2.5743600">
<ele>733.988892</ele>
<time>2012-03-29T16:06:18.003Z</time>
</trkpt>
<trkpt lat="42.7043700" lon="-2.5742200">
<ele>735.116638</ele>
<time>2012-03-29T16:06:26.997Z</time>
</trkpt>
<trkpt lat="42.7043200" lon="-2.5740600">
<ele>735.147095</ele>
<time>2012-03-29T16:06:41.003Z</time>
</trkpt>
<trkpt lat="42.7043000" lon="-2.5739500">
<ele>735.848145</ele>
<time>2012-03-29T16:06:50.999Z</time>
</trkpt>
<trkpt lat="42.7042400" lon="-2.5737200">
<ele>737.006409</ele>
<time>2012-03-29T16:07:05.998Z</time>
</trkpt>
<trkpt lat="42.7041800" lon="-2.5735300">
<ele>738.408508</ele>
<time>2012-03-29T16:07:20.004Z</time>
</trkpt>
<trkpt lat="42.7041700" lon="-2.5733300">
<ele>740.450684</ele>
<time>2012-03-29T16:07:35.996Z</time>
</trkpt>
<trkpt lat="42.7041600" lon="-2.5733100">
<ele>740.511597</ele>
<time>2012-03-29T16:07:38.001Z</time>
</trkpt>
<trkpt lat="42.7041600" lon="-2.5732500">
<ele>740.907837</ele>
<time>2012-03-29T16:07:42.001Z</time>
</trkpt>
<trkpt lat="42.7041600" lon="-2.5730300">
<ele>743.437683</ele>
<time>2012-03-29T16:07:57.000Z</time>
</trkpt>
<trkpt lat="42.7041200" lon="-2.5728400">
<ele>744.992126</ele>
<time>2012-03-29T16:08:10.997Z</time>
</trkpt>
<trkpt lat="42.7039600" lon="-2.5727100">
<ele>744.900696</ele>
<time>2012-03-29T16:08:25.996Z</time>
</trkpt>
<trkpt lat="42.7038600" lon="-2.5726200">
<ele>745.937073</ele>
<time>2012-03-29T16:08:38.999Z</time>
</trkpt>
<trkpt lat="42.7037600" lon="-2.5725100">
<ele>746.668518</ele>
<time>2012-03-29T16:08:53.998Z</time>
</trkpt>
<trkpt lat="42.7037000" lon="-2.5724500">
<ele>746.302795</ele>
<time>2012-03-29T16:09:08.004Z</time>
</trkpt>
<trkpt lat="42.7036500" lon="-2.5724100">
<ele>745.540771</ele>
<time>2012-03-29T16:09:12.004Z</time>
</trkpt>
<trkpt lat="42.7035500" lon="-2.5723200">
<ele>744.260681</ele>
<time>2012-03-29T16:09:28.999Z</time>
</trkpt>
<trkpt lat="42.7035000" lon="-2.5723000">
<ele>743.711975</ele>
<time>2012-03-29T16:09:34.001Z</time>
</trkpt>
<trkpt lat="42.7034600" lon="-2.5722600">
<ele>743.590088</ele>
<time>2012-03-29T16:09:53.001Z</time>
</trkpt>
<trkpt lat="42.7034600" lon="-2.5722600">
<ele>743.590088</ele>
<time>2012-03-29T16:09:58.003Z</time>
</trkpt>
<trkpt lat="42.7034600" lon="-2.5721900">
<ele>742.675720</ele>
<time>2012-03-29T16:10:02.004Z</time>
</trkpt>
<trkpt lat="42.7034500" lon="-2.5721400">
<ele>742.096558</ele>
<time>2012-03-29T16:10:06.004Z</time>
</trkpt>
<trkpt lat="42.7034800" lon="-2.5719700">
<ele>739.719116</ele>
<time>2012-03-29T16:10:17.996Z</time>
</trkpt>
<trkpt lat="42.7035400" lon="-2.5716700">
<ele>736.305359</ele>
<time>2012-03-29T16:10:39.000Z</time>
</trkpt>
<trkpt lat="42.7035700" lon="-2.5715400">
<ele>735.756714</ele>
<time>2012-03-29T16:10:48.003Z</time>
</trkpt>
<trkpt lat="42.7035800" lon="-2.5715100">
<ele>735.634827</ele>
<time>2012-03-29T16:10:49.999Z</time>
</trkpt>
<trkpt lat="42.7035500" lon="-2.5712900">
<ele>731.337097</ele>
<time>2012-03-29T16:11:06.000Z</time>
</trkpt>
<trkpt lat="42.7034900" lon="-2.5710600">
<ele>727.130920</ele>
<time>2012-03-29T16:11:22.001Z</time>
</trkpt>
<trkpt lat="42.7033600" lon="-2.5708300">
<ele>724.631470</ele>
<time>2012-03-29T16:11:39.998Z</time>
</trkpt>
<trkpt lat="42.7032000" lon="-2.5707000">
<ele>723.656128</ele>
<time>2012-03-29T16:11:57.002Z</time>
</trkpt>
<trkpt lat="42.7030800" lon="-2.5706200">
<ele>719.419434</ele>
<time>2012-03-29T16:12:09.996Z</time>
</trkpt>
<trkpt lat="42.7030100" lon="-2.5704100">
<ele>718.992676</ele>
<time>2012-03-29T16:12:28.002Z</time>
</trkpt>
<trkpt lat="42.7029900" lon="-2.5703700">
<ele>717.986938</ele>
<time>2012-03-29T16:12:45.999Z</time>
</trkpt>
<trkpt lat="42.7029800" lon="-2.5702200">
<ele>716.737183</ele>
<time>2012-03-29T16:13:03.003Z</time>
</trkpt>
<trkpt lat="42.7029700" lon="-2.5701500">
<ele>715.609436</ele>
<time>2012-03-29T16:13:07.003Z</time>
</trkpt>
<trkpt lat="42.7029700" lon="-2.5699700">
<ele>713.658691</ele>
<time>2012-03-29T16:13:19.998Z</time>
</trkpt>
<trkpt lat="42.7029800" lon="-2.5698900">
<ele>713.018677</ele>
<time>2012-03-29T16:13:25.000Z</time>
</trkpt>
<trkpt lat="42.7029500" lon="-2.5697700">
<ele>710.397339</ele>
<time>2012-03-29T16:13:39.999Z</time>
</trkpt>
<trkpt lat="42.7029600" lon="-2.5695800">
<ele>707.105469</ele>
<time>2012-03-29T16:13:52.000Z</time>
</trkpt>
<trkpt lat="42.7029900" lon="-2.5693400">
<ele>704.849976</ele>
<time>2012-03-29T16:14:08.002Z</time>
</trkpt>
<trkpt lat="42.7029800" lon="-2.5690900">
<ele>702.685913</ele>
<time>2012-03-29T16:14:23.001Z</time>
</trkpt>
<trkpt lat="42.7029600" lon="-2.5688600">
<ele>701.375305</ele>
<time>2012-03-29T16:14:39.002Z</time>
</trkpt>
<trkpt lat="42.7029400" lon="-2.5686000">
<ele>699.302673</ele>
<time>2012-03-29T16:14:55.003Z</time>
</trkpt>
<trkpt lat="42.7029300" lon="-2.5683700">
<ele>698.357727</ele>
<time>2012-03-29T16:15:09.000Z</time>
</trkpt>
<trkpt lat="42.7029200" lon="-2.5682300">
<ele>697.900574</ele>
<time>2012-03-29T16:15:23.999Z</time>
</trkpt>
<trkpt lat="42.7029000" lon="-2.5681100">
<ele>697.565308</ele>
<time>2012-03-29T16:15:32.000Z</time>
</trkpt>
<trkpt lat="42.7028100" lon="-2.5678400">
<ele>695.675476</ele>
<time>2012-03-29T16:15:50.999Z</time>
</trkpt>
</trkseg>
</trk>
</gpx>
